<?xml version="1.0" encoding="UTF-8" standalone="no" ?>
<gpx xmlns="http://www.topografix.com/GPX/1/1" xmlns:xsi="http://www.w3.org/2001/XMLSchema-instance" xsi:schemaLocation="http://www.topografix.com/GPX/1/1 http://www.topografix.com/GPX/1/1/gpx.xsd" version="1.1" creator="VisuGPX - https://www.visugpx.com">
  <metadata>
    <name>25-07-22</name>
    <desc><![CDATA[TDF-USMétro]]></desc>
  </metadata>
  <trk>
    <name><![CDATA[25-07-22_1]]></name>
    <trkseg>
      <trkpt lat="42.90329" lon="0.36056">
        <ele>721.2</ele>
        <time>2025-07-22T03:13:26Z</time>
      </trkpt>
      <trkpt lat="42.90328" lon="0.36056">
        <ele>719.6</ele>
        <time>2025-07-22T03:13:27Z</time>
      </trkpt>
      <trkpt lat="42.90335" lon="0.36054">
        <ele>720.8</ele>
        <time>2025-07-22T03:14:27Z</time>
      </trkpt>
      <trkpt lat="42.90338" lon="0.36052">
        <ele>720.8</ele>
        <time>2025-07-22T03:14:29Z</time>
      </trkpt>
      <trkpt lat="42.90354" lon="0.36039">
        <ele>720.6</ele>
        <time>2025-07-22T03:14:36Z</time>
      </trkpt>
      <trkpt lat="42.90377" lon="0.36028">
        <ele>719.8</ele>
        <time>2025-07-22T03:14:43Z</time>
      </trkpt>
      <trkpt lat="42.9038" lon="0.36026">
        <ele>719.6</ele>
        <time>2025-07-22T03:14:44Z</time>
      </trkpt>
      <trkpt lat="42.90398" lon="0.36011">
        <ele>719</ele>
        <time>2025-07-22T03:14:49Z</time>
      </trkpt>
      <trkpt lat="42.90405" lon="0.36004">
        <ele>718.8</ele>
        <time>2025-07-22T03:14:51Z</time>
      </trkpt>
      <trkpt lat="42.90412" lon="0.35995">
        <ele>718.6</ele>
        <time>2025-07-22T03:14:53Z</time>
      </trkpt>
      <trkpt lat="42.90418" lon="0.35988">
        <ele>718.4</ele>
        <time>2025-07-22T03:14:55Z</time>
      </trkpt>
      <trkpt lat="42.90421" lon="0.35985">
        <ele>718</ele>
        <time>2025-07-22T03:14:56Z</time>
      </trkpt>
      <trkpt lat="42.90429" lon="0.35978">
        <ele>717.6</ele>
        <time>2025-07-22T03:14:58Z</time>
      </trkpt>
      <trkpt lat="42.90434" lon="0.35974">
        <ele>717.2</ele>
        <time>2025-07-22T03:14:59Z</time>
      </trkpt>
      <trkpt lat="42.90442" lon="0.35966">
        <ele>716.8</ele>
        <time>2025-07-22T03:15:01Z</time>
      </trkpt>
      <trkpt lat="42.9045" lon="0.3596">
        <ele>716.4</ele>
        <time>2025-07-22T03:15:03Z</time>
      </trkpt>
      <trkpt lat="42.90458" lon="0.35955">
        <ele>716</ele>
        <time>2025-07-22T03:15:05Z</time>
      </trkpt>
      <trkpt lat="42.90461" lon="0.35952">
        <ele>715.6</ele>
        <time>2025-07-22T03:15:06Z</time>
      </trkpt>
      <trkpt lat="42.90465" lon="0.35948">
        <ele>715.4</ele>
        <time>2025-07-22T03:15:07Z</time>
      </trkpt>
      <trkpt lat="42.90473" lon="0.35934">
        <ele>714.2</ele>
        <time>2025-07-22T03:15:10Z</time>
      </trkpt>
      <trkpt lat="42.90476" lon="0.35928">
        <ele>714</ele>
        <time>2025-07-22T03:15:12Z</time>
      </trkpt>
      <trkpt lat="42.90481" lon="0.35921">
        <ele>713.2</ele>
        <time>2025-07-22T03:15:16Z</time>
      </trkpt>
      <trkpt lat="42.90482" lon="0.35918">
        <ele>713.2</ele>
        <time>2025-07-22T03:15:17Z</time>
      </trkpt>
      <trkpt lat="42.90496" lon="0.35905">
        <ele>712.8</ele>
        <time>2025-07-22T03:15:23Z</time>
      </trkpt>
      <trkpt lat="42.90508" lon="0.35894">
        <ele>712.8</ele>
        <time>2025-07-22T03:15:28Z</time>
      </trkpt>
      <trkpt lat="42.90531" lon="0.35869">
        <ele>713.2</ele>
        <time>2025-07-22T03:15:37Z</time>
      </trkpt>
      <trkpt lat="42.90542" lon="0.35858">
        <ele>713.2</ele>
        <time>2025-07-22T03:15:40Z</time>
      </trkpt>
      <trkpt lat="42.90546" lon="0.35854">
        <ele>713.2</ele>
        <time>2025-07-22T03:15:41Z</time>
      </trkpt>
      <trkpt lat="42.90557" lon="0.35843">
        <ele>712.6</ele>
        <time>2025-07-22T03:15:44Z</time>
      </trkpt>
      <trkpt lat="42.9057" lon="0.35831">
        <ele>712.2</ele>
        <time>2025-07-22T03:15:47Z</time>
      </trkpt>
      <trkpt lat="42.90572" lon="0.35825">
        <ele>712</ele>
        <time>2025-07-22T03:15:48Z</time>
      </trkpt>
      <trkpt lat="42.90576" lon="0.35816">
        <ele>711.8</ele>
        <time>2025-07-22T03:15:50Z</time>
      </trkpt>
      <trkpt lat="42.90582" lon="0.35798">
        <ele>711</ele>
        <time>2025-07-22T03:15:54Z</time>
      </trkpt>
      <trkpt lat="42.9059" lon="0.35775">
        <ele>710.8</ele>
        <time>2025-07-22T03:16:00Z</time>
      </trkpt>
      <trkpt lat="42.90594" lon="0.35759">
        <ele>711.4</ele>
        <time>2025-07-22T03:16:06Z</time>
      </trkpt>
      <trkpt lat="42.90596" lon="0.35758">
        <ele>711.4</ele>
        <time>2025-07-22T03:16:07Z</time>
      </trkpt>
      <trkpt lat="42.90601" lon="0.35756">
        <ele>711.6</ele>
        <time>2025-07-22T03:16:10Z</time>
      </trkpt>
      <trkpt lat="42.90624" lon="0.35753">
        <ele>712</ele>
        <time>2025-07-22T03:16:18Z</time>
      </trkpt>
      <trkpt lat="42.90657" lon="0.35748">
        <ele>711.8</ele>
        <time>2025-07-22T03:16:27Z</time>
      </trkpt>
      <trkpt lat="42.90685" lon="0.35747">
        <ele>711.4</ele>
        <time>2025-07-22T03:16:34Z</time>
      </trkpt>
      <trkpt lat="42.90703" lon="0.35758">
        <ele>710.8</ele>
        <time>2025-07-22T03:16:39Z</time>
      </trkpt>
      <trkpt lat="42.90731" lon="0.35782">
        <ele>710</ele>
        <time>2025-07-22T03:16:46Z</time>
      </trkpt>
      <trkpt lat="42.90735" lon="0.35785">
        <ele>710</ele>
        <time>2025-07-22T03:16:47Z</time>
      </trkpt>
      <trkpt lat="42.90746" lon="0.35796">
        <ele>709.8</ele>
        <time>2025-07-22T03:16:50Z</time>
      </trkpt>
      <trkpt lat="42.90768" lon="0.35816">
        <ele>709.2</ele>
        <time>2025-07-22T03:16:55Z</time>
      </trkpt>
      <trkpt lat="42.90773" lon="0.35821">
        <ele>709</ele>
        <time>2025-07-22T03:16:56Z</time>
      </trkpt>
      <trkpt lat="42.90792" lon="0.35837">
        <ele>708</ele>
        <time>2025-07-22T03:17:00Z</time>
      </trkpt>
      <trkpt lat="42.90805" lon="0.3585">
        <ele>707.6</ele>
        <time>2025-07-22T03:17:03Z</time>
      </trkpt>
      <trkpt lat="42.90826" lon="0.35874">
        <ele>706.8</ele>
        <time>2025-07-22T03:17:08Z</time>
      </trkpt>
      <trkpt lat="42.90838" lon="0.35887">
        <ele>706.6</ele>
        <time>2025-07-22T03:17:11Z</time>
      </trkpt>
      <trkpt lat="42.90855" lon="0.35907">
        <ele>706.8</ele>
        <time>2025-07-22T03:17:17Z</time>
      </trkpt>
      <trkpt lat="42.90871" lon="0.35926">
        <ele>707</ele>
        <time>2025-07-22T03:17:23Z</time>
      </trkpt>
      <trkpt lat="42.90892" lon="0.3595">
        <ele>707.6</ele>
        <time>2025-07-22T03:17:30Z</time>
      </trkpt>
      <trkpt lat="42.90896" lon="0.35955">
        <ele>707.8</ele>
        <time>2025-07-22T03:17:31Z</time>
      </trkpt>
      <trkpt lat="42.9091" lon="0.3597">
        <ele>707.8</ele>
        <time>2025-07-22T03:17:35Z</time>
      </trkpt>
      <trkpt lat="42.90915" lon="0.35978">
        <ele>707.8</ele>
        <time>2025-07-22T03:17:37Z</time>
      </trkpt>
      <trkpt lat="42.90918" lon="0.35983">
        <ele>707.8</ele>
        <time>2025-07-22T03:17:38Z</time>
      </trkpt>
      <trkpt lat="42.90923" lon="0.35991">
        <ele>708</ele>
        <time>2025-07-22T03:17:40Z</time>
      </trkpt>
      <trkpt lat="42.9093" lon="0.35996">
        <ele>708</ele>
        <time>2025-07-22T03:17:42Z</time>
      </trkpt>
      <trkpt lat="42.90935" lon="0.35997">
        <ele>708</ele>
        <time>2025-07-22T03:17:43Z</time>
      </trkpt>
      <trkpt lat="42.90939" lon="0.35997">
        <ele>708.2</ele>
        <time>2025-07-22T03:17:44Z</time>
      </trkpt>
      <trkpt lat="42.90953" lon="0.35996">
        <ele>708.2</ele>
        <time>2025-07-22T03:17:48Z</time>
      </trkpt>
      <trkpt lat="42.90967" lon="0.36002">
        <ele>708.8</ele>
        <time>2025-07-22T03:17:53Z</time>
      </trkpt>
      <trkpt lat="42.90983" lon="0.36004">
        <ele>709.8</ele>
        <time>2025-07-22T03:17:59Z</time>
      </trkpt>
      <trkpt lat="42.90988" lon="0.36003">
        <ele>710.2</ele>
        <time>2025-07-22T03:18:01Z</time>
      </trkpt>
      <trkpt lat="42.90996" lon="0.36002">
        <ele>711</ele>
        <time>2025-07-22T03:18:04Z</time>
      </trkpt>
      <trkpt lat="42.91006" lon="0.36">
        <ele>711.4</ele>
        <time>2025-07-22T03:18:08Z</time>
      </trkpt>
      <trkpt lat="42.91016" lon="0.35997">
        <ele>712</ele>
        <time>2025-07-22T03:18:12Z</time>
      </trkpt>
      <trkpt lat="42.91031" lon="0.35992">
        <ele>713</ele>
        <time>2025-07-22T03:18:18Z</time>
      </trkpt>
      <trkpt lat="42.91033" lon="0.35991">
        <ele>713</ele>
        <time>2025-07-22T03:18:19Z</time>
      </trkpt>
      <trkpt lat="42.91051" lon="0.35985">
        <ele>714</ele>
        <time>2025-07-22T03:18:26Z</time>
      </trkpt>
      <trkpt lat="42.91053" lon="0.35984">
        <ele>714</ele>
        <time>2025-07-22T03:18:27Z</time>
      </trkpt>
      <trkpt lat="42.91065" lon="0.3598">
        <ele>714.4</ele>
        <time>2025-07-22T03:18:32Z</time>
      </trkpt>
      <trkpt lat="42.91081" lon="0.35971">
        <ele>715</ele>
        <time>2025-07-22T03:18:39Z</time>
      </trkpt>
      <trkpt lat="42.911" lon="0.35956">
        <ele>715.2</ele>
        <time>2025-07-22T03:18:47Z</time>
      </trkpt>
      <trkpt lat="42.91116" lon="0.3594">
        <ele>715.8</ele>
        <time>2025-07-22T03:18:54Z</time>
      </trkpt>
      <trkpt lat="42.91123" lon="0.35934">
        <ele>716.2</ele>
        <time>2025-07-22T03:18:57Z</time>
      </trkpt>
      <trkpt lat="42.91135" lon="0.35924">
        <ele>716.8</ele>
        <time>2025-07-22T03:19:02Z</time>
      </trkpt>
      <trkpt lat="42.91146" lon="0.35915">
        <ele>717.4</ele>
        <time>2025-07-22T03:19:07Z</time>
      </trkpt>
      <trkpt lat="42.91148" lon="0.35914">
        <ele>717.4</ele>
        <time>2025-07-22T03:19:08Z</time>
      </trkpt>
      <trkpt lat="42.9116" lon="0.35906">
        <ele>718.2</ele>
        <time>2025-07-22T03:19:14Z</time>
      </trkpt>
      <trkpt lat="42.91167" lon="0.359">
        <ele>718.8</ele>
        <time>2025-07-22T03:19:18Z</time>
      </trkpt>
      <trkpt lat="42.91173" lon="0.35895">
        <ele>719.4</ele>
        <time>2025-07-22T03:19:21Z</time>
      </trkpt>
      <trkpt lat="42.91176" lon="0.35892">
        <ele>719.8</ele>
        <time>2025-07-22T03:19:23Z</time>
      </trkpt>
      <trkpt lat="42.9118" lon="0.35889">
        <ele>720</ele>
        <time>2025-07-22T03:19:25Z</time>
      </trkpt>
      <trkpt lat="42.91185" lon="0.35885">
        <ele>720.6</ele>
        <time>2025-07-22T03:19:28Z</time>
      </trkpt>
      <trkpt lat="42.91195" lon="0.35879">
        <ele>721.4</ele>
        <time>2025-07-22T03:19:33Z</time>
      </trkpt>
      <trkpt lat="42.91199" lon="0.35876">
        <ele>721.6</ele>
        <time>2025-07-22T03:19:35Z</time>
      </trkpt>
      <trkpt lat="42.91212" lon="0.35868">
        <ele>722.8</ele>
        <time>2025-07-22T03:19:42Z</time>
      </trkpt>
      <trkpt lat="42.91216" lon="0.35866">
        <ele>723</ele>
        <time>2025-07-22T03:19:44Z</time>
      </trkpt>
      <trkpt lat="42.91224" lon="0.35861">
        <ele>723.8</ele>
        <time>2025-07-22T03:19:48Z</time>
      </trkpt>
      <trkpt lat="42.91236" lon="0.35855">
        <ele>724.6</ele>
        <time>2025-07-22T03:19:54Z</time>
      </trkpt>
      <trkpt lat="42.91238" lon="0.35853">
        <ele>724.8</ele>
        <time>2025-07-22T03:19:55Z</time>
      </trkpt>
      <trkpt lat="42.91252" lon="0.35845">
        <ele>725.8</ele>
        <time>2025-07-22T03:20:02Z</time>
      </trkpt>
      <trkpt lat="42.91254" lon="0.35844">
        <ele>726</ele>
        <time>2025-07-22T03:20:03Z</time>
      </trkpt>
      <trkpt lat="42.91266" lon="0.35839">
        <ele>727</ele>
        <time>2025-07-22T03:20:09Z</time>
      </trkpt>
      <trkpt lat="42.91276" lon="0.35836">
        <ele>727.6</ele>
        <time>2025-07-22T03:20:14Z</time>
      </trkpt>
      <trkpt lat="42.91281" lon="0.35834">
        <ele>728.2</ele>
        <time>2025-07-22T03:20:17Z</time>
      </trkpt>
      <trkpt lat="42.9129" lon="0.35831">
        <ele>729</ele>
        <time>2025-07-22T03:20:21Z</time>
      </trkpt>
      <trkpt lat="42.91292" lon="0.35831">
        <ele>729.2</ele>
        <time>2025-07-22T03:20:22Z</time>
      </trkpt>
      <trkpt lat="42.91307" lon="0.35829">
        <ele>730.6</ele>
        <time>2025-07-22T03:20:29Z</time>
      </trkpt>
      <trkpt lat="42.91311" lon="0.35828">
        <ele>731</ele>
        <time>2025-07-22T03:20:31Z</time>
      </trkpt>
      <trkpt lat="42.91322" lon="0.35827">
        <ele>731.6</ele>
        <time>2025-07-22T03:20:36Z</time>
      </trkpt>
      <trkpt lat="42.91336" lon="0.35826">
        <ele>732.8</ele>
        <time>2025-07-22T03:20:44Z</time>
      </trkpt>
      <trkpt lat="42.91338" lon="0.35826">
        <ele>732.8</ele>
        <time>2025-07-22T03:20:45Z</time>
      </trkpt>
      <trkpt lat="42.91341" lon="0.35826">
        <ele>733.2</ele>
        <time>2025-07-22T03:20:47Z</time>
      </trkpt>
      <trkpt lat="42.91344" lon="0.35828">
        <ele>733.6</ele>
        <time>2025-07-22T03:20:49Z</time>
      </trkpt>
      <trkpt lat="42.91345" lon="0.35828">
        <ele>733.8</ele>
        <time>2025-07-22T03:20:50Z</time>
      </trkpt>
      <trkpt lat="42.91356" lon="0.35828">
        <ele>734.6</ele>
        <time>2025-07-22T03:20:57Z</time>
      </trkpt>
      <trkpt lat="42.91358" lon="0.35829">
        <ele>734.8</ele>
        <time>2025-07-22T03:20:58Z</time>
      </trkpt>
      <trkpt lat="42.91362" lon="0.35831">
        <ele>735.2</ele>
        <time>2025-07-22T03:21:00Z</time>
      </trkpt>
      <trkpt lat="42.91369" lon="0.35833">
        <ele>735.6</ele>
        <time>2025-07-22T03:21:03Z</time>
      </trkpt>
      <trkpt lat="42.91371" lon="0.35835">
        <ele>735.6</ele>
        <time>2025-07-22T03:21:04Z</time>
      </trkpt>
      <trkpt lat="42.91372" lon="0.35837">
        <ele>736</ele>
        <time>2025-07-22T03:21:05Z</time>
      </trkpt>
      <trkpt lat="42.91374" lon="0.35838">
        <ele>736.2</ele>
        <time>2025-07-22T03:21:06Z</time>
      </trkpt>
      <trkpt lat="42.91382" lon="0.35839">
        <ele>736.8</ele>
        <time>2025-07-22T03:21:10Z</time>
      </trkpt>
      <trkpt lat="42.91384" lon="0.35841">
        <ele>737</ele>
        <time>2025-07-22T03:21:11Z</time>
      </trkpt>
      <trkpt lat="42.91386" lon="0.35843">
        <ele>737.2</ele>
        <time>2025-07-22T03:21:12Z</time>
      </trkpt>
      <trkpt lat="42.91396" lon="0.35853">
        <ele>737.6</ele>
        <time>2025-07-22T03:21:16Z</time>
      </trkpt>
      <trkpt lat="42.91408" lon="0.35862">
        <ele>738.4</ele>
        <time>2025-07-22T03:21:21Z</time>
      </trkpt>
      <trkpt lat="42.91416" lon="0.35866">
        <ele>739</ele>
        <time>2025-07-22T03:21:25Z</time>
      </trkpt>
      <trkpt lat="42.91422" lon="0.3587">
        <ele>739.6</ele>
        <time>2025-07-22T03:21:28Z</time>
      </trkpt>
      <trkpt lat="42.91436" lon="0.35876">
        <ele>740.6</ele>
        <time>2025-07-22T03:21:35Z</time>
      </trkpt>
      <trkpt lat="42.91439" lon="0.35877">
        <ele>740.8</ele>
        <time>2025-07-22T03:21:37Z</time>
      </trkpt>
      <trkpt lat="42.91451" lon="0.35881">
        <ele>741.6</ele>
        <time>2025-07-22T03:21:43Z</time>
      </trkpt>
      <trkpt lat="42.91453" lon="0.35882">
        <ele>741.8</ele>
        <time>2025-07-22T03:21:44Z</time>
      </trkpt>
      <trkpt lat="42.91465" lon="0.35883">
        <ele>742.8</ele>
        <time>2025-07-22T03:21:50Z</time>
      </trkpt>
      <trkpt lat="42.91467" lon="0.35883">
        <ele>743</ele>
        <time>2025-07-22T03:21:51Z</time>
      </trkpt>
      <trkpt lat="42.91475" lon="0.35882">
        <ele>743.8</ele>
        <time>2025-07-22T03:21:55Z</time>
      </trkpt>
      <trkpt lat="42.91479" lon="0.35879">
        <ele>744</ele>
        <time>2025-07-22T03:21:57Z</time>
      </trkpt>
      <trkpt lat="42.91481" lon="0.35877">
        <ele>744.2</ele>
        <time>2025-07-22T03:21:58Z</time>
      </trkpt>
      <trkpt lat="42.91489" lon="0.35861">
        <ele>745.2</ele>
        <time>2025-07-22T03:22:05Z</time>
      </trkpt>
      <trkpt lat="42.9149" lon="0.35858">
        <ele>745.2</ele>
        <time>2025-07-22T03:22:06Z</time>
      </trkpt>
      <trkpt lat="42.91493" lon="0.35841">
        <ele>746.2</ele>
        <time>2025-07-22T03:22:12Z</time>
      </trkpt>
      <trkpt lat="42.91493" lon="0.35838">
        <ele>746.4</ele>
        <time>2025-07-22T03:22:13Z</time>
      </trkpt>
      <trkpt lat="42.91497" lon="0.35821">
        <ele>747</ele>
        <time>2025-07-22T03:22:19Z</time>
      </trkpt>
      <trkpt lat="42.91497" lon="0.35805">
        <ele>747.6</ele>
        <time>2025-07-22T03:22:24Z</time>
      </trkpt>
      <trkpt lat="42.91499" lon="0.35795">
        <ele>748</ele>
        <time>2025-07-22T03:22:28Z</time>
      </trkpt>
      <trkpt lat="42.91505" lon="0.35768">
        <ele>748.6</ele>
        <time>2025-07-22T03:22:37Z</time>
      </trkpt>
      <trkpt lat="42.91508" lon="0.35753">
        <ele>749.2</ele>
        <time>2025-07-22T03:22:43Z</time>
      </trkpt>
      <trkpt lat="42.91514" lon="0.35731">
        <ele>749.6</ele>
        <time>2025-07-22T03:22:51Z</time>
      </trkpt>
      <trkpt lat="42.91515" lon="0.35729">
        <ele>749.6</ele>
        <time>2025-07-22T03:22:52Z</time>
      </trkpt>
      <trkpt lat="42.91518" lon="0.35717">
        <ele>750</ele>
        <time>2025-07-22T03:22:56Z</time>
      </trkpt>
      <trkpt lat="42.91525" lon="0.35692">
        <ele>750.4</ele>
        <time>2025-07-22T03:23:03Z</time>
      </trkpt>
      <trkpt lat="42.91528" lon="0.35684">
        <ele>750.8</ele>
        <time>2025-07-22T03:23:06Z</time>
      </trkpt>
      <trkpt lat="42.91534" lon="0.3567">
        <ele>751.2</ele>
        <time>2025-07-22T03:23:10Z</time>
      </trkpt>
      <trkpt lat="42.91541" lon="0.35649">
        <ele>751.6</ele>
        <time>2025-07-22T03:23:16Z</time>
      </trkpt>
      <trkpt lat="42.91545" lon="0.35643">
        <ele>751.8</ele>
        <time>2025-07-22T03:23:18Z</time>
      </trkpt>
      <trkpt lat="42.91557" lon="0.35622">
        <ele>752.4</ele>
        <time>2025-07-22T03:23:25Z</time>
      </trkpt>
      <trkpt lat="42.91564" lon="0.35606">
        <ele>752.8</ele>
        <time>2025-07-22T03:23:30Z</time>
      </trkpt>
      <trkpt lat="42.91566" lon="0.35602">
        <ele>753</ele>
        <time>2025-07-22T03:23:31Z</time>
      </trkpt>
      <trkpt lat="42.91581" lon="0.35572">
        <ele>753.4</ele>
        <time>2025-07-22T03:23:40Z</time>
      </trkpt>
      <trkpt lat="42.91598" lon="0.35557">
        <ele>754</ele>
        <time>2025-07-22T03:23:47Z</time>
      </trkpt>
      <trkpt lat="42.91603" lon="0.35554">
        <ele>754.2</ele>
        <time>2025-07-22T03:23:49Z</time>
      </trkpt>
      <trkpt lat="42.91619" lon="0.3554">
        <ele>755</ele>
        <time>2025-07-22T03:23:56Z</time>
      </trkpt>
      <trkpt lat="42.91621" lon="0.35537">
        <ele>755</ele>
        <time>2025-07-22T03:23:57Z</time>
      </trkpt>
      <trkpt lat="42.91624" lon="0.35522">
        <ele>755.8</ele>
        <time>2025-07-22T03:24:01Z</time>
      </trkpt>
      <trkpt lat="42.91623" lon="0.35513">
        <ele>756</ele>
        <time>2025-07-22T03:24:03Z</time>
      </trkpt>
      <trkpt lat="42.91622" lon="0.35501">
        <ele>756.2</ele>
        <time>2025-07-22T03:24:06Z</time>
      </trkpt>
      <trkpt lat="42.91623" lon="0.35489">
        <ele>756.2</ele>
        <time>2025-07-22T03:24:09Z</time>
      </trkpt>
      <trkpt lat="42.91627" lon="0.35467">
        <ele>756.6</ele>
        <time>2025-07-22T03:24:15Z</time>
      </trkpt>
      <trkpt lat="42.91629" lon="0.35454">
        <ele>756.6</ele>
        <time>2025-07-22T03:24:19Z</time>
      </trkpt>
      <trkpt lat="42.9163" lon="0.35449">
        <ele>757</ele>
        <time>2025-07-22T03:24:21Z</time>
      </trkpt>
      <trkpt lat="42.91632" lon="0.35442">
        <ele>757.2</ele>
        <time>2025-07-22T03:24:23Z</time>
      </trkpt>
      <trkpt lat="42.91633" lon="0.35435">
        <ele>757.4</ele>
        <time>2025-07-22T03:24:25Z</time>
      </trkpt>
      <trkpt lat="42.91633" lon="0.35429">
        <ele>757.6</ele>
        <time>2025-07-22T03:24:27Z</time>
      </trkpt>
      <trkpt lat="42.91633" lon="0.35421">
        <ele>757.8</ele>
        <time>2025-07-22T03:24:29Z</time>
      </trkpt>
      <trkpt lat="42.91634" lon="0.35417">
        <ele>758</ele>
        <time>2025-07-22T03:24:30Z</time>
      </trkpt>
      <trkpt lat="42.91636" lon="0.35404">
        <ele>758.4</ele>
        <time>2025-07-22T03:24:33Z</time>
      </trkpt>
      <trkpt lat="42.91641" lon="0.35381">
        <ele>759</ele>
        <time>2025-07-22T03:24:39Z</time>
      </trkpt>
      <trkpt lat="42.91644" lon="0.35371">
        <ele>759</ele>
        <time>2025-07-22T03:24:41Z</time>
      </trkpt>
      <trkpt lat="42.9165" lon="0.35355">
        <ele>759.6</ele>
        <time>2025-07-22T03:24:45Z</time>
      </trkpt>
      <trkpt lat="42.91655" lon="0.3533">
        <ele>760</ele>
        <time>2025-07-22T03:24:50Z</time>
      </trkpt>
      <trkpt lat="42.91658" lon="0.35322">
        <ele>760</ele>
        <time>2025-07-22T03:24:52Z</time>
      </trkpt>
      <trkpt lat="42.9166" lon="0.35297">
        <ele>760.6</ele>
        <time>2025-07-22T03:24:58Z</time>
      </trkpt>
      <trkpt lat="42.91656" lon="0.3528">
        <ele>761</ele>
        <time>2025-07-22T03:25:02Z</time>
      </trkpt>
      <trkpt lat="42.91656" lon="0.35269">
        <ele>761.2</ele>
        <time>2025-07-22T03:25:04Z</time>
      </trkpt>
      <trkpt lat="42.9166" lon="0.3525">
        <ele>761.6</ele>
        <time>2025-07-22T03:25:09Z</time>
      </trkpt>
      <trkpt lat="42.91666" lon="0.35228">
        <ele>762.2</ele>
        <time>2025-07-22T03:25:15Z</time>
      </trkpt>
      <trkpt lat="42.91667" lon="0.35225">
        <ele>762.2</ele>
        <time>2025-07-22T03:25:16Z</time>
      </trkpt>
      <trkpt lat="42.91672" lon="0.35195">
        <ele>763.2</ele>
        <time>2025-07-22T03:25:23Z</time>
      </trkpt>
      <trkpt lat="42.91679" lon="0.3516">
        <ele>764</ele>
        <time>2025-07-22T03:25:32Z</time>
      </trkpt>
      <trkpt lat="42.9168" lon="0.35156">
        <ele>764.2</ele>
        <time>2025-07-22T03:25:33Z</time>
      </trkpt>
      <trkpt lat="42.91686" lon="0.35138">
        <ele>764.4</ele>
        <time>2025-07-22T03:25:38Z</time>
      </trkpt>
      <trkpt lat="42.91697" lon="0.35125">
        <ele>764.8</ele>
        <time>2025-07-22T03:25:43Z</time>
      </trkpt>
      <trkpt lat="42.91702" lon="0.35119">
        <ele>765</ele>
        <time>2025-07-22T03:25:45Z</time>
      </trkpt>
      <trkpt lat="42.91713" lon="0.35106">
        <ele>765.6</ele>
        <time>2025-07-22T03:25:50Z</time>
      </trkpt>
      <trkpt lat="42.91723" lon="0.35087">
        <ele>766.2</ele>
        <time>2025-07-22T03:25:55Z</time>
      </trkpt>
      <trkpt lat="42.91728" lon="0.35077">
        <ele>766.2</ele>
        <time>2025-07-22T03:25:58Z</time>
      </trkpt>
      <trkpt lat="42.91736" lon="0.35051">
        <ele>766.8</ele>
        <time>2025-07-22T03:26:05Z</time>
      </trkpt>
      <trkpt lat="42.91738" lon="0.35043">
        <ele>767</ele>
        <time>2025-07-22T03:26:07Z</time>
      </trkpt>
      <trkpt lat="42.91743" lon="0.35015">
        <ele>768</ele>
        <time>2025-07-22T03:26:14Z</time>
      </trkpt>
      <trkpt lat="42.91743" lon="0.35011">
        <ele>768</ele>
        <time>2025-07-22T03:26:15Z</time>
      </trkpt>
      <trkpt lat="42.91741" lon="0.34991">
        <ele>768.6</ele>
        <time>2025-07-22T03:26:20Z</time>
      </trkpt>
      <trkpt lat="42.9174" lon="0.34987">
        <ele>768.6</ele>
        <time>2025-07-22T03:26:21Z</time>
      </trkpt>
      <trkpt lat="42.91738" lon="0.34975">
        <ele>769</ele>
        <time>2025-07-22T03:26:25Z</time>
      </trkpt>
      <trkpt lat="42.91738" lon="0.34971">
        <ele>769.2</ele>
        <time>2025-07-22T03:26:26Z</time>
      </trkpt>
      <trkpt lat="42.91744" lon="0.34953">
        <ele>769.4</ele>
        <time>2025-07-22T03:26:31Z</time>
      </trkpt>
      <trkpt lat="42.91751" lon="0.34934">
        <ele>770</ele>
        <time>2025-07-22T03:26:36Z</time>
      </trkpt>
      <trkpt lat="42.91755" lon="0.34928">
        <ele>770.4</ele>
        <time>2025-07-22T03:26:38Z</time>
      </trkpt>
      <trkpt lat="42.91775" lon="0.34905">
        <ele>771</ele>
        <time>2025-07-22T03:26:46Z</time>
      </trkpt>
      <trkpt lat="42.91781" lon="0.349">
        <ele>771.2</ele>
        <time>2025-07-22T03:26:48Z</time>
      </trkpt>
      <trkpt lat="42.91797" lon="0.34883">
        <ele>772</ele>
        <time>2025-07-22T03:26:55Z</time>
      </trkpt>
      <trkpt lat="42.91801" lon="0.34879">
        <ele>772.4</ele>
        <time>2025-07-22T03:26:57Z</time>
      </trkpt>
      <trkpt lat="42.91814" lon="0.34859">
        <ele>773.2</ele>
        <time>2025-07-22T03:27:04Z</time>
      </trkpt>
      <trkpt lat="42.91821" lon="0.34838">
        <ele>773.8</ele>
        <time>2025-07-22T03:27:10Z</time>
      </trkpt>
      <trkpt lat="42.91826" lon="0.34817">
        <ele>774.2</ele>
        <time>2025-07-22T03:27:15Z</time>
      </trkpt>
      <trkpt lat="42.91829" lon="0.3481">
        <ele>774.4</ele>
        <time>2025-07-22T03:27:17Z</time>
      </trkpt>
      <trkpt lat="42.9184" lon="0.3478">
        <ele>775</ele>
        <time>2025-07-22T03:27:24Z</time>
      </trkpt>
      <trkpt lat="42.91843" lon="0.34773">
        <ele>775.2</ele>
        <time>2025-07-22T03:27:26Z</time>
      </trkpt>
      <trkpt lat="42.9185" lon="0.34754">
        <ele>775.8</ele>
        <time>2025-07-22T03:27:31Z</time>
      </trkpt>
      <trkpt lat="42.91865" lon="0.34734">
        <ele>776.2</ele>
        <time>2025-07-22T03:27:38Z</time>
      </trkpt>
      <trkpt lat="42.91871" lon="0.34725">
        <ele>776.4</ele>
        <time>2025-07-22T03:27:41Z</time>
      </trkpt>
      <trkpt lat="42.91888" lon="0.34708">
        <ele>777.2</ele>
        <time>2025-07-22T03:27:48Z</time>
      </trkpt>
      <trkpt lat="42.91902" lon="0.34699">
        <ele>777.8</ele>
        <time>2025-07-22T03:27:54Z</time>
      </trkpt>
      <trkpt lat="42.91914" lon="0.34693">
        <ele>778.2</ele>
        <time>2025-07-22T03:27:58Z</time>
      </trkpt>
      <trkpt lat="42.91933" lon="0.34683">
        <ele>778.6</ele>
        <time>2025-07-22T03:28:04Z</time>
      </trkpt>
      <trkpt lat="42.91946" lon="0.3467">
        <ele>779.2</ele>
        <time>2025-07-22T03:28:09Z</time>
      </trkpt>
      <trkpt lat="42.91957" lon="0.34653">
        <ele>779.8</ele>
        <time>2025-07-22T03:28:14Z</time>
      </trkpt>
      <trkpt lat="42.91962" lon="0.34642">
        <ele>780.2</ele>
        <time>2025-07-22T03:28:17Z</time>
      </trkpt>
      <trkpt lat="42.91967" lon="0.34631">
        <ele>780.4</ele>
        <time>2025-07-22T03:28:20Z</time>
      </trkpt>
      <trkpt lat="42.91984" lon="0.34597">
        <ele>781.2</ele>
        <time>2025-07-22T03:28:29Z</time>
      </trkpt>
      <trkpt lat="42.91997" lon="0.3458">
        <ele>781.8</ele>
        <time>2025-07-22T03:28:35Z</time>
      </trkpt>
      <trkpt lat="42.92014" lon="0.3458">
        <ele>782.2</ele>
        <time>2025-07-22T03:28:40Z</time>
      </trkpt>
      <trkpt lat="42.92025" lon="0.34591">
        <ele>782.4</ele>
        <time>2025-07-22T03:28:44Z</time>
      </trkpt>
      <trkpt lat="42.92026" lon="0.34609">
        <ele>782.8</ele>
        <time>2025-07-22T03:28:49Z</time>
      </trkpt>
      <trkpt lat="42.92025" lon="0.34615">
        <ele>783.2</ele>
        <time>2025-07-22T03:28:51Z</time>
      </trkpt>
      <trkpt lat="42.92022" lon="0.34622">
        <ele>783.6</ele>
        <time>2025-07-22T03:28:54Z</time>
      </trkpt>
      <trkpt lat="42.92019" lon="0.34631">
        <ele>784.4</ele>
        <time>2025-07-22T03:28:57Z</time>
      </trkpt>
      <trkpt lat="42.92017" lon="0.34641">
        <ele>785</ele>
        <time>2025-07-22T03:29:01Z</time>
      </trkpt>
      <trkpt lat="42.92015" lon="0.34647">
        <ele>785.2</ele>
        <time>2025-07-22T03:29:03Z</time>
      </trkpt>
      <trkpt lat="42.92012" lon="0.34661">
        <ele>786.2</ele>
        <time>2025-07-22T03:29:08Z</time>
      </trkpt>
      <trkpt lat="42.92012" lon="0.34662">
        <ele>786.4</ele>
        <time>2025-07-22T03:29:09Z</time>
      </trkpt>
      <trkpt lat="42.92012" lon="0.34663">
        <ele>786.8</ele>
        <time>2025-07-22T03:29:11Z</time>
      </trkpt>
      <trkpt lat="42.92012" lon="0.34664">
        <ele>787.2</ele>
        <time>2025-07-22T03:29:13Z</time>
      </trkpt>
      <trkpt lat="42.92013" lon="0.3467">
        <ele>787.8</ele>
        <time>2025-07-22T03:31:20Z</time>
      </trkpt>
      <trkpt lat="42.92014" lon="0.34676">
        <ele>788</ele>
        <time>2025-07-22T03:31:22Z</time>
      </trkpt>
      <trkpt lat="42.92009" lon="0.34692">
        <ele>788.6</ele>
        <time>2025-07-22T03:31:28Z</time>
      </trkpt>
      <trkpt lat="42.92005" lon="0.34695">
        <ele>788.8</ele>
        <time>2025-07-22T03:31:30Z</time>
      </trkpt>
      <trkpt lat="42.91994" lon="0.34705">
        <ele>790</ele>
        <time>2025-07-22T03:31:36Z</time>
      </trkpt>
      <trkpt lat="42.91993" lon="0.34707">
        <ele>790.4</ele>
        <time>2025-07-22T03:31:37Z</time>
      </trkpt>
      <trkpt lat="42.91988" lon="0.34714">
        <ele>791</ele>
        <time>2025-07-22T03:31:41Z</time>
      </trkpt>
      <trkpt lat="42.91981" lon="0.34722">
        <ele>791.8</ele>
        <time>2025-07-22T03:31:46Z</time>
      </trkpt>
      <trkpt lat="42.91979" lon="0.34723">
        <ele>792</ele>
        <time>2025-07-22T03:31:47Z</time>
      </trkpt>
      <trkpt lat="42.91971" lon="0.34731">
        <ele>793</ele>
        <time>2025-07-22T03:31:53Z</time>
      </trkpt>
      <trkpt lat="42.91969" lon="0.34732">
        <ele>793.2</ele>
        <time>2025-07-22T03:31:54Z</time>
      </trkpt>
      <trkpt lat="42.91958" lon="0.34742">
        <ele>794.2</ele>
        <time>2025-07-22T03:32:01Z</time>
      </trkpt>
      <trkpt lat="42.91953" lon="0.34748">
        <ele>794.6</ele>
        <time>2025-07-22T03:32:05Z</time>
      </trkpt>
      <trkpt lat="42.91947" lon="0.34755">
        <ele>795.2</ele>
        <time>2025-07-22T03:32:09Z</time>
      </trkpt>
      <trkpt lat="42.9194" lon="0.34764">
        <ele>796.2</ele>
        <time>2025-07-22T03:32:14Z</time>
      </trkpt>
      <trkpt lat="42.91939" lon="0.34765">
        <ele>796.4</ele>
        <time>2025-07-22T03:32:15Z</time>
      </trkpt>
      <trkpt lat="42.91932" lon="0.34777">
        <ele>797.4</ele>
        <time>2025-07-22T03:32:21Z</time>
      </trkpt>
      <trkpt lat="42.91931" lon="0.34779">
        <ele>797.6</ele>
        <time>2025-07-22T03:32:22Z</time>
      </trkpt>
      <trkpt lat="42.91926" lon="0.34793">
        <ele>798.6</ele>
        <time>2025-07-22T03:32:28Z</time>
      </trkpt>
      <trkpt lat="42.91925" lon="0.348">
        <ele>799.2</ele>
        <time>2025-07-22T03:32:31Z</time>
      </trkpt>
      <trkpt lat="42.91924" lon="0.34813">
        <ele>800</ele>
        <time>2025-07-22T03:32:36Z</time>
      </trkpt>
      <trkpt lat="42.91925" lon="0.34827">
        <ele>800.6</ele>
        <time>2025-07-22T03:32:41Z</time>
      </trkpt>
      <trkpt lat="42.91927" lon="0.34834">
        <ele>801</ele>
        <time>2025-07-22T03:32:44Z</time>
      </trkpt>
      <trkpt lat="42.91931" lon="0.34844">
        <ele>801.4</ele>
        <time>2025-07-22T03:32:48Z</time>
      </trkpt>
      <trkpt lat="42.91934" lon="0.34852">
        <ele>802.2</ele>
        <time>2025-07-22T03:32:52Z</time>
      </trkpt>
      <trkpt lat="42.91939" lon="0.34863">
        <ele>802.8</ele>
        <time>2025-07-22T03:32:57Z</time>
      </trkpt>
      <trkpt lat="42.91941" lon="0.34867">
        <ele>803.2</ele>
        <time>2025-07-22T03:32:59Z</time>
      </trkpt>
      <trkpt lat="42.91944" lon="0.34881">
        <ele>804</ele>
        <time>2025-07-22T03:33:05Z</time>
      </trkpt>
      <trkpt lat="42.91945" lon="0.34885">
        <ele>804.4</ele>
        <time>2025-07-22T03:33:07Z</time>
      </trkpt>
      <trkpt lat="42.91947" lon="0.349">
        <ele>805.6</ele>
        <time>2025-07-22T03:33:14Z</time>
      </trkpt>
      <trkpt lat="42.91948" lon="0.34912">
        <ele>806.6</ele>
        <time>2025-07-22T03:33:20Z</time>
      </trkpt>
      <trkpt lat="42.91948" lon="0.34914">
        <ele>806.8</ele>
        <time>2025-07-22T03:33:21Z</time>
      </trkpt>
      <trkpt lat="42.91947" lon="0.34924">
        <ele>807.8</ele>
        <time>2025-07-22T03:33:26Z</time>
      </trkpt>
      <trkpt lat="42.91945" lon="0.34939">
        <ele>808.6</ele>
        <time>2025-07-22T03:33:32Z</time>
      </trkpt>
      <trkpt lat="42.91944" lon="0.34941">
        <ele>809</ele>
        <time>2025-07-22T03:33:33Z</time>
      </trkpt>
      <trkpt lat="42.91936" lon="0.34952">
        <ele>810</ele>
        <time>2025-07-22T03:33:39Z</time>
      </trkpt>
      <trkpt lat="42.91935" lon="0.34954">
        <ele>810.4</ele>
        <time>2025-07-22T03:33:40Z</time>
      </trkpt>
      <trkpt lat="42.91926" lon="0.34958">
        <ele>811.2</ele>
        <time>2025-07-22T03:33:45Z</time>
      </trkpt>
      <trkpt lat="42.91923" lon="0.34958">
        <ele>811.6</ele>
        <time>2025-07-22T03:33:47Z</time>
      </trkpt>
      <trkpt lat="42.91918" lon="0.3496">
        <ele>812.4</ele>
        <time>2025-07-22T03:33:50Z</time>
      </trkpt>
      <trkpt lat="42.91913" lon="0.34961">
        <ele>813.2</ele>
        <time>2025-07-22T03:33:53Z</time>
      </trkpt>
      <trkpt lat="42.9191" lon="0.34964">
        <ele>813.4</ele>
        <time>2025-07-22T03:33:55Z</time>
      </trkpt>
      <trkpt lat="42.91903" lon="0.34971">
        <ele>814.6</ele>
        <time>2025-07-22T03:34:00Z</time>
      </trkpt>
      <trkpt lat="42.91897" lon="0.34979">
        <ele>815.2</ele>
        <time>2025-07-22T03:34:05Z</time>
      </trkpt>
      <trkpt lat="42.91893" lon="0.34985">
        <ele>815.8</ele>
        <time>2025-07-22T03:34:08Z</time>
      </trkpt>
      <trkpt lat="42.91889" lon="0.34998">
        <ele>816.4</ele>
        <time>2025-07-22T03:34:14Z</time>
      </trkpt>
      <trkpt lat="42.91887" lon="0.35006">
        <ele>817</ele>
        <time>2025-07-22T03:34:17Z</time>
      </trkpt>
      <trkpt lat="42.91884" lon="0.3502">
        <ele>817.8</ele>
        <time>2025-07-22T03:34:23Z</time>
      </trkpt>
      <trkpt lat="42.91883" lon="0.35024">
        <ele>818</ele>
        <time>2025-07-22T03:34:25Z</time>
      </trkpt>
      <trkpt lat="42.9188" lon="0.35042">
        <ele>819.2</ele>
        <time>2025-07-22T03:34:32Z</time>
      </trkpt>
      <trkpt lat="42.91879" lon="0.35047">
        <ele>819.4</ele>
        <time>2025-07-22T03:34:34Z</time>
      </trkpt>
      <trkpt lat="42.91877" lon="0.35064">
        <ele>820.6</ele>
        <time>2025-07-22T03:34:41Z</time>
      </trkpt>
      <trkpt lat="42.91875" lon="0.35072">
        <ele>821</ele>
        <time>2025-07-22T03:34:44Z</time>
      </trkpt>
      <trkpt lat="42.91873" lon="0.35084">
        <ele>821.8</ele>
        <time>2025-07-22T03:34:49Z</time>
      </trkpt>
      <trkpt lat="42.9187" lon="0.35094">
        <ele>822.4</ele>
        <time>2025-07-22T03:34:53Z</time>
      </trkpt>
      <trkpt lat="42.91868" lon="0.35101">
        <ele>822.8</ele>
        <time>2025-07-22T03:34:56Z</time>
      </trkpt>
      <trkpt lat="42.91864" lon="0.35116">
        <ele>824.2</ele>
        <time>2025-07-22T03:35:02Z</time>
      </trkpt>
      <trkpt lat="42.91863" lon="0.35118">
        <ele>824.4</ele>
        <time>2025-07-22T03:35:03Z</time>
      </trkpt>
      <trkpt lat="42.91859" lon="0.3513">
        <ele>825.2</ele>
        <time>2025-07-22T03:35:08Z</time>
      </trkpt>
      <trkpt lat="42.91857" lon="0.35137">
        <ele>825.8</ele>
        <time>2025-07-22T03:35:11Z</time>
      </trkpt>
      <trkpt lat="42.91854" lon="0.35147">
        <ele>826.4</ele>
        <time>2025-07-22T03:35:15Z</time>
      </trkpt>
      <trkpt lat="42.9185" lon="0.35161">
        <ele>827.2</ele>
        <time>2025-07-22T03:35:21Z</time>
      </trkpt>
      <trkpt lat="42.91849" lon="0.35163">
        <ele>827.4</ele>
        <time>2025-07-22T03:35:22Z</time>
      </trkpt>
      <trkpt lat="42.91845" lon="0.35177">
        <ele>828.8</ele>
        <time>2025-07-22T03:35:28Z</time>
      </trkpt>
      <trkpt lat="42.91839" lon="0.35194">
        <ele>829.8</ele>
        <time>2025-07-22T03:35:35Z</time>
      </trkpt>
      <trkpt lat="42.91838" lon="0.35199">
        <ele>830.4</ele>
        <time>2025-07-22T03:35:37Z</time>
      </trkpt>
      <trkpt lat="42.91834" lon="0.35214">
        <ele>831</ele>
        <time>2025-07-22T03:35:43Z</time>
      </trkpt>
      <trkpt lat="42.91831" lon="0.35226">
        <ele>832.2</ele>
        <time>2025-07-22T03:35:48Z</time>
      </trkpt>
      <trkpt lat="42.9183" lon="0.35242">
        <ele>833.2</ele>
        <time>2025-07-22T03:35:54Z</time>
      </trkpt>
      <trkpt lat="42.9183" lon="0.35245">
        <ele>833.4</ele>
        <time>2025-07-22T03:35:55Z</time>
      </trkpt>
      <trkpt lat="42.9183" lon="0.3526">
        <ele>834.6</ele>
        <time>2025-07-22T03:36:01Z</time>
      </trkpt>
      <trkpt lat="42.9183" lon="0.35278">
        <ele>835.8</ele>
        <time>2025-07-22T03:36:08Z</time>
      </trkpt>
      <trkpt lat="42.9183" lon="0.3528">
        <ele>836</ele>
        <time>2025-07-22T03:36:09Z</time>
      </trkpt>
      <trkpt lat="42.9183" lon="0.35292">
        <ele>836.8</ele>
        <time>2025-07-22T03:36:14Z</time>
      </trkpt>
      <trkpt lat="42.91831" lon="0.35297">
        <ele>837.2</ele>
        <time>2025-07-22T03:36:16Z</time>
      </trkpt>
      <trkpt lat="42.91832" lon="0.35309">
        <ele>838</ele>
        <time>2025-07-22T03:36:21Z</time>
      </trkpt>
      <trkpt lat="42.91833" lon="0.35321">
        <ele>838.8</ele>
        <time>2025-07-22T03:36:26Z</time>
      </trkpt>
      <trkpt lat="42.91833" lon="0.35324">
        <ele>839</ele>
        <time>2025-07-22T03:36:27Z</time>
      </trkpt>
      <trkpt lat="42.91835" lon="0.35342">
        <ele>840.2</ele>
        <time>2025-07-22T03:36:34Z</time>
      </trkpt>
      <trkpt lat="42.91835" lon="0.3535">
        <ele>840.8</ele>
        <time>2025-07-22T03:36:37Z</time>
      </trkpt>
      <trkpt lat="42.91837" lon="0.35361">
        <ele>841.2</ele>
        <time>2025-07-22T03:36:41Z</time>
      </trkpt>
      <trkpt lat="42.91838" lon="0.35374">
        <ele>842.2</ele>
        <time>2025-07-22T03:36:46Z</time>
      </trkpt>
      <trkpt lat="42.91838" lon="0.3538">
        <ele>842.4</ele>
        <time>2025-07-22T03:36:48Z</time>
      </trkpt>
      <trkpt lat="42.9184" lon="0.35394">
        <ele>843.2</ele>
        <time>2025-07-22T03:36:53Z</time>
      </trkpt>
      <trkpt lat="42.91841" lon="0.35399">
        <ele>843.4</ele>
        <time>2025-07-22T03:36:55Z</time>
      </trkpt>
      <trkpt lat="42.91843" lon="0.35416">
        <ele>844.4</ele>
        <time>2025-07-22T03:37:01Z</time>
      </trkpt>
      <trkpt lat="42.91844" lon="0.35422">
        <ele>844.6</ele>
        <time>2025-07-22T03:37:03Z</time>
      </trkpt>
      <trkpt lat="42.91845" lon="0.35435">
        <ele>845.2</ele>
        <time>2025-07-22T03:37:08Z</time>
      </trkpt>
      <trkpt lat="42.91846" lon="0.35449">
        <ele>845.6</ele>
        <time>2025-07-22T03:37:13Z</time>
      </trkpt>
      <trkpt lat="42.91848" lon="0.35465">
        <ele>846.4</ele>
        <time>2025-07-22T03:37:19Z</time>
      </trkpt>
      <trkpt lat="42.91849" lon="0.35474">
        <ele>846.8</ele>
        <time>2025-07-22T03:37:22Z</time>
      </trkpt>
      <trkpt lat="42.91848" lon="0.35493">
        <ele>847.8</ele>
        <time>2025-07-22T03:37:29Z</time>
      </trkpt>
      <trkpt lat="42.91848" lon="0.35495">
        <ele>848</ele>
        <time>2025-07-22T03:37:30Z</time>
      </trkpt>
      <trkpt lat="42.91848" lon="0.35498">
        <ele>848</ele>
        <time>2025-07-22T03:37:31Z</time>
      </trkpt>
      <trkpt lat="42.91845" lon="0.35513">
        <ele>849.2</ele>
        <time>2025-07-22T03:37:37Z</time>
      </trkpt>
      <trkpt lat="42.91844" lon="0.35515">
        <ele>849.4</ele>
        <time>2025-07-22T03:37:38Z</time>
      </trkpt>
      <trkpt lat="42.91841" lon="0.35525">
        <ele>850.4</ele>
        <time>2025-07-22T03:37:42Z</time>
      </trkpt>
      <trkpt lat="42.91839" lon="0.35533">
        <ele>851</ele>
        <time>2025-07-22T03:37:45Z</time>
      </trkpt>
      <trkpt lat="42.91838" lon="0.35539">
        <ele>851.4</ele>
        <time>2025-07-22T03:37:47Z</time>
      </trkpt>
      <trkpt lat="42.91834" lon="0.35551">
        <ele>852.4</ele>
        <time>2025-07-22T03:37:52Z</time>
      </trkpt>
      <trkpt lat="42.91833" lon="0.35553">
        <ele>852.6</ele>
        <time>2025-07-22T03:37:53Z</time>
      </trkpt>
      <trkpt lat="42.91831" lon="0.35568">
        <ele>853.6</ele>
        <time>2025-07-22T03:37:59Z</time>
      </trkpt>
      <trkpt lat="42.91828" lon="0.35578">
        <ele>854.2</ele>
        <time>2025-07-22T03:38:03Z</time>
      </trkpt>
      <trkpt lat="42.91826" lon="0.35589">
        <ele>854.6</ele>
        <time>2025-07-22T03:38:07Z</time>
      </trkpt>
      <trkpt lat="42.91823" lon="0.35602">
        <ele>855.6</ele>
        <time>2025-07-22T03:38:12Z</time>
      </trkpt>
      <trkpt lat="42.91823" lon="0.35604">
        <ele>855.8</ele>
        <time>2025-07-22T03:38:13Z</time>
      </trkpt>
      <trkpt lat="42.91821" lon="0.35616">
        <ele>856.6</ele>
        <time>2025-07-22T03:38:18Z</time>
      </trkpt>
      <trkpt lat="42.91821" lon="0.35621">
        <ele>857</ele>
        <time>2025-07-22T03:38:20Z</time>
      </trkpt>
      <trkpt lat="42.91818" lon="0.35636">
        <ele>858</ele>
        <time>2025-07-22T03:38:26Z</time>
      </trkpt>
      <trkpt lat="42.91817" lon="0.35645">
        <ele>858.6</ele>
        <time>2025-07-22T03:38:29Z</time>
      </trkpt>
      <trkpt lat="42.91817" lon="0.3565">
        <ele>859</ele>
        <time>2025-07-22T03:38:31Z</time>
      </trkpt>
      <trkpt lat="42.91814" lon="0.35668">
        <ele>860</ele>
        <time>2025-07-22T03:38:38Z</time>
      </trkpt>
      <trkpt lat="42.91814" lon="0.35671">
        <ele>860.2</ele>
        <time>2025-07-22T03:38:39Z</time>
      </trkpt>
      <trkpt lat="42.9181" lon="0.35683">
        <ele>861</ele>
        <time>2025-07-22T03:38:44Z</time>
      </trkpt>
      <trkpt lat="42.91806" lon="0.35694">
        <ele>862</ele>
        <time>2025-07-22T03:38:48Z</time>
      </trkpt>
      <trkpt lat="42.91806" lon="0.35699">
        <ele>862.4</ele>
        <time>2025-07-22T03:38:50Z</time>
      </trkpt>
      <trkpt lat="42.91805" lon="0.35721">
        <ele>863.2</ele>
        <time>2025-07-22T03:38:57Z</time>
      </trkpt>
      <trkpt lat="42.91806" lon="0.35727">
        <ele>863.4</ele>
        <time>2025-07-22T03:38:59Z</time>
      </trkpt>
      <trkpt lat="42.91811" lon="0.35741">
        <ele>864.2</ele>
        <time>2025-07-22T03:39:04Z</time>
      </trkpt>
      <trkpt lat="42.91813" lon="0.35746">
        <ele>864.6</ele>
        <time>2025-07-22T03:39:06Z</time>
      </trkpt>
      <trkpt lat="42.91821" lon="0.35764">
        <ele>865.2</ele>
        <time>2025-07-22T03:39:13Z</time>
      </trkpt>
      <trkpt lat="42.91824" lon="0.35768">
        <ele>865.6</ele>
        <time>2025-07-22T03:39:15Z</time>
      </trkpt>
      <trkpt lat="42.91829" lon="0.35777">
        <ele>866.2</ele>
        <time>2025-07-22T03:39:19Z</time>
      </trkpt>
      <trkpt lat="42.91836" lon="0.3579">
        <ele>867</ele>
        <time>2025-07-22T03:39:24Z</time>
      </trkpt>
      <trkpt lat="42.91842" lon="0.35798">
        <ele>867.6</ele>
        <time>2025-07-22T03:39:28Z</time>
      </trkpt>
      <trkpt lat="42.91848" lon="0.35806">
        <ele>868</ele>
        <time>2025-07-22T03:39:32Z</time>
      </trkpt>
      <trkpt lat="42.91861" lon="0.35819">
        <ele>869</ele>
        <time>2025-07-22T03:39:39Z</time>
      </trkpt>
      <trkpt lat="42.91865" lon="0.35822">
        <ele>869.4</ele>
        <time>2025-07-22T03:39:41Z</time>
      </trkpt>
      <trkpt lat="42.91874" lon="0.35831">
        <ele>870</ele>
        <time>2025-07-22T03:39:46Z</time>
      </trkpt>
      <trkpt lat="42.91878" lon="0.35834">
        <ele>870.4</ele>
        <time>2025-07-22T03:39:48Z</time>
      </trkpt>
      <trkpt lat="42.91895" lon="0.35849">
        <ele>871.4</ele>
        <time>2025-07-22T03:39:57Z</time>
      </trkpt>
      <trkpt lat="42.91913" lon="0.35863">
        <ele>872.4</ele>
        <time>2025-07-22T03:40:06Z</time>
      </trkpt>
      <trkpt lat="42.91915" lon="0.35864">
        <ele>872.4</ele>
        <time>2025-07-22T03:40:07Z</time>
      </trkpt>
      <trkpt lat="42.91932" lon="0.35874">
        <ele>873.6</ele>
        <time>2025-07-22T03:40:15Z</time>
      </trkpt>
      <trkpt lat="42.91934" lon="0.35875">
        <ele>873.8</ele>
        <time>2025-07-22T03:40:16Z</time>
      </trkpt>
      <trkpt lat="42.91948" lon="0.35882">
        <ele>874.6</ele>
        <time>2025-07-22T03:40:23Z</time>
      </trkpt>
      <trkpt lat="42.9195" lon="0.35883">
        <ele>874.6</ele>
        <time>2025-07-22T03:40:24Z</time>
      </trkpt>
      <trkpt lat="42.91966" lon="0.35896">
        <ele>875.6</ele>
        <time>2025-07-22T03:40:32Z</time>
      </trkpt>
      <trkpt lat="42.91971" lon="0.35899">
        <ele>875.8</ele>
        <time>2025-07-22T03:40:34Z</time>
      </trkpt>
      <trkpt lat="42.91987" lon="0.35905">
        <ele>876.6</ele>
        <time>2025-07-22T03:40:41Z</time>
      </trkpt>
      <trkpt lat="42.91991" lon="0.35907">
        <ele>877</ele>
        <time>2025-07-22T03:40:43Z</time>
      </trkpt>
      <trkpt lat="42.92005" lon="0.35911">
        <ele>877.6</ele>
        <time>2025-07-22T03:40:49Z</time>
      </trkpt>
      <trkpt lat="42.9201" lon="0.35913">
        <ele>878.2</ele>
        <time>2025-07-22T03:40:51Z</time>
      </trkpt>
      <trkpt lat="42.92022" lon="0.35917">
        <ele>878.8</ele>
        <time>2025-07-22T03:40:56Z</time>
      </trkpt>
      <trkpt lat="42.92027" lon="0.35919">
        <ele>879</ele>
        <time>2025-07-22T03:40:58Z</time>
      </trkpt>
      <trkpt lat="42.92041" lon="0.35923">
        <ele>880</ele>
        <time>2025-07-22T03:41:04Z</time>
      </trkpt>
      <trkpt lat="42.9205" lon="0.35926">
        <ele>880.4</ele>
        <time>2025-07-22T03:41:08Z</time>
      </trkpt>
      <trkpt lat="42.92061" lon="0.35929">
        <ele>881</ele>
        <time>2025-07-22T03:41:12Z</time>
      </trkpt>
      <trkpt lat="42.92071" lon="0.35934">
        <ele>881.4</ele>
        <time>2025-07-22T03:41:16Z</time>
      </trkpt>
      <trkpt lat="42.92087" lon="0.35947">
        <ele>882.2</ele>
        <time>2025-07-22T03:41:23Z</time>
      </trkpt>
      <trkpt lat="42.9209" lon="0.35949">
        <ele>882.2</ele>
        <time>2025-07-22T03:41:24Z</time>
      </trkpt>
      <trkpt lat="42.92104" lon="0.35954">
        <ele>883.2</ele>
        <time>2025-07-22T03:41:30Z</time>
      </trkpt>
      <trkpt lat="42.92106" lon="0.35955">
        <ele>883.4</ele>
        <time>2025-07-22T03:41:31Z</time>
      </trkpt>
      <trkpt lat="42.92124" lon="0.35957">
        <ele>884.4</ele>
        <time>2025-07-22T03:41:38Z</time>
      </trkpt>
      <trkpt lat="42.92127" lon="0.35957">
        <ele>884.6</ele>
        <time>2025-07-22T03:41:39Z</time>
      </trkpt>
      <trkpt lat="42.92145" lon="0.35954">
        <ele>885.4</ele>
        <time>2025-07-22T03:41:46Z</time>
      </trkpt>
      <trkpt lat="42.92147" lon="0.35954">
        <ele>885.6</ele>
        <time>2025-07-22T03:41:47Z</time>
      </trkpt>
      <trkpt lat="42.92163" lon="0.35949">
        <ele>886.6</ele>
        <time>2025-07-22T03:41:54Z</time>
      </trkpt>
      <trkpt lat="42.92173" lon="0.35947">
        <ele>887.2</ele>
        <time>2025-07-22T03:41:58Z</time>
      </trkpt>
      <trkpt lat="42.92184" lon="0.35943">
        <ele>887.8</ele>
        <time>2025-07-22T03:42:03Z</time>
      </trkpt>
      <trkpt lat="42.92194" lon="0.35939">
        <ele>888.2</ele>
        <time>2025-07-22T03:42:07Z</time>
      </trkpt>
      <trkpt lat="42.92204" lon="0.35936">
        <ele>889</ele>
        <time>2025-07-22T03:42:11Z</time>
      </trkpt>
      <trkpt lat="42.92219" lon="0.35937">
        <ele>889.8</ele>
        <time>2025-07-22T03:42:17Z</time>
      </trkpt>
      <trkpt lat="42.92226" lon="0.3594">
        <ele>890</ele>
        <time>2025-07-22T03:42:20Z</time>
      </trkpt>
      <trkpt lat="42.9224" lon="0.35945">
        <ele>890.8</ele>
        <time>2025-07-22T03:42:26Z</time>
      </trkpt>
      <trkpt lat="42.92245" lon="0.35946">
        <ele>891</ele>
        <time>2025-07-22T03:42:28Z</time>
      </trkpt>
      <trkpt lat="42.92267" lon="0.35949">
        <ele>892.2</ele>
        <time>2025-07-22T03:42:37Z</time>
      </trkpt>
      <trkpt lat="42.92284" lon="0.35949">
        <ele>893.2</ele>
        <time>2025-07-22T03:42:44Z</time>
      </trkpt>
      <trkpt lat="42.92289" lon="0.35949">
        <ele>893.4</ele>
        <time>2025-07-22T03:42:46Z</time>
      </trkpt>
      <trkpt lat="42.92305" lon="0.35948">
        <ele>894.4</ele>
        <time>2025-07-22T03:42:52Z</time>
      </trkpt>
      <trkpt lat="42.92312" lon="0.35948">
        <ele>894.8</ele>
        <time>2025-07-22T03:42:55Z</time>
      </trkpt>
      <trkpt lat="42.92327" lon="0.35946">
        <ele>895.4</ele>
        <time>2025-07-22T03:43:01Z</time>
      </trkpt>
      <trkpt lat="42.92334" lon="0.35946">
        <ele>896.2</ele>
        <time>2025-07-22T03:43:04Z</time>
      </trkpt>
      <trkpt lat="42.92341" lon="0.35945">
        <ele>896.6</ele>
        <time>2025-07-22T03:43:07Z</time>
      </trkpt>
      <trkpt lat="42.92354" lon="0.35944">
        <ele>897.2</ele>
        <time>2025-07-22T03:43:12Z</time>
      </trkpt>
      <trkpt lat="42.92364" lon="0.35944">
        <ele>897.4</ele>
        <time>2025-07-22T03:43:16Z</time>
      </trkpt>
      <trkpt lat="42.92377" lon="0.35945">
        <ele>898</ele>
        <time>2025-07-22T03:43:21Z</time>
      </trkpt>
      <trkpt lat="42.92386" lon="0.35949">
        <ele>898.4</ele>
        <time>2025-07-22T03:43:25Z</time>
      </trkpt>
      <trkpt lat="42.92389" lon="0.35955">
        <ele>899.8</ele>
        <time>2025-07-22T03:43:27Z</time>
      </trkpt>
      <trkpt lat="42.9239" lon="0.35971">
        <ele>899.4</ele>
        <time>2025-07-22T03:43:32Z</time>
      </trkpt>
      <trkpt lat="42.9239" lon="0.35991">
        <ele>900.6</ele>
        <time>2025-07-22T03:43:38Z</time>
      </trkpt>
      <trkpt lat="42.9239" lon="0.35998">
        <ele>900.8</ele>
        <time>2025-07-22T03:43:40Z</time>
      </trkpt>
      <trkpt lat="42.92391" lon="0.36012">
        <ele>901.6</ele>
        <time>2025-07-22T03:43:44Z</time>
      </trkpt>
      <trkpt lat="42.92392" lon="0.36019">
        <ele>902</ele>
        <time>2025-07-22T03:43:46Z</time>
      </trkpt>
      <trkpt lat="42.924" lon="0.36034">
        <ele>902.6</ele>
        <time>2025-07-22T03:43:51Z</time>
      </trkpt>
      <trkpt lat="42.92402" lon="0.36035">
        <ele>902.8</ele>
        <time>2025-07-22T03:43:52Z</time>
      </trkpt>
      <trkpt lat="42.92412" lon="0.36031">
        <ele>903.2</ele>
        <time>2025-07-22T03:43:56Z</time>
      </trkpt>
      <trkpt lat="42.92413" lon="0.36028">
        <ele>903.2</ele>
        <time>2025-07-22T03:43:57Z</time>
      </trkpt>
      <trkpt lat="42.92412" lon="0.36013">
        <ele>903.8</ele>
        <time>2025-07-22T03:44:01Z</time>
      </trkpt>
      <trkpt lat="42.92402" lon="0.35986">
        <ele>904.6</ele>
        <time>2025-07-22T03:44:09Z</time>
      </trkpt>
      <trkpt lat="42.92403" lon="0.35975">
        <ele>905</ele>
        <time>2025-07-22T03:44:12Z</time>
      </trkpt>
      <trkpt lat="42.92405" lon="0.35957">
        <ele>905.4</ele>
        <time>2025-07-22T03:44:17Z</time>
      </trkpt>
      <trkpt lat="42.92406" lon="0.35947">
        <ele>906</ele>
        <time>2025-07-22T03:44:20Z</time>
      </trkpt>
      <trkpt lat="42.92404" lon="0.35932">
        <ele>906.6</ele>
        <time>2025-07-22T03:44:24Z</time>
      </trkpt>
      <trkpt lat="42.92397" lon="0.35921">
        <ele>907.2</ele>
        <time>2025-07-22T03:44:28Z</time>
      </trkpt>
      <trkpt lat="42.92395" lon="0.35919">
        <ele>907.2</ele>
        <time>2025-07-22T03:44:29Z</time>
      </trkpt>
      <trkpt lat="42.92379" lon="0.35916">
        <ele>907.8</ele>
        <time>2025-07-22T03:44:35Z</time>
      </trkpt>
      <trkpt lat="42.9237" lon="0.35915">
        <ele>908.2</ele>
        <time>2025-07-22T03:44:39Z</time>
      </trkpt>
      <trkpt lat="42.92367" lon="0.35914">
        <ele>908.4</ele>
        <time>2025-07-22T03:44:40Z</time>
      </trkpt>
      <trkpt lat="42.92351" lon="0.35911">
        <ele>909.2</ele>
        <time>2025-07-22T03:44:47Z</time>
      </trkpt>
      <trkpt lat="42.92346" lon="0.3591">
        <ele>909.6</ele>
        <time>2025-07-22T03:44:49Z</time>
      </trkpt>
      <trkpt lat="42.92335" lon="0.35908">
        <ele>910.2</ele>
        <time>2025-07-22T03:44:54Z</time>
      </trkpt>
      <trkpt lat="42.92323" lon="0.35905">
        <ele>911</ele>
        <time>2025-07-22T03:44:59Z</time>
      </trkpt>
      <trkpt lat="42.92318" lon="0.35904">
        <ele>911.4</ele>
        <time>2025-07-22T03:45:01Z</time>
      </trkpt>
      <trkpt lat="42.92303" lon="0.359">
        <ele>912.4</ele>
        <time>2025-07-22T03:45:07Z</time>
      </trkpt>
      <trkpt lat="42.923" lon="0.35899">
        <ele>912.6</ele>
        <time>2025-07-22T03:45:08Z</time>
      </trkpt>
      <trkpt lat="42.92282" lon="0.35895">
        <ele>913.2</ele>
        <time>2025-07-22T03:45:15Z</time>
      </trkpt>
      <trkpt lat="42.92267" lon="0.35892">
        <ele>913.8</ele>
        <time>2025-07-22T03:45:21Z</time>
      </trkpt>
      <trkpt lat="42.92262" lon="0.3589">
        <ele>914.4</ele>
        <time>2025-07-22T03:45:23Z</time>
      </trkpt>
      <trkpt lat="42.92257" lon="0.35888">
        <ele>914.6</ele>
        <time>2025-07-22T03:45:25Z</time>
      </trkpt>
      <trkpt lat="42.92243" lon="0.35883">
        <ele>915.6</ele>
        <time>2025-07-22T03:45:31Z</time>
      </trkpt>
      <trkpt lat="42.92238" lon="0.3588">
        <ele>915.8</ele>
        <time>2025-07-22T03:45:33Z</time>
      </trkpt>
      <trkpt lat="42.92222" lon="0.35874">
        <ele>916.8</ele>
        <time>2025-07-22T03:45:40Z</time>
      </trkpt>
      <trkpt lat="42.9222" lon="0.35873">
        <ele>917</ele>
        <time>2025-07-22T03:45:41Z</time>
      </trkpt>
      <trkpt lat="42.92202" lon="0.35869">
        <ele>918</ele>
        <time>2025-07-22T03:45:49Z</time>
      </trkpt>
      <trkpt lat="42.92185" lon="0.35864">
        <ele>919.2</ele>
        <time>2025-07-22T03:45:56Z</time>
      </trkpt>
      <trkpt lat="42.92182" lon="0.35863">
        <ele>919.2</ele>
        <time>2025-07-22T03:45:57Z</time>
      </trkpt>
      <trkpt lat="42.92167" lon="0.35859">
        <ele>920</ele>
        <time>2025-07-22T03:46:03Z</time>
      </trkpt>
      <trkpt lat="42.92162" lon="0.35858">
        <ele>920.2</ele>
        <time>2025-07-22T03:46:05Z</time>
      </trkpt>
      <trkpt lat="42.92145" lon="0.35853">
        <ele>921.4</ele>
        <time>2025-07-22T03:46:12Z</time>
      </trkpt>
      <trkpt lat="42.92143" lon="0.35852">
        <ele>921.6</ele>
        <time>2025-07-22T03:46:13Z</time>
      </trkpt>
      <trkpt lat="42.92127" lon="0.35843">
        <ele>922.4</ele>
        <time>2025-07-22T03:46:20Z</time>
      </trkpt>
      <trkpt lat="42.92115" lon="0.35835">
        <ele>923</ele>
        <time>2025-07-22T03:46:25Z</time>
      </trkpt>
      <trkpt lat="42.92107" lon="0.35829">
        <ele>923.6</ele>
        <time>2025-07-22T03:46:29Z</time>
      </trkpt>
      <trkpt lat="42.92089" lon="0.35818">
        <ele>924.6</ele>
        <time>2025-07-22T03:46:37Z</time>
      </trkpt>
      <trkpt lat="42.92074" lon="0.35809">
        <ele>925.4</ele>
        <time>2025-07-22T03:46:43Z</time>
      </trkpt>
      <trkpt lat="42.9207" lon="0.35806">
        <ele>925.8</ele>
        <time>2025-07-22T03:46:45Z</time>
      </trkpt>
      <trkpt lat="42.9206" lon="0.35798">
        <ele>926.8</ele>
        <time>2025-07-22T03:46:50Z</time>
      </trkpt>
      <trkpt lat="42.92058" lon="0.35796">
        <ele>927</ele>
        <time>2025-07-22T03:46:51Z</time>
      </trkpt>
      <trkpt lat="42.92046" lon="0.35784">
        <ele>927.8</ele>
        <time>2025-07-22T03:46:57Z</time>
      </trkpt>
      <trkpt lat="42.92035" lon="0.35772">
        <ele>928.6</ele>
        <time>2025-07-22T03:47:03Z</time>
      </trkpt>
      <trkpt lat="42.92029" lon="0.35765">
        <ele>929</ele>
        <time>2025-07-22T03:47:06Z</time>
      </trkpt>
      <trkpt lat="42.92017" lon="0.35753">
        <ele>930</ele>
        <time>2025-07-22T03:47:12Z</time>
      </trkpt>
      <trkpt lat="42.92015" lon="0.35752">
        <ele>930</ele>
        <time>2025-07-22T03:47:13Z</time>
      </trkpt>
      <trkpt lat="42.92004" lon="0.35735">
        <ele>931</ele>
        <time>2025-07-22T03:47:20Z</time>
      </trkpt>
      <trkpt lat="42.91994" lon="0.35719">
        <ele>932.2</ele>
        <time>2025-07-22T03:47:26Z</time>
      </trkpt>
      <trkpt lat="42.91987" lon="0.35706">
        <ele>933.2</ele>
        <time>2025-07-22T03:47:31Z</time>
      </trkpt>
      <trkpt lat="42.91986" lon="0.35703">
        <ele>933.2</ele>
        <time>2025-07-22T03:47:32Z</time>
      </trkpt>
      <trkpt lat="42.91979" lon="0.35681">
        <ele>934</ele>
        <time>2025-07-22T03:47:39Z</time>
      </trkpt>
      <trkpt lat="42.91978" lon="0.35674">
        <ele>934.4</ele>
        <time>2025-07-22T03:47:41Z</time>
      </trkpt>
      <trkpt lat="42.91979" lon="0.35656">
        <ele>934.8</ele>
        <time>2025-07-22T03:47:46Z</time>
      </trkpt>
      <trkpt lat="42.91985" lon="0.35634">
        <ele>935.4</ele>
        <time>2025-07-22T03:47:53Z</time>
      </trkpt>
      <trkpt lat="42.91997" lon="0.35618">
        <ele>936.4</ele>
        <time>2025-07-22T03:48:00Z</time>
      </trkpt>
      <trkpt lat="42.9201" lon="0.35607">
        <ele>937.8</ele>
        <time>2025-07-22T03:48:06Z</time>
      </trkpt>
      <trkpt lat="42.92012" lon="0.35606">
        <ele>938</ele>
        <time>2025-07-22T03:48:07Z</time>
      </trkpt>
      <trkpt lat="42.92023" lon="0.35599">
        <ele>938.8</ele>
        <time>2025-07-22T03:48:12Z</time>
      </trkpt>
      <trkpt lat="42.92034" lon="0.35592">
        <ele>939.6</ele>
        <time>2025-07-22T03:48:17Z</time>
      </trkpt>
      <trkpt lat="42.92038" lon="0.35589">
        <ele>940</ele>
        <time>2025-07-22T03:48:19Z</time>
      </trkpt>
      <trkpt lat="42.92048" lon="0.35582">
        <ele>940.6</ele>
        <time>2025-07-22T03:48:24Z</time>
      </trkpt>
      <trkpt lat="42.92054" lon="0.35579">
        <ele>941</ele>
        <time>2025-07-22T03:48:27Z</time>
      </trkpt>
      <trkpt lat="42.92063" lon="0.35574">
        <ele>941.6</ele>
        <time>2025-07-22T03:48:31Z</time>
      </trkpt>
      <trkpt lat="42.92069" lon="0.3557">
        <ele>942.2</ele>
        <time>2025-07-22T03:48:34Z</time>
      </trkpt>
      <trkpt lat="42.92082" lon="0.35562">
        <ele>943.2</ele>
        <time>2025-07-22T03:48:40Z</time>
      </trkpt>
      <trkpt lat="42.92084" lon="0.3556">
        <ele>943.2</ele>
        <time>2025-07-22T03:48:41Z</time>
      </trkpt>
      <trkpt lat="42.92093" lon="0.35545">
        <ele>944.4</ele>
        <time>2025-07-22T03:48:47Z</time>
      </trkpt>
      <trkpt lat="42.9209" lon="0.35527">
        <ele>945.2</ele>
        <time>2025-07-22T03:48:53Z</time>
      </trkpt>
      <trkpt lat="42.92088" lon="0.35522">
        <ele>945.4</ele>
        <time>2025-07-22T03:48:55Z</time>
      </trkpt>
      <trkpt lat="42.92081" lon="0.35512">
        <ele>946</ele>
        <time>2025-07-22T03:48:59Z</time>
      </trkpt>
      <trkpt lat="42.92074" lon="0.35503">
        <ele>946.4</ele>
        <time>2025-07-22T03:49:03Z</time>
      </trkpt>
      <trkpt lat="42.92066" lon="0.35491">
        <ele>947.2</ele>
        <time>2025-07-22T03:49:09Z</time>
      </trkpt>
      <trkpt lat="42.92063" lon="0.35486">
        <ele>947.4</ele>
        <time>2025-07-22T03:49:11Z</time>
      </trkpt>
      <trkpt lat="42.92056" lon="0.35474">
        <ele>948.2</ele>
        <time>2025-07-22T03:49:16Z</time>
      </trkpt>
      <trkpt lat="42.92053" lon="0.35467">
        <ele>948.6</ele>
        <time>2025-07-22T03:49:19Z</time>
      </trkpt>
      <trkpt lat="42.92049" lon="0.35452">
        <ele>949.2</ele>
        <time>2025-07-22T03:49:24Z</time>
      </trkpt>
      <trkpt lat="42.9205" lon="0.35439">
        <ele>949.8</ele>
        <time>2025-07-22T03:49:28Z</time>
      </trkpt>
      <trkpt lat="42.9205" lon="0.3543">
        <ele>950.2</ele>
        <time>2025-07-22T03:49:31Z</time>
      </trkpt>
      <trkpt lat="42.92055" lon="0.35417">
        <ele>950.8</ele>
        <time>2025-07-22T03:49:36Z</time>
      </trkpt>
      <trkpt lat="42.92058" lon="0.35411">
        <ele>951.2</ele>
        <time>2025-07-22T03:49:38Z</time>
      </trkpt>
      <trkpt lat="42.92065" lon="0.35399">
        <ele>952</ele>
        <time>2025-07-22T03:49:43Z</time>
      </trkpt>
      <trkpt lat="42.92072" lon="0.35388">
        <ele>952.8</ele>
        <time>2025-07-22T03:49:48Z</time>
      </trkpt>
      <trkpt lat="42.92077" lon="0.35382">
        <ele>953.2</ele>
        <time>2025-07-22T03:49:51Z</time>
      </trkpt>
      <trkpt lat="42.92088" lon="0.35368">
        <ele>954.2</ele>
        <time>2025-07-22T03:49:58Z</time>
      </trkpt>
      <trkpt lat="42.92103" lon="0.35355">
        <ele>955.6</ele>
        <time>2025-07-22T03:50:06Z</time>
      </trkpt>
      <trkpt lat="42.92105" lon="0.35354">
        <ele>955.6</ele>
        <time>2025-07-22T03:50:07Z</time>
      </trkpt>
      <trkpt lat="42.92117" lon="0.35345">
        <ele>956.6</ele>
        <time>2025-07-22T03:50:13Z</time>
      </trkpt>
      <trkpt lat="42.92123" lon="0.35341">
        <ele>957</ele>
        <time>2025-07-22T03:50:16Z</time>
      </trkpt>
      <trkpt lat="42.92131" lon="0.35336">
        <ele>957.6</ele>
        <time>2025-07-22T03:50:20Z</time>
      </trkpt>
      <trkpt lat="42.92141" lon="0.35327">
        <ele>958.2</ele>
        <time>2025-07-22T03:50:25Z</time>
      </trkpt>
      <trkpt lat="42.92144" lon="0.35324">
        <ele>958.4</ele>
        <time>2025-07-22T03:50:27Z</time>
      </trkpt>
      <trkpt lat="42.92154" lon="0.35314">
        <ele>959.4</ele>
        <time>2025-07-22T03:50:33Z</time>
      </trkpt>
      <trkpt lat="42.92158" lon="0.35311">
        <ele>959.8</ele>
        <time>2025-07-22T03:50:35Z</time>
      </trkpt>
      <trkpt lat="42.9217" lon="0.353">
        <ele>961</ele>
        <time>2025-07-22T03:50:42Z</time>
      </trkpt>
      <trkpt lat="42.92185" lon="0.35286">
        <ele>962</ele>
        <time>2025-07-22T03:50:50Z</time>
      </trkpt>
      <trkpt lat="42.92187" lon="0.35284">
        <ele>962.2</ele>
        <time>2025-07-22T03:50:51Z</time>
      </trkpt>
      <trkpt lat="42.92201" lon="0.3527">
        <ele>963.4</ele>
        <time>2025-07-22T03:50:59Z</time>
      </trkpt>
      <trkpt lat="42.92216" lon="0.35253">
        <ele>964.4</ele>
        <time>2025-07-22T03:51:08Z</time>
      </trkpt>
      <trkpt lat="42.92218" lon="0.3525">
        <ele>964.8</ele>
        <time>2025-07-22T03:51:09Z</time>
      </trkpt>
      <trkpt lat="42.92224" lon="0.35242">
        <ele>965.4</ele>
        <time>2025-07-22T03:51:13Z</time>
      </trkpt>
      <trkpt lat="42.92229" lon="0.35236">
        <ele>966</ele>
        <time>2025-07-22T03:51:16Z</time>
      </trkpt>
      <trkpt lat="42.92238" lon="0.35226">
        <ele>966.6</ele>
        <time>2025-07-22T03:51:21Z</time>
      </trkpt>
      <trkpt lat="42.92246" lon="0.35213">
        <ele>967.4</ele>
        <time>2025-07-22T03:51:27Z</time>
      </trkpt>
      <trkpt lat="42.92248" lon="0.35211">
        <ele>967.6</ele>
        <time>2025-07-22T03:51:28Z</time>
      </trkpt>
      <trkpt lat="42.92263" lon="0.35194">
        <ele>968.6</ele>
        <time>2025-07-22T03:51:36Z</time>
      </trkpt>
      <trkpt lat="42.92273" lon="0.35179">
        <ele>969.6</ele>
        <time>2025-07-22T03:51:43Z</time>
      </trkpt>
      <trkpt lat="42.92274" lon="0.35176">
        <ele>969.8</ele>
        <time>2025-07-22T03:51:44Z</time>
      </trkpt>
      <trkpt lat="42.92272" lon="0.35157">
        <ele>970.8</ele>
        <time>2025-07-22T03:51:50Z</time>
      </trkpt>
      <trkpt lat="42.92271" lon="0.35134">
        <ele>971.8</ele>
        <time>2025-07-22T03:51:58Z</time>
      </trkpt>
      <trkpt lat="42.92272" lon="0.35131">
        <ele>972</ele>
        <time>2025-07-22T03:51:59Z</time>
      </trkpt>
      <trkpt lat="42.92276" lon="0.3512">
        <ele>973</ele>
        <time>2025-07-22T03:52:03Z</time>
      </trkpt>
      <trkpt lat="42.92283" lon="0.35108">
        <ele>973.8</ele>
        <time>2025-07-22T03:52:08Z</time>
      </trkpt>
      <trkpt lat="42.92285" lon="0.35103">
        <ele>973.8</ele>
        <time>2025-07-22T03:52:10Z</time>
      </trkpt>
      <trkpt lat="42.92297" lon="0.35088">
        <ele>974.6</ele>
        <time>2025-07-22T03:52:17Z</time>
      </trkpt>
      <trkpt lat="42.923" lon="0.35084">
        <ele>975</ele>
        <time>2025-07-22T03:52:19Z</time>
      </trkpt>
      <trkpt lat="42.92309" lon="0.35074">
        <ele>975.6</ele>
        <time>2025-07-22T03:52:24Z</time>
      </trkpt>
      <trkpt lat="42.92313" lon="0.35067">
        <ele>976.2</ele>
        <time>2025-07-22T03:52:27Z</time>
      </trkpt>
      <trkpt lat="42.92323" lon="0.35057">
        <ele>977</ele>
        <time>2025-07-22T03:52:33Z</time>
      </trkpt>
      <trkpt lat="42.92325" lon="0.35055">
        <ele>977.2</ele>
        <time>2025-07-22T03:52:34Z</time>
      </trkpt>
      <trkpt lat="42.92335" lon="0.35045">
        <ele>978</ele>
        <time>2025-07-22T03:52:40Z</time>
      </trkpt>
      <trkpt lat="42.92336" lon="0.35043">
        <ele>978.4</ele>
        <time>2025-07-22T03:52:41Z</time>
      </trkpt>
      <trkpt lat="42.92349" lon="0.35031">
        <ele>979.4</ele>
        <time>2025-07-22T03:52:48Z</time>
      </trkpt>
      <trkpt lat="42.92363" lon="0.35017">
        <ele>980.6</ele>
        <time>2025-07-22T03:52:56Z</time>
      </trkpt>
      <trkpt lat="42.92365" lon="0.35016">
        <ele>980.8</ele>
        <time>2025-07-22T03:52:58Z</time>
      </trkpt>
      <trkpt lat="42.92378" lon="0.35004">
        <ele>981.6</ele>
        <time>2025-07-22T03:53:04Z</time>
      </trkpt>
      <trkpt lat="42.92386" lon="0.34997">
        <ele>982.4</ele>
        <time>2025-07-22T03:53:08Z</time>
      </trkpt>
      <trkpt lat="42.92391" lon="0.34993">
        <ele>982.8</ele>
        <time>2025-07-22T03:53:11Z</time>
      </trkpt>
      <trkpt lat="42.92402" lon="0.34983">
        <ele>983.8</ele>
        <time>2025-07-22T03:53:17Z</time>
      </trkpt>
      <trkpt lat="42.92402" lon="0.34983">
        <ele>984</ele>
        <time>2025-07-22T03:53:18Z</time>
      </trkpt>
      <trkpt lat="42.92418" lon="0.34968">
        <ele>984.8</ele>
        <time>2025-07-22T03:53:26Z</time>
      </trkpt>
      <trkpt lat="42.92432" lon="0.34955">
        <ele>986.2</ele>
        <time>2025-07-22T03:53:34Z</time>
      </trkpt>
      <trkpt lat="42.92438" lon="0.3495">
        <ele>986.2</ele>
        <time>2025-07-22T03:53:37Z</time>
      </trkpt>
      <trkpt lat="42.92448" lon="0.34939">
        <ele>987.2</ele>
        <time>2025-07-22T03:53:43Z</time>
      </trkpt>
      <trkpt lat="42.92454" lon="0.34931">
        <ele>987.8</ele>
        <time>2025-07-22T03:53:47Z</time>
      </trkpt>
      <trkpt lat="42.92459" lon="0.34925">
        <ele>988.2</ele>
        <time>2025-07-22T03:53:50Z</time>
      </trkpt>
      <trkpt lat="42.9247" lon="0.34912">
        <ele>989.4</ele>
        <time>2025-07-22T03:53:57Z</time>
      </trkpt>
      <trkpt lat="42.9248" lon="0.34899">
        <ele>990.4</ele>
        <time>2025-07-22T03:54:03Z</time>
      </trkpt>
      <trkpt lat="42.92484" lon="0.34894">
        <ele>990.8</ele>
        <time>2025-07-22T03:54:06Z</time>
      </trkpt>
      <trkpt lat="42.92489" lon="0.34886">
        <ele>991.4</ele>
        <time>2025-07-22T03:54:10Z</time>
      </trkpt>
      <trkpt lat="42.9249" lon="0.34884">
        <ele>991.4</ele>
        <time>2025-07-22T03:54:11Z</time>
      </trkpt>
      <trkpt lat="42.92491" lon="0.34882">
        <ele>991.6</ele>
        <time>2025-07-22T03:54:12Z</time>
      </trkpt>
      <trkpt lat="42.92499" lon="0.34871">
        <ele>992.8</ele>
        <time>2025-07-22T03:54:19Z</time>
      </trkpt>
      <trkpt lat="42.92503" lon="0.34868">
        <ele>992.8</ele>
        <time>2025-07-22T03:54:20Z</time>
      </trkpt>
      <trkpt lat="42.92507" lon="0.34863">
        <ele>993</ele>
        <time>2025-07-22T03:54:23Z</time>
      </trkpt>
      <trkpt lat="42.9251" lon="0.34858">
        <ele>993.2</ele>
        <time>2025-07-22T03:54:25Z</time>
      </trkpt>
      <trkpt lat="42.92515" lon="0.34847">
        <ele>994</ele>
        <time>2025-07-22T03:54:29Z</time>
      </trkpt>
      <trkpt lat="42.92522" lon="0.34834">
        <ele>994.4</ele>
        <time>2025-07-22T03:54:34Z</time>
      </trkpt>
      <trkpt lat="42.92526" lon="0.34829">
        <ele>995</ele>
        <time>2025-07-22T03:54:36Z</time>
      </trkpt>
      <trkpt lat="42.92537" lon="0.34816">
        <ele>996</ele>
        <time>2025-07-22T03:54:42Z</time>
      </trkpt>
      <trkpt lat="42.92538" lon="0.34813">
        <ele>996</ele>
        <time>2025-07-22T03:54:43Z</time>
      </trkpt>
      <trkpt lat="42.92551" lon="0.34798">
        <ele>997.2</ele>
        <time>2025-07-22T03:54:51Z</time>
      </trkpt>
      <trkpt lat="42.92557" lon="0.34793">
        <ele>997.2</ele>
        <time>2025-07-22T03:54:54Z</time>
      </trkpt>
      <trkpt lat="42.92565" lon="0.34785">
        <ele>998</ele>
        <time>2025-07-22T03:54:59Z</time>
      </trkpt>
      <trkpt lat="42.92574" lon="0.34779">
        <ele>998.8</ele>
        <time>2025-07-22T03:55:04Z</time>
      </trkpt>
      <trkpt lat="42.92578" lon="0.34777">
        <ele>999.2</ele>
        <time>2025-07-22T03:55:06Z</time>
      </trkpt>
      <trkpt lat="42.92592" lon="0.34768">
        <ele>1000.6</ele>
        <time>2025-07-22T03:55:13Z</time>
      </trkpt>
      <trkpt lat="42.92596" lon="0.34765">
        <ele>1000.6</ele>
        <time>2025-07-22T03:55:15Z</time>
      </trkpt>
      <trkpt lat="42.92607" lon="0.34757">
        <ele>1001.8</ele>
        <time>2025-07-22T03:55:21Z</time>
      </trkpt>
      <trkpt lat="42.9261" lon="0.34755">
        <ele>1002.2</ele>
        <time>2025-07-22T03:55:23Z</time>
      </trkpt>
      <trkpt lat="42.92617" lon="0.3475">
        <ele>1002.8</ele>
        <time>2025-07-22T03:55:27Z</time>
      </trkpt>
      <trkpt lat="42.92623" lon="0.34746">
        <ele>1003.4</ele>
        <time>2025-07-22T03:55:30Z</time>
      </trkpt>
      <trkpt lat="42.92633" lon="0.3474">
        <ele>1004</ele>
        <time>2025-07-22T03:55:35Z</time>
      </trkpt>
      <trkpt lat="42.92637" lon="0.34738">
        <ele>1004.2</ele>
        <time>2025-07-22T03:55:37Z</time>
      </trkpt>
      <trkpt lat="42.9265" lon="0.34733">
        <ele>1005</ele>
        <time>2025-07-22T03:55:43Z</time>
      </trkpt>
      <trkpt lat="42.92658" lon="0.34729">
        <ele>1005.4</ele>
        <time>2025-07-22T03:55:47Z</time>
      </trkpt>
      <trkpt lat="42.92665" lon="0.34725">
        <ele>1006</ele>
        <time>2025-07-22T03:55:50Z</time>
      </trkpt>
      <trkpt lat="42.92678" lon="0.34718">
        <ele>1006.4</ele>
        <time>2025-07-22T03:55:55Z</time>
      </trkpt>
      <trkpt lat="42.92699" lon="0.34705">
        <ele>1006.6</ele>
        <time>2025-07-22T03:56:03Z</time>
      </trkpt>
      <trkpt lat="42.92705" lon="0.34693">
        <ele>1007</ele>
        <time>2025-07-22T03:56:07Z</time>
      </trkpt>
      <trkpt lat="42.92706" lon="0.34689">
        <ele>1007.2</ele>
        <time>2025-07-22T03:56:08Z</time>
      </trkpt>
      <trkpt lat="42.92703" lon="0.34664">
        <ele>1008</ele>
        <time>2025-07-22T03:56:14Z</time>
      </trkpt>
      <trkpt lat="42.92701" lon="0.34661">
        <ele>1008.2</ele>
        <time>2025-07-22T03:56:15Z</time>
      </trkpt>
      <trkpt lat="42.92692" lon="0.34646">
        <ele>1008.8</ele>
        <time>2025-07-22T03:56:20Z</time>
      </trkpt>
      <trkpt lat="42.92685" lon="0.3464">
        <ele>1009.2</ele>
        <time>2025-07-22T03:56:23Z</time>
      </trkpt>
      <trkpt lat="42.92674" lon="0.34632">
        <ele>1010</ele>
        <time>2025-07-22T03:56:29Z</time>
      </trkpt>
      <trkpt lat="42.92672" lon="0.34631">
        <ele>1010.2</ele>
        <time>2025-07-22T03:56:30Z</time>
      </trkpt>
      <trkpt lat="42.92662" lon="0.34623">
        <ele>1011</ele>
        <time>2025-07-22T03:56:35Z</time>
      </trkpt>
      <trkpt lat="42.92658" lon="0.3462">
        <ele>1011.4</ele>
        <time>2025-07-22T03:56:37Z</time>
      </trkpt>
      <trkpt lat="42.92646" lon="0.34607">
        <ele>1012.4</ele>
        <time>2025-07-22T03:56:44Z</time>
      </trkpt>
      <trkpt lat="42.92638" lon="0.3459">
        <ele>1013.4</ele>
        <time>2025-07-22T03:56:51Z</time>
      </trkpt>
      <trkpt lat="42.92636" lon="0.34584">
        <ele>1013.8</ele>
        <time>2025-07-22T03:56:53Z</time>
      </trkpt>
      <trkpt lat="42.92633" lon="0.34567">
        <ele>1014.6</ele>
        <time>2025-07-22T03:56:59Z</time>
      </trkpt>
      <trkpt lat="42.92633" lon="0.34564">
        <ele>1014.8</ele>
        <time>2025-07-22T03:57:00Z</time>
      </trkpt>
      <trkpt lat="42.92634" lon="0.34546">
        <ele>1015.8</ele>
        <time>2025-07-22T03:57:06Z</time>
      </trkpt>
      <trkpt lat="42.92635" lon="0.34535">
        <ele>1016.4</ele>
        <time>2025-07-22T03:57:10Z</time>
      </trkpt>
      <trkpt lat="42.92637" lon="0.34528">
        <ele>1017.2</ele>
        <time>2025-07-22T03:57:13Z</time>
      </trkpt>
      <trkpt lat="42.92644" lon="0.3451">
        <ele>1018.4</ele>
        <time>2025-07-22T03:57:20Z</time>
      </trkpt>
      <trkpt lat="42.92645" lon="0.34507">
        <ele>1018.4</ele>
        <time>2025-07-22T03:57:21Z</time>
      </trkpt>
      <trkpt lat="42.92654" lon="0.34492">
        <ele>1019.6</ele>
        <time>2025-07-22T03:57:28Z</time>
      </trkpt>
      <trkpt lat="42.92657" lon="0.34488">
        <ele>1019.8</ele>
        <time>2025-07-22T03:57:30Z</time>
      </trkpt>
      <trkpt lat="42.92665" lon="0.34479">
        <ele>1020.6</ele>
        <time>2025-07-22T03:57:35Z</time>
      </trkpt>
      <trkpt lat="42.92672" lon="0.34472">
        <ele>1021.2</ele>
        <time>2025-07-22T03:57:39Z</time>
      </trkpt>
      <trkpt lat="42.92676" lon="0.34467">
        <ele>1021.6</ele>
        <time>2025-07-22T03:57:42Z</time>
      </trkpt>
      <trkpt lat="42.92686" lon="0.34458">
        <ele>1022.6</ele>
        <time>2025-07-22T03:57:48Z</time>
      </trkpt>
      <trkpt lat="42.92692" lon="0.34454">
        <ele>1023.2</ele>
        <time>2025-07-22T03:57:51Z</time>
      </trkpt>
      <trkpt lat="42.92699" lon="0.34449">
        <ele>1023.8</ele>
        <time>2025-07-22T03:57:55Z</time>
      </trkpt>
      <trkpt lat="42.92709" lon="0.34445">
        <ele>1024.8</ele>
        <time>2025-07-22T03:58:00Z</time>
      </trkpt>
      <trkpt lat="42.92713" lon="0.34444">
        <ele>1025</ele>
        <time>2025-07-22T03:58:02Z</time>
      </trkpt>
      <trkpt lat="42.92729" lon="0.34445">
        <ele>1026</ele>
        <time>2025-07-22T03:58:09Z</time>
      </trkpt>
      <trkpt lat="42.92731" lon="0.34446">
        <ele>1026.4</ele>
        <time>2025-07-22T03:58:10Z</time>
      </trkpt>
      <trkpt lat="42.92742" lon="0.3445">
        <ele>1027.2</ele>
        <time>2025-07-22T03:58:15Z</time>
      </trkpt>
      <trkpt lat="42.92747" lon="0.34455">
        <ele>1027.6</ele>
        <time>2025-07-22T03:58:18Z</time>
      </trkpt>
      <trkpt lat="42.92755" lon="0.34462">
        <ele>1028.2</ele>
        <time>2025-07-22T03:58:22Z</time>
      </trkpt>
      <trkpt lat="42.92762" lon="0.3447">
        <ele>1028.8</ele>
        <time>2025-07-22T03:58:26Z</time>
      </trkpt>
      <trkpt lat="42.92771" lon="0.34479">
        <ele>1029.4</ele>
        <time>2025-07-22T03:58:31Z</time>
      </trkpt>
      <trkpt lat="42.92777" lon="0.34484">
        <ele>1029.6</ele>
        <time>2025-07-22T03:58:34Z</time>
      </trkpt>
      <trkpt lat="42.92786" lon="0.34492">
        <ele>1030.2</ele>
        <time>2025-07-22T03:58:39Z</time>
      </trkpt>
      <trkpt lat="42.92794" lon="0.34501">
        <ele>1031.4</ele>
        <time>2025-07-22T03:58:44Z</time>
      </trkpt>
      <trkpt lat="42.92798" lon="0.34503">
        <ele>1031.6</ele>
        <time>2025-07-22T03:58:47Z</time>
      </trkpt>
      <trkpt lat="42.92807" lon="0.34514">
        <ele>1032.6</ele>
        <time>2025-07-22T03:58:52Z</time>
      </trkpt>
      <trkpt lat="42.92809" lon="0.34516">
        <ele>1032.8</ele>
        <time>2025-07-22T03:58:53Z</time>
      </trkpt>
      <trkpt lat="42.92814" lon="0.34526">
        <ele>1033.8</ele>
        <time>2025-07-22T03:58:58Z</time>
      </trkpt>
      <trkpt lat="42.92815" lon="0.34532">
        <ele>1034.2</ele>
        <time>2025-07-22T03:59:00Z</time>
      </trkpt>
      <trkpt lat="42.92814" lon="0.34543">
        <ele>1035</ele>
        <time>2025-07-22T03:59:04Z</time>
      </trkpt>
      <trkpt lat="42.92812" lon="0.34551">
        <ele>1035.4</ele>
        <time>2025-07-22T03:59:07Z</time>
      </trkpt>
      <trkpt lat="42.92809" lon="0.34559">
        <ele>1036</ele>
        <time>2025-07-22T03:59:10Z</time>
      </trkpt>
      <trkpt lat="42.92805" lon="0.34571">
        <ele>1037</ele>
        <time>2025-07-22T03:59:15Z</time>
      </trkpt>
      <trkpt lat="42.92804" lon="0.34573">
        <ele>1037.2</ele>
        <time>2025-07-22T03:59:16Z</time>
      </trkpt>
      <trkpt lat="42.92798" lon="0.34591">
        <ele>1038.4</ele>
        <time>2025-07-22T03:59:23Z</time>
      </trkpt>
      <trkpt lat="42.92797" lon="0.34596">
        <ele>1038.8</ele>
        <time>2025-07-22T03:59:25Z</time>
      </trkpt>
      <trkpt lat="42.92795" lon="0.34607">
        <ele>1039.4</ele>
        <time>2025-07-22T03:59:29Z</time>
      </trkpt>
      <trkpt lat="42.92794" lon="0.34624">
        <ele>1040.8</ele>
        <time>2025-07-22T03:59:35Z</time>
      </trkpt>
      <trkpt lat="42.92794" lon="0.34647">
        <ele>1041.8</ele>
        <time>2025-07-22T03:59:43Z</time>
      </trkpt>
      <trkpt lat="42.92793" lon="0.34658">
        <ele>1042.2</ele>
        <time>2025-07-22T03:59:47Z</time>
      </trkpt>
      <trkpt lat="42.92794" lon="0.34667">
        <ele>1042.8</ele>
        <time>2025-07-22T03:59:50Z</time>
      </trkpt>
      <trkpt lat="42.92794" lon="0.34684">
        <ele>1043.8</ele>
        <time>2025-07-22T03:59:56Z</time>
      </trkpt>
      <trkpt lat="42.92794" lon="0.34687">
        <ele>1044</ele>
        <time>2025-07-22T03:59:57Z</time>
      </trkpt>
      <trkpt lat="42.92794" lon="0.34709">
        <ele>1045</ele>
        <time>2025-07-22T04:00:05Z</time>
      </trkpt>
      <trkpt lat="42.92794" lon="0.34728">
        <ele>1046.2</ele>
        <time>2025-07-22T04:00:12Z</time>
      </trkpt>
      <trkpt lat="42.92793" lon="0.34739">
        <ele>1046.8</ele>
        <time>2025-07-22T04:00:16Z</time>
      </trkpt>
      <trkpt lat="42.92791" lon="0.34748">
        <ele>1047.2</ele>
        <time>2025-07-22T04:00:19Z</time>
      </trkpt>
      <trkpt lat="42.92784" lon="0.34765">
        <ele>1048.2</ele>
        <time>2025-07-22T04:00:26Z</time>
      </trkpt>
      <trkpt lat="42.92783" lon="0.34767">
        <ele>1048.4</ele>
        <time>2025-07-22T04:00:27Z</time>
      </trkpt>
      <trkpt lat="42.92776" lon="0.34779">
        <ele>1049.4</ele>
        <time>2025-07-22T04:00:32Z</time>
      </trkpt>
      <trkpt lat="42.92766" lon="0.34794">
        <ele>1050.4</ele>
        <time>2025-07-22T04:00:39Z</time>
      </trkpt>
      <trkpt lat="42.92765" lon="0.34796">
        <ele>1050.6</ele>
        <time>2025-07-22T04:00:40Z</time>
      </trkpt>
      <trkpt lat="42.92756" lon="0.3481">
        <ele>1051.4</ele>
        <time>2025-07-22T04:00:46Z</time>
      </trkpt>
      <trkpt lat="42.92753" lon="0.34814">
        <ele>1051.6</ele>
        <time>2025-07-22T04:00:48Z</time>
      </trkpt>
      <trkpt lat="42.92746" lon="0.34825">
        <ele>1052.6</ele>
        <time>2025-07-22T04:00:53Z</time>
      </trkpt>
      <trkpt lat="42.92739" lon="0.34836">
        <ele>1053.4</ele>
        <time>2025-07-22T04:00:58Z</time>
      </trkpt>
      <trkpt lat="42.92729" lon="0.34849">
        <ele>1054.6</ele>
        <time>2025-07-22T04:01:05Z</time>
      </trkpt>
      <trkpt lat="42.92727" lon="0.3485">
        <ele>1054.6</ele>
        <time>2025-07-22T04:01:06Z</time>
      </trkpt>
      <trkpt lat="42.92719" lon="0.34859">
        <ele>1055.4</ele>
        <time>2025-07-22T04:01:11Z</time>
      </trkpt>
      <trkpt lat="42.92709" lon="0.34871">
        <ele>1056</ele>
        <time>2025-07-22T04:01:17Z</time>
      </trkpt>
      <trkpt lat="42.92705" lon="0.34877">
        <ele>1056.6</ele>
        <time>2025-07-22T04:01:20Z</time>
      </trkpt>
      <trkpt lat="42.92696" lon="0.34886">
        <ele>1057.2</ele>
        <time>2025-07-22T04:01:25Z</time>
      </trkpt>
      <trkpt lat="42.92693" lon="0.34891">
        <ele>1057.6</ele>
        <time>2025-07-22T04:01:27Z</time>
      </trkpt>
      <trkpt lat="42.92682" lon="0.34905">
        <ele>1058.6</ele>
        <time>2025-07-22T04:01:34Z</time>
      </trkpt>
      <trkpt lat="42.9268" lon="0.34907">
        <ele>1058.8</ele>
        <time>2025-07-22T04:01:35Z</time>
      </trkpt>
      <trkpt lat="42.9267" lon="0.34925">
        <ele>1059.8</ele>
        <time>2025-07-22T04:01:43Z</time>
      </trkpt>
      <trkpt lat="42.9266" lon="0.3494">
        <ele>1061.2</ele>
        <time>2025-07-22T04:01:50Z</time>
      </trkpt>
      <trkpt lat="42.92658" lon="0.34945">
        <ele>1061.4</ele>
        <time>2025-07-22T04:01:52Z</time>
      </trkpt>
      <trkpt lat="42.92651" lon="0.34957">
        <ele>1062.4</ele>
        <time>2025-07-22T04:01:58Z</time>
      </trkpt>
      <trkpt lat="42.92646" lon="0.34966">
        <ele>1063</ele>
        <time>2025-07-22T04:02:02Z</time>
      </trkpt>
      <trkpt lat="42.92642" lon="0.34971">
        <ele>1063.4</ele>
        <time>2025-07-22T04:02:04Z</time>
      </trkpt>
      <trkpt lat="42.92635" lon="0.34985">
        <ele>1064.4</ele>
        <time>2025-07-22T04:02:10Z</time>
      </trkpt>
      <trkpt lat="42.92634" lon="0.34988">
        <ele>1064.6</ele>
        <time>2025-07-22T04:02:11Z</time>
      </trkpt>
      <trkpt lat="42.92628" lon="0.34999">
        <ele>1065.4</ele>
        <time>2025-07-22T04:02:16Z</time>
      </trkpt>
      <trkpt lat="42.92625" lon="0.35004">
        <ele>1065.8</ele>
        <time>2025-07-22T04:02:18Z</time>
      </trkpt>
      <trkpt lat="42.92618" lon="0.35018">
        <ele>1066.8</ele>
        <time>2025-07-22T04:02:24Z</time>
      </trkpt>
      <trkpt lat="42.92613" lon="0.35026">
        <ele>1067.4</ele>
        <time>2025-07-22T04:02:28Z</time>
      </trkpt>
      <trkpt lat="42.92609" lon="0.35032">
        <ele>1067.8</ele>
        <time>2025-07-22T04:02:31Z</time>
      </trkpt>
      <trkpt lat="42.92603" lon="0.35049">
        <ele>1068.8</ele>
        <time>2025-07-22T04:02:37Z</time>
      </trkpt>
      <trkpt lat="42.92602" lon="0.35051">
        <ele>1068.8</ele>
        <time>2025-07-22T04:02:38Z</time>
      </trkpt>
      <trkpt lat="42.92597" lon="0.35064">
        <ele>1070</ele>
        <time>2025-07-22T04:02:43Z</time>
      </trkpt>
      <trkpt lat="42.92594" lon="0.35072">
        <ele>1070.4</ele>
        <time>2025-07-22T04:02:46Z</time>
      </trkpt>
      <trkpt lat="42.92589" lon="0.35084">
        <ele>1071.2</ele>
        <time>2025-07-22T04:02:51Z</time>
      </trkpt>
      <trkpt lat="42.92583" lon="0.35099">
        <ele>1071.8</ele>
        <time>2025-07-22T04:02:57Z</time>
      </trkpt>
      <trkpt lat="42.92581" lon="0.35104">
        <ele>1072.2</ele>
        <time>2025-07-22T04:02:59Z</time>
      </trkpt>
      <trkpt lat="42.92575" lon="0.35119">
        <ele>1073.4</ele>
        <time>2025-07-22T04:03:05Z</time>
      </trkpt>
      <trkpt lat="42.92569" lon="0.35134">
        <ele>1074.4</ele>
        <time>2025-07-22T04:03:11Z</time>
      </trkpt>
      <trkpt lat="42.92564" lon="0.35144">
        <ele>1075</ele>
        <time>2025-07-22T04:03:15Z</time>
      </trkpt>
      <trkpt lat="42.92562" lon="0.35152">
        <ele>1075.4</ele>
        <time>2025-07-22T04:03:18Z</time>
      </trkpt>
      <trkpt lat="42.92555" lon="0.35169">
        <ele>1076.4</ele>
        <time>2025-07-22T04:03:25Z</time>
      </trkpt>
      <trkpt lat="42.92549" lon="0.35187">
        <ele>1077.6</ele>
        <time>2025-07-22T04:03:32Z</time>
      </trkpt>
      <trkpt lat="42.92547" lon="0.35194">
        <ele>1078.4</ele>
        <time>2025-07-22T04:03:35Z</time>
      </trkpt>
      <trkpt lat="42.92546" lon="0.35197">
        <ele>1078.6</ele>
        <time>2025-07-22T04:03:36Z</time>
      </trkpt>
      <trkpt lat="42.92541" lon="0.35213">
        <ele>1079.8</ele>
        <time>2025-07-22T04:03:42Z</time>
      </trkpt>
      <trkpt lat="42.92538" lon="0.35231">
        <ele>1080.6</ele>
        <time>2025-07-22T04:03:48Z</time>
      </trkpt>
      <trkpt lat="42.92537" lon="0.35237">
        <ele>1080.8</ele>
        <time>2025-07-22T04:03:50Z</time>
      </trkpt>
      <trkpt lat="42.92533" lon="0.35257">
        <ele>1081.8</ele>
        <time>2025-07-22T04:03:57Z</time>
      </trkpt>
      <trkpt lat="42.92533" lon="0.3526">
        <ele>1082</ele>
        <time>2025-07-22T04:03:58Z</time>
      </trkpt>
      <trkpt lat="42.92529" lon="0.3528">
        <ele>1083</ele>
        <time>2025-07-22T04:04:05Z</time>
      </trkpt>
      <trkpt lat="42.92526" lon="0.35293">
        <ele>1084.2</ele>
        <time>2025-07-22T04:04:10Z</time>
      </trkpt>
      <trkpt lat="42.92524" lon="0.35301">
        <ele>1084.4</ele>
        <time>2025-07-22T04:04:13Z</time>
      </trkpt>
      <trkpt lat="42.9252" lon="0.35314">
        <ele>1085.2</ele>
        <time>2025-07-22T04:04:18Z</time>
      </trkpt>
      <trkpt lat="42.92516" lon="0.3533">
        <ele>1086.2</ele>
        <time>2025-07-22T04:04:24Z</time>
      </trkpt>
      <trkpt lat="42.92515" lon="0.35333">
        <ele>1086.4</ele>
        <time>2025-07-22T04:04:25Z</time>
      </trkpt>
      <trkpt lat="42.9251" lon="0.35352">
        <ele>1087.4</ele>
        <time>2025-07-22T04:04:32Z</time>
      </trkpt>
      <trkpt lat="42.92508" lon="0.35357">
        <ele>1088</ele>
        <time>2025-07-22T04:04:34Z</time>
      </trkpt>
      <trkpt lat="42.92505" lon="0.35364">
        <ele>1088.6</ele>
        <time>2025-07-22T04:04:37Z</time>
      </trkpt>
      <trkpt lat="42.92499" lon="0.3538">
        <ele>1089.4</ele>
        <time>2025-07-22T04:04:43Z</time>
      </trkpt>
      <trkpt lat="42.92498" lon="0.35383">
        <ele>1089.8</ele>
        <time>2025-07-22T04:04:44Z</time>
      </trkpt>
      <trkpt lat="42.92495" lon="0.35404">
        <ele>1090.8</ele>
        <time>2025-07-22T04:04:51Z</time>
      </trkpt>
      <trkpt lat="42.92495" lon="0.35407">
        <ele>1090.8</ele>
        <time>2025-07-22T04:04:52Z</time>
      </trkpt>
      <trkpt lat="42.925" lon="0.35421">
        <ele>1091.6</ele>
        <time>2025-07-22T04:04:57Z</time>
      </trkpt>
      <trkpt lat="42.92505" lon="0.35424">
        <ele>1091.8</ele>
        <time>2025-07-22T04:04:59Z</time>
      </trkpt>
      <trkpt lat="42.92512" lon="0.35424">
        <ele>1092.2</ele>
        <time>2025-07-22T04:05:02Z</time>
      </trkpt>
      <trkpt lat="42.92522" lon="0.35412">
        <ele>1092.8</ele>
        <time>2025-07-22T04:05:08Z</time>
      </trkpt>
      <trkpt lat="42.92528" lon="0.35392">
        <ele>1093.8</ele>
        <time>2025-07-22T04:05:15Z</time>
      </trkpt>
      <trkpt lat="42.92528" lon="0.35389">
        <ele>1094</ele>
        <time>2025-07-22T04:05:16Z</time>
      </trkpt>
      <trkpt lat="42.92532" lon="0.35369">
        <ele>1095</ele>
        <time>2025-07-22T04:05:23Z</time>
      </trkpt>
      <trkpt lat="42.92533" lon="0.35366">
        <ele>1095</ele>
        <time>2025-07-22T04:05:24Z</time>
      </trkpt>
      <trkpt lat="42.92539" lon="0.35354">
        <ele>1095.6</ele>
        <time>2025-07-22T04:05:29Z</time>
      </trkpt>
      <trkpt lat="42.92543" lon="0.35348">
        <ele>1096.2</ele>
        <time>2025-07-22T04:05:32Z</time>
      </trkpt>
      <trkpt lat="42.9255" lon="0.35335">
        <ele>1097.2</ele>
        <time>2025-07-22T04:05:38Z</time>
      </trkpt>
      <trkpt lat="42.92552" lon="0.35333">
        <ele>1097.4</ele>
        <time>2025-07-22T04:05:39Z</time>
      </trkpt>
      <trkpt lat="42.92559" lon="0.35324">
        <ele>1098.4</ele>
        <time>2025-07-22T04:05:44Z</time>
      </trkpt>
      <trkpt lat="42.92563" lon="0.35318">
        <ele>1098.8</ele>
        <time>2025-07-22T04:05:47Z</time>
      </trkpt>
      <trkpt lat="42.92568" lon="0.35311">
        <ele>1099.4</ele>
        <time>2025-07-22T04:05:51Z</time>
      </trkpt>
      <trkpt lat="42.92574" lon="0.35303">
        <ele>1100.2</ele>
        <time>2025-07-22T04:05:55Z</time>
      </trkpt>
      <trkpt lat="42.92577" lon="0.353">
        <ele>1100.6</ele>
        <time>2025-07-22T04:05:57Z</time>
      </trkpt>
      <trkpt lat="42.92585" lon="0.35289">
        <ele>1101.6</ele>
        <time>2025-07-22T04:06:03Z</time>
      </trkpt>
      <trkpt lat="42.92592" lon="0.3528">
        <ele>1102.6</ele>
        <time>2025-07-22T04:06:08Z</time>
      </trkpt>
      <trkpt lat="42.92601" lon="0.35269">
        <ele>1103.8</ele>
        <time>2025-07-22T04:06:14Z</time>
      </trkpt>
      <trkpt lat="42.92604" lon="0.35265">
        <ele>1104.2</ele>
        <time>2025-07-22T04:06:16Z</time>
      </trkpt>
      <trkpt lat="42.9261" lon="0.35258">
        <ele>1105</ele>
        <time>2025-07-22T04:06:20Z</time>
      </trkpt>
      <trkpt lat="42.92615" lon="0.3525">
        <ele>1105.6</ele>
        <time>2025-07-22T04:06:24Z</time>
      </trkpt>
      <trkpt lat="42.92617" lon="0.35247">
        <ele>1106</ele>
        <time>2025-07-22T04:06:26Z</time>
      </trkpt>
      <trkpt lat="42.92625" lon="0.35236">
        <ele>1107</ele>
        <time>2025-07-22T04:06:32Z</time>
      </trkpt>
      <trkpt lat="42.92629" lon="0.3523">
        <ele>1107.4</ele>
        <time>2025-07-22T04:06:35Z</time>
      </trkpt>
      <trkpt lat="42.92634" lon="0.35223">
        <ele>1108.2</ele>
        <time>2025-07-22T04:06:39Z</time>
      </trkpt>
      <trkpt lat="42.92641" lon="0.35211">
        <ele>1109.2</ele>
        <time>2025-07-22T04:06:45Z</time>
      </trkpt>
      <trkpt lat="42.92649" lon="0.35199">
        <ele>1110.2</ele>
        <time>2025-07-22T04:06:52Z</time>
      </trkpt>
      <trkpt lat="42.92651" lon="0.35197">
        <ele>1110.6</ele>
        <time>2025-07-22T04:06:53Z</time>
      </trkpt>
      <trkpt lat="42.92655" lon="0.3519">
        <ele>1111.2</ele>
        <time>2025-07-22T04:06:57Z</time>
      </trkpt>
      <trkpt lat="42.92662" lon="0.35178">
        <ele>1112.4</ele>
        <time>2025-07-22T04:07:03Z</time>
      </trkpt>
      <trkpt lat="42.92669" lon="0.35167">
        <ele>1113.4</ele>
        <time>2025-07-22T04:07:09Z</time>
      </trkpt>
      <trkpt lat="42.92672" lon="0.35164">
        <ele>1113.8</ele>
        <time>2025-07-22T04:07:11Z</time>
      </trkpt>
      <trkpt lat="42.92676" lon="0.35157">
        <ele>1114.4</ele>
        <time>2025-07-22T04:07:15Z</time>
      </trkpt>
      <trkpt lat="42.92682" lon="0.3515">
        <ele>1115.2</ele>
        <time>2025-07-22T04:07:19Z</time>
      </trkpt>
      <trkpt lat="42.92684" lon="0.35147">
        <ele>1115.6</ele>
        <time>2025-07-22T04:07:21Z</time>
      </trkpt>
      <trkpt lat="42.92691" lon="0.35139">
        <ele>1116.4</ele>
        <time>2025-07-22T04:07:26Z</time>
      </trkpt>
      <trkpt lat="42.92694" lon="0.35137">
        <ele>1116.8</ele>
        <time>2025-07-22T04:07:28Z</time>
      </trkpt>
      <trkpt lat="42.92706" lon="0.35132">
        <ele>1118.2</ele>
        <time>2025-07-22T04:07:35Z</time>
      </trkpt>
      <trkpt lat="42.92718" lon="0.35131">
        <ele>1119.2</ele>
        <time>2025-07-22T04:07:42Z</time>
      </trkpt>
      <trkpt lat="42.92728" lon="0.35131">
        <ele>1120.2</ele>
        <time>2025-07-22T04:07:48Z</time>
      </trkpt>
      <trkpt lat="42.92734" lon="0.35131">
        <ele>1120.8</ele>
        <time>2025-07-22T04:07:51Z</time>
      </trkpt>
      <trkpt lat="42.92742" lon="0.35131">
        <ele>1121.4</ele>
        <time>2025-07-22T04:07:55Z</time>
      </trkpt>
      <trkpt lat="42.9275" lon="0.3513">
        <ele>1122.2</ele>
        <time>2025-07-22T04:07:59Z</time>
      </trkpt>
      <trkpt lat="42.92752" lon="0.3513">
        <ele>1122.4</ele>
        <time>2025-07-22T04:08:00Z</time>
      </trkpt>
      <trkpt lat="42.92765" lon="0.35128">
        <ele>1123.6</ele>
        <time>2025-07-22T04:08:07Z</time>
      </trkpt>
      <trkpt lat="42.92775" lon="0.35125">
        <ele>1124.8</ele>
        <time>2025-07-22T04:08:13Z</time>
      </trkpt>
      <trkpt lat="42.92784" lon="0.35122">
        <ele>1125.6</ele>
        <time>2025-07-22T04:08:18Z</time>
      </trkpt>
      <trkpt lat="42.92787" lon="0.3512">
        <ele>1125.8</ele>
        <time>2025-07-22T04:08:20Z</time>
      </trkpt>
      <trkpt lat="42.92798" lon="0.35117">
        <ele>1126.8</ele>
        <time>2025-07-22T04:08:26Z</time>
      </trkpt>
      <trkpt lat="42.92801" lon="0.35115">
        <ele>1127.4</ele>
        <time>2025-07-22T04:08:28Z</time>
      </trkpt>
      <trkpt lat="42.92808" lon="0.35111">
        <ele>1128</ele>
        <time>2025-07-22T04:08:32Z</time>
      </trkpt>
      <trkpt lat="42.92818" lon="0.35106">
        <ele>1129.2</ele>
        <time>2025-07-22T04:08:38Z</time>
      </trkpt>
      <trkpt lat="42.9283" lon="0.35099">
        <ele>1130.2</ele>
        <time>2025-07-22T04:08:45Z</time>
      </trkpt>
      <trkpt lat="42.92833" lon="0.35097">
        <ele>1130.6</ele>
        <time>2025-07-22T04:08:47Z</time>
      </trkpt>
      <trkpt lat="42.92836" lon="0.35095">
        <ele>1131</ele>
        <time>2025-07-22T04:08:49Z</time>
      </trkpt>
      <trkpt lat="42.92839" lon="0.35093">
        <ele>1131.4</ele>
        <time>2025-07-22T04:08:51Z</time>
      </trkpt>
      <trkpt lat="42.92843" lon="0.35091">
        <ele>1131.6</ele>
        <time>2025-07-22T04:08:53Z</time>
      </trkpt>
      <trkpt lat="42.9285" lon="0.35085">
        <ele>1132.4</ele>
        <time>2025-07-22T04:08:58Z</time>
      </trkpt>
      <trkpt lat="42.92855" lon="0.35082">
        <ele>1133</ele>
        <time>2025-07-22T04:09:01Z</time>
      </trkpt>
      <trkpt lat="42.92858" lon="0.35079">
        <ele>1133.4</ele>
        <time>2025-07-22T04:09:03Z</time>
      </trkpt>
      <trkpt lat="42.92865" lon="0.35073">
        <ele>1134.6</ele>
        <time>2025-07-22T04:09:08Z</time>
      </trkpt>
      <trkpt lat="42.9287" lon="0.3507">
        <ele>1135</ele>
        <time>2025-07-22T04:09:11Z</time>
      </trkpt>
      <trkpt lat="42.92875" lon="0.35066">
        <ele>1135.6</ele>
        <time>2025-07-22T04:09:14Z</time>
      </trkpt>
      <trkpt lat="42.92886" lon="0.35057">
        <ele>1136.6</ele>
        <time>2025-07-22T04:09:21Z</time>
      </trkpt>
      <trkpt lat="42.92888" lon="0.35056">
        <ele>1136.8</ele>
        <time>2025-07-22T04:09:22Z</time>
      </trkpt>
      <trkpt lat="42.92897" lon="0.35048">
        <ele>1137.8</ele>
        <time>2025-07-22T04:09:28Z</time>
      </trkpt>
      <trkpt lat="42.92898" lon="0.35047">
        <ele>1138</ele>
        <time>2025-07-22T04:09:29Z</time>
      </trkpt>
      <trkpt lat="42.92905" lon="0.35041">
        <ele>1139</ele>
        <time>2025-07-22T04:09:34Z</time>
      </trkpt>
      <trkpt lat="42.92912" lon="0.35034">
        <ele>1140</ele>
        <time>2025-07-22T04:09:39Z</time>
      </trkpt>
      <trkpt lat="42.92922" lon="0.35024">
        <ele>1140.8</ele>
        <time>2025-07-22T04:09:46Z</time>
      </trkpt>
      <trkpt lat="42.92925" lon="0.35021">
        <ele>1141.2</ele>
        <time>2025-07-22T04:09:48Z</time>
      </trkpt>
      <trkpt lat="42.92929" lon="0.35017">
        <ele>1142</ele>
        <time>2025-07-22T04:09:51Z</time>
      </trkpt>
      <trkpt lat="42.92938" lon="0.35007">
        <ele>1142.8</ele>
        <time>2025-07-22T04:09:57Z</time>
      </trkpt>
      <trkpt lat="42.9294" lon="0.35006">
        <ele>1143</ele>
        <time>2025-07-22T04:09:58Z</time>
      </trkpt>
      <trkpt lat="42.9295" lon="0.34996">
        <ele>1144.2</ele>
        <time>2025-07-22T04:10:05Z</time>
      </trkpt>
      <trkpt lat="42.92951" lon="0.34994">
        <ele>1144.2</ele>
        <time>2025-07-22T04:10:06Z</time>
      </trkpt>
      <trkpt lat="42.9296" lon="0.34987">
        <ele>1145.2</ele>
        <time>2025-07-22T04:10:12Z</time>
      </trkpt>
      <trkpt lat="42.92961" lon="0.34986">
        <ele>1145.4</ele>
        <time>2025-07-22T04:10:13Z</time>
      </trkpt>
      <trkpt lat="42.92969" lon="0.34977">
        <ele>1146.4</ele>
        <time>2025-07-22T04:10:19Z</time>
      </trkpt>
      <trkpt lat="42.92971" lon="0.34976">
        <ele>1146.8</ele>
        <time>2025-07-22T04:10:20Z</time>
      </trkpt>
      <trkpt lat="42.92978" lon="0.3497">
        <ele>1147.4</ele>
        <time>2025-07-22T04:10:25Z</time>
      </trkpt>
      <trkpt lat="42.92982" lon="0.34966">
        <ele>1147.8</ele>
        <time>2025-07-22T04:10:28Z</time>
      </trkpt>
      <trkpt lat="42.9299" lon="0.3496">
        <ele>1148.6</ele>
        <time>2025-07-22T04:10:33Z</time>
      </trkpt>
      <trkpt lat="42.92996" lon="0.34953">
        <ele>1149.6</ele>
        <time>2025-07-22T04:10:38Z</time>
      </trkpt>
      <trkpt lat="42.92998" lon="0.34952">
        <ele>1150</ele>
        <time>2025-07-22T04:10:39Z</time>
      </trkpt>
      <trkpt lat="42.93005" lon="0.34946">
        <ele>1150.6</ele>
        <time>2025-07-22T04:10:44Z</time>
      </trkpt>
      <trkpt lat="42.93011" lon="0.34941">
        <ele>1151</ele>
        <time>2025-07-22T04:10:48Z</time>
      </trkpt>
      <trkpt lat="42.93018" lon="0.34935">
        <ele>1151.8</ele>
        <time>2025-07-22T04:10:53Z</time>
      </trkpt>
      <trkpt lat="42.93023" lon="0.3493">
        <ele>1152.6</ele>
        <time>2025-07-22T04:10:56Z</time>
      </trkpt>
      <trkpt lat="42.93026" lon="0.34927">
        <ele>1152.8</ele>
        <time>2025-07-22T04:10:58Z</time>
      </trkpt>
      <trkpt lat="42.93034" lon="0.34918">
        <ele>1154</ele>
        <time>2025-07-22T04:11:04Z</time>
      </trkpt>
      <trkpt lat="42.93042" lon="0.34911">
        <ele>1155.4</ele>
        <time>2025-07-22T04:11:09Z</time>
      </trkpt>
      <trkpt lat="42.93046" lon="0.34906">
        <ele>1155.8</ele>
        <time>2025-07-22T04:11:12Z</time>
      </trkpt>
      <trkpt lat="42.93053" lon="0.34899">
        <ele>1156.4</ele>
        <time>2025-07-22T04:11:17Z</time>
      </trkpt>
      <trkpt lat="42.93059" lon="0.34891">
        <ele>1157.2</ele>
        <time>2025-07-22T04:11:22Z</time>
      </trkpt>
      <trkpt lat="42.93062" lon="0.34888">
        <ele>1157.8</ele>
        <time>2025-07-22T04:11:24Z</time>
      </trkpt>
      <trkpt lat="42.93069" lon="0.34881">
        <ele>1158.4</ele>
        <time>2025-07-22T04:11:29Z</time>
      </trkpt>
      <trkpt lat="42.93071" lon="0.34878">
        <ele>1158.8</ele>
        <time>2025-07-22T04:11:31Z</time>
      </trkpt>
      <trkpt lat="42.9308" lon="0.3487">
        <ele>1159.6</ele>
        <time>2025-07-22T04:11:37Z</time>
      </trkpt>
      <trkpt lat="42.93082" lon="0.34868">
        <ele>1160</ele>
        <time>2025-07-22T04:11:38Z</time>
      </trkpt>
      <trkpt lat="42.93087" lon="0.34861">
        <ele>1160.8</ele>
        <time>2025-07-22T04:11:43Z</time>
      </trkpt>
      <trkpt lat="42.93091" lon="0.34859">
        <ele>1161.2</ele>
        <time>2025-07-22T04:11:45Z</time>
      </trkpt>
      <trkpt lat="42.93099" lon="0.34851">
        <ele>1162.4</ele>
        <time>2025-07-22T04:11:51Z</time>
      </trkpt>
      <trkpt lat="42.931" lon="0.3485">
        <ele>1162.6</ele>
        <time>2025-07-22T04:11:52Z</time>
      </trkpt>
      <trkpt lat="42.93111" lon="0.34838">
        <ele>1163.6</ele>
        <time>2025-07-22T04:12:00Z</time>
      </trkpt>
      <trkpt lat="42.93112" lon="0.34837">
        <ele>1163.8</ele>
        <time>2025-07-22T04:12:01Z</time>
      </trkpt>
      <trkpt lat="42.93114" lon="0.34835">
        <ele>1164</ele>
        <time>2025-07-22T04:12:02Z</time>
      </trkpt>
      <trkpt lat="42.93118" lon="0.34832">
        <ele>1164.8</ele>
        <time>2025-07-22T04:12:05Z</time>
      </trkpt>
      <trkpt lat="42.9312" lon="0.34831">
        <ele>1164.8</ele>
        <time>2025-07-22T04:12:06Z</time>
      </trkpt>
      <trkpt lat="42.93122" lon="0.34827">
        <ele>1165.2</ele>
        <time>2025-07-22T04:12:08Z</time>
      </trkpt>
      <trkpt lat="42.93126" lon="0.34822">
        <ele>1165.6</ele>
        <time>2025-07-22T04:12:11Z</time>
      </trkpt>
      <trkpt lat="42.93128" lon="0.3482">
        <ele>1165.8</ele>
        <time>2025-07-22T04:12:12Z</time>
      </trkpt>
      <trkpt lat="42.93133" lon="0.34813">
        <ele>1166.6</ele>
        <time>2025-07-22T04:12:16Z</time>
      </trkpt>
      <trkpt lat="42.93134" lon="0.34812">
        <ele>1167</ele>
        <time>2025-07-22T04:12:17Z</time>
      </trkpt>
      <trkpt lat="42.93135" lon="0.3481">
        <ele>1167.2</ele>
        <time>2025-07-22T04:12:18Z</time>
      </trkpt>
      <trkpt lat="42.93141" lon="0.34804">
        <ele>1167.8</ele>
        <time>2025-07-22T04:12:22Z</time>
      </trkpt>
      <trkpt lat="42.93142" lon="0.34803">
        <ele>1168</ele>
        <time>2025-07-22T04:12:23Z</time>
      </trkpt>
      <trkpt lat="42.93152" lon="0.3479">
        <ele>1169.2</ele>
        <time>2025-07-22T04:12:30Z</time>
      </trkpt>
      <trkpt lat="42.93159" lon="0.34782">
        <ele>1170</ele>
        <time>2025-07-22T04:12:35Z</time>
      </trkpt>
      <trkpt lat="42.9316" lon="0.34781">
        <ele>1170</ele>
        <time>2025-07-22T04:12:36Z</time>
      </trkpt>
      <trkpt lat="42.93169" lon="0.34772">
        <ele>1171.2</ele>
        <time>2025-07-22T04:12:42Z</time>
      </trkpt>
      <trkpt lat="42.9317" lon="0.3477">
        <ele>1171.2</ele>
        <time>2025-07-22T04:12:43Z</time>
      </trkpt>
      <trkpt lat="42.93179" lon="0.34761">
        <ele>1172.4</ele>
        <time>2025-07-22T04:12:49Z</time>
      </trkpt>
      <trkpt lat="42.93185" lon="0.34757">
        <ele>1172.8</ele>
        <time>2025-07-22T04:12:53Z</time>
      </trkpt>
      <trkpt lat="42.9319" lon="0.34754">
        <ele>1173.6</ele>
        <time>2025-07-22T04:12:56Z</time>
      </trkpt>
      <trkpt lat="42.93198" lon="0.34748">
        <ele>1174.4</ele>
        <time>2025-07-22T04:13:02Z</time>
      </trkpt>
      <trkpt lat="42.932" lon="0.34746">
        <ele>1174.6</ele>
        <time>2025-07-22T04:13:03Z</time>
      </trkpt>
      <trkpt lat="42.9321" lon="0.34739">
        <ele>1175.6</ele>
        <time>2025-07-22T04:13:09Z</time>
      </trkpt>
      <trkpt lat="42.93211" lon="0.34737">
        <ele>1175.8</ele>
        <time>2025-07-22T04:13:10Z</time>
      </trkpt>
      <trkpt lat="42.93224" lon="0.34726">
        <ele>1176.8</ele>
        <time>2025-07-22T04:13:18Z</time>
      </trkpt>
      <trkpt lat="42.93232" lon="0.34722">
        <ele>1177.8</ele>
        <time>2025-07-22T04:13:23Z</time>
      </trkpt>
      <trkpt lat="42.93236" lon="0.3472">
        <ele>1178</ele>
        <time>2025-07-22T04:13:25Z</time>
      </trkpt>
      <trkpt lat="42.93241" lon="0.34719">
        <ele>1178.8</ele>
        <time>2025-07-22T04:13:28Z</time>
      </trkpt>
      <trkpt lat="42.93254" lon="0.34713">
        <ele>1180</ele>
        <time>2025-07-22T04:13:35Z</time>
      </trkpt>
      <trkpt lat="42.93256" lon="0.34712">
        <ele>1180</ele>
        <time>2025-07-22T04:13:36Z</time>
      </trkpt>
      <trkpt lat="42.93266" lon="0.34708">
        <ele>1180.8</ele>
        <time>2025-07-22T04:13:42Z</time>
      </trkpt>
      <trkpt lat="42.93268" lon="0.34707">
        <ele>1181</ele>
        <time>2025-07-22T04:13:43Z</time>
      </trkpt>
      <trkpt lat="42.93277" lon="0.34702">
        <ele>1182.2</ele>
        <time>2025-07-22T04:13:48Z</time>
      </trkpt>
      <trkpt lat="42.9328" lon="0.347">
        <ele>1182.2</ele>
        <time>2025-07-22T04:13:50Z</time>
      </trkpt>
      <trkpt lat="42.93289" lon="0.34696">
        <ele>1183.2</ele>
        <time>2025-07-22T04:13:55Z</time>
      </trkpt>
      <trkpt lat="42.93294" lon="0.34693">
        <ele>1183.8</ele>
        <time>2025-07-22T04:13:58Z</time>
      </trkpt>
      <trkpt lat="42.93297" lon="0.34691">
        <ele>1184.2</ele>
        <time>2025-07-22T04:14:00Z</time>
      </trkpt>
      <trkpt lat="42.93307" lon="0.34685">
        <ele>1185.2</ele>
        <time>2025-07-22T04:14:06Z</time>
      </trkpt>
      <trkpt lat="42.93317" lon="0.34679">
        <ele>1186</ele>
        <time>2025-07-22T04:14:12Z</time>
      </trkpt>
      <trkpt lat="42.9332" lon="0.34677">
        <ele>1186.4</ele>
        <time>2025-07-22T04:14:14Z</time>
      </trkpt>
      <trkpt lat="42.93328" lon="0.34672">
        <ele>1187.4</ele>
        <time>2025-07-22T04:14:19Z</time>
      </trkpt>
      <trkpt lat="42.93339" lon="0.34667">
        <ele>1188.4</ele>
        <time>2025-07-22T04:14:25Z</time>
      </trkpt>
      <trkpt lat="42.93343" lon="0.34665">
        <ele>1188.6</ele>
        <time>2025-07-22T04:14:27Z</time>
      </trkpt>
      <trkpt lat="42.93352" lon="0.34661">
        <ele>1189.8</ele>
        <time>2025-07-22T04:14:32Z</time>
      </trkpt>
      <trkpt lat="42.93357" lon="0.34658">
        <ele>1190.4</ele>
        <time>2025-07-22T04:14:35Z</time>
      </trkpt>
      <trkpt lat="42.9336" lon="0.34656">
        <ele>1190.8</ele>
        <time>2025-07-22T04:14:37Z</time>
      </trkpt>
      <trkpt lat="42.9337" lon="0.34652">
        <ele>1192</ele>
        <time>2025-07-22T04:14:43Z</time>
      </trkpt>
      <trkpt lat="42.93372" lon="0.34651">
        <ele>1192.2</ele>
        <time>2025-07-22T04:14:44Z</time>
      </trkpt>
      <trkpt lat="42.93381" lon="0.34648">
        <ele>1193</ele>
        <time>2025-07-22T04:14:49Z</time>
      </trkpt>
      <trkpt lat="42.93385" lon="0.34644">
        <ele>1193.4</ele>
        <time>2025-07-22T04:14:52Z</time>
      </trkpt>
      <trkpt lat="42.93393" lon="0.34641">
        <ele>1194.2</ele>
        <time>2025-07-22T04:14:56Z</time>
      </trkpt>
      <trkpt lat="42.93399" lon="0.34638">
        <ele>1194.6</ele>
        <time>2025-07-22T04:14:59Z</time>
      </trkpt>
      <trkpt lat="42.93404" lon="0.34637">
        <ele>1195.2</ele>
        <time>2025-07-22T04:15:02Z</time>
      </trkpt>
      <trkpt lat="42.93411" lon="0.34634">
        <ele>1195.6</ele>
        <time>2025-07-22T04:15:06Z</time>
      </trkpt>
      <trkpt lat="42.93418" lon="0.34631">
        <ele>1196.2</ele>
        <time>2025-07-22T04:15:10Z</time>
      </trkpt>
      <trkpt lat="42.93425" lon="0.34627">
        <ele>1197</ele>
        <time>2025-07-22T04:15:14Z</time>
      </trkpt>
      <trkpt lat="42.93428" lon="0.34626">
        <ele>1197.4</ele>
        <time>2025-07-22T04:15:16Z</time>
      </trkpt>
      <trkpt lat="42.93438" lon="0.34618">
        <ele>1198.8</ele>
        <time>2025-07-22T04:15:22Z</time>
      </trkpt>
      <trkpt lat="42.93443" lon="0.34615">
        <ele>1199.2</ele>
        <time>2025-07-22T04:15:25Z</time>
      </trkpt>
      <trkpt lat="42.9345" lon="0.34612">
        <ele>1199.8</ele>
        <time>2025-07-22T04:15:29Z</time>
      </trkpt>
      <trkpt lat="42.93455" lon="0.34608">
        <ele>1200.4</ele>
        <time>2025-07-22T04:15:32Z</time>
      </trkpt>
      <trkpt lat="42.9346" lon="0.34605">
        <ele>1200.8</ele>
        <time>2025-07-22T04:15:35Z</time>
      </trkpt>
      <trkpt lat="42.93467" lon="0.346">
        <ele>1201.6</ele>
        <time>2025-07-22T04:15:39Z</time>
      </trkpt>
      <trkpt lat="42.93471" lon="0.34599">
        <ele>1202</ele>
        <time>2025-07-22T04:15:41Z</time>
      </trkpt>
      <trkpt lat="42.93481" lon="0.34592">
        <ele>1203</ele>
        <time>2025-07-22T04:15:47Z</time>
      </trkpt>
      <trkpt lat="42.93492" lon="0.34585">
        <ele>1204</ele>
        <time>2025-07-22T04:15:53Z</time>
      </trkpt>
      <trkpt lat="42.93497" lon="0.34582">
        <ele>1204.6</ele>
        <time>2025-07-22T04:15:56Z</time>
      </trkpt>
      <trkpt lat="42.93504" lon="0.34577">
        <ele>1205.2</ele>
        <time>2025-07-22T04:16:00Z</time>
      </trkpt>
      <trkpt lat="42.93515" lon="0.34569">
        <ele>1206.2</ele>
        <time>2025-07-22T04:16:06Z</time>
      </trkpt>
      <trkpt lat="42.93527" lon="0.34559">
        <ele>1207.4</ele>
        <time>2025-07-22T04:16:13Z</time>
      </trkpt>
      <trkpt lat="42.9353" lon="0.34556">
        <ele>1207.6</ele>
        <time>2025-07-22T04:16:15Z</time>
      </trkpt>
      <trkpt lat="42.93538" lon="0.34549">
        <ele>1208.4</ele>
        <time>2025-07-22T04:16:20Z</time>
      </trkpt>
      <trkpt lat="42.93546" lon="0.34542">
        <ele>1209.2</ele>
        <time>2025-07-22T04:16:25Z</time>
      </trkpt>
      <trkpt lat="42.93549" lon="0.34539">
        <ele>1209.6</ele>
        <time>2025-07-22T04:16:27Z</time>
      </trkpt>
      <trkpt lat="42.93557" lon="0.34533">
        <ele>1210.4</ele>
        <time>2025-07-22T04:16:32Z</time>
      </trkpt>
      <trkpt lat="42.93559" lon="0.34531">
        <ele>1210.6</ele>
        <time>2025-07-22T04:16:33Z</time>
      </trkpt>
      <trkpt lat="42.93571" lon="0.3452">
        <ele>1211.8</ele>
        <time>2025-07-22T04:16:40Z</time>
      </trkpt>
      <trkpt lat="42.93581" lon="0.34512">
        <ele>1212.8</ele>
        <time>2025-07-22T04:16:46Z</time>
      </trkpt>
      <trkpt lat="42.93585" lon="0.34509">
        <ele>1213.2</ele>
        <time>2025-07-22T04:16:48Z</time>
      </trkpt>
      <trkpt lat="42.93591" lon="0.34503">
        <ele>1214</ele>
        <time>2025-07-22T04:16:52Z</time>
      </trkpt>
      <trkpt lat="42.93599" lon="0.34496">
        <ele>1214.6</ele>
        <time>2025-07-22T04:16:57Z</time>
      </trkpt>
      <trkpt lat="42.93602" lon="0.34494">
        <ele>1215</ele>
        <time>2025-07-22T04:16:59Z</time>
      </trkpt>
      <trkpt lat="42.9361" lon="0.34487">
        <ele>1216</ele>
        <time>2025-07-22T04:17:04Z</time>
      </trkpt>
      <trkpt lat="42.93613" lon="0.34484">
        <ele>1216.4</ele>
        <time>2025-07-22T04:17:06Z</time>
      </trkpt>
      <trkpt lat="42.93621" lon="0.34476">
        <ele>1217.2</ele>
        <time>2025-07-22T04:17:11Z</time>
      </trkpt>
      <trkpt lat="42.93626" lon="0.34471">
        <ele>1217.8</ele>
        <time>2025-07-22T04:17:14Z</time>
      </trkpt>
      <trkpt lat="42.93634" lon="0.34462">
        <ele>1218.4</ele>
        <time>2025-07-22T04:17:19Z</time>
      </trkpt>
      <trkpt lat="42.93638" lon="0.34456">
        <ele>1218.8</ele>
        <time>2025-07-22T04:17:22Z</time>
      </trkpt>
      <trkpt lat="42.93642" lon="0.34451">
        <ele>1219.4</ele>
        <time>2025-07-22T04:17:25Z</time>
      </trkpt>
      <trkpt lat="42.9365" lon="0.34441">
        <ele>1220.6</ele>
        <time>2025-07-22T04:17:31Z</time>
      </trkpt>
      <trkpt lat="42.93651" lon="0.34439">
        <ele>1220.8</ele>
        <time>2025-07-22T04:17:32Z</time>
      </trkpt>
      <trkpt lat="42.9366" lon="0.34429">
        <ele>1221.6</ele>
        <time>2025-07-22T04:17:38Z</time>
      </trkpt>
      <trkpt lat="42.93665" lon="0.34424">
        <ele>1222.2</ele>
        <time>2025-07-22T04:17:41Z</time>
      </trkpt>
      <trkpt lat="42.93668" lon="0.34419">
        <ele>1222.8</ele>
        <time>2025-07-22T04:17:44Z</time>
      </trkpt>
      <trkpt lat="42.9368" lon="0.34406">
        <ele>1223.8</ele>
        <time>2025-07-22T04:17:51Z</time>
      </trkpt>
      <trkpt lat="42.93683" lon="0.34403">
        <ele>1224.2</ele>
        <time>2025-07-22T04:17:53Z</time>
      </trkpt>
      <trkpt lat="42.9369" lon="0.34395">
        <ele>1225.2</ele>
        <time>2025-07-22T04:17:58Z</time>
      </trkpt>
      <trkpt lat="42.93695" lon="0.3439">
        <ele>1225.6</ele>
        <time>2025-07-22T04:18:01Z</time>
      </trkpt>
      <trkpt lat="42.93698" lon="0.34386">
        <ele>1226.2</ele>
        <time>2025-07-22T04:18:03Z</time>
      </trkpt>
      <trkpt lat="42.93707" lon="0.34376">
        <ele>1227.2</ele>
        <time>2025-07-22T04:18:09Z</time>
      </trkpt>
      <trkpt lat="42.93709" lon="0.34374">
        <ele>1227.4</ele>
        <time>2025-07-22T04:18:10Z</time>
      </trkpt>
      <trkpt lat="42.93714" lon="0.34367">
        <ele>1228.2</ele>
        <time>2025-07-22T04:18:14Z</time>
      </trkpt>
      <trkpt lat="42.9372" lon="0.3436">
        <ele>1228.8</ele>
        <time>2025-07-22T04:18:18Z</time>
      </trkpt>
      <trkpt lat="42.93724" lon="0.34355">
        <ele>1229.6</ele>
        <time>2025-07-22T04:18:21Z</time>
      </trkpt>
      <trkpt lat="42.93733" lon="0.34346">
        <ele>1230.4</ele>
        <time>2025-07-22T04:18:27Z</time>
      </trkpt>
      <trkpt lat="42.93734" lon="0.34344">
        <ele>1230.6</ele>
        <time>2025-07-22T04:18:28Z</time>
      </trkpt>
      <trkpt lat="42.93743" lon="0.34335">
        <ele>1231.8</ele>
        <time>2025-07-22T04:18:34Z</time>
      </trkpt>
      <trkpt lat="42.93748" lon="0.34331">
        <ele>1232.4</ele>
        <time>2025-07-22T04:18:37Z</time>
      </trkpt>
      <trkpt lat="42.9375" lon="0.3433">
        <ele>1232.8</ele>
        <time>2025-07-22T04:18:38Z</time>
      </trkpt>
      <trkpt lat="42.93761" lon="0.34319">
        <ele>1234</ele>
        <time>2025-07-22T04:18:45Z</time>
      </trkpt>
      <trkpt lat="42.93767" lon="0.34315">
        <ele>1234.4</ele>
        <time>2025-07-22T04:18:48Z</time>
      </trkpt>
      <trkpt lat="42.93773" lon="0.34309">
        <ele>1235</ele>
        <time>2025-07-22T04:18:52Z</time>
      </trkpt>
      <trkpt lat="42.93782" lon="0.34302">
        <ele>1235.8</ele>
        <time>2025-07-22T04:18:57Z</time>
      </trkpt>
      <trkpt lat="42.93787" lon="0.34299">
        <ele>1236.2</ele>
        <time>2025-07-22T04:19:00Z</time>
      </trkpt>
      <trkpt lat="42.93799" lon="0.34287">
        <ele>1237.4</ele>
        <time>2025-07-22T04:19:07Z</time>
      </trkpt>
      <trkpt lat="42.93801" lon="0.34286">
        <ele>1237.6</ele>
        <time>2025-07-22T04:19:08Z</time>
      </trkpt>
      <trkpt lat="42.9381" lon="0.34277">
        <ele>1238.4</ele>
        <time>2025-07-22T04:19:14Z</time>
      </trkpt>
      <trkpt lat="42.93817" lon="0.3427">
        <ele>1239.2</ele>
        <time>2025-07-22T04:19:18Z</time>
      </trkpt>
      <trkpt lat="42.93819" lon="0.34268">
        <ele>1239.6</ele>
        <time>2025-07-22T04:19:19Z</time>
      </trkpt>
      <trkpt lat="42.93829" lon="0.34255">
        <ele>1240.6</ele>
        <time>2025-07-22T04:19:26Z</time>
      </trkpt>
      <trkpt lat="42.9383" lon="0.34253">
        <ele>1240.8</ele>
        <time>2025-07-22T04:19:27Z</time>
      </trkpt>
      <trkpt lat="42.93837" lon="0.34242">
        <ele>1241.8</ele>
        <time>2025-07-22T04:19:32Z</time>
      </trkpt>
      <trkpt lat="42.93846" lon="0.34228">
        <ele>1242.4</ele>
        <time>2025-07-22T04:19:38Z</time>
      </trkpt>
      <trkpt lat="42.9385" lon="0.3422">
        <ele>1243</ele>
        <time>2025-07-22T04:19:41Z</time>
      </trkpt>
      <trkpt lat="42.93858" lon="0.34205">
        <ele>1243.8</ele>
        <time>2025-07-22T04:19:47Z</time>
      </trkpt>
      <trkpt lat="42.93861" lon="0.34196">
        <ele>1244</ele>
        <time>2025-07-22T04:19:50Z</time>
      </trkpt>
      <trkpt lat="42.93862" lon="0.34182">
        <ele>1244.4</ele>
        <time>2025-07-22T04:19:54Z</time>
      </trkpt>
      <trkpt lat="42.93858" lon="0.34168">
        <ele>1245</ele>
        <time>2025-07-22T04:19:58Z</time>
      </trkpt>
      <trkpt lat="42.93856" lon="0.34163">
        <ele>1245.2</ele>
        <time>2025-07-22T04:20:00Z</time>
      </trkpt>
      <trkpt lat="42.93848" lon="0.34146">
        <ele>1246</ele>
        <time>2025-07-22T04:20:06Z</time>
      </trkpt>
      <trkpt lat="42.93845" lon="0.34134">
        <ele>1246.8</ele>
        <time>2025-07-22T04:20:10Z</time>
      </trkpt>
      <trkpt lat="42.93841" lon="0.34122">
        <ele>1247.2</ele>
        <time>2025-07-22T04:20:14Z</time>
      </trkpt>
      <trkpt lat="42.93837" lon="0.34114">
        <ele>1247.6</ele>
        <time>2025-07-22T04:20:17Z</time>
      </trkpt>
      <trkpt lat="42.9383" lon="0.34107">
        <ele>1248.4</ele>
        <time>2025-07-22T04:20:21Z</time>
      </trkpt>
      <trkpt lat="42.93825" lon="0.34104">
        <ele>1248.6</ele>
        <time>2025-07-22T04:20:23Z</time>
      </trkpt>
      <trkpt lat="42.93814" lon="0.341">
        <ele>1249.4</ele>
        <time>2025-07-22T04:20:28Z</time>
      </trkpt>
      <trkpt lat="42.93806" lon="0.34095">
        <ele>1250</ele>
        <time>2025-07-22T04:20:32Z</time>
      </trkpt>
      <trkpt lat="42.93801" lon="0.3409">
        <ele>1250.6</ele>
        <time>2025-07-22T04:20:35Z</time>
      </trkpt>
      <trkpt lat="42.93797" lon="0.34081">
        <ele>1251.2</ele>
        <time>2025-07-22T04:20:39Z</time>
      </trkpt>
      <trkpt lat="42.93796" lon="0.34077">
        <ele>1251.6</ele>
        <time>2025-07-22T04:20:41Z</time>
      </trkpt>
      <trkpt lat="42.93794" lon="0.34066">
        <ele>1252.4</ele>
        <time>2025-07-22T04:20:45Z</time>
      </trkpt>
      <trkpt lat="42.93794" lon="0.34064">
        <ele>1252.6</ele>
        <time>2025-07-22T04:20:46Z</time>
      </trkpt>
      <trkpt lat="42.93797" lon="0.34045">
        <ele>1253.6</ele>
        <time>2025-07-22T04:20:53Z</time>
      </trkpt>
      <trkpt lat="42.93798" lon="0.34043">
        <ele>1253.8</ele>
        <time>2025-07-22T04:20:54Z</time>
      </trkpt>
      <trkpt lat="42.938" lon="0.34033">
        <ele>1254.8</ele>
        <time>2025-07-22T04:20:58Z</time>
      </trkpt>
      <trkpt lat="42.93805" lon="0.34016">
        <ele>1255.6</ele>
        <time>2025-07-22T04:21:05Z</time>
      </trkpt>
      <trkpt lat="42.93806" lon="0.34014">
        <ele>1255.8</ele>
        <time>2025-07-22T04:21:06Z</time>
      </trkpt>
      <trkpt lat="42.93813" lon="0.34001">
        <ele>1257</ele>
        <time>2025-07-22T04:21:12Z</time>
      </trkpt>
      <trkpt lat="42.93815" lon="0.33997">
        <ele>1257.2</ele>
        <time>2025-07-22T04:21:14Z</time>
      </trkpt>
      <trkpt lat="42.93821" lon="0.33987">
        <ele>1258</ele>
        <time>2025-07-22T04:21:19Z</time>
      </trkpt>
      <trkpt lat="42.93825" lon="0.33981">
        <ele>1258.6</ele>
        <time>2025-07-22T04:21:22Z</time>
      </trkpt>
      <trkpt lat="42.9383" lon="0.33973">
        <ele>1259.4</ele>
        <time>2025-07-22T04:21:26Z</time>
      </trkpt>
      <trkpt lat="42.93836" lon="0.33963">
        <ele>1260</ele>
        <time>2025-07-22T04:21:31Z</time>
      </trkpt>
      <trkpt lat="42.93838" lon="0.33961">
        <ele>1260.4</ele>
        <time>2025-07-22T04:21:32Z</time>
      </trkpt>
      <trkpt lat="42.93846" lon="0.33949">
        <ele>1261.4</ele>
        <time>2025-07-22T04:21:38Z</time>
      </trkpt>
      <trkpt lat="42.93849" lon="0.33946">
        <ele>1262</ele>
        <time>2025-07-22T04:21:40Z</time>
      </trkpt>
      <trkpt lat="42.93854" lon="0.33941">
        <ele>1262.4</ele>
        <time>2025-07-22T04:21:43Z</time>
      </trkpt>
      <trkpt lat="42.93862" lon="0.33929">
        <ele>1263.6</ele>
        <time>2025-07-22T04:21:49Z</time>
      </trkpt>
      <trkpt lat="42.93865" lon="0.33926">
        <ele>1264</ele>
        <time>2025-07-22T04:21:51Z</time>
      </trkpt>
      <trkpt lat="42.9387" lon="0.33918">
        <ele>1264.6</ele>
        <time>2025-07-22T04:21:55Z</time>
      </trkpt>
      <trkpt lat="42.93875" lon="0.3391">
        <ele>1265.4</ele>
        <time>2025-07-22T04:21:59Z</time>
      </trkpt>
      <trkpt lat="42.93878" lon="0.33906">
        <ele>1265.8</ele>
        <time>2025-07-22T04:22:01Z</time>
      </trkpt>
      <trkpt lat="42.93883" lon="0.33898">
        <ele>1266.8</ele>
        <time>2025-07-22T04:22:05Z</time>
      </trkpt>
      <trkpt lat="42.93885" lon="0.33894">
        <ele>1267</ele>
        <time>2025-07-22T04:22:07Z</time>
      </trkpt>
      <trkpt lat="42.93893" lon="0.3388">
        <ele>1268.2</ele>
        <time>2025-07-22T04:22:14Z</time>
      </trkpt>
      <trkpt lat="42.93901" lon="0.33866">
        <ele>1269.2</ele>
        <time>2025-07-22T04:22:21Z</time>
      </trkpt>
      <trkpt lat="42.93903" lon="0.33861">
        <ele>1269.4</ele>
        <time>2025-07-22T04:22:23Z</time>
      </trkpt>
      <trkpt lat="42.93913" lon="0.33845">
        <ele>1270.4</ele>
        <time>2025-07-22T04:22:31Z</time>
      </trkpt>
      <trkpt lat="42.93918" lon="0.33834">
        <ele>1271.2</ele>
        <time>2025-07-22T04:22:36Z</time>
      </trkpt>
      <trkpt lat="42.93921" lon="0.33828">
        <ele>1271.8</ele>
        <time>2025-07-22T04:22:39Z</time>
      </trkpt>
      <trkpt lat="42.93926" lon="0.3382">
        <ele>1272.4</ele>
        <time>2025-07-22T04:22:43Z</time>
      </trkpt>
      <trkpt lat="42.93929" lon="0.33813">
        <ele>1272.8</ele>
        <time>2025-07-22T04:22:46Z</time>
      </trkpt>
      <trkpt lat="42.93933" lon="0.33805">
        <ele>1273.4</ele>
        <time>2025-07-22T04:22:50Z</time>
      </trkpt>
      <trkpt lat="42.93939" lon="0.33794">
        <ele>1274.4</ele>
        <time>2025-07-22T04:22:55Z</time>
      </trkpt>
      <trkpt lat="42.9394" lon="0.33792">
        <ele>1274.8</ele>
        <time>2025-07-22T04:22:56Z</time>
      </trkpt>
      <trkpt lat="42.93945" lon="0.33776">
        <ele>1275.8</ele>
        <time>2025-07-22T04:23:02Z</time>
      </trkpt>
      <trkpt lat="42.93948" lon="0.33766">
        <ele>1276.4</ele>
        <time>2025-07-22T04:23:06Z</time>
      </trkpt>
      <trkpt lat="42.93951" lon="0.33761">
        <ele>1277</ele>
        <time>2025-07-22T04:23:08Z</time>
      </trkpt>
      <trkpt lat="42.93953" lon="0.33754">
        <ele>1277.2</ele>
        <time>2025-07-22T04:23:11Z</time>
      </trkpt>
      <trkpt lat="42.93956" lon="0.33744">
        <ele>1277.8</ele>
        <time>2025-07-22T04:23:15Z</time>
      </trkpt>
      <trkpt lat="42.93958" lon="0.33739">
        <ele>1278.2</ele>
        <time>2025-07-22T04:23:17Z</time>
      </trkpt>
      <trkpt lat="42.93967" lon="0.33729">
        <ele>1279.2</ele>
        <time>2025-07-22T04:23:23Z</time>
      </trkpt>
      <trkpt lat="42.93968" lon="0.33727">
        <ele>1279.4</ele>
        <time>2025-07-22T04:23:24Z</time>
      </trkpt>
      <trkpt lat="42.93977" lon="0.3372">
        <ele>1280.6</ele>
        <time>2025-07-22T04:23:30Z</time>
      </trkpt>
      <trkpt lat="42.93985" lon="0.33716">
        <ele>1281.6</ele>
        <time>2025-07-22T04:23:34Z</time>
      </trkpt>
      <trkpt lat="42.93992" lon="0.33711">
        <ele>1282.2</ele>
        <time>2025-07-22T04:23:38Z</time>
      </trkpt>
      <trkpt lat="42.93996" lon="0.33709">
        <ele>1282.6</ele>
        <time>2025-07-22T04:23:40Z</time>
      </trkpt>
      <trkpt lat="42.94004" lon="0.33702">
        <ele>1283.6</ele>
        <time>2025-07-22T04:23:45Z</time>
      </trkpt>
      <trkpt lat="42.94006" lon="0.33701">
        <ele>1283.8</ele>
        <time>2025-07-22T04:23:46Z</time>
      </trkpt>
      <trkpt lat="42.94018" lon="0.33692">
        <ele>1284.6</ele>
        <time>2025-07-22T04:23:53Z</time>
      </trkpt>
      <trkpt lat="42.94024" lon="0.33688">
        <ele>1285.4</ele>
        <time>2025-07-22T04:23:56Z</time>
      </trkpt>
      <trkpt lat="42.94027" lon="0.33685">
        <ele>1285.8</ele>
        <time>2025-07-22T04:23:58Z</time>
      </trkpt>
      <trkpt lat="42.94033" lon="0.33678">
        <ele>1286.6</ele>
        <time>2025-07-22T04:24:02Z</time>
      </trkpt>
      <trkpt lat="42.94036" lon="0.33674">
        <ele>1286.8</ele>
        <time>2025-07-22T04:24:04Z</time>
      </trkpt>
      <trkpt lat="42.94047" lon="0.33662">
        <ele>1288</ele>
        <time>2025-07-22T04:24:11Z</time>
      </trkpt>
      <trkpt lat="42.94048" lon="0.3366">
        <ele>1288.2</ele>
        <time>2025-07-22T04:24:12Z</time>
      </trkpt>
      <trkpt lat="42.94057" lon="0.33653">
        <ele>1289</ele>
        <time>2025-07-22T04:24:17Z</time>
      </trkpt>
      <trkpt lat="42.94062" lon="0.33646">
        <ele>1289.6</ele>
        <time>2025-07-22T04:24:21Z</time>
      </trkpt>
      <trkpt lat="42.94066" lon="0.33641">
        <ele>1290</ele>
        <time>2025-07-22T04:24:24Z</time>
      </trkpt>
      <trkpt lat="42.94071" lon="0.33636">
        <ele>1290.6</ele>
        <time>2025-07-22T04:24:27Z</time>
      </trkpt>
      <trkpt lat="42.94075" lon="0.33631">
        <ele>1291.2</ele>
        <time>2025-07-22T04:24:30Z</time>
      </trkpt>
      <trkpt lat="42.94082" lon="0.33619">
        <ele>1292</ele>
        <time>2025-07-22T04:24:36Z</time>
      </trkpt>
      <trkpt lat="42.94089" lon="0.33606">
        <ele>1293</ele>
        <time>2025-07-22T04:24:42Z</time>
      </trkpt>
      <trkpt lat="42.9409" lon="0.33603">
        <ele>1293.2</ele>
        <time>2025-07-22T04:24:43Z</time>
      </trkpt>
      <trkpt lat="42.94096" lon="0.33589">
        <ele>1294.2</ele>
        <time>2025-07-22T04:24:49Z</time>
      </trkpt>
      <trkpt lat="42.94101" lon="0.33576">
        <ele>1295.2</ele>
        <time>2025-07-22T04:24:54Z</time>
      </trkpt>
      <trkpt lat="42.94108" lon="0.3356">
        <ele>1296.4</ele>
        <time>2025-07-22T04:25:01Z</time>
      </trkpt>
      <trkpt lat="42.94121" lon="0.33544">
        <ele>1297.2</ele>
        <time>2025-07-22T04:25:09Z</time>
      </trkpt>
      <trkpt lat="42.94123" lon="0.33543">
        <ele>1297.4</ele>
        <time>2025-07-22T04:25:10Z</time>
      </trkpt>
      <trkpt lat="42.94131" lon="0.33544">
        <ele>1298</ele>
        <time>2025-07-22T04:25:14Z</time>
      </trkpt>
      <trkpt lat="42.94136" lon="0.33549">
        <ele>1298.4</ele>
        <time>2025-07-22T04:25:17Z</time>
      </trkpt>
      <trkpt lat="42.94137" lon="0.33554">
        <ele>1298.8</ele>
        <time>2025-07-22T04:25:19Z</time>
      </trkpt>
      <trkpt lat="42.9414" lon="0.33567">
        <ele>1299.4</ele>
        <time>2025-07-22T04:25:24Z</time>
      </trkpt>
      <trkpt lat="42.94139" lon="0.3357">
        <ele>1299.8</ele>
        <time>2025-07-22T04:25:25Z</time>
      </trkpt>
      <trkpt lat="42.94137" lon="0.3358">
        <ele>1300.4</ele>
        <time>2025-07-22T04:25:29Z</time>
      </trkpt>
      <trkpt lat="42.94133" lon="0.33587">
        <ele>1300.6</ele>
        <time>2025-07-22T04:25:32Z</time>
      </trkpt>
      <trkpt lat="42.94126" lon="0.33597">
        <ele>1301.4</ele>
        <time>2025-07-22T04:25:37Z</time>
      </trkpt>
      <trkpt lat="42.94121" lon="0.33602">
        <ele>1301.8</ele>
        <time>2025-07-22T04:25:40Z</time>
      </trkpt>
      <trkpt lat="42.94115" lon="0.33605">
        <ele>1302.6</ele>
        <time>2025-07-22T04:25:43Z</time>
      </trkpt>
      <trkpt lat="42.94103" lon="0.33613">
        <ele>1303.4</ele>
        <time>2025-07-22T04:25:49Z</time>
      </trkpt>
      <trkpt lat="42.94101" lon="0.33614">
        <ele>1303.8</ele>
        <time>2025-07-22T04:25:50Z</time>
      </trkpt>
      <trkpt lat="42.94095" lon="0.33626">
        <ele>1304.6</ele>
        <time>2025-07-22T04:25:55Z</time>
      </trkpt>
      <trkpt lat="42.94092" lon="0.33632">
        <ele>1305</ele>
        <time>2025-07-22T04:25:57Z</time>
      </trkpt>
      <trkpt lat="42.94086" lon="0.33648">
        <ele>1305.6</ele>
        <time>2025-07-22T04:26:03Z</time>
      </trkpt>
      <trkpt lat="42.94085" lon="0.33653">
        <ele>1306</ele>
        <time>2025-07-22T04:26:05Z</time>
      </trkpt>
      <trkpt lat="42.94078" lon="0.33668">
        <ele>1307</ele>
        <time>2025-07-22T04:26:12Z</time>
      </trkpt>
      <trkpt lat="42.94073" lon="0.33679">
        <ele>1308</ele>
        <time>2025-07-22T04:26:17Z</time>
      </trkpt>
      <trkpt lat="42.9407" lon="0.33685">
        <ele>1308.6</ele>
        <time>2025-07-22T04:26:20Z</time>
      </trkpt>
      <trkpt lat="42.94066" lon="0.33691">
        <ele>1309</ele>
        <time>2025-07-22T04:26:23Z</time>
      </trkpt>
      <trkpt lat="42.94061" lon="0.337">
        <ele>1309.8</ele>
        <time>2025-07-22T04:26:28Z</time>
      </trkpt>
      <trkpt lat="42.94059" lon="0.33702">
        <ele>1310</ele>
        <time>2025-07-22T04:26:29Z</time>
      </trkpt>
      <trkpt lat="42.94052" lon="0.33714">
        <ele>1311.2</ele>
        <time>2025-07-22T04:26:35Z</time>
      </trkpt>
      <trkpt lat="42.94048" lon="0.3372">
        <ele>1311.6</ele>
        <time>2025-07-22T04:26:38Z</time>
      </trkpt>
      <trkpt lat="42.94044" lon="0.33728">
        <ele>1312.4</ele>
        <time>2025-07-22T04:26:42Z</time>
      </trkpt>
      <trkpt lat="42.94042" lon="0.33731">
        <ele>1312.6</ele>
        <time>2025-07-22T04:26:44Z</time>
      </trkpt>
      <trkpt lat="42.94036" lon="0.33743">
        <ele>1313.6</ele>
        <time>2025-07-22T04:26:49Z</time>
      </trkpt>
      <trkpt lat="42.94031" lon="0.33756">
        <ele>1314.4</ele>
        <time>2025-07-22T04:26:54Z</time>
      </trkpt>
      <trkpt lat="42.94027" lon="0.33765">
        <ele>1315.6</ele>
        <time>2025-07-22T04:26:58Z</time>
      </trkpt>
      <trkpt lat="42.94026" lon="0.33775">
        <ele>1316.2</ele>
        <time>2025-07-22T04:27:02Z</time>
      </trkpt>
      <trkpt lat="42.94024" lon="0.33786">
        <ele>1316.8</ele>
        <time>2025-07-22T04:27:06Z</time>
      </trkpt>
      <trkpt lat="42.94021" lon="0.338">
        <ele>1317.4</ele>
        <time>2025-07-22T04:27:11Z</time>
      </trkpt>
      <trkpt lat="42.9402" lon="0.33808">
        <ele>1318</ele>
        <time>2025-07-22T04:27:14Z</time>
      </trkpt>
      <trkpt lat="42.94018" lon="0.33821">
        <ele>1319</ele>
        <time>2025-07-22T04:27:19Z</time>
      </trkpt>
      <trkpt lat="42.94017" lon="0.33828">
        <ele>1319.4</ele>
        <time>2025-07-22T04:27:22Z</time>
      </trkpt>
      <trkpt lat="42.94016" lon="0.33838">
        <ele>1320</ele>
        <time>2025-07-22T04:27:26Z</time>
      </trkpt>
      <trkpt lat="42.94014" lon="0.33846">
        <ele>1320.8</ele>
        <time>2025-07-22T04:27:29Z</time>
      </trkpt>
      <trkpt lat="42.94014" lon="0.33851">
        <ele>1321.2</ele>
        <time>2025-07-22T04:27:31Z</time>
      </trkpt>
      <trkpt lat="42.94012" lon="0.33863">
        <ele>1322</ele>
        <time>2025-07-22T04:27:36Z</time>
      </trkpt>
      <trkpt lat="42.94011" lon="0.33868">
        <ele>1322.6</ele>
        <time>2025-07-22T04:27:38Z</time>
      </trkpt>
      <trkpt lat="42.9401" lon="0.33883">
        <ele>1323.2</ele>
        <time>2025-07-22T04:27:44Z</time>
      </trkpt>
      <trkpt lat="42.9401" lon="0.33885">
        <ele>1323.8</ele>
        <time>2025-07-22T04:27:45Z</time>
      </trkpt>
      <trkpt lat="42.94008" lon="0.33903">
        <ele>1324.6</ele>
        <time>2025-07-22T04:27:52Z</time>
      </trkpt>
      <trkpt lat="42.94008" lon="0.33905">
        <ele>1324.8</ele>
        <time>2025-07-22T04:27:53Z</time>
      </trkpt>
      <trkpt lat="42.94006" lon="0.33918">
        <ele>1325.8</ele>
        <time>2025-07-22T04:27:58Z</time>
      </trkpt>
      <trkpt lat="42.94005" lon="0.33929">
        <ele>1326.4</ele>
        <time>2025-07-22T04:28:02Z</time>
      </trkpt>
      <trkpt lat="42.94005" lon="0.33936">
        <ele>1327.2</ele>
        <time>2025-07-22T04:28:05Z</time>
      </trkpt>
      <trkpt lat="42.94004" lon="0.33952">
        <ele>1327.8</ele>
        <time>2025-07-22T04:28:11Z</time>
      </trkpt>
      <trkpt lat="42.94005" lon="0.33954">
        <ele>1328</ele>
        <time>2025-07-22T04:28:12Z</time>
      </trkpt>
      <trkpt lat="42.94005" lon="0.33968">
        <ele>1329</ele>
        <time>2025-07-22T04:28:17Z</time>
      </trkpt>
      <trkpt lat="42.94005" lon="0.33971">
        <ele>1329.2</ele>
        <time>2025-07-22T04:28:18Z</time>
      </trkpt>
      <trkpt lat="42.94004" lon="0.33984">
        <ele>1330</ele>
        <time>2025-07-22T04:28:23Z</time>
      </trkpt>
      <trkpt lat="42.94006" lon="0.33995">
        <ele>1330.6</ele>
        <time>2025-07-22T04:28:27Z</time>
      </trkpt>
      <trkpt lat="42.94006" lon="0.34009">
        <ele>1331.2</ele>
        <time>2025-07-22T04:28:32Z</time>
      </trkpt>
      <trkpt lat="42.94007" lon="0.34015">
        <ele>1331.8</ele>
        <time>2025-07-22T04:28:34Z</time>
      </trkpt>
      <trkpt lat="42.94007" lon="0.34024">
        <ele>1332.4</ele>
        <time>2025-07-22T04:28:37Z</time>
      </trkpt>
      <trkpt lat="42.94009" lon="0.34041">
        <ele>1333</ele>
        <time>2025-07-22T04:28:43Z</time>
      </trkpt>
      <trkpt lat="42.94009" lon="0.34047">
        <ele>1333.4</ele>
        <time>2025-07-22T04:28:45Z</time>
      </trkpt>
      <trkpt lat="42.94013" lon="0.34065">
        <ele>1334.6</ele>
        <time>2025-07-22T04:28:52Z</time>
      </trkpt>
      <trkpt lat="42.94014" lon="0.34078">
        <ele>1335.8</ele>
        <time>2025-07-22T04:28:57Z</time>
      </trkpt>
      <trkpt lat="42.94016" lon="0.34083">
        <ele>1336.2</ele>
        <time>2025-07-22T04:28:59Z</time>
      </trkpt>
      <trkpt lat="42.94018" lon="0.34091">
        <ele>1336.8</ele>
        <time>2025-07-22T04:29:02Z</time>
      </trkpt>
      <trkpt lat="42.94025" lon="0.34101">
        <ele>1337.6</ele>
        <time>2025-07-22T04:29:07Z</time>
      </trkpt>
      <trkpt lat="42.94029" lon="0.34105">
        <ele>1338</ele>
        <time>2025-07-22T04:29:09Z</time>
      </trkpt>
      <trkpt lat="42.94042" lon="0.34115">
        <ele>1339</ele>
        <time>2025-07-22T04:29:16Z</time>
      </trkpt>
      <trkpt lat="42.94053" lon="0.34133">
        <ele>1340</ele>
        <time>2025-07-22T04:29:24Z</time>
      </trkpt>
      <trkpt lat="42.94054" lon="0.34136">
        <ele>1340.2</ele>
        <time>2025-07-22T04:29:25Z</time>
      </trkpt>
      <trkpt lat="42.94054" lon="0.34149">
        <ele>1341.2</ele>
        <time>2025-07-22T04:29:30Z</time>
      </trkpt>
      <trkpt lat="42.94055" lon="0.34154">
        <ele>1341.6</ele>
        <time>2025-07-22T04:29:32Z</time>
      </trkpt>
      <trkpt lat="42.94055" lon="0.34162">
        <ele>1342.2</ele>
        <time>2025-07-22T04:29:35Z</time>
      </trkpt>
      <trkpt lat="42.94054" lon="0.34173">
        <ele>1343.4</ele>
        <time>2025-07-22T04:29:39Z</time>
      </trkpt>
      <trkpt lat="42.94053" lon="0.34178">
        <ele>1343.6</ele>
        <time>2025-07-22T04:29:41Z</time>
      </trkpt>
      <trkpt lat="42.94052" lon="0.34189">
        <ele>1344.2</ele>
        <time>2025-07-22T04:29:45Z</time>
      </trkpt>
      <trkpt lat="42.94051" lon="0.342">
        <ele>1345</ele>
        <time>2025-07-22T04:29:49Z</time>
      </trkpt>
      <trkpt lat="42.9405" lon="0.34205">
        <ele>1345.2</ele>
        <time>2025-07-22T04:29:51Z</time>
      </trkpt>
      <trkpt lat="42.94049" lon="0.34213">
        <ele>1345.8</ele>
        <time>2025-07-22T04:29:54Z</time>
      </trkpt>
      <trkpt lat="42.94049" lon="0.34221">
        <ele>1346.4</ele>
        <time>2025-07-22T04:29:57Z</time>
      </trkpt>
      <trkpt lat="42.94048" lon="0.34229">
        <ele>1347</ele>
        <time>2025-07-22T04:30:00Z</time>
      </trkpt>
      <trkpt lat="42.94047" lon="0.34237">
        <ele>1347.6</ele>
        <time>2025-07-22T04:30:03Z</time>
      </trkpt>
      <trkpt lat="42.94044" lon="0.34252">
        <ele>1348.6</ele>
        <time>2025-07-22T04:30:09Z</time>
      </trkpt>
      <trkpt lat="42.94042" lon="0.34271">
        <ele>1349.8</ele>
        <time>2025-07-22T04:30:16Z</time>
      </trkpt>
      <trkpt lat="42.94041" lon="0.34279">
        <ele>1350.2</ele>
        <time>2025-07-22T04:30:19Z</time>
      </trkpt>
      <trkpt lat="42.94041" lon="0.34284">
        <ele>1351</ele>
        <time>2025-07-22T04:30:21Z</time>
      </trkpt>
      <trkpt lat="42.9404" lon="0.34301">
        <ele>1352</ele>
        <time>2025-07-22T04:30:27Z</time>
      </trkpt>
      <trkpt lat="42.94039" lon="0.34306">
        <ele>1352.4</ele>
        <time>2025-07-22T04:30:29Z</time>
      </trkpt>
      <trkpt lat="42.94037" lon="0.34319">
        <ele>1353</ele>
        <time>2025-07-22T04:30:34Z</time>
      </trkpt>
      <trkpt lat="42.94036" lon="0.34332">
        <ele>1354</ele>
        <time>2025-07-22T04:30:39Z</time>
      </trkpt>
      <trkpt lat="42.94036" lon="0.34335">
        <ele>1354.2</ele>
        <time>2025-07-22T04:30:40Z</time>
      </trkpt>
      <trkpt lat="42.94035" lon="0.34351">
        <ele>1355.2</ele>
        <time>2025-07-22T04:30:46Z</time>
      </trkpt>
      <trkpt lat="42.94035" lon="0.34356">
        <ele>1355.6</ele>
        <time>2025-07-22T04:30:48Z</time>
      </trkpt>
      <trkpt lat="42.94036" lon="0.34366">
        <ele>1356.2</ele>
        <time>2025-07-22T04:30:52Z</time>
      </trkpt>
      <trkpt lat="42.94037" lon="0.34375">
        <ele>1356.4</ele>
        <time>2025-07-22T04:30:55Z</time>
      </trkpt>
      <trkpt lat="42.94038" lon="0.34387">
        <ele>1357.2</ele>
        <time>2025-07-22T04:30:59Z</time>
      </trkpt>
      <trkpt lat="42.9404" lon="0.34397">
        <ele>1358</ele>
        <time>2025-07-22T04:31:03Z</time>
      </trkpt>
      <trkpt lat="42.9404" lon="0.34399">
        <ele>1358.2</ele>
        <time>2025-07-22T04:31:04Z</time>
      </trkpt>
      <trkpt lat="42.94044" lon="0.34416">
        <ele>1359.2</ele>
        <time>2025-07-22T04:31:10Z</time>
      </trkpt>
      <trkpt lat="42.94048" lon="0.34427">
        <ele>1359.6</ele>
        <time>2025-07-22T04:31:14Z</time>
      </trkpt>
      <trkpt lat="42.94053" lon="0.34441">
        <ele>1360.4</ele>
        <time>2025-07-22T04:31:19Z</time>
      </trkpt>
      <trkpt lat="42.94055" lon="0.3445">
        <ele>1360.8</ele>
        <time>2025-07-22T04:31:22Z</time>
      </trkpt>
      <trkpt lat="42.94061" lon="0.34467">
        <ele>1361.2</ele>
        <time>2025-07-22T04:31:28Z</time>
      </trkpt>
      <trkpt lat="42.94064" lon="0.34471">
        <ele>1361.6</ele>
        <time>2025-07-22T04:31:30Z</time>
      </trkpt>
      <trkpt lat="42.94072" lon="0.34476">
        <ele>1362</ele>
        <time>2025-07-22T04:31:34Z</time>
      </trkpt>
      <trkpt lat="42.94078" lon="0.34479">
        <ele>1362.6</ele>
        <time>2025-07-22T04:31:37Z</time>
      </trkpt>
      <trkpt lat="42.94082" lon="0.34478">
        <ele>1362.8</ele>
        <time>2025-07-22T04:31:39Z</time>
      </trkpt>
      <trkpt lat="42.94088" lon="0.34473">
        <ele>1363.4</ele>
        <time>2025-07-22T04:31:42Z</time>
      </trkpt>
      <trkpt lat="42.94089" lon="0.34471">
        <ele>1363.6</ele>
        <time>2025-07-22T04:31:43Z</time>
      </trkpt>
      <trkpt lat="42.9409" lon="0.34468">
        <ele>1363.8</ele>
        <time>2025-07-22T04:31:44Z</time>
      </trkpt>
      <trkpt lat="42.94093" lon="0.34459">
        <ele>1364.6</ele>
        <time>2025-07-22T04:31:47Z</time>
      </trkpt>
      <trkpt lat="42.94092" lon="0.34451">
        <ele>1365</ele>
        <time>2025-07-22T04:31:50Z</time>
      </trkpt>
      <trkpt lat="42.94087" lon="0.3444">
        <ele>1365.6</ele>
        <time>2025-07-22T04:31:54Z</time>
      </trkpt>
      <trkpt lat="42.94084" lon="0.34435">
        <ele>1366</ele>
        <time>2025-07-22T04:31:56Z</time>
      </trkpt>
      <trkpt lat="42.94077" lon="0.3442">
        <ele>1366.4</ele>
        <time>2025-07-22T04:32:02Z</time>
      </trkpt>
      <trkpt lat="42.94076" lon="0.34417">
        <ele>1366.6</ele>
        <time>2025-07-22T04:32:03Z</time>
      </trkpt>
      <trkpt lat="42.94073" lon="0.34396">
        <ele>1367.4</ele>
        <time>2025-07-22T04:32:10Z</time>
      </trkpt>
      <trkpt lat="42.94073" lon="0.34393">
        <ele>1367.6</ele>
        <time>2025-07-22T04:32:11Z</time>
      </trkpt>
      <trkpt lat="42.94075" lon="0.34372">
        <ele>1368.6</ele>
        <time>2025-07-22T04:32:18Z</time>
      </trkpt>
      <trkpt lat="42.94075" lon="0.34367">
        <ele>1368.8</ele>
        <time>2025-07-22T04:32:20Z</time>
      </trkpt>
      <trkpt lat="42.94077" lon="0.34356">
        <ele>1369.8</ele>
        <time>2025-07-22T04:32:24Z</time>
      </trkpt>
      <trkpt lat="42.9408" lon="0.3434">
        <ele>1371</ele>
        <time>2025-07-22T04:32:30Z</time>
      </trkpt>
      <trkpt lat="42.94083" lon="0.34327">
        <ele>1372</ele>
        <time>2025-07-22T04:32:35Z</time>
      </trkpt>
      <trkpt lat="42.94085" lon="0.34322">
        <ele>1372.4</ele>
        <time>2025-07-22T04:32:37Z</time>
      </trkpt>
      <trkpt lat="42.94088" lon="0.34309">
        <ele>1373</ele>
        <time>2025-07-22T04:32:42Z</time>
      </trkpt>
      <trkpt lat="42.94092" lon="0.34299">
        <ele>1373.8</ele>
        <time>2025-07-22T04:32:46Z</time>
      </trkpt>
      <trkpt lat="42.94093" lon="0.34292">
        <ele>1374.2</ele>
        <time>2025-07-22T04:32:49Z</time>
      </trkpt>
      <trkpt lat="42.94097" lon="0.34279">
        <ele>1375.2</ele>
        <time>2025-07-22T04:32:54Z</time>
      </trkpt>
      <trkpt lat="42.94101" lon="0.34264">
        <ele>1376.4</ele>
        <time>2025-07-22T04:33:00Z</time>
      </trkpt>
      <trkpt lat="42.94104" lon="0.34254">
        <ele>1376.8</ele>
        <time>2025-07-22T04:33:04Z</time>
      </trkpt>
      <trkpt lat="42.94105" lon="0.34249">
        <ele>1377.4</ele>
        <time>2025-07-22T04:33:06Z</time>
      </trkpt>
      <trkpt lat="42.94108" lon="0.34237">
        <ele>1378.2</ele>
        <time>2025-07-22T04:33:11Z</time>
      </trkpt>
      <trkpt lat="42.9411" lon="0.34232">
        <ele>1378.6</ele>
        <time>2025-07-22T04:33:13Z</time>
      </trkpt>
      <trkpt lat="42.94113" lon="0.34219">
        <ele>1379.6</ele>
        <time>2025-07-22T04:33:18Z</time>
      </trkpt>
      <trkpt lat="42.94113" lon="0.34216">
        <ele>1379.6</ele>
        <time>2025-07-22T04:33:19Z</time>
      </trkpt>
      <trkpt lat="42.94119" lon="0.34201">
        <ele>1380.6</ele>
        <time>2025-07-22T04:33:26Z</time>
      </trkpt>
      <trkpt lat="42.94122" lon="0.34187">
        <ele>1381.8</ele>
        <time>2025-07-22T04:33:31Z</time>
      </trkpt>
      <trkpt lat="42.94123" lon="0.34182">
        <ele>1382.2</ele>
        <time>2025-07-22T04:33:33Z</time>
      </trkpt>
      <trkpt lat="42.94125" lon="0.34174">
        <ele>1382.8</ele>
        <time>2025-07-22T04:33:36Z</time>
      </trkpt>
      <trkpt lat="42.94127" lon="0.34161">
        <ele>1383.6</ele>
        <time>2025-07-22T04:33:41Z</time>
      </trkpt>
      <trkpt lat="42.94127" lon="0.34158">
        <ele>1383.8</ele>
        <time>2025-07-22T04:33:42Z</time>
      </trkpt>
      <trkpt lat="42.9413" lon="0.34143">
        <ele>1384.6</ele>
        <time>2025-07-22T04:33:48Z</time>
      </trkpt>
      <trkpt lat="42.9413" lon="0.34141">
        <ele>1384.6</ele>
        <time>2025-07-22T04:33:49Z</time>
      </trkpt>
      <trkpt lat="42.94132" lon="0.34128">
        <ele>1385.8</ele>
        <time>2025-07-22T04:33:54Z</time>
      </trkpt>
      <trkpt lat="42.94133" lon="0.34118">
        <ele>1386.4</ele>
        <time>2025-07-22T04:33:58Z</time>
      </trkpt>
      <trkpt lat="42.94134" lon="0.34113">
        <ele>1386.8</ele>
        <time>2025-07-22T04:34:00Z</time>
      </trkpt>
      <trkpt lat="42.94135" lon="0.34092">
        <ele>1387.8</ele>
        <time>2025-07-22T04:34:08Z</time>
      </trkpt>
      <trkpt lat="42.94135" lon="0.3409">
        <ele>1388</ele>
        <time>2025-07-22T04:34:09Z</time>
      </trkpt>
      <trkpt lat="42.94137" lon="0.34077">
        <ele>1388.8</ele>
        <time>2025-07-22T04:34:14Z</time>
      </trkpt>
      <trkpt lat="42.94139" lon="0.34067">
        <ele>1389.6</ele>
        <time>2025-07-22T04:34:18Z</time>
      </trkpt>
      <trkpt lat="42.9414" lon="0.34062">
        <ele>1389.8</ele>
        <time>2025-07-22T04:34:20Z</time>
      </trkpt>
      <trkpt lat="42.94141" lon="0.34049">
        <ele>1391</ele>
        <time>2025-07-22T04:34:25Z</time>
      </trkpt>
      <trkpt lat="42.94142" lon="0.34047">
        <ele>1391.2</ele>
        <time>2025-07-22T04:34:26Z</time>
      </trkpt>
      <trkpt lat="42.94145" lon="0.34037">
        <ele>1392</ele>
        <time>2025-07-22T04:34:30Z</time>
      </trkpt>
      <trkpt lat="42.94148" lon="0.34019">
        <ele>1393.2</ele>
        <time>2025-07-22T04:34:37Z</time>
      </trkpt>
      <trkpt lat="42.94149" lon="0.34014">
        <ele>1393.6</ele>
        <time>2025-07-22T04:34:39Z</time>
      </trkpt>
      <trkpt lat="42.94152" lon="0.34001">
        <ele>1394.2</ele>
        <time>2025-07-22T04:34:44Z</time>
      </trkpt>
      <trkpt lat="42.94153" lon="0.33994">
        <ele>1394.6</ele>
        <time>2025-07-22T04:34:47Z</time>
      </trkpt>
      <trkpt lat="42.94156" lon="0.33984">
        <ele>1395.2</ele>
        <time>2025-07-22T04:34:51Z</time>
      </trkpt>
      <trkpt lat="42.9416" lon="0.33968">
        <ele>1396.4</ele>
        <time>2025-07-22T04:34:58Z</time>
      </trkpt>
      <trkpt lat="42.94161" lon="0.33965">
        <ele>1396.6</ele>
        <time>2025-07-22T04:34:59Z</time>
      </trkpt>
      <trkpt lat="42.94165" lon="0.33953">
        <ele>1397.6</ele>
        <time>2025-07-22T04:35:04Z</time>
      </trkpt>
      <trkpt lat="42.94169" lon="0.3394">
        <ele>1399</ele>
        <time>2025-07-22T04:35:09Z</time>
      </trkpt>
      <trkpt lat="42.94174" lon="0.33919">
        <ele>1399.8</ele>
        <time>2025-07-22T04:35:17Z</time>
      </trkpt>
      <trkpt lat="42.94175" lon="0.33916">
        <ele>1400</ele>
        <time>2025-07-22T04:35:18Z</time>
      </trkpt>
      <trkpt lat="42.9418" lon="0.33902">
        <ele>1401</ele>
        <time>2025-07-22T04:35:24Z</time>
      </trkpt>
      <trkpt lat="42.94182" lon="0.33897">
        <ele>1401.4</ele>
        <time>2025-07-22T04:35:26Z</time>
      </trkpt>
      <trkpt lat="42.94184" lon="0.3389">
        <ele>1402</ele>
        <time>2025-07-22T04:35:29Z</time>
      </trkpt>
      <trkpt lat="42.94188" lon="0.33878">
        <ele>1402.8</ele>
        <time>2025-07-22T04:35:34Z</time>
      </trkpt>
      <trkpt lat="42.94189" lon="0.33873">
        <ele>1403.2</ele>
        <time>2025-07-22T04:35:36Z</time>
      </trkpt>
      <trkpt lat="42.94192" lon="0.33861">
        <ele>1404.2</ele>
        <time>2025-07-22T04:35:41Z</time>
      </trkpt>
      <trkpt lat="42.94193" lon="0.33858">
        <ele>1404.4</ele>
        <time>2025-07-22T04:35:42Z</time>
      </trkpt>
      <trkpt lat="42.94199" lon="0.33843">
        <ele>1405.4</ele>
        <time>2025-07-22T04:35:48Z</time>
      </trkpt>
      <trkpt lat="42.942" lon="0.33841">
        <ele>1405.6</ele>
        <time>2025-07-22T04:35:49Z</time>
      </trkpt>
      <trkpt lat="42.94205" lon="0.33826">
        <ele>1406.6</ele>
        <time>2025-07-22T04:35:55Z</time>
      </trkpt>
      <trkpt lat="42.94206" lon="0.33824">
        <ele>1406.8</ele>
        <time>2025-07-22T04:35:56Z</time>
      </trkpt>
      <trkpt lat="42.9421" lon="0.33811">
        <ele>1407.6</ele>
        <time>2025-07-22T04:36:01Z</time>
      </trkpt>
      <trkpt lat="42.94214" lon="0.33805">
        <ele>1408</ele>
        <time>2025-07-22T04:36:04Z</time>
      </trkpt>
      <trkpt lat="42.94218" lon="0.33796">
        <ele>1408.6</ele>
        <time>2025-07-22T04:36:08Z</time>
      </trkpt>
      <trkpt lat="42.94222" lon="0.33788">
        <ele>1409.2</ele>
        <time>2025-07-22T04:36:12Z</time>
      </trkpt>
      <trkpt lat="42.94226" lon="0.33781">
        <ele>1409.8</ele>
        <time>2025-07-22T04:36:15Z</time>
      </trkpt>
      <trkpt lat="42.94232" lon="0.33773">
        <ele>1410.4</ele>
        <time>2025-07-22T04:36:19Z</time>
      </trkpt>
      <trkpt lat="42.94237" lon="0.33769">
        <ele>1411</ele>
        <time>2025-07-22T04:36:22Z</time>
      </trkpt>
      <trkpt lat="42.94245" lon="0.33766">
        <ele>1411.6</ele>
        <time>2025-07-22T04:36:26Z</time>
      </trkpt>
      <trkpt lat="42.94249" lon="0.33766">
        <ele>1412</ele>
        <time>2025-07-22T04:36:28Z</time>
      </trkpt>
      <trkpt lat="42.94255" lon="0.33765">
        <ele>1412.4</ele>
        <time>2025-07-22T04:36:31Z</time>
      </trkpt>
      <trkpt lat="42.94257" lon="0.33764">
        <ele>1412.6</ele>
        <time>2025-07-22T04:36:32Z</time>
      </trkpt>
      <trkpt lat="42.94263" lon="0.33761">
        <ele>1413.2</ele>
        <time>2025-07-22T04:36:35Z</time>
      </trkpt>
      <trkpt lat="42.94268" lon="0.33758">
        <ele>1413.6</ele>
        <time>2025-07-22T04:36:38Z</time>
      </trkpt>
      <trkpt lat="42.94275" lon="0.33751">
        <ele>1414.4</ele>
        <time>2025-07-22T04:36:42Z</time>
      </trkpt>
      <trkpt lat="42.94283" lon="0.33742">
        <ele>1415</ele>
        <time>2025-07-22T04:36:47Z</time>
      </trkpt>
      <trkpt lat="42.94284" lon="0.3374">
        <ele>1415.2</ele>
        <time>2025-07-22T04:36:48Z</time>
      </trkpt>
      <trkpt lat="42.94294" lon="0.3373">
        <ele>1416.4</ele>
        <time>2025-07-22T04:36:54Z</time>
      </trkpt>
      <trkpt lat="42.94296" lon="0.33729">
        <ele>1416.6</ele>
        <time>2025-07-22T04:36:55Z</time>
      </trkpt>
      <trkpt lat="42.94308" lon="0.33717">
        <ele>1417.6</ele>
        <time>2025-07-22T04:37:02Z</time>
      </trkpt>
      <trkpt lat="42.94312" lon="0.33712">
        <ele>1418.2</ele>
        <time>2025-07-22T04:37:05Z</time>
      </trkpt>
      <trkpt lat="42.94318" lon="0.33704">
        <ele>1418.8</ele>
        <time>2025-07-22T04:37:09Z</time>
      </trkpt>
      <trkpt lat="42.94325" lon="0.33694">
        <ele>1419.4</ele>
        <time>2025-07-22T04:37:14Z</time>
      </trkpt>
      <trkpt lat="42.94326" lon="0.33691">
        <ele>1419.6</ele>
        <time>2025-07-22T04:37:15Z</time>
      </trkpt>
      <trkpt lat="42.94331" lon="0.33675">
        <ele>1420.6</ele>
        <time>2025-07-22T04:37:21Z</time>
      </trkpt>
      <trkpt lat="42.94332" lon="0.33669">
        <ele>1421.2</ele>
        <time>2025-07-22T04:37:23Z</time>
      </trkpt>
      <trkpt lat="42.94332" lon="0.33661">
        <ele>1421.8</ele>
        <time>2025-07-22T04:37:26Z</time>
      </trkpt>
      <trkpt lat="42.94332" lon="0.33652">
        <ele>1422.2</ele>
        <time>2025-07-22T04:37:29Z</time>
      </trkpt>
      <trkpt lat="42.94332" lon="0.33638">
        <ele>1422.8</ele>
        <time>2025-07-22T04:37:34Z</time>
      </trkpt>
      <trkpt lat="42.94332" lon="0.33633">
        <ele>1423.2</ele>
        <time>2025-07-22T04:37:36Z</time>
      </trkpt>
      <trkpt lat="42.94332" lon="0.33619">
        <ele>1424</ele>
        <time>2025-07-22T04:37:41Z</time>
      </trkpt>
      <trkpt lat="42.94333" lon="0.33605">
        <ele>1424.8</ele>
        <time>2025-07-22T04:37:46Z</time>
      </trkpt>
      <trkpt lat="42.94333" lon="0.33599">
        <ele>1424.8</ele>
        <time>2025-07-22T04:37:48Z</time>
      </trkpt>
      <trkpt lat="42.94333" lon="0.33587">
        <ele>1425.8</ele>
        <time>2025-07-22T04:37:53Z</time>
      </trkpt>
      <trkpt lat="42.9433" lon="0.33572">
        <ele>1427</ele>
        <time>2025-07-22T04:37:59Z</time>
      </trkpt>
      <trkpt lat="42.9433" lon="0.33566">
        <ele>1427.4</ele>
        <time>2025-07-22T04:38:01Z</time>
      </trkpt>
      <trkpt lat="42.94331" lon="0.33555">
        <ele>1428</ele>
        <time>2025-07-22T04:38:05Z</time>
      </trkpt>
      <trkpt lat="42.94332" lon="0.3355">
        <ele>1428.2</ele>
        <time>2025-07-22T04:38:07Z</time>
      </trkpt>
      <trkpt lat="42.94334" lon="0.33539">
        <ele>1429.2</ele>
        <time>2025-07-22T04:38:11Z</time>
      </trkpt>
      <trkpt lat="42.94335" lon="0.33531">
        <ele>1429.8</ele>
        <time>2025-07-22T04:38:14Z</time>
      </trkpt>
      <trkpt lat="42.94337" lon="0.33523">
        <ele>1430.4</ele>
        <time>2025-07-22T04:38:17Z</time>
      </trkpt>
      <trkpt lat="42.94341" lon="0.33509">
        <ele>1431.4</ele>
        <time>2025-07-22T04:38:23Z</time>
      </trkpt>
      <trkpt lat="42.94347" lon="0.33491">
        <ele>1432.4</ele>
        <time>2025-07-22T04:38:30Z</time>
      </trkpt>
      <trkpt lat="42.94352" lon="0.33476">
        <ele>1433.4</ele>
        <time>2025-07-22T04:38:36Z</time>
      </trkpt>
      <trkpt lat="42.94353" lon="0.33474">
        <ele>1433.6</ele>
        <time>2025-07-22T04:38:37Z</time>
      </trkpt>
      <trkpt lat="42.94355" lon="0.3346">
        <ele>1434.6</ele>
        <time>2025-07-22T04:38:43Z</time>
      </trkpt>
      <trkpt lat="42.94358" lon="0.33451">
        <ele>1435.4</ele>
        <time>2025-07-22T04:38:47Z</time>
      </trkpt>
      <trkpt lat="42.94358" lon="0.33449">
        <ele>1435.8</ele>
        <time>2025-07-22T04:38:48Z</time>
      </trkpt>
      <trkpt lat="42.94364" lon="0.33431">
        <ele>1436.6</ele>
        <time>2025-07-22T04:38:55Z</time>
      </trkpt>
      <trkpt lat="42.94365" lon="0.33426">
        <ele>1437</ele>
        <time>2025-07-22T04:38:57Z</time>
      </trkpt>
      <trkpt lat="42.94369" lon="0.33415">
        <ele>1438.2</ele>
        <time>2025-07-22T04:39:02Z</time>
      </trkpt>
      <trkpt lat="42.9437" lon="0.3341">
        <ele>1438.6</ele>
        <time>2025-07-22T04:39:04Z</time>
      </trkpt>
      <trkpt lat="42.94376" lon="0.33393">
        <ele>1439.2</ele>
        <time>2025-07-22T04:39:11Z</time>
      </trkpt>
      <trkpt lat="42.94377" lon="0.33388">
        <ele>1440.2</ele>
        <time>2025-07-22T04:39:13Z</time>
      </trkpt>
      <trkpt lat="42.94378" lon="0.33385">
        <ele>1440.4</ele>
        <time>2025-07-22T04:39:14Z</time>
      </trkpt>
      <trkpt lat="42.94383" lon="0.33371">
        <ele>1441.2</ele>
        <time>2025-07-22T04:39:20Z</time>
      </trkpt>
      <trkpt lat="42.94386" lon="0.33354">
        <ele>1442.2</ele>
        <time>2025-07-22T04:39:27Z</time>
      </trkpt>
      <trkpt lat="42.94386" lon="0.33352">
        <ele>1442.4</ele>
        <time>2025-07-22T04:39:28Z</time>
      </trkpt>
      <trkpt lat="42.94387" lon="0.33341">
        <ele>1443</ele>
        <time>2025-07-22T04:39:32Z</time>
      </trkpt>
      <trkpt lat="42.94387" lon="0.33337">
        <ele>1443.2</ele>
        <time>2025-07-22T04:39:34Z</time>
      </trkpt>
      <trkpt lat="42.94387" lon="0.33335">
        <ele>1443.4</ele>
        <time>2025-07-22T04:39:35Z</time>
      </trkpt>
      <trkpt lat="42.94387" lon="0.33331">
        <ele>1444</ele>
        <time>2025-07-22T04:39:37Z</time>
      </trkpt>
      <trkpt lat="42.94387" lon="0.33327">
        <ele>1444.2</ele>
        <time>2025-07-22T04:39:39Z</time>
      </trkpt>
      <trkpt lat="42.94388" lon="0.33314">
        <ele>1445.4</ele>
        <time>2025-07-22T04:39:44Z</time>
      </trkpt>
      <trkpt lat="42.94388" lon="0.33311">
        <ele>1445.6</ele>
        <time>2025-07-22T04:39:45Z</time>
      </trkpt>
      <trkpt lat="42.94388" lon="0.33298">
        <ele>1446.6</ele>
        <time>2025-07-22T04:39:49Z</time>
      </trkpt>
      <trkpt lat="42.94387" lon="0.33292">
        <ele>1446.6</ele>
        <time>2025-07-22T04:39:51Z</time>
      </trkpt>
      <trkpt lat="42.94387" lon="0.33287">
        <ele>1447</ele>
        <time>2025-07-22T04:39:53Z</time>
      </trkpt>
      <trkpt lat="42.94385" lon="0.33279">
        <ele>1447.4</ele>
        <time>2025-07-22T04:39:56Z</time>
      </trkpt>
      <trkpt lat="42.94385" lon="0.33273">
        <ele>1447.6</ele>
        <time>2025-07-22T04:39:58Z</time>
      </trkpt>
      <trkpt lat="42.94378" lon="0.33265">
        <ele>1448.2</ele>
        <time>2025-07-22T04:40:01Z</time>
      </trkpt>
      <trkpt lat="42.94377" lon="0.33261">
        <ele>1448.6</ele>
        <time>2025-07-22T04:40:02Z</time>
      </trkpt>
      <trkpt lat="42.94376" lon="0.33244">
        <ele>1449.4</ele>
        <time>2025-07-22T04:40:07Z</time>
      </trkpt>
      <trkpt lat="42.94378" lon="0.33238">
        <ele>1449.8</ele>
        <time>2025-07-22T04:40:10Z</time>
      </trkpt>
      <trkpt lat="42.94378" lon="0.33227">
        <ele>1450.6</ele>
        <time>2025-07-22T04:40:14Z</time>
      </trkpt>
      <trkpt lat="42.94375" lon="0.3321">
        <ele>1451.6</ele>
        <time>2025-07-22T04:40:21Z</time>
      </trkpt>
      <trkpt lat="42.94375" lon="0.33205">
        <ele>1452</ele>
        <time>2025-07-22T04:40:23Z</time>
      </trkpt>
      <trkpt lat="42.94369" lon="0.33196">
        <ele>1452.8</ele>
        <time>2025-07-22T04:40:27Z</time>
      </trkpt>
      <trkpt lat="42.94368" lon="0.33195">
        <ele>1452.8</ele>
        <time>2025-07-22T04:40:28Z</time>
      </trkpt>
      <trkpt lat="42.94354" lon="0.33188">
        <ele>1453.6</ele>
        <time>2025-07-22T04:40:35Z</time>
      </trkpt>
      <trkpt lat="42.94348" lon="0.33185">
        <ele>1454</ele>
        <time>2025-07-22T04:40:38Z</time>
      </trkpt>
      <trkpt lat="42.94338" lon="0.33177">
        <ele>1454.6</ele>
        <time>2025-07-22T04:40:44Z</time>
      </trkpt>
      <trkpt lat="42.94335" lon="0.3317">
        <ele>1455</ele>
        <time>2025-07-22T04:40:47Z</time>
      </trkpt>
      <trkpt lat="42.9433" lon="0.33155">
        <ele>1456</ele>
        <time>2025-07-22T04:40:53Z</time>
      </trkpt>
      <trkpt lat="42.94328" lon="0.33144">
        <ele>1457</ele>
        <time>2025-07-22T04:40:57Z</time>
      </trkpt>
      <trkpt lat="42.94326" lon="0.33134">
        <ele>1457.4</ele>
        <time>2025-07-22T04:41:01Z</time>
      </trkpt>
      <trkpt lat="42.94322" lon="0.33121">
        <ele>1458</ele>
        <time>2025-07-22T04:41:06Z</time>
      </trkpt>
      <trkpt lat="42.94317" lon="0.33113">
        <ele>1458.8</ele>
        <time>2025-07-22T04:41:10Z</time>
      </trkpt>
      <trkpt lat="42.94316" lon="0.33111">
        <ele>1459.2</ele>
        <time>2025-07-22T04:41:11Z</time>
      </trkpt>
      <trkpt lat="42.94312" lon="0.33109">
        <ele>1459.6</ele>
        <time>2025-07-22T04:41:13Z</time>
      </trkpt>
      <trkpt lat="42.94308" lon="0.33105">
        <ele>1459.8</ele>
        <time>2025-07-22T04:41:15Z</time>
      </trkpt>
      <trkpt lat="42.94305" lon="0.33103">
        <ele>1460.2</ele>
        <time>2025-07-22T04:41:17Z</time>
      </trkpt>
      <trkpt lat="42.94294" lon="0.33093">
        <ele>1461.2</ele>
        <time>2025-07-22T04:41:23Z</time>
      </trkpt>
      <trkpt lat="42.94292" lon="0.33074">
        <ele>1462.6</ele>
        <time>2025-07-22T04:41:30Z</time>
      </trkpt>
      <trkpt lat="42.94292" lon="0.33058">
        <ele>1463.6</ele>
        <time>2025-07-22T04:41:36Z</time>
      </trkpt>
      <trkpt lat="42.94292" lon="0.33056">
        <ele>1463.8</ele>
        <time>2025-07-22T04:41:37Z</time>
      </trkpt>
      <trkpt lat="42.94291" lon="0.3304">
        <ele>1464.8</ele>
        <time>2025-07-22T04:41:43Z</time>
      </trkpt>
      <trkpt lat="42.94291" lon="0.33038">
        <ele>1465</ele>
        <time>2025-07-22T04:41:44Z</time>
      </trkpt>
      <trkpt lat="42.94289" lon="0.33022">
        <ele>1466</ele>
        <time>2025-07-22T04:41:50Z</time>
      </trkpt>
      <trkpt lat="42.94289" lon="0.3302">
        <ele>1466</ele>
        <time>2025-07-22T04:41:51Z</time>
      </trkpt>
      <trkpt lat="42.94288" lon="0.33004">
        <ele>1467</ele>
        <time>2025-07-22T04:41:57Z</time>
      </trkpt>
      <trkpt lat="42.94287" lon="0.32996">
        <ele>1467.6</ele>
        <time>2025-07-22T04:42:00Z</time>
      </trkpt>
      <trkpt lat="42.94286" lon="0.32988">
        <ele>1468</ele>
        <time>2025-07-22T04:42:03Z</time>
      </trkpt>
      <trkpt lat="42.94285" lon="0.32975">
        <ele>1469.2</ele>
        <time>2025-07-22T04:42:08Z</time>
      </trkpt>
      <trkpt lat="42.94284" lon="0.3296">
        <ele>1470.2</ele>
        <time>2025-07-22T04:42:14Z</time>
      </trkpt>
      <trkpt lat="42.94283" lon="0.32949">
        <ele>1471</ele>
        <time>2025-07-22T04:42:18Z</time>
      </trkpt>
      <trkpt lat="42.94282" lon="0.32944">
        <ele>1471.4</ele>
        <time>2025-07-22T04:42:20Z</time>
      </trkpt>
      <trkpt lat="42.94274" lon="0.32927">
        <ele>1472.6</ele>
        <time>2025-07-22T04:42:27Z</time>
      </trkpt>
      <trkpt lat="42.94267" lon="0.32918">
        <ele>1473.6</ele>
        <time>2025-07-22T04:42:32Z</time>
      </trkpt>
      <trkpt lat="42.94264" lon="0.32911">
        <ele>1474.2</ele>
        <time>2025-07-22T04:42:35Z</time>
      </trkpt>
      <trkpt lat="42.94261" lon="0.32902">
        <ele>1474.8</ele>
        <time>2025-07-22T04:42:39Z</time>
      </trkpt>
      <trkpt lat="42.94255" lon="0.32884">
        <ele>1476</ele>
        <time>2025-07-22T04:42:46Z</time>
      </trkpt>
      <trkpt lat="42.94253" lon="0.32868">
        <ele>1477</ele>
        <time>2025-07-22T04:42:52Z</time>
      </trkpt>
      <trkpt lat="42.94251" lon="0.32858">
        <ele>1478</ele>
        <time>2025-07-22T04:42:56Z</time>
      </trkpt>
      <trkpt lat="42.9425" lon="0.32855">
        <ele>1478.2</ele>
        <time>2025-07-22T04:42:57Z</time>
      </trkpt>
      <trkpt lat="42.94244" lon="0.32838">
        <ele>1479.4</ele>
        <time>2025-07-22T04:43:04Z</time>
      </trkpt>
      <trkpt lat="42.94241" lon="0.32831">
        <ele>1479.8</ele>
        <time>2025-07-22T04:43:07Z</time>
      </trkpt>
      <trkpt lat="42.94237" lon="0.32821">
        <ele>1480.6</ele>
        <time>2025-07-22T04:43:11Z</time>
      </trkpt>
      <trkpt lat="42.94231" lon="0.32806">
        <ele>1481.6</ele>
        <time>2025-07-22T04:43:17Z</time>
      </trkpt>
      <trkpt lat="42.94229" lon="0.32787">
        <ele>1482.8</ele>
        <time>2025-07-22T04:43:24Z</time>
      </trkpt>
      <trkpt lat="42.94228" lon="0.32779">
        <ele>1483.4</ele>
        <time>2025-07-22T04:43:27Z</time>
      </trkpt>
      <trkpt lat="42.94228" lon="0.32768">
        <ele>1484</ele>
        <time>2025-07-22T04:43:31Z</time>
      </trkpt>
      <trkpt lat="42.94229" lon="0.32759">
        <ele>1484.4</ele>
        <time>2025-07-22T04:43:34Z</time>
      </trkpt>
      <trkpt lat="42.94232" lon="0.32752">
        <ele>1485</ele>
        <time>2025-07-22T04:43:37Z</time>
      </trkpt>
      <trkpt lat="42.94235" lon="0.32743">
        <ele>1485.8</ele>
        <time>2025-07-22T04:43:42Z</time>
      </trkpt>
      <trkpt lat="42.94236" lon="0.32743">
        <ele>1486</ele>
        <time>2025-07-22T04:43:45Z</time>
      </trkpt>
      <trkpt lat="42.9424" lon="0.32722">
        <ele>1486.6</ele>
        <time>2025-07-22T04:53:23Z</time>
      </trkpt>
      <trkpt lat="42.94241" lon="0.32719">
        <ele>1486.6</ele>
        <time>2025-07-22T04:53:24Z</time>
      </trkpt>
      <trkpt lat="42.94254" lon="0.32705">
        <ele>1486.4</ele>
        <time>2025-07-22T04:53:30Z</time>
      </trkpt>
      <trkpt lat="42.94273" lon="0.32687">
        <ele>1486</ele>
        <time>2025-07-22T04:53:35Z</time>
      </trkpt>
      <trkpt lat="42.94289" lon="0.32669">
        <ele>1485.2</ele>
        <time>2025-07-22T04:53:39Z</time>
      </trkpt>
      <trkpt lat="42.94296" lon="0.32659">
        <ele>1484.8</ele>
        <time>2025-07-22T04:53:41Z</time>
      </trkpt>
      <trkpt lat="42.943" lon="0.32652">
        <ele>1484.4</ele>
        <time>2025-07-22T04:53:42Z</time>
      </trkpt>
      <trkpt lat="42.94304" lon="0.32645">
        <ele>1484</ele>
        <time>2025-07-22T04:53:43Z</time>
      </trkpt>
      <trkpt lat="42.94316" lon="0.32621">
        <ele>1483</ele>
        <time>2025-07-22T04:53:46Z</time>
      </trkpt>
      <trkpt lat="42.94319" lon="0.32612">
        <ele>1482.6</ele>
        <time>2025-07-22T04:53:47Z</time>
      </trkpt>
      <trkpt lat="42.94327" lon="0.32584">
        <ele>1481.2</ele>
        <time>2025-07-22T04:53:50Z</time>
      </trkpt>
      <trkpt lat="42.94331" lon="0.32565">
        <ele>1480.2</ele>
        <time>2025-07-22T04:53:52Z</time>
      </trkpt>
      <trkpt lat="42.94336" lon="0.32532">
        <ele>1478.8</ele>
        <time>2025-07-22T04:53:55Z</time>
      </trkpt>
      <trkpt lat="42.9434" lon="0.32509">
        <ele>1478</ele>
        <time>2025-07-22T04:53:57Z</time>
      </trkpt>
      <trkpt lat="42.94342" lon="0.32498">
        <ele>1477.6</ele>
        <time>2025-07-22T04:53:58Z</time>
      </trkpt>
      <trkpt lat="42.94346" lon="0.32474">
        <ele>1476.2</ele>
        <time>2025-07-22T04:54:00Z</time>
      </trkpt>
      <trkpt lat="42.94351" lon="0.32453">
        <ele>1475.2</ele>
        <time>2025-07-22T04:54:02Z</time>
      </trkpt>
      <trkpt lat="42.94354" lon="0.32442">
        <ele>1474.8</ele>
        <time>2025-07-22T04:54:03Z</time>
      </trkpt>
      <trkpt lat="42.94357" lon="0.3243">
        <ele>1474</ele>
        <time>2025-07-22T04:54:04Z</time>
      </trkpt>
      <trkpt lat="42.9436" lon="0.32406">
        <ele>1473</ele>
        <time>2025-07-22T04:54:06Z</time>
      </trkpt>
      <trkpt lat="42.94361" lon="0.32393">
        <ele>1471.8</ele>
        <time>2025-07-22T04:54:07Z</time>
      </trkpt>
      <trkpt lat="42.94362" lon="0.32366">
        <ele>1470.6</ele>
        <time>2025-07-22T04:54:09Z</time>
      </trkpt>
      <trkpt lat="42.94364" lon="0.32341">
        <ele>1469.2</ele>
        <time>2025-07-22T04:54:11Z</time>
      </trkpt>
      <trkpt lat="42.94366" lon="0.32329">
        <ele>1468.2</ele>
        <time>2025-07-22T04:54:12Z</time>
      </trkpt>
      <trkpt lat="42.94369" lon="0.32318">
        <ele>1467.8</ele>
        <time>2025-07-22T04:54:13Z</time>
      </trkpt>
      <trkpt lat="42.94373" lon="0.32306">
        <ele>1467</ele>
        <time>2025-07-22T04:54:14Z</time>
      </trkpt>
      <trkpt lat="42.94378" lon="0.32296">
        <ele>1466.2</ele>
        <time>2025-07-22T04:54:15Z</time>
      </trkpt>
      <trkpt lat="42.94383" lon="0.32286">
        <ele>1465.6</ele>
        <time>2025-07-22T04:54:16Z</time>
      </trkpt>
      <trkpt lat="42.94389" lon="0.32275">
        <ele>1464.8</ele>
        <time>2025-07-22T04:54:17Z</time>
      </trkpt>
      <trkpt lat="42.944" lon="0.32255">
        <ele>1463.4</ele>
        <time>2025-07-22T04:54:19Z</time>
      </trkpt>
      <trkpt lat="42.9441" lon="0.32234">
        <ele>1462.4</ele>
        <time>2025-07-22T04:54:21Z</time>
      </trkpt>
      <trkpt lat="42.94415" lon="0.32223">
        <ele>1461.6</ele>
        <time>2025-07-22T04:54:22Z</time>
      </trkpt>
      <trkpt lat="42.94419" lon="0.32212">
        <ele>1461</ele>
        <time>2025-07-22T04:54:23Z</time>
      </trkpt>
      <trkpt lat="42.94429" lon="0.3219">
        <ele>1459.6</ele>
        <time>2025-07-22T04:54:25Z</time>
      </trkpt>
      <trkpt lat="42.94438" lon="0.32167">
        <ele>1458.4</ele>
        <time>2025-07-22T04:54:27Z</time>
      </trkpt>
      <trkpt lat="42.94448" lon="0.32144">
        <ele>1457</ele>
        <time>2025-07-22T04:54:29Z</time>
      </trkpt>
      <trkpt lat="42.94458" lon="0.3212">
        <ele>1455.8</ele>
        <time>2025-07-22T04:54:31Z</time>
      </trkpt>
      <trkpt lat="42.94463" lon="0.32108">
        <ele>1454.6</ele>
        <time>2025-07-22T04:54:32Z</time>
      </trkpt>
      <trkpt lat="42.94472" lon="0.32085">
        <ele>1453.4</ele>
        <time>2025-07-22T04:54:34Z</time>
      </trkpt>
      <trkpt lat="42.94477" lon="0.32074">
        <ele>1452.4</ele>
        <time>2025-07-22T04:54:35Z</time>
      </trkpt>
      <trkpt lat="42.94485" lon="0.32053">
        <ele>1450.8</ele>
        <time>2025-07-22T04:54:37Z</time>
      </trkpt>
      <trkpt lat="42.9449" lon="0.32043">
        <ele>1450.4</ele>
        <time>2025-07-22T04:54:38Z</time>
      </trkpt>
      <trkpt lat="42.94494" lon="0.32033">
        <ele>1449.8</ele>
        <time>2025-07-22T04:54:39Z</time>
      </trkpt>
      <trkpt lat="42.94505" lon="0.32014">
        <ele>1448.8</ele>
        <time>2025-07-22T04:54:41Z</time>
      </trkpt>
      <trkpt lat="42.9451" lon="0.32004">
        <ele>1447.6</ele>
        <time>2025-07-22T04:54:42Z</time>
      </trkpt>
      <trkpt lat="42.94521" lon="0.31985">
        <ele>1446.4</ele>
        <time>2025-07-22T04:54:44Z</time>
      </trkpt>
      <trkpt lat="42.94533" lon="0.31967">
        <ele>1445.2</ele>
        <time>2025-07-22T04:54:46Z</time>
      </trkpt>
      <trkpt lat="42.94544" lon="0.31948">
        <ele>1444.2</ele>
        <time>2025-07-22T04:54:48Z</time>
      </trkpt>
      <trkpt lat="42.94555" lon="0.3193">
        <ele>1442.8</ele>
        <time>2025-07-22T04:54:50Z</time>
      </trkpt>
      <trkpt lat="42.94564" lon="0.31908">
        <ele>1441</ele>
        <time>2025-07-22T04:54:52Z</time>
      </trkpt>
      <trkpt lat="42.94568" lon="0.31897">
        <ele>1440.8</ele>
        <time>2025-07-22T04:54:53Z</time>
      </trkpt>
      <trkpt lat="42.94571" lon="0.31885">
        <ele>1440.2</ele>
        <time>2025-07-22T04:54:54Z</time>
      </trkpt>
      <trkpt lat="42.94574" lon="0.31873">
        <ele>1439.6</ele>
        <time>2025-07-22T04:54:55Z</time>
      </trkpt>
      <trkpt lat="42.94581" lon="0.31849">
        <ele>1438</ele>
        <time>2025-07-22T04:54:57Z</time>
      </trkpt>
      <trkpt lat="42.94585" lon="0.31837">
        <ele>1437.4</ele>
        <time>2025-07-22T04:54:58Z</time>
      </trkpt>
      <trkpt lat="42.94589" lon="0.31825">
        <ele>1436.6</ele>
        <time>2025-07-22T04:54:59Z</time>
      </trkpt>
      <trkpt lat="42.94597" lon="0.318">
        <ele>1434.8</ele>
        <time>2025-07-22T04:55:01Z</time>
      </trkpt>
      <trkpt lat="42.94607" lon="0.31777">
        <ele>1433.6</ele>
        <time>2025-07-22T04:55:03Z</time>
      </trkpt>
      <trkpt lat="42.9462" lon="0.31756">
        <ele>1432.4</ele>
        <time>2025-07-22T04:55:05Z</time>
      </trkpt>
      <trkpt lat="42.94635" lon="0.31742">
        <ele>1430.6</ele>
        <time>2025-07-22T04:55:07Z</time>
      </trkpt>
      <trkpt lat="42.94648" lon="0.3173">
        <ele>1429.2</ele>
        <time>2025-07-22T04:55:09Z</time>
      </trkpt>
      <trkpt lat="42.94653" lon="0.31723">
        <ele>1428.8</ele>
        <time>2025-07-22T04:55:10Z</time>
      </trkpt>
      <trkpt lat="42.94655" lon="0.31715">
        <ele>1427.8</ele>
        <time>2025-07-22T04:55:11Z</time>
      </trkpt>
      <trkpt lat="42.94654" lon="0.31705">
        <ele>1426.8</ele>
        <time>2025-07-22T04:55:12Z</time>
      </trkpt>
      <trkpt lat="42.94652" lon="0.31697">
        <ele>1426.6</ele>
        <time>2025-07-22T04:55:13Z</time>
      </trkpt>
      <trkpt lat="42.94643" lon="0.31679">
        <ele>1425.6</ele>
        <time>2025-07-22T04:55:15Z</time>
      </trkpt>
      <trkpt lat="42.94638" lon="0.31671">
        <ele>1425.2</ele>
        <time>2025-07-22T04:55:16Z</time>
      </trkpt>
      <trkpt lat="42.94621" lon="0.31645">
        <ele>1423.6</ele>
        <time>2025-07-22T04:55:19Z</time>
      </trkpt>
      <trkpt lat="42.94613" lon="0.31638">
        <ele>1423.2</ele>
        <time>2025-07-22T04:55:20Z</time>
      </trkpt>
      <trkpt lat="42.94606" lon="0.31632">
        <ele>1423</ele>
        <time>2025-07-22T04:55:21Z</time>
      </trkpt>
      <trkpt lat="42.94598" lon="0.31627">
        <ele>1422</ele>
        <time>2025-07-22T04:55:22Z</time>
      </trkpt>
      <trkpt lat="42.9459" lon="0.31621">
        <ele>1421.8</ele>
        <time>2025-07-22T04:55:23Z</time>
      </trkpt>
      <trkpt lat="42.94582" lon="0.31614">
        <ele>1421</ele>
        <time>2025-07-22T04:55:24Z</time>
      </trkpt>
      <trkpt lat="42.94567" lon="0.31598">
        <ele>1420</ele>
        <time>2025-07-22T04:55:26Z</time>
      </trkpt>
      <trkpt lat="42.94552" lon="0.31579">
        <ele>1418.8</ele>
        <time>2025-07-22T04:55:28Z</time>
      </trkpt>
      <trkpt lat="42.94538" lon="0.3156">
        <ele>1417.4</ele>
        <time>2025-07-22T04:55:30Z</time>
      </trkpt>
      <trkpt lat="42.94532" lon="0.3155">
        <ele>1416.2</ele>
        <time>2025-07-22T04:55:31Z</time>
      </trkpt>
      <trkpt lat="42.94519" lon="0.31531">
        <ele>1414.8</ele>
        <time>2025-07-22T04:55:33Z</time>
      </trkpt>
      <trkpt lat="42.94505" lon="0.31511">
        <ele>1413.4</ele>
        <time>2025-07-22T04:55:35Z</time>
      </trkpt>
      <trkpt lat="42.94499" lon="0.31502">
        <ele>1412.2</ele>
        <time>2025-07-22T04:55:36Z</time>
      </trkpt>
      <trkpt lat="42.94487" lon="0.31482">
        <ele>1411</ele>
        <time>2025-07-22T04:55:38Z</time>
      </trkpt>
      <trkpt lat="42.94479" lon="0.31458">
        <ele>1409.6</ele>
        <time>2025-07-22T04:55:40Z</time>
      </trkpt>
      <trkpt lat="42.94472" lon="0.31434">
        <ele>1408.2</ele>
        <time>2025-07-22T04:55:42Z</time>
      </trkpt>
      <trkpt lat="42.94463" lon="0.31411">
        <ele>1406.2</ele>
        <time>2025-07-22T04:55:44Z</time>
      </trkpt>
      <trkpt lat="42.94458" lon="0.314">
        <ele>1406</ele>
        <time>2025-07-22T04:55:45Z</time>
      </trkpt>
      <trkpt lat="42.94452" lon="0.31389">
        <ele>1405.2</ele>
        <time>2025-07-22T04:55:46Z</time>
      </trkpt>
      <trkpt lat="42.94442" lon="0.31366">
        <ele>1404</ele>
        <time>2025-07-22T04:55:48Z</time>
      </trkpt>
      <trkpt lat="42.94437" lon="0.31354">
        <ele>1402.8</ele>
        <time>2025-07-22T04:55:49Z</time>
      </trkpt>
      <trkpt lat="42.94427" lon="0.31331">
        <ele>1401.6</ele>
        <time>2025-07-22T04:55:51Z</time>
      </trkpt>
      <trkpt lat="42.94416" lon="0.31307">
        <ele>1400.2</ele>
        <time>2025-07-22T04:55:53Z</time>
      </trkpt>
      <trkpt lat="42.94404" lon="0.31286">
        <ele>1398.8</ele>
        <time>2025-07-22T04:55:55Z</time>
      </trkpt>
      <trkpt lat="42.94397" lon="0.31276">
        <ele>1398</ele>
        <time>2025-07-22T04:55:56Z</time>
      </trkpt>
      <trkpt lat="42.9439" lon="0.31267">
        <ele>1397.4</ele>
        <time>2025-07-22T04:55:57Z</time>
      </trkpt>
      <trkpt lat="42.94374" lon="0.31253">
        <ele>1396</ele>
        <time>2025-07-22T04:55:59Z</time>
      </trkpt>
      <trkpt lat="42.94358" lon="0.31238">
        <ele>1394.8</ele>
        <time>2025-07-22T04:56:01Z</time>
      </trkpt>
      <trkpt lat="42.9435" lon="0.31229">
        <ele>1394.4</ele>
        <time>2025-07-22T04:56:02Z</time>
      </trkpt>
      <trkpt lat="42.94343" lon="0.31219">
        <ele>1393.6</ele>
        <time>2025-07-22T04:56:03Z</time>
      </trkpt>
      <trkpt lat="42.9433" lon="0.31198">
        <ele>1392.4</ele>
        <time>2025-07-22T04:56:05Z</time>
      </trkpt>
      <trkpt lat="42.94308" lon="0.31169">
        <ele>1390.8</ele>
        <time>2025-07-22T04:56:08Z</time>
      </trkpt>
      <trkpt lat="42.94294" lon="0.31154">
        <ele>1389.4</ele>
        <time>2025-07-22T04:56:10Z</time>
      </trkpt>
      <trkpt lat="42.94285" lon="0.31148">
        <ele>1388.4</ele>
        <time>2025-07-22T04:56:11Z</time>
      </trkpt>
      <trkpt lat="42.94277" lon="0.31146">
        <ele>1388</ele>
        <time>2025-07-22T04:56:12Z</time>
      </trkpt>
      <trkpt lat="42.94261" lon="0.31143">
        <ele>1386.2</ele>
        <time>2025-07-22T04:56:14Z</time>
      </trkpt>
      <trkpt lat="42.94249" lon="0.31133">
        <ele>1384.8</ele>
        <time>2025-07-22T04:56:16Z</time>
      </trkpt>
      <trkpt lat="42.94246" lon="0.31125">
        <ele>1384.2</ele>
        <time>2025-07-22T04:56:17Z</time>
      </trkpt>
      <trkpt lat="42.94245" lon="0.31115">
        <ele>1383.2</ele>
        <time>2025-07-22T04:56:18Z</time>
      </trkpt>
      <trkpt lat="42.94245" lon="0.31104">
        <ele>1382.2</ele>
        <time>2025-07-22T04:56:19Z</time>
      </trkpt>
      <trkpt lat="42.94245" lon="0.31092">
        <ele>1381.8</ele>
        <time>2025-07-22T04:56:20Z</time>
      </trkpt>
      <trkpt lat="42.94246" lon="0.3108">
        <ele>1381</ele>
        <time>2025-07-22T04:56:21Z</time>
      </trkpt>
      <trkpt lat="42.9425" lon="0.31045">
        <ele>1379.6</ele>
        <time>2025-07-22T04:56:24Z</time>
      </trkpt>
      <trkpt lat="42.94251" lon="0.31021">
        <ele>1378.4</ele>
        <time>2025-07-22T04:56:26Z</time>
      </trkpt>
      <trkpt lat="42.94252" lon="0.30999">
        <ele>1376.8</ele>
        <time>2025-07-22T04:56:28Z</time>
      </trkpt>
      <trkpt lat="42.94253" lon="0.30987">
        <ele>1375.8</ele>
        <time>2025-07-22T04:56:29Z</time>
      </trkpt>
      <trkpt lat="42.94254" lon="0.30974">
        <ele>1375.2</ele>
        <time>2025-07-22T04:56:30Z</time>
      </trkpt>
      <trkpt lat="42.94255" lon="0.30962">
        <ele>1374.2</ele>
        <time>2025-07-22T04:56:31Z</time>
      </trkpt>
      <trkpt lat="42.94257" lon="0.30938">
        <ele>1372.8</ele>
        <time>2025-07-22T04:56:33Z</time>
      </trkpt>
      <trkpt lat="42.9426" lon="0.30913">
        <ele>1371.8</ele>
        <time>2025-07-22T04:56:35Z</time>
      </trkpt>
      <trkpt lat="42.94262" lon="0.30901">
        <ele>1370.6</ele>
        <time>2025-07-22T04:56:36Z</time>
      </trkpt>
      <trkpt lat="42.94266" lon="0.30875">
        <ele>1369</ele>
        <time>2025-07-22T04:56:38Z</time>
      </trkpt>
      <trkpt lat="42.94271" lon="0.30849">
        <ele>1367.8</ele>
        <time>2025-07-22T04:56:40Z</time>
      </trkpt>
      <trkpt lat="42.94276" lon="0.30823">
        <ele>1366.4</ele>
        <time>2025-07-22T04:56:42Z</time>
      </trkpt>
      <trkpt lat="42.94279" lon="0.30811">
        <ele>1365</ele>
        <time>2025-07-22T04:56:43Z</time>
      </trkpt>
      <trkpt lat="42.94282" lon="0.30798">
        <ele>1364.6</ele>
        <time>2025-07-22T04:56:44Z</time>
      </trkpt>
      <trkpt lat="42.94286" lon="0.30786">
        <ele>1363.4</ele>
        <time>2025-07-22T04:56:45Z</time>
      </trkpt>
      <trkpt lat="42.9429" lon="0.30775">
        <ele>1362</ele>
        <time>2025-07-22T04:56:46Z</time>
      </trkpt>
      <trkpt lat="42.94298" lon="0.30753">
        <ele>1360.6</ele>
        <time>2025-07-22T04:56:48Z</time>
      </trkpt>
      <trkpt lat="42.94302" lon="0.30744">
        <ele>1360.2</ele>
        <time>2025-07-22T04:56:49Z</time>
      </trkpt>
      <trkpt lat="42.94306" lon="0.30736">
        <ele>1359.4</ele>
        <time>2025-07-22T04:56:50Z</time>
      </trkpt>
      <trkpt lat="42.9431" lon="0.30727">
        <ele>1357.8</ele>
        <time>2025-07-22T04:56:51Z</time>
      </trkpt>
      <trkpt lat="42.94311" lon="0.30709">
        <ele>1356.2</ele>
        <time>2025-07-22T04:56:53Z</time>
      </trkpt>
      <trkpt lat="42.94303" lon="0.30693">
        <ele>1354.8</ele>
        <time>2025-07-22T04:56:55Z</time>
      </trkpt>
      <trkpt lat="42.94297" lon="0.30686">
        <ele>1354</ele>
        <time>2025-07-22T04:56:56Z</time>
      </trkpt>
      <trkpt lat="42.94291" lon="0.3068">
        <ele>1353.6</ele>
        <time>2025-07-22T04:56:57Z</time>
      </trkpt>
      <trkpt lat="42.94287" lon="0.30673">
        <ele>1352.6</ele>
        <time>2025-07-22T04:56:58Z</time>
      </trkpt>
      <trkpt lat="42.94284" lon="0.30662">
        <ele>1352.2</ele>
        <time>2025-07-22T04:56:59Z</time>
      </trkpt>
      <trkpt lat="42.94283" lon="0.30652">
        <ele>1351.2</ele>
        <time>2025-07-22T04:57:00Z</time>
      </trkpt>
      <trkpt lat="42.94283" lon="0.30641">
        <ele>1350.6</ele>
        <time>2025-07-22T04:57:01Z</time>
      </trkpt>
      <trkpt lat="42.94283" lon="0.30632">
        <ele>1350.2</ele>
        <time>2025-07-22T04:57:02Z</time>
      </trkpt>
      <trkpt lat="42.94282" lon="0.30616">
        <ele>1349.4</ele>
        <time>2025-07-22T04:57:03Z</time>
      </trkpt>
      <trkpt lat="42.94283" lon="0.30591">
        <ele>1348.2</ele>
        <time>2025-07-22T04:57:05Z</time>
      </trkpt>
      <trkpt lat="42.94284" lon="0.30572">
        <ele>1346.8</ele>
        <time>2025-07-22T04:57:07Z</time>
      </trkpt>
      <trkpt lat="42.94282" lon="0.30555">
        <ele>1345.4</ele>
        <time>2025-07-22T04:57:09Z</time>
      </trkpt>
      <trkpt lat="42.94279" lon="0.30549">
        <ele>1344.4</ele>
        <time>2025-07-22T04:57:10Z</time>
      </trkpt>
      <trkpt lat="42.94272" lon="0.30543">
        <ele>1343.4</ele>
        <time>2025-07-22T04:57:11Z</time>
      </trkpt>
      <trkpt lat="42.94264" lon="0.3054">
        <ele>1343</ele>
        <time>2025-07-22T04:57:12Z</time>
      </trkpt>
      <trkpt lat="42.94257" lon="0.30538">
        <ele>1342</ele>
        <time>2025-07-22T04:57:13Z</time>
      </trkpt>
      <trkpt lat="42.94241" lon="0.30531">
        <ele>1340.8</ele>
        <time>2025-07-22T04:57:15Z</time>
      </trkpt>
      <trkpt lat="42.94231" lon="0.30515">
        <ele>1339.4</ele>
        <time>2025-07-22T04:57:17Z</time>
      </trkpt>
      <trkpt lat="42.94229" lon="0.30506">
        <ele>1338.4</ele>
        <time>2025-07-22T04:57:18Z</time>
      </trkpt>
      <trkpt lat="42.94228" lon="0.30493">
        <ele>1338</ele>
        <time>2025-07-22T04:57:19Z</time>
      </trkpt>
      <trkpt lat="42.94226" lon="0.30482">
        <ele>1337.4</ele>
        <time>2025-07-22T04:57:20Z</time>
      </trkpt>
      <trkpt lat="42.94223" lon="0.30472">
        <ele>1336.6</ele>
        <time>2025-07-22T04:57:21Z</time>
      </trkpt>
      <trkpt lat="42.94218" lon="0.30461">
        <ele>1336.4</ele>
        <time>2025-07-22T04:57:22Z</time>
      </trkpt>
      <trkpt lat="42.94213" lon="0.30451">
        <ele>1335.6</ele>
        <time>2025-07-22T04:57:23Z</time>
      </trkpt>
      <trkpt lat="42.94199" lon="0.3042">
        <ele>1334.6</ele>
        <time>2025-07-22T04:57:26Z</time>
      </trkpt>
      <trkpt lat="42.94195" lon="0.30409">
        <ele>1333.4</ele>
        <time>2025-07-22T04:57:27Z</time>
      </trkpt>
      <trkpt lat="42.94187" lon="0.30386">
        <ele>1332</ele>
        <time>2025-07-22T04:57:29Z</time>
      </trkpt>
      <trkpt lat="42.9418" lon="0.30365">
        <ele>1331</ele>
        <time>2025-07-22T04:57:31Z</time>
      </trkpt>
      <trkpt lat="42.94176" lon="0.30356">
        <ele>1329.6</ele>
        <time>2025-07-22T04:57:32Z</time>
      </trkpt>
      <trkpt lat="42.94171" lon="0.30346">
        <ele>1328.6</ele>
        <time>2025-07-22T04:57:33Z</time>
      </trkpt>
      <trkpt lat="42.9416" lon="0.30324">
        <ele>1326.6</ele>
        <time>2025-07-22T04:57:35Z</time>
      </trkpt>
      <trkpt lat="42.94156" lon="0.30312">
        <ele>1326</ele>
        <time>2025-07-22T04:57:36Z</time>
      </trkpt>
      <trkpt lat="42.94153" lon="0.303">
        <ele>1325.2</ele>
        <time>2025-07-22T04:57:37Z</time>
      </trkpt>
      <trkpt lat="42.94151" lon="0.30288">
        <ele>1324</ele>
        <time>2025-07-22T04:57:38Z</time>
      </trkpt>
      <trkpt lat="42.94145" lon="0.30264">
        <ele>1322.2</ele>
        <time>2025-07-22T04:57:40Z</time>
      </trkpt>
      <trkpt lat="42.94134" lon="0.30244">
        <ele>1320.2</ele>
        <time>2025-07-22T04:57:42Z</time>
      </trkpt>
      <trkpt lat="42.94122" lon="0.30225">
        <ele>1319</ele>
        <time>2025-07-22T04:57:44Z</time>
      </trkpt>
      <trkpt lat="42.94106" lon="0.30212">
        <ele>1317.4</ele>
        <time>2025-07-22T04:57:46Z</time>
      </trkpt>
      <trkpt lat="42.94098" lon="0.30208">
        <ele>1316.4</ele>
        <time>2025-07-22T04:57:47Z</time>
      </trkpt>
      <trkpt lat="42.94089" lon="0.30204">
        <ele>1315.4</ele>
        <time>2025-07-22T04:57:48Z</time>
      </trkpt>
      <trkpt lat="42.94081" lon="0.30198">
        <ele>1314.8</ele>
        <time>2025-07-22T04:57:49Z</time>
      </trkpt>
      <trkpt lat="42.94074" lon="0.30191">
        <ele>1313.8</ele>
        <time>2025-07-22T04:57:50Z</time>
      </trkpt>
      <trkpt lat="42.94067" lon="0.30183">
        <ele>1313</ele>
        <time>2025-07-22T04:57:51Z</time>
      </trkpt>
      <trkpt lat="42.94061" lon="0.30174">
        <ele>1311.8</ele>
        <time>2025-07-22T04:57:52Z</time>
      </trkpt>
      <trkpt lat="42.94056" lon="0.30163">
        <ele>1310.8</ele>
        <time>2025-07-22T04:57:53Z</time>
      </trkpt>
      <trkpt lat="42.94052" lon="0.30152">
        <ele>1310.2</ele>
        <time>2025-07-22T04:57:54Z</time>
      </trkpt>
      <trkpt lat="42.94048" lon="0.3014">
        <ele>1309</ele>
        <time>2025-07-22T04:57:55Z</time>
      </trkpt>
      <trkpt lat="42.94039" lon="0.30117">
        <ele>1307.6</ele>
        <time>2025-07-22T04:57:57Z</time>
      </trkpt>
      <trkpt lat="42.94034" lon="0.30107">
        <ele>1306.8</ele>
        <time>2025-07-22T04:57:58Z</time>
      </trkpt>
      <trkpt lat="42.94029" lon="0.30097">
        <ele>1306</ele>
        <time>2025-07-22T04:57:59Z</time>
      </trkpt>
      <trkpt lat="42.94024" lon="0.30088">
        <ele>1304.6</ele>
        <time>2025-07-22T04:58:00Z</time>
      </trkpt>
      <trkpt lat="42.94019" lon="0.30079">
        <ele>1304.2</ele>
        <time>2025-07-22T04:58:01Z</time>
      </trkpt>
      <trkpt lat="42.94015" lon="0.3007">
        <ele>1303.4</ele>
        <time>2025-07-22T04:58:02Z</time>
      </trkpt>
      <trkpt lat="42.94007" lon="0.3005">
        <ele>1302</ele>
        <time>2025-07-22T04:58:04Z</time>
      </trkpt>
      <trkpt lat="42.94002" lon="0.30042">
        <ele>1301</ele>
        <time>2025-07-22T04:58:05Z</time>
      </trkpt>
      <trkpt lat="42.93995" lon="0.30037">
        <ele>1300.8</ele>
        <time>2025-07-22T04:58:06Z</time>
      </trkpt>
      <trkpt lat="42.93987" lon="0.30033">
        <ele>1299.4</ele>
        <time>2025-07-22T04:58:07Z</time>
      </trkpt>
      <trkpt lat="42.93979" lon="0.30031">
        <ele>1298.2</ele>
        <time>2025-07-22T04:58:08Z</time>
      </trkpt>
      <trkpt lat="42.93964" lon="0.30027">
        <ele>1296.8</ele>
        <time>2025-07-22T04:58:10Z</time>
      </trkpt>
      <trkpt lat="42.93953" lon="0.30016">
        <ele>1295.6</ele>
        <time>2025-07-22T04:58:12Z</time>
      </trkpt>
      <trkpt lat="42.93949" lon="0.29997">
        <ele>1294.2</ele>
        <time>2025-07-22T04:58:14Z</time>
      </trkpt>
      <trkpt lat="42.93949" lon="0.29986">
        <ele>1293</ele>
        <time>2025-07-22T04:58:15Z</time>
      </trkpt>
      <trkpt lat="42.93949" lon="0.29964">
        <ele>1291.6</ele>
        <time>2025-07-22T04:58:17Z</time>
      </trkpt>
      <trkpt lat="42.93949" lon="0.29953">
        <ele>1290.4</ele>
        <time>2025-07-22T04:58:18Z</time>
      </trkpt>
      <trkpt lat="42.93946" lon="0.29943">
        <ele>1290</ele>
        <time>2025-07-22T04:58:19Z</time>
      </trkpt>
      <trkpt lat="42.93942" lon="0.29934">
        <ele>1289.2</ele>
        <time>2025-07-22T04:58:20Z</time>
      </trkpt>
      <trkpt lat="42.93929" lon="0.29919">
        <ele>1287.8</ele>
        <time>2025-07-22T04:58:22Z</time>
      </trkpt>
      <trkpt lat="42.93916" lon="0.29907">
        <ele>1286.6</ele>
        <time>2025-07-22T04:58:24Z</time>
      </trkpt>
      <trkpt lat="42.93907" lon="0.29889">
        <ele>1285.2</ele>
        <time>2025-07-22T04:58:26Z</time>
      </trkpt>
      <trkpt lat="42.93906" lon="0.29866">
        <ele>1284.4</ele>
        <time>2025-07-22T04:58:28Z</time>
      </trkpt>
      <trkpt lat="42.93907" lon="0.29854">
        <ele>1283.6</ele>
        <time>2025-07-22T04:58:29Z</time>
      </trkpt>
      <trkpt lat="42.93909" lon="0.29842">
        <ele>1282.6</ele>
        <time>2025-07-22T04:58:30Z</time>
      </trkpt>
      <trkpt lat="42.93911" lon="0.29829">
        <ele>1281.8</ele>
        <time>2025-07-22T04:58:31Z</time>
      </trkpt>
      <trkpt lat="42.93917" lon="0.29805">
        <ele>1280.6</ele>
        <time>2025-07-22T04:58:33Z</time>
      </trkpt>
      <trkpt lat="42.93922" lon="0.29793">
        <ele>1279.4</ele>
        <time>2025-07-22T04:58:34Z</time>
      </trkpt>
      <trkpt lat="42.9393" lon="0.2977">
        <ele>1278.2</ele>
        <time>2025-07-22T04:58:36Z</time>
      </trkpt>
      <trkpt lat="42.93939" lon="0.29748">
        <ele>1276.8</ele>
        <time>2025-07-22T04:58:38Z</time>
      </trkpt>
      <trkpt lat="42.93944" lon="0.29737">
        <ele>1275.8</ele>
        <time>2025-07-22T04:58:39Z</time>
      </trkpt>
      <trkpt lat="42.93954" lon="0.29716">
        <ele>1274.2</ele>
        <time>2025-07-22T04:58:41Z</time>
      </trkpt>
      <trkpt lat="42.9396" lon="0.29707">
        <ele>1273.2</ele>
        <time>2025-07-22T04:58:42Z</time>
      </trkpt>
      <trkpt lat="42.93973" lon="0.29689">
        <ele>1271.8</ele>
        <time>2025-07-22T04:58:44Z</time>
      </trkpt>
      <trkpt lat="42.93988" lon="0.29679">
        <ele>1270.2</ele>
        <time>2025-07-22T04:58:46Z</time>
      </trkpt>
      <trkpt lat="42.93997" lon="0.29675">
        <ele>1269.2</ele>
        <time>2025-07-22T04:58:47Z</time>
      </trkpt>
      <trkpt lat="42.94013" lon="0.2967">
        <ele>1267.4</ele>
        <time>2025-07-22T04:58:49Z</time>
      </trkpt>
      <trkpt lat="42.94021" lon="0.29666">
        <ele>1266.2</ele>
        <time>2025-07-22T04:58:50Z</time>
      </trkpt>
      <trkpt lat="42.94027" lon="0.29661">
        <ele>1265.8</ele>
        <time>2025-07-22T04:58:51Z</time>
      </trkpt>
      <trkpt lat="42.94033" lon="0.29653">
        <ele>1264.6</ele>
        <time>2025-07-22T04:58:52Z</time>
      </trkpt>
      <trkpt lat="42.94036" lon="0.29642">
        <ele>1264</ele>
        <time>2025-07-22T04:58:53Z</time>
      </trkpt>
      <trkpt lat="42.94038" lon="0.2963">
        <ele>1263</ele>
        <time>2025-07-22T04:58:54Z</time>
      </trkpt>
      <trkpt lat="42.9404" lon="0.29617">
        <ele>1262</ele>
        <time>2025-07-22T04:58:55Z</time>
      </trkpt>
      <trkpt lat="42.94044" lon="0.29605">
        <ele>1261.4</ele>
        <time>2025-07-22T04:58:56Z</time>
      </trkpt>
      <trkpt lat="42.94048" lon="0.29592">
        <ele>1260.6</ele>
        <time>2025-07-22T04:58:57Z</time>
      </trkpt>
      <trkpt lat="42.94053" lon="0.2958">
        <ele>1259.8</ele>
        <time>2025-07-22T04:58:58Z</time>
      </trkpt>
      <trkpt lat="42.94059" lon="0.29569">
        <ele>1259</ele>
        <time>2025-07-22T04:58:59Z</time>
      </trkpt>
      <trkpt lat="42.94065" lon="0.29558">
        <ele>1257.8</ele>
        <time>2025-07-22T04:59:00Z</time>
      </trkpt>
      <trkpt lat="42.94075" lon="0.29535">
        <ele>1256.2</ele>
        <time>2025-07-22T04:59:02Z</time>
      </trkpt>
      <trkpt lat="42.94085" lon="0.29513">
        <ele>1254.4</ele>
        <time>2025-07-22T04:59:04Z</time>
      </trkpt>
      <trkpt lat="42.94093" lon="0.29489">
        <ele>1252.8</ele>
        <time>2025-07-22T04:59:06Z</time>
      </trkpt>
      <trkpt lat="42.94097" lon="0.29477">
        <ele>1251.4</ele>
        <time>2025-07-22T04:59:07Z</time>
      </trkpt>
      <trkpt lat="42.94105" lon="0.29453">
        <ele>1249.6</ele>
        <time>2025-07-22T04:59:09Z</time>
      </trkpt>
      <trkpt lat="42.94115" lon="0.29429">
        <ele>1248</ele>
        <time>2025-07-22T04:59:11Z</time>
      </trkpt>
      <trkpt lat="42.94128" lon="0.29409">
        <ele>1246.6</ele>
        <time>2025-07-22T04:59:13Z</time>
      </trkpt>
      <trkpt lat="42.94134" lon="0.29399">
        <ele>1245.4</ele>
        <time>2025-07-22T04:59:14Z</time>
      </trkpt>
      <trkpt lat="42.94148" lon="0.29378">
        <ele>1243.8</ele>
        <time>2025-07-22T04:59:16Z</time>
      </trkpt>
      <trkpt lat="42.94155" lon="0.29368">
        <ele>1242.4</ele>
        <time>2025-07-22T04:59:17Z</time>
      </trkpt>
      <trkpt lat="42.9417" lon="0.29349">
        <ele>1240.8</ele>
        <time>2025-07-22T04:59:19Z</time>
      </trkpt>
      <trkpt lat="42.94184" lon="0.2933">
        <ele>1238.8</ele>
        <time>2025-07-22T04:59:21Z</time>
      </trkpt>
      <trkpt lat="42.94191" lon="0.29322">
        <ele>1237.8</ele>
        <time>2025-07-22T04:59:22Z</time>
      </trkpt>
      <trkpt lat="42.94204" lon="0.29307">
        <ele>1236.2</ele>
        <time>2025-07-22T04:59:24Z</time>
      </trkpt>
      <trkpt lat="42.94212" lon="0.29302">
        <ele>1235.6</ele>
        <time>2025-07-22T04:59:25Z</time>
      </trkpt>
      <trkpt lat="42.94219" lon="0.29298">
        <ele>1234.4</ele>
        <time>2025-07-22T04:59:26Z</time>
      </trkpt>
      <trkpt lat="42.94227" lon="0.29295">
        <ele>1233</ele>
        <time>2025-07-22T04:59:27Z</time>
      </trkpt>
      <trkpt lat="42.94234" lon="0.29292">
        <ele>1232.4</ele>
        <time>2025-07-22T04:59:28Z</time>
      </trkpt>
      <trkpt lat="42.94241" lon="0.29287">
        <ele>1231.4</ele>
        <time>2025-07-22T04:59:29Z</time>
      </trkpt>
      <trkpt lat="42.94246" lon="0.2928">
        <ele>1231</ele>
        <time>2025-07-22T04:59:30Z</time>
      </trkpt>
      <trkpt lat="42.94249" lon="0.29272">
        <ele>1230</ele>
        <time>2025-07-22T04:59:31Z</time>
      </trkpt>
      <trkpt lat="42.9425" lon="0.29263">
        <ele>1228.8</ele>
        <time>2025-07-22T04:59:32Z</time>
      </trkpt>
      <trkpt lat="42.94246" lon="0.29247">
        <ele>1227.4</ele>
        <time>2025-07-22T04:59:34Z</time>
      </trkpt>
      <trkpt lat="42.94235" lon="0.2924">
        <ele>1226.2</ele>
        <time>2025-07-22T04:59:36Z</time>
      </trkpt>
      <trkpt lat="42.94228" lon="0.2924">
        <ele>1225.2</ele>
        <time>2025-07-22T04:59:37Z</time>
      </trkpt>
      <trkpt lat="42.9422" lon="0.29241">
        <ele>1225</ele>
        <time>2025-07-22T04:59:38Z</time>
      </trkpt>
      <trkpt lat="42.94196" lon="0.29246">
        <ele>1223.4</ele>
        <time>2025-07-22T04:59:41Z</time>
      </trkpt>
      <trkpt lat="42.94171" lon="0.29253">
        <ele>1221.6</ele>
        <time>2025-07-22T04:59:44Z</time>
      </trkpt>
      <trkpt lat="42.94153" lon="0.29259">
        <ele>1220.4</ele>
        <time>2025-07-22T04:59:46Z</time>
      </trkpt>
      <trkpt lat="42.94144" lon="0.29263">
        <ele>1219.6</ele>
        <time>2025-07-22T04:59:47Z</time>
      </trkpt>
      <trkpt lat="42.94135" lon="0.29267">
        <ele>1219.2</ele>
        <time>2025-07-22T04:59:48Z</time>
      </trkpt>
      <trkpt lat="42.94117" lon="0.29274">
        <ele>1218.2</ele>
        <time>2025-07-22T04:59:50Z</time>
      </trkpt>
      <trkpt lat="42.94108" lon="0.29277">
        <ele>1217.2</ele>
        <time>2025-07-22T04:59:51Z</time>
      </trkpt>
      <trkpt lat="42.94091" lon="0.29286">
        <ele>1215.8</ele>
        <time>2025-07-22T04:59:53Z</time>
      </trkpt>
      <trkpt lat="42.94076" lon="0.29296">
        <ele>1214.4</ele>
        <time>2025-07-22T04:59:55Z</time>
      </trkpt>
      <trkpt lat="42.94069" lon="0.29302">
        <ele>1213.2</ele>
        <time>2025-07-22T04:59:56Z</time>
      </trkpt>
      <trkpt lat="42.94063" lon="0.29309">
        <ele>1212.2</ele>
        <time>2025-07-22T04:59:57Z</time>
      </trkpt>
      <trkpt lat="42.94054" lon="0.29321">
        <ele>1211</ele>
        <time>2025-07-22T04:59:59Z</time>
      </trkpt>
      <trkpt lat="42.94049" lon="0.29324">
        <ele>1210.4</ele>
        <time>2025-07-22T05:00:00Z</time>
      </trkpt>
      <trkpt lat="42.94044" lon="0.29324">
        <ele>1209.2</ele>
        <time>2025-07-22T05:00:01Z</time>
      </trkpt>
      <trkpt lat="42.94039" lon="0.29314">
        <ele>1207.8</ele>
        <time>2025-07-22T05:00:03Z</time>
      </trkpt>
      <trkpt lat="42.9404" lon="0.29306">
        <ele>1206.8</ele>
        <time>2025-07-22T05:00:04Z</time>
      </trkpt>
      <trkpt lat="42.94048" lon="0.29291">
        <ele>1205.8</ele>
        <time>2025-07-22T05:00:06Z</time>
      </trkpt>
      <trkpt lat="42.94055" lon="0.29285">
        <ele>1205.4</ele>
        <time>2025-07-22T05:00:07Z</time>
      </trkpt>
      <trkpt lat="42.94067" lon="0.29271">
        <ele>1204</ele>
        <time>2025-07-22T05:00:09Z</time>
      </trkpt>
      <trkpt lat="42.94073" lon="0.29263">
        <ele>1203.6</ele>
        <time>2025-07-22T05:00:10Z</time>
      </trkpt>
      <trkpt lat="42.94078" lon="0.29254">
        <ele>1203</ele>
        <time>2025-07-22T05:00:11Z</time>
      </trkpt>
      <trkpt lat="42.94089" lon="0.29235">
        <ele>1201.8</ele>
        <time>2025-07-22T05:00:13Z</time>
      </trkpt>
      <trkpt lat="42.941" lon="0.29216">
        <ele>1200.6</ele>
        <time>2025-07-22T05:00:15Z</time>
      </trkpt>
      <trkpt lat="42.94111" lon="0.29197">
        <ele>1199.4</ele>
        <time>2025-07-22T05:00:17Z</time>
      </trkpt>
      <trkpt lat="42.94122" lon="0.29178">
        <ele>1197.8</ele>
        <time>2025-07-22T05:00:19Z</time>
      </trkpt>
      <trkpt lat="42.94133" lon="0.29158">
        <ele>1196.6</ele>
        <time>2025-07-22T05:00:21Z</time>
      </trkpt>
      <trkpt lat="42.94138" lon="0.29148">
        <ele>1196.2</ele>
        <time>2025-07-22T05:00:22Z</time>
      </trkpt>
      <trkpt lat="42.94144" lon="0.29138">
        <ele>1195</ele>
        <time>2025-07-22T05:00:23Z</time>
      </trkpt>
      <trkpt lat="42.9415" lon="0.29128">
        <ele>1194</ele>
        <time>2025-07-22T05:00:24Z</time>
      </trkpt>
      <trkpt lat="42.94163" lon="0.29109">
        <ele>1192.8</ele>
        <time>2025-07-22T05:00:26Z</time>
      </trkpt>
      <trkpt lat="42.9417" lon="0.291">
        <ele>1192.4</ele>
        <time>2025-07-22T05:00:27Z</time>
      </trkpt>
      <trkpt lat="42.94177" lon="0.29092">
        <ele>1191.4</ele>
        <time>2025-07-22T05:00:28Z</time>
      </trkpt>
      <trkpt lat="42.94191" lon="0.29076">
        <ele>1189.8</ele>
        <time>2025-07-22T05:00:30Z</time>
      </trkpt>
      <trkpt lat="42.94206" lon="0.29061">
        <ele>1188.4</ele>
        <time>2025-07-22T05:00:32Z</time>
      </trkpt>
      <trkpt lat="42.94214" lon="0.29055">
        <ele>1187.2</ele>
        <time>2025-07-22T05:00:33Z</time>
      </trkpt>
      <trkpt lat="42.9423" lon="0.29047">
        <ele>1185.8</ele>
        <time>2025-07-22T05:00:35Z</time>
      </trkpt>
      <trkpt lat="42.94238" lon="0.29045">
        <ele>1184.6</ele>
        <time>2025-07-22T05:00:36Z</time>
      </trkpt>
      <trkpt lat="42.94246" lon="0.29045">
        <ele>1184.2</ele>
        <time>2025-07-22T05:00:37Z</time>
      </trkpt>
      <trkpt lat="42.94254" lon="0.29046">
        <ele>1183</ele>
        <time>2025-07-22T05:00:38Z</time>
      </trkpt>
      <trkpt lat="42.94261" lon="0.29046">
        <ele>1181.8</ele>
        <time>2025-07-22T05:00:39Z</time>
      </trkpt>
      <trkpt lat="42.94267" lon="0.29045">
        <ele>1181.4</ele>
        <time>2025-07-22T05:00:40Z</time>
      </trkpt>
      <trkpt lat="42.94272" lon="0.29041">
        <ele>1180.4</ele>
        <time>2025-07-22T05:00:41Z</time>
      </trkpt>
      <trkpt lat="42.94275" lon="0.29036">
        <ele>1179.8</ele>
        <time>2025-07-22T05:00:42Z</time>
      </trkpt>
      <trkpt lat="42.94277" lon="0.29027">
        <ele>1178.8</ele>
        <time>2025-07-22T05:00:43Z</time>
      </trkpt>
      <trkpt lat="42.94272" lon="0.2902">
        <ele>1178.4</ele>
        <time>2025-07-22T05:00:44Z</time>
      </trkpt>
      <trkpt lat="42.94267" lon="0.29015">
        <ele>1177.4</ele>
        <time>2025-07-22T05:00:45Z</time>
      </trkpt>
      <trkpt lat="42.94261" lon="0.29012">
        <ele>1176.6</ele>
        <time>2025-07-22T05:00:46Z</time>
      </trkpt>
      <trkpt lat="42.94253" lon="0.2901">
        <ele>1176</ele>
        <time>2025-07-22T05:00:47Z</time>
      </trkpt>
      <trkpt lat="42.94245" lon="0.2901">
        <ele>1175.2</ele>
        <time>2025-07-22T05:00:48Z</time>
      </trkpt>
      <trkpt lat="42.94237" lon="0.2901">
        <ele>1174.8</ele>
        <time>2025-07-22T05:00:49Z</time>
      </trkpt>
      <trkpt lat="42.9422" lon="0.29009">
        <ele>1173.6</ele>
        <time>2025-07-22T05:00:51Z</time>
      </trkpt>
      <trkpt lat="42.94201" lon="0.29007">
        <ele>1172.8</ele>
        <time>2025-07-22T05:00:53Z</time>
      </trkpt>
      <trkpt lat="42.94191" lon="0.29006">
        <ele>1172.6</ele>
        <time>2025-07-22T05:00:54Z</time>
      </trkpt>
      <trkpt lat="42.94172" lon="0.29004">
        <ele>1171</ele>
        <time>2025-07-22T05:00:56Z</time>
      </trkpt>
      <trkpt lat="42.94163" lon="0.29004">
        <ele>1170.8</ele>
        <time>2025-07-22T05:00:57Z</time>
      </trkpt>
      <trkpt lat="42.94145" lon="0.29003">
        <ele>1169.4</ele>
        <time>2025-07-22T05:00:59Z</time>
      </trkpt>
      <trkpt lat="42.94129" lon="0.29004">
        <ele>1167.6</ele>
        <time>2025-07-22T05:01:01Z</time>
      </trkpt>
      <trkpt lat="42.94121" lon="0.29005">
        <ele>1167</ele>
        <time>2025-07-22T05:01:02Z</time>
      </trkpt>
      <trkpt lat="42.94113" lon="0.29006">
        <ele>1166</ele>
        <time>2025-07-22T05:01:03Z</time>
      </trkpt>
      <trkpt lat="42.94099" lon="0.29016">
        <ele>1164.6</ele>
        <time>2025-07-22T05:01:05Z</time>
      </trkpt>
      <trkpt lat="42.94094" lon="0.29022">
        <ele>1163.6</ele>
        <time>2025-07-22T05:01:06Z</time>
      </trkpt>
      <trkpt lat="42.94085" lon="0.29034">
        <ele>1162.4</ele>
        <time>2025-07-22T05:01:08Z</time>
      </trkpt>
      <trkpt lat="42.94081" lon="0.29039">
        <ele>1162</ele>
        <time>2025-07-22T05:01:09Z</time>
      </trkpt>
      <trkpt lat="42.94075" lon="0.29042">
        <ele>1161.2</ele>
        <time>2025-07-22T05:01:10Z</time>
      </trkpt>
      <trkpt lat="42.94071" lon="0.29042">
        <ele>1160.4</ele>
        <time>2025-07-22T05:01:11Z</time>
      </trkpt>
      <trkpt lat="42.94067" lon="0.29039">
        <ele>1159.8</ele>
        <time>2025-07-22T05:01:12Z</time>
      </trkpt>
      <trkpt lat="42.94064" lon="0.29024">
        <ele>1158.8</ele>
        <time>2025-07-22T05:01:14Z</time>
      </trkpt>
      <trkpt lat="42.94067" lon="0.29014">
        <ele>1157.8</ele>
        <time>2025-07-22T05:01:15Z</time>
      </trkpt>
      <trkpt lat="42.9407" lon="0.29004">
        <ele>1157</ele>
        <time>2025-07-22T05:01:16Z</time>
      </trkpt>
      <trkpt lat="42.94074" lon="0.28994">
        <ele>1156.8</ele>
        <time>2025-07-22T05:01:17Z</time>
      </trkpt>
      <trkpt lat="42.94078" lon="0.28984">
        <ele>1155.6</ele>
        <time>2025-07-22T05:01:18Z</time>
      </trkpt>
      <trkpt lat="42.94086" lon="0.28963">
        <ele>1154.4</ele>
        <time>2025-07-22T05:01:20Z</time>
      </trkpt>
      <trkpt lat="42.94095" lon="0.2894">
        <ele>1152.8</ele>
        <time>2025-07-22T05:01:22Z</time>
      </trkpt>
      <trkpt lat="42.941" lon="0.2893">
        <ele>1152.2</ele>
        <time>2025-07-22T05:01:23Z</time>
      </trkpt>
      <trkpt lat="42.94107" lon="0.2892">
        <ele>1151.6</ele>
        <time>2025-07-22T05:01:24Z</time>
      </trkpt>
      <trkpt lat="42.94114" lon="0.28911">
        <ele>1151</ele>
        <time>2025-07-22T05:01:25Z</time>
      </trkpt>
      <trkpt lat="42.94122" lon="0.28903">
        <ele>1150.4</ele>
        <time>2025-07-22T05:01:26Z</time>
      </trkpt>
      <trkpt lat="42.94139" lon="0.28889">
        <ele>1148.6</ele>
        <time>2025-07-22T05:01:28Z</time>
      </trkpt>
      <trkpt lat="42.94147" lon="0.28883">
        <ele>1148.4</ele>
        <time>2025-07-22T05:01:29Z</time>
      </trkpt>
      <trkpt lat="42.94156" lon="0.28877">
        <ele>1147.4</ele>
        <time>2025-07-22T05:01:30Z</time>
      </trkpt>
      <trkpt lat="42.94175" lon="0.28868">
        <ele>1146</ele>
        <time>2025-07-22T05:01:32Z</time>
      </trkpt>
      <trkpt lat="42.94184" lon="0.28863">
        <ele>1144.6</ele>
        <time>2025-07-22T05:01:33Z</time>
      </trkpt>
      <trkpt lat="42.94203" lon="0.28854">
        <ele>1143.2</ele>
        <time>2025-07-22T05:01:35Z</time>
      </trkpt>
      <trkpt lat="42.94221" lon="0.28846">
        <ele>1141.4</ele>
        <time>2025-07-22T05:01:37Z</time>
      </trkpt>
      <trkpt lat="42.9423" lon="0.28843">
        <ele>1140.4</ele>
        <time>2025-07-22T05:01:38Z</time>
      </trkpt>
      <trkpt lat="42.9424" lon="0.28841">
        <ele>1139.6</ele>
        <time>2025-07-22T05:01:39Z</time>
      </trkpt>
      <trkpt lat="42.9425" lon="0.2884">
        <ele>1138.6</ele>
        <time>2025-07-22T05:01:40Z</time>
      </trkpt>
      <trkpt lat="42.9427" lon="0.28841">
        <ele>1137</ele>
        <time>2025-07-22T05:01:42Z</time>
      </trkpt>
      <trkpt lat="42.9429" lon="0.28845">
        <ele>1135.6</ele>
        <time>2025-07-22T05:01:44Z</time>
      </trkpt>
      <trkpt lat="42.94299" lon="0.28847">
        <ele>1134.4</ele>
        <time>2025-07-22T05:01:45Z</time>
      </trkpt>
      <trkpt lat="42.94319" lon="0.28851">
        <ele>1132.6</ele>
        <time>2025-07-22T05:01:47Z</time>
      </trkpt>
      <trkpt lat="42.94329" lon="0.28855">
        <ele>1131.4</ele>
        <time>2025-07-22T05:01:48Z</time>
      </trkpt>
      <trkpt lat="42.94347" lon="0.28863">
        <ele>1129.6</ele>
        <time>2025-07-22T05:01:50Z</time>
      </trkpt>
      <trkpt lat="42.94363" lon="0.28875">
        <ele>1127.8</ele>
        <time>2025-07-22T05:01:52Z</time>
      </trkpt>
      <trkpt lat="42.9437" lon="0.28882">
        <ele>1126.6</ele>
        <time>2025-07-22T05:01:53Z</time>
      </trkpt>
      <trkpt lat="42.94377" lon="0.28889">
        <ele>1126</ele>
        <time>2025-07-22T05:01:54Z</time>
      </trkpt>
      <trkpt lat="42.94384" lon="0.28896">
        <ele>1124.8</ele>
        <time>2025-07-22T05:01:55Z</time>
      </trkpt>
      <trkpt lat="42.9439" lon="0.28902">
        <ele>1124.2</ele>
        <time>2025-07-22T05:01:56Z</time>
      </trkpt>
      <trkpt lat="42.94397" lon="0.28906">
        <ele>1123.4</ele>
        <time>2025-07-22T05:01:57Z</time>
      </trkpt>
      <trkpt lat="42.94404" lon="0.28906">
        <ele>1122.8</ele>
        <time>2025-07-22T05:01:58Z</time>
      </trkpt>
      <trkpt lat="42.94411" lon="0.28904">
        <ele>1121.6</ele>
        <time>2025-07-22T05:01:59Z</time>
      </trkpt>
      <trkpt lat="42.94418" lon="0.28898">
        <ele>1120.4</ele>
        <time>2025-07-22T05:02:00Z</time>
      </trkpt>
      <trkpt lat="42.94423" lon="0.28891">
        <ele>1120</ele>
        <time>2025-07-22T05:02:01Z</time>
      </trkpt>
      <trkpt lat="42.94428" lon="0.28881">
        <ele>1119.2</ele>
        <time>2025-07-22T05:02:02Z</time>
      </trkpt>
      <trkpt lat="42.94433" lon="0.28859">
        <ele>1118.2</ele>
        <time>2025-07-22T05:02:04Z</time>
      </trkpt>
      <trkpt lat="42.94433" lon="0.28846">
        <ele>1117.4</ele>
        <time>2025-07-22T05:02:05Z</time>
      </trkpt>
      <trkpt lat="42.94433" lon="0.28823">
        <ele>1116.2</ele>
        <time>2025-07-22T05:02:07Z</time>
      </trkpt>
      <trkpt lat="42.94433" lon="0.28811">
        <ele>1115.6</ele>
        <time>2025-07-22T05:02:08Z</time>
      </trkpt>
      <trkpt lat="42.94431" lon="0.288">
        <ele>1114.8</ele>
        <time>2025-07-22T05:02:09Z</time>
      </trkpt>
      <trkpt lat="42.94425" lon="0.28778">
        <ele>1113.4</ele>
        <time>2025-07-22T05:02:11Z</time>
      </trkpt>
      <trkpt lat="42.94416" lon="0.28759">
        <ele>1112</ele>
        <time>2025-07-22T05:02:13Z</time>
      </trkpt>
      <trkpt lat="42.94411" lon="0.28751">
        <ele>1111</ele>
        <time>2025-07-22T05:02:14Z</time>
      </trkpt>
      <trkpt lat="42.94406" lon="0.28742">
        <ele>1110.2</ele>
        <time>2025-07-22T05:02:15Z</time>
      </trkpt>
      <trkpt lat="42.94401" lon="0.28735">
        <ele>1109.8</ele>
        <time>2025-07-22T05:02:16Z</time>
      </trkpt>
      <trkpt lat="42.9439" lon="0.2872">
        <ele>1108.6</ele>
        <time>2025-07-22T05:02:18Z</time>
      </trkpt>
      <trkpt lat="42.94381" lon="0.28704">
        <ele>1107.6</ele>
        <time>2025-07-22T05:02:20Z</time>
      </trkpt>
      <trkpt lat="42.94376" lon="0.28697">
        <ele>1107.4</ele>
        <time>2025-07-22T05:02:21Z</time>
      </trkpt>
      <trkpt lat="42.94362" lon="0.28672">
        <ele>1106.2</ele>
        <time>2025-07-22T05:02:24Z</time>
      </trkpt>
      <trkpt lat="42.94349" lon="0.28646">
        <ele>1105.4</ele>
        <time>2025-07-22T05:02:27Z</time>
      </trkpt>
      <trkpt lat="42.94345" lon="0.28638">
        <ele>1105.2</ele>
        <time>2025-07-22T05:02:28Z</time>
      </trkpt>
      <trkpt lat="42.94332" lon="0.28612">
        <ele>1104.2</ele>
        <time>2025-07-22T05:02:31Z</time>
      </trkpt>
      <trkpt lat="42.94316" lon="0.28582">
        <ele>1103.4</ele>
        <time>2025-07-22T05:02:35Z</time>
      </trkpt>
      <trkpt lat="42.94312" lon="0.28575">
        <ele>1103</ele>
        <time>2025-07-22T05:02:36Z</time>
      </trkpt>
      <trkpt lat="42.94297" lon="0.28545">
        <ele>1102</ele>
        <time>2025-07-22T05:02:40Z</time>
      </trkpt>
      <trkpt lat="42.9429" lon="0.28522">
        <ele>1101.2</ele>
        <time>2025-07-22T05:02:43Z</time>
      </trkpt>
      <trkpt lat="42.94286" lon="0.28496">
        <ele>1100.6</ele>
        <time>2025-07-22T05:02:46Z</time>
      </trkpt>
      <trkpt lat="42.94284" lon="0.28471">
        <ele>1100.2</ele>
        <time>2025-07-22T05:02:49Z</time>
      </trkpt>
      <trkpt lat="42.94283" lon="0.28447">
        <ele>1099.6</ele>
        <time>2025-07-22T05:02:52Z</time>
      </trkpt>
      <trkpt lat="42.94282" lon="0.28394">
        <ele>1098.8</ele>
        <time>2025-07-22T05:02:58Z</time>
      </trkpt>
      <trkpt lat="42.94282" lon="0.28385">
        <ele>1098.6</ele>
        <time>2025-07-22T05:02:59Z</time>
      </trkpt>
      <trkpt lat="42.94281" lon="0.28336">
        <ele>1097.4</ele>
        <time>2025-07-22T05:03:04Z</time>
      </trkpt>
      <trkpt lat="42.9428" lon="0.28253">
        <ele>1096.4</ele>
        <time>2025-07-22T05:03:12Z</time>
      </trkpt>
      <trkpt lat="42.94288" lon="0.28213">
        <ele>1095.6</ele>
        <time>2025-07-22T05:03:16Z</time>
      </trkpt>
      <trkpt lat="42.94292" lon="0.28203">
        <ele>1095.6</ele>
        <time>2025-07-22T05:03:17Z</time>
      </trkpt>
      <trkpt lat="42.94309" lon="0.28169">
        <ele>1095.2</ele>
        <time>2025-07-22T05:03:21Z</time>
      </trkpt>
      <trkpt lat="42.94318" lon="0.28153">
        <ele>1095</ele>
        <time>2025-07-22T05:03:23Z</time>
      </trkpt>
      <trkpt lat="42.94336" lon="0.28108">
        <ele>1094.6</ele>
        <time>2025-07-22T05:03:28Z</time>
      </trkpt>
      <trkpt lat="42.94346" lon="0.28051">
        <ele>1094</ele>
        <time>2025-07-22T05:03:34Z</time>
      </trkpt>
      <trkpt lat="42.94348" lon="0.28041">
        <ele>1094</ele>
        <time>2025-07-22T05:03:35Z</time>
      </trkpt>
      <trkpt lat="42.94363" lon="0.27989">
        <ele>1093.4</ele>
        <time>2025-07-22T05:03:41Z</time>
      </trkpt>
      <trkpt lat="42.94366" lon="0.2797">
        <ele>1093.2</ele>
        <time>2025-07-22T05:03:43Z</time>
      </trkpt>
      <trkpt lat="42.94368" lon="0.27943">
        <ele>1093</ele>
        <time>2025-07-22T05:03:46Z</time>
      </trkpt>
      <trkpt lat="42.94364" lon="0.27879">
        <ele>1092.2</ele>
        <time>2025-07-22T05:03:53Z</time>
      </trkpt>
      <trkpt lat="42.94363" lon="0.27869">
        <ele>1092</ele>
        <time>2025-07-22T05:03:54Z</time>
      </trkpt>
      <trkpt lat="42.94361" lon="0.27821">
        <ele>1091</ele>
        <time>2025-07-22T05:03:59Z</time>
      </trkpt>
      <trkpt lat="42.94362" lon="0.27812">
        <ele>1091</ele>
        <time>2025-07-22T05:04:00Z</time>
      </trkpt>
      <trkpt lat="42.9437" lon="0.27766">
        <ele>1090.2</ele>
        <time>2025-07-22T05:04:05Z</time>
      </trkpt>
      <trkpt lat="42.94376" lon="0.27751">
        <ele>1090</ele>
        <time>2025-07-22T05:04:07Z</time>
      </trkpt>
      <trkpt lat="42.94391" lon="0.27706">
        <ele>1089.4</ele>
        <time>2025-07-22T05:04:12Z</time>
      </trkpt>
      <trkpt lat="42.94399" lon="0.27688">
        <ele>1089</ele>
        <time>2025-07-22T05:04:14Z</time>
      </trkpt>
      <trkpt lat="42.94407" lon="0.27672">
        <ele>1088.4</ele>
        <time>2025-07-22T05:04:16Z</time>
      </trkpt>
      <trkpt lat="42.94411" lon="0.27666">
        <ele>1088.4</ele>
        <time>2025-07-22T05:04:17Z</time>
      </trkpt>
      <trkpt lat="42.94433" lon="0.27639">
        <ele>1088</ele>
        <time>2025-07-22T05:04:21Z</time>
      </trkpt>
      <trkpt lat="42.94441" lon="0.27628">
        <ele>1087.8</ele>
        <time>2025-07-22T05:04:23Z</time>
      </trkpt>
      <trkpt lat="42.9446" lon="0.27591">
        <ele>1087.4</ele>
        <time>2025-07-22T05:04:28Z</time>
      </trkpt>
      <trkpt lat="42.94471" lon="0.2754">
        <ele>1087.6</ele>
        <time>2025-07-22T05:04:34Z</time>
      </trkpt>
      <trkpt lat="42.94487" lon="0.27479">
        <ele>1087.4</ele>
        <time>2025-07-22T05:04:41Z</time>
      </trkpt>
      <trkpt lat="42.94496" lon="0.27453">
        <ele>1086.8</ele>
        <time>2025-07-22T05:04:44Z</time>
      </trkpt>
      <trkpt lat="42.9451" lon="0.2742">
        <ele>1086</ele>
        <time>2025-07-22T05:04:48Z</time>
      </trkpt>
      <trkpt lat="42.94516" lon="0.27403">
        <ele>1085.6</ele>
        <time>2025-07-22T05:04:50Z</time>
      </trkpt>
      <trkpt lat="42.94533" lon="0.27349">
        <ele>1084.6</ele>
        <time>2025-07-22T05:04:56Z</time>
      </trkpt>
      <trkpt lat="42.94553" lon="0.27276">
        <ele>1084</ele>
        <time>2025-07-22T05:05:04Z</time>
      </trkpt>
      <trkpt lat="42.94563" lon="0.27249">
        <ele>1083.8</ele>
        <time>2025-07-22T05:05:07Z</time>
      </trkpt>
      <trkpt lat="42.94577" lon="0.27225">
        <ele>1083.4</ele>
        <time>2025-07-22T05:05:10Z</time>
      </trkpt>
      <trkpt lat="42.94583" lon="0.27218">
        <ele>1083.4</ele>
        <time>2025-07-22T05:05:11Z</time>
      </trkpt>
      <trkpt lat="42.94589" lon="0.27212">
        <ele>1083.2</ele>
        <time>2025-07-22T05:05:12Z</time>
      </trkpt>
      <trkpt lat="42.94621" lon="0.27188">
        <ele>1082.8</ele>
        <time>2025-07-22T05:05:17Z</time>
      </trkpt>
      <trkpt lat="42.94632" lon="0.27178">
        <ele>1082.8</ele>
        <time>2025-07-22T05:05:19Z</time>
      </trkpt>
      <trkpt lat="42.94655" lon="0.27155">
        <ele>1082.8</ele>
        <time>2025-07-22T05:05:23Z</time>
      </trkpt>
      <trkpt lat="42.947" lon="0.27114">
        <ele>1083</ele>
        <time>2025-07-22T05:05:31Z</time>
      </trkpt>
      <trkpt lat="42.94705" lon="0.2711">
        <ele>1083</ele>
        <time>2025-07-22T05:05:32Z</time>
      </trkpt>
      <trkpt lat="42.94747" lon="0.27085">
        <ele>1083.4</ele>
        <time>2025-07-22T05:05:39Z</time>
      </trkpt>
      <trkpt lat="42.94764" lon="0.27076">
        <ele>1083.6</ele>
        <time>2025-07-22T05:05:42Z</time>
      </trkpt>
      <trkpt lat="42.94783" lon="0.27068">
        <ele>1083.6</ele>
        <time>2025-07-22T05:05:45Z</time>
      </trkpt>
      <trkpt lat="42.9483" lon="0.27058">
        <ele>1083.6</ele>
        <time>2025-07-22T05:05:52Z</time>
      </trkpt>
      <trkpt lat="42.9488" lon="0.27056">
        <ele>1082.4</ele>
        <time>2025-07-22T05:05:59Z</time>
      </trkpt>
      <trkpt lat="42.94887" lon="0.27053">
        <ele>1082.2</ele>
        <time>2025-07-22T05:06:00Z</time>
      </trkpt>
      <trkpt lat="42.94894" lon="0.27049">
        <ele>1082</ele>
        <time>2025-07-22T05:06:01Z</time>
      </trkpt>
      <trkpt lat="42.94901" lon="0.27045">
        <ele>1082</ele>
        <time>2025-07-22T05:06:02Z</time>
      </trkpt>
      <trkpt lat="42.94907" lon="0.27039">
        <ele>1081.8</ele>
        <time>2025-07-22T05:06:03Z</time>
      </trkpt>
      <trkpt lat="42.94914" lon="0.27032">
        <ele>1081.8</ele>
        <time>2025-07-22T05:06:04Z</time>
      </trkpt>
      <trkpt lat="42.9492" lon="0.27023">
        <ele>1081.4</ele>
        <time>2025-07-22T05:06:05Z</time>
      </trkpt>
      <trkpt lat="42.94932" lon="0.27004">
        <ele>1081</ele>
        <time>2025-07-22T05:06:07Z</time>
      </trkpt>
      <trkpt lat="42.94939" lon="0.26993">
        <ele>1080.8</ele>
        <time>2025-07-22T05:06:08Z</time>
      </trkpt>
      <trkpt lat="42.94952" lon="0.26971">
        <ele>1079.6</ele>
        <time>2025-07-22T05:06:10Z</time>
      </trkpt>
      <trkpt lat="42.94964" lon="0.26947">
        <ele>1078</ele>
        <time>2025-07-22T05:06:12Z</time>
      </trkpt>
      <trkpt lat="42.94969" lon="0.26935">
        <ele>1077.6</ele>
        <time>2025-07-22T05:06:13Z</time>
      </trkpt>
      <trkpt lat="42.94975" lon="0.26923">
        <ele>1076.8</ele>
        <time>2025-07-22T05:06:14Z</time>
      </trkpt>
      <trkpt lat="42.9498" lon="0.26912">
        <ele>1076.4</ele>
        <time>2025-07-22T05:06:15Z</time>
      </trkpt>
      <trkpt lat="42.94984" lon="0.269">
        <ele>1075.2</ele>
        <time>2025-07-22T05:06:16Z</time>
      </trkpt>
      <trkpt lat="42.94985" lon="0.26887">
        <ele>1074</ele>
        <time>2025-07-22T05:06:18Z</time>
      </trkpt>
      <trkpt lat="42.94984" lon="0.2686">
        <ele>1072.6</ele>
        <time>2025-07-22T05:06:20Z</time>
      </trkpt>
      <trkpt lat="42.94982" lon="0.26846">
        <ele>1072</ele>
        <time>2025-07-22T05:06:21Z</time>
      </trkpt>
      <trkpt lat="42.94981" lon="0.26832">
        <ele>1070.8</ele>
        <time>2025-07-22T05:06:22Z</time>
      </trkpt>
      <trkpt lat="42.94981" lon="0.26819">
        <ele>1070</ele>
        <time>2025-07-22T05:06:23Z</time>
      </trkpt>
      <trkpt lat="42.94982" lon="0.26806">
        <ele>1069.4</ele>
        <time>2025-07-22T05:06:24Z</time>
      </trkpt>
      <trkpt lat="42.94984" lon="0.26796">
        <ele>1068.4</ele>
        <time>2025-07-22T05:06:25Z</time>
      </trkpt>
      <trkpt lat="42.94989" lon="0.26786">
        <ele>1068.2</ele>
        <time>2025-07-22T05:06:26Z</time>
      </trkpt>
      <trkpt lat="42.94997" lon="0.26774">
        <ele>1067</ele>
        <time>2025-07-22T05:06:27Z</time>
      </trkpt>
      <trkpt lat="42.95015" lon="0.2676">
        <ele>1065.6</ele>
        <time>2025-07-22T05:06:29Z</time>
      </trkpt>
      <trkpt lat="42.95023" lon="0.26754">
        <ele>1064.6</ele>
        <time>2025-07-22T05:06:30Z</time>
      </trkpt>
      <trkpt lat="42.95043" lon="0.26737">
        <ele>1062.6</ele>
        <time>2025-07-22T05:06:32Z</time>
      </trkpt>
      <trkpt lat="42.95054" lon="0.26725">
        <ele>1061.2</ele>
        <time>2025-07-22T05:06:33Z</time>
      </trkpt>
      <trkpt lat="42.95065" lon="0.26715">
        <ele>1060.6</ele>
        <time>2025-07-22T05:06:34Z</time>
      </trkpt>
      <trkpt lat="42.95073" lon="0.26708">
        <ele>1059.2</ele>
        <time>2025-07-22T05:06:35Z</time>
      </trkpt>
      <trkpt lat="42.95096" lon="0.26691">
        <ele>1057.2</ele>
        <time>2025-07-22T05:06:37Z</time>
      </trkpt>
      <trkpt lat="42.95106" lon="0.26684">
        <ele>1055.4</ele>
        <time>2025-07-22T05:06:38Z</time>
      </trkpt>
      <trkpt lat="42.95115" lon="0.26675">
        <ele>1054.6</ele>
        <time>2025-07-22T05:06:39Z</time>
      </trkpt>
      <trkpt lat="42.95122" lon="0.26666">
        <ele>1053.4</ele>
        <time>2025-07-22T05:06:40Z</time>
      </trkpt>
      <trkpt lat="42.95132" lon="0.26644">
        <ele>1052.4</ele>
        <time>2025-07-22T05:06:42Z</time>
      </trkpt>
      <trkpt lat="42.95138" lon="0.26619">
        <ele>1051</ele>
        <time>2025-07-22T05:06:44Z</time>
      </trkpt>
      <trkpt lat="42.95139" lon="0.26606">
        <ele>1050.6</ele>
        <time>2025-07-22T05:06:45Z</time>
      </trkpt>
      <trkpt lat="42.9514" lon="0.26579">
        <ele>1050</ele>
        <time>2025-07-22T05:06:47Z</time>
      </trkpt>
      <trkpt lat="42.95142" lon="0.26539">
        <ele>1048.8</ele>
        <time>2025-07-22T05:06:50Z</time>
      </trkpt>
      <trkpt lat="42.95147" lon="0.26512">
        <ele>1048.4</ele>
        <time>2025-07-22T05:06:52Z</time>
      </trkpt>
      <trkpt lat="42.95157" lon="0.26486">
        <ele>1047.8</ele>
        <time>2025-07-22T05:06:54Z</time>
      </trkpt>
      <trkpt lat="42.95162" lon="0.26473">
        <ele>1047.2</ele>
        <time>2025-07-22T05:06:55Z</time>
      </trkpt>
      <trkpt lat="42.95178" lon="0.26451">
        <ele>1046</ele>
        <time>2025-07-22T05:06:57Z</time>
      </trkpt>
      <trkpt lat="42.95195" lon="0.26432">
        <ele>1044.4</ele>
        <time>2025-07-22T05:06:59Z</time>
      </trkpt>
      <trkpt lat="42.95203" lon="0.26421">
        <ele>1043</ele>
        <time>2025-07-22T05:07:00Z</time>
      </trkpt>
      <trkpt lat="42.95209" lon="0.26409">
        <ele>1042.4</ele>
        <time>2025-07-22T05:07:01Z</time>
      </trkpt>
      <trkpt lat="42.95214" lon="0.26396">
        <ele>1041.4</ele>
        <time>2025-07-22T05:07:02Z</time>
      </trkpt>
      <trkpt lat="42.95223" lon="0.26368">
        <ele>1040.2</ele>
        <time>2025-07-22T05:07:04Z</time>
      </trkpt>
      <trkpt lat="42.95227" lon="0.26354">
        <ele>1039.2</ele>
        <time>2025-07-22T05:07:05Z</time>
      </trkpt>
      <trkpt lat="42.95231" lon="0.26339">
        <ele>1039</ele>
        <time>2025-07-22T05:07:06Z</time>
      </trkpt>
      <trkpt lat="42.9524" lon="0.26308">
        <ele>1037.8</ele>
        <time>2025-07-22T05:07:08Z</time>
      </trkpt>
      <trkpt lat="42.95252" lon="0.26278">
        <ele>1036.2</ele>
        <time>2025-07-22T05:07:10Z</time>
      </trkpt>
      <trkpt lat="42.95265" lon="0.26246">
        <ele>1034.2</ele>
        <time>2025-07-22T05:07:12Z</time>
      </trkpt>
      <trkpt lat="42.95278" lon="0.26216">
        <ele>1032</ele>
        <time>2025-07-22T05:07:14Z</time>
      </trkpt>
      <trkpt lat="42.95284" lon="0.26201">
        <ele>1030.6</ele>
        <time>2025-07-22T05:07:15Z</time>
      </trkpt>
      <trkpt lat="42.95298" lon="0.26171">
        <ele>1028.4</ele>
        <time>2025-07-22T05:07:17Z</time>
      </trkpt>
      <trkpt lat="42.95313" lon="0.26142">
        <ele>1026.2</ele>
        <time>2025-07-22T05:07:19Z</time>
      </trkpt>
      <trkpt lat="42.95321" lon="0.26128">
        <ele>1025</ele>
        <time>2025-07-22T05:07:20Z</time>
      </trkpt>
      <trkpt lat="42.95335" lon="0.26101">
        <ele>1023.4</ele>
        <time>2025-07-22T05:07:22Z</time>
      </trkpt>
      <trkpt lat="42.9535" lon="0.26074">
        <ele>1022</ele>
        <time>2025-07-22T05:07:24Z</time>
      </trkpt>
      <trkpt lat="42.95357" lon="0.26062">
        <ele>1020.8</ele>
        <time>2025-07-22T05:07:25Z</time>
      </trkpt>
      <trkpt lat="42.95365" lon="0.2605">
        <ele>1020.4</ele>
        <time>2025-07-22T05:07:26Z</time>
      </trkpt>
      <trkpt lat="42.95374" lon="0.2604">
        <ele>1019.8</ele>
        <time>2025-07-22T05:07:27Z</time>
      </trkpt>
      <trkpt lat="42.95384" lon="0.26032">
        <ele>1019.2</ele>
        <time>2025-07-22T05:07:28Z</time>
      </trkpt>
      <trkpt lat="42.95394" lon="0.26025">
        <ele>1018.6</ele>
        <time>2025-07-22T05:07:29Z</time>
      </trkpt>
      <trkpt lat="42.95416" lon="0.26014">
        <ele>1017.4</ele>
        <time>2025-07-22T05:07:31Z</time>
      </trkpt>
      <trkpt lat="42.95426" lon="0.26009">
        <ele>1016.6</ele>
        <time>2025-07-22T05:07:32Z</time>
      </trkpt>
      <trkpt lat="42.95437" lon="0.26004">
        <ele>1016.2</ele>
        <time>2025-07-22T05:07:33Z</time>
      </trkpt>
      <trkpt lat="42.95458" lon="0.25996">
        <ele>1015.2</ele>
        <time>2025-07-22T05:07:35Z</time>
      </trkpt>
      <trkpt lat="42.95479" lon="0.25987">
        <ele>1014</ele>
        <time>2025-07-22T05:07:37Z</time>
      </trkpt>
      <trkpt lat="42.95499" lon="0.25979">
        <ele>1013.2</ele>
        <time>2025-07-22T05:07:39Z</time>
      </trkpt>
      <trkpt lat="42.95509" lon="0.25975">
        <ele>1012.8</ele>
        <time>2025-07-22T05:07:40Z</time>
      </trkpt>
      <trkpt lat="42.95528" lon="0.25964">
        <ele>1011.4</ele>
        <time>2025-07-22T05:07:42Z</time>
      </trkpt>
      <trkpt lat="42.95538" lon="0.25958">
        <ele>1011</ele>
        <time>2025-07-22T05:07:43Z</time>
      </trkpt>
      <trkpt lat="42.95546" lon="0.2595">
        <ele>1010.6</ele>
        <time>2025-07-22T05:07:44Z</time>
      </trkpt>
      <trkpt lat="42.95554" lon="0.25941">
        <ele>1010</ele>
        <time>2025-07-22T05:07:45Z</time>
      </trkpt>
      <trkpt lat="42.95566" lon="0.25917">
        <ele>1008.8</ele>
        <time>2025-07-22T05:07:47Z</time>
      </trkpt>
      <trkpt lat="42.9558" lon="0.25878">
        <ele>1007.6</ele>
        <time>2025-07-22T05:07:50Z</time>
      </trkpt>
      <trkpt lat="42.95588" lon="0.25853">
        <ele>1006.6</ele>
        <time>2025-07-22T05:07:52Z</time>
      </trkpt>
      <trkpt lat="42.95612" lon="0.25809">
        <ele>1005.2</ele>
        <time>2025-07-22T05:07:56Z</time>
      </trkpt>
      <trkpt lat="42.9565" lon="0.25763">
        <ele>1004.4</ele>
        <time>2025-07-22T05:08:01Z</time>
      </trkpt>
      <trkpt lat="42.95658" lon="0.25755">
        <ele>1004</ele>
        <time>2025-07-22T05:08:02Z</time>
      </trkpt>
      <trkpt lat="42.95684" lon="0.2573">
        <ele>1002.8</ele>
        <time>2025-07-22T05:08:05Z</time>
      </trkpt>
      <trkpt lat="42.95709" lon="0.25705">
        <ele>1001.6</ele>
        <time>2025-07-22T05:08:08Z</time>
      </trkpt>
      <trkpt lat="42.95717" lon="0.25697">
        <ele>1001.2</ele>
        <time>2025-07-22T05:08:09Z</time>
      </trkpt>
      <trkpt lat="42.95733" lon="0.25681">
        <ele>1000.4</ele>
        <time>2025-07-22T05:08:11Z</time>
      </trkpt>
      <trkpt lat="42.95756" lon="0.25656">
        <ele>999.2</ele>
        <time>2025-07-22T05:08:14Z</time>
      </trkpt>
      <trkpt lat="42.9577" lon="0.25638">
        <ele>998.8</ele>
        <time>2025-07-22T05:08:16Z</time>
      </trkpt>
      <trkpt lat="42.95791" lon="0.25608">
        <ele>998</ele>
        <time>2025-07-22T05:08:19Z</time>
      </trkpt>
      <trkpt lat="42.95821" lon="0.25573">
        <ele>997</ele>
        <time>2025-07-22T05:08:23Z</time>
      </trkpt>
      <trkpt lat="42.95844" lon="0.25548">
        <ele>995.6</ele>
        <time>2025-07-22T05:08:26Z</time>
      </trkpt>
      <trkpt lat="42.95867" lon="0.25524">
        <ele>994.8</ele>
        <time>2025-07-22T05:08:29Z</time>
      </trkpt>
      <trkpt lat="42.95875" lon="0.25517">
        <ele>994.6</ele>
        <time>2025-07-22T05:08:30Z</time>
      </trkpt>
      <trkpt lat="42.95906" lon="0.25488">
        <ele>993.4</ele>
        <time>2025-07-22T05:08:34Z</time>
      </trkpt>
      <trkpt lat="42.9593" lon="0.25468">
        <ele>993</ele>
        <time>2025-07-22T05:08:37Z</time>
      </trkpt>
      <trkpt lat="42.95952" lon="0.25448">
        <ele>992.4</ele>
        <time>2025-07-22T05:08:40Z</time>
      </trkpt>
      <trkpt lat="42.95973" lon="0.25425">
        <ele>991.8</ele>
        <time>2025-07-22T05:08:43Z</time>
      </trkpt>
      <trkpt lat="42.95994" lon="0.254">
        <ele>991.2</ele>
        <time>2025-07-22T05:08:46Z</time>
      </trkpt>
      <trkpt lat="42.96016" lon="0.25372">
        <ele>990.4</ele>
        <time>2025-07-22T05:08:49Z</time>
      </trkpt>
      <trkpt lat="42.96022" lon="0.25362">
        <ele>989.8</ele>
        <time>2025-07-22T05:08:50Z</time>
      </trkpt>
      <trkpt lat="42.96036" lon="0.25341">
        <ele>988.6</ele>
        <time>2025-07-22T05:08:52Z</time>
      </trkpt>
      <trkpt lat="42.9605" lon="0.2532">
        <ele>987.4</ele>
        <time>2025-07-22T05:08:54Z</time>
      </trkpt>
      <trkpt lat="42.96057" lon="0.2531">
        <ele>986.8</ele>
        <time>2025-07-22T05:08:55Z</time>
      </trkpt>
      <trkpt lat="42.96064" lon="0.253">
        <ele>986.2</ele>
        <time>2025-07-22T05:08:56Z</time>
      </trkpt>
      <trkpt lat="42.96079" lon="0.2528">
        <ele>985.4</ele>
        <time>2025-07-22T05:08:58Z</time>
      </trkpt>
      <trkpt lat="42.96102" lon="0.25251">
        <ele>983.4</ele>
        <time>2025-07-22T05:09:01Z</time>
      </trkpt>
      <trkpt lat="42.96117" lon="0.25233">
        <ele>982.4</ele>
        <time>2025-07-22T05:09:03Z</time>
      </trkpt>
      <trkpt lat="42.96139" lon="0.25205">
        <ele>980.8</ele>
        <time>2025-07-22T05:09:06Z</time>
      </trkpt>
      <trkpt lat="42.96154" lon="0.25186">
        <ele>979.8</ele>
        <time>2025-07-22T05:09:08Z</time>
      </trkpt>
      <trkpt lat="42.96177" lon="0.25157">
        <ele>978.4</ele>
        <time>2025-07-22T05:09:11Z</time>
      </trkpt>
      <trkpt lat="42.96191" lon="0.25137">
        <ele>977.4</ele>
        <time>2025-07-22T05:09:13Z</time>
      </trkpt>
      <trkpt lat="42.96198" lon="0.25127">
        <ele>976.8</ele>
        <time>2025-07-22T05:09:14Z</time>
      </trkpt>
      <trkpt lat="42.96214" lon="0.25096">
        <ele>975.2</ele>
        <time>2025-07-22T05:09:17Z</time>
      </trkpt>
      <trkpt lat="42.9622" lon="0.25087">
        <ele>974.6</ele>
        <time>2025-07-22T05:09:18Z</time>
      </trkpt>
      <trkpt lat="42.96231" lon="0.25068">
        <ele>973.8</ele>
        <time>2025-07-22T05:09:20Z</time>
      </trkpt>
      <trkpt lat="42.96247" lon="0.2504">
        <ele>972.2</ele>
        <time>2025-07-22T05:09:23Z</time>
      </trkpt>
      <trkpt lat="42.96252" lon="0.25031">
        <ele>972</ele>
        <time>2025-07-22T05:09:24Z</time>
      </trkpt>
      <trkpt lat="42.96268" lon="0.25003">
        <ele>970.8</ele>
        <time>2025-07-22T05:09:27Z</time>
      </trkpt>
      <trkpt lat="42.96276" lon="0.24983">
        <ele>970</ele>
        <time>2025-07-22T05:09:29Z</time>
      </trkpt>
      <trkpt lat="42.9628" lon="0.24973">
        <ele>969.6</ele>
        <time>2025-07-22T05:09:30Z</time>
      </trkpt>
      <trkpt lat="42.96301" lon="0.24924">
        <ele>968.2</ele>
        <time>2025-07-22T05:09:35Z</time>
      </trkpt>
      <trkpt lat="42.96326" lon="0.24883">
        <ele>967.4</ele>
        <time>2025-07-22T05:09:40Z</time>
      </trkpt>
      <trkpt lat="42.96336" lon="0.24865">
        <ele>967</ele>
        <time>2025-07-22T05:09:42Z</time>
      </trkpt>
      <trkpt lat="42.96353" lon="0.24827">
        <ele>966</ele>
        <time>2025-07-22T05:09:46Z</time>
      </trkpt>
      <trkpt lat="42.96357" lon="0.24817">
        <ele>965.8</ele>
        <time>2025-07-22T05:09:47Z</time>
      </trkpt>
      <trkpt lat="42.96377" lon="0.24779">
        <ele>965.2</ele>
        <time>2025-07-22T05:09:51Z</time>
      </trkpt>
      <trkpt lat="42.96382" lon="0.2477">
        <ele>964.8</ele>
        <time>2025-07-22T05:09:52Z</time>
      </trkpt>
      <trkpt lat="42.96413" lon="0.24704">
        <ele>964.2</ele>
        <time>2025-07-22T05:09:59Z</time>
      </trkpt>
      <trkpt lat="42.96419" lon="0.24696">
        <ele>964</ele>
        <time>2025-07-22T05:10:00Z</time>
      </trkpt>
      <trkpt lat="42.96445" lon="0.24666">
        <ele>962.8</ele>
        <time>2025-07-22T05:10:04Z</time>
      </trkpt>
      <trkpt lat="42.96476" lon="0.24629">
        <ele>961.4</ele>
        <time>2025-07-22T05:10:09Z</time>
      </trkpt>
      <trkpt lat="42.965" lon="0.24602">
        <ele>960.8</ele>
        <time>2025-07-22T05:10:13Z</time>
      </trkpt>
      <trkpt lat="42.96549" lon="0.2456">
        <ele>960.6</ele>
        <time>2025-07-22T05:10:21Z</time>
      </trkpt>
      <trkpt lat="42.96594" lon="0.24525">
        <ele>960.4</ele>
        <time>2025-07-22T05:10:28Z</time>
      </trkpt>
      <trkpt lat="42.96626" lon="0.24508">
        <ele>959.2</ele>
        <time>2025-07-22T05:10:32Z</time>
      </trkpt>
      <trkpt lat="42.96635" lon="0.24505">
        <ele>959</ele>
        <time>2025-07-22T05:10:33Z</time>
      </trkpt>
      <trkpt lat="42.96654" lon="0.24503">
        <ele>958.2</ele>
        <time>2025-07-22T05:10:35Z</time>
      </trkpt>
      <trkpt lat="42.96672" lon="0.24503">
        <ele>956.8</ele>
        <time>2025-07-22T05:10:37Z</time>
      </trkpt>
      <trkpt lat="42.96682" lon="0.24502">
        <ele>956.4</ele>
        <time>2025-07-22T05:10:38Z</time>
      </trkpt>
      <trkpt lat="42.96691" lon="0.24502">
        <ele>955.8</ele>
        <time>2025-07-22T05:10:39Z</time>
      </trkpt>
      <trkpt lat="42.96721" lon="0.24498">
        <ele>954.6</ele>
        <time>2025-07-22T05:10:42Z</time>
      </trkpt>
      <trkpt lat="42.96749" lon="0.24494">
        <ele>953.4</ele>
        <time>2025-07-22T05:10:45Z</time>
      </trkpt>
      <trkpt lat="42.96775" lon="0.24485">
        <ele>952.4</ele>
        <time>2025-07-22T05:10:48Z</time>
      </trkpt>
      <trkpt lat="42.96791" lon="0.24478">
        <ele>951.4</ele>
        <time>2025-07-22T05:10:50Z</time>
      </trkpt>
      <trkpt lat="42.96809" lon="0.24469">
        <ele>950.2</ele>
        <time>2025-07-22T05:10:52Z</time>
      </trkpt>
      <trkpt lat="42.96835" lon="0.24457">
        <ele>949.4</ele>
        <time>2025-07-22T05:10:55Z</time>
      </trkpt>
      <trkpt lat="42.96844" lon="0.24453">
        <ele>948.8</ele>
        <time>2025-07-22T05:10:56Z</time>
      </trkpt>
      <trkpt lat="42.96869" lon="0.2444">
        <ele>947.8</ele>
        <time>2025-07-22T05:10:59Z</time>
      </trkpt>
      <trkpt lat="42.96903" lon="0.24425">
        <ele>946.6</ele>
        <time>2025-07-22T05:11:03Z</time>
      </trkpt>
      <trkpt lat="42.96912" lon="0.24422">
        <ele>946.6</ele>
        <time>2025-07-22T05:11:04Z</time>
      </trkpt>
      <trkpt lat="42.96921" lon="0.24421">
        <ele>946.4</ele>
        <time>2025-07-22T05:11:05Z</time>
      </trkpt>
      <trkpt lat="42.9695" lon="0.24421">
        <ele>945.6</ele>
        <time>2025-07-22T05:11:08Z</time>
      </trkpt>
      <trkpt lat="42.9697" lon="0.24422">
        <ele>944.6</ele>
        <time>2025-07-22T05:11:10Z</time>
      </trkpt>
      <trkpt lat="42.9699" lon="0.24421">
        <ele>943.6</ele>
        <time>2025-07-22T05:11:12Z</time>
      </trkpt>
      <trkpt lat="42.96999" lon="0.2442">
        <ele>942.8</ele>
        <time>2025-07-22T05:11:13Z</time>
      </trkpt>
      <trkpt lat="42.97012" lon="0.24418">
        <ele>942</ele>
        <time>2025-07-22T05:11:14Z</time>
      </trkpt>
      <trkpt lat="42.97035" lon="0.24415">
        <ele>940.4</ele>
        <time>2025-07-22T05:11:16Z</time>
      </trkpt>
      <trkpt lat="42.97047" lon="0.24414">
        <ele>940</ele>
        <time>2025-07-22T05:11:17Z</time>
      </trkpt>
      <trkpt lat="42.97056" lon="0.24414">
        <ele>938.8</ele>
        <time>2025-07-22T05:11:18Z</time>
      </trkpt>
      <trkpt lat="42.97081" lon="0.24412">
        <ele>937.2</ele>
        <time>2025-07-22T05:11:20Z</time>
      </trkpt>
      <trkpt lat="42.97093" lon="0.24411">
        <ele>936</ele>
        <time>2025-07-22T05:11:21Z</time>
      </trkpt>
      <trkpt lat="42.97116" lon="0.24409">
        <ele>934.2</ele>
        <time>2025-07-22T05:11:23Z</time>
      </trkpt>
      <trkpt lat="42.97127" lon="0.24408">
        <ele>933</ele>
        <time>2025-07-22T05:11:24Z</time>
      </trkpt>
      <trkpt lat="42.97149" lon="0.24406">
        <ele>931.2</ele>
        <time>2025-07-22T05:11:26Z</time>
      </trkpt>
      <trkpt lat="42.97171" lon="0.24403">
        <ele>929.6</ele>
        <time>2025-07-22T05:11:28Z</time>
      </trkpt>
      <trkpt lat="42.97181" lon="0.244">
        <ele>929</ele>
        <time>2025-07-22T05:11:29Z</time>
      </trkpt>
      <trkpt lat="42.97191" lon="0.24396">
        <ele>928</ele>
        <time>2025-07-22T05:11:30Z</time>
      </trkpt>
      <trkpt lat="42.97211" lon="0.24387">
        <ele>926.8</ele>
        <time>2025-07-22T05:11:32Z</time>
      </trkpt>
      <trkpt lat="42.97231" lon="0.24376">
        <ele>925.6</ele>
        <time>2025-07-22T05:11:34Z</time>
      </trkpt>
      <trkpt lat="42.97262" lon="0.24365">
        <ele>924.4</ele>
        <time>2025-07-22T05:11:37Z</time>
      </trkpt>
      <trkpt lat="42.97284" lon="0.24358">
        <ele>923.6</ele>
        <time>2025-07-22T05:11:39Z</time>
      </trkpt>
      <trkpt lat="42.97296" lon="0.24354">
        <ele>922.8</ele>
        <time>2025-07-22T05:11:40Z</time>
      </trkpt>
      <trkpt lat="42.97315" lon="0.24348">
        <ele>921.4</ele>
        <time>2025-07-22T05:11:42Z</time>
      </trkpt>
      <trkpt lat="42.97335" lon="0.24341">
        <ele>920.2</ele>
        <time>2025-07-22T05:11:44Z</time>
      </trkpt>
      <trkpt lat="42.97355" lon="0.24333">
        <ele>918.6</ele>
        <time>2025-07-22T05:11:46Z</time>
      </trkpt>
      <trkpt lat="42.97365" lon="0.2433">
        <ele>918.4</ele>
        <time>2025-07-22T05:11:47Z</time>
      </trkpt>
      <trkpt lat="42.97385" lon="0.24324">
        <ele>917.4</ele>
        <time>2025-07-22T05:11:49Z</time>
      </trkpt>
      <trkpt lat="42.97404" lon="0.2432">
        <ele>916.2</ele>
        <time>2025-07-22T05:11:51Z</time>
      </trkpt>
      <trkpt lat="42.97459" lon="0.24318">
        <ele>915.2</ele>
        <time>2025-07-22T05:11:57Z</time>
      </trkpt>
      <trkpt lat="42.97521" lon="0.24315">
        <ele>914.4</ele>
        <time>2025-07-22T05:12:04Z</time>
      </trkpt>
      <trkpt lat="42.97538" lon="0.24308">
        <ele>914.2</ele>
        <time>2025-07-22T05:12:06Z</time>
      </trkpt>
      <trkpt lat="42.97571" lon="0.24291">
        <ele>913</ele>
        <time>2025-07-22T05:12:10Z</time>
      </trkpt>
      <trkpt lat="42.97596" lon="0.24285">
        <ele>912.2</ele>
        <time>2025-07-22T05:12:13Z</time>
      </trkpt>
      <trkpt lat="42.97614" lon="0.24283">
        <ele>911.6</ele>
        <time>2025-07-22T05:12:15Z</time>
      </trkpt>
      <trkpt lat="42.97661" lon="0.24276">
        <ele>910.4</ele>
        <time>2025-07-22T05:12:20Z</time>
      </trkpt>
      <trkpt lat="42.97691" lon="0.24267">
        <ele>908.8</ele>
        <time>2025-07-22T05:12:23Z</time>
      </trkpt>
      <trkpt lat="42.97712" lon="0.2426">
        <ele>907.4</ele>
        <time>2025-07-22T05:12:25Z</time>
      </trkpt>
      <trkpt lat="42.97731" lon="0.24252">
        <ele>906.4</ele>
        <time>2025-07-22T05:12:27Z</time>
      </trkpt>
      <trkpt lat="42.9774" lon="0.24247">
        <ele>905.8</ele>
        <time>2025-07-22T05:12:28Z</time>
      </trkpt>
      <trkpt lat="42.97758" lon="0.24232">
        <ele>904.6</ele>
        <time>2025-07-22T05:12:30Z</time>
      </trkpt>
      <trkpt lat="42.97764" lon="0.24225">
        <ele>904.4</ele>
        <time>2025-07-22T05:12:31Z</time>
      </trkpt>
      <trkpt lat="42.97775" lon="0.24206">
        <ele>903.8</ele>
        <time>2025-07-22T05:12:33Z</time>
      </trkpt>
      <trkpt lat="42.9778" lon="0.24196">
        <ele>903.6</ele>
        <time>2025-07-22T05:12:34Z</time>
      </trkpt>
      <trkpt lat="42.97796" lon="0.24155">
        <ele>903.4</ele>
        <time>2025-07-22T05:12:38Z</time>
      </trkpt>
      <trkpt lat="42.97813" lon="0.24106">
        <ele>903.2</ele>
        <time>2025-07-22T05:12:43Z</time>
      </trkpt>
      <trkpt lat="42.97831" lon="0.24053">
        <ele>903.4</ele>
        <time>2025-07-22T05:12:49Z</time>
      </trkpt>
      <trkpt lat="42.97845" lon="0.24021">
        <ele>903.6</ele>
        <time>2025-07-22T05:12:53Z</time>
      </trkpt>
      <trkpt lat="42.97853" lon="0.24009">
        <ele>904</ele>
        <time>2025-07-22T05:12:55Z</time>
      </trkpt>
      <trkpt lat="42.9786" lon="0.24">
        <ele>904.2</ele>
        <time>2025-07-22T05:12:57Z</time>
      </trkpt>
      <trkpt lat="42.97868" lon="0.23994">
        <ele>904.4</ele>
        <time>2025-07-22T05:12:59Z</time>
      </trkpt>
      <trkpt lat="42.97872" lon="0.23991">
        <ele>904.6</ele>
        <time>2025-07-22T05:13:00Z</time>
      </trkpt>
      <trkpt lat="42.97877" lon="0.23988">
        <ele>904.6</ele>
        <time>2025-07-22T05:13:01Z</time>
      </trkpt>
      <trkpt lat="42.97882" lon="0.23985">
        <ele>905</ele>
        <time>2025-07-22T05:13:02Z</time>
      </trkpt>
      <trkpt lat="42.97894" lon="0.23978">
        <ele>905.4</ele>
        <time>2025-07-22T05:13:04Z</time>
      </trkpt>
      <trkpt lat="42.97899" lon="0.23976">
        <ele>905.4</ele>
        <time>2025-07-22T05:13:05Z</time>
      </trkpt>
      <trkpt lat="42.97915" lon="0.23971">
        <ele>905.8</ele>
        <time>2025-07-22T05:13:08Z</time>
      </trkpt>
      <trkpt lat="42.9792" lon="0.23969">
        <ele>906</ele>
        <time>2025-07-22T05:13:09Z</time>
      </trkpt>
      <trkpt lat="42.97926" lon="0.23966">
        <ele>906</ele>
        <time>2025-07-22T05:13:10Z</time>
      </trkpt>
      <trkpt lat="42.97931" lon="0.23962">
        <ele>906.2</ele>
        <time>2025-07-22T05:13:11Z</time>
      </trkpt>
      <trkpt lat="42.97945" lon="0.23946">
        <ele>907</ele>
        <time>2025-07-22T05:13:14Z</time>
      </trkpt>
      <trkpt lat="42.97949" lon="0.23941">
        <ele>907.2</ele>
        <time>2025-07-22T05:13:15Z</time>
      </trkpt>
      <trkpt lat="42.97964" lon="0.23917">
        <ele>907.8</ele>
        <time>2025-07-22T05:13:19Z</time>
      </trkpt>
      <trkpt lat="42.97968" lon="0.23911">
        <ele>908</ele>
        <time>2025-07-22T05:13:20Z</time>
      </trkpt>
      <trkpt lat="42.97996" lon="0.2387">
        <ele>908.2</ele>
        <time>2025-07-22T05:13:27Z</time>
      </trkpt>
      <trkpt lat="42.98" lon="0.23864">
        <ele>908.2</ele>
        <time>2025-07-22T05:13:28Z</time>
      </trkpt>
      <trkpt lat="42.98012" lon="0.23845">
        <ele>908</ele>
        <time>2025-07-22T05:13:31Z</time>
      </trkpt>
      <trkpt lat="42.98017" lon="0.23839">
        <ele>907.8</ele>
        <time>2025-07-22T05:13:32Z</time>
      </trkpt>
      <trkpt lat="42.98037" lon="0.23816">
        <ele>907</ele>
        <time>2025-07-22T05:13:36Z</time>
      </trkpt>
      <trkpt lat="42.98053" lon="0.23799">
        <ele>906.4</ele>
        <time>2025-07-22T05:13:39Z</time>
      </trkpt>
      <trkpt lat="42.9808" lon="0.23767">
        <ele>905.8</ele>
        <time>2025-07-22T05:13:44Z</time>
      </trkpt>
      <trkpt lat="42.98098" lon="0.23747">
        <ele>905.4</ele>
        <time>2025-07-22T05:13:47Z</time>
      </trkpt>
      <trkpt lat="42.98117" lon="0.23724">
        <ele>904.8</ele>
        <time>2025-07-22T05:13:50Z</time>
      </trkpt>
      <trkpt lat="42.98138" lon="0.237">
        <ele>903.8</ele>
        <time>2025-07-22T05:13:53Z</time>
      </trkpt>
      <trkpt lat="42.98145" lon="0.23692">
        <ele>903.4</ele>
        <time>2025-07-22T05:13:54Z</time>
      </trkpt>
      <trkpt lat="42.98175" lon="0.23656">
        <ele>902</ele>
        <time>2025-07-22T05:13:58Z</time>
      </trkpt>
      <trkpt lat="42.98191" lon="0.23637">
        <ele>901.2</ele>
        <time>2025-07-22T05:14:00Z</time>
      </trkpt>
      <trkpt lat="42.98211" lon="0.23602">
        <ele>899.4</ele>
        <time>2025-07-22T05:14:03Z</time>
      </trkpt>
      <trkpt lat="42.98218" lon="0.2359">
        <ele>898.6</ele>
        <time>2025-07-22T05:14:04Z</time>
      </trkpt>
      <trkpt lat="42.98224" lon="0.23576">
        <ele>898.2</ele>
        <time>2025-07-22T05:14:05Z</time>
      </trkpt>
      <trkpt lat="42.98234" lon="0.23548">
        <ele>896.8</ele>
        <time>2025-07-22T05:14:07Z</time>
      </trkpt>
      <trkpt lat="42.98238" lon="0.23533">
        <ele>895.8</ele>
        <time>2025-07-22T05:14:08Z</time>
      </trkpt>
      <trkpt lat="42.98241" lon="0.23518">
        <ele>895.4</ele>
        <time>2025-07-22T05:14:09Z</time>
      </trkpt>
      <trkpt lat="42.98244" lon="0.23502">
        <ele>894</ele>
        <time>2025-07-22T05:14:10Z</time>
      </trkpt>
      <trkpt lat="42.98248" lon="0.23486">
        <ele>892.8</ele>
        <time>2025-07-22T05:14:11Z</time>
      </trkpt>
      <trkpt lat="42.98255" lon="0.23456">
        <ele>891.4</ele>
        <time>2025-07-22T05:14:13Z</time>
      </trkpt>
      <trkpt lat="42.98265" lon="0.23429">
        <ele>890</ele>
        <time>2025-07-22T05:14:15Z</time>
      </trkpt>
      <trkpt lat="42.98277" lon="0.23402">
        <ele>888.8</ele>
        <time>2025-07-22T05:14:17Z</time>
      </trkpt>
      <trkpt lat="42.98289" lon="0.23384">
        <ele>888</ele>
        <time>2025-07-22T05:14:19Z</time>
      </trkpt>
      <trkpt lat="42.98297" lon="0.23376">
        <ele>887.4</ele>
        <time>2025-07-22T05:14:20Z</time>
      </trkpt>
      <trkpt lat="42.98306" lon="0.23368">
        <ele>886.8</ele>
        <time>2025-07-22T05:14:21Z</time>
      </trkpt>
      <trkpt lat="42.98324" lon="0.23354">
        <ele>886.2</ele>
        <time>2025-07-22T05:14:23Z</time>
      </trkpt>
      <trkpt lat="42.98332" lon="0.23347">
        <ele>886.2</ele>
        <time>2025-07-22T05:14:24Z</time>
      </trkpt>
      <trkpt lat="42.98347" lon="0.23327">
        <ele>885.4</ele>
        <time>2025-07-22T05:14:26Z</time>
      </trkpt>
      <trkpt lat="42.98353" lon="0.23316">
        <ele>885.2</ele>
        <time>2025-07-22T05:14:27Z</time>
      </trkpt>
      <trkpt lat="42.9837" lon="0.23279">
        <ele>884</ele>
        <time>2025-07-22T05:14:30Z</time>
      </trkpt>
      <trkpt lat="42.98376" lon="0.23266">
        <ele>883.4</ele>
        <time>2025-07-22T05:14:31Z</time>
      </trkpt>
      <trkpt lat="42.9838" lon="0.23253">
        <ele>883</ele>
        <time>2025-07-22T05:14:32Z</time>
      </trkpt>
      <trkpt lat="42.98384" lon="0.2324">
        <ele>882</ele>
        <time>2025-07-22T05:14:33Z</time>
      </trkpt>
      <trkpt lat="42.98385" lon="0.23226">
        <ele>881.4</ele>
        <time>2025-07-22T05:14:34Z</time>
      </trkpt>
      <trkpt lat="42.98385" lon="0.23213">
        <ele>880.4</ele>
        <time>2025-07-22T05:14:35Z</time>
      </trkpt>
      <trkpt lat="42.98383" lon="0.23199">
        <ele>880</ele>
        <time>2025-07-22T05:14:36Z</time>
      </trkpt>
      <trkpt lat="42.98379" lon="0.23186">
        <ele>879.6</ele>
        <time>2025-07-22T05:14:37Z</time>
      </trkpt>
      <trkpt lat="42.98375" lon="0.23173">
        <ele>878.6</ele>
        <time>2025-07-22T05:14:38Z</time>
      </trkpt>
      <trkpt lat="42.98367" lon="0.23147">
        <ele>877.2</ele>
        <time>2025-07-22T05:14:40Z</time>
      </trkpt>
      <trkpt lat="42.98358" lon="0.23122">
        <ele>876</ele>
        <time>2025-07-22T05:14:42Z</time>
      </trkpt>
      <trkpt lat="42.98351" lon="0.23097">
        <ele>874.6</ele>
        <time>2025-07-22T05:14:44Z</time>
      </trkpt>
      <trkpt lat="42.98347" lon="0.23085">
        <ele>873.8</ele>
        <time>2025-07-22T05:14:45Z</time>
      </trkpt>
      <trkpt lat="42.98344" lon="0.23072">
        <ele>873.6</ele>
        <time>2025-07-22T05:14:46Z</time>
      </trkpt>
      <trkpt lat="42.98338" lon="0.23048">
        <ele>872</ele>
        <time>2025-07-22T05:14:48Z</time>
      </trkpt>
      <trkpt lat="42.98334" lon="0.23023">
        <ele>871.2</ele>
        <time>2025-07-22T05:14:50Z</time>
      </trkpt>
      <trkpt lat="42.98332" lon="0.23011">
        <ele>871</ele>
        <time>2025-07-22T05:14:51Z</time>
      </trkpt>
      <trkpt lat="42.98328" lon="0.22987">
        <ele>870</ele>
        <time>2025-07-22T05:14:53Z</time>
      </trkpt>
      <trkpt lat="42.98325" lon="0.22977">
        <ele>869.6</ele>
        <time>2025-07-22T05:14:54Z</time>
      </trkpt>
      <trkpt lat="42.9832" lon="0.22967">
        <ele>869</ele>
        <time>2025-07-22T05:14:55Z</time>
      </trkpt>
      <trkpt lat="42.98314" lon="0.22957">
        <ele>868.6</ele>
        <time>2025-07-22T05:14:56Z</time>
      </trkpt>
      <trkpt lat="42.98299" lon="0.22939">
        <ele>867.2</ele>
        <time>2025-07-22T05:14:58Z</time>
      </trkpt>
      <trkpt lat="42.98292" lon="0.2293">
        <ele>867</ele>
        <time>2025-07-22T05:14:59Z</time>
      </trkpt>
      <trkpt lat="42.98284" lon="0.22921">
        <ele>866.2</ele>
        <time>2025-07-22T05:15:00Z</time>
      </trkpt>
      <trkpt lat="42.98268" lon="0.22907">
        <ele>864.8</ele>
        <time>2025-07-22T05:15:02Z</time>
      </trkpt>
      <trkpt lat="42.98259" lon="0.22903">
        <ele>863.6</ele>
        <time>2025-07-22T05:15:03Z</time>
      </trkpt>
      <trkpt lat="42.98243" lon="0.22893">
        <ele>862</ele>
        <time>2025-07-22T05:15:05Z</time>
      </trkpt>
      <trkpt lat="42.98228" lon="0.22881">
        <ele>860.6</ele>
        <time>2025-07-22T05:15:07Z</time>
      </trkpt>
      <trkpt lat="42.98224" lon="0.22872">
        <ele>859.8</ele>
        <time>2025-07-22T05:15:08Z</time>
      </trkpt>
      <trkpt lat="42.98222" lon="0.22862">
        <ele>859.4</ele>
        <time>2025-07-22T05:15:09Z</time>
      </trkpt>
      <trkpt lat="42.98221" lon="0.22851">
        <ele>858.4</ele>
        <time>2025-07-22T05:15:10Z</time>
      </trkpt>
      <trkpt lat="42.98221" lon="0.22841">
        <ele>858</ele>
        <time>2025-07-22T05:15:11Z</time>
      </trkpt>
      <trkpt lat="42.98227" lon="0.22823">
        <ele>857.2</ele>
        <time>2025-07-22T05:15:13Z</time>
      </trkpt>
      <trkpt lat="42.98238" lon="0.22815">
        <ele>856.2</ele>
        <time>2025-07-22T05:15:15Z</time>
      </trkpt>
      <trkpt lat="42.98245" lon="0.22813">
        <ele>856</ele>
        <time>2025-07-22T05:15:16Z</time>
      </trkpt>
      <trkpt lat="42.98251" lon="0.22813">
        <ele>855.8</ele>
        <time>2025-07-22T05:15:17Z</time>
      </trkpt>
      <trkpt lat="42.98266" lon="0.22813">
        <ele>855.6</ele>
        <time>2025-07-22T05:15:19Z</time>
      </trkpt>
      <trkpt lat="42.98283" lon="0.22814">
        <ele>855.4</ele>
        <time>2025-07-22T05:15:22Z</time>
      </trkpt>
      <trkpt lat="42.98301" lon="0.22815">
        <ele>855.4</ele>
        <time>2025-07-22T05:15:25Z</time>
      </trkpt>
      <trkpt lat="42.98318" lon="0.22812">
        <ele>855.6</ele>
        <time>2025-07-22T05:15:28Z</time>
      </trkpt>
      <trkpt lat="42.98328" lon="0.22809">
        <ele>856</ele>
        <time>2025-07-22T05:15:30Z</time>
      </trkpt>
      <trkpt lat="42.98349" lon="0.22803">
        <ele>856.6</ele>
        <time>2025-07-22T05:15:34Z</time>
      </trkpt>
      <trkpt lat="42.98354" lon="0.22801">
        <ele>856.8</ele>
        <time>2025-07-22T05:15:35Z</time>
      </trkpt>
      <trkpt lat="42.98363" lon="0.22797">
        <ele>857</ele>
        <time>2025-07-22T05:15:37Z</time>
      </trkpt>
      <trkpt lat="42.98371" lon="0.22795">
        <ele>857.2</ele>
        <time>2025-07-22T05:15:39Z</time>
      </trkpt>
      <trkpt lat="42.9838" lon="0.22791">
        <ele>857.6</ele>
        <time>2025-07-22T05:15:41Z</time>
      </trkpt>
      <trkpt lat="42.98393" lon="0.22785">
        <ele>858.2</ele>
        <time>2025-07-22T05:15:44Z</time>
      </trkpt>
      <trkpt lat="42.98411" lon="0.22776">
        <ele>859.6</ele>
        <time>2025-07-22T05:15:49Z</time>
      </trkpt>
      <trkpt lat="42.98426" lon="0.22767">
        <ele>860</ele>
        <time>2025-07-22T05:15:54Z</time>
      </trkpt>
      <trkpt lat="42.98442" lon="0.22763">
        <ele>860.2</ele>
        <time>2025-07-22T05:16:00Z</time>
      </trkpt>
      <trkpt lat="42.98453" lon="0.22756">
        <ele>860.4</ele>
        <time>2025-07-22T05:16:05Z</time>
      </trkpt>
      <trkpt lat="42.98455" lon="0.22754">
        <ele>860.4</ele>
        <time>2025-07-22T05:16:06Z</time>
      </trkpt>
      <trkpt lat="42.98455" lon="0.22749">
        <ele>860.4</ele>
        <time>2025-07-22T05:16:08Z</time>
      </trkpt>
      <trkpt lat="42.98454" lon="0.22735">
        <ele>860.8</ele>
        <time>2025-07-22T05:16:14Z</time>
      </trkpt>
      <trkpt lat="42.98454" lon="0.22734">
        <ele>860.8</ele>
        <time>2025-07-22T05:16:17Z</time>
      </trkpt>
      <trkpt lat="42.98456" lon="0.22729">
        <ele>861</ele>
        <time>2025-07-22T05:16:22Z</time>
      </trkpt>
      <trkpt lat="42.98456" lon="0.22726">
        <ele>861</ele>
        <time>2025-07-22T05:16:23Z</time>
      </trkpt>
      <trkpt lat="42.98452" lon="0.22713">
        <ele>861.2</ele>
        <time>2025-07-22T05:16:28Z</time>
      </trkpt>
      <trkpt lat="42.98442" lon="0.22708">
        <ele>861.6</ele>
        <time>2025-07-22T05:16:33Z</time>
      </trkpt>
      <trkpt lat="42.98436" lon="0.22705">
        <ele>861.8</ele>
        <time>2025-07-22T05:16:36Z</time>
      </trkpt>
      <trkpt lat="42.98432" lon="0.22704">
        <ele>862</ele>
        <time>2025-07-22T05:16:38Z</time>
      </trkpt>
      <trkpt lat="42.98431" lon="0.22703">
        <ele>862</ele>
        <time>2025-07-22T05:16:39Z</time>
      </trkpt>
      <trkpt lat="42.98431" lon="0.227">
        <ele>862.2</ele>
        <time>2025-07-22T05:16:40Z</time>
      </trkpt>
      <trkpt lat="42.98432" lon="0.22686">
        <ele>862.8</ele>
        <time>2025-07-22T05:16:44Z</time>
      </trkpt>
      <trkpt lat="42.98433" lon="0.22683">
        <ele>863.2</ele>
        <time>2025-07-22T05:16:45Z</time>
      </trkpt>
      <trkpt lat="42.98435" lon="0.22674">
        <ele>864.2</ele>
        <time>2025-07-22T05:16:48Z</time>
      </trkpt>
      <trkpt lat="42.98434" lon="0.22673">
        <ele>864.4</ele>
        <time>2025-07-22T05:16:49Z</time>
      </trkpt>
      <trkpt lat="42.9843" lon="0.2267">
        <ele>864.8</ele>
        <time>2025-07-22T05:16:51Z</time>
      </trkpt>
      <trkpt lat="42.98428" lon="0.22667">
        <ele>865</ele>
        <time>2025-07-22T05:16:52Z</time>
      </trkpt>
      <trkpt lat="42.98426" lon="0.22666">
        <ele>865</ele>
        <time>2025-07-22T05:16:53Z</time>
      </trkpt>
      <trkpt lat="42.98423" lon="0.22664">
        <ele>865.2</ele>
        <time>2025-07-22T05:16:55Z</time>
      </trkpt>
      <trkpt lat="42.98421" lon="0.22662">
        <ele>865.4</ele>
        <time>2025-07-22T05:16:57Z</time>
      </trkpt>
      <trkpt lat="42.98421" lon="0.22662">
        <ele>865.6</ele>
        <time>2025-07-22T05:16:59Z</time>
      </trkpt>
      <trkpt lat="42.98417" lon="0.22666">
        <ele>866</ele>
        <time>2025-07-22T05:17:05Z</time>
      </trkpt>
      <trkpt lat="42.98414" lon="0.2267">
        <ele>866.2</ele>
        <time>2025-07-22T05:17:08Z</time>
      </trkpt>
      <trkpt lat="42.98408" lon="0.2269">
        <ele>866.2</ele>
        <time>2025-07-22T05:17:16Z</time>
      </trkpt>
      <trkpt lat="42.98408" lon="0.22698">
        <ele>865.4</ele>
        <time>2025-07-22T05:17:23Z</time>
      </trkpt>
      <trkpt lat="42.98409" lon="0.22699">
        <ele>865.4</ele>
        <time>2025-07-22T05:17:24Z</time>
      </trkpt>
      <trkpt lat="42.98417" lon="0.22704">
        <ele>865.2</ele>
        <time>2025-07-22T05:17:28Z</time>
      </trkpt>
      <trkpt lat="42.98437" lon="0.22712">
        <ele>864.8</ele>
        <time>2025-07-22T05:17:33Z</time>
      </trkpt>
      <trkpt lat="42.98446" lon="0.22717">
        <ele>864.2</ele>
        <time>2025-07-22T05:17:35Z</time>
      </trkpt>
      <trkpt lat="42.98452" lon="0.22725">
        <ele>863.8</ele>
        <time>2025-07-22T05:17:37Z</time>
      </trkpt>
      <trkpt lat="42.98451" lon="0.22734">
        <ele>863</ele>
        <time>2025-07-22T05:17:39Z</time>
      </trkpt>
      <trkpt lat="42.98451" lon="0.22737">
        <ele>862.8</ele>
        <time>2025-07-22T05:17:40Z</time>
      </trkpt>
      <trkpt lat="42.98453" lon="0.22751">
        <ele>861.8</ele>
        <time>2025-07-22T05:17:45Z</time>
      </trkpt>
      <trkpt lat="42.98453" lon="0.22753">
        <ele>861.8</ele>
        <time>2025-07-22T05:17:46Z</time>
      </trkpt>
      <trkpt lat="42.9845" lon="0.22756">
        <ele>861.4</ele>
        <time>2025-07-22T05:17:48Z</time>
      </trkpt>
      <trkpt lat="42.98437" lon="0.2276">
        <ele>861</ele>
        <time>2025-07-22T05:17:53Z</time>
      </trkpt>
      <trkpt lat="42.98435" lon="0.2276">
        <ele>861</ele>
        <time>2025-07-22T05:17:54Z</time>
      </trkpt>
      <trkpt lat="42.98433" lon="0.22758">
        <ele>860.8</ele>
        <time>2025-07-22T05:17:56Z</time>
      </trkpt>
      <trkpt lat="42.98433" lon="0.22759">
        <ele>860.8</ele>
        <time>2025-07-22T05:17:57Z</time>
      </trkpt>
      <trkpt lat="42.98434" lon="0.2276">
        <ele>860.8</ele>
        <time>2025-07-22T05:17:59Z</time>
      </trkpt>
      <trkpt lat="42.98434" lon="0.2276">
        <ele>860.6</ele>
        <time>2025-07-22T05:18:00Z</time>
      </trkpt>
      <trkpt lat="42.9844" lon="0.22777">
        <ele>859.6</ele>
        <time>2025-07-22T05:22:31Z</time>
      </trkpt>
      <trkpt lat="42.98438" lon="0.22775">
        <ele>859.6</ele>
        <time>2025-07-22T05:22:33Z</time>
      </trkpt>
      <trkpt lat="42.98439" lon="0.22772">
        <ele>859.8</ele>
        <time>2025-07-22T05:22:35Z</time>
      </trkpt>
      <trkpt lat="42.98438" lon="0.2277">
        <ele>860</ele>
        <time>2025-07-22T05:22:37Z</time>
      </trkpt>
      <trkpt lat="42.98439" lon="0.22769">
        <ele>860</ele>
        <time>2025-07-22T05:22:38Z</time>
      </trkpt>
      <trkpt lat="42.98437" lon="0.2277">
        <ele>860</ele>
        <time>2025-07-22T05:22:39Z</time>
      </trkpt>
      <trkpt lat="42.9843" lon="0.22769">
        <ele>860</ele>
        <time>2025-07-22T05:22:42Z</time>
      </trkpt>
      <trkpt lat="42.98429" lon="0.22769">
        <ele>860.2</ele>
        <time>2025-07-22T05:22:43Z</time>
      </trkpt>
      <trkpt lat="42.98429" lon="0.22769">
        <ele>860.2</ele>
        <time>2025-07-22T05:22:44Z</time>
      </trkpt>
      <trkpt lat="42.98427" lon="0.22769">
        <ele>860</ele>
        <time>2025-07-22T05:22:46Z</time>
      </trkpt>
      <trkpt lat="42.98426" lon="0.2277">
        <ele>860</ele>
        <time>2025-07-22T05:22:49Z</time>
      </trkpt>
      <trkpt lat="42.98366" lon="0.22785">
        <ele>857.8</ele>
        <time>2025-07-22T06:04:26Z</time>
      </trkpt>
      <trkpt lat="42.98405" lon="0.22788">
        <ele>857.4</ele>
        <time>2025-07-22T06:04:27Z</time>
      </trkpt>
      <trkpt lat="42.98431" lon="0.22781">
        <ele>857</ele>
        <time>2025-07-22T06:04:46Z</time>
      </trkpt>
      <trkpt lat="42.98435" lon="0.22779">
        <ele>857.2</ele>
        <time>2025-07-22T06:04:50Z</time>
      </trkpt>
      <trkpt lat="42.98435" lon="0.22779">
        <ele>857.2</ele>
        <time>2025-07-22T06:04:51Z</time>
      </trkpt>
      <trkpt lat="42.98436" lon="0.22777">
        <ele>857.2</ele>
        <time>2025-07-22T06:04:53Z</time>
      </trkpt>
      <trkpt lat="42.98435" lon="0.22776">
        <ele>857.2</ele>
        <time>2025-07-22T06:04:55Z</time>
      </trkpt>
      <trkpt lat="42.98436" lon="0.22769">
        <ele>857.6</ele>
        <time>2025-07-22T06:05:02Z</time>
      </trkpt>
      <trkpt lat="42.98436" lon="0.22768">
        <ele>857.6</ele>
        <time>2025-07-22T06:05:04Z</time>
      </trkpt>
      <trkpt lat="42.98435" lon="0.22763">
        <ele>858.2</ele>
        <time>2025-07-22T06:05:51Z</time>
      </trkpt>
      <trkpt lat="42.9844" lon="0.22762">
        <ele>858.2</ele>
        <time>2025-07-22T06:05:53Z</time>
      </trkpt>
      <trkpt lat="42.98456" lon="0.22755">
        <ele>858.2</ele>
        <time>2025-07-22T06:05:59Z</time>
      </trkpt>
      <trkpt lat="42.98462" lon="0.22743">
        <ele>858.2</ele>
        <time>2025-07-22T06:06:03Z</time>
      </trkpt>
      <trkpt lat="42.98459" lon="0.22723">
        <ele>858.4</ele>
        <time>2025-07-22T06:06:08Z</time>
      </trkpt>
      <trkpt lat="42.98456" lon="0.22715">
        <ele>858.8</ele>
        <time>2025-07-22T06:06:10Z</time>
      </trkpt>
      <trkpt lat="42.98448" lon="0.22707">
        <ele>859.2</ele>
        <time>2025-07-22T06:06:13Z</time>
      </trkpt>
      <trkpt lat="42.98431" lon="0.22702">
        <ele>859.8</ele>
        <time>2025-07-22T06:06:20Z</time>
      </trkpt>
      <trkpt lat="42.98429" lon="0.22701">
        <ele>860</ele>
        <time>2025-07-22T06:06:21Z</time>
      </trkpt>
      <trkpt lat="42.98416" lon="0.22698">
        <ele>861.2</ele>
        <time>2025-07-22T06:06:26Z</time>
      </trkpt>
      <trkpt lat="42.98409" lon="0.22697">
        <ele>861.6</ele>
        <time>2025-07-22T06:06:29Z</time>
      </trkpt>
      <trkpt lat="42.98403" lon="0.22696">
        <ele>862.2</ele>
        <time>2025-07-22T06:06:32Z</time>
      </trkpt>
      <trkpt lat="42.98398" lon="0.22696">
        <ele>862.6</ele>
        <time>2025-07-22T06:06:34Z</time>
      </trkpt>
      <trkpt lat="42.98387" lon="0.22692">
        <ele>863.4</ele>
        <time>2025-07-22T06:06:39Z</time>
      </trkpt>
      <trkpt lat="42.98381" lon="0.22691">
        <ele>863.6</ele>
        <time>2025-07-22T06:06:41Z</time>
      </trkpt>
      <trkpt lat="42.98373" lon="0.22689">
        <ele>864.4</ele>
        <time>2025-07-22T06:06:45Z</time>
      </trkpt>
      <trkpt lat="42.98362" lon="0.22686">
        <ele>865</ele>
        <time>2025-07-22T06:06:50Z</time>
      </trkpt>
      <trkpt lat="42.98357" lon="0.22684">
        <ele>865.4</ele>
        <time>2025-07-22T06:06:53Z</time>
      </trkpt>
      <trkpt lat="42.98343" lon="0.22681">
        <ele>866.4</ele>
        <time>2025-07-22T06:06:59Z</time>
      </trkpt>
      <trkpt lat="42.98337" lon="0.22679">
        <ele>867.2</ele>
        <time>2025-07-22T06:07:02Z</time>
      </trkpt>
      <trkpt lat="42.98331" lon="0.22679">
        <ele>867.4</ele>
        <time>2025-07-22T06:07:05Z</time>
      </trkpt>
      <trkpt lat="42.98315" lon="0.22678">
        <ele>868.6</ele>
        <time>2025-07-22T06:07:12Z</time>
      </trkpt>
      <trkpt lat="42.98301" lon="0.2268">
        <ele>869.6</ele>
        <time>2025-07-22T06:07:18Z</time>
      </trkpt>
      <trkpt lat="42.98299" lon="0.2268">
        <ele>869.8</ele>
        <time>2025-07-22T06:07:19Z</time>
      </trkpt>
      <trkpt lat="42.98295" lon="0.22682">
        <ele>870</ele>
        <time>2025-07-22T06:07:21Z</time>
      </trkpt>
      <trkpt lat="42.9828" lon="0.22684">
        <ele>870.8</ele>
        <time>2025-07-22T06:07:27Z</time>
      </trkpt>
      <trkpt lat="42.98273" lon="0.22685">
        <ele>871.2</ele>
        <time>2025-07-22T06:07:30Z</time>
      </trkpt>
      <trkpt lat="42.98255" lon="0.2269">
        <ele>872</ele>
        <time>2025-07-22T06:07:37Z</time>
      </trkpt>
      <trkpt lat="42.98237" lon="0.22691">
        <ele>872.8</ele>
        <time>2025-07-22T06:07:44Z</time>
      </trkpt>
      <trkpt lat="42.98228" lon="0.22693">
        <ele>873</ele>
        <time>2025-07-22T06:07:48Z</time>
      </trkpt>
      <trkpt lat="42.98217" lon="0.22696">
        <ele>873.2</ele>
        <time>2025-07-22T06:07:52Z</time>
      </trkpt>
      <trkpt lat="42.98209" lon="0.22698">
        <ele>873.4</ele>
        <time>2025-07-22T06:07:55Z</time>
      </trkpt>
      <trkpt lat="42.98192" lon="0.22703">
        <ele>873.8</ele>
        <time>2025-07-22T06:08:01Z</time>
      </trkpt>
      <trkpt lat="42.98175" lon="0.22703">
        <ele>874</ele>
        <time>2025-07-22T06:08:08Z</time>
      </trkpt>
      <trkpt lat="42.98166" lon="0.22704">
        <ele>874.2</ele>
        <time>2025-07-22T06:08:10Z</time>
      </trkpt>
      <trkpt lat="42.98145" lon="0.22705">
        <ele>874.6</ele>
        <time>2025-07-22T06:08:17Z</time>
      </trkpt>
      <trkpt lat="42.98136" lon="0.22706">
        <ele>874.6</ele>
        <time>2025-07-22T06:08:20Z</time>
      </trkpt>
      <trkpt lat="42.98128" lon="0.2271">
        <ele>874.8</ele>
        <time>2025-07-22T06:08:23Z</time>
      </trkpt>
      <trkpt lat="42.9812" lon="0.22711">
        <ele>875</ele>
        <time>2025-07-22T06:08:26Z</time>
      </trkpt>
      <trkpt lat="42.98114" lon="0.22712">
        <ele>875.4</ele>
        <time>2025-07-22T06:08:29Z</time>
      </trkpt>
      <trkpt lat="42.98106" lon="0.22713">
        <ele>876.2</ele>
        <time>2025-07-22T06:08:32Z</time>
      </trkpt>
      <trkpt lat="42.98078" lon="0.22717">
        <ele>877.2</ele>
        <time>2025-07-22T06:08:41Z</time>
      </trkpt>
      <trkpt lat="42.98054" lon="0.22724">
        <ele>878.2</ele>
        <time>2025-07-22T06:08:50Z</time>
      </trkpt>
      <trkpt lat="42.98045" lon="0.2273">
        <ele>878.4</ele>
        <time>2025-07-22T06:08:52Z</time>
      </trkpt>
      <trkpt lat="42.98018" lon="0.22745">
        <ele>879.2</ele>
        <time>2025-07-22T06:09:01Z</time>
      </trkpt>
      <trkpt lat="42.98015" lon="0.22746">
        <ele>879.2</ele>
        <time>2025-07-22T06:09:02Z</time>
      </trkpt>
      <trkpt lat="42.97993" lon="0.22755">
        <ele>880.2</ele>
        <time>2025-07-22T06:09:09Z</time>
      </trkpt>
      <trkpt lat="42.97991" lon="0.22756">
        <ele>880.4</ele>
        <time>2025-07-22T06:09:10Z</time>
      </trkpt>
      <trkpt lat="42.97961" lon="0.22774">
        <ele>881</ele>
        <time>2025-07-22T06:09:19Z</time>
      </trkpt>
      <trkpt lat="42.97934" lon="0.22787">
        <ele>881.4</ele>
        <time>2025-07-22T06:09:27Z</time>
      </trkpt>
      <trkpt lat="42.97922" lon="0.22789">
        <ele>881.6</ele>
        <time>2025-07-22T06:09:30Z</time>
      </trkpt>
      <trkpt lat="42.97904" lon="0.22791">
        <ele>881.8</ele>
        <time>2025-07-22T06:09:35Z</time>
      </trkpt>
      <trkpt lat="42.97879" lon="0.22799">
        <ele>882.4</ele>
        <time>2025-07-22T06:09:42Z</time>
      </trkpt>
      <trkpt lat="42.97868" lon="0.22804">
        <ele>882.6</ele>
        <time>2025-07-22T06:09:45Z</time>
      </trkpt>
      <trkpt lat="42.97845" lon="0.22808">
        <ele>883.4</ele>
        <time>2025-07-22T06:09:52Z</time>
      </trkpt>
      <trkpt lat="42.97839" lon="0.22809">
        <ele>883.8</ele>
        <time>2025-07-22T06:09:54Z</time>
      </trkpt>
      <trkpt lat="42.97823" lon="0.2281">
        <ele>884.6</ele>
        <time>2025-07-22T06:10:00Z</time>
      </trkpt>
      <trkpt lat="42.97818" lon="0.22811">
        <ele>885.2</ele>
        <time>2025-07-22T06:10:02Z</time>
      </trkpt>
      <trkpt lat="42.9781" lon="0.22812">
        <ele>885.6</ele>
        <time>2025-07-22T06:10:05Z</time>
      </trkpt>
      <trkpt lat="42.97796" lon="0.22815">
        <ele>886.8</ele>
        <time>2025-07-22T06:10:11Z</time>
      </trkpt>
      <trkpt lat="42.97785" lon="0.2282">
        <ele>887.8</ele>
        <time>2025-07-22T06:10:16Z</time>
      </trkpt>
      <trkpt lat="42.97782" lon="0.22821">
        <ele>888</ele>
        <time>2025-07-22T06:10:17Z</time>
      </trkpt>
      <trkpt lat="42.97768" lon="0.22827">
        <ele>889</ele>
        <time>2025-07-22T06:10:23Z</time>
      </trkpt>
      <trkpt lat="42.97761" lon="0.2283">
        <ele>889.4</ele>
        <time>2025-07-22T06:10:26Z</time>
      </trkpt>
      <trkpt lat="42.97754" lon="0.22832">
        <ele>890</ele>
        <time>2025-07-22T06:10:29Z</time>
      </trkpt>
      <trkpt lat="42.97749" lon="0.22833">
        <ele>890.2</ele>
        <time>2025-07-22T06:10:31Z</time>
      </trkpt>
      <trkpt lat="42.97737" lon="0.22834">
        <ele>891</ele>
        <time>2025-07-22T06:10:36Z</time>
      </trkpt>
      <trkpt lat="42.97733" lon="0.22834">
        <ele>891.2</ele>
        <time>2025-07-22T06:10:38Z</time>
      </trkpt>
      <trkpt lat="42.97719" lon="0.22835">
        <ele>892.6</ele>
        <time>2025-07-22T06:10:45Z</time>
      </trkpt>
      <trkpt lat="42.9771" lon="0.22834">
        <ele>893.6</ele>
        <time>2025-07-22T06:10:50Z</time>
      </trkpt>
      <trkpt lat="42.97703" lon="0.22833">
        <ele>894.2</ele>
        <time>2025-07-22T06:10:53Z</time>
      </trkpt>
      <trkpt lat="42.97696" lon="0.22833">
        <ele>894.8</ele>
        <time>2025-07-22T06:10:57Z</time>
      </trkpt>
      <trkpt lat="42.97688" lon="0.22834">
        <ele>895.6</ele>
        <time>2025-07-22T06:11:01Z</time>
      </trkpt>
      <trkpt lat="42.97685" lon="0.22834">
        <ele>896</ele>
        <time>2025-07-22T06:11:02Z</time>
      </trkpt>
      <trkpt lat="42.97676" lon="0.22835">
        <ele>897.2</ele>
        <time>2025-07-22T06:11:07Z</time>
      </trkpt>
      <trkpt lat="42.97668" lon="0.2283">
        <ele>898.4</ele>
        <time>2025-07-22T06:11:12Z</time>
      </trkpt>
      <trkpt lat="42.97664" lon="0.22829">
        <ele>898.8</ele>
        <time>2025-07-22T06:11:14Z</time>
      </trkpt>
      <trkpt lat="42.97657" lon="0.22825">
        <ele>899.4</ele>
        <time>2025-07-22T06:11:18Z</time>
      </trkpt>
      <trkpt lat="42.97648" lon="0.22822">
        <ele>900.2</ele>
        <time>2025-07-22T06:11:22Z</time>
      </trkpt>
      <trkpt lat="42.97644" lon="0.22821">
        <ele>900.4</ele>
        <time>2025-07-22T06:11:24Z</time>
      </trkpt>
      <trkpt lat="42.97631" lon="0.22819">
        <ele>901.4</ele>
        <time>2025-07-22T06:11:30Z</time>
      </trkpt>
      <trkpt lat="42.97616" lon="0.22819">
        <ele>902.4</ele>
        <time>2025-07-22T06:11:37Z</time>
      </trkpt>
      <trkpt lat="42.97614" lon="0.22819">
        <ele>902.6</ele>
        <time>2025-07-22T06:11:38Z</time>
      </trkpt>
      <trkpt lat="42.97595" lon="0.22819">
        <ele>903.2</ele>
        <time>2025-07-22T06:11:45Z</time>
      </trkpt>
      <trkpt lat="42.97586" lon="0.22821">
        <ele>903.2</ele>
        <time>2025-07-22T06:11:48Z</time>
      </trkpt>
      <trkpt lat="42.97559" lon="0.22829">
        <ele>903.2</ele>
        <time>2025-07-22T06:11:56Z</time>
      </trkpt>
      <trkpt lat="42.97528" lon="0.22842">
        <ele>903.2</ele>
        <time>2025-07-22T06:12:05Z</time>
      </trkpt>
      <trkpt lat="42.97502" lon="0.22864">
        <ele>903.4</ele>
        <time>2025-07-22T06:12:13Z</time>
      </trkpt>
      <trkpt lat="42.97484" lon="0.22878">
        <ele>903.8</ele>
        <time>2025-07-22T06:12:19Z</time>
      </trkpt>
      <trkpt lat="42.97471" lon="0.22887">
        <ele>904.4</ele>
        <time>2025-07-22T06:12:23Z</time>
      </trkpt>
      <trkpt lat="42.97459" lon="0.22895">
        <ele>904.8</ele>
        <time>2025-07-22T06:12:27Z</time>
      </trkpt>
      <trkpt lat="42.9744" lon="0.22909">
        <ele>905.4</ele>
        <time>2025-07-22T06:12:33Z</time>
      </trkpt>
      <trkpt lat="42.97428" lon="0.22918">
        <ele>905.8</ele>
        <time>2025-07-22T06:12:37Z</time>
      </trkpt>
      <trkpt lat="42.9742" lon="0.22924">
        <ele>906.4</ele>
        <time>2025-07-22T06:12:40Z</time>
      </trkpt>
      <trkpt lat="42.97409" lon="0.22933">
        <ele>907.4</ele>
        <time>2025-07-22T06:12:45Z</time>
      </trkpt>
      <trkpt lat="42.97394" lon="0.22945">
        <ele>908.6</ele>
        <time>2025-07-22T06:12:51Z</time>
      </trkpt>
      <trkpt lat="42.97385" lon="0.22952">
        <ele>909.2</ele>
        <time>2025-07-22T06:12:55Z</time>
      </trkpt>
      <trkpt lat="42.97381" lon="0.22956">
        <ele>909.6</ele>
        <time>2025-07-22T06:12:57Z</time>
      </trkpt>
      <trkpt lat="42.97365" lon="0.22968">
        <ele>910.6</ele>
        <time>2025-07-22T06:13:04Z</time>
      </trkpt>
      <trkpt lat="42.97353" lon="0.22975">
        <ele>911.6</ele>
        <time>2025-07-22T06:13:09Z</time>
      </trkpt>
      <trkpt lat="42.97342" lon="0.22984">
        <ele>912.6</ele>
        <time>2025-07-22T06:13:14Z</time>
      </trkpt>
      <trkpt lat="42.97337" lon="0.22987">
        <ele>913</ele>
        <time>2025-07-22T06:13:16Z</time>
      </trkpt>
      <trkpt lat="42.97325" lon="0.22994">
        <ele>913.6</ele>
        <time>2025-07-22T06:13:21Z</time>
      </trkpt>
      <trkpt lat="42.97314" lon="0.22998">
        <ele>914</ele>
        <time>2025-07-22T06:13:25Z</time>
      </trkpt>
      <trkpt lat="42.97298" lon="0.23001">
        <ele>914.6</ele>
        <time>2025-07-22T06:13:31Z</time>
      </trkpt>
      <trkpt lat="42.97287" lon="0.23003">
        <ele>915.2</ele>
        <time>2025-07-22T06:13:35Z</time>
      </trkpt>
      <trkpt lat="42.9727" lon="0.23006">
        <ele>915.8</ele>
        <time>2025-07-22T06:13:41Z</time>
      </trkpt>
      <trkpt lat="42.97265" lon="0.23006">
        <ele>916</ele>
        <time>2025-07-22T06:13:43Z</time>
      </trkpt>
      <trkpt lat="42.97245" lon="0.23008">
        <ele>916.8</ele>
        <time>2025-07-22T06:13:50Z</time>
      </trkpt>
      <trkpt lat="42.97219" lon="0.23013">
        <ele>917.4</ele>
        <time>2025-07-22T06:13:59Z</time>
      </trkpt>
      <trkpt lat="42.97213" lon="0.23015">
        <ele>917.8</ele>
        <time>2025-07-22T06:14:01Z</time>
      </trkpt>
      <trkpt lat="42.97197" lon="0.23024">
        <ele>918.4</ele>
        <time>2025-07-22T06:14:07Z</time>
      </trkpt>
      <trkpt lat="42.97184" lon="0.23033">
        <ele>918.8</ele>
        <time>2025-07-22T06:14:12Z</time>
      </trkpt>
      <trkpt lat="42.97172" lon="0.23041">
        <ele>919.2</ele>
        <time>2025-07-22T06:14:16Z</time>
      </trkpt>
      <trkpt lat="42.97148" lon="0.2306">
        <ele>920</ele>
        <time>2025-07-22T06:14:25Z</time>
      </trkpt>
      <trkpt lat="42.97138" lon="0.23068">
        <ele>920.4</ele>
        <time>2025-07-22T06:14:29Z</time>
      </trkpt>
      <trkpt lat="42.97122" lon="0.23079">
        <ele>921.4</ele>
        <time>2025-07-22T06:14:35Z</time>
      </trkpt>
      <trkpt lat="42.97112" lon="0.23086">
        <ele>922</ele>
        <time>2025-07-22T06:14:39Z</time>
      </trkpt>
      <trkpt lat="42.97105" lon="0.23092">
        <ele>922.8</ele>
        <time>2025-07-22T06:14:42Z</time>
      </trkpt>
      <trkpt lat="42.97095" lon="0.23099">
        <ele>923.8</ele>
        <time>2025-07-22T06:14:47Z</time>
      </trkpt>
      <trkpt lat="42.97092" lon="0.23101">
        <ele>924</ele>
        <time>2025-07-22T06:14:48Z</time>
      </trkpt>
      <trkpt lat="42.97085" lon="0.23105">
        <ele>925</ele>
        <time>2025-07-22T06:14:52Z</time>
      </trkpt>
      <trkpt lat="42.9708" lon="0.23107">
        <ele>925.4</ele>
        <time>2025-07-22T06:14:54Z</time>
      </trkpt>
      <trkpt lat="42.97069" lon="0.23111">
        <ele>925.8</ele>
        <time>2025-07-22T06:14:58Z</time>
      </trkpt>
      <trkpt lat="42.97064" lon="0.23112">
        <ele>926.4</ele>
        <time>2025-07-22T06:15:00Z</time>
      </trkpt>
      <trkpt lat="42.97052" lon="0.23112">
        <ele>926.8</ele>
        <time>2025-07-22T06:15:04Z</time>
      </trkpt>
      <trkpt lat="42.97042" lon="0.2311">
        <ele>927</ele>
        <time>2025-07-22T06:15:08Z</time>
      </trkpt>
      <trkpt lat="42.97024" lon="0.23108">
        <ele>927.8</ele>
        <time>2025-07-22T06:15:15Z</time>
      </trkpt>
      <trkpt lat="42.97017" lon="0.23106">
        <ele>928.2</ele>
        <time>2025-07-22T06:15:18Z</time>
      </trkpt>
      <trkpt lat="42.97001" lon="0.23102">
        <ele>929</ele>
        <time>2025-07-22T06:15:24Z</time>
      </trkpt>
      <trkpt lat="42.96991" lon="0.23099">
        <ele>929.4</ele>
        <time>2025-07-22T06:15:28Z</time>
      </trkpt>
      <trkpt lat="42.96976" lon="0.23095">
        <ele>930</ele>
        <time>2025-07-22T06:15:34Z</time>
      </trkpt>
      <trkpt lat="42.96963" lon="0.23091">
        <ele>930.8</ele>
        <time>2025-07-22T06:15:39Z</time>
      </trkpt>
      <trkpt lat="42.9696" lon="0.2309">
        <ele>931</ele>
        <time>2025-07-22T06:15:40Z</time>
      </trkpt>
      <trkpt lat="42.96938" lon="0.23081">
        <ele>932</ele>
        <time>2025-07-22T06:15:49Z</time>
      </trkpt>
      <trkpt lat="42.96921" lon="0.23073">
        <ele>933.2</ele>
        <time>2025-07-22T06:15:56Z</time>
      </trkpt>
      <trkpt lat="42.96908" lon="0.23066">
        <ele>934.2</ele>
        <time>2025-07-22T06:16:02Z</time>
      </trkpt>
      <trkpt lat="42.96906" lon="0.23064">
        <ele>934.4</ele>
        <time>2025-07-22T06:16:03Z</time>
      </trkpt>
      <trkpt lat="42.96899" lon="0.23059">
        <ele>935.4</ele>
        <time>2025-07-22T06:16:07Z</time>
      </trkpt>
      <trkpt lat="42.96888" lon="0.23051">
        <ele>936.4</ele>
        <time>2025-07-22T06:16:12Z</time>
      </trkpt>
      <trkpt lat="42.96884" lon="0.23048">
        <ele>936.8</ele>
        <time>2025-07-22T06:16:14Z</time>
      </trkpt>
      <trkpt lat="42.96877" lon="0.23045">
        <ele>937.4</ele>
        <time>2025-07-22T06:16:17Z</time>
      </trkpt>
      <trkpt lat="42.96868" lon="0.2304">
        <ele>938</ele>
        <time>2025-07-22T06:16:21Z</time>
      </trkpt>
      <trkpt lat="42.96861" lon="0.23036">
        <ele>938.4</ele>
        <time>2025-07-22T06:16:24Z</time>
      </trkpt>
      <trkpt lat="42.96845" lon="0.23032">
        <ele>938.8</ele>
        <time>2025-07-22T06:16:30Z</time>
      </trkpt>
      <trkpt lat="42.96834" lon="0.2303">
        <ele>939.6</ele>
        <time>2025-07-22T06:16:34Z</time>
      </trkpt>
      <trkpt lat="42.96817" lon="0.23026">
        <ele>940.4</ele>
        <time>2025-07-22T06:16:41Z</time>
      </trkpt>
      <trkpt lat="42.96811" lon="0.23025">
        <ele>940.6</ele>
        <time>2025-07-22T06:16:43Z</time>
      </trkpt>
      <trkpt lat="42.9679" lon="0.23022">
        <ele>941.4</ele>
        <time>2025-07-22T06:16:51Z</time>
      </trkpt>
      <trkpt lat="42.96784" lon="0.23021">
        <ele>941.6</ele>
        <time>2025-07-22T06:16:53Z</time>
      </trkpt>
      <trkpt lat="42.96761" lon="0.23017">
        <ele>942.4</ele>
        <time>2025-07-22T06:17:01Z</time>
      </trkpt>
      <trkpt lat="42.96742" lon="0.23016">
        <ele>942.4</ele>
        <time>2025-07-22T06:17:06Z</time>
      </trkpt>
      <trkpt lat="42.96708" lon="0.23024">
        <ele>941.8</ele>
        <time>2025-07-22T06:17:13Z</time>
      </trkpt>
      <trkpt lat="42.96667" lon="0.23038">
        <ele>941.4</ele>
        <time>2025-07-22T06:17:21Z</time>
      </trkpt>
      <trkpt lat="42.96633" lon="0.23043">
        <ele>941</ele>
        <time>2025-07-22T06:17:27Z</time>
      </trkpt>
      <trkpt lat="42.96627" lon="0.23043">
        <ele>941</ele>
        <time>2025-07-22T06:17:28Z</time>
      </trkpt>
      <trkpt lat="42.96601" lon="0.23042">
        <ele>940.2</ele>
        <time>2025-07-22T06:17:32Z</time>
      </trkpt>
      <trkpt lat="42.96582" lon="0.2304">
        <ele>939.8</ele>
        <time>2025-07-22T06:17:35Z</time>
      </trkpt>
      <trkpt lat="42.96536" lon="0.23034">
        <ele>939</ele>
        <time>2025-07-22T06:17:42Z</time>
      </trkpt>
      <trkpt lat="42.96483" lon="0.23028">
        <ele>939</ele>
        <time>2025-07-22T06:17:51Z</time>
      </trkpt>
      <trkpt lat="42.96444" lon="0.23027">
        <ele>939.2</ele>
        <time>2025-07-22T06:17:58Z</time>
      </trkpt>
      <trkpt lat="42.96392" lon="0.23029">
        <ele>938.8</ele>
        <time>2025-07-22T06:18:07Z</time>
      </trkpt>
      <trkpt lat="42.96337" lon="0.2303">
        <ele>939</ele>
        <time>2025-07-22T06:18:17Z</time>
      </trkpt>
      <trkpt lat="42.96326" lon="0.23031">
        <ele>939</ele>
        <time>2025-07-22T06:18:19Z</time>
      </trkpt>
      <trkpt lat="42.96306" lon="0.23032">
        <ele>939.2</ele>
        <time>2025-07-22T06:18:23Z</time>
      </trkpt>
      <trkpt lat="42.96293" lon="0.23034">
        <ele>939.4</ele>
        <time>2025-07-22T06:18:26Z</time>
      </trkpt>
      <trkpt lat="42.96277" lon="0.23036">
        <ele>939.8</ele>
        <time>2025-07-22T06:18:30Z</time>
      </trkpt>
      <trkpt lat="42.96265" lon="0.23037">
        <ele>940.2</ele>
        <time>2025-07-22T06:18:33Z</time>
      </trkpt>
      <trkpt lat="42.96248" lon="0.23037">
        <ele>941</ele>
        <time>2025-07-22T06:18:38Z</time>
      </trkpt>
      <trkpt lat="42.96245" lon="0.23036">
        <ele>941.2</ele>
        <time>2025-07-22T06:18:39Z</time>
      </trkpt>
      <trkpt lat="42.96233" lon="0.23034">
        <ele>942.2</ele>
        <time>2025-07-22T06:18:43Z</time>
      </trkpt>
      <trkpt lat="42.96219" lon="0.23031">
        <ele>943.4</ele>
        <time>2025-07-22T06:18:48Z</time>
      </trkpt>
      <trkpt lat="42.96206" lon="0.23027">
        <ele>944.4</ele>
        <time>2025-07-22T06:18:53Z</time>
      </trkpt>
      <trkpt lat="42.96194" lon="0.23026">
        <ele>945</ele>
        <time>2025-07-22T06:18:57Z</time>
      </trkpt>
      <trkpt lat="42.96185" lon="0.23026">
        <ele>945.6</ele>
        <time>2025-07-22T06:19:00Z</time>
      </trkpt>
      <trkpt lat="42.96171" lon="0.23025">
        <ele>946.8</ele>
        <time>2025-07-22T06:19:05Z</time>
      </trkpt>
      <trkpt lat="42.96169" lon="0.23025">
        <ele>947</ele>
        <time>2025-07-22T06:19:06Z</time>
      </trkpt>
      <trkpt lat="42.9616" lon="0.23026">
        <ele>947.8</ele>
        <time>2025-07-22T06:19:09Z</time>
      </trkpt>
      <trkpt lat="42.96151" lon="0.23024">
        <ele>948.6</ele>
        <time>2025-07-22T06:19:12Z</time>
      </trkpt>
      <trkpt lat="42.96149" lon="0.23024">
        <ele>948.8</ele>
        <time>2025-07-22T06:19:13Z</time>
      </trkpt>
      <trkpt lat="42.96143" lon="0.23025">
        <ele>949.4</ele>
        <time>2025-07-22T06:19:15Z</time>
      </trkpt>
      <trkpt lat="42.96137" lon="0.23023">
        <ele>950</ele>
        <time>2025-07-22T06:19:17Z</time>
      </trkpt>
      <trkpt lat="42.96118" lon="0.23019">
        <ele>951</ele>
        <time>2025-07-22T06:19:23Z</time>
      </trkpt>
      <trkpt lat="42.96108" lon="0.23018">
        <ele>951.4</ele>
        <time>2025-07-22T06:19:26Z</time>
      </trkpt>
      <trkpt lat="42.96086" lon="0.23015">
        <ele>952</ele>
        <time>2025-07-22T06:19:33Z</time>
      </trkpt>
      <trkpt lat="42.96076" lon="0.23014">
        <ele>952.4</ele>
        <time>2025-07-22T06:19:36Z</time>
      </trkpt>
      <trkpt lat="42.9606" lon="0.23012">
        <ele>953</ele>
        <time>2025-07-22T06:19:42Z</time>
      </trkpt>
      <trkpt lat="42.96053" lon="0.23011">
        <ele>953.6</ele>
        <time>2025-07-22T06:19:45Z</time>
      </trkpt>
      <trkpt lat="42.96048" lon="0.2301">
        <ele>954.2</ele>
        <time>2025-07-22T06:19:47Z</time>
      </trkpt>
      <trkpt lat="42.96031" lon="0.23006">
        <ele>955.2</ele>
        <time>2025-07-22T06:19:54Z</time>
      </trkpt>
      <trkpt lat="42.96016" lon="0.22997">
        <ele>956.2</ele>
        <time>2025-07-22T06:20:00Z</time>
      </trkpt>
      <trkpt lat="42.96011" lon="0.22993">
        <ele>956.4</ele>
        <time>2025-07-22T06:20:02Z</time>
      </trkpt>
      <trkpt lat="42.95992" lon="0.22979">
        <ele>957.4</ele>
        <time>2025-07-22T06:20:09Z</time>
      </trkpt>
      <trkpt lat="42.95978" lon="0.22969">
        <ele>957.8</ele>
        <time>2025-07-22T06:20:14Z</time>
      </trkpt>
      <trkpt lat="42.95958" lon="0.22951">
        <ele>958.2</ele>
        <time>2025-07-22T06:20:21Z</time>
      </trkpt>
      <trkpt lat="42.95951" lon="0.22946">
        <ele>958.6</ele>
        <time>2025-07-22T06:20:23Z</time>
      </trkpt>
      <trkpt lat="42.95924" lon="0.22922">
        <ele>959.6</ele>
        <time>2025-07-22T06:20:32Z</time>
      </trkpt>
      <trkpt lat="42.95903" lon="0.22902">
        <ele>960.4</ele>
        <time>2025-07-22T06:20:39Z</time>
      </trkpt>
      <trkpt lat="42.95896" lon="0.22897">
        <ele>960.6</ele>
        <time>2025-07-22T06:20:41Z</time>
      </trkpt>
      <trkpt lat="42.9587" lon="0.2288">
        <ele>961.4</ele>
        <time>2025-07-22T06:20:49Z</time>
      </trkpt>
      <trkpt lat="42.9586" lon="0.22875">
        <ele>961.6</ele>
        <time>2025-07-22T06:20:52Z</time>
      </trkpt>
      <trkpt lat="42.95843" lon="0.22868">
        <ele>962</ele>
        <time>2025-07-22T06:20:57Z</time>
      </trkpt>
      <trkpt lat="42.95821" lon="0.22866">
        <ele>962.6</ele>
        <time>2025-07-22T06:21:03Z</time>
      </trkpt>
      <trkpt lat="42.95806" lon="0.22866">
        <ele>962.8</ele>
        <time>2025-07-22T06:21:07Z</time>
      </trkpt>
      <trkpt lat="42.95775" lon="0.22861">
        <ele>963.4</ele>
        <time>2025-07-22T06:21:15Z</time>
      </trkpt>
      <trkpt lat="42.95761" lon="0.22854">
        <ele>963.6</ele>
        <time>2025-07-22T06:21:19Z</time>
      </trkpt>
      <trkpt lat="42.95744" lon="0.22843">
        <ele>964</ele>
        <time>2025-07-22T06:21:24Z</time>
      </trkpt>
      <trkpt lat="42.95734" lon="0.22839">
        <ele>964.6</ele>
        <time>2025-07-22T06:21:27Z</time>
      </trkpt>
      <trkpt lat="42.95722" lon="0.22834">
        <ele>965.2</ele>
        <time>2025-07-22T06:21:31Z</time>
      </trkpt>
      <trkpt lat="42.95714" lon="0.2283">
        <ele>965.6</ele>
        <time>2025-07-22T06:21:34Z</time>
      </trkpt>
      <trkpt lat="42.95706" lon="0.22827">
        <ele>965.8</ele>
        <time>2025-07-22T06:21:37Z</time>
      </trkpt>
      <trkpt lat="42.95696" lon="0.22822">
        <ele>966.8</ele>
        <time>2025-07-22T06:21:41Z</time>
      </trkpt>
      <trkpt lat="42.95685" lon="0.22818">
        <ele>967.4</ele>
        <time>2025-07-22T06:21:45Z</time>
      </trkpt>
      <trkpt lat="42.95683" lon="0.22817">
        <ele>967.8</ele>
        <time>2025-07-22T06:21:46Z</time>
      </trkpt>
      <trkpt lat="42.95671" lon="0.22812">
        <ele>968.8</ele>
        <time>2025-07-22T06:21:51Z</time>
      </trkpt>
      <trkpt lat="42.95659" lon="0.22807">
        <ele>970</ele>
        <time>2025-07-22T06:21:56Z</time>
      </trkpt>
      <trkpt lat="42.95654" lon="0.22805">
        <ele>970.6</ele>
        <time>2025-07-22T06:21:58Z</time>
      </trkpt>
      <trkpt lat="42.95646" lon="0.22802">
        <ele>971.2</ele>
        <time>2025-07-22T06:22:01Z</time>
      </trkpt>
      <trkpt lat="42.95626" lon="0.22793">
        <ele>972.2</ele>
        <time>2025-07-22T06:22:09Z</time>
      </trkpt>
      <trkpt lat="42.95621" lon="0.22791">
        <ele>972.4</ele>
        <time>2025-07-22T06:22:11Z</time>
      </trkpt>
      <trkpt lat="42.95606" lon="0.22784">
        <ele>973.4</ele>
        <time>2025-07-22T06:22:17Z</time>
      </trkpt>
      <trkpt lat="42.95595" lon="0.22782">
        <ele>973.6</ele>
        <time>2025-07-22T06:22:21Z</time>
      </trkpt>
      <trkpt lat="42.95588" lon="0.22781">
        <ele>974.2</ele>
        <time>2025-07-22T06:22:24Z</time>
      </trkpt>
      <trkpt lat="42.95573" lon="0.22782">
        <ele>975.2</ele>
        <time>2025-07-22T06:22:30Z</time>
      </trkpt>
      <trkpt lat="42.95556" lon="0.22786">
        <ele>976.4</ele>
        <time>2025-07-22T06:22:37Z</time>
      </trkpt>
      <trkpt lat="42.95548" lon="0.22788">
        <ele>976.8</ele>
        <time>2025-07-22T06:22:40Z</time>
      </trkpt>
      <trkpt lat="42.95529" lon="0.22791">
        <ele>977.6</ele>
        <time>2025-07-22T06:22:47Z</time>
      </trkpt>
      <trkpt lat="42.95523" lon="0.22791">
        <ele>977.6</ele>
        <time>2025-07-22T06:22:49Z</time>
      </trkpt>
      <trkpt lat="42.95499" lon="0.22792">
        <ele>978.2</ele>
        <time>2025-07-22T06:22:56Z</time>
      </trkpt>
      <trkpt lat="42.95482" lon="0.22791">
        <ele>978.6</ele>
        <time>2025-07-22T06:23:01Z</time>
      </trkpt>
      <trkpt lat="42.9547" lon="0.22792">
        <ele>978.6</ele>
        <time>2025-07-22T06:23:05Z</time>
      </trkpt>
      <trkpt lat="42.95451" lon="0.22791">
        <ele>979.4</ele>
        <time>2025-07-22T06:23:11Z</time>
      </trkpt>
      <trkpt lat="42.95445" lon="0.2279">
        <ele>979.6</ele>
        <time>2025-07-22T06:23:13Z</time>
      </trkpt>
      <trkpt lat="42.95419" lon="0.22789">
        <ele>980.4</ele>
        <time>2025-07-22T06:23:21Z</time>
      </trkpt>
      <trkpt lat="42.95413" lon="0.22789">
        <ele>980.6</ele>
        <time>2025-07-22T06:23:23Z</time>
      </trkpt>
      <trkpt lat="42.95395" lon="0.22787">
        <ele>981.6</ele>
        <time>2025-07-22T06:23:29Z</time>
      </trkpt>
      <trkpt lat="42.95386" lon="0.22785">
        <ele>982.2</ele>
        <time>2025-07-22T06:23:32Z</time>
      </trkpt>
      <trkpt lat="42.95377" lon="0.22783">
        <ele>982.8</ele>
        <time>2025-07-22T06:23:35Z</time>
      </trkpt>
      <trkpt lat="42.95363" lon="0.22778">
        <ele>984</ele>
        <time>2025-07-22T06:23:40Z</time>
      </trkpt>
      <trkpt lat="42.9536" lon="0.22777">
        <ele>984.2</ele>
        <time>2025-07-22T06:23:41Z</time>
      </trkpt>
      <trkpt lat="42.9534" lon="0.22766">
        <ele>985.2</ele>
        <time>2025-07-22T06:23:48Z</time>
      </trkpt>
      <trkpt lat="42.95337" lon="0.22765">
        <ele>985.2</ele>
        <time>2025-07-22T06:23:49Z</time>
      </trkpt>
      <trkpt lat="42.95314" lon="0.22754">
        <ele>986.2</ele>
        <time>2025-07-22T06:23:57Z</time>
      </trkpt>
      <trkpt lat="42.95299" lon="0.22747">
        <ele>986.8</ele>
        <time>2025-07-22T06:24:02Z</time>
      </trkpt>
      <trkpt lat="42.95284" lon="0.2274">
        <ele>987.2</ele>
        <time>2025-07-22T06:24:07Z</time>
      </trkpt>
      <trkpt lat="42.95265" lon="0.22731">
        <ele>988.4</ele>
        <time>2025-07-22T06:24:13Z</time>
      </trkpt>
      <trkpt lat="42.95248" lon="0.22723">
        <ele>989.6</ele>
        <time>2025-07-22T06:24:19Z</time>
      </trkpt>
      <trkpt lat="42.95242" lon="0.2272">
        <ele>990</ele>
        <time>2025-07-22T06:24:21Z</time>
      </trkpt>
      <trkpt lat="42.9523" lon="0.22713">
        <ele>990.6</ele>
        <time>2025-07-22T06:24:25Z</time>
      </trkpt>
      <trkpt lat="42.95222" lon="0.22705">
        <ele>990.8</ele>
        <time>2025-07-22T06:24:28Z</time>
      </trkpt>
      <trkpt lat="42.95198" lon="0.22685">
        <ele>991.6</ele>
        <time>2025-07-22T06:24:36Z</time>
      </trkpt>
      <trkpt lat="42.95195" lon="0.22683">
        <ele>991.8</ele>
        <time>2025-07-22T06:24:37Z</time>
      </trkpt>
      <trkpt lat="42.95171" lon="0.22661">
        <ele>992.6</ele>
        <time>2025-07-22T06:24:46Z</time>
      </trkpt>
      <trkpt lat="42.9517" lon="0.22659">
        <ele>992.6</ele>
        <time>2025-07-22T06:24:47Z</time>
      </trkpt>
      <trkpt lat="42.9517" lon="0.22656">
        <ele>992.8</ele>
        <time>2025-07-22T06:24:48Z</time>
      </trkpt>
      <trkpt lat="42.95169" lon="0.22651">
        <ele>992.8</ele>
        <time>2025-07-22T06:24:50Z</time>
      </trkpt>
      <trkpt lat="42.95168" lon="0.22651">
        <ele>993</ele>
        <time>2025-07-22T06:24:52Z</time>
      </trkpt>
      <trkpt lat="42.95168" lon="0.22651">
        <ele>993.2</ele>
        <time>2025-07-22T06:24:56Z</time>
      </trkpt>
      <trkpt lat="42.95165" lon="0.22654">
        <ele>993</ele>
        <time>2025-07-22T06:32:51Z</time>
      </trkpt>
      <trkpt lat="42.95163" lon="0.22653">
        <ele>993</ele>
        <time>2025-07-22T06:32:52Z</time>
      </trkpt>
      <trkpt lat="42.95151" lon="0.22645">
        <ele>993</ele>
        <time>2025-07-22T06:32:57Z</time>
      </trkpt>
      <trkpt lat="42.95124" lon="0.22625">
        <ele>993.4</ele>
        <time>2025-07-22T06:33:07Z</time>
      </trkpt>
      <trkpt lat="42.95103" lon="0.22612">
        <ele>994.2</ele>
        <time>2025-07-22T06:33:14Z</time>
      </trkpt>
      <trkpt lat="42.95084" lon="0.22602">
        <ele>995.2</ele>
        <time>2025-07-22T06:33:21Z</time>
      </trkpt>
      <trkpt lat="42.95082" lon="0.22601">
        <ele>995.4</ele>
        <time>2025-07-22T06:33:22Z</time>
      </trkpt>
      <trkpt lat="42.95072" lon="0.22596">
        <ele>996</ele>
        <time>2025-07-22T06:33:26Z</time>
      </trkpt>
      <trkpt lat="42.95062" lon="0.22591">
        <ele>996.4</ele>
        <time>2025-07-22T06:33:30Z</time>
      </trkpt>
      <trkpt lat="42.95052" lon="0.22586">
        <ele>997.2</ele>
        <time>2025-07-22T06:33:34Z</time>
      </trkpt>
      <trkpt lat="42.9505" lon="0.22585">
        <ele>997.4</ele>
        <time>2025-07-22T06:33:35Z</time>
      </trkpt>
      <trkpt lat="42.95034" lon="0.22575">
        <ele>998.4</ele>
        <time>2025-07-22T06:33:42Z</time>
      </trkpt>
      <trkpt lat="42.95032" lon="0.22574">
        <ele>998.6</ele>
        <time>2025-07-22T06:33:43Z</time>
      </trkpt>
      <trkpt lat="42.95018" lon="0.22567">
        <ele>999.6</ele>
        <time>2025-07-22T06:33:49Z</time>
      </trkpt>
      <trkpt lat="42.95012" lon="0.22563">
        <ele>1000</ele>
        <time>2025-07-22T06:33:52Z</time>
      </trkpt>
      <trkpt lat="42.95008" lon="0.22562">
        <ele>1000.8</ele>
        <time>2025-07-22T06:33:54Z</time>
      </trkpt>
      <trkpt lat="42.95004" lon="0.2256">
        <ele>1001</ele>
        <time>2025-07-22T06:33:56Z</time>
      </trkpt>
      <trkpt lat="42.95" lon="0.22559">
        <ele>1001.4</ele>
        <time>2025-07-22T06:33:58Z</time>
      </trkpt>
      <trkpt lat="42.94996" lon="0.22557">
        <ele>1001.8</ele>
        <time>2025-07-22T06:34:00Z</time>
      </trkpt>
      <trkpt lat="42.94986" lon="0.22555">
        <ele>1002.4</ele>
        <time>2025-07-22T06:34:05Z</time>
      </trkpt>
      <trkpt lat="42.94982" lon="0.22555">
        <ele>1002.8</ele>
        <time>2025-07-22T06:34:07Z</time>
      </trkpt>
      <trkpt lat="42.94977" lon="0.22554">
        <ele>1003.6</ele>
        <time>2025-07-22T06:34:10Z</time>
      </trkpt>
      <trkpt lat="42.94973" lon="0.22552">
        <ele>1004</ele>
        <time>2025-07-22T06:34:12Z</time>
      </trkpt>
      <trkpt lat="42.94964" lon="0.22551">
        <ele>1005</ele>
        <time>2025-07-22T06:34:17Z</time>
      </trkpt>
      <trkpt lat="42.94962" lon="0.2255">
        <ele>1005.2</ele>
        <time>2025-07-22T06:34:18Z</time>
      </trkpt>
      <trkpt lat="42.94958" lon="0.22547">
        <ele>1005.8</ele>
        <time>2025-07-22T06:34:21Z</time>
      </trkpt>
      <trkpt lat="42.94956" lon="0.22547">
        <ele>1006</ele>
        <time>2025-07-22T06:34:22Z</time>
      </trkpt>
      <trkpt lat="42.94953" lon="0.22545">
        <ele>1006.4</ele>
        <time>2025-07-22T06:34:24Z</time>
      </trkpt>
      <trkpt lat="42.94948" lon="0.22541">
        <ele>1006.6</ele>
        <time>2025-07-22T06:34:27Z</time>
      </trkpt>
      <trkpt lat="42.94939" lon="0.22534">
        <ele>1007.4</ele>
        <time>2025-07-22T06:34:32Z</time>
      </trkpt>
      <trkpt lat="42.9493" lon="0.22525">
        <ele>1008.4</ele>
        <time>2025-07-22T06:34:37Z</time>
      </trkpt>
      <trkpt lat="42.94929" lon="0.22524">
        <ele>1008.4</ele>
        <time>2025-07-22T06:34:38Z</time>
      </trkpt>
      <trkpt lat="42.94916" lon="0.22507">
        <ele>1009.4</ele>
        <time>2025-07-22T06:34:46Z</time>
      </trkpt>
      <trkpt lat="42.94914" lon="0.22504">
        <ele>1009.6</ele>
        <time>2025-07-22T06:34:47Z</time>
      </trkpt>
      <trkpt lat="42.94904" lon="0.2248">
        <ele>1010.6</ele>
        <time>2025-07-22T06:34:55Z</time>
      </trkpt>
      <trkpt lat="42.94902" lon="0.22477">
        <ele>1010.8</ele>
        <time>2025-07-22T06:34:56Z</time>
      </trkpt>
      <trkpt lat="42.94893" lon="0.22461">
        <ele>1011.6</ele>
        <time>2025-07-22T06:35:02Z</time>
      </trkpt>
      <trkpt lat="42.94889" lon="0.22456">
        <ele>1012</ele>
        <time>2025-07-22T06:35:04Z</time>
      </trkpt>
      <trkpt lat="42.94878" lon="0.22449">
        <ele>1012.8</ele>
        <time>2025-07-22T06:35:09Z</time>
      </trkpt>
      <trkpt lat="42.94876" lon="0.22448">
        <ele>1013</ele>
        <time>2025-07-22T06:35:10Z</time>
      </trkpt>
      <trkpt lat="42.94862" lon="0.22444">
        <ele>1013.8</ele>
        <time>2025-07-22T06:35:16Z</time>
      </trkpt>
      <trkpt lat="42.9486" lon="0.22444">
        <ele>1014</ele>
        <time>2025-07-22T06:35:17Z</time>
      </trkpt>
      <trkpt lat="42.94854" lon="0.22441">
        <ele>1014.6</ele>
        <time>2025-07-22T06:35:20Z</time>
      </trkpt>
      <trkpt lat="42.9485" lon="0.22441">
        <ele>1015</ele>
        <time>2025-07-22T06:35:22Z</time>
      </trkpt>
      <trkpt lat="42.94838" lon="0.22437">
        <ele>1015.8</ele>
        <time>2025-07-22T06:35:27Z</time>
      </trkpt>
      <trkpt lat="42.94833" lon="0.22435">
        <ele>1016</ele>
        <time>2025-07-22T06:35:29Z</time>
      </trkpt>
      <trkpt lat="42.94821" lon="0.22426">
        <ele>1017</ele>
        <time>2025-07-22T06:35:34Z</time>
      </trkpt>
      <trkpt lat="42.94815" lon="0.22423">
        <ele>1017.2</ele>
        <time>2025-07-22T06:35:36Z</time>
      </trkpt>
      <trkpt lat="42.948" lon="0.22413">
        <ele>1017.4</ele>
        <time>2025-07-22T06:35:41Z</time>
      </trkpt>
      <trkpt lat="42.94769" lon="0.22394">
        <ele>1018</ele>
        <time>2025-07-22T06:35:50Z</time>
      </trkpt>
      <trkpt lat="42.94766" lon="0.22392">
        <ele>1018.2</ele>
        <time>2025-07-22T06:35:51Z</time>
      </trkpt>
      <trkpt lat="42.94754" lon="0.22381">
        <ele>1019.2</ele>
        <time>2025-07-22T06:35:56Z</time>
      </trkpt>
      <trkpt lat="42.94752" lon="0.22379">
        <ele>1019.4</ele>
        <time>2025-07-22T06:35:57Z</time>
      </trkpt>
      <trkpt lat="42.94742" lon="0.22369">
        <ele>1020.2</ele>
        <time>2025-07-22T06:36:02Z</time>
      </trkpt>
      <trkpt lat="42.94737" lon="0.22362">
        <ele>1020.8</ele>
        <time>2025-07-22T06:36:05Z</time>
      </trkpt>
      <trkpt lat="42.94731" lon="0.22355">
        <ele>1021.4</ele>
        <time>2025-07-22T06:36:08Z</time>
      </trkpt>
      <trkpt lat="42.94718" lon="0.22341">
        <ele>1022</ele>
        <time>2025-07-22T06:36:14Z</time>
      </trkpt>
      <trkpt lat="42.94713" lon="0.22331">
        <ele>1022.4</ele>
        <time>2025-07-22T06:36:17Z</time>
      </trkpt>
      <trkpt lat="42.94704" lon="0.22316">
        <ele>1023.2</ele>
        <time>2025-07-22T06:36:22Z</time>
      </trkpt>
      <trkpt lat="42.94695" lon="0.22298">
        <ele>1023.6</ele>
        <time>2025-07-22T06:36:27Z</time>
      </trkpt>
      <trkpt lat="42.94685" lon="0.22279">
        <ele>1024</ele>
        <time>2025-07-22T06:36:31Z</time>
      </trkpt>
      <trkpt lat="42.94683" lon="0.22272">
        <ele>1024.6</ele>
        <time>2025-07-22T06:36:33Z</time>
      </trkpt>
      <trkpt lat="42.9468" lon="0.22258">
        <ele>1025.2</ele>
        <time>2025-07-22T06:36:37Z</time>
      </trkpt>
      <trkpt lat="42.94679" lon="0.22255">
        <ele>1025.4</ele>
        <time>2025-07-22T06:36:38Z</time>
      </trkpt>
      <trkpt lat="42.94678" lon="0.22246">
        <ele>1025.6</ele>
        <time>2025-07-22T06:36:41Z</time>
      </trkpt>
      <trkpt lat="42.94676" lon="0.22235">
        <ele>1027</ele>
        <time>2025-07-22T06:36:46Z</time>
      </trkpt>
      <trkpt lat="42.94674" lon="0.22229">
        <ele>1027</ele>
        <time>2025-07-22T06:36:47Z</time>
      </trkpt>
      <trkpt lat="42.94672" lon="0.22218">
        <ele>1028</ele>
        <time>2025-07-22T06:36:51Z</time>
      </trkpt>
      <trkpt lat="42.94672" lon="0.22214">
        <ele>1028.6</ele>
        <time>2025-07-22T06:36:54Z</time>
      </trkpt>
      <trkpt lat="42.94671" lon="0.22206">
        <ele>1029.2</ele>
        <time>2025-07-22T06:36:56Z</time>
      </trkpt>
      <trkpt lat="42.94669" lon="0.22191">
        <ele>1030.4</ele>
        <time>2025-07-22T06:37:02Z</time>
      </trkpt>
      <trkpt lat="42.94667" lon="0.22185">
        <ele>1030.6</ele>
        <time>2025-07-22T06:37:03Z</time>
      </trkpt>
      <trkpt lat="42.94662" lon="0.22173">
        <ele>1031.8</ele>
        <time>2025-07-22T06:37:08Z</time>
      </trkpt>
      <trkpt lat="42.94659" lon="0.22165">
        <ele>1032.4</ele>
        <time>2025-07-22T06:37:11Z</time>
      </trkpt>
      <trkpt lat="42.94653" lon="0.22158">
        <ele>1033</ele>
        <time>2025-07-22T06:37:14Z</time>
      </trkpt>
      <trkpt lat="42.94642" lon="0.22145">
        <ele>1034</ele>
        <time>2025-07-22T06:37:20Z</time>
      </trkpt>
      <trkpt lat="42.94641" lon="0.22143">
        <ele>1034</ele>
        <time>2025-07-22T06:37:21Z</time>
      </trkpt>
      <trkpt lat="42.9463" lon="0.22137">
        <ele>1035.2</ele>
        <time>2025-07-22T06:37:26Z</time>
      </trkpt>
      <trkpt lat="42.94621" lon="0.22133">
        <ele>1035.8</ele>
        <time>2025-07-22T06:37:30Z</time>
      </trkpt>
      <trkpt lat="42.94617" lon="0.22133">
        <ele>1036.2</ele>
        <time>2025-07-22T06:37:32Z</time>
      </trkpt>
      <trkpt lat="42.94604" lon="0.22129">
        <ele>1037.2</ele>
        <time>2025-07-22T06:37:38Z</time>
      </trkpt>
      <trkpt lat="42.94594" lon="0.22124">
        <ele>1038.6</ele>
        <time>2025-07-22T06:37:44Z</time>
      </trkpt>
      <trkpt lat="42.94585" lon="0.22117">
        <ele>1039.2</ele>
        <time>2025-07-22T06:37:48Z</time>
      </trkpt>
      <trkpt lat="42.94579" lon="0.22112">
        <ele>1039.8</ele>
        <time>2025-07-22T06:37:51Z</time>
      </trkpt>
      <trkpt lat="42.94571" lon="0.22103">
        <ele>1040.8</ele>
        <time>2025-07-22T06:37:56Z</time>
      </trkpt>
      <trkpt lat="42.9457" lon="0.22101">
        <ele>1041.2</ele>
        <time>2025-07-22T06:37:57Z</time>
      </trkpt>
      <trkpt lat="42.94564" lon="0.22091">
        <ele>1042</ele>
        <time>2025-07-22T06:38:02Z</time>
      </trkpt>
      <trkpt lat="42.94558" lon="0.22076">
        <ele>1042.6</ele>
        <time>2025-07-22T06:38:07Z</time>
      </trkpt>
      <trkpt lat="42.94555" lon="0.22071">
        <ele>1043</ele>
        <time>2025-07-22T06:38:08Z</time>
      </trkpt>
      <trkpt lat="42.94546" lon="0.22055">
        <ele>1044.2</ele>
        <time>2025-07-22T06:38:15Z</time>
      </trkpt>
      <trkpt lat="42.9454" lon="0.22045">
        <ele>1045.6</ele>
        <time>2025-07-22T06:38:20Z</time>
      </trkpt>
      <trkpt lat="42.94532" lon="0.22033">
        <ele>1046.6</ele>
        <time>2025-07-22T06:38:25Z</time>
      </trkpt>
      <trkpt lat="42.9453" lon="0.22031">
        <ele>1046.8</ele>
        <time>2025-07-22T06:38:26Z</time>
      </trkpt>
      <trkpt lat="42.94523" lon="0.22022">
        <ele>1047.8</ele>
        <time>2025-07-22T06:38:32Z</time>
      </trkpt>
      <trkpt lat="42.94513" lon="0.22011">
        <ele>1048.8</ele>
        <time>2025-07-22T06:38:37Z</time>
      </trkpt>
      <trkpt lat="42.94512" lon="0.2201">
        <ele>1048.8</ele>
        <time>2025-07-22T06:38:38Z</time>
      </trkpt>
      <trkpt lat="42.94504" lon="0.22002">
        <ele>1049.8</ele>
        <time>2025-07-22T06:38:43Z</time>
      </trkpt>
      <trkpt lat="42.94496" lon="0.21994">
        <ele>1050.6</ele>
        <time>2025-07-22T06:38:48Z</time>
      </trkpt>
      <trkpt lat="42.94494" lon="0.21993">
        <ele>1051</ele>
        <time>2025-07-22T06:38:49Z</time>
      </trkpt>
      <trkpt lat="42.94484" lon="0.21985">
        <ele>1052</ele>
        <time>2025-07-22T06:38:55Z</time>
      </trkpt>
      <trkpt lat="42.94475" lon="0.2198">
        <ele>1052.6</ele>
        <time>2025-07-22T06:39:00Z</time>
      </trkpt>
      <trkpt lat="42.9447" lon="0.21976">
        <ele>1053.2</ele>
        <time>2025-07-22T06:39:03Z</time>
      </trkpt>
      <trkpt lat="42.94463" lon="0.21971">
        <ele>1053.8</ele>
        <time>2025-07-22T06:39:07Z</time>
      </trkpt>
      <trkpt lat="42.94459" lon="0.21968">
        <ele>1054.2</ele>
        <time>2025-07-22T06:39:09Z</time>
      </trkpt>
      <trkpt lat="42.94449" lon="0.21959">
        <ele>1055.4</ele>
        <time>2025-07-22T06:39:15Z</time>
      </trkpt>
      <trkpt lat="42.94446" lon="0.21956">
        <ele>1055.6</ele>
        <time>2025-07-22T06:39:17Z</time>
      </trkpt>
      <trkpt lat="42.94437" lon="0.21947">
        <ele>1056.6</ele>
        <time>2025-07-22T06:39:22Z</time>
      </trkpt>
      <trkpt lat="42.94431" lon="0.2194">
        <ele>1057.4</ele>
        <time>2025-07-22T06:39:26Z</time>
      </trkpt>
      <trkpt lat="42.94426" lon="0.21934">
        <ele>1057.8</ele>
        <time>2025-07-22T06:39:29Z</time>
      </trkpt>
      <trkpt lat="42.94418" lon="0.21923">
        <ele>1058.6</ele>
        <time>2025-07-22T06:39:34Z</time>
      </trkpt>
      <trkpt lat="42.94414" lon="0.21917">
        <ele>1059.2</ele>
        <time>2025-07-22T06:39:37Z</time>
      </trkpt>
      <trkpt lat="42.94408" lon="0.2191">
        <ele>1059.6</ele>
        <time>2025-07-22T06:39:40Z</time>
      </trkpt>
      <trkpt lat="42.944" lon="0.21899">
        <ele>1060.6</ele>
        <time>2025-07-22T06:39:45Z</time>
      </trkpt>
      <trkpt lat="42.94395" lon="0.21893">
        <ele>1061.2</ele>
        <time>2025-07-22T06:39:48Z</time>
      </trkpt>
      <trkpt lat="42.9439" lon="0.21887">
        <ele>1061.8</ele>
        <time>2025-07-22T06:39:51Z</time>
      </trkpt>
      <trkpt lat="42.94383" lon="0.21879">
        <ele>1062.8</ele>
        <time>2025-07-22T06:39:56Z</time>
      </trkpt>
      <trkpt lat="42.9438" lon="0.21875">
        <ele>1062.8</ele>
        <time>2025-07-22T06:39:57Z</time>
      </trkpt>
      <trkpt lat="42.94373" lon="0.21868">
        <ele>1063.8</ele>
        <time>2025-07-22T06:40:02Z</time>
      </trkpt>
      <trkpt lat="42.94371" lon="0.21866">
        <ele>1064</ele>
        <time>2025-07-22T06:40:03Z</time>
      </trkpt>
      <trkpt lat="42.94366" lon="0.21861">
        <ele>1064.4</ele>
        <time>2025-07-22T06:40:05Z</time>
      </trkpt>
      <trkpt lat="42.94364" lon="0.21856">
        <ele>1064.6</ele>
        <time>2025-07-22T06:40:07Z</time>
      </trkpt>
      <trkpt lat="42.94362" lon="0.21854">
        <ele>1065</ele>
        <time>2025-07-22T06:40:08Z</time>
      </trkpt>
      <trkpt lat="42.94358" lon="0.21847">
        <ele>1065.8</ele>
        <time>2025-07-22T06:40:11Z</time>
      </trkpt>
      <trkpt lat="42.94357" lon="0.21845">
        <ele>1066.2</ele>
        <time>2025-07-22T06:40:12Z</time>
      </trkpt>
      <trkpt lat="42.94355" lon="0.21843">
        <ele>1066.6</ele>
        <time>2025-07-22T06:40:13Z</time>
      </trkpt>
      <trkpt lat="42.94352" lon="0.21839">
        <ele>1067</ele>
        <time>2025-07-22T06:40:15Z</time>
      </trkpt>
      <trkpt lat="42.94347" lon="0.21835">
        <ele>1067.4</ele>
        <time>2025-07-22T06:40:17Z</time>
      </trkpt>
      <trkpt lat="42.94345" lon="0.21834">
        <ele>1067.8</ele>
        <time>2025-07-22T06:40:18Z</time>
      </trkpt>
      <trkpt lat="42.94339" lon="0.21828">
        <ele>1068.2</ele>
        <time>2025-07-22T06:40:21Z</time>
      </trkpt>
      <trkpt lat="42.94337" lon="0.21827">
        <ele>1068.4</ele>
        <time>2025-07-22T06:40:22Z</time>
      </trkpt>
      <trkpt lat="42.94336" lon="0.21824">
        <ele>1068.6</ele>
        <time>2025-07-22T06:40:23Z</time>
      </trkpt>
      <trkpt lat="42.94328" lon="0.21814">
        <ele>1069.4</ele>
        <time>2025-07-22T06:40:28Z</time>
      </trkpt>
      <trkpt lat="42.94325" lon="0.2181">
        <ele>1070.2</ele>
        <time>2025-07-22T06:40:30Z</time>
      </trkpt>
      <trkpt lat="42.94321" lon="0.21804">
        <ele>1070.6</ele>
        <time>2025-07-22T06:40:33Z</time>
      </trkpt>
      <trkpt lat="42.94317" lon="0.21797">
        <ele>1071</ele>
        <time>2025-07-22T06:40:36Z</time>
      </trkpt>
      <trkpt lat="42.94313" lon="0.21792">
        <ele>1071.4</ele>
        <time>2025-07-22T06:40:39Z</time>
      </trkpt>
      <trkpt lat="42.94303" lon="0.21779">
        <ele>1072.6</ele>
        <time>2025-07-22T06:40:46Z</time>
      </trkpt>
      <trkpt lat="42.943" lon="0.21775">
        <ele>1073</ele>
        <time>2025-07-22T06:40:48Z</time>
      </trkpt>
      <trkpt lat="42.94294" lon="0.21768">
        <ele>1073.6</ele>
        <time>2025-07-22T06:40:52Z</time>
      </trkpt>
      <trkpt lat="42.9429" lon="0.21763">
        <ele>1074.2</ele>
        <time>2025-07-22T06:40:55Z</time>
      </trkpt>
      <trkpt lat="42.94286" lon="0.2176">
        <ele>1075</ele>
        <time>2025-07-22T06:40:58Z</time>
      </trkpt>
      <trkpt lat="42.94276" lon="0.21747">
        <ele>1076</ele>
        <time>2025-07-22T06:41:04Z</time>
      </trkpt>
      <trkpt lat="42.94275" lon="0.21745">
        <ele>1076.2</ele>
        <time>2025-07-22T06:41:05Z</time>
      </trkpt>
      <trkpt lat="42.94267" lon="0.21732">
        <ele>1077.4</ele>
        <time>2025-07-22T06:41:11Z</time>
      </trkpt>
      <trkpt lat="42.94266" lon="0.2173">
        <ele>1077.6</ele>
        <time>2025-07-22T06:41:13Z</time>
      </trkpt>
      <trkpt lat="42.94258" lon="0.21719">
        <ele>1078.6</ele>
        <time>2025-07-22T06:41:18Z</time>
      </trkpt>
      <trkpt lat="42.94256" lon="0.21714">
        <ele>1078.6</ele>
        <time>2025-07-22T06:41:19Z</time>
      </trkpt>
      <trkpt lat="42.94255" lon="0.21712">
        <ele>1079</ele>
        <time>2025-07-22T06:41:20Z</time>
      </trkpt>
      <trkpt lat="42.94249" lon="0.21699">
        <ele>1079.8</ele>
        <time>2025-07-22T06:41:25Z</time>
      </trkpt>
      <trkpt lat="42.94246" lon="0.21695">
        <ele>1080.2</ele>
        <time>2025-07-22T06:41:27Z</time>
      </trkpt>
      <trkpt lat="42.94241" lon="0.21685">
        <ele>1081</ele>
        <time>2025-07-22T06:41:31Z</time>
      </trkpt>
      <trkpt lat="42.94239" lon="0.21678">
        <ele>1081</ele>
        <time>2025-07-22T06:41:34Z</time>
      </trkpt>
      <trkpt lat="42.94232" lon="0.21669">
        <ele>1082</ele>
        <time>2025-07-22T06:41:39Z</time>
      </trkpt>
      <trkpt lat="42.94226" lon="0.21659">
        <ele>1083</ele>
        <time>2025-07-22T06:41:43Z</time>
      </trkpt>
      <trkpt lat="42.94225" lon="0.21656">
        <ele>1083.2</ele>
        <time>2025-07-22T06:41:44Z</time>
      </trkpt>
      <trkpt lat="42.94215" lon="0.21646">
        <ele>1084.2</ele>
        <time>2025-07-22T06:41:50Z</time>
      </trkpt>
      <trkpt lat="42.94214" lon="0.21645">
        <ele>1084.4</ele>
        <time>2025-07-22T06:41:51Z</time>
      </trkpt>
      <trkpt lat="42.94207" lon="0.21638">
        <ele>1085.4</ele>
        <time>2025-07-22T06:41:55Z</time>
      </trkpt>
      <trkpt lat="42.94198" lon="0.21632">
        <ele>1086.2</ele>
        <time>2025-07-22T06:42:00Z</time>
      </trkpt>
      <trkpt lat="42.94196" lon="0.21631">
        <ele>1086.4</ele>
        <time>2025-07-22T06:42:01Z</time>
      </trkpt>
      <trkpt lat="42.94188" lon="0.2162">
        <ele>1087.4</ele>
        <time>2025-07-22T06:42:07Z</time>
      </trkpt>
      <trkpt lat="42.94187" lon="0.21618">
        <ele>1087.6</ele>
        <time>2025-07-22T06:42:08Z</time>
      </trkpt>
      <trkpt lat="42.94186" lon="0.21616">
        <ele>1087.6</ele>
        <time>2025-07-22T06:42:09Z</time>
      </trkpt>
      <trkpt lat="42.94183" lon="0.21606">
        <ele>1088.4</ele>
        <time>2025-07-22T06:42:13Z</time>
      </trkpt>
      <trkpt lat="42.94178" lon="0.21594">
        <ele>1089.6</ele>
        <time>2025-07-22T06:42:18Z</time>
      </trkpt>
      <trkpt lat="42.94177" lon="0.2159">
        <ele>1090</ele>
        <time>2025-07-22T06:42:20Z</time>
      </trkpt>
      <trkpt lat="42.94173" lon="0.2158">
        <ele>1090.6</ele>
        <time>2025-07-22T06:42:24Z</time>
      </trkpt>
      <trkpt lat="42.9417" lon="0.21569">
        <ele>1091.2</ele>
        <time>2025-07-22T06:42:28Z</time>
      </trkpt>
      <trkpt lat="42.94169" lon="0.21565">
        <ele>1091.6</ele>
        <time>2025-07-22T06:42:30Z</time>
      </trkpt>
      <trkpt lat="42.94162" lon="0.21553">
        <ele>1092.6</ele>
        <time>2025-07-22T06:42:35Z</time>
      </trkpt>
      <trkpt lat="42.94162" lon="0.21551">
        <ele>1092.8</ele>
        <time>2025-07-22T06:42:36Z</time>
      </trkpt>
      <trkpt lat="42.94159" lon="0.2154">
        <ele>1093.6</ele>
        <time>2025-07-22T06:42:40Z</time>
      </trkpt>
      <trkpt lat="42.94158" lon="0.21537">
        <ele>1093.8</ele>
        <time>2025-07-22T06:42:42Z</time>
      </trkpt>
      <trkpt lat="42.94151" lon="0.21523">
        <ele>1094.6</ele>
        <time>2025-07-22T06:42:47Z</time>
      </trkpt>
      <trkpt lat="42.94144" lon="0.21507">
        <ele>1095.4</ele>
        <time>2025-07-22T06:42:53Z</time>
      </trkpt>
      <trkpt lat="42.94139" lon="0.21497">
        <ele>1096.4</ele>
        <time>2025-07-22T06:42:57Z</time>
      </trkpt>
      <trkpt lat="42.94136" lon="0.21493">
        <ele>1096.8</ele>
        <time>2025-07-22T06:42:59Z</time>
      </trkpt>
      <trkpt lat="42.94129" lon="0.21483">
        <ele>1098.2</ele>
        <time>2025-07-22T06:43:04Z</time>
      </trkpt>
      <trkpt lat="42.94126" lon="0.2148">
        <ele>1098.4</ele>
        <time>2025-07-22T06:43:06Z</time>
      </trkpt>
      <trkpt lat="42.94121" lon="0.21472">
        <ele>1099</ele>
        <time>2025-07-22T06:43:10Z</time>
      </trkpt>
      <trkpt lat="42.94115" lon="0.21465">
        <ele>1100</ele>
        <time>2025-07-22T06:43:14Z</time>
      </trkpt>
      <trkpt lat="42.94114" lon="0.21463">
        <ele>1100</ele>
        <time>2025-07-22T06:43:15Z</time>
      </trkpt>
      <trkpt lat="42.94104" lon="0.21452">
        <ele>1101</ele>
        <time>2025-07-22T06:43:21Z</time>
      </trkpt>
      <trkpt lat="42.94104" lon="0.21452">
        <ele>1101.2</ele>
        <time>2025-07-22T06:43:22Z</time>
      </trkpt>
      <trkpt lat="42.94095" lon="0.21438">
        <ele>1102</ele>
        <time>2025-07-22T06:43:27Z</time>
      </trkpt>
      <trkpt lat="42.94091" lon="0.21433">
        <ele>1102.6</ele>
        <time>2025-07-22T06:43:30Z</time>
      </trkpt>
      <trkpt lat="42.94086" lon="0.21426">
        <ele>1103.2</ele>
        <time>2025-07-22T06:43:33Z</time>
      </trkpt>
      <trkpt lat="42.94077" lon="0.21416">
        <ele>1104.2</ele>
        <time>2025-07-22T06:43:39Z</time>
      </trkpt>
      <trkpt lat="42.94076" lon="0.21414">
        <ele>1104.4</ele>
        <time>2025-07-22T06:43:40Z</time>
      </trkpt>
      <trkpt lat="42.94069" lon="0.21405">
        <ele>1105.2</ele>
        <time>2025-07-22T06:43:45Z</time>
      </trkpt>
      <trkpt lat="42.94068" lon="0.21403">
        <ele>1105.4</ele>
        <time>2025-07-22T06:43:46Z</time>
      </trkpt>
      <trkpt lat="42.94067" lon="0.21401">
        <ele>1105.8</ele>
        <time>2025-07-22T06:43:47Z</time>
      </trkpt>
      <trkpt lat="42.9406" lon="0.2139">
        <ele>1106.4</ele>
        <time>2025-07-22T06:43:52Z</time>
      </trkpt>
      <trkpt lat="42.94055" lon="0.21383">
        <ele>1107.2</ele>
        <time>2025-07-22T06:43:56Z</time>
      </trkpt>
      <trkpt lat="42.94052" lon="0.21379">
        <ele>1107.4</ele>
        <time>2025-07-22T06:43:58Z</time>
      </trkpt>
      <trkpt lat="42.94043" lon="0.21369">
        <ele>1108.6</ele>
        <time>2025-07-22T06:44:04Z</time>
      </trkpt>
      <trkpt lat="42.94034" lon="0.2136">
        <ele>1109.4</ele>
        <time>2025-07-22T06:44:09Z</time>
      </trkpt>
      <trkpt lat="42.94031" lon="0.21355">
        <ele>1110.2</ele>
        <time>2025-07-22T06:44:12Z</time>
      </trkpt>
      <trkpt lat="42.94027" lon="0.2135">
        <ele>1110.4</ele>
        <time>2025-07-22T06:44:14Z</time>
      </trkpt>
      <trkpt lat="42.94021" lon="0.21345">
        <ele>1111</ele>
        <time>2025-07-22T06:44:17Z</time>
      </trkpt>
      <trkpt lat="42.94017" lon="0.21344">
        <ele>1111.4</ele>
        <time>2025-07-22T06:44:19Z</time>
      </trkpt>
      <trkpt lat="42.94012" lon="0.21342">
        <ele>1111.8</ele>
        <time>2025-07-22T06:44:22Z</time>
      </trkpt>
      <trkpt lat="42.94009" lon="0.21342">
        <ele>1112.2</ele>
        <time>2025-07-22T06:44:23Z</time>
      </trkpt>
      <trkpt lat="42.94005" lon="0.21339">
        <ele>1112.4</ele>
        <time>2025-07-22T06:44:25Z</time>
      </trkpt>
      <trkpt lat="42.93992" lon="0.21338">
        <ele>1113.2</ele>
        <time>2025-07-22T06:44:30Z</time>
      </trkpt>
      <trkpt lat="42.9399" lon="0.21336">
        <ele>1113.4</ele>
        <time>2025-07-22T06:44:31Z</time>
      </trkpt>
      <trkpt lat="42.93986" lon="0.21332">
        <ele>1113.6</ele>
        <time>2025-07-22T06:44:33Z</time>
      </trkpt>
      <trkpt lat="42.93982" lon="0.2133">
        <ele>1113.8</ele>
        <time>2025-07-22T06:44:35Z</time>
      </trkpt>
      <trkpt lat="42.93977" lon="0.21326">
        <ele>1114.4</ele>
        <time>2025-07-22T06:44:39Z</time>
      </trkpt>
      <trkpt lat="42.93972" lon="0.21322">
        <ele>1114.6</ele>
        <time>2025-07-22T06:44:41Z</time>
      </trkpt>
      <trkpt lat="42.93965" lon="0.21314">
        <ele>1115.6</ele>
        <time>2025-07-22T06:44:46Z</time>
      </trkpt>
      <trkpt lat="42.9396" lon="0.21308">
        <ele>1116.2</ele>
        <time>2025-07-22T06:44:49Z</time>
      </trkpt>
      <trkpt lat="42.93957" lon="0.21302">
        <ele>1116.6</ele>
        <time>2025-07-22T06:44:52Z</time>
      </trkpt>
      <trkpt lat="42.93951" lon="0.21294">
        <ele>1117.2</ele>
        <time>2025-07-22T06:44:56Z</time>
      </trkpt>
      <trkpt lat="42.93948" lon="0.2129">
        <ele>1117.8</ele>
        <time>2025-07-22T06:44:58Z</time>
      </trkpt>
      <trkpt lat="42.93943" lon="0.21283">
        <ele>1118.4</ele>
        <time>2025-07-22T06:45:02Z</time>
      </trkpt>
      <trkpt lat="42.93937" lon="0.21278">
        <ele>1118.8</ele>
        <time>2025-07-22T06:45:05Z</time>
      </trkpt>
      <trkpt lat="42.93935" lon="0.21276">
        <ele>1119</ele>
        <time>2025-07-22T06:45:06Z</time>
      </trkpt>
      <trkpt lat="42.93934" lon="0.21274">
        <ele>1119.2</ele>
        <time>2025-07-22T06:45:07Z</time>
      </trkpt>
      <trkpt lat="42.93929" lon="0.21269">
        <ele>1119.8</ele>
        <time>2025-07-22T06:45:10Z</time>
      </trkpt>
      <trkpt lat="42.93923" lon="0.21264">
        <ele>1120.6</ele>
        <time>2025-07-22T06:45:13Z</time>
      </trkpt>
      <trkpt lat="42.93917" lon="0.21258">
        <ele>1120.8</ele>
        <time>2025-07-22T06:45:16Z</time>
      </trkpt>
      <trkpt lat="42.9391" lon="0.21248">
        <ele>1121.8</ele>
        <time>2025-07-22T06:45:21Z</time>
      </trkpt>
      <trkpt lat="42.93904" lon="0.21235">
        <ele>1123</ele>
        <time>2025-07-22T06:45:27Z</time>
      </trkpt>
      <trkpt lat="42.93903" lon="0.21233">
        <ele>1123.2</ele>
        <time>2025-07-22T06:45:28Z</time>
      </trkpt>
      <trkpt lat="42.93897" lon="0.21222">
        <ele>1124</ele>
        <time>2025-07-22T06:45:32Z</time>
      </trkpt>
      <trkpt lat="42.93889" lon="0.21211">
        <ele>1124.8</ele>
        <time>2025-07-22T06:45:37Z</time>
      </trkpt>
      <trkpt lat="42.93887" lon="0.21209">
        <ele>1124.8</ele>
        <time>2025-07-22T06:45:38Z</time>
      </trkpt>
      <trkpt lat="42.93883" lon="0.21202">
        <ele>1125.4</ele>
        <time>2025-07-22T06:45:41Z</time>
      </trkpt>
      <trkpt lat="42.9388" lon="0.21198">
        <ele>1126</ele>
        <time>2025-07-22T06:45:44Z</time>
      </trkpt>
      <trkpt lat="42.93879" lon="0.21198">
        <ele>1126.2</ele>
        <time>2025-07-22T06:45:45Z</time>
      </trkpt>
      <trkpt lat="42.93879" lon="0.21198">
        <ele>1126.4</ele>
        <time>2025-07-22T06:45:46Z</time>
      </trkpt>
      <trkpt lat="42.93872" lon="0.21201">
        <ele>1127.2</ele>
        <time>2025-07-22T06:45:50Z</time>
      </trkpt>
      <trkpt lat="42.93865" lon="0.21203">
        <ele>1127.4</ele>
        <time>2025-07-22T06:45:52Z</time>
      </trkpt>
      <trkpt lat="42.93865" lon="0.21203">
        <ele>1127.8</ele>
        <time>2025-07-22T06:45:53Z</time>
      </trkpt>
      <trkpt lat="42.93861" lon="0.21202">
        <ele>1128</ele>
        <time>2025-07-22T06:45:55Z</time>
      </trkpt>
      <trkpt lat="42.93857" lon="0.212">
        <ele>1128.2</ele>
        <time>2025-07-22T06:45:56Z</time>
      </trkpt>
      <trkpt lat="42.93852" lon="0.21197">
        <ele>1128.6</ele>
        <time>2025-07-22T06:45:58Z</time>
      </trkpt>
      <trkpt lat="42.93851" lon="0.21194">
        <ele>1128.6</ele>
        <time>2025-07-22T06:45:59Z</time>
      </trkpt>
      <trkpt lat="42.93847" lon="0.21187">
        <ele>1129</ele>
        <time>2025-07-22T06:46:01Z</time>
      </trkpt>
      <trkpt lat="42.93843" lon="0.21182">
        <ele>1129.4</ele>
        <time>2025-07-22T06:46:04Z</time>
      </trkpt>
      <trkpt lat="42.93842" lon="0.21181">
        <ele>1129.4</ele>
        <time>2025-07-22T06:46:05Z</time>
      </trkpt>
      <trkpt lat="42.9384" lon="0.21181">
        <ele>1129.8</ele>
        <time>2025-07-22T06:46:06Z</time>
      </trkpt>
      <trkpt lat="42.93836" lon="0.21177">
        <ele>1130.4</ele>
        <time>2025-07-22T06:46:11Z</time>
      </trkpt>
      <trkpt lat="42.93835" lon="0.21173">
        <ele>1131.2</ele>
        <time>2025-07-22T06:46:13Z</time>
      </trkpt>
      <trkpt lat="42.93832" lon="0.21171">
        <ele>1131.4</ele>
        <time>2025-07-22T06:46:15Z</time>
      </trkpt>
      <trkpt lat="42.9383" lon="0.2117">
        <ele>1131.8</ele>
        <time>2025-07-22T06:46:17Z</time>
      </trkpt>
      <trkpt lat="42.93827" lon="0.21172">
        <ele>1132.4</ele>
        <time>2025-07-22T06:46:20Z</time>
      </trkpt>
      <trkpt lat="42.93827" lon="0.21172">
        <ele>1132.6</ele>
        <time>2025-07-22T06:46:22Z</time>
      </trkpt>
      <trkpt lat="42.93827" lon="0.2117">
        <ele>1132.8</ele>
        <time>2025-07-22T06:46:23Z</time>
      </trkpt>
      <trkpt lat="42.93824" lon="0.21165">
        <ele>1133.2</ele>
        <time>2025-07-22T06:46:25Z</time>
      </trkpt>
      <trkpt lat="42.93821" lon="0.21163">
        <ele>1133.4</ele>
        <time>2025-07-22T06:46:26Z</time>
      </trkpt>
      <trkpt lat="42.93813" lon="0.21158">
        <ele>1133.6</ele>
        <time>2025-07-22T06:46:28Z</time>
      </trkpt>
      <trkpt lat="42.93808" lon="0.21153">
        <ele>1133.8</ele>
        <time>2025-07-22T06:46:29Z</time>
      </trkpt>
      <trkpt lat="42.93802" lon="0.21133">
        <ele>1134.2</ele>
        <time>2025-07-22T06:46:32Z</time>
      </trkpt>
      <trkpt lat="42.93801" lon="0.21115">
        <ele>1134.8</ele>
        <time>2025-07-22T06:46:35Z</time>
      </trkpt>
      <trkpt lat="42.93799" lon="0.21103">
        <ele>1135.4</ele>
        <time>2025-07-22T06:46:38Z</time>
      </trkpt>
      <trkpt lat="42.93797" lon="0.21096">
        <ele>1135.8</ele>
        <time>2025-07-22T06:46:40Z</time>
      </trkpt>
      <trkpt lat="42.93795" lon="0.21095">
        <ele>1136</ele>
        <time>2025-07-22T06:46:41Z</time>
      </trkpt>
      <trkpt lat="42.93787" lon="0.21084">
        <ele>1137</ele>
        <time>2025-07-22T06:46:46Z</time>
      </trkpt>
      <trkpt lat="42.93777" lon="0.2107">
        <ele>1138</ele>
        <time>2025-07-22T06:46:53Z</time>
      </trkpt>
      <trkpt lat="42.93769" lon="0.21058">
        <ele>1139</ele>
        <time>2025-07-22T06:46:59Z</time>
      </trkpt>
      <trkpt lat="42.93766" lon="0.21054">
        <ele>1139.4</ele>
        <time>2025-07-22T06:47:01Z</time>
      </trkpt>
      <trkpt lat="42.93762" lon="0.2105">
        <ele>1140</ele>
        <time>2025-07-22T06:47:04Z</time>
      </trkpt>
      <trkpt lat="42.93761" lon="0.21048">
        <ele>1140.2</ele>
        <time>2025-07-22T06:47:05Z</time>
      </trkpt>
      <trkpt lat="42.93758" lon="0.21044">
        <ele>1140.4</ele>
        <time>2025-07-22T06:47:07Z</time>
      </trkpt>
      <trkpt lat="42.93753" lon="0.21036">
        <ele>1141.4</ele>
        <time>2025-07-22T06:47:11Z</time>
      </trkpt>
      <trkpt lat="42.93748" lon="0.21028">
        <ele>1142.2</ele>
        <time>2025-07-22T06:47:15Z</time>
      </trkpt>
      <trkpt lat="42.93747" lon="0.21025">
        <ele>1142.4</ele>
        <time>2025-07-22T06:47:16Z</time>
      </trkpt>
      <trkpt lat="42.93745" lon="0.21019">
        <ele>1142.8</ele>
        <time>2025-07-22T06:47:19Z</time>
      </trkpt>
      <trkpt lat="42.93741" lon="0.21013">
        <ele>1143.2</ele>
        <time>2025-07-22T06:47:22Z</time>
      </trkpt>
      <trkpt lat="42.93739" lon="0.21009">
        <ele>1143.6</ele>
        <time>2025-07-22T06:47:24Z</time>
      </trkpt>
      <trkpt lat="42.93736" lon="0.21001">
        <ele>1144</ele>
        <time>2025-07-22T06:47:27Z</time>
      </trkpt>
      <trkpt lat="42.93735" lon="0.20999">
        <ele>1144.4</ele>
        <time>2025-07-22T06:47:28Z</time>
      </trkpt>
      <trkpt lat="42.93733" lon="0.20993">
        <ele>1145</ele>
        <time>2025-07-22T06:47:30Z</time>
      </trkpt>
      <trkpt lat="42.93731" lon="0.20989">
        <ele>1145.4</ele>
        <time>2025-07-22T06:47:33Z</time>
      </trkpt>
      <trkpt lat="42.93727" lon="0.20985">
        <ele>1145.6</ele>
        <time>2025-07-22T06:47:34Z</time>
      </trkpt>
      <trkpt lat="42.93724" lon="0.20981">
        <ele>1145.8</ele>
        <time>2025-07-22T06:47:36Z</time>
      </trkpt>
      <trkpt lat="42.93719" lon="0.20975">
        <ele>1146.4</ele>
        <time>2025-07-22T06:47:39Z</time>
      </trkpt>
      <trkpt lat="42.93715" lon="0.20968">
        <ele>1146.8</ele>
        <time>2025-07-22T06:47:42Z</time>
      </trkpt>
      <trkpt lat="42.93709" lon="0.2096">
        <ele>1147.2</ele>
        <time>2025-07-22T06:47:46Z</time>
      </trkpt>
      <trkpt lat="42.93706" lon="0.20956">
        <ele>1147.6</ele>
        <time>2025-07-22T06:47:48Z</time>
      </trkpt>
      <trkpt lat="42.93696" lon="0.20948">
        <ele>1148.6</ele>
        <time>2025-07-22T06:47:54Z</time>
      </trkpt>
      <trkpt lat="42.93692" lon="0.20946">
        <ele>1148.8</ele>
        <time>2025-07-22T06:47:56Z</time>
      </trkpt>
      <trkpt lat="42.93685" lon="0.20941">
        <ele>1149.6</ele>
        <time>2025-07-22T06:48:00Z</time>
      </trkpt>
      <trkpt lat="42.93677" lon="0.20935">
        <ele>1150.4</ele>
        <time>2025-07-22T06:48:05Z</time>
      </trkpt>
      <trkpt lat="42.93675" lon="0.20933">
        <ele>1150.6</ele>
        <time>2025-07-22T06:48:06Z</time>
      </trkpt>
      <trkpt lat="42.93667" lon="0.20925">
        <ele>1151.8</ele>
        <time>2025-07-22T06:48:11Z</time>
      </trkpt>
      <trkpt lat="42.93663" lon="0.20919">
        <ele>1152.4</ele>
        <time>2025-07-22T06:48:14Z</time>
      </trkpt>
      <trkpt lat="42.9366" lon="0.20911">
        <ele>1152.8</ele>
        <time>2025-07-22T06:48:17Z</time>
      </trkpt>
      <trkpt lat="42.93658" lon="0.20898">
        <ele>1153.6</ele>
        <time>2025-07-22T06:48:22Z</time>
      </trkpt>
      <trkpt lat="42.93657" lon="0.20892">
        <ele>1154</ele>
        <time>2025-07-22T06:48:24Z</time>
      </trkpt>
      <trkpt lat="42.93655" lon="0.20877">
        <ele>1154.6</ele>
        <time>2025-07-22T06:48:29Z</time>
      </trkpt>
      <trkpt lat="42.93654" lon="0.20871">
        <ele>1155</ele>
        <time>2025-07-22T06:48:31Z</time>
      </trkpt>
      <trkpt lat="42.93649" lon="0.20858">
        <ele>1155.8</ele>
        <time>2025-07-22T06:48:36Z</time>
      </trkpt>
      <trkpt lat="42.93646" lon="0.20857">
        <ele>1156</ele>
        <time>2025-07-22T06:48:37Z</time>
      </trkpt>
      <trkpt lat="42.93636" lon="0.20857">
        <ele>1156.4</ele>
        <time>2025-07-22T06:48:41Z</time>
      </trkpt>
      <trkpt lat="42.93627" lon="0.20863">
        <ele>1157</ele>
        <time>2025-07-22T06:48:45Z</time>
      </trkpt>
      <trkpt lat="42.93624" lon="0.20865">
        <ele>1157</ele>
        <time>2025-07-22T06:48:46Z</time>
      </trkpt>
      <trkpt lat="42.9361" lon="0.20877">
        <ele>1157.8</ele>
        <time>2025-07-22T06:48:52Z</time>
      </trkpt>
      <trkpt lat="42.93607" lon="0.20877">
        <ele>1158.2</ele>
        <time>2025-07-22T06:48:53Z</time>
      </trkpt>
      <trkpt lat="42.93601" lon="0.20877">
        <ele>1158.2</ele>
        <time>2025-07-22T06:48:55Z</time>
      </trkpt>
      <trkpt lat="42.93596" lon="0.20874">
        <ele>1158.4</ele>
        <time>2025-07-22T06:48:57Z</time>
      </trkpt>
      <trkpt lat="42.9359" lon="0.2087">
        <ele>1158.8</ele>
        <time>2025-07-22T06:49:00Z</time>
      </trkpt>
      <trkpt lat="42.93586" lon="0.20868">
        <ele>1159.2</ele>
        <time>2025-07-22T06:49:02Z</time>
      </trkpt>
      <trkpt lat="42.9358" lon="0.2086">
        <ele>1160.2</ele>
        <time>2025-07-22T06:49:06Z</time>
      </trkpt>
      <trkpt lat="42.93579" lon="0.20859">
        <ele>1160.4</ele>
        <time>2025-07-22T06:49:07Z</time>
      </trkpt>
      <trkpt lat="42.93577" lon="0.20856">
        <ele>1160.6</ele>
        <time>2025-07-22T06:49:08Z</time>
      </trkpt>
      <trkpt lat="42.93574" lon="0.20851">
        <ele>1161</ele>
        <time>2025-07-22T06:49:10Z</time>
      </trkpt>
      <trkpt lat="42.9357" lon="0.20848">
        <ele>1161.2</ele>
        <time>2025-07-22T06:49:12Z</time>
      </trkpt>
      <trkpt lat="42.93567" lon="0.20847">
        <ele>1161.4</ele>
        <time>2025-07-22T06:49:13Z</time>
      </trkpt>
      <trkpt lat="42.93557" lon="0.20843">
        <ele>1162.2</ele>
        <time>2025-07-22T06:49:18Z</time>
      </trkpt>
      <trkpt lat="42.93555" lon="0.20843">
        <ele>1162.6</ele>
        <time>2025-07-22T06:49:19Z</time>
      </trkpt>
      <trkpt lat="42.93545" lon="0.20842">
        <ele>1163.4</ele>
        <time>2025-07-22T06:49:23Z</time>
      </trkpt>
      <trkpt lat="42.93543" lon="0.2084">
        <ele>1163.6</ele>
        <time>2025-07-22T06:49:24Z</time>
      </trkpt>
      <trkpt lat="42.93533" lon="0.20834">
        <ele>1164.6</ele>
        <time>2025-07-22T06:49:29Z</time>
      </trkpt>
      <trkpt lat="42.93523" lon="0.20827">
        <ele>1165.6</ele>
        <time>2025-07-22T06:49:34Z</time>
      </trkpt>
      <trkpt lat="42.93514" lon="0.20819">
        <ele>1166.8</ele>
        <time>2025-07-22T06:49:39Z</time>
      </trkpt>
      <trkpt lat="42.93505" lon="0.20807">
        <ele>1168</ele>
        <time>2025-07-22T06:49:45Z</time>
      </trkpt>
      <trkpt lat="42.935" lon="0.20795">
        <ele>1169</ele>
        <time>2025-07-22T06:49:50Z</time>
      </trkpt>
      <trkpt lat="42.93497" lon="0.20785">
        <ele>1169.8</ele>
        <time>2025-07-22T06:49:54Z</time>
      </trkpt>
      <trkpt lat="42.93495" lon="0.20781">
        <ele>1170</ele>
        <time>2025-07-22T06:49:56Z</time>
      </trkpt>
      <trkpt lat="42.93491" lon="0.20771">
        <ele>1171</ele>
        <time>2025-07-22T06:50:00Z</time>
      </trkpt>
      <trkpt lat="42.93489" lon="0.20763">
        <ele>1171.6</ele>
        <time>2025-07-22T06:50:03Z</time>
      </trkpt>
      <trkpt lat="42.93486" lon="0.20756">
        <ele>1172</ele>
        <time>2025-07-22T06:50:06Z</time>
      </trkpt>
      <trkpt lat="42.93479" lon="0.20745">
        <ele>1173.2</ele>
        <time>2025-07-22T06:50:11Z</time>
      </trkpt>
      <trkpt lat="42.93478" lon="0.20743">
        <ele>1173.2</ele>
        <time>2025-07-22T06:50:12Z</time>
      </trkpt>
      <trkpt lat="42.93468" lon="0.20733">
        <ele>1174.4</ele>
        <time>2025-07-22T06:50:18Z</time>
      </trkpt>
      <trkpt lat="42.93467" lon="0.20731">
        <ele>1174.6</ele>
        <time>2025-07-22T06:50:19Z</time>
      </trkpt>
      <trkpt lat="42.93461" lon="0.20725">
        <ele>1175.2</ele>
        <time>2025-07-22T06:50:23Z</time>
      </trkpt>
      <trkpt lat="42.93454" lon="0.20718">
        <ele>1176</ele>
        <time>2025-07-22T06:50:27Z</time>
      </trkpt>
      <trkpt lat="42.93453" lon="0.20716">
        <ele>1176.2</ele>
        <time>2025-07-22T06:50:28Z</time>
      </trkpt>
      <trkpt lat="42.93443" lon="0.20706">
        <ele>1177.4</ele>
        <time>2025-07-22T06:50:34Z</time>
      </trkpt>
      <trkpt lat="42.93435" lon="0.20699">
        <ele>1178.4</ele>
        <time>2025-07-22T06:50:39Z</time>
      </trkpt>
      <trkpt lat="42.93433" lon="0.20698">
        <ele>1178.6</ele>
        <time>2025-07-22T06:50:40Z</time>
      </trkpt>
      <trkpt lat="42.93427" lon="0.20691">
        <ele>1179.2</ele>
        <time>2025-07-22T06:50:44Z</time>
      </trkpt>
      <trkpt lat="42.93423" lon="0.20686">
        <ele>1179.6</ele>
        <time>2025-07-22T06:50:47Z</time>
      </trkpt>
      <trkpt lat="42.9342" lon="0.20683">
        <ele>1180</ele>
        <time>2025-07-22T06:50:49Z</time>
      </trkpt>
      <trkpt lat="42.93413" lon="0.20673">
        <ele>1180.8</ele>
        <time>2025-07-22T06:50:54Z</time>
      </trkpt>
      <trkpt lat="42.93412" lon="0.2067">
        <ele>1180.8</ele>
        <time>2025-07-22T06:50:55Z</time>
      </trkpt>
      <trkpt lat="42.93407" lon="0.20661">
        <ele>1181.8</ele>
        <time>2025-07-22T06:50:59Z</time>
      </trkpt>
      <trkpt lat="42.93405" lon="0.20653">
        <ele>1182.4</ele>
        <time>2025-07-22T06:51:02Z</time>
      </trkpt>
      <trkpt lat="42.93404" lon="0.20646">
        <ele>1183</ele>
        <time>2025-07-22T06:51:05Z</time>
      </trkpt>
      <trkpt lat="42.93401" lon="0.20634">
        <ele>1183.6</ele>
        <time>2025-07-22T06:51:09Z</time>
      </trkpt>
      <trkpt lat="42.934" lon="0.20632">
        <ele>1183.8</ele>
        <time>2025-07-22T06:51:10Z</time>
      </trkpt>
      <trkpt lat="42.93392" lon="0.20617">
        <ele>1184.8</ele>
        <time>2025-07-22T06:51:16Z</time>
      </trkpt>
      <trkpt lat="42.93391" lon="0.20615">
        <ele>1185</ele>
        <time>2025-07-22T06:51:17Z</time>
      </trkpt>
      <trkpt lat="42.93384" lon="0.20605">
        <ele>1185.8</ele>
        <time>2025-07-22T06:51:22Z</time>
      </trkpt>
      <trkpt lat="42.93377" lon="0.20593">
        <ele>1187</ele>
        <time>2025-07-22T06:51:28Z</time>
      </trkpt>
      <trkpt lat="42.93367" lon="0.20581">
        <ele>1188.2</ele>
        <time>2025-07-22T06:51:35Z</time>
      </trkpt>
      <trkpt lat="42.93364" lon="0.20578">
        <ele>1188.6</ele>
        <time>2025-07-22T06:51:37Z</time>
      </trkpt>
      <trkpt lat="42.93355" lon="0.20571">
        <ele>1189.2</ele>
        <time>2025-07-22T06:51:42Z</time>
      </trkpt>
      <trkpt lat="42.93351" lon="0.20567">
        <ele>1189.8</ele>
        <time>2025-07-22T06:51:45Z</time>
      </trkpt>
      <trkpt lat="42.93346" lon="0.20564">
        <ele>1190.4</ele>
        <time>2025-07-22T06:51:48Z</time>
      </trkpt>
      <trkpt lat="42.93336" lon="0.20558">
        <ele>1191.4</ele>
        <time>2025-07-22T06:51:53Z</time>
      </trkpt>
      <trkpt lat="42.93333" lon="0.20556">
        <ele>1191.8</ele>
        <time>2025-07-22T06:51:55Z</time>
      </trkpt>
      <trkpt lat="42.93325" lon="0.20547">
        <ele>1192.2</ele>
        <time>2025-07-22T06:52:00Z</time>
      </trkpt>
      <trkpt lat="42.93318" lon="0.20539">
        <ele>1193.2</ele>
        <time>2025-07-22T06:52:05Z</time>
      </trkpt>
      <trkpt lat="42.93315" lon="0.20535">
        <ele>1193.6</ele>
        <time>2025-07-22T06:52:07Z</time>
      </trkpt>
      <trkpt lat="42.93305" lon="0.20523">
        <ele>1194.8</ele>
        <time>2025-07-22T06:52:14Z</time>
      </trkpt>
      <trkpt lat="42.93297" lon="0.20515">
        <ele>1195.8</ele>
        <time>2025-07-22T06:52:19Z</time>
      </trkpt>
      <trkpt lat="42.93292" lon="0.2051">
        <ele>1196.2</ele>
        <time>2025-07-22T06:52:22Z</time>
      </trkpt>
      <trkpt lat="42.93286" lon="0.20503">
        <ele>1197</ele>
        <time>2025-07-22T06:52:26Z</time>
      </trkpt>
      <trkpt lat="42.93279" lon="0.20495">
        <ele>1197.8</ele>
        <time>2025-07-22T06:52:31Z</time>
      </trkpt>
      <trkpt lat="42.93278" lon="0.20493">
        <ele>1197.8</ele>
        <time>2025-07-22T06:52:32Z</time>
      </trkpt>
      <trkpt lat="42.9327" lon="0.20482">
        <ele>1198.8</ele>
        <time>2025-07-22T06:52:38Z</time>
      </trkpt>
      <trkpt lat="42.93268" lon="0.20481">
        <ele>1199</ele>
        <time>2025-07-22T06:52:39Z</time>
      </trkpt>
      <trkpt lat="42.93258" lon="0.20471">
        <ele>1200</ele>
        <time>2025-07-22T06:52:45Z</time>
      </trkpt>
      <trkpt lat="42.93251" lon="0.20464">
        <ele>1200.8</ele>
        <time>2025-07-22T06:52:50Z</time>
      </trkpt>
      <trkpt lat="42.93248" lon="0.2046">
        <ele>1201.2</ele>
        <time>2025-07-22T06:52:52Z</time>
      </trkpt>
      <trkpt lat="42.93239" lon="0.20455">
        <ele>1202</ele>
        <time>2025-07-22T06:52:57Z</time>
      </trkpt>
      <trkpt lat="42.93228" lon="0.2045">
        <ele>1203</ele>
        <time>2025-07-22T06:53:03Z</time>
      </trkpt>
      <trkpt lat="42.93221" lon="0.20446">
        <ele>1204.2</ele>
        <time>2025-07-22T06:53:07Z</time>
      </trkpt>
      <trkpt lat="42.93217" lon="0.20443">
        <ele>1204.6</ele>
        <time>2025-07-22T06:53:09Z</time>
      </trkpt>
      <trkpt lat="42.93209" lon="0.20438">
        <ele>1205.2</ele>
        <time>2025-07-22T06:53:14Z</time>
      </trkpt>
      <trkpt lat="42.93205" lon="0.20435">
        <ele>1205.6</ele>
        <time>2025-07-22T06:53:16Z</time>
      </trkpt>
      <trkpt lat="42.93198" lon="0.20433">
        <ele>1206.2</ele>
        <time>2025-07-22T06:53:20Z</time>
      </trkpt>
      <trkpt lat="42.93191" lon="0.20429">
        <ele>1207</ele>
        <time>2025-07-22T06:53:24Z</time>
      </trkpt>
      <trkpt lat="42.93188" lon="0.20426">
        <ele>1207.4</ele>
        <time>2025-07-22T06:53:26Z</time>
      </trkpt>
      <trkpt lat="42.9318" lon="0.2042">
        <ele>1208.4</ele>
        <time>2025-07-22T06:53:31Z</time>
      </trkpt>
      <trkpt lat="42.93169" lon="0.20411">
        <ele>1209.2</ele>
        <time>2025-07-22T06:53:37Z</time>
      </trkpt>
      <trkpt lat="42.93166" lon="0.20409">
        <ele>1209.4</ele>
        <time>2025-07-22T06:53:39Z</time>
      </trkpt>
      <trkpt lat="42.93155" lon="0.20402">
        <ele>1210.4</ele>
        <time>2025-07-22T06:53:45Z</time>
      </trkpt>
      <trkpt lat="42.93153" lon="0.20401">
        <ele>1210.8</ele>
        <time>2025-07-22T06:53:46Z</time>
      </trkpt>
      <trkpt lat="42.93145" lon="0.20396">
        <ele>1211.8</ele>
        <time>2025-07-22T06:53:51Z</time>
      </trkpt>
      <trkpt lat="42.93136" lon="0.20389">
        <ele>1212.8</ele>
        <time>2025-07-22T06:53:56Z</time>
      </trkpt>
      <trkpt lat="42.93135" lon="0.20388">
        <ele>1212.8</ele>
        <time>2025-07-22T06:53:57Z</time>
      </trkpt>
      <trkpt lat="42.93124" lon="0.20381">
        <ele>1213.8</ele>
        <time>2025-07-22T06:54:03Z</time>
      </trkpt>
      <trkpt lat="42.93116" lon="0.20374">
        <ele>1214.6</ele>
        <time>2025-07-22T06:54:08Z</time>
      </trkpt>
      <trkpt lat="42.93113" lon="0.20371">
        <ele>1215</ele>
        <time>2025-07-22T06:54:10Z</time>
      </trkpt>
      <trkpt lat="42.93102" lon="0.2036">
        <ele>1216.2</ele>
        <time>2025-07-22T06:54:17Z</time>
      </trkpt>
      <trkpt lat="42.93095" lon="0.20351">
        <ele>1217.4</ele>
        <time>2025-07-22T06:54:22Z</time>
      </trkpt>
      <trkpt lat="42.93091" lon="0.20346">
        <ele>1218</ele>
        <time>2025-07-22T06:54:25Z</time>
      </trkpt>
      <trkpt lat="42.93088" lon="0.20342">
        <ele>1218.4</ele>
        <time>2025-07-22T06:54:27Z</time>
      </trkpt>
      <trkpt lat="42.9308" lon="0.20331">
        <ele>1219.2</ele>
        <time>2025-07-22T06:54:33Z</time>
      </trkpt>
      <trkpt lat="42.93078" lon="0.20327">
        <ele>1219.4</ele>
        <time>2025-07-22T06:54:35Z</time>
      </trkpt>
      <trkpt lat="42.93072" lon="0.20316">
        <ele>1220.4</ele>
        <time>2025-07-22T06:54:40Z</time>
      </trkpt>
      <trkpt lat="42.9307" lon="0.20314">
        <ele>1220.8</ele>
        <time>2025-07-22T06:54:41Z</time>
      </trkpt>
      <trkpt lat="42.93065" lon="0.20304">
        <ele>1221.6</ele>
        <time>2025-07-22T06:54:46Z</time>
      </trkpt>
      <trkpt lat="42.93062" lon="0.20297">
        <ele>1222.2</ele>
        <time>2025-07-22T06:54:49Z</time>
      </trkpt>
      <trkpt lat="42.93057" lon="0.20288">
        <ele>1222.8</ele>
        <time>2025-07-22T06:54:53Z</time>
      </trkpt>
      <trkpt lat="42.93052" lon="0.2028">
        <ele>1223.4</ele>
        <time>2025-07-22T06:54:57Z</time>
      </trkpt>
      <trkpt lat="42.93048" lon="0.2027">
        <ele>1223.8</ele>
        <time>2025-07-22T06:55:01Z</time>
      </trkpt>
      <trkpt lat="42.93045" lon="0.20266">
        <ele>1224.4</ele>
        <time>2025-07-22T06:55:03Z</time>
      </trkpt>
      <trkpt lat="42.9304" lon="0.20258">
        <ele>1225</ele>
        <time>2025-07-22T06:55:07Z</time>
      </trkpt>
      <trkpt lat="42.93034" lon="0.2025">
        <ele>1226</ele>
        <time>2025-07-22T06:55:11Z</time>
      </trkpt>
      <trkpt lat="42.93033" lon="0.20248">
        <ele>1226.2</ele>
        <time>2025-07-22T06:55:12Z</time>
      </trkpt>
      <trkpt lat="42.93028" lon="0.2024">
        <ele>1226.8</ele>
        <time>2025-07-22T06:55:16Z</time>
      </trkpt>
      <trkpt lat="42.93025" lon="0.20237">
        <ele>1227.2</ele>
        <time>2025-07-22T06:55:18Z</time>
      </trkpt>
      <trkpt lat="42.93019" lon="0.20231">
        <ele>1228</ele>
        <time>2025-07-22T06:55:22Z</time>
      </trkpt>
      <trkpt lat="42.93017" lon="0.20229">
        <ele>1228.4</ele>
        <time>2025-07-22T06:55:23Z</time>
      </trkpt>
      <trkpt lat="42.93009" lon="0.20221">
        <ele>1228.8</ele>
        <time>2025-07-22T06:55:28Z</time>
      </trkpt>
      <trkpt lat="42.93004" lon="0.20217">
        <ele>1229.2</ele>
        <time>2025-07-22T06:55:31Z</time>
      </trkpt>
      <trkpt lat="42.92996" lon="0.2021">
        <ele>1230.2</ele>
        <time>2025-07-22T06:55:36Z</time>
      </trkpt>
      <trkpt lat="42.92985" lon="0.20204">
        <ele>1231.4</ele>
        <time>2025-07-22T06:55:42Z</time>
      </trkpt>
      <trkpt lat="42.92975" lon="0.20197">
        <ele>1232.6</ele>
        <time>2025-07-22T06:55:48Z</time>
      </trkpt>
      <trkpt lat="42.92972" lon="0.20193">
        <ele>1232.8</ele>
        <time>2025-07-22T06:55:50Z</time>
      </trkpt>
      <trkpt lat="42.92967" lon="0.20189">
        <ele>1233.4</ele>
        <time>2025-07-22T06:55:53Z</time>
      </trkpt>
      <trkpt lat="42.92965" lon="0.20187">
        <ele>1233.8</ele>
        <time>2025-07-22T06:55:54Z</time>
      </trkpt>
      <trkpt lat="42.92954" lon="0.2018">
        <ele>1234.8</ele>
        <time>2025-07-22T06:56:00Z</time>
      </trkpt>
      <trkpt lat="42.92949" lon="0.20176">
        <ele>1235.4</ele>
        <time>2025-07-22T06:56:03Z</time>
      </trkpt>
      <trkpt lat="42.92944" lon="0.20172">
        <ele>1236</ele>
        <time>2025-07-22T06:56:06Z</time>
      </trkpt>
      <trkpt lat="42.92935" lon="0.20166">
        <ele>1236.6</ele>
        <time>2025-07-22T06:56:11Z</time>
      </trkpt>
      <trkpt lat="42.92932" lon="0.20163">
        <ele>1236.8</ele>
        <time>2025-07-22T06:56:13Z</time>
      </trkpt>
      <trkpt lat="42.92919" lon="0.20156">
        <ele>1238</ele>
        <time>2025-07-22T06:56:20Z</time>
      </trkpt>
      <trkpt lat="42.9291" lon="0.20149">
        <ele>1239</ele>
        <time>2025-07-22T06:56:25Z</time>
      </trkpt>
      <trkpt lat="42.92901" lon="0.20143">
        <ele>1240.2</ele>
        <time>2025-07-22T06:56:30Z</time>
      </trkpt>
      <trkpt lat="42.92891" lon="0.20135">
        <ele>1241.2</ele>
        <time>2025-07-22T06:56:36Z</time>
      </trkpt>
      <trkpt lat="42.92886" lon="0.20131">
        <ele>1241.4</ele>
        <time>2025-07-22T06:56:39Z</time>
      </trkpt>
      <trkpt lat="42.92881" lon="0.20126">
        <ele>1242.2</ele>
        <time>2025-07-22T06:56:42Z</time>
      </trkpt>
      <trkpt lat="42.92876" lon="0.20118">
        <ele>1243.2</ele>
        <time>2025-07-22T06:56:46Z</time>
      </trkpt>
      <trkpt lat="42.92875" lon="0.20117">
        <ele>1243.4</ele>
        <time>2025-07-22T06:56:47Z</time>
      </trkpt>
      <trkpt lat="42.92867" lon="0.20109">
        <ele>1244.4</ele>
        <time>2025-07-22T06:56:52Z</time>
      </trkpt>
      <trkpt lat="42.92864" lon="0.20105">
        <ele>1244.6</ele>
        <time>2025-07-22T06:56:54Z</time>
      </trkpt>
      <trkpt lat="42.92862" lon="0.20103">
        <ele>1244.6</ele>
        <time>2025-07-22T06:56:56Z</time>
      </trkpt>
      <trkpt lat="42.92856" lon="0.20092">
        <ele>1245.6</ele>
        <time>2025-07-22T06:57:01Z</time>
      </trkpt>
      <trkpt lat="42.92854" lon="0.20088">
        <ele>1246</ele>
        <time>2025-07-22T06:57:03Z</time>
      </trkpt>
      <trkpt lat="42.92851" lon="0.20082">
        <ele>1246.8</ele>
        <time>2025-07-22T06:57:06Z</time>
      </trkpt>
      <trkpt lat="42.92845" lon="0.2007">
        <ele>1247.8</ele>
        <time>2025-07-22T06:57:11Z</time>
      </trkpt>
      <trkpt lat="42.92844" lon="0.20068">
        <ele>1248.2</ele>
        <time>2025-07-22T06:57:12Z</time>
      </trkpt>
      <trkpt lat="42.92837" lon="0.20058">
        <ele>1249.2</ele>
        <time>2025-07-22T06:57:17Z</time>
      </trkpt>
      <trkpt lat="42.92836" lon="0.20056">
        <ele>1249.2</ele>
        <time>2025-07-22T06:57:18Z</time>
      </trkpt>
      <trkpt lat="42.92827" lon="0.20043">
        <ele>1250.4</ele>
        <time>2025-07-22T06:57:24Z</time>
      </trkpt>
      <trkpt lat="42.92823" lon="0.20038">
        <ele>1250.8</ele>
        <time>2025-07-22T06:57:27Z</time>
      </trkpt>
      <trkpt lat="42.92817" lon="0.2003">
        <ele>1251.4</ele>
        <time>2025-07-22T06:57:31Z</time>
      </trkpt>
      <trkpt lat="42.92807" lon="0.20019">
        <ele>1252.4</ele>
        <time>2025-07-22T06:57:37Z</time>
      </trkpt>
      <trkpt lat="42.92806" lon="0.20017">
        <ele>1252.8</ele>
        <time>2025-07-22T06:57:38Z</time>
      </trkpt>
      <trkpt lat="42.928" lon="0.20009">
        <ele>1253.6</ele>
        <time>2025-07-22T06:57:42Z</time>
      </trkpt>
      <trkpt lat="42.92794" lon="0.20002">
        <ele>1254.2</ele>
        <time>2025-07-22T06:57:46Z</time>
      </trkpt>
      <trkpt lat="42.9279" lon="0.19998">
        <ele>1254.6</ele>
        <time>2025-07-22T06:57:48Z</time>
      </trkpt>
      <trkpt lat="42.92783" lon="0.1999">
        <ele>1255.4</ele>
        <time>2025-07-22T06:57:52Z</time>
      </trkpt>
      <trkpt lat="42.9278" lon="0.19987">
        <ele>1255.8</ele>
        <time>2025-07-22T06:57:54Z</time>
      </trkpt>
      <trkpt lat="42.9277" lon="0.19975">
        <ele>1256.6</ele>
        <time>2025-07-22T06:58:00Z</time>
      </trkpt>
      <trkpt lat="42.92761" lon="0.19963">
        <ele>1257.6</ele>
        <time>2025-07-22T06:58:06Z</time>
      </trkpt>
      <trkpt lat="42.92754" lon="0.19953">
        <ele>1258.8</ele>
        <time>2025-07-22T06:58:11Z</time>
      </trkpt>
      <trkpt lat="42.92746" lon="0.19942">
        <ele>1259.6</ele>
        <time>2025-07-22T06:58:16Z</time>
      </trkpt>
      <trkpt lat="42.92743" lon="0.19939">
        <ele>1260</ele>
        <time>2025-07-22T06:58:18Z</time>
      </trkpt>
      <trkpt lat="42.92736" lon="0.1993">
        <ele>1261.2</ele>
        <time>2025-07-22T06:58:23Z</time>
      </trkpt>
      <trkpt lat="42.92734" lon="0.19928">
        <ele>1261.6</ele>
        <time>2025-07-22T06:58:24Z</time>
      </trkpt>
      <trkpt lat="42.92731" lon="0.19925">
        <ele>1262</ele>
        <time>2025-07-22T06:58:26Z</time>
      </trkpt>
      <trkpt lat="42.92723" lon="0.19916">
        <ele>1263</ele>
        <time>2025-07-22T06:58:32Z</time>
      </trkpt>
      <trkpt lat="42.92722" lon="0.19914">
        <ele>1263</ele>
        <time>2025-07-22T06:58:33Z</time>
      </trkpt>
      <trkpt lat="42.92715" lon="0.199">
        <ele>1264.2</ele>
        <time>2025-07-22T06:58:39Z</time>
      </trkpt>
      <trkpt lat="42.92714" lon="0.19898">
        <ele>1264.4</ele>
        <time>2025-07-22T06:58:40Z</time>
      </trkpt>
      <trkpt lat="42.9271" lon="0.19885">
        <ele>1265.4</ele>
        <time>2025-07-22T06:58:46Z</time>
      </trkpt>
      <trkpt lat="42.92709" lon="0.19872">
        <ele>1266.4</ele>
        <time>2025-07-22T06:58:51Z</time>
      </trkpt>
      <trkpt lat="42.92709" lon="0.19863">
        <ele>1267.4</ele>
        <time>2025-07-22T06:58:55Z</time>
      </trkpt>
      <trkpt lat="42.92709" lon="0.19858">
        <ele>1267.8</ele>
        <time>2025-07-22T06:58:57Z</time>
      </trkpt>
      <trkpt lat="42.92708" lon="0.19855">
        <ele>1268.2</ele>
        <time>2025-07-22T06:58:58Z</time>
      </trkpt>
      <trkpt lat="42.92707" lon="0.19849">
        <ele>1268.4</ele>
        <time>2025-07-22T06:59:00Z</time>
      </trkpt>
      <trkpt lat="42.92698" lon="0.1984">
        <ele>1269.4</ele>
        <time>2025-07-22T06:59:04Z</time>
      </trkpt>
      <trkpt lat="42.92696" lon="0.19839">
        <ele>1269.6</ele>
        <time>2025-07-22T06:59:05Z</time>
      </trkpt>
      <trkpt lat="42.92685" lon="0.1983">
        <ele>1270.6</ele>
        <time>2025-07-22T06:59:11Z</time>
      </trkpt>
      <trkpt lat="42.92683" lon="0.19828">
        <ele>1270.8</ele>
        <time>2025-07-22T06:59:12Z</time>
      </trkpt>
      <trkpt lat="42.92672" lon="0.19817">
        <ele>1272</ele>
        <time>2025-07-22T06:59:19Z</time>
      </trkpt>
      <trkpt lat="42.92671" lon="0.19815">
        <ele>1272</ele>
        <time>2025-07-22T06:59:20Z</time>
      </trkpt>
      <trkpt lat="42.92662" lon="0.19805">
        <ele>1272.8</ele>
        <time>2025-07-22T06:59:26Z</time>
      </trkpt>
      <trkpt lat="42.92656" lon="0.19797">
        <ele>1273.8</ele>
        <time>2025-07-22T06:59:30Z</time>
      </trkpt>
      <trkpt lat="42.92648" lon="0.19789">
        <ele>1275</ele>
        <time>2025-07-22T06:59:35Z</time>
      </trkpt>
      <trkpt lat="42.92642" lon="0.19782">
        <ele>1276</ele>
        <time>2025-07-22T06:59:39Z</time>
      </trkpt>
      <trkpt lat="42.92641" lon="0.1978">
        <ele>1276.2</ele>
        <time>2025-07-22T06:59:40Z</time>
      </trkpt>
      <trkpt lat="42.92632" lon="0.19766">
        <ele>1277</ele>
        <time>2025-07-22T06:59:47Z</time>
      </trkpt>
      <trkpt lat="42.9263" lon="0.19762">
        <ele>1277.6</ele>
        <time>2025-07-22T06:59:49Z</time>
      </trkpt>
      <trkpt lat="42.92628" lon="0.19755">
        <ele>1278</ele>
        <time>2025-07-22T06:59:52Z</time>
      </trkpt>
      <trkpt lat="42.92624" lon="0.19741">
        <ele>1279.2</ele>
        <time>2025-07-22T06:59:58Z</time>
      </trkpt>
      <trkpt lat="42.92623" lon="0.19738">
        <ele>1279.2</ele>
        <time>2025-07-22T06:59:59Z</time>
      </trkpt>
      <trkpt lat="42.92617" lon="0.19729">
        <ele>1280.2</ele>
        <time>2025-07-22T07:00:03Z</time>
      </trkpt>
      <trkpt lat="42.92612" lon="0.19722">
        <ele>1281.2</ele>
        <time>2025-07-22T07:00:07Z</time>
      </trkpt>
      <trkpt lat="42.92611" lon="0.1972">
        <ele>1281.4</ele>
        <time>2025-07-22T07:00:08Z</time>
      </trkpt>
      <trkpt lat="42.92602" lon="0.19711">
        <ele>1282.6</ele>
        <time>2025-07-22T07:00:13Z</time>
      </trkpt>
      <trkpt lat="42.926" lon="0.19709">
        <ele>1282.8</ele>
        <time>2025-07-22T07:00:14Z</time>
      </trkpt>
      <trkpt lat="42.92589" lon="0.19708">
        <ele>1283.4</ele>
        <time>2025-07-22T07:00:20Z</time>
      </trkpt>
      <trkpt lat="42.92579" lon="0.19718">
        <ele>1284.2</ele>
        <time>2025-07-22T07:00:26Z</time>
      </trkpt>
      <trkpt lat="42.92577" lon="0.1972">
        <ele>1284.6</ele>
        <time>2025-07-22T07:00:27Z</time>
      </trkpt>
      <trkpt lat="42.9257" lon="0.19726">
        <ele>1285.6</ele>
        <time>2025-07-22T07:00:31Z</time>
      </trkpt>
      <trkpt lat="42.92565" lon="0.19735">
        <ele>1286.2</ele>
        <time>2025-07-22T07:00:35Z</time>
      </trkpt>
      <trkpt lat="42.92562" lon="0.19737">
        <ele>1286.4</ele>
        <time>2025-07-22T07:00:36Z</time>
      </trkpt>
      <trkpt lat="42.9256" lon="0.19738">
        <ele>1286.6</ele>
        <time>2025-07-22T07:00:37Z</time>
      </trkpt>
      <trkpt lat="42.92549" lon="0.19745">
        <ele>1287.8</ele>
        <time>2025-07-22T07:00:42Z</time>
      </trkpt>
      <trkpt lat="42.92546" lon="0.19746">
        <ele>1288</ele>
        <time>2025-07-22T07:00:43Z</time>
      </trkpt>
      <trkpt lat="42.9254" lon="0.19749">
        <ele>1288.8</ele>
        <time>2025-07-22T07:00:48Z</time>
      </trkpt>
      <trkpt lat="42.92539" lon="0.1975">
        <ele>1289</ele>
        <time>2025-07-22T07:00:49Z</time>
      </trkpt>
      <trkpt lat="42.92531" lon="0.19756">
        <ele>1290</ele>
        <time>2025-07-22T07:00:54Z</time>
      </trkpt>
      <trkpt lat="42.92528" lon="0.19757">
        <ele>1290.2</ele>
        <time>2025-07-22T07:00:56Z</time>
      </trkpt>
      <trkpt lat="42.92525" lon="0.19757">
        <ele>1290.8</ele>
        <time>2025-07-22T07:00:59Z</time>
      </trkpt>
      <trkpt lat="42.92518" lon="0.19759">
        <ele>1291.6</ele>
        <time>2025-07-22T07:01:03Z</time>
      </trkpt>
      <trkpt lat="42.92515" lon="0.1976">
        <ele>1292</ele>
        <time>2025-07-22T07:01:05Z</time>
      </trkpt>
      <trkpt lat="42.9251" lon="0.1976">
        <ele>1292.8</ele>
        <time>2025-07-22T07:01:09Z</time>
      </trkpt>
      <trkpt lat="42.92508" lon="0.1976">
        <ele>1293</ele>
        <time>2025-07-22T07:01:10Z</time>
      </trkpt>
      <trkpt lat="42.92507" lon="0.1976">
        <ele>1293.2</ele>
        <time>2025-07-22T07:01:11Z</time>
      </trkpt>
      <trkpt lat="42.92501" lon="0.19761">
        <ele>1293.6</ele>
        <time>2025-07-22T07:01:14Z</time>
      </trkpt>
      <trkpt lat="42.92496" lon="0.19761">
        <ele>1294</ele>
        <time>2025-07-22T07:01:17Z</time>
      </trkpt>
      <trkpt lat="42.92494" lon="0.19762">
        <ele>1294.2</ele>
        <time>2025-07-22T07:01:19Z</time>
      </trkpt>
      <trkpt lat="42.92492" lon="0.19763">
        <ele>1294.4</ele>
        <time>2025-07-22T07:01:20Z</time>
      </trkpt>
      <trkpt lat="42.92485" lon="0.19766">
        <ele>1295.2</ele>
        <time>2025-07-22T07:01:24Z</time>
      </trkpt>
      <trkpt lat="42.92483" lon="0.19769">
        <ele>1295.4</ele>
        <time>2025-07-22T07:01:25Z</time>
      </trkpt>
      <trkpt lat="42.92475" lon="0.19784">
        <ele>1296.2</ele>
        <time>2025-07-22T07:01:30Z</time>
      </trkpt>
      <trkpt lat="42.92476" lon="0.19788">
        <ele>1296.2</ele>
        <time>2025-07-22T07:01:31Z</time>
      </trkpt>
      <trkpt lat="42.92475" lon="0.19796">
        <ele>1296.6</ele>
        <time>2025-07-22T07:01:33Z</time>
      </trkpt>
      <trkpt lat="42.92478" lon="0.19817">
        <ele>1297</ele>
        <time>2025-07-22T07:01:39Z</time>
      </trkpt>
      <trkpt lat="42.92479" lon="0.19824">
        <ele>1297.2</ele>
        <time>2025-07-22T07:01:41Z</time>
      </trkpt>
      <trkpt lat="42.92481" lon="0.19843">
        <ele>1298.2</ele>
        <time>2025-07-22T07:01:47Z</time>
      </trkpt>
      <trkpt lat="42.92481" lon="0.19846">
        <ele>1298.4</ele>
        <time>2025-07-22T07:01:48Z</time>
      </trkpt>
      <trkpt lat="42.92482" lon="0.19858">
        <ele>1299</ele>
        <time>2025-07-22T07:01:52Z</time>
      </trkpt>
      <trkpt lat="42.92482" lon="0.1986">
        <ele>1299.2</ele>
        <time>2025-07-22T07:01:53Z</time>
      </trkpt>
      <trkpt lat="42.92482" lon="0.19875">
        <ele>1300.2</ele>
        <time>2025-07-22T07:01:58Z</time>
      </trkpt>
      <trkpt lat="42.92481" lon="0.19879">
        <ele>1300.6</ele>
        <time>2025-07-22T07:02:00Z</time>
      </trkpt>
      <trkpt lat="42.92481" lon="0.19888">
        <ele>1301.4</ele>
        <time>2025-07-22T07:02:03Z</time>
      </trkpt>
      <trkpt lat="42.92481" lon="0.19895">
        <ele>1302</ele>
        <time>2025-07-22T07:02:06Z</time>
      </trkpt>
      <trkpt lat="42.92482" lon="0.19903">
        <ele>1302.4</ele>
        <time>2025-07-22T07:02:09Z</time>
      </trkpt>
      <trkpt lat="42.92482" lon="0.1991">
        <ele>1302.8</ele>
        <time>2025-07-22T07:02:12Z</time>
      </trkpt>
      <trkpt lat="42.92478" lon="0.19923">
        <ele>1303.4</ele>
        <time>2025-07-22T07:02:17Z</time>
      </trkpt>
      <trkpt lat="42.92477" lon="0.19928">
        <ele>1303.6</ele>
        <time>2025-07-22T07:02:19Z</time>
      </trkpt>
      <trkpt lat="42.92479" lon="0.19941">
        <ele>1304.4</ele>
        <time>2025-07-22T07:02:24Z</time>
      </trkpt>
      <trkpt lat="42.92479" lon="0.19943">
        <ele>1304.8</ele>
        <time>2025-07-22T07:02:25Z</time>
      </trkpt>
      <trkpt lat="42.92479" lon="0.19958">
        <ele>1305.6</ele>
        <time>2025-07-22T07:02:30Z</time>
      </trkpt>
      <trkpt lat="42.92478" lon="0.19961">
        <ele>1305.6</ele>
        <time>2025-07-22T07:02:31Z</time>
      </trkpt>
      <trkpt lat="42.92474" lon="0.19974">
        <ele>1306.4</ele>
        <time>2025-07-22T07:02:36Z</time>
      </trkpt>
      <trkpt lat="42.92473" lon="0.19977">
        <ele>1306.8</ele>
        <time>2025-07-22T07:02:37Z</time>
      </trkpt>
      <trkpt lat="42.9247" lon="0.19982">
        <ele>1307.4</ele>
        <time>2025-07-22T07:02:39Z</time>
      </trkpt>
      <trkpt lat="42.92469" lon="0.19985">
        <ele>1307.6</ele>
        <time>2025-07-22T07:02:40Z</time>
      </trkpt>
      <trkpt lat="42.92466" lon="0.19997">
        <ele>1308.4</ele>
        <time>2025-07-22T07:02:44Z</time>
      </trkpt>
      <trkpt lat="42.92465" lon="0.20005">
        <ele>1309</ele>
        <time>2025-07-22T07:02:47Z</time>
      </trkpt>
      <trkpt lat="42.92461" lon="0.20015">
        <ele>1309.8</ele>
        <time>2025-07-22T07:02:51Z</time>
      </trkpt>
      <trkpt lat="42.92463" lon="0.20018">
        <ele>1310</ele>
        <time>2025-07-22T07:02:52Z</time>
      </trkpt>
      <trkpt lat="42.92462" lon="0.20031">
        <ele>1311</ele>
        <time>2025-07-22T07:02:57Z</time>
      </trkpt>
      <trkpt lat="42.9246" lon="0.20044">
        <ele>1312.2</ele>
        <time>2025-07-22T07:03:02Z</time>
      </trkpt>
      <trkpt lat="42.92461" lon="0.20048">
        <ele>1312.6</ele>
        <time>2025-07-22T07:03:03Z</time>
      </trkpt>
      <trkpt lat="42.9246" lon="0.20051">
        <ele>1312.8</ele>
        <time>2025-07-22T07:03:04Z</time>
      </trkpt>
      <trkpt lat="42.92459" lon="0.20056">
        <ele>1313</ele>
        <time>2025-07-22T07:03:06Z</time>
      </trkpt>
      <trkpt lat="42.92459" lon="0.20058">
        <ele>1313.2</ele>
        <time>2025-07-22T07:03:07Z</time>
      </trkpt>
      <trkpt lat="42.92458" lon="0.20064">
        <ele>1313.4</ele>
        <time>2025-07-22T07:03:09Z</time>
      </trkpt>
      <trkpt lat="42.92457" lon="0.20075">
        <ele>1314.2</ele>
        <time>2025-07-22T07:03:13Z</time>
      </trkpt>
      <trkpt lat="42.92455" lon="0.2008">
        <ele>1314.6</ele>
        <time>2025-07-22T07:03:15Z</time>
      </trkpt>
      <trkpt lat="42.92454" lon="0.20082">
        <ele>1314.8</ele>
        <time>2025-07-22T07:03:16Z</time>
      </trkpt>
      <trkpt lat="42.9245" lon="0.20091">
        <ele>1315.2</ele>
        <time>2025-07-22T07:03:20Z</time>
      </trkpt>
      <trkpt lat="42.92449" lon="0.20096">
        <ele>1315.8</ele>
        <time>2025-07-22T07:03:22Z</time>
      </trkpt>
      <trkpt lat="42.92449" lon="0.201">
        <ele>1316.2</ele>
        <time>2025-07-22T07:03:24Z</time>
      </trkpt>
      <trkpt lat="42.9245" lon="0.2011">
        <ele>1317</ele>
        <time>2025-07-22T07:03:28Z</time>
      </trkpt>
      <trkpt lat="42.92448" lon="0.20112">
        <ele>1317.2</ele>
        <time>2025-07-22T07:03:29Z</time>
      </trkpt>
      <trkpt lat="42.92442" lon="0.20122">
        <ele>1318.4</ele>
        <time>2025-07-22T07:03:34Z</time>
      </trkpt>
      <trkpt lat="42.92441" lon="0.20127">
        <ele>1318.6</ele>
        <time>2025-07-22T07:03:36Z</time>
      </trkpt>
      <trkpt lat="42.92436" lon="0.20135">
        <ele>1319.2</ele>
        <time>2025-07-22T07:03:39Z</time>
      </trkpt>
      <trkpt lat="42.92434" lon="0.20151">
        <ele>1320.2</ele>
        <time>2025-07-22T07:03:44Z</time>
      </trkpt>
      <trkpt lat="42.9243" lon="0.20159">
        <ele>1321.2</ele>
        <time>2025-07-22T07:03:48Z</time>
      </trkpt>
      <trkpt lat="42.92429" lon="0.20163">
        <ele>1321.4</ele>
        <time>2025-07-22T07:03:49Z</time>
      </trkpt>
      <trkpt lat="42.92431" lon="0.20167">
        <ele>1321.4</ele>
        <time>2025-07-22T07:03:50Z</time>
      </trkpt>
      <trkpt lat="42.92428" lon="0.20183">
        <ele>1322.2</ele>
        <time>2025-07-22T07:03:55Z</time>
      </trkpt>
      <trkpt lat="42.92425" lon="0.20197">
        <ele>1323.4</ele>
        <time>2025-07-22T07:04:00Z</time>
      </trkpt>
      <trkpt lat="42.92424" lon="0.20204">
        <ele>1323.8</ele>
        <time>2025-07-22T07:04:03Z</time>
      </trkpt>
      <trkpt lat="42.92423" lon="0.20213">
        <ele>1324.4</ele>
        <time>2025-07-22T07:04:06Z</time>
      </trkpt>
      <trkpt lat="42.92422" lon="0.20221">
        <ele>1325.2</ele>
        <time>2025-07-22T07:04:09Z</time>
      </trkpt>
      <trkpt lat="42.92422" lon="0.20226">
        <ele>1325.6</ele>
        <time>2025-07-22T07:04:11Z</time>
      </trkpt>
      <trkpt lat="42.92422" lon="0.20235">
        <ele>1326.2</ele>
        <time>2025-07-22T07:04:14Z</time>
      </trkpt>
      <trkpt lat="42.92421" lon="0.2024">
        <ele>1326.4</ele>
        <time>2025-07-22T07:04:16Z</time>
      </trkpt>
      <trkpt lat="42.92422" lon="0.20243">
        <ele>1326.6</ele>
        <time>2025-07-22T07:04:17Z</time>
      </trkpt>
      <trkpt lat="42.92421" lon="0.20248">
        <ele>1327.2</ele>
        <time>2025-07-22T07:04:19Z</time>
      </trkpt>
      <trkpt lat="42.92423" lon="0.20251">
        <ele>1327.2</ele>
        <time>2025-07-22T07:04:20Z</time>
      </trkpt>
      <trkpt lat="42.92423" lon="0.20254">
        <ele>1327.4</ele>
        <time>2025-07-22T07:04:21Z</time>
      </trkpt>
      <trkpt lat="42.92423" lon="0.20257">
        <ele>1327.6</ele>
        <time>2025-07-22T07:04:22Z</time>
      </trkpt>
      <trkpt lat="42.92424" lon="0.20264">
        <ele>1328</ele>
        <time>2025-07-22T07:04:24Z</time>
      </trkpt>
      <trkpt lat="42.9243" lon="0.20277">
        <ele>1328.8</ele>
        <time>2025-07-22T07:04:28Z</time>
      </trkpt>
      <trkpt lat="42.92434" lon="0.2029">
        <ele>1329.4</ele>
        <time>2025-07-22T07:04:32Z</time>
      </trkpt>
      <trkpt lat="42.92435" lon="0.20294">
        <ele>1329.6</ele>
        <time>2025-07-22T07:04:33Z</time>
      </trkpt>
      <trkpt lat="42.92435" lon="0.20297">
        <ele>1329.8</ele>
        <time>2025-07-22T07:04:34Z</time>
      </trkpt>
      <trkpt lat="42.92434" lon="0.20305">
        <ele>1330.6</ele>
        <time>2025-07-22T07:04:37Z</time>
      </trkpt>
      <trkpt lat="42.92434" lon="0.20308">
        <ele>1331</ele>
        <time>2025-07-22T07:04:38Z</time>
      </trkpt>
      <trkpt lat="42.92427" lon="0.20323">
        <ele>1331.6</ele>
        <time>2025-07-22T07:04:43Z</time>
      </trkpt>
      <trkpt lat="42.92423" lon="0.20327">
        <ele>1332</ele>
        <time>2025-07-22T07:04:45Z</time>
      </trkpt>
      <trkpt lat="42.92421" lon="0.20332">
        <ele>1332.6</ele>
        <time>2025-07-22T07:04:47Z</time>
      </trkpt>
      <trkpt lat="42.92418" lon="0.20339">
        <ele>1333.2</ele>
        <time>2025-07-22T07:04:50Z</time>
      </trkpt>
      <trkpt lat="42.92417" lon="0.20341">
        <ele>1333.4</ele>
        <time>2025-07-22T07:04:51Z</time>
      </trkpt>
      <trkpt lat="42.92413" lon="0.20351">
        <ele>1334.2</ele>
        <time>2025-07-22T07:04:56Z</time>
      </trkpt>
      <trkpt lat="42.92413" lon="0.20353">
        <ele>1334.4</ele>
        <time>2025-07-22T07:04:57Z</time>
      </trkpt>
      <trkpt lat="42.92412" lon="0.20357">
        <ele>1334.8</ele>
        <time>2025-07-22T07:04:59Z</time>
      </trkpt>
      <trkpt lat="42.9241" lon="0.20361">
        <ele>1335.2</ele>
        <time>2025-07-22T07:05:01Z</time>
      </trkpt>
      <trkpt lat="42.92408" lon="0.20364">
        <ele>1335.4</ele>
        <time>2025-07-22T07:05:02Z</time>
      </trkpt>
      <trkpt lat="42.92405" lon="0.20365">
        <ele>1335.6</ele>
        <time>2025-07-22T07:05:03Z</time>
      </trkpt>
      <trkpt lat="42.92401" lon="0.20372">
        <ele>1336.2</ele>
        <time>2025-07-22T07:05:06Z</time>
      </trkpt>
      <trkpt lat="42.92401" lon="0.20374">
        <ele>1336.4</ele>
        <time>2025-07-22T07:05:07Z</time>
      </trkpt>
      <trkpt lat="42.92399" lon="0.20377">
        <ele>1336.6</ele>
        <time>2025-07-22T07:05:08Z</time>
      </trkpt>
      <trkpt lat="42.92398" lon="0.20384">
        <ele>1337.2</ele>
        <time>2025-07-22T07:05:11Z</time>
      </trkpt>
      <trkpt lat="42.92392" lon="0.20394">
        <ele>1338.2</ele>
        <time>2025-07-22T07:05:16Z</time>
      </trkpt>
      <trkpt lat="42.92391" lon="0.20397">
        <ele>1338.4</ele>
        <time>2025-07-22T07:05:17Z</time>
      </trkpt>
      <trkpt lat="42.92385" lon="0.20412">
        <ele>1339.2</ele>
        <time>2025-07-22T07:05:22Z</time>
      </trkpt>
      <trkpt lat="42.92383" lon="0.20414">
        <ele>1339.4</ele>
        <time>2025-07-22T07:05:23Z</time>
      </trkpt>
      <trkpt lat="42.92382" lon="0.2042">
        <ele>1340</ele>
        <time>2025-07-22T07:05:25Z</time>
      </trkpt>
      <trkpt lat="42.92381" lon="0.20425">
        <ele>1340.2</ele>
        <time>2025-07-22T07:05:27Z</time>
      </trkpt>
      <trkpt lat="42.92379" lon="0.2043">
        <ele>1340.6</ele>
        <time>2025-07-22T07:05:29Z</time>
      </trkpt>
      <trkpt lat="42.92379" lon="0.20436">
        <ele>1341.2</ele>
        <time>2025-07-22T07:05:31Z</time>
      </trkpt>
      <trkpt lat="42.92377" lon="0.2044">
        <ele>1341.6</ele>
        <time>2025-07-22T07:05:33Z</time>
      </trkpt>
      <trkpt lat="42.92377" lon="0.20442">
        <ele>1341.6</ele>
        <time>2025-07-22T07:05:34Z</time>
      </trkpt>
      <trkpt lat="42.92373" lon="0.20446">
        <ele>1342</ele>
        <time>2025-07-22T07:05:36Z</time>
      </trkpt>
      <trkpt lat="42.92371" lon="0.20447">
        <ele>1342.2</ele>
        <time>2025-07-22T07:05:37Z</time>
      </trkpt>
      <trkpt lat="42.92366" lon="0.20452">
        <ele>1342.8</ele>
        <time>2025-07-22T07:05:40Z</time>
      </trkpt>
      <trkpt lat="42.92365" lon="0.20454">
        <ele>1343</ele>
        <time>2025-07-22T07:05:41Z</time>
      </trkpt>
      <trkpt lat="42.92361" lon="0.20461">
        <ele>1344</ele>
        <time>2025-07-22T07:05:46Z</time>
      </trkpt>
      <trkpt lat="42.9236" lon="0.20463">
        <ele>1344.2</ele>
        <time>2025-07-22T07:05:48Z</time>
      </trkpt>
      <trkpt lat="42.92356" lon="0.20469">
        <ele>1345</ele>
        <time>2025-07-22T07:05:51Z</time>
      </trkpt>
      <trkpt lat="42.92352" lon="0.20475">
        <ele>1345.6</ele>
        <time>2025-07-22T07:05:54Z</time>
      </trkpt>
      <trkpt lat="42.9235" lon="0.20477">
        <ele>1346.2</ele>
        <time>2025-07-22T07:05:57Z</time>
      </trkpt>
      <trkpt lat="42.92349" lon="0.20481">
        <ele>1346.4</ele>
        <time>2025-07-22T07:05:58Z</time>
      </trkpt>
      <trkpt lat="42.92344" lon="0.20487">
        <ele>1346.8</ele>
        <time>2025-07-22T07:06:01Z</time>
      </trkpt>
      <trkpt lat="42.92341" lon="0.20492">
        <ele>1347.4</ele>
        <time>2025-07-22T07:06:03Z</time>
      </trkpt>
      <trkpt lat="42.92338" lon="0.20494">
        <ele>1347.6</ele>
        <time>2025-07-22T07:06:04Z</time>
      </trkpt>
      <trkpt lat="42.92334" lon="0.205">
        <ele>1347.8</ele>
        <time>2025-07-22T07:06:06Z</time>
      </trkpt>
      <trkpt lat="42.92334" lon="0.20502">
        <ele>1348.2</ele>
        <time>2025-07-22T07:06:07Z</time>
      </trkpt>
      <trkpt lat="42.92332" lon="0.20508">
        <ele>1348.6</ele>
        <time>2025-07-22T07:06:09Z</time>
      </trkpt>
      <trkpt lat="42.92332" lon="0.20511">
        <ele>1348.8</ele>
        <time>2025-07-22T07:06:10Z</time>
      </trkpt>
      <trkpt lat="42.92324" lon="0.2052">
        <ele>1349.4</ele>
        <time>2025-07-22T07:06:13Z</time>
      </trkpt>
      <trkpt lat="42.9232" lon="0.20524">
        <ele>1349.6</ele>
        <time>2025-07-22T07:06:15Z</time>
      </trkpt>
      <trkpt lat="42.9232" lon="0.20527">
        <ele>1349.8</ele>
        <time>2025-07-22T07:06:16Z</time>
      </trkpt>
      <trkpt lat="42.92303" lon="0.20543">
        <ele>1350.6</ele>
        <time>2025-07-22T07:06:23Z</time>
      </trkpt>
      <trkpt lat="42.92302" lon="0.20545">
        <ele>1351</ele>
        <time>2025-07-22T07:06:24Z</time>
      </trkpt>
      <trkpt lat="42.92296" lon="0.20555">
        <ele>1352</ele>
        <time>2025-07-22T07:06:29Z</time>
      </trkpt>
      <trkpt lat="42.92288" lon="0.20568">
        <ele>1353</ele>
        <time>2025-07-22T07:06:35Z</time>
      </trkpt>
      <trkpt lat="42.92283" lon="0.20573">
        <ele>1353.8</ele>
        <time>2025-07-22T07:06:38Z</time>
      </trkpt>
      <trkpt lat="42.92281" lon="0.20574">
        <ele>1354</ele>
        <time>2025-07-22T07:06:39Z</time>
      </trkpt>
      <trkpt lat="42.92275" lon="0.20577">
        <ele>1354.4</ele>
        <time>2025-07-22T07:06:42Z</time>
      </trkpt>
      <trkpt lat="42.92267" lon="0.2058">
        <ele>1355.2</ele>
        <time>2025-07-22T07:06:46Z</time>
      </trkpt>
      <trkpt lat="42.92254" lon="0.20584">
        <ele>1356</ele>
        <time>2025-07-22T07:06:52Z</time>
      </trkpt>
      <trkpt lat="42.92252" lon="0.20584">
        <ele>1356.4</ele>
        <time>2025-07-22T07:06:53Z</time>
      </trkpt>
      <trkpt lat="42.92241" lon="0.20586">
        <ele>1357.6</ele>
        <time>2025-07-22T07:06:58Z</time>
      </trkpt>
      <trkpt lat="42.92236" lon="0.20589">
        <ele>1358.2</ele>
        <time>2025-07-22T07:07:01Z</time>
      </trkpt>
      <trkpt lat="42.92231" lon="0.20592">
        <ele>1358.6</ele>
        <time>2025-07-22T07:07:04Z</time>
      </trkpt>
      <trkpt lat="42.92224" lon="0.20596">
        <ele>1359.6</ele>
        <time>2025-07-22T07:07:08Z</time>
      </trkpt>
      <trkpt lat="42.92216" lon="0.20604">
        <ele>1360.8</ele>
        <time>2025-07-22T07:07:13Z</time>
      </trkpt>
      <trkpt lat="42.92211" lon="0.2061">
        <ele>1361.2</ele>
        <time>2025-07-22T07:07:16Z</time>
      </trkpt>
      <trkpt lat="42.92203" lon="0.20617">
        <ele>1362</ele>
        <time>2025-07-22T07:07:20Z</time>
      </trkpt>
      <trkpt lat="42.92198" lon="0.20625">
        <ele>1362.4</ele>
        <time>2025-07-22T07:07:24Z</time>
      </trkpt>
      <trkpt lat="42.92194" lon="0.20631">
        <ele>1363</ele>
        <time>2025-07-22T07:07:27Z</time>
      </trkpt>
      <trkpt lat="42.92183" lon="0.20642">
        <ele>1364.2</ele>
        <time>2025-07-22T07:07:34Z</time>
      </trkpt>
      <trkpt lat="42.92171" lon="0.20651">
        <ele>1365.4</ele>
        <time>2025-07-22T07:07:40Z</time>
      </trkpt>
      <trkpt lat="42.92168" lon="0.20654">
        <ele>1365.8</ele>
        <time>2025-07-22T07:07:42Z</time>
      </trkpt>
      <trkpt lat="42.92159" lon="0.2066">
        <ele>1366.4</ele>
        <time>2025-07-22T07:07:46Z</time>
      </trkpt>
      <trkpt lat="42.92148" lon="0.20666">
        <ele>1367.4</ele>
        <time>2025-07-22T07:07:51Z</time>
      </trkpt>
      <trkpt lat="42.92141" lon="0.2067">
        <ele>1368.4</ele>
        <time>2025-07-22T07:07:55Z</time>
      </trkpt>
      <trkpt lat="42.9214" lon="0.20671">
        <ele>1368.8</ele>
        <time>2025-07-22T07:07:56Z</time>
      </trkpt>
      <trkpt lat="42.92134" lon="0.20673">
        <ele>1369.6</ele>
        <time>2025-07-22T07:07:59Z</time>
      </trkpt>
      <trkpt lat="42.92127" lon="0.20677">
        <ele>1370.2</ele>
        <time>2025-07-22T07:08:03Z</time>
      </trkpt>
      <trkpt lat="42.92123" lon="0.20679">
        <ele>1370.6</ele>
        <time>2025-07-22T07:08:05Z</time>
      </trkpt>
      <trkpt lat="42.92113" lon="0.20683">
        <ele>1371.4</ele>
        <time>2025-07-22T07:08:10Z</time>
      </trkpt>
      <trkpt lat="42.92109" lon="0.20686">
        <ele>1371.6</ele>
        <time>2025-07-22T07:08:12Z</time>
      </trkpt>
      <trkpt lat="42.92104" lon="0.2069">
        <ele>1372</ele>
        <time>2025-07-22T07:08:15Z</time>
      </trkpt>
      <trkpt lat="42.92098" lon="0.20694">
        <ele>1372.6</ele>
        <time>2025-07-22T07:08:18Z</time>
      </trkpt>
      <trkpt lat="42.92097" lon="0.20694">
        <ele>1373</ele>
        <time>2025-07-22T07:08:19Z</time>
      </trkpt>
      <trkpt lat="42.92096" lon="0.20695">
        <ele>1373</ele>
        <time>2025-07-22T07:08:20Z</time>
      </trkpt>
      <trkpt lat="42.9209" lon="0.20698">
        <ele>1373.8</ele>
        <time>2025-07-22T07:08:23Z</time>
      </trkpt>
      <trkpt lat="42.92087" lon="0.20699">
        <ele>1373.8</ele>
        <time>2025-07-22T07:08:24Z</time>
      </trkpt>
      <trkpt lat="42.92081" lon="0.20703">
        <ele>1375</ele>
        <time>2025-07-22T07:08:28Z</time>
      </trkpt>
      <trkpt lat="42.92071" lon="0.20708">
        <ele>1376</ele>
        <time>2025-07-22T07:08:33Z</time>
      </trkpt>
      <trkpt lat="42.9207" lon="0.20708">
        <ele>1376.2</ele>
        <time>2025-07-22T07:08:34Z</time>
      </trkpt>
      <trkpt lat="42.92067" lon="0.2071">
        <ele>1376.8</ele>
        <time>2025-07-22T07:08:36Z</time>
      </trkpt>
      <trkpt lat="42.92063" lon="0.20714">
        <ele>1377.2</ele>
        <time>2025-07-22T07:08:38Z</time>
      </trkpt>
      <trkpt lat="42.92061" lon="0.20717">
        <ele>1377.6</ele>
        <time>2025-07-22T07:08:40Z</time>
      </trkpt>
      <trkpt lat="42.92059" lon="0.20719">
        <ele>1378</ele>
        <time>2025-07-22T07:08:42Z</time>
      </trkpt>
      <trkpt lat="42.92054" lon="0.20726">
        <ele>1378.8</ele>
        <time>2025-07-22T07:08:46Z</time>
      </trkpt>
      <trkpt lat="42.92051" lon="0.20728">
        <ele>1379</ele>
        <time>2025-07-22T07:08:48Z</time>
      </trkpt>
      <trkpt lat="42.92044" lon="0.20734">
        <ele>1379.6</ele>
        <time>2025-07-22T07:08:51Z</time>
      </trkpt>
      <trkpt lat="42.92042" lon="0.20738">
        <ele>1379.8</ele>
        <time>2025-07-22T07:08:53Z</time>
      </trkpt>
      <trkpt lat="42.92039" lon="0.20741">
        <ele>1380.2</ele>
        <time>2025-07-22T07:08:55Z</time>
      </trkpt>
      <trkpt lat="42.92026" lon="0.20748">
        <ele>1381.4</ele>
        <time>2025-07-22T07:09:00Z</time>
      </trkpt>
      <trkpt lat="42.92022" lon="0.20749">
        <ele>1381.6</ele>
        <time>2025-07-22T07:09:01Z</time>
      </trkpt>
      <trkpt lat="42.92015" lon="0.20754">
        <ele>1382.6</ele>
        <time>2025-07-22T07:09:05Z</time>
      </trkpt>
      <trkpt lat="42.92012" lon="0.20758">
        <ele>1383</ele>
        <time>2025-07-22T07:09:07Z</time>
      </trkpt>
      <trkpt lat="42.9201" lon="0.2076">
        <ele>1383.2</ele>
        <time>2025-07-22T07:09:08Z</time>
      </trkpt>
      <trkpt lat="42.92008" lon="0.20762">
        <ele>1383.6</ele>
        <time>2025-07-22T07:09:10Z</time>
      </trkpt>
      <trkpt lat="42.92007" lon="0.20764">
        <ele>1383.8</ele>
        <time>2025-07-22T07:09:11Z</time>
      </trkpt>
      <trkpt lat="42.92" lon="0.20771">
        <ele>1384.6</ele>
        <time>2025-07-22T07:09:15Z</time>
      </trkpt>
      <trkpt lat="42.91992" lon="0.20777">
        <ele>1385</ele>
        <time>2025-07-22T07:09:19Z</time>
      </trkpt>
      <trkpt lat="42.91988" lon="0.20782">
        <ele>1385.4</ele>
        <time>2025-07-22T07:09:22Z</time>
      </trkpt>
      <trkpt lat="42.91984" lon="0.20784">
        <ele>1385.8</ele>
        <time>2025-07-22T07:09:24Z</time>
      </trkpt>
      <trkpt lat="42.91977" lon="0.20789">
        <ele>1386.6</ele>
        <time>2025-07-22T07:09:28Z</time>
      </trkpt>
      <trkpt lat="42.91974" lon="0.2079">
        <ele>1387</ele>
        <time>2025-07-22T07:09:30Z</time>
      </trkpt>
      <trkpt lat="42.91971" lon="0.20793">
        <ele>1387.2</ele>
        <time>2025-07-22T07:09:32Z</time>
      </trkpt>
      <trkpt lat="42.91969" lon="0.20795">
        <ele>1387.8</ele>
        <time>2025-07-22T07:09:34Z</time>
      </trkpt>
      <trkpt lat="42.91963" lon="0.20797">
        <ele>1388.4</ele>
        <time>2025-07-22T07:09:37Z</time>
      </trkpt>
      <trkpt lat="42.91961" lon="0.20801">
        <ele>1388.8</ele>
        <time>2025-07-22T07:09:39Z</time>
      </trkpt>
      <trkpt lat="42.9196" lon="0.20802">
        <ele>1389</ele>
        <time>2025-07-22T07:09:40Z</time>
      </trkpt>
      <trkpt lat="42.91949" lon="0.20805">
        <ele>1390</ele>
        <time>2025-07-22T07:09:45Z</time>
      </trkpt>
      <trkpt lat="42.91946" lon="0.20807">
        <ele>1390.4</ele>
        <time>2025-07-22T07:09:47Z</time>
      </trkpt>
      <trkpt lat="42.91941" lon="0.20811">
        <ele>1391</ele>
        <time>2025-07-22T07:09:50Z</time>
      </trkpt>
      <trkpt lat="42.91934" lon="0.20815">
        <ele>1391.8</ele>
        <time>2025-07-22T07:09:54Z</time>
      </trkpt>
      <trkpt lat="42.91933" lon="0.20816">
        <ele>1392.2</ele>
        <time>2025-07-22T07:09:55Z</time>
      </trkpt>
      <trkpt lat="42.91925" lon="0.20821">
        <ele>1393</ele>
        <time>2025-07-22T07:09:59Z</time>
      </trkpt>
      <trkpt lat="42.91918" lon="0.20826">
        <ele>1393.2</ele>
        <time>2025-07-22T07:10:01Z</time>
      </trkpt>
      <trkpt lat="42.91913" lon="0.20829">
        <ele>1393.6</ele>
        <time>2025-07-22T07:10:02Z</time>
      </trkpt>
      <trkpt lat="42.91905" lon="0.20835">
        <ele>1394</ele>
        <time>2025-07-22T07:10:05Z</time>
      </trkpt>
      <trkpt lat="42.91902" lon="0.20838">
        <ele>1394.2</ele>
        <time>2025-07-22T07:10:07Z</time>
      </trkpt>
      <trkpt lat="42.919" lon="0.20846">
        <ele>1395</ele>
        <time>2025-07-22T07:10:10Z</time>
      </trkpt>
      <trkpt lat="42.91893" lon="0.20849">
        <ele>1395.4</ele>
        <time>2025-07-22T07:10:12Z</time>
      </trkpt>
      <trkpt lat="42.91877" lon="0.20852">
        <ele>1396.4</ele>
        <time>2025-07-22T07:10:17Z</time>
      </trkpt>
      <trkpt lat="42.91866" lon="0.20852">
        <ele>1397.6</ele>
        <time>2025-07-22T07:10:22Z</time>
      </trkpt>
      <trkpt lat="42.91855" lon="0.20852">
        <ele>1398.6</ele>
        <time>2025-07-22T07:10:27Z</time>
      </trkpt>
      <trkpt lat="42.91852" lon="0.20852">
        <ele>1398.8</ele>
        <time>2025-07-22T07:10:28Z</time>
      </trkpt>
      <trkpt lat="42.91844" lon="0.20851">
        <ele>1399.8</ele>
        <time>2025-07-22T07:10:32Z</time>
      </trkpt>
      <trkpt lat="42.91834" lon="0.2085">
        <ele>1401</ele>
        <time>2025-07-22T07:10:37Z</time>
      </trkpt>
      <trkpt lat="42.91826" lon="0.20851">
        <ele>1401.8</ele>
        <time>2025-07-22T07:10:41Z</time>
      </trkpt>
      <trkpt lat="42.91825" lon="0.20852">
        <ele>1402</ele>
        <time>2025-07-22T07:10:42Z</time>
      </trkpt>
      <trkpt lat="42.91822" lon="0.20854">
        <ele>1402</ele>
        <time>2025-07-22T07:10:44Z</time>
      </trkpt>
      <trkpt lat="42.91816" lon="0.20862">
        <ele>1403</ele>
        <time>2025-07-22T07:10:49Z</time>
      </trkpt>
      <trkpt lat="42.91813" lon="0.20866">
        <ele>1403.2</ele>
        <time>2025-07-22T07:10:51Z</time>
      </trkpt>
      <trkpt lat="42.91804" lon="0.20873">
        <ele>1403.8</ele>
        <time>2025-07-22T07:10:55Z</time>
      </trkpt>
      <trkpt lat="42.91798" lon="0.20877">
        <ele>1404.2</ele>
        <time>2025-07-22T07:10:58Z</time>
      </trkpt>
      <trkpt lat="42.91794" lon="0.20882">
        <ele>1405</ele>
        <time>2025-07-22T07:11:01Z</time>
      </trkpt>
      <trkpt lat="42.9179" lon="0.20885">
        <ele>1405.6</ele>
        <time>2025-07-22T07:11:03Z</time>
      </trkpt>
      <trkpt lat="42.91786" lon="0.2089">
        <ele>1406.4</ele>
        <time>2025-07-22T07:11:06Z</time>
      </trkpt>
      <trkpt lat="42.91784" lon="0.20891">
        <ele>1406.8</ele>
        <time>2025-07-22T07:11:07Z</time>
      </trkpt>
      <trkpt lat="42.91777" lon="0.20899">
        <ele>1407.8</ele>
        <time>2025-07-22T07:11:12Z</time>
      </trkpt>
      <trkpt lat="42.91772" lon="0.20905">
        <ele>1408.4</ele>
        <time>2025-07-22T07:11:15Z</time>
      </trkpt>
      <trkpt lat="42.91768" lon="0.20912">
        <ele>1409</ele>
        <time>2025-07-22T07:11:18Z</time>
      </trkpt>
      <trkpt lat="42.9176" lon="0.20918">
        <ele>1409.8</ele>
        <time>2025-07-22T07:11:22Z</time>
      </trkpt>
      <trkpt lat="42.91758" lon="0.20919">
        <ele>1410</ele>
        <time>2025-07-22T07:11:23Z</time>
      </trkpt>
      <trkpt lat="42.91749" lon="0.20925">
        <ele>1411.2</ele>
        <time>2025-07-22T07:11:28Z</time>
      </trkpt>
      <trkpt lat="42.91742" lon="0.20931">
        <ele>1411.6</ele>
        <time>2025-07-22T07:11:32Z</time>
      </trkpt>
      <trkpt lat="42.91737" lon="0.20935">
        <ele>1412</ele>
        <time>2025-07-22T07:11:35Z</time>
      </trkpt>
      <trkpt lat="42.91726" lon="0.20947">
        <ele>1413</ele>
        <time>2025-07-22T07:11:41Z</time>
      </trkpt>
      <trkpt lat="42.91724" lon="0.20949">
        <ele>1413.2</ele>
        <time>2025-07-22T07:11:42Z</time>
      </trkpt>
      <trkpt lat="42.91707" lon="0.20955">
        <ele>1414.2</ele>
        <time>2025-07-22T07:11:50Z</time>
      </trkpt>
      <trkpt lat="42.91705" lon="0.20954">
        <ele>1414.4</ele>
        <time>2025-07-22T07:11:51Z</time>
      </trkpt>
      <trkpt lat="42.917" lon="0.20948">
        <ele>1415</ele>
        <time>2025-07-22T07:11:55Z</time>
      </trkpt>
      <trkpt lat="42.917" lon="0.20945">
        <ele>1415.2</ele>
        <time>2025-07-22T07:11:56Z</time>
      </trkpt>
      <trkpt lat="42.917" lon="0.20942">
        <ele>1415.8</ele>
        <time>2025-07-22T07:11:57Z</time>
      </trkpt>
      <trkpt lat="42.91702" lon="0.20937">
        <ele>1416.4</ele>
        <time>2025-07-22T07:11:59Z</time>
      </trkpt>
      <trkpt lat="42.91706" lon="0.20931">
        <ele>1417.2</ele>
        <time>2025-07-22T07:12:02Z</time>
      </trkpt>
      <trkpt lat="42.91711" lon="0.20923">
        <ele>1417.8</ele>
        <time>2025-07-22T07:12:06Z</time>
      </trkpt>
      <trkpt lat="42.91715" lon="0.20919">
        <ele>1418.2</ele>
        <time>2025-07-22T07:12:08Z</time>
      </trkpt>
      <trkpt lat="42.91725" lon="0.20907">
        <ele>1419.4</ele>
        <time>2025-07-22T07:12:14Z</time>
      </trkpt>
      <trkpt lat="42.91733" lon="0.20896">
        <ele>1420.6</ele>
        <time>2025-07-22T07:12:19Z</time>
      </trkpt>
      <trkpt lat="42.91736" lon="0.20892">
        <ele>1421</ele>
        <time>2025-07-22T07:12:21Z</time>
      </trkpt>
      <trkpt lat="42.91741" lon="0.20887">
        <ele>1421.8</ele>
        <time>2025-07-22T07:12:24Z</time>
      </trkpt>
      <trkpt lat="42.91747" lon="0.20879">
        <ele>1422</ele>
        <time>2025-07-22T07:12:28Z</time>
      </trkpt>
      <trkpt lat="42.91752" lon="0.20874">
        <ele>1422.6</ele>
        <time>2025-07-22T07:12:31Z</time>
      </trkpt>
      <trkpt lat="42.91766" lon="0.20863">
        <ele>1424</ele>
        <time>2025-07-22T07:12:38Z</time>
      </trkpt>
      <trkpt lat="42.91773" lon="0.20855">
        <ele>1425</ele>
        <time>2025-07-22T07:12:43Z</time>
      </trkpt>
      <trkpt lat="42.91775" lon="0.20853">
        <ele>1425</ele>
        <time>2025-07-22T07:12:44Z</time>
      </trkpt>
      <trkpt lat="42.91784" lon="0.20845">
        <ele>1426</ele>
        <time>2025-07-22T07:12:49Z</time>
      </trkpt>
      <trkpt lat="42.91789" lon="0.20839">
        <ele>1426.6</ele>
        <time>2025-07-22T07:12:52Z</time>
      </trkpt>
      <trkpt lat="42.91792" lon="0.20836">
        <ele>1427.2</ele>
        <time>2025-07-22T07:12:54Z</time>
      </trkpt>
      <trkpt lat="42.91798" lon="0.2083">
        <ele>1428.4</ele>
        <time>2025-07-22T07:12:58Z</time>
      </trkpt>
      <trkpt lat="42.918" lon="0.20828">
        <ele>1428.6</ele>
        <time>2025-07-22T07:12:59Z</time>
      </trkpt>
      <trkpt lat="42.91807" lon="0.20819">
        <ele>1429.4</ele>
        <time>2025-07-22T07:13:04Z</time>
      </trkpt>
      <trkpt lat="42.9181" lon="0.20815">
        <ele>1429.8</ele>
        <time>2025-07-22T07:13:06Z</time>
      </trkpt>
      <trkpt lat="42.91813" lon="0.20811">
        <ele>1430</ele>
        <time>2025-07-22T07:13:08Z</time>
      </trkpt>
      <trkpt lat="42.91816" lon="0.20808">
        <ele>1430.4</ele>
        <time>2025-07-22T07:13:10Z</time>
      </trkpt>
      <trkpt lat="42.91818" lon="0.20806">
        <ele>1430.4</ele>
        <time>2025-07-22T07:13:11Z</time>
      </trkpt>
      <trkpt lat="42.91825" lon="0.208">
        <ele>1431.6</ele>
        <time>2025-07-22T07:13:15Z</time>
      </trkpt>
      <trkpt lat="42.91832" lon="0.20793">
        <ele>1432.4</ele>
        <time>2025-07-22T07:13:19Z</time>
      </trkpt>
      <trkpt lat="42.91836" lon="0.2079">
        <ele>1433</ele>
        <time>2025-07-22T07:13:21Z</time>
      </trkpt>
      <trkpt lat="42.91848" lon="0.20779">
        <ele>1434</ele>
        <time>2025-07-22T07:13:27Z</time>
      </trkpt>
      <trkpt lat="42.91856" lon="0.20774">
        <ele>1435</ele>
        <time>2025-07-22T07:13:31Z</time>
      </trkpt>
      <trkpt lat="42.9186" lon="0.20772">
        <ele>1435.4</ele>
        <time>2025-07-22T07:13:33Z</time>
      </trkpt>
      <trkpt lat="42.91866" lon="0.20768">
        <ele>1436</ele>
        <time>2025-07-22T07:13:36Z</time>
      </trkpt>
      <trkpt lat="42.91872" lon="0.20761">
        <ele>1436.8</ele>
        <time>2025-07-22T07:13:40Z</time>
      </trkpt>
      <trkpt lat="42.91874" lon="0.20759">
        <ele>1437.2</ele>
        <time>2025-07-22T07:13:41Z</time>
      </trkpt>
      <trkpt lat="42.91879" lon="0.20754">
        <ele>1437.6</ele>
        <time>2025-07-22T07:13:44Z</time>
      </trkpt>
      <trkpt lat="42.91882" lon="0.2075">
        <ele>1438.2</ele>
        <time>2025-07-22T07:13:46Z</time>
      </trkpt>
      <trkpt lat="42.9189" lon="0.2074">
        <ele>1439.2</ele>
        <time>2025-07-22T07:13:51Z</time>
      </trkpt>
      <trkpt lat="42.91899" lon="0.20731">
        <ele>1440.4</ele>
        <time>2025-07-22T07:13:56Z</time>
      </trkpt>
      <trkpt lat="42.91903" lon="0.20725">
        <ele>1440.8</ele>
        <time>2025-07-22T07:13:59Z</time>
      </trkpt>
      <trkpt lat="42.91907" lon="0.20719">
        <ele>1441.2</ele>
        <time>2025-07-22T07:14:02Z</time>
      </trkpt>
      <trkpt lat="42.91912" lon="0.2071">
        <ele>1442</ele>
        <time>2025-07-22T07:14:06Z</time>
      </trkpt>
      <trkpt lat="42.91913" lon="0.20705">
        <ele>1442.4</ele>
        <time>2025-07-22T07:14:08Z</time>
      </trkpt>
      <trkpt lat="42.91916" lon="0.20701">
        <ele>1442.8</ele>
        <time>2025-07-22T07:14:10Z</time>
      </trkpt>
      <trkpt lat="42.91923" lon="0.20691">
        <ele>1443.6</ele>
        <time>2025-07-22T07:14:15Z</time>
      </trkpt>
      <trkpt lat="42.91933" lon="0.20681">
        <ele>1444.6</ele>
        <time>2025-07-22T07:14:20Z</time>
      </trkpt>
      <trkpt lat="42.91935" lon="0.20679">
        <ele>1444.8</ele>
        <time>2025-07-22T07:14:21Z</time>
      </trkpt>
      <trkpt lat="42.91943" lon="0.20669">
        <ele>1445.4</ele>
        <time>2025-07-22T07:14:26Z</time>
      </trkpt>
      <trkpt lat="42.91944" lon="0.20668">
        <ele>1445.8</ele>
        <time>2025-07-22T07:14:27Z</time>
      </trkpt>
      <trkpt lat="42.91947" lon="0.20663">
        <ele>1446.2</ele>
        <time>2025-07-22T07:14:29Z</time>
      </trkpt>
      <trkpt lat="42.9195" lon="0.20661">
        <ele>1446.8</ele>
        <time>2025-07-22T07:14:32Z</time>
      </trkpt>
      <trkpt lat="42.91953" lon="0.20656">
        <ele>1447.2</ele>
        <time>2025-07-22T07:14:34Z</time>
      </trkpt>
      <trkpt lat="42.91956" lon="0.2065">
        <ele>1448.2</ele>
        <time>2025-07-22T07:14:37Z</time>
      </trkpt>
      <trkpt lat="42.91959" lon="0.20646">
        <ele>1448.6</ele>
        <time>2025-07-22T07:14:39Z</time>
      </trkpt>
      <trkpt lat="42.91964" lon="0.2064">
        <ele>1449.2</ele>
        <time>2025-07-22T07:14:42Z</time>
      </trkpt>
      <trkpt lat="42.91969" lon="0.20632">
        <ele>1450.2</ele>
        <time>2025-07-22T07:14:46Z</time>
      </trkpt>
      <trkpt lat="42.9197" lon="0.2063">
        <ele>1450.4</ele>
        <time>2025-07-22T07:14:47Z</time>
      </trkpt>
      <trkpt lat="42.91975" lon="0.20621">
        <ele>1451.6</ele>
        <time>2025-07-22T07:14:51Z</time>
      </trkpt>
      <trkpt lat="42.91976" lon="0.20619">
        <ele>1451.8</ele>
        <time>2025-07-22T07:14:52Z</time>
      </trkpt>
      <trkpt lat="42.91982" lon="0.20612">
        <ele>1452.6</ele>
        <time>2025-07-22T07:14:56Z</time>
      </trkpt>
      <trkpt lat="42.91983" lon="0.20607">
        <ele>1452.8</ele>
        <time>2025-07-22T07:14:58Z</time>
      </trkpt>
      <trkpt lat="42.91987" lon="0.206">
        <ele>1453.4</ele>
        <time>2025-07-22T07:15:01Z</time>
      </trkpt>
      <trkpt lat="42.91989" lon="0.20596">
        <ele>1453.6</ele>
        <time>2025-07-22T07:15:03Z</time>
      </trkpt>
      <trkpt lat="42.91993" lon="0.20593">
        <ele>1454</ele>
        <time>2025-07-22T07:15:05Z</time>
      </trkpt>
      <trkpt lat="42.91998" lon="0.20589">
        <ele>1454.4</ele>
        <time>2025-07-22T07:15:07Z</time>
      </trkpt>
      <trkpt lat="42.92001" lon="0.20586">
        <ele>1454.8</ele>
        <time>2025-07-22T07:15:09Z</time>
      </trkpt>
      <trkpt lat="42.92005" lon="0.20579">
        <ele>1455.4</ele>
        <time>2025-07-22T07:15:12Z</time>
      </trkpt>
      <trkpt lat="42.92012" lon="0.20572">
        <ele>1456.2</ele>
        <time>2025-07-22T07:15:16Z</time>
      </trkpt>
      <trkpt lat="42.92014" lon="0.2057">
        <ele>1456.4</ele>
        <time>2025-07-22T07:15:17Z</time>
      </trkpt>
      <trkpt lat="42.92022" lon="0.20562">
        <ele>1457.4</ele>
        <time>2025-07-22T07:15:22Z</time>
      </trkpt>
      <trkpt lat="42.92024" lon="0.20561">
        <ele>1457.6</ele>
        <time>2025-07-22T07:15:23Z</time>
      </trkpt>
      <trkpt lat="42.92032" lon="0.20554">
        <ele>1458.8</ele>
        <time>2025-07-22T07:15:28Z</time>
      </trkpt>
      <trkpt lat="42.92035" lon="0.2055">
        <ele>1459.2</ele>
        <time>2025-07-22T07:15:30Z</time>
      </trkpt>
      <trkpt lat="42.9204" lon="0.20546">
        <ele>1459.8</ele>
        <time>2025-07-22T07:15:33Z</time>
      </trkpt>
      <trkpt lat="42.92049" lon="0.20537">
        <ele>1460.4</ele>
        <time>2025-07-22T07:15:38Z</time>
      </trkpt>
      <trkpt lat="42.92052" lon="0.20532">
        <ele>1460.8</ele>
        <time>2025-07-22T07:15:40Z</time>
      </trkpt>
      <trkpt lat="42.92059" lon="0.20521">
        <ele>1462</ele>
        <time>2025-07-22T07:15:45Z</time>
      </trkpt>
      <trkpt lat="42.92066" lon="0.2051">
        <ele>1463</ele>
        <time>2025-07-22T07:15:50Z</time>
      </trkpt>
      <trkpt lat="42.92069" lon="0.20506">
        <ele>1463.6</ele>
        <time>2025-07-22T07:15:52Z</time>
      </trkpt>
      <trkpt lat="42.92074" lon="0.20502">
        <ele>1464</ele>
        <time>2025-07-22T07:15:55Z</time>
      </trkpt>
      <trkpt lat="42.9208" lon="0.20495">
        <ele>1464.6</ele>
        <time>2025-07-22T07:15:59Z</time>
      </trkpt>
      <trkpt lat="42.92081" lon="0.20493">
        <ele>1464.8</ele>
        <time>2025-07-22T07:16:00Z</time>
      </trkpt>
      <trkpt lat="42.92082" lon="0.2049">
        <ele>1465.2</ele>
        <time>2025-07-22T07:16:01Z</time>
      </trkpt>
      <trkpt lat="42.92086" lon="0.20487">
        <ele>1465.6</ele>
        <time>2025-07-22T07:16:03Z</time>
      </trkpt>
      <trkpt lat="42.9209" lon="0.20482">
        <ele>1466.2</ele>
        <time>2025-07-22T07:16:05Z</time>
      </trkpt>
      <trkpt lat="42.92094" lon="0.20478">
        <ele>1466.8</ele>
        <time>2025-07-22T07:16:08Z</time>
      </trkpt>
      <trkpt lat="42.921" lon="0.20473">
        <ele>1467.4</ele>
        <time>2025-07-22T07:16:11Z</time>
      </trkpt>
      <trkpt lat="42.92105" lon="0.20467">
        <ele>1468</ele>
        <time>2025-07-22T07:16:14Z</time>
      </trkpt>
      <trkpt lat="42.9211" lon="0.2046">
        <ele>1468.4</ele>
        <time>2025-07-22T07:16:17Z</time>
      </trkpt>
      <trkpt lat="42.92116" lon="0.20452">
        <ele>1469.4</ele>
        <time>2025-07-22T07:16:21Z</time>
      </trkpt>
      <trkpt lat="42.92119" lon="0.20448">
        <ele>1469.8</ele>
        <time>2025-07-22T07:16:23Z</time>
      </trkpt>
      <trkpt lat="42.92125" lon="0.20437">
        <ele>1471</ele>
        <time>2025-07-22T07:16:28Z</time>
      </trkpt>
      <trkpt lat="42.92135" lon="0.20424">
        <ele>1472</ele>
        <time>2025-07-22T07:16:34Z</time>
      </trkpt>
      <trkpt lat="42.92141" lon="0.20414">
        <ele>1473.2</ele>
        <time>2025-07-22T07:16:39Z</time>
      </trkpt>
      <trkpt lat="42.92142" lon="0.20412">
        <ele>1473.4</ele>
        <time>2025-07-22T07:16:40Z</time>
      </trkpt>
      <trkpt lat="42.9215" lon="0.20404">
        <ele>1474.4</ele>
        <time>2025-07-22T07:16:45Z</time>
      </trkpt>
      <trkpt lat="42.92152" lon="0.20399">
        <ele>1474.8</ele>
        <time>2025-07-22T07:16:47Z</time>
      </trkpt>
      <trkpt lat="42.92158" lon="0.20392">
        <ele>1475.4</ele>
        <time>2025-07-22T07:16:51Z</time>
      </trkpt>
      <trkpt lat="42.92161" lon="0.20388">
        <ele>1476</ele>
        <time>2025-07-22T07:16:53Z</time>
      </trkpt>
      <trkpt lat="42.92163" lon="0.20381">
        <ele>1476.4</ele>
        <time>2025-07-22T07:16:56Z</time>
      </trkpt>
      <trkpt lat="42.92169" lon="0.20365">
        <ele>1477.6</ele>
        <time>2025-07-22T07:17:02Z</time>
      </trkpt>
      <trkpt lat="42.9217" lon="0.20363">
        <ele>1477.8</ele>
        <time>2025-07-22T07:17:03Z</time>
      </trkpt>
      <trkpt lat="42.92175" lon="0.2035">
        <ele>1478.6</ele>
        <time>2025-07-22T07:17:08Z</time>
      </trkpt>
      <trkpt lat="42.92177" lon="0.20345">
        <ele>1479.4</ele>
        <time>2025-07-22T07:17:10Z</time>
      </trkpt>
      <trkpt lat="42.92179" lon="0.2034">
        <ele>1479.8</ele>
        <time>2025-07-22T07:17:12Z</time>
      </trkpt>
      <trkpt lat="42.92182" lon="0.20321">
        <ele>1480.8</ele>
        <time>2025-07-22T07:17:19Z</time>
      </trkpt>
      <trkpt lat="42.92183" lon="0.20318">
        <ele>1481</ele>
        <time>2025-07-22T07:17:20Z</time>
      </trkpt>
      <trkpt lat="42.92188" lon="0.20302">
        <ele>1482</ele>
        <time>2025-07-22T07:17:26Z</time>
      </trkpt>
      <trkpt lat="42.92192" lon="0.20292">
        <ele>1482.8</ele>
        <time>2025-07-22T07:17:30Z</time>
      </trkpt>
      <trkpt lat="42.92192" lon="0.20289">
        <ele>1483</ele>
        <time>2025-07-22T07:17:31Z</time>
      </trkpt>
      <trkpt lat="42.92197" lon="0.20276">
        <ele>1484</ele>
        <time>2025-07-22T07:17:36Z</time>
      </trkpt>
      <trkpt lat="42.92199" lon="0.2027">
        <ele>1484.4</ele>
        <time>2025-07-22T07:17:38Z</time>
      </trkpt>
      <trkpt lat="42.92201" lon="0.20263">
        <ele>1485.2</ele>
        <time>2025-07-22T07:17:41Z</time>
      </trkpt>
      <trkpt lat="42.92206" lon="0.20255">
        <ele>1485.6</ele>
        <time>2025-07-22T07:17:44Z</time>
      </trkpt>
      <trkpt lat="42.9221" lon="0.20246">
        <ele>1486.4</ele>
        <time>2025-07-22T07:17:48Z</time>
      </trkpt>
      <trkpt lat="42.92214" lon="0.20238">
        <ele>1487.2</ele>
        <time>2025-07-22T07:17:51Z</time>
      </trkpt>
      <trkpt lat="42.92215" lon="0.20236">
        <ele>1487.4</ele>
        <time>2025-07-22T07:17:52Z</time>
      </trkpt>
      <trkpt lat="42.92218" lon="0.20225">
        <ele>1488</ele>
        <time>2025-07-22T07:17:56Z</time>
      </trkpt>
      <trkpt lat="42.9222" lon="0.20218">
        <ele>1488.4</ele>
        <time>2025-07-22T07:17:59Z</time>
      </trkpt>
      <trkpt lat="42.92221" lon="0.20214">
        <ele>1489</ele>
        <time>2025-07-22T07:18:01Z</time>
      </trkpt>
      <trkpt lat="42.92222" lon="0.20212">
        <ele>1489</ele>
        <time>2025-07-22T07:18:02Z</time>
      </trkpt>
      <trkpt lat="42.92223" lon="0.20207">
        <ele>1489.4</ele>
        <time>2025-07-22T07:18:04Z</time>
      </trkpt>
      <trkpt lat="42.92223" lon="0.20204">
        <ele>1489.6</ele>
        <time>2025-07-22T07:18:05Z</time>
      </trkpt>
      <trkpt lat="42.92223" lon="0.20201">
        <ele>1489.8</ele>
        <time>2025-07-22T07:18:06Z</time>
      </trkpt>
      <trkpt lat="42.92224" lon="0.20194">
        <ele>1490.4</ele>
        <time>2025-07-22T07:18:09Z</time>
      </trkpt>
      <trkpt lat="42.92225" lon="0.2019">
        <ele>1490.6</ele>
        <time>2025-07-22T07:18:10Z</time>
      </trkpt>
      <trkpt lat="42.9223" lon="0.20171">
        <ele>1491.8</ele>
        <time>2025-07-22T07:18:17Z</time>
      </trkpt>
      <trkpt lat="42.92233" lon="0.20163">
        <ele>1492.6</ele>
        <time>2025-07-22T07:18:20Z</time>
      </trkpt>
      <trkpt lat="42.92236" lon="0.20156">
        <ele>1493.2</ele>
        <time>2025-07-22T07:18:23Z</time>
      </trkpt>
      <trkpt lat="42.9224" lon="0.20143">
        <ele>1494.2</ele>
        <time>2025-07-22T07:18:28Z</time>
      </trkpt>
      <trkpt lat="42.92245" lon="0.2013">
        <ele>1495.2</ele>
        <time>2025-07-22T07:18:33Z</time>
      </trkpt>
      <trkpt lat="42.92248" lon="0.20122">
        <ele>1496</ele>
        <time>2025-07-22T07:18:36Z</time>
      </trkpt>
      <trkpt lat="42.9225" lon="0.20114">
        <ele>1496.4</ele>
        <time>2025-07-22T07:18:39Z</time>
      </trkpt>
      <trkpt lat="42.9225" lon="0.20102">
        <ele>1497.2</ele>
        <time>2025-07-22T07:18:43Z</time>
      </trkpt>
      <trkpt lat="42.9225" lon="0.20099">
        <ele>1497.4</ele>
        <time>2025-07-22T07:18:44Z</time>
      </trkpt>
      <trkpt lat="42.92249" lon="0.20083">
        <ele>1498.4</ele>
        <time>2025-07-22T07:18:50Z</time>
      </trkpt>
      <trkpt lat="42.92248" lon="0.2008">
        <ele>1498.6</ele>
        <time>2025-07-22T07:18:51Z</time>
      </trkpt>
      <trkpt lat="42.92247" lon="0.20077">
        <ele>1499</ele>
        <time>2025-07-22T07:18:52Z</time>
      </trkpt>
      <trkpt lat="42.92245" lon="0.20065">
        <ele>1499.6</ele>
        <time>2025-07-22T07:18:56Z</time>
      </trkpt>
      <trkpt lat="42.92244" lon="0.20062">
        <ele>1499.8</ele>
        <time>2025-07-22T07:18:57Z</time>
      </trkpt>
      <trkpt lat="42.92243" lon="0.20051">
        <ele>1500.4</ele>
        <time>2025-07-22T07:19:01Z</time>
      </trkpt>
      <trkpt lat="42.92242" lon="0.20045">
        <ele>1500.8</ele>
        <time>2025-07-22T07:19:03Z</time>
      </trkpt>
      <trkpt lat="42.92239" lon="0.20035">
        <ele>1502</ele>
        <time>2025-07-22T07:19:07Z</time>
      </trkpt>
      <trkpt lat="42.92239" lon="0.20032">
        <ele>1502</ele>
        <time>2025-07-22T07:19:08Z</time>
      </trkpt>
      <trkpt lat="42.92236" lon="0.20018">
        <ele>1503.2</ele>
        <time>2025-07-22T07:19:14Z</time>
      </trkpt>
      <trkpt lat="42.92234" lon="0.20015">
        <ele>1503.2</ele>
        <time>2025-07-22T07:19:15Z</time>
      </trkpt>
      <trkpt lat="42.92233" lon="0.2001">
        <ele>1503.6</ele>
        <time>2025-07-22T07:19:17Z</time>
      </trkpt>
      <trkpt lat="42.92232" lon="0.20002">
        <ele>1504.2</ele>
        <time>2025-07-22T07:19:21Z</time>
      </trkpt>
      <trkpt lat="42.92231" lon="0.19999">
        <ele>1504.2</ele>
        <time>2025-07-22T07:19:22Z</time>
      </trkpt>
      <trkpt lat="42.92224" lon="0.19987">
        <ele>1505.4</ele>
        <time>2025-07-22T07:19:26Z</time>
      </trkpt>
      <trkpt lat="42.92218" lon="0.19973">
        <ele>1506.4</ele>
        <time>2025-07-22T07:19:31Z</time>
      </trkpt>
      <trkpt lat="42.92216" lon="0.19968">
        <ele>1506.8</ele>
        <time>2025-07-22T07:19:33Z</time>
      </trkpt>
      <trkpt lat="42.92214" lon="0.19962">
        <ele>1507.4</ele>
        <time>2025-07-22T07:19:35Z</time>
      </trkpt>
      <trkpt lat="42.92212" lon="0.19958">
        <ele>1507.8</ele>
        <time>2025-07-22T07:19:37Z</time>
      </trkpt>
      <trkpt lat="42.9221" lon="0.19954">
        <ele>1508.2</ele>
        <time>2025-07-22T07:19:39Z</time>
      </trkpt>
      <trkpt lat="42.92209" lon="0.1995">
        <ele>1508.6</ele>
        <time>2025-07-22T07:19:41Z</time>
      </trkpt>
      <trkpt lat="42.92208" lon="0.19946">
        <ele>1509</ele>
        <time>2025-07-22T07:19:43Z</time>
      </trkpt>
      <trkpt lat="42.92206" lon="0.19942">
        <ele>1509.4</ele>
        <time>2025-07-22T07:19:45Z</time>
      </trkpt>
      <trkpt lat="42.92206" lon="0.19936">
        <ele>1509.8</ele>
        <time>2025-07-22T07:19:47Z</time>
      </trkpt>
      <trkpt lat="42.92204" lon="0.1993">
        <ele>1510.2</ele>
        <time>2025-07-22T07:19:50Z</time>
      </trkpt>
      <trkpt lat="42.92203" lon="0.19926">
        <ele>1510.4</ele>
        <time>2025-07-22T07:19:52Z</time>
      </trkpt>
      <trkpt lat="42.92201" lon="0.19924">
        <ele>1510.8</ele>
        <time>2025-07-22T07:19:53Z</time>
      </trkpt>
      <trkpt lat="42.922" lon="0.19921">
        <ele>1511</ele>
        <time>2025-07-22T07:19:54Z</time>
      </trkpt>
      <trkpt lat="42.92195" lon="0.19913">
        <ele>1511.8</ele>
        <time>2025-07-22T07:19:57Z</time>
      </trkpt>
      <trkpt lat="42.92194" lon="0.1991">
        <ele>1512</ele>
        <time>2025-07-22T07:19:58Z</time>
      </trkpt>
      <trkpt lat="42.92193" lon="0.19908">
        <ele>1512</ele>
        <time>2025-07-22T07:19:59Z</time>
      </trkpt>
      <trkpt lat="42.92188" lon="0.19899">
        <ele>1512.6</ele>
        <time>2025-07-22T07:20:02Z</time>
      </trkpt>
      <trkpt lat="42.92186" lon="0.19893">
        <ele>1513.2</ele>
        <time>2025-07-22T07:20:04Z</time>
      </trkpt>
      <trkpt lat="42.92181" lon="0.19882">
        <ele>1513.8</ele>
        <time>2025-07-22T07:20:08Z</time>
      </trkpt>
      <trkpt lat="42.92178" lon="0.19877">
        <ele>1514.2</ele>
        <time>2025-07-22T07:20:10Z</time>
      </trkpt>
      <trkpt lat="42.92173" lon="0.19866">
        <ele>1515.4</ele>
        <time>2025-07-22T07:20:15Z</time>
      </trkpt>
      <trkpt lat="42.92171" lon="0.19861">
        <ele>1515.8</ele>
        <time>2025-07-22T07:20:17Z</time>
      </trkpt>
      <trkpt lat="42.92168" lon="0.19853">
        <ele>1516.6</ele>
        <time>2025-07-22T07:20:20Z</time>
      </trkpt>
      <trkpt lat="42.92163" lon="0.19842">
        <ele>1517.6</ele>
        <time>2025-07-22T07:20:25Z</time>
      </trkpt>
      <trkpt lat="42.92159" lon="0.19836">
        <ele>1518.2</ele>
        <time>2025-07-22T07:20:28Z</time>
      </trkpt>
      <trkpt lat="42.92155" lon="0.19829">
        <ele>1519</ele>
        <time>2025-07-22T07:20:31Z</time>
      </trkpt>
      <trkpt lat="42.92149" lon="0.19816">
        <ele>1520.2</ele>
        <time>2025-07-22T07:20:36Z</time>
      </trkpt>
      <trkpt lat="42.92142" lon="0.19801">
        <ele>1521.2</ele>
        <time>2025-07-22T07:20:42Z</time>
      </trkpt>
      <trkpt lat="42.92142" lon="0.19799">
        <ele>1521.4</ele>
        <time>2025-07-22T07:20:43Z</time>
      </trkpt>
      <trkpt lat="42.92141" lon="0.19797">
        <ele>1521.6</ele>
        <time>2025-07-22T07:20:44Z</time>
      </trkpt>
      <trkpt lat="42.92135" lon="0.19786">
        <ele>1522.6</ele>
        <time>2025-07-22T07:20:48Z</time>
      </trkpt>
      <trkpt lat="42.9213" lon="0.19777">
        <ele>1523.2</ele>
        <time>2025-07-22T07:20:52Z</time>
      </trkpt>
      <trkpt lat="42.92127" lon="0.19772">
        <ele>1523.6</ele>
        <time>2025-07-22T07:20:54Z</time>
      </trkpt>
      <trkpt lat="42.92122" lon="0.19761">
        <ele>1524.4</ele>
        <time>2025-07-22T07:20:59Z</time>
      </trkpt>
      <trkpt lat="42.92119" lon="0.19756">
        <ele>1524.8</ele>
        <time>2025-07-22T07:21:01Z</time>
      </trkpt>
      <trkpt lat="42.92113" lon="0.19745">
        <ele>1526</ele>
        <time>2025-07-22T07:21:06Z</time>
      </trkpt>
      <trkpt lat="42.92111" lon="0.19742">
        <ele>1526.2</ele>
        <time>2025-07-22T07:21:07Z</time>
      </trkpt>
      <trkpt lat="42.92108" lon="0.19733">
        <ele>1527</ele>
        <time>2025-07-22T07:21:11Z</time>
      </trkpt>
      <trkpt lat="42.92104" lon="0.19723">
        <ele>1527.8</ele>
        <time>2025-07-22T07:21:15Z</time>
      </trkpt>
      <trkpt lat="42.92103" lon="0.19721">
        <ele>1528</ele>
        <time>2025-07-22T07:21:16Z</time>
      </trkpt>
      <trkpt lat="42.92093" lon="0.19705">
        <ele>1529.4</ele>
        <time>2025-07-22T07:21:23Z</time>
      </trkpt>
      <trkpt lat="42.92087" lon="0.19692">
        <ele>1530.6</ele>
        <time>2025-07-22T07:21:28Z</time>
      </trkpt>
      <trkpt lat="42.92082" lon="0.19683">
        <ele>1531.8</ele>
        <time>2025-07-22T07:21:32Z</time>
      </trkpt>
      <trkpt lat="42.9208" lon="0.19679">
        <ele>1532.2</ele>
        <time>2025-07-22T07:21:34Z</time>
      </trkpt>
      <trkpt lat="42.92077" lon="0.19673">
        <ele>1533</ele>
        <time>2025-07-22T07:21:37Z</time>
      </trkpt>
      <trkpt lat="42.92073" lon="0.19664">
        <ele>1533.6</ele>
        <time>2025-07-22T07:21:41Z</time>
      </trkpt>
      <trkpt lat="42.92072" lon="0.19662">
        <ele>1533.8</ele>
        <time>2025-07-22T07:21:42Z</time>
      </trkpt>
      <trkpt lat="42.92071" lon="0.1966">
        <ele>1534</ele>
        <time>2025-07-22T07:21:43Z</time>
      </trkpt>
      <trkpt lat="42.92069" lon="0.19655">
        <ele>1534.4</ele>
        <time>2025-07-22T07:21:45Z</time>
      </trkpt>
      <trkpt lat="42.92066" lon="0.19649">
        <ele>1535.2</ele>
        <time>2025-07-22T07:21:48Z</time>
      </trkpt>
      <trkpt lat="42.92061" lon="0.19634">
        <ele>1536.2</ele>
        <time>2025-07-22T07:21:54Z</time>
      </trkpt>
      <trkpt lat="42.92056" lon="0.1962">
        <ele>1537.4</ele>
        <time>2025-07-22T07:21:59Z</time>
      </trkpt>
      <trkpt lat="42.92056" lon="0.19609">
        <ele>1538</ele>
        <time>2025-07-22T07:22:03Z</time>
      </trkpt>
      <trkpt lat="42.92055" lon="0.19604">
        <ele>1538.4</ele>
        <time>2025-07-22T07:22:05Z</time>
      </trkpt>
      <trkpt lat="42.92051" lon="0.19593">
        <ele>1539.4</ele>
        <time>2025-07-22T07:22:10Z</time>
      </trkpt>
      <trkpt lat="42.9205" lon="0.19587">
        <ele>1539.8</ele>
        <time>2025-07-22T07:22:12Z</time>
      </trkpt>
      <trkpt lat="42.92048" lon="0.19577">
        <ele>1540.6</ele>
        <time>2025-07-22T07:22:16Z</time>
      </trkpt>
      <trkpt lat="42.92044" lon="0.19568">
        <ele>1541.4</ele>
        <time>2025-07-22T07:22:20Z</time>
      </trkpt>
      <trkpt lat="42.92043" lon="0.19565">
        <ele>1541.6</ele>
        <time>2025-07-22T07:22:21Z</time>
      </trkpt>
      <trkpt lat="42.92037" lon="0.19551">
        <ele>1543</ele>
        <time>2025-07-22T07:22:27Z</time>
      </trkpt>
      <trkpt lat="42.92033" lon="0.19538">
        <ele>1544</ele>
        <time>2025-07-22T07:22:32Z</time>
      </trkpt>
      <trkpt lat="42.9203" lon="0.19527">
        <ele>1544.6</ele>
        <time>2025-07-22T07:22:36Z</time>
      </trkpt>
      <trkpt lat="42.92029" lon="0.19521">
        <ele>1545.2</ele>
        <time>2025-07-22T07:22:38Z</time>
      </trkpt>
      <trkpt lat="42.92024" lon="0.19511">
        <ele>1546.2</ele>
        <time>2025-07-22T07:22:43Z</time>
      </trkpt>
      <trkpt lat="42.92023" lon="0.19509">
        <ele>1546.4</ele>
        <time>2025-07-22T07:22:44Z</time>
      </trkpt>
      <trkpt lat="42.92017" lon="0.19499">
        <ele>1547.6</ele>
        <time>2025-07-22T07:22:49Z</time>
      </trkpt>
      <trkpt lat="42.92016" lon="0.19493">
        <ele>1547.8</ele>
        <time>2025-07-22T07:22:51Z</time>
      </trkpt>
      <trkpt lat="42.92013" lon="0.19481">
        <ele>1548.8</ele>
        <time>2025-07-22T07:22:56Z</time>
      </trkpt>
      <trkpt lat="42.9201" lon="0.19476">
        <ele>1549.4</ele>
        <time>2025-07-22T07:22:59Z</time>
      </trkpt>
      <trkpt lat="42.92009" lon="0.19471">
        <ele>1549.6</ele>
        <time>2025-07-22T07:23:01Z</time>
      </trkpt>
      <trkpt lat="42.92008" lon="0.19469">
        <ele>1549.8</ele>
        <time>2025-07-22T07:23:02Z</time>
      </trkpt>
      <trkpt lat="42.92003" lon="0.19454">
        <ele>1551.2</ele>
        <time>2025-07-22T07:23:08Z</time>
      </trkpt>
      <trkpt lat="42.92001" lon="0.19441">
        <ele>1552.6</ele>
        <time>2025-07-22T07:23:13Z</time>
      </trkpt>
      <trkpt lat="42.91997" lon="0.19427">
        <ele>1553.6</ele>
        <time>2025-07-22T07:23:18Z</time>
      </trkpt>
      <trkpt lat="42.91995" lon="0.19423">
        <ele>1554</ele>
        <time>2025-07-22T07:23:20Z</time>
      </trkpt>
      <trkpt lat="42.91991" lon="0.19412">
        <ele>1554.8</ele>
        <time>2025-07-22T07:23:25Z</time>
      </trkpt>
      <trkpt lat="42.9199" lon="0.19406">
        <ele>1555.4</ele>
        <time>2025-07-22T07:23:27Z</time>
      </trkpt>
      <trkpt lat="42.9199" lon="0.19398">
        <ele>1556</ele>
        <time>2025-07-22T07:23:30Z</time>
      </trkpt>
      <trkpt lat="42.91988" lon="0.19388">
        <ele>1556.6</ele>
        <time>2025-07-22T07:23:34Z</time>
      </trkpt>
      <trkpt lat="42.91987" lon="0.1938">
        <ele>1557</ele>
        <time>2025-07-22T07:23:37Z</time>
      </trkpt>
      <trkpt lat="42.91986" lon="0.19366">
        <ele>1558.2</ele>
        <time>2025-07-22T07:23:42Z</time>
      </trkpt>
      <trkpt lat="42.91986" lon="0.19363">
        <ele>1558.4</ele>
        <time>2025-07-22T07:23:43Z</time>
      </trkpt>
      <trkpt lat="42.91985" lon="0.19346">
        <ele>1559.4</ele>
        <time>2025-07-22T07:23:49Z</time>
      </trkpt>
      <trkpt lat="42.91985" lon="0.19335">
        <ele>1560.4</ele>
        <time>2025-07-22T07:23:53Z</time>
      </trkpt>
      <trkpt lat="42.91985" lon="0.19333">
        <ele>1560.4</ele>
        <time>2025-07-22T07:23:54Z</time>
      </trkpt>
      <trkpt lat="42.91984" lon="0.19316">
        <ele>1561.6</ele>
        <time>2025-07-22T07:24:00Z</time>
      </trkpt>
      <trkpt lat="42.91984" lon="0.19313">
        <ele>1561.8</ele>
        <time>2025-07-22T07:24:01Z</time>
      </trkpt>
      <trkpt lat="42.91984" lon="0.19303">
        <ele>1562.8</ele>
        <time>2025-07-22T07:24:05Z</time>
      </trkpt>
      <trkpt lat="42.91981" lon="0.19283">
        <ele>1564.2</ele>
        <time>2025-07-22T07:24:12Z</time>
      </trkpt>
      <trkpt lat="42.9198" lon="0.19269">
        <ele>1565.2</ele>
        <time>2025-07-22T07:24:17Z</time>
      </trkpt>
      <trkpt lat="42.91978" lon="0.19263">
        <ele>1565.8</ele>
        <time>2025-07-22T07:24:19Z</time>
      </trkpt>
      <trkpt lat="42.91976" lon="0.19255">
        <ele>1566.6</ele>
        <time>2025-07-22T07:24:22Z</time>
      </trkpt>
      <trkpt lat="42.91975" lon="0.19238">
        <ele>1567.6</ele>
        <time>2025-07-22T07:24:28Z</time>
      </trkpt>
      <trkpt lat="42.91972" lon="0.19225">
        <ele>1568.8</ele>
        <time>2025-07-22T07:24:33Z</time>
      </trkpt>
      <trkpt lat="42.9197" lon="0.19214">
        <ele>1569.8</ele>
        <time>2025-07-22T07:24:37Z</time>
      </trkpt>
      <trkpt lat="42.91969" lon="0.19212">
        <ele>1570.2</ele>
        <time>2025-07-22T07:24:38Z</time>
      </trkpt>
      <trkpt lat="42.91968" lon="0.19202">
        <ele>1571</ele>
        <time>2025-07-22T07:24:42Z</time>
      </trkpt>
      <trkpt lat="42.91966" lon="0.19194">
        <ele>1571.4</ele>
        <time>2025-07-22T07:24:45Z</time>
      </trkpt>
      <trkpt lat="42.91965" lon="0.19189">
        <ele>1571.8</ele>
        <time>2025-07-22T07:24:47Z</time>
      </trkpt>
      <trkpt lat="42.91962" lon="0.19177">
        <ele>1573</ele>
        <time>2025-07-22T07:24:52Z</time>
      </trkpt>
      <trkpt lat="42.9196" lon="0.19169">
        <ele>1573.4</ele>
        <time>2025-07-22T07:24:55Z</time>
      </trkpt>
      <trkpt lat="42.91959" lon="0.19164">
        <ele>1574</ele>
        <time>2025-07-22T07:24:57Z</time>
      </trkpt>
      <trkpt lat="42.91956" lon="0.19151">
        <ele>1575.2</ele>
        <time>2025-07-22T07:25:02Z</time>
      </trkpt>
      <trkpt lat="42.91954" lon="0.19146">
        <ele>1575.6</ele>
        <time>2025-07-22T07:25:04Z</time>
      </trkpt>
      <trkpt lat="42.91951" lon="0.19139">
        <ele>1576.2</ele>
        <time>2025-07-22T07:25:07Z</time>
      </trkpt>
      <trkpt lat="42.91944" lon="0.19125">
        <ele>1577</ele>
        <time>2025-07-22T07:25:13Z</time>
      </trkpt>
      <trkpt lat="42.91942" lon="0.1912">
        <ele>1577.4</ele>
        <time>2025-07-22T07:25:15Z</time>
      </trkpt>
      <trkpt lat="42.91937" lon="0.19109">
        <ele>1578.8</ele>
        <time>2025-07-22T07:25:20Z</time>
      </trkpt>
      <trkpt lat="42.91935" lon="0.19104">
        <ele>1579.4</ele>
        <time>2025-07-22T07:25:22Z</time>
      </trkpt>
      <trkpt lat="42.91931" lon="0.19098">
        <ele>1580</ele>
        <time>2025-07-22T07:25:25Z</time>
      </trkpt>
      <trkpt lat="42.91923" lon="0.19088">
        <ele>1581</ele>
        <time>2025-07-22T07:25:30Z</time>
      </trkpt>
      <trkpt lat="42.91919" lon="0.19085">
        <ele>1581.4</ele>
        <time>2025-07-22T07:25:32Z</time>
      </trkpt>
      <trkpt lat="42.91914" lon="0.1908">
        <ele>1582.2</ele>
        <time>2025-07-22T07:25:35Z</time>
      </trkpt>
      <trkpt lat="42.91903" lon="0.1907">
        <ele>1583.2</ele>
        <time>2025-07-22T07:25:41Z</time>
      </trkpt>
      <trkpt lat="42.91901" lon="0.19068">
        <ele>1583.4</ele>
        <time>2025-07-22T07:25:42Z</time>
      </trkpt>
      <trkpt lat="42.91894" lon="0.19062">
        <ele>1584.2</ele>
        <time>2025-07-22T07:25:46Z</time>
      </trkpt>
      <trkpt lat="42.91888" lon="0.19055">
        <ele>1585.2</ele>
        <time>2025-07-22T07:25:50Z</time>
      </trkpt>
      <trkpt lat="42.91885" lon="0.19053">
        <ele>1585.6</ele>
        <time>2025-07-22T07:25:52Z</time>
      </trkpt>
      <trkpt lat="42.9188" lon="0.19049">
        <ele>1586.4</ele>
        <time>2025-07-22T07:25:55Z</time>
      </trkpt>
      <trkpt lat="42.91871" lon="0.19041">
        <ele>1587.2</ele>
        <time>2025-07-22T07:26:00Z</time>
      </trkpt>
      <trkpt lat="42.91868" lon="0.19038">
        <ele>1587.6</ele>
        <time>2025-07-22T07:26:02Z</time>
      </trkpt>
      <trkpt lat="42.91862" lon="0.19032">
        <ele>1588.4</ele>
        <time>2025-07-22T07:26:06Z</time>
      </trkpt>
      <trkpt lat="42.91858" lon="0.19029">
        <ele>1588.6</ele>
        <time>2025-07-22T07:26:08Z</time>
      </trkpt>
      <trkpt lat="42.9185" lon="0.19021">
        <ele>1589.6</ele>
        <time>2025-07-22T07:26:14Z</time>
      </trkpt>
      <trkpt lat="42.91848" lon="0.19019">
        <ele>1589.8</ele>
        <time>2025-07-22T07:26:15Z</time>
      </trkpt>
      <trkpt lat="42.91835" lon="0.19008">
        <ele>1590.8</ele>
        <time>2025-07-22T07:26:22Z</time>
      </trkpt>
      <trkpt lat="42.91829" lon="0.19001">
        <ele>1591.8</ele>
        <time>2025-07-22T07:26:26Z</time>
      </trkpt>
      <trkpt lat="42.91818" lon="0.18992">
        <ele>1593</ele>
        <time>2025-07-22T07:26:32Z</time>
      </trkpt>
      <trkpt lat="42.91814" lon="0.18986">
        <ele>1593.6</ele>
        <time>2025-07-22T07:26:35Z</time>
      </trkpt>
      <trkpt lat="42.9181" lon="0.1898">
        <ele>1594.2</ele>
        <time>2025-07-22T07:26:38Z</time>
      </trkpt>
      <trkpt lat="42.91802" lon="0.18972">
        <ele>1595.4</ele>
        <time>2025-07-22T07:26:43Z</time>
      </trkpt>
      <trkpt lat="42.918" lon="0.1897">
        <ele>1595.6</ele>
        <time>2025-07-22T07:26:44Z</time>
      </trkpt>
      <trkpt lat="42.91794" lon="0.18962">
        <ele>1596.4</ele>
        <time>2025-07-22T07:26:48Z</time>
      </trkpt>
      <trkpt lat="42.9179" lon="0.18956">
        <ele>1597.4</ele>
        <time>2025-07-22T07:26:51Z</time>
      </trkpt>
      <trkpt lat="42.91788" lon="0.18954">
        <ele>1597.6</ele>
        <time>2025-07-22T07:26:52Z</time>
      </trkpt>
      <trkpt lat="42.91783" lon="0.18947">
        <ele>1599</ele>
        <time>2025-07-22T07:26:56Z</time>
      </trkpt>
      <trkpt lat="42.91776" lon="0.18937">
        <ele>1600.2</ele>
        <time>2025-07-22T07:27:01Z</time>
      </trkpt>
      <trkpt lat="42.91774" lon="0.18934">
        <ele>1600.6</ele>
        <time>2025-07-22T07:27:03Z</time>
      </trkpt>
      <trkpt lat="42.91768" lon="0.18926">
        <ele>1601.4</ele>
        <time>2025-07-22T07:27:07Z</time>
      </trkpt>
      <trkpt lat="42.91763" lon="0.18917">
        <ele>1602.4</ele>
        <time>2025-07-22T07:27:11Z</time>
      </trkpt>
      <trkpt lat="42.91762" lon="0.18916">
        <ele>1602.6</ele>
        <time>2025-07-22T07:27:12Z</time>
      </trkpt>
      <trkpt lat="42.91755" lon="0.18908">
        <ele>1603.6</ele>
        <time>2025-07-22T07:27:16Z</time>
      </trkpt>
      <trkpt lat="42.91744" lon="0.18897">
        <ele>1604.8</ele>
        <time>2025-07-22T07:27:23Z</time>
      </trkpt>
      <trkpt lat="42.91732" lon="0.18887">
        <ele>1606</ele>
        <time>2025-07-22T07:27:30Z</time>
      </trkpt>
      <trkpt lat="42.91725" lon="0.18883">
        <ele>1606.8</ele>
        <time>2025-07-22T07:27:34Z</time>
      </trkpt>
      <trkpt lat="42.91724" lon="0.18881">
        <ele>1607</ele>
        <time>2025-07-22T07:27:35Z</time>
      </trkpt>
      <trkpt lat="42.91713" lon="0.18871">
        <ele>1608</ele>
        <time>2025-07-22T07:27:42Z</time>
      </trkpt>
      <trkpt lat="42.91701" lon="0.18861">
        <ele>1609</ele>
        <time>2025-07-22T07:27:49Z</time>
      </trkpt>
      <trkpt lat="42.91697" lon="0.18858">
        <ele>1609.2</ele>
        <time>2025-07-22T07:27:51Z</time>
      </trkpt>
      <trkpt lat="42.91691" lon="0.18852">
        <ele>1610</ele>
        <time>2025-07-22T07:27:55Z</time>
      </trkpt>
      <trkpt lat="42.91683" lon="0.18845">
        <ele>1610.8</ele>
        <time>2025-07-22T07:28:00Z</time>
      </trkpt>
      <trkpt lat="42.91681" lon="0.18844">
        <ele>1611</ele>
        <time>2025-07-22T07:28:01Z</time>
      </trkpt>
      <trkpt lat="42.91674" lon="0.18836">
        <ele>1612.2</ele>
        <time>2025-07-22T07:28:06Z</time>
      </trkpt>
      <trkpt lat="42.91672" lon="0.18835">
        <ele>1612.6</ele>
        <time>2025-07-22T07:28:07Z</time>
      </trkpt>
      <trkpt lat="42.91666" lon="0.18829">
        <ele>1613.2</ele>
        <time>2025-07-22T07:28:11Z</time>
      </trkpt>
      <trkpt lat="42.91658" lon="0.18822">
        <ele>1614.4</ele>
        <time>2025-07-22T07:28:16Z</time>
      </trkpt>
      <trkpt lat="42.91649" lon="0.18813">
        <ele>1615.6</ele>
        <time>2025-07-22T07:28:22Z</time>
      </trkpt>
      <trkpt lat="42.91647" lon="0.18812">
        <ele>1615.8</ele>
        <time>2025-07-22T07:28:23Z</time>
      </trkpt>
      <trkpt lat="42.91643" lon="0.18808">
        <ele>1616.8</ele>
        <time>2025-07-22T07:28:26Z</time>
      </trkpt>
      <trkpt lat="42.91637" lon="0.18802">
        <ele>1617.4</ele>
        <time>2025-07-22T07:28:30Z</time>
      </trkpt>
      <trkpt lat="42.91632" lon="0.18798">
        <ele>1618</ele>
        <time>2025-07-22T07:28:33Z</time>
      </trkpt>
      <trkpt lat="42.91628" lon="0.18796">
        <ele>1618.6</ele>
        <time>2025-07-22T07:28:35Z</time>
      </trkpt>
      <trkpt lat="42.91626" lon="0.18794">
        <ele>1619</ele>
        <time>2025-07-22T07:28:36Z</time>
      </trkpt>
      <trkpt lat="42.91625" lon="0.18792">
        <ele>1619</ele>
        <time>2025-07-22T07:28:37Z</time>
      </trkpt>
      <trkpt lat="42.91623" lon="0.18788">
        <ele>1619.6</ele>
        <time>2025-07-22T07:28:39Z</time>
      </trkpt>
      <trkpt lat="42.91624" lon="0.18787">
        <ele>1619.8</ele>
        <time>2025-07-22T07:28:40Z</time>
      </trkpt>
      <trkpt lat="42.91623" lon="0.18785">
        <ele>1620.2</ele>
        <time>2025-07-22T07:28:41Z</time>
      </trkpt>
      <trkpt lat="42.91622" lon="0.18782">
        <ele>1620.4</ele>
        <time>2025-07-22T07:28:42Z</time>
      </trkpt>
      <trkpt lat="42.91618" lon="0.1877">
        <ele>1621.4</ele>
        <time>2025-07-22T07:28:46Z</time>
      </trkpt>
      <trkpt lat="42.91618" lon="0.18767">
        <ele>1621.6</ele>
        <time>2025-07-22T07:28:47Z</time>
      </trkpt>
      <trkpt lat="42.91617" lon="0.18765">
        <ele>1622</ele>
        <time>2025-07-22T07:28:48Z</time>
      </trkpt>
      <trkpt lat="42.91614" lon="0.18758">
        <ele>1622.6</ele>
        <time>2025-07-22T07:28:51Z</time>
      </trkpt>
      <trkpt lat="42.91613" lon="0.18748">
        <ele>1623.6</ele>
        <time>2025-07-22T07:28:55Z</time>
      </trkpt>
      <trkpt lat="42.91607" lon="0.18734">
        <ele>1625</ele>
        <time>2025-07-22T07:29:00Z</time>
      </trkpt>
      <trkpt lat="42.91603" lon="0.18727">
        <ele>1625.6</ele>
        <time>2025-07-22T07:29:03Z</time>
      </trkpt>
      <trkpt lat="42.916" lon="0.18722">
        <ele>1626</ele>
        <time>2025-07-22T07:29:05Z</time>
      </trkpt>
      <trkpt lat="42.91591" lon="0.18714">
        <ele>1627</ele>
        <time>2025-07-22T07:29:10Z</time>
      </trkpt>
      <trkpt lat="42.91589" lon="0.18712">
        <ele>1627.2</ele>
        <time>2025-07-22T07:29:11Z</time>
      </trkpt>
      <trkpt lat="42.91581" lon="0.18708">
        <ele>1628.2</ele>
        <time>2025-07-22T07:29:15Z</time>
      </trkpt>
      <trkpt lat="42.91569" lon="0.18704">
        <ele>1629</ele>
        <time>2025-07-22T07:29:21Z</time>
      </trkpt>
      <trkpt lat="42.91565" lon="0.18703">
        <ele>1629.4</ele>
        <time>2025-07-22T07:29:23Z</time>
      </trkpt>
      <trkpt lat="42.91554" lon="0.18706">
        <ele>1630.6</ele>
        <time>2025-07-22T07:29:28Z</time>
      </trkpt>
      <trkpt lat="42.91552" lon="0.18707">
        <ele>1630.8</ele>
        <time>2025-07-22T07:29:29Z</time>
      </trkpt>
      <trkpt lat="42.91542" lon="0.1871">
        <ele>1631.6</ele>
        <time>2025-07-22T07:29:34Z</time>
      </trkpt>
      <trkpt lat="42.91531" lon="0.18712">
        <ele>1633</ele>
        <time>2025-07-22T07:29:39Z</time>
      </trkpt>
      <trkpt lat="42.91523" lon="0.18713">
        <ele>1634.2</ele>
        <time>2025-07-22T07:29:43Z</time>
      </trkpt>
      <trkpt lat="42.91521" lon="0.18713">
        <ele>1634.4</ele>
        <time>2025-07-22T07:29:44Z</time>
      </trkpt>
      <trkpt lat="42.91513" lon="0.18712">
        <ele>1635.4</ele>
        <time>2025-07-22T07:29:48Z</time>
      </trkpt>
      <trkpt lat="42.91511" lon="0.18712">
        <ele>1635.6</ele>
        <time>2025-07-22T07:29:49Z</time>
      </trkpt>
      <trkpt lat="42.91505" lon="0.18709">
        <ele>1636.4</ele>
        <time>2025-07-22T07:29:52Z</time>
      </trkpt>
      <trkpt lat="42.91497" lon="0.18703">
        <ele>1637.4</ele>
        <time>2025-07-22T07:29:57Z</time>
      </trkpt>
      <trkpt lat="42.91495" lon="0.18702">
        <ele>1637.6</ele>
        <time>2025-07-22T07:29:58Z</time>
      </trkpt>
      <trkpt lat="42.91488" lon="0.18696">
        <ele>1638.6</ele>
        <time>2025-07-22T07:30:02Z</time>
      </trkpt>
      <trkpt lat="42.91487" lon="0.18694">
        <ele>1638.6</ele>
        <time>2025-07-22T07:30:03Z</time>
      </trkpt>
      <trkpt lat="42.91481" lon="0.18687">
        <ele>1639.8</ele>
        <time>2025-07-22T07:30:07Z</time>
      </trkpt>
      <trkpt lat="42.91474" lon="0.18682">
        <ele>1640.6</ele>
        <time>2025-07-22T07:30:11Z</time>
      </trkpt>
      <trkpt lat="42.91473" lon="0.1868">
        <ele>1640.8</ele>
        <time>2025-07-22T07:30:12Z</time>
      </trkpt>
      <trkpt lat="42.91466" lon="0.18673">
        <ele>1641.8</ele>
        <time>2025-07-22T07:30:17Z</time>
      </trkpt>
      <trkpt lat="42.91462" lon="0.18671">
        <ele>1642.2</ele>
        <time>2025-07-22T07:30:19Z</time>
      </trkpt>
      <trkpt lat="42.91453" lon="0.18665">
        <ele>1643</ele>
        <time>2025-07-22T07:30:24Z</time>
      </trkpt>
      <trkpt lat="42.91445" lon="0.18661">
        <ele>1644.2</ele>
        <time>2025-07-22T07:30:28Z</time>
      </trkpt>
      <trkpt lat="42.91434" lon="0.18657">
        <ele>1645.4</ele>
        <time>2025-07-22T07:30:33Z</time>
      </trkpt>
      <trkpt lat="42.91428" lon="0.18656">
        <ele>1646</ele>
        <time>2025-07-22T07:30:36Z</time>
      </trkpt>
      <trkpt lat="42.91422" lon="0.18655">
        <ele>1646.4</ele>
        <time>2025-07-22T07:30:39Z</time>
      </trkpt>
      <trkpt lat="42.91415" lon="0.18655">
        <ele>1647.4</ele>
        <time>2025-07-22T07:30:43Z</time>
      </trkpt>
      <trkpt lat="42.91412" lon="0.18654">
        <ele>1647.8</ele>
        <time>2025-07-22T07:30:45Z</time>
      </trkpt>
      <trkpt lat="42.91404" lon="0.18656">
        <ele>1648.6</ele>
        <time>2025-07-22T07:30:49Z</time>
      </trkpt>
      <trkpt lat="42.91399" lon="0.18658">
        <ele>1648.8</ele>
        <time>2025-07-22T07:30:51Z</time>
      </trkpt>
      <trkpt lat="42.91389" lon="0.18661">
        <ele>1649.8</ele>
        <time>2025-07-22T07:30:55Z</time>
      </trkpt>
      <trkpt lat="42.91387" lon="0.18661">
        <ele>1650</ele>
        <time>2025-07-22T07:30:56Z</time>
      </trkpt>
      <trkpt lat="42.91374" lon="0.18666">
        <ele>1651</ele>
        <time>2025-07-22T07:31:02Z</time>
      </trkpt>
      <trkpt lat="42.91371" lon="0.18666">
        <ele>1651.4</ele>
        <time>2025-07-22T07:31:03Z</time>
      </trkpt>
      <trkpt lat="42.91368" lon="0.18666">
        <ele>1651.6</ele>
        <time>2025-07-22T07:31:05Z</time>
      </trkpt>
      <trkpt lat="42.91365" lon="0.18666">
        <ele>1652</ele>
        <time>2025-07-22T07:31:07Z</time>
      </trkpt>
      <trkpt lat="42.91362" lon="0.18665">
        <ele>1652.4</ele>
        <time>2025-07-22T07:31:09Z</time>
      </trkpt>
      <trkpt lat="42.91357" lon="0.18663">
        <ele>1653</ele>
        <time>2025-07-22T07:31:12Z</time>
      </trkpt>
      <trkpt lat="42.91354" lon="0.1866">
        <ele>1653.4</ele>
        <time>2025-07-22T07:31:14Z</time>
      </trkpt>
      <trkpt lat="42.91354" lon="0.18657">
        <ele>1654</ele>
        <time>2025-07-22T07:31:16Z</time>
      </trkpt>
      <trkpt lat="42.91353" lon="0.18655">
        <ele>1654.2</ele>
        <time>2025-07-22T07:31:17Z</time>
      </trkpt>
      <trkpt lat="42.9135" lon="0.18649">
        <ele>1654.8</ele>
        <time>2025-07-22T07:31:20Z</time>
      </trkpt>
      <trkpt lat="42.91347" lon="0.18641">
        <ele>1655.2</ele>
        <time>2025-07-22T07:31:23Z</time>
      </trkpt>
      <trkpt lat="42.91345" lon="0.18629">
        <ele>1655.8</ele>
        <time>2025-07-22T07:31:26Z</time>
      </trkpt>
      <trkpt lat="42.91344" lon="0.18626">
        <ele>1656.2</ele>
        <time>2025-07-22T07:31:27Z</time>
      </trkpt>
      <trkpt lat="42.91342" lon="0.1861">
        <ele>1657.4</ele>
        <time>2025-07-22T07:31:32Z</time>
      </trkpt>
      <trkpt lat="42.91344" lon="0.186">
        <ele>1658</ele>
        <time>2025-07-22T07:31:35Z</time>
      </trkpt>
      <trkpt lat="42.91343" lon="0.18597">
        <ele>1658.4</ele>
        <time>2025-07-22T07:31:36Z</time>
      </trkpt>
      <trkpt lat="42.9134" lon="0.18584">
        <ele>1659.4</ele>
        <time>2025-07-22T07:31:41Z</time>
      </trkpt>
      <trkpt lat="42.91338" lon="0.18573">
        <ele>1660</ele>
        <time>2025-07-22T07:31:45Z</time>
      </trkpt>
      <trkpt lat="42.91336" lon="0.18567">
        <ele>1660.4</ele>
        <time>2025-07-22T07:31:47Z</time>
      </trkpt>
      <trkpt lat="42.91331" lon="0.18554">
        <ele>1661.4</ele>
        <time>2025-07-22T07:31:52Z</time>
      </trkpt>
      <trkpt lat="42.9133" lon="0.18552">
        <ele>1661.6</ele>
        <time>2025-07-22T07:31:53Z</time>
      </trkpt>
      <trkpt lat="42.91327" lon="0.18544">
        <ele>1662.4</ele>
        <time>2025-07-22T07:31:56Z</time>
      </trkpt>
      <trkpt lat="42.91323" lon="0.18535">
        <ele>1663.4</ele>
        <time>2025-07-22T07:32:00Z</time>
      </trkpt>
      <trkpt lat="42.91321" lon="0.18532">
        <ele>1663.6</ele>
        <time>2025-07-22T07:32:01Z</time>
      </trkpt>
      <trkpt lat="42.91316" lon="0.1852">
        <ele>1664.6</ele>
        <time>2025-07-22T07:32:06Z</time>
      </trkpt>
      <trkpt lat="42.91315" lon="0.18517">
        <ele>1664.8</ele>
        <time>2025-07-22T07:32:07Z</time>
      </trkpt>
      <trkpt lat="42.91308" lon="0.18505">
        <ele>1665.8</ele>
        <time>2025-07-22T07:32:12Z</time>
      </trkpt>
      <trkpt lat="42.91304" lon="0.18494">
        <ele>1666.6</ele>
        <time>2025-07-22T07:32:16Z</time>
      </trkpt>
      <trkpt lat="42.91301" lon="0.18489">
        <ele>1667</ele>
        <time>2025-07-22T07:32:18Z</time>
      </trkpt>
      <trkpt lat="42.91293" lon="0.18477">
        <ele>1668.2</ele>
        <time>2025-07-22T07:32:23Z</time>
      </trkpt>
      <trkpt lat="42.9129" lon="0.1847">
        <ele>1668.6</ele>
        <time>2025-07-22T07:32:26Z</time>
      </trkpt>
      <trkpt lat="42.91288" lon="0.18465">
        <ele>1669.2</ele>
        <time>2025-07-22T07:32:28Z</time>
      </trkpt>
      <trkpt lat="42.9128" lon="0.18455">
        <ele>1670.4</ele>
        <time>2025-07-22T07:32:33Z</time>
      </trkpt>
      <trkpt lat="42.91277" lon="0.18451">
        <ele>1671</ele>
        <time>2025-07-22T07:32:35Z</time>
      </trkpt>
      <trkpt lat="42.9127" lon="0.18443">
        <ele>1671.6</ele>
        <time>2025-07-22T07:32:39Z</time>
      </trkpt>
      <trkpt lat="42.91266" lon="0.18438">
        <ele>1672</ele>
        <time>2025-07-22T07:32:42Z</time>
      </trkpt>
      <trkpt lat="42.91257" lon="0.18431">
        <ele>1672.8</ele>
        <time>2025-07-22T07:32:47Z</time>
      </trkpt>
      <trkpt lat="42.91253" lon="0.18429">
        <ele>1673</ele>
        <time>2025-07-22T07:32:49Z</time>
      </trkpt>
      <trkpt lat="42.91242" lon="0.18423">
        <ele>1674.2</ele>
        <time>2025-07-22T07:32:55Z</time>
      </trkpt>
      <trkpt lat="42.91234" lon="0.18418">
        <ele>1675</ele>
        <time>2025-07-22T07:32:59Z</time>
      </trkpt>
      <trkpt lat="42.91231" lon="0.18417">
        <ele>1675.4</ele>
        <time>2025-07-22T07:33:01Z</time>
      </trkpt>
      <trkpt lat="42.9122" lon="0.18414">
        <ele>1676.6</ele>
        <time>2025-07-22T07:33:06Z</time>
      </trkpt>
      <trkpt lat="42.91218" lon="0.18414">
        <ele>1677</ele>
        <time>2025-07-22T07:33:07Z</time>
      </trkpt>
      <trkpt lat="42.91207" lon="0.18412">
        <ele>1677.8</ele>
        <time>2025-07-22T07:33:12Z</time>
      </trkpt>
      <trkpt lat="42.91195" lon="0.18411">
        <ele>1679</ele>
        <time>2025-07-22T07:33:18Z</time>
      </trkpt>
      <trkpt lat="42.91191" lon="0.1841">
        <ele>1679.4</ele>
        <time>2025-07-22T07:33:20Z</time>
      </trkpt>
      <trkpt lat="42.91187" lon="0.18408">
        <ele>1680</ele>
        <time>2025-07-22T07:33:22Z</time>
      </trkpt>
      <trkpt lat="42.91176" lon="0.18402">
        <ele>1681</ele>
        <time>2025-07-22T07:33:27Z</time>
      </trkpt>
      <trkpt lat="42.91173" lon="0.18399">
        <ele>1681.6</ele>
        <time>2025-07-22T07:33:29Z</time>
      </trkpt>
      <trkpt lat="42.91167" lon="0.18392">
        <ele>1682.2</ele>
        <time>2025-07-22T07:33:33Z</time>
      </trkpt>
      <trkpt lat="42.91164" lon="0.18389">
        <ele>1682.6</ele>
        <time>2025-07-22T07:33:35Z</time>
      </trkpt>
      <trkpt lat="42.91158" lon="0.18382">
        <ele>1683.6</ele>
        <time>2025-07-22T07:33:39Z</time>
      </trkpt>
      <trkpt lat="42.91152" lon="0.18375">
        <ele>1684.2</ele>
        <time>2025-07-22T07:33:43Z</time>
      </trkpt>
      <trkpt lat="42.9115" lon="0.18371">
        <ele>1684.6</ele>
        <time>2025-07-22T07:33:45Z</time>
      </trkpt>
      <trkpt lat="42.91144" lon="0.18366">
        <ele>1685.6</ele>
        <time>2025-07-22T07:33:49Z</time>
      </trkpt>
      <trkpt lat="42.91142" lon="0.18364">
        <ele>1686</ele>
        <time>2025-07-22T07:33:50Z</time>
      </trkpt>
      <trkpt lat="42.91137" lon="0.18358">
        <ele>1686.8</ele>
        <time>2025-07-22T07:33:53Z</time>
      </trkpt>
      <trkpt lat="42.91133" lon="0.18349">
        <ele>1687.8</ele>
        <time>2025-07-22T07:33:57Z</time>
      </trkpt>
      <trkpt lat="42.91132" lon="0.18346">
        <ele>1688</ele>
        <time>2025-07-22T07:33:58Z</time>
      </trkpt>
      <trkpt lat="42.91129" lon="0.18336">
        <ele>1689</ele>
        <time>2025-07-22T07:34:02Z</time>
      </trkpt>
      <trkpt lat="42.91126" lon="0.18324">
        <ele>1690.4</ele>
        <time>2025-07-22T07:34:07Z</time>
      </trkpt>
      <trkpt lat="42.91125" lon="0.18321">
        <ele>1690.6</ele>
        <time>2025-07-22T07:34:08Z</time>
      </trkpt>
      <trkpt lat="42.91122" lon="0.18312">
        <ele>1691.4</ele>
        <time>2025-07-22T07:34:12Z</time>
      </trkpt>
      <trkpt lat="42.91118" lon="0.18297">
        <ele>1692.4</ele>
        <time>2025-07-22T07:34:18Z</time>
      </trkpt>
      <trkpt lat="42.91113" lon="0.18281">
        <ele>1693.8</ele>
        <time>2025-07-22T07:34:24Z</time>
      </trkpt>
      <trkpt lat="42.91111" lon="0.18271">
        <ele>1694.8</ele>
        <time>2025-07-22T07:34:28Z</time>
      </trkpt>
      <trkpt lat="42.91108" lon="0.18255">
        <ele>1696.2</ele>
        <time>2025-07-22T07:34:34Z</time>
      </trkpt>
      <trkpt lat="42.91106" lon="0.18248">
        <ele>1697</ele>
        <time>2025-07-22T07:34:37Z</time>
      </trkpt>
      <trkpt lat="42.91105" lon="0.18246">
        <ele>1697</ele>
        <time>2025-07-22T07:34:38Z</time>
      </trkpt>
      <trkpt lat="42.91101" lon="0.18236">
        <ele>1698.4</ele>
        <time>2025-07-22T07:34:42Z</time>
      </trkpt>
      <trkpt lat="42.91096" lon="0.18228">
        <ele>1699.6</ele>
        <time>2025-07-22T07:34:46Z</time>
      </trkpt>
      <trkpt lat="42.91095" lon="0.18226">
        <ele>1700</ele>
        <time>2025-07-22T07:34:47Z</time>
      </trkpt>
      <trkpt lat="42.91089" lon="0.18217">
        <ele>1700.8</ele>
        <time>2025-07-22T07:34:51Z</time>
      </trkpt>
      <trkpt lat="42.91087" lon="0.18213">
        <ele>1701</ele>
        <time>2025-07-22T07:34:53Z</time>
      </trkpt>
      <trkpt lat="42.91086" lon="0.18212">
        <ele>1701.2</ele>
        <time>2025-07-22T07:34:54Z</time>
      </trkpt>
      <trkpt lat="42.9108" lon="0.18205">
        <ele>1701.6</ele>
        <time>2025-07-22T07:34:58Z</time>
      </trkpt>
      <trkpt lat="42.91074" lon="0.18196">
        <ele>1702.6</ele>
        <time>2025-07-22T07:35:02Z</time>
      </trkpt>
      <trkpt lat="42.91071" lon="0.18192">
        <ele>1703</ele>
        <time>2025-07-22T07:35:04Z</time>
      </trkpt>
      <trkpt lat="42.91064" lon="0.1818">
        <ele>1704</ele>
        <time>2025-07-22T07:35:09Z</time>
      </trkpt>
      <trkpt lat="42.91063" lon="0.18177">
        <ele>1704.2</ele>
        <time>2025-07-22T07:35:10Z</time>
      </trkpt>
      <trkpt lat="42.91058" lon="0.18169">
        <ele>1705.2</ele>
        <time>2025-07-22T07:35:14Z</time>
      </trkpt>
      <trkpt lat="42.91053" lon="0.18159">
        <ele>1706.2</ele>
        <time>2025-07-22T07:35:18Z</time>
      </trkpt>
      <trkpt lat="42.9105" lon="0.18153">
        <ele>1706.8</ele>
        <time>2025-07-22T07:35:21Z</time>
      </trkpt>
      <trkpt lat="42.91047" lon="0.18146">
        <ele>1707.2</ele>
        <time>2025-07-22T07:35:24Z</time>
      </trkpt>
      <trkpt lat="42.91043" lon="0.18136">
        <ele>1708</ele>
        <time>2025-07-22T07:35:28Z</time>
      </trkpt>
      <trkpt lat="42.91042" lon="0.18131">
        <ele>1708.4</ele>
        <time>2025-07-22T07:35:30Z</time>
      </trkpt>
      <trkpt lat="42.91037" lon="0.18119">
        <ele>1709.4</ele>
        <time>2025-07-22T07:35:35Z</time>
      </trkpt>
      <trkpt lat="42.91033" lon="0.18103">
        <ele>1710.4</ele>
        <time>2025-07-22T07:35:41Z</time>
      </trkpt>
      <trkpt lat="42.9103" lon="0.18093">
        <ele>1711</ele>
        <time>2025-07-22T07:35:45Z</time>
      </trkpt>
      <trkpt lat="42.91029" lon="0.18087">
        <ele>1711.4</ele>
        <time>2025-07-22T07:35:47Z</time>
      </trkpt>
      <trkpt lat="42.91027" lon="0.18074">
        <ele>1712.4</ele>
        <time>2025-07-22T07:35:52Z</time>
      </trkpt>
      <trkpt lat="42.91025" lon="0.18064">
        <ele>1713.2</ele>
        <time>2025-07-22T07:35:56Z</time>
      </trkpt>
      <trkpt lat="42.91024" lon="0.18056">
        <ele>1713.8</ele>
        <time>2025-07-22T07:35:59Z</time>
      </trkpt>
      <trkpt lat="42.91022" lon="0.18042">
        <ele>1714.8</ele>
        <time>2025-07-22T07:36:04Z</time>
      </trkpt>
      <trkpt lat="42.91022" lon="0.18039">
        <ele>1715</ele>
        <time>2025-07-22T07:36:05Z</time>
      </trkpt>
      <trkpt lat="42.9102" lon="0.18028">
        <ele>1716</ele>
        <time>2025-07-22T07:36:09Z</time>
      </trkpt>
      <trkpt lat="42.91018" lon="0.1802">
        <ele>1716.4</ele>
        <time>2025-07-22T07:36:12Z</time>
      </trkpt>
      <trkpt lat="42.91017" lon="0.18011">
        <ele>1717.2</ele>
        <time>2025-07-22T07:36:15Z</time>
      </trkpt>
      <trkpt lat="42.91014" lon="0.17994">
        <ele>1718.2</ele>
        <time>2025-07-22T07:36:21Z</time>
      </trkpt>
      <trkpt lat="42.91013" lon="0.17991">
        <ele>1718.4</ele>
        <time>2025-07-22T07:36:22Z</time>
      </trkpt>
      <trkpt lat="42.91012" lon="0.17981">
        <ele>1719.4</ele>
        <time>2025-07-22T07:36:26Z</time>
      </trkpt>
      <trkpt lat="42.91011" lon="0.1797">
        <ele>1720</ele>
        <time>2025-07-22T07:36:30Z</time>
      </trkpt>
      <trkpt lat="42.91012" lon="0.17964">
        <ele>1720.4</ele>
        <time>2025-07-22T07:36:32Z</time>
      </trkpt>
      <trkpt lat="42.91014" lon="0.17956">
        <ele>1721.2</ele>
        <time>2025-07-22T07:36:35Z</time>
      </trkpt>
      <trkpt lat="42.91015" lon="0.17953">
        <ele>1721.4</ele>
        <time>2025-07-22T07:36:36Z</time>
      </trkpt>
      <trkpt lat="42.9102" lon="0.17937">
        <ele>1722.4</ele>
        <time>2025-07-22T07:36:42Z</time>
      </trkpt>
      <trkpt lat="42.91021" lon="0.17934">
        <ele>1722.6</ele>
        <time>2025-07-22T07:36:43Z</time>
      </trkpt>
      <trkpt lat="42.91029" lon="0.17924">
        <ele>1723.4</ele>
        <time>2025-07-22T07:36:48Z</time>
      </trkpt>
      <trkpt lat="42.91035" lon="0.1792">
        <ele>1724</ele>
        <time>2025-07-22T07:36:51Z</time>
      </trkpt>
      <trkpt lat="42.91043" lon="0.17918">
        <ele>1724.8</ele>
        <time>2025-07-22T07:36:55Z</time>
      </trkpt>
      <trkpt lat="42.91045" lon="0.17917">
        <ele>1725</ele>
        <time>2025-07-22T07:36:56Z</time>
      </trkpt>
      <trkpt lat="42.91052" lon="0.17913">
        <ele>1726</ele>
        <time>2025-07-22T07:37:00Z</time>
      </trkpt>
      <trkpt lat="42.9106" lon="0.1791">
        <ele>1727</ele>
        <time>2025-07-22T07:37:04Z</time>
      </trkpt>
      <trkpt lat="42.91066" lon="0.17907">
        <ele>1728</ele>
        <time>2025-07-22T07:37:07Z</time>
      </trkpt>
      <trkpt lat="42.91068" lon="0.17906">
        <ele>1728.2</ele>
        <time>2025-07-22T07:37:08Z</time>
      </trkpt>
      <trkpt lat="42.91079" lon="0.17901">
        <ele>1729.2</ele>
        <time>2025-07-22T07:37:13Z</time>
      </trkpt>
      <trkpt lat="42.91087" lon="0.17897">
        <ele>1730.4</ele>
        <time>2025-07-22T07:37:17Z</time>
      </trkpt>
      <trkpt lat="42.91099" lon="0.17887">
        <ele>1731.4</ele>
        <time>2025-07-22T07:37:24Z</time>
      </trkpt>
      <trkpt lat="42.911" lon="0.17885">
        <ele>1731.4</ele>
        <time>2025-07-22T07:37:25Z</time>
      </trkpt>
      <trkpt lat="42.91105" lon="0.17877">
        <ele>1732.4</ele>
        <time>2025-07-22T07:37:29Z</time>
      </trkpt>
      <trkpt lat="42.91108" lon="0.17868">
        <ele>1733</ele>
        <time>2025-07-22T07:37:33Z</time>
      </trkpt>
      <trkpt lat="42.91109" lon="0.17865">
        <ele>1733.4</ele>
        <time>2025-07-22T07:37:34Z</time>
      </trkpt>
      <trkpt lat="42.91112" lon="0.17853">
        <ele>1734.4</ele>
        <time>2025-07-22T07:37:38Z</time>
      </trkpt>
      <trkpt lat="42.91113" lon="0.1785">
        <ele>1734.6</ele>
        <time>2025-07-22T07:37:39Z</time>
      </trkpt>
      <trkpt lat="42.91111" lon="0.17835">
        <ele>1735.2</ele>
        <time>2025-07-22T07:37:43Z</time>
      </trkpt>
      <trkpt lat="42.91111" lon="0.17832">
        <ele>1735.6</ele>
        <time>2025-07-22T07:37:44Z</time>
      </trkpt>
      <trkpt lat="42.91111" lon="0.17829">
        <ele>1735.6</ele>
        <time>2025-07-22T07:37:45Z</time>
      </trkpt>
      <trkpt lat="42.91109" lon="0.17816">
        <ele>1736.2</ele>
        <time>2025-07-22T07:37:49Z</time>
      </trkpt>
      <trkpt lat="42.91109" lon="0.17813">
        <ele>1736.4</ele>
        <time>2025-07-22T07:37:50Z</time>
      </trkpt>
      <trkpt lat="42.91109" lon="0.1781">
        <ele>1736.6</ele>
        <time>2025-07-22T07:37:51Z</time>
      </trkpt>
      <trkpt lat="42.91108" lon="0.17807">
        <ele>1736.8</ele>
        <time>2025-07-22T07:37:52Z</time>
      </trkpt>
      <trkpt lat="42.91106" lon="0.17804">
        <ele>1737</ele>
        <time>2025-07-22T07:37:53Z</time>
      </trkpt>
      <trkpt lat="42.91104" lon="0.17796">
        <ele>1737.6</ele>
        <time>2025-07-22T07:37:56Z</time>
      </trkpt>
      <trkpt lat="42.91105" lon="0.17788">
        <ele>1738.2</ele>
        <time>2025-07-22T07:37:59Z</time>
      </trkpt>
      <trkpt lat="42.91106" lon="0.1778">
        <ele>1738.8</ele>
        <time>2025-07-22T07:38:02Z</time>
      </trkpt>
      <trkpt lat="42.91106" lon="0.17778">
        <ele>1739</ele>
        <time>2025-07-22T07:38:03Z</time>
      </trkpt>
      <trkpt lat="42.91105" lon="0.17772">
        <ele>1739.4</ele>
        <time>2025-07-22T07:38:05Z</time>
      </trkpt>
      <trkpt lat="42.91105" lon="0.17766">
        <ele>1740</ele>
        <time>2025-07-22T07:38:07Z</time>
      </trkpt>
      <trkpt lat="42.91106" lon="0.17758">
        <ele>1740.4</ele>
        <time>2025-07-22T07:38:10Z</time>
      </trkpt>
      <trkpt lat="42.91107" lon="0.17752">
        <ele>1741</ele>
        <time>2025-07-22T07:38:12Z</time>
      </trkpt>
      <trkpt lat="42.91104" lon="0.17738">
        <ele>1742</ele>
        <time>2025-07-22T07:38:17Z</time>
      </trkpt>
      <trkpt lat="42.91103" lon="0.17735">
        <ele>1742</ele>
        <time>2025-07-22T07:38:18Z</time>
      </trkpt>
      <trkpt lat="42.91101" lon="0.17723">
        <ele>1743</ele>
        <time>2025-07-22T07:38:22Z</time>
      </trkpt>
      <trkpt lat="42.91101" lon="0.17718">
        <ele>1743.2</ele>
        <time>2025-07-22T07:38:24Z</time>
      </trkpt>
      <trkpt lat="42.91096" lon="0.17703">
        <ele>1744</ele>
        <time>2025-07-22T07:38:30Z</time>
      </trkpt>
      <trkpt lat="42.91093" lon="0.17693">
        <ele>1745</ele>
        <time>2025-07-22T07:38:34Z</time>
      </trkpt>
      <trkpt lat="42.91089" lon="0.1768">
        <ele>1746</ele>
        <time>2025-07-22T07:38:39Z</time>
      </trkpt>
      <trkpt lat="42.91087" lon="0.17678">
        <ele>1746.2</ele>
        <time>2025-07-22T07:38:40Z</time>
      </trkpt>
      <trkpt lat="42.91083" lon="0.17665">
        <ele>1747.2</ele>
        <time>2025-07-22T07:38:45Z</time>
      </trkpt>
      <trkpt lat="42.91081" lon="0.17657">
        <ele>1747.8</ele>
        <time>2025-07-22T07:38:48Z</time>
      </trkpt>
      <trkpt lat="42.9108" lon="0.17654">
        <ele>1748.2</ele>
        <time>2025-07-22T07:38:49Z</time>
      </trkpt>
      <trkpt lat="42.91074" lon="0.17641">
        <ele>1749</ele>
        <time>2025-07-22T07:38:54Z</time>
      </trkpt>
      <trkpt lat="42.91073" lon="0.17635">
        <ele>1749.4</ele>
        <time>2025-07-22T07:38:56Z</time>
      </trkpt>
      <trkpt lat="42.91068" lon="0.17619">
        <ele>1750.6</ele>
        <time>2025-07-22T07:39:02Z</time>
      </trkpt>
      <trkpt lat="42.91067" lon="0.17616">
        <ele>1751</ele>
        <time>2025-07-22T07:39:03Z</time>
      </trkpt>
      <trkpt lat="42.91065" lon="0.17604">
        <ele>1751.8</ele>
        <time>2025-07-22T07:39:07Z</time>
      </trkpt>
      <trkpt lat="42.91063" lon="0.17596">
        <ele>1752.4</ele>
        <time>2025-07-22T07:39:10Z</time>
      </trkpt>
      <trkpt lat="42.91063" lon="0.17591">
        <ele>1752.8</ele>
        <time>2025-07-22T07:39:12Z</time>
      </trkpt>
      <trkpt lat="42.91062" lon="0.1758">
        <ele>1753.6</ele>
        <time>2025-07-22T07:39:16Z</time>
      </trkpt>
      <trkpt lat="42.91062" lon="0.17575">
        <ele>1754.4</ele>
        <time>2025-07-22T07:39:18Z</time>
      </trkpt>
      <trkpt lat="42.91061" lon="0.17569">
        <ele>1754.8</ele>
        <time>2025-07-22T07:39:20Z</time>
      </trkpt>
      <trkpt lat="42.91061" lon="0.17553">
        <ele>1755.8</ele>
        <time>2025-07-22T07:39:26Z</time>
      </trkpt>
      <trkpt lat="42.91061" lon="0.17549">
        <ele>1756.4</ele>
        <time>2025-07-22T07:39:28Z</time>
      </trkpt>
      <trkpt lat="42.91061" lon="0.17546">
        <ele>1756.6</ele>
        <time>2025-07-22T07:39:29Z</time>
      </trkpt>
      <trkpt lat="42.91061" lon="0.17541">
        <ele>1757</ele>
        <time>2025-07-22T07:39:31Z</time>
      </trkpt>
      <trkpt lat="42.91062" lon="0.17536">
        <ele>1757.2</ele>
        <time>2025-07-22T07:39:33Z</time>
      </trkpt>
      <trkpt lat="42.91062" lon="0.17533">
        <ele>1757.4</ele>
        <time>2025-07-22T07:39:34Z</time>
      </trkpt>
      <trkpt lat="42.91063" lon="0.17527">
        <ele>1758</ele>
        <time>2025-07-22T07:39:36Z</time>
      </trkpt>
      <trkpt lat="42.91062" lon="0.17517">
        <ele>1758.8</ele>
        <time>2025-07-22T07:39:39Z</time>
      </trkpt>
      <trkpt lat="42.91062" lon="0.17506">
        <ele>1759.2</ele>
        <time>2025-07-22T07:39:43Z</time>
      </trkpt>
      <trkpt lat="42.91061" lon="0.17488">
        <ele>1760.4</ele>
        <time>2025-07-22T07:39:49Z</time>
      </trkpt>
      <trkpt lat="42.91061" lon="0.17474">
        <ele>1761.6</ele>
        <time>2025-07-22T07:39:54Z</time>
      </trkpt>
      <trkpt lat="42.91062" lon="0.17463">
        <ele>1762.2</ele>
        <time>2025-07-22T07:39:58Z</time>
      </trkpt>
      <trkpt lat="42.91062" lon="0.17458">
        <ele>1762.4</ele>
        <time>2025-07-22T07:40:00Z</time>
      </trkpt>
      <trkpt lat="42.91062" lon="0.17446">
        <ele>1763.4</ele>
        <time>2025-07-22T07:40:04Z</time>
      </trkpt>
      <trkpt lat="42.91062" lon="0.17441">
        <ele>1763.8</ele>
        <time>2025-07-22T07:40:06Z</time>
      </trkpt>
      <trkpt lat="42.91061" lon="0.17431">
        <ele>1764.6</ele>
        <time>2025-07-22T07:40:10Z</time>
      </trkpt>
      <trkpt lat="42.91059" lon="0.17419">
        <ele>1765.2</ele>
        <time>2025-07-22T07:40:14Z</time>
      </trkpt>
      <trkpt lat="42.91058" lon="0.17414">
        <ele>1765.8</ele>
        <time>2025-07-22T07:40:16Z</time>
      </trkpt>
      <trkpt lat="42.91054" lon="0.17397">
        <ele>1766.6</ele>
        <time>2025-07-22T07:40:22Z</time>
      </trkpt>
      <trkpt lat="42.91053" lon="0.17392">
        <ele>1767</ele>
        <time>2025-07-22T07:40:24Z</time>
      </trkpt>
      <trkpt lat="42.91049" lon="0.17378">
        <ele>1767.6</ele>
        <time>2025-07-22T07:40:29Z</time>
      </trkpt>
      <trkpt lat="42.91047" lon="0.17372">
        <ele>1768</ele>
        <time>2025-07-22T07:40:31Z</time>
      </trkpt>
      <trkpt lat="42.91046" lon="0.17367">
        <ele>1768.8</ele>
        <time>2025-07-22T07:40:33Z</time>
      </trkpt>
      <trkpt lat="42.9104" lon="0.17354">
        <ele>1769.4</ele>
        <time>2025-07-22T07:40:38Z</time>
      </trkpt>
      <trkpt lat="42.91038" lon="0.17346">
        <ele>1769.8</ele>
        <time>2025-07-22T07:40:41Z</time>
      </trkpt>
      <trkpt lat="42.91035" lon="0.17335">
        <ele>1770.8</ele>
        <time>2025-07-22T07:40:45Z</time>
      </trkpt>
      <trkpt lat="42.91029" lon="0.17319">
        <ele>1771.8</ele>
        <time>2025-07-22T07:40:51Z</time>
      </trkpt>
      <trkpt lat="42.91029" lon="0.17313">
        <ele>1772.2</ele>
        <time>2025-07-22T07:40:53Z</time>
      </trkpt>
      <trkpt lat="42.91029" lon="0.17306">
        <ele>1772.8</ele>
        <time>2025-07-22T07:40:55Z</time>
      </trkpt>
      <trkpt lat="42.9103" lon="0.17289">
        <ele>1774.2</ele>
        <time>2025-07-22T07:41:01Z</time>
      </trkpt>
      <trkpt lat="42.9103" lon="0.17286">
        <ele>1774.6</ele>
        <time>2025-07-22T07:41:02Z</time>
      </trkpt>
      <trkpt lat="42.9103" lon="0.17276">
        <ele>1775.4</ele>
        <time>2025-07-22T07:41:06Z</time>
      </trkpt>
      <trkpt lat="42.91031" lon="0.17262">
        <ele>1776.2</ele>
        <time>2025-07-22T07:41:11Z</time>
      </trkpt>
      <trkpt lat="42.91031" lon="0.17256">
        <ele>1776.6</ele>
        <time>2025-07-22T07:41:13Z</time>
      </trkpt>
      <trkpt lat="42.91033" lon="0.17244">
        <ele>1777.6</ele>
        <time>2025-07-22T07:41:17Z</time>
      </trkpt>
      <trkpt lat="42.91033" lon="0.17227">
        <ele>1778.6</ele>
        <time>2025-07-22T07:41:23Z</time>
      </trkpt>
      <trkpt lat="42.91033" lon="0.17212">
        <ele>1779.8</ele>
        <time>2025-07-22T07:41:28Z</time>
      </trkpt>
      <trkpt lat="42.91033" lon="0.17199">
        <ele>1780.4</ele>
        <time>2025-07-22T07:41:32Z</time>
      </trkpt>
      <trkpt lat="42.91033" lon="0.17194">
        <ele>1780.8</ele>
        <time>2025-07-22T07:41:34Z</time>
      </trkpt>
      <trkpt lat="42.91034" lon="0.17171">
        <ele>1781.8</ele>
        <time>2025-07-22T07:41:42Z</time>
      </trkpt>
      <trkpt lat="42.91034" lon="0.17168">
        <ele>1782</ele>
        <time>2025-07-22T07:41:43Z</time>
      </trkpt>
      <trkpt lat="42.91034" lon="0.17157">
        <ele>1782.8</ele>
        <time>2025-07-22T07:41:47Z</time>
      </trkpt>
      <trkpt lat="42.91034" lon="0.17145">
        <ele>1783.8</ele>
        <time>2025-07-22T07:41:51Z</time>
      </trkpt>
      <trkpt lat="42.91034" lon="0.17142">
        <ele>1783.8</ele>
        <time>2025-07-22T07:41:52Z</time>
      </trkpt>
      <trkpt lat="42.91034" lon="0.17119">
        <ele>1785.2</ele>
        <time>2025-07-22T07:42:00Z</time>
      </trkpt>
      <trkpt lat="42.91037" lon="0.17106">
        <ele>1786.2</ele>
        <time>2025-07-22T07:42:05Z</time>
      </trkpt>
      <trkpt lat="42.91037" lon="0.17103">
        <ele>1786.2</ele>
        <time>2025-07-22T07:42:06Z</time>
      </trkpt>
      <trkpt lat="42.91037" lon="0.1709">
        <ele>1787.2</ele>
        <time>2025-07-22T07:42:11Z</time>
      </trkpt>
      <trkpt lat="42.91036" lon="0.17082">
        <ele>1787.8</ele>
        <time>2025-07-22T07:42:14Z</time>
      </trkpt>
      <trkpt lat="42.91035" lon="0.17076">
        <ele>1788.4</ele>
        <time>2025-07-22T07:42:16Z</time>
      </trkpt>
      <trkpt lat="42.91035" lon="0.1706">
        <ele>1789.4</ele>
        <time>2025-07-22T07:42:21Z</time>
      </trkpt>
      <trkpt lat="42.91035" lon="0.17057">
        <ele>1789.6</ele>
        <time>2025-07-22T07:42:22Z</time>
      </trkpt>
      <trkpt lat="42.91034" lon="0.1704">
        <ele>1790.6</ele>
        <time>2025-07-22T07:42:28Z</time>
      </trkpt>
      <trkpt lat="42.91034" lon="0.17034">
        <ele>1791</ele>
        <time>2025-07-22T07:42:30Z</time>
      </trkpt>
      <trkpt lat="42.91033" lon="0.17025">
        <ele>1791.6</ele>
        <time>2025-07-22T07:42:33Z</time>
      </trkpt>
      <trkpt lat="42.91032" lon="0.17013">
        <ele>1792.6</ele>
        <time>2025-07-22T07:42:37Z</time>
      </trkpt>
      <trkpt lat="42.91031" lon="0.17006">
        <ele>1793</ele>
        <time>2025-07-22T07:42:39Z</time>
      </trkpt>
      <trkpt lat="42.91029" lon="0.16995">
        <ele>1793.8</ele>
        <time>2025-07-22T07:42:43Z</time>
      </trkpt>
      <trkpt lat="42.91029" lon="0.16983">
        <ele>1794.6</ele>
        <time>2025-07-22T07:42:47Z</time>
      </trkpt>
      <trkpt lat="42.91029" lon="0.1698">
        <ele>1795.2</ele>
        <time>2025-07-22T07:42:48Z</time>
      </trkpt>
      <trkpt lat="42.91027" lon="0.16965">
        <ele>1796.2</ele>
        <time>2025-07-22T07:42:53Z</time>
      </trkpt>
      <trkpt lat="42.91027" lon="0.1696">
        <ele>1796.6</ele>
        <time>2025-07-22T07:42:55Z</time>
      </trkpt>
      <trkpt lat="42.91024" lon="0.16948">
        <ele>1797.2</ele>
        <time>2025-07-22T07:42:59Z</time>
      </trkpt>
      <trkpt lat="42.91024" lon="0.16942">
        <ele>1797.8</ele>
        <time>2025-07-22T07:43:01Z</time>
      </trkpt>
      <trkpt lat="42.91021" lon="0.16934">
        <ele>1798.2</ele>
        <time>2025-07-22T07:43:04Z</time>
      </trkpt>
      <trkpt lat="42.91016" lon="0.1692">
        <ele>1799.2</ele>
        <time>2025-07-22T07:43:09Z</time>
      </trkpt>
      <trkpt lat="42.91015" lon="0.16918">
        <ele>1799.4</ele>
        <time>2025-07-22T07:43:10Z</time>
      </trkpt>
      <trkpt lat="42.91011" lon="0.16906">
        <ele>1800.4</ele>
        <time>2025-07-22T07:43:15Z</time>
      </trkpt>
      <trkpt lat="42.91006" lon="0.16895">
        <ele>1801.2</ele>
        <time>2025-07-22T07:43:20Z</time>
      </trkpt>
      <trkpt lat="42.91005" lon="0.16892">
        <ele>1801.6</ele>
        <time>2025-07-22T07:43:21Z</time>
      </trkpt>
      <trkpt lat="42.91" lon="0.1688">
        <ele>1802.8</ele>
        <time>2025-07-22T07:43:26Z</time>
      </trkpt>
      <trkpt lat="42.90996" lon="0.1687">
        <ele>1803.4</ele>
        <time>2025-07-22T07:43:30Z</time>
      </trkpt>
      <trkpt lat="42.90994" lon="0.16865">
        <ele>1803.8</ele>
        <time>2025-07-22T07:43:32Z</time>
      </trkpt>
      <trkpt lat="42.90989" lon="0.1685">
        <ele>1804.8</ele>
        <time>2025-07-22T07:43:38Z</time>
      </trkpt>
      <trkpt lat="42.90987" lon="0.16837">
        <ele>1805.8</ele>
        <time>2025-07-22T07:43:43Z</time>
      </trkpt>
      <trkpt lat="42.90986" lon="0.16832">
        <ele>1806</ele>
        <time>2025-07-22T07:43:45Z</time>
      </trkpt>
      <trkpt lat="42.90984" lon="0.16821">
        <ele>1806.8</ele>
        <time>2025-07-22T07:43:49Z</time>
      </trkpt>
      <trkpt lat="42.90983" lon="0.16816">
        <ele>1807.2</ele>
        <time>2025-07-22T07:43:51Z</time>
      </trkpt>
      <trkpt lat="42.9098" lon="0.1681">
        <ele>1807.8</ele>
        <time>2025-07-22T07:43:54Z</time>
      </trkpt>
      <trkpt lat="42.90974" lon="0.168">
        <ele>1809</ele>
        <time>2025-07-22T07:43:58Z</time>
      </trkpt>
      <trkpt lat="42.90967" lon="0.16789">
        <ele>1810</ele>
        <time>2025-07-22T07:44:03Z</time>
      </trkpt>
      <trkpt lat="42.90958" lon="0.16772">
        <ele>1811.2</ele>
        <time>2025-07-22T07:44:10Z</time>
      </trkpt>
      <trkpt lat="42.90955" lon="0.16762">
        <ele>1812.2</ele>
        <time>2025-07-22T07:44:14Z</time>
      </trkpt>
      <trkpt lat="42.90952" lon="0.16754">
        <ele>1813.2</ele>
        <time>2025-07-22T07:44:17Z</time>
      </trkpt>
      <trkpt lat="42.90952" lon="0.16751">
        <ele>1813.4</ele>
        <time>2025-07-22T07:44:18Z</time>
      </trkpt>
      <trkpt lat="42.90949" lon="0.16738">
        <ele>1814.2</ele>
        <time>2025-07-22T07:44:23Z</time>
      </trkpt>
      <trkpt lat="42.90947" lon="0.16718">
        <ele>1815.2</ele>
        <time>2025-07-22T07:44:30Z</time>
      </trkpt>
      <trkpt lat="42.90947" lon="0.16715">
        <ele>1815.2</ele>
        <time>2025-07-22T07:44:31Z</time>
      </trkpt>
      <trkpt lat="42.90947" lon="0.16704">
        <ele>1816.2</ele>
        <time>2025-07-22T07:44:35Z</time>
      </trkpt>
      <trkpt lat="42.90947" lon="0.16693">
        <ele>1817.2</ele>
        <time>2025-07-22T07:44:39Z</time>
      </trkpt>
      <trkpt lat="42.90947" lon="0.1669">
        <ele>1817.4</ele>
        <time>2025-07-22T07:44:40Z</time>
      </trkpt>
      <trkpt lat="42.90947" lon="0.16679">
        <ele>1818.4</ele>
        <time>2025-07-22T07:44:44Z</time>
      </trkpt>
      <trkpt lat="42.90947" lon="0.16668">
        <ele>1819.2</ele>
        <time>2025-07-22T07:44:48Z</time>
      </trkpt>
      <trkpt lat="42.90948" lon="0.16659">
        <ele>1819.6</ele>
        <time>2025-07-22T07:44:51Z</time>
      </trkpt>
      <trkpt lat="42.90948" lon="0.16644">
        <ele>1820.8</ele>
        <time>2025-07-22T07:44:56Z</time>
      </trkpt>
      <trkpt lat="42.90948" lon="0.16641">
        <ele>1820.8</ele>
        <time>2025-07-22T07:44:57Z</time>
      </trkpt>
      <trkpt lat="42.90948" lon="0.16631">
        <ele>1821.8</ele>
        <time>2025-07-22T07:45:01Z</time>
      </trkpt>
      <trkpt lat="42.90948" lon="0.16614">
        <ele>1822.8</ele>
        <time>2025-07-22T07:45:07Z</time>
      </trkpt>
      <trkpt lat="42.90948" lon="0.16611">
        <ele>1823</ele>
        <time>2025-07-22T07:45:08Z</time>
      </trkpt>
      <trkpt lat="42.90949" lon="0.16602">
        <ele>1823.8</ele>
        <time>2025-07-22T07:45:11Z</time>
      </trkpt>
      <trkpt lat="42.90951" lon="0.16585">
        <ele>1824.8</ele>
        <time>2025-07-22T07:45:17Z</time>
      </trkpt>
      <trkpt lat="42.90952" lon="0.16579">
        <ele>1825.2</ele>
        <time>2025-07-22T07:45:19Z</time>
      </trkpt>
      <trkpt lat="42.90954" lon="0.16567">
        <ele>1826</ele>
        <time>2025-07-22T07:45:23Z</time>
      </trkpt>
      <trkpt lat="42.90954" lon="0.16556">
        <ele>1826.8</ele>
        <time>2025-07-22T07:45:27Z</time>
      </trkpt>
      <trkpt lat="42.90955" lon="0.16551">
        <ele>1827.2</ele>
        <time>2025-07-22T07:45:29Z</time>
      </trkpt>
      <trkpt lat="42.90958" lon="0.16537">
        <ele>1828.4</ele>
        <time>2025-07-22T07:45:34Z</time>
      </trkpt>
      <trkpt lat="42.90958" lon="0.16529">
        <ele>1828.8</ele>
        <time>2025-07-22T07:45:37Z</time>
      </trkpt>
      <trkpt lat="42.90959" lon="0.16518">
        <ele>1829.6</ele>
        <time>2025-07-22T07:45:41Z</time>
      </trkpt>
      <trkpt lat="42.90961" lon="0.16501">
        <ele>1830.6</ele>
        <time>2025-07-22T07:45:47Z</time>
      </trkpt>
      <trkpt lat="42.90961" lon="0.16496">
        <ele>1831</ele>
        <time>2025-07-22T07:45:49Z</time>
      </trkpt>
      <trkpt lat="42.90962" lon="0.16487">
        <ele>1831.8</ele>
        <time>2025-07-22T07:45:52Z</time>
      </trkpt>
      <trkpt lat="42.90965" lon="0.1647">
        <ele>1832.8</ele>
        <time>2025-07-22T07:45:58Z</time>
      </trkpt>
      <trkpt lat="42.90965" lon="0.16467">
        <ele>1833.2</ele>
        <time>2025-07-22T07:45:59Z</time>
      </trkpt>
      <trkpt lat="42.90968" lon="0.16452">
        <ele>1834.2</ele>
        <time>2025-07-22T07:46:04Z</time>
      </trkpt>
      <trkpt lat="42.90969" lon="0.16444">
        <ele>1834.6</ele>
        <time>2025-07-22T07:46:07Z</time>
      </trkpt>
      <trkpt lat="42.9097" lon="0.16435">
        <ele>1835.4</ele>
        <time>2025-07-22T07:46:10Z</time>
      </trkpt>
      <trkpt lat="42.90969" lon="0.16421">
        <ele>1836.4</ele>
        <time>2025-07-22T07:46:15Z</time>
      </trkpt>
      <trkpt lat="42.90968" lon="0.16418">
        <ele>1836.6</ele>
        <time>2025-07-22T07:46:16Z</time>
      </trkpt>
      <trkpt lat="42.90966" lon="0.16402">
        <ele>1837.6</ele>
        <time>2025-07-22T07:46:22Z</time>
      </trkpt>
      <trkpt lat="42.90963" lon="0.16391">
        <ele>1838.4</ele>
        <time>2025-07-22T07:46:26Z</time>
      </trkpt>
      <trkpt lat="42.90962" lon="0.16388">
        <ele>1838.6</ele>
        <time>2025-07-22T07:46:27Z</time>
      </trkpt>
      <trkpt lat="42.9096" lon="0.16378">
        <ele>1839.8</ele>
        <time>2025-07-22T07:46:31Z</time>
      </trkpt>
      <trkpt lat="42.90957" lon="0.16364">
        <ele>1840.8</ele>
        <time>2025-07-22T07:46:36Z</time>
      </trkpt>
      <trkpt lat="42.90956" lon="0.16358">
        <ele>1841.2</ele>
        <time>2025-07-22T07:46:38Z</time>
      </trkpt>
      <trkpt lat="42.90956" lon="0.16347">
        <ele>1841.8</ele>
        <time>2025-07-22T07:46:42Z</time>
      </trkpt>
      <trkpt lat="42.90954" lon="0.16331">
        <ele>1842.8</ele>
        <time>2025-07-22T07:46:48Z</time>
      </trkpt>
      <trkpt lat="42.90954" lon="0.16328">
        <ele>1843</ele>
        <time>2025-07-22T07:46:49Z</time>
      </trkpt>
      <trkpt lat="42.90951" lon="0.16314">
        <ele>1844</ele>
        <time>2025-07-22T07:46:54Z</time>
      </trkpt>
      <trkpt lat="42.90949" lon="0.16301">
        <ele>1844.8</ele>
        <time>2025-07-22T07:46:59Z</time>
      </trkpt>
      <trkpt lat="42.90947" lon="0.16296">
        <ele>1845.2</ele>
        <time>2025-07-22T07:47:01Z</time>
      </trkpt>
      <trkpt lat="42.90943" lon="0.16283">
        <ele>1846.4</ele>
        <time>2025-07-22T07:47:06Z</time>
      </trkpt>
      <trkpt lat="42.90942" lon="0.16281">
        <ele>1846.4</ele>
        <time>2025-07-22T07:47:07Z</time>
      </trkpt>
      <trkpt lat="42.90935" lon="0.16266">
        <ele>1847.6</ele>
        <time>2025-07-22T07:47:13Z</time>
      </trkpt>
      <trkpt lat="42.90931" lon="0.16262">
        <ele>1848</ele>
        <time>2025-07-22T07:47:15Z</time>
      </trkpt>
      <trkpt lat="42.90928" lon="0.16256">
        <ele>1848.6</ele>
        <time>2025-07-22T07:47:18Z</time>
      </trkpt>
      <trkpt lat="42.90923" lon="0.16247">
        <ele>1849.6</ele>
        <time>2025-07-22T07:47:22Z</time>
      </trkpt>
      <trkpt lat="42.90922" lon="0.16244">
        <ele>1849.8</ele>
        <time>2025-07-22T07:47:23Z</time>
      </trkpt>
      <trkpt lat="42.90917" lon="0.16232">
        <ele>1851</ele>
        <time>2025-07-22T07:47:28Z</time>
      </trkpt>
      <trkpt lat="42.90912" lon="0.16219">
        <ele>1851.8</ele>
        <time>2025-07-22T07:47:33Z</time>
      </trkpt>
      <trkpt lat="42.90911" lon="0.16216">
        <ele>1852</ele>
        <time>2025-07-22T07:47:34Z</time>
      </trkpt>
      <trkpt lat="42.90905" lon="0.16201">
        <ele>1853.2</ele>
        <time>2025-07-22T07:47:40Z</time>
      </trkpt>
      <trkpt lat="42.90903" lon="0.16194">
        <ele>1853.6</ele>
        <time>2025-07-22T07:47:43Z</time>
      </trkpt>
      <trkpt lat="42.90902" lon="0.16189">
        <ele>1854.4</ele>
        <time>2025-07-22T07:47:45Z</time>
      </trkpt>
      <trkpt lat="42.90899" lon="0.1618">
        <ele>1855.2</ele>
        <time>2025-07-22T07:47:49Z</time>
      </trkpt>
      <trkpt lat="42.90898" lon="0.16178">
        <ele>1855.4</ele>
        <time>2025-07-22T07:47:50Z</time>
      </trkpt>
      <trkpt lat="42.90895" lon="0.16168">
        <ele>1856.2</ele>
        <time>2025-07-22T07:47:54Z</time>
      </trkpt>
      <trkpt lat="42.90894" lon="0.16165">
        <ele>1856.4</ele>
        <time>2025-07-22T07:47:55Z</time>
      </trkpt>
      <trkpt lat="42.90892" lon="0.16155">
        <ele>1857.4</ele>
        <time>2025-07-22T07:47:59Z</time>
      </trkpt>
      <trkpt lat="42.9089" lon="0.16145">
        <ele>1858.4</ele>
        <time>2025-07-22T07:48:03Z</time>
      </trkpt>
      <trkpt lat="42.90889" lon="0.16142">
        <ele>1858.6</ele>
        <time>2025-07-22T07:48:04Z</time>
      </trkpt>
      <trkpt lat="42.90884" lon="0.16122">
        <ele>1859.4</ele>
        <time>2025-07-22T07:48:12Z</time>
      </trkpt>
      <trkpt lat="42.90883" lon="0.1612">
        <ele>1859.6</ele>
        <time>2025-07-22T07:48:13Z</time>
      </trkpt>
      <trkpt lat="42.9088" lon="0.16101">
        <ele>1860.8</ele>
        <time>2025-07-22T07:48:20Z</time>
      </trkpt>
      <trkpt lat="42.90876" lon="0.16087">
        <ele>1861.6</ele>
        <time>2025-07-22T07:48:25Z</time>
      </trkpt>
      <trkpt lat="42.90876" lon="0.16084">
        <ele>1862</ele>
        <time>2025-07-22T07:48:26Z</time>
      </trkpt>
      <trkpt lat="42.90872" lon="0.16065">
        <ele>1863.2</ele>
        <time>2025-07-22T07:48:33Z</time>
      </trkpt>
      <trkpt lat="42.9087" lon="0.16051">
        <ele>1864</ele>
        <time>2025-07-22T07:48:38Z</time>
      </trkpt>
      <trkpt lat="42.90869" lon="0.16045">
        <ele>1864.6</ele>
        <time>2025-07-22T07:48:40Z</time>
      </trkpt>
      <trkpt lat="42.90864" lon="0.16026">
        <ele>1865.6</ele>
        <time>2025-07-22T07:48:47Z</time>
      </trkpt>
      <trkpt lat="42.90863" lon="0.16023">
        <ele>1865.8</ele>
        <time>2025-07-22T07:48:48Z</time>
      </trkpt>
      <trkpt lat="42.9086" lon="0.1601">
        <ele>1866.6</ele>
        <time>2025-07-22T07:48:53Z</time>
      </trkpt>
      <trkpt lat="42.90859" lon="0.16003">
        <ele>1867.4</ele>
        <time>2025-07-22T07:48:56Z</time>
      </trkpt>
      <trkpt lat="42.90858" lon="0.15997">
        <ele>1867.8</ele>
        <time>2025-07-22T07:48:58Z</time>
      </trkpt>
      <trkpt lat="42.90857" lon="0.1598">
        <ele>1869</ele>
        <time>2025-07-22T07:49:04Z</time>
      </trkpt>
      <trkpt lat="42.90856" lon="0.15974">
        <ele>1869.4</ele>
        <time>2025-07-22T07:49:06Z</time>
      </trkpt>
      <trkpt lat="42.90851" lon="0.1596">
        <ele>1870.4</ele>
        <time>2025-07-22T07:49:11Z</time>
      </trkpt>
      <trkpt lat="42.90848" lon="0.15952">
        <ele>1871.2</ele>
        <time>2025-07-22T07:49:14Z</time>
      </trkpt>
      <trkpt lat="42.90846" lon="0.15946">
        <ele>1871.4</ele>
        <time>2025-07-22T07:49:16Z</time>
      </trkpt>
      <trkpt lat="42.90839" lon="0.15929">
        <ele>1872.6</ele>
        <time>2025-07-22T07:49:23Z</time>
      </trkpt>
      <trkpt lat="42.90838" lon="0.15925">
        <ele>1873</ele>
        <time>2025-07-22T07:49:25Z</time>
      </trkpt>
      <trkpt lat="42.90833" lon="0.15912">
        <ele>1873.8</ele>
        <time>2025-07-22T07:49:30Z</time>
      </trkpt>
      <trkpt lat="42.90831" lon="0.1591">
        <ele>1874.2</ele>
        <time>2025-07-22T07:49:31Z</time>
      </trkpt>
      <trkpt lat="42.90827" lon="0.15905">
        <ele>1874.6</ele>
        <time>2025-07-22T07:49:34Z</time>
      </trkpt>
      <trkpt lat="42.90818" lon="0.15893">
        <ele>1875.8</ele>
        <time>2025-07-22T07:49:40Z</time>
      </trkpt>
      <trkpt lat="42.90812" lon="0.15885">
        <ele>1876.2</ele>
        <time>2025-07-22T07:49:44Z</time>
      </trkpt>
      <trkpt lat="42.90805" lon="0.15876">
        <ele>1876.8</ele>
        <time>2025-07-22T07:49:49Z</time>
      </trkpt>
      <trkpt lat="42.90801" lon="0.15871">
        <ele>1877.2</ele>
        <time>2025-07-22T07:49:52Z</time>
      </trkpt>
      <trkpt lat="42.90795" lon="0.15864">
        <ele>1877.8</ele>
        <time>2025-07-22T07:49:56Z</time>
      </trkpt>
      <trkpt lat="42.90788" lon="0.15856">
        <ele>1878.6</ele>
        <time>2025-07-22T07:50:00Z</time>
      </trkpt>
      <trkpt lat="42.90784" lon="0.15852">
        <ele>1879</ele>
        <time>2025-07-22T07:50:02Z</time>
      </trkpt>
      <trkpt lat="42.90779" lon="0.15843">
        <ele>1879.8</ele>
        <time>2025-07-22T07:50:06Z</time>
      </trkpt>
      <trkpt lat="42.90777" lon="0.15838">
        <ele>1880</ele>
        <time>2025-07-22T07:50:08Z</time>
      </trkpt>
      <trkpt lat="42.90772" lon="0.15829">
        <ele>1881</ele>
        <time>2025-07-22T07:50:12Z</time>
      </trkpt>
      <trkpt lat="42.9077" lon="0.15824">
        <ele>1881.6</ele>
        <time>2025-07-22T07:50:14Z</time>
      </trkpt>
      <trkpt lat="42.90768" lon="0.15821">
        <ele>1881.6</ele>
        <time>2025-07-22T07:50:15Z</time>
      </trkpt>
      <trkpt lat="42.90765" lon="0.15817">
        <ele>1882</ele>
        <time>2025-07-22T07:50:17Z</time>
      </trkpt>
      <trkpt lat="42.90759" lon="0.15809">
        <ele>1883.2</ele>
        <time>2025-07-22T07:50:21Z</time>
      </trkpt>
      <trkpt lat="42.90752" lon="0.15798">
        <ele>1884.2</ele>
        <time>2025-07-22T07:50:26Z</time>
      </trkpt>
      <trkpt lat="42.90746" lon="0.15786">
        <ele>1885.2</ele>
        <time>2025-07-22T07:50:31Z</time>
      </trkpt>
      <trkpt lat="42.9074" lon="0.15773">
        <ele>1886.4</ele>
        <time>2025-07-22T07:50:36Z</time>
      </trkpt>
      <trkpt lat="42.90737" lon="0.15761">
        <ele>1887.8</ele>
        <time>2025-07-22T07:50:40Z</time>
      </trkpt>
      <trkpt lat="42.90733" lon="0.15748">
        <ele>1888.8</ele>
        <time>2025-07-22T07:50:45Z</time>
      </trkpt>
      <trkpt lat="42.90729" lon="0.15735">
        <ele>1889.8</ele>
        <time>2025-07-22T07:50:50Z</time>
      </trkpt>
      <trkpt lat="42.90723" lon="0.15727">
        <ele>1891</ele>
        <time>2025-07-22T07:50:54Z</time>
      </trkpt>
      <trkpt lat="42.90718" lon="0.15721">
        <ele>1891.6</ele>
        <time>2025-07-22T07:50:57Z</time>
      </trkpt>
      <trkpt lat="42.90712" lon="0.15711">
        <ele>1892</ele>
        <time>2025-07-22T07:51:01Z</time>
      </trkpt>
      <trkpt lat="42.90704" lon="0.15698">
        <ele>1893.4</ele>
        <time>2025-07-22T07:51:07Z</time>
      </trkpt>
      <trkpt lat="42.90698" lon="0.15688">
        <ele>1894.2</ele>
        <time>2025-07-22T07:51:12Z</time>
      </trkpt>
      <trkpt lat="42.90697" lon="0.15683">
        <ele>1894.4</ele>
        <time>2025-07-22T07:51:14Z</time>
      </trkpt>
      <trkpt lat="42.90692" lon="0.1567">
        <ele>1895.2</ele>
        <time>2025-07-22T07:51:19Z</time>
      </trkpt>
      <trkpt lat="42.90691" lon="0.15664">
        <ele>1895.8</ele>
        <time>2025-07-22T07:51:21Z</time>
      </trkpt>
      <trkpt lat="42.90687" lon="0.15651">
        <ele>1897</ele>
        <time>2025-07-22T07:51:26Z</time>
      </trkpt>
      <trkpt lat="42.90685" lon="0.15644">
        <ele>1897.6</ele>
        <time>2025-07-22T07:51:29Z</time>
      </trkpt>
      <trkpt lat="42.90682" lon="0.15636">
        <ele>1898</ele>
        <time>2025-07-22T07:51:32Z</time>
      </trkpt>
      <trkpt lat="42.90677" lon="0.15623">
        <ele>1899.2</ele>
        <time>2025-07-22T07:51:37Z</time>
      </trkpt>
      <trkpt lat="42.90675" lon="0.15615">
        <ele>1900</ele>
        <time>2025-07-22T07:51:40Z</time>
      </trkpt>
      <trkpt lat="42.90674" lon="0.1561">
        <ele>1900.2</ele>
        <time>2025-07-22T07:51:42Z</time>
      </trkpt>
      <trkpt lat="42.90673" lon="0.15598">
        <ele>1901.2</ele>
        <time>2025-07-22T07:51:47Z</time>
      </trkpt>
      <trkpt lat="42.90672" lon="0.15593">
        <ele>1901.8</ele>
        <time>2025-07-22T07:51:49Z</time>
      </trkpt>
      <trkpt lat="42.9067" lon="0.15581">
        <ele>1902.4</ele>
        <time>2025-07-22T07:51:53Z</time>
      </trkpt>
      <trkpt lat="42.90667" lon="0.15565">
        <ele>1903.4</ele>
        <time>2025-07-22T07:51:59Z</time>
      </trkpt>
      <trkpt lat="42.90666" lon="0.15552">
        <ele>1904.4</ele>
        <time>2025-07-22T07:52:04Z</time>
      </trkpt>
      <trkpt lat="42.90666" lon="0.1555">
        <ele>1904.4</ele>
        <time>2025-07-22T07:52:05Z</time>
      </trkpt>
      <trkpt lat="42.90661" lon="0.15532">
        <ele>1905.4</ele>
        <time>2025-07-22T07:52:12Z</time>
      </trkpt>
      <trkpt lat="42.9066" lon="0.1553">
        <ele>1905.4</ele>
        <time>2025-07-22T07:52:13Z</time>
      </trkpt>
      <trkpt lat="42.90658" lon="0.15511">
        <ele>1906.6</ele>
        <time>2025-07-22T07:52:19Z</time>
      </trkpt>
      <trkpt lat="42.90658" lon="0.15508">
        <ele>1906.8</ele>
        <time>2025-07-22T07:52:20Z</time>
      </trkpt>
      <trkpt lat="42.90656" lon="0.15496">
        <ele>1907.8</ele>
        <time>2025-07-22T07:52:24Z</time>
      </trkpt>
      <trkpt lat="42.90655" lon="0.15479">
        <ele>1908.8</ele>
        <time>2025-07-22T07:52:30Z</time>
      </trkpt>
      <trkpt lat="42.90656" lon="0.15468">
        <ele>1910</ele>
        <time>2025-07-22T07:52:34Z</time>
      </trkpt>
      <trkpt lat="42.90657" lon="0.15453">
        <ele>1910.8</ele>
        <time>2025-07-22T07:52:39Z</time>
      </trkpt>
      <trkpt lat="42.90657" lon="0.1545">
        <ele>1911</ele>
        <time>2025-07-22T07:52:40Z</time>
      </trkpt>
      <trkpt lat="42.90657" lon="0.1543">
        <ele>1911.8</ele>
        <time>2025-07-22T07:52:47Z</time>
      </trkpt>
      <trkpt lat="42.90657" lon="0.15421">
        <ele>1912.4</ele>
        <time>2025-07-22T07:52:50Z</time>
      </trkpt>
      <trkpt lat="42.90657" lon="0.15415">
        <ele>1913</ele>
        <time>2025-07-22T07:52:52Z</time>
      </trkpt>
      <trkpt lat="42.9066" lon="0.15401">
        <ele>1914.4</ele>
        <time>2025-07-22T07:52:57Z</time>
      </trkpt>
      <trkpt lat="42.90669" lon="0.15391">
        <ele>1915</ele>
        <time>2025-07-22T07:53:02Z</time>
      </trkpt>
      <trkpt lat="42.90673" lon="0.15388">
        <ele>1915</ele>
        <time>2025-07-22T07:53:04Z</time>
      </trkpt>
      <trkpt lat="42.90675" lon="0.15389">
        <ele>1915.2</ele>
        <time>2025-07-22T07:53:05Z</time>
      </trkpt>
      <trkpt lat="42.90677" lon="0.1539">
        <ele>1915.4</ele>
        <time>2025-07-22T07:53:06Z</time>
      </trkpt>
      <trkpt lat="42.90679" lon="0.15392">
        <ele>1915.6</ele>
        <time>2025-07-22T07:53:07Z</time>
      </trkpt>
      <trkpt lat="42.9068" lon="0.15395">
        <ele>1915.8</ele>
        <time>2025-07-22T07:53:08Z</time>
      </trkpt>
      <trkpt lat="42.9068" lon="0.15401">
        <ele>1916.2</ele>
        <time>2025-07-22T07:53:10Z</time>
      </trkpt>
      <trkpt lat="42.9068" lon="0.15408">
        <ele>1916.8</ele>
        <time>2025-07-22T07:53:12Z</time>
      </trkpt>
      <trkpt lat="42.90679" lon="0.15418">
        <ele>1917.4</ele>
        <time>2025-07-22T07:53:15Z</time>
      </trkpt>
      <trkpt lat="42.90677" lon="0.15436">
        <ele>1918.2</ele>
        <time>2025-07-22T07:53:21Z</time>
      </trkpt>
      <trkpt lat="42.90676" lon="0.15443">
        <ele>1918.8</ele>
        <time>2025-07-22T07:53:23Z</time>
      </trkpt>
      <trkpt lat="42.90677" lon="0.15462">
        <ele>1919.6</ele>
        <time>2025-07-22T07:53:29Z</time>
      </trkpt>
      <trkpt lat="42.90677" lon="0.15465">
        <ele>1919.8</ele>
        <time>2025-07-22T07:53:30Z</time>
      </trkpt>
      <trkpt lat="42.90682" lon="0.15485">
        <ele>1920.8</ele>
        <time>2025-07-22T07:53:37Z</time>
      </trkpt>
      <trkpt lat="42.90688" lon="0.15495">
        <ele>1921.6</ele>
        <time>2025-07-22T07:53:42Z</time>
      </trkpt>
      <trkpt lat="42.9069" lon="0.15497">
        <ele>1922</ele>
        <time>2025-07-22T07:53:43Z</time>
      </trkpt>
      <trkpt lat="42.90697" lon="0.15507">
        <ele>1922.6</ele>
        <time>2025-07-22T07:53:48Z</time>
      </trkpt>
      <trkpt lat="42.90702" lon="0.15513">
        <ele>1923.2</ele>
        <time>2025-07-22T07:53:51Z</time>
      </trkpt>
      <trkpt lat="42.90711" lon="0.15523">
        <ele>1924.2</ele>
        <time>2025-07-22T07:53:56Z</time>
      </trkpt>
      <trkpt lat="42.90714" lon="0.15527">
        <ele>1924.6</ele>
        <time>2025-07-22T07:53:58Z</time>
      </trkpt>
      <trkpt lat="42.9072" lon="0.15536">
        <ele>1925.4</ele>
        <time>2025-07-22T07:54:02Z</time>
      </trkpt>
      <trkpt lat="42.90727" lon="0.15549">
        <ele>1926.4</ele>
        <time>2025-07-22T07:54:08Z</time>
      </trkpt>
      <trkpt lat="42.90728" lon="0.15552">
        <ele>1926.6</ele>
        <time>2025-07-22T07:54:09Z</time>
      </trkpt>
      <trkpt lat="42.90734" lon="0.1556">
        <ele>1927.8</ele>
        <time>2025-07-22T07:54:13Z</time>
      </trkpt>
      <trkpt lat="42.90738" lon="0.15561">
        <ele>1928</ele>
        <time>2025-07-22T07:54:15Z</time>
      </trkpt>
      <trkpt lat="42.90745" lon="0.15562">
        <ele>1928.8</ele>
        <time>2025-07-22T07:54:18Z</time>
      </trkpt>
      <trkpt lat="42.90757" lon="0.15565">
        <ele>1929.8</ele>
        <time>2025-07-22T07:54:23Z</time>
      </trkpt>
      <trkpt lat="42.90767" lon="0.15575">
        <ele>1931</ele>
        <time>2025-07-22T07:54:29Z</time>
      </trkpt>
      <trkpt lat="42.90774" lon="0.15582">
        <ele>1932.2</ele>
        <time>2025-07-22T07:54:33Z</time>
      </trkpt>
      <trkpt lat="42.90779" lon="0.15587">
        <ele>1933</ele>
        <time>2025-07-22T07:54:36Z</time>
      </trkpt>
      <trkpt lat="42.90782" lon="0.15592">
        <ele>1933.2</ele>
        <time>2025-07-22T07:54:38Z</time>
      </trkpt>
      <trkpt lat="42.90793" lon="0.1561">
        <ele>1934.2</ele>
        <time>2025-07-22T07:54:46Z</time>
      </trkpt>
      <trkpt lat="42.908" lon="0.15621">
        <ele>1935.4</ele>
        <time>2025-07-22T07:54:51Z</time>
      </trkpt>
      <trkpt lat="42.90803" lon="0.15626">
        <ele>1936</ele>
        <time>2025-07-22T07:54:54Z</time>
      </trkpt>
      <trkpt lat="42.90805" lon="0.15628">
        <ele>1936.4</ele>
        <time>2025-07-22T07:54:55Z</time>
      </trkpt>
      <trkpt lat="42.90814" lon="0.1563">
        <ele>1937.6</ele>
        <time>2025-07-22T07:54:59Z</time>
      </trkpt>
      <trkpt lat="42.90816" lon="0.1563">
        <ele>1937.8</ele>
        <time>2025-07-22T07:55:00Z</time>
      </trkpt>
      <trkpt lat="42.90824" lon="0.15626">
        <ele>1938.8</ele>
        <time>2025-07-22T07:55:04Z</time>
      </trkpt>
      <trkpt lat="42.90831" lon="0.15623">
        <ele>1939.6</ele>
        <time>2025-07-22T07:55:07Z</time>
      </trkpt>
      <trkpt lat="42.90835" lon="0.15623">
        <ele>1940</ele>
        <time>2025-07-22T07:55:09Z</time>
      </trkpt>
      <trkpt lat="42.90844" lon="0.15628">
        <ele>1940.6</ele>
        <time>2025-07-22T07:55:13Z</time>
      </trkpt>
      <trkpt lat="42.90851" lon="0.15633">
        <ele>1941.2</ele>
        <time>2025-07-22T07:55:17Z</time>
      </trkpt>
      <trkpt lat="42.90859" lon="0.15638">
        <ele>1942</ele>
        <time>2025-07-22T07:55:21Z</time>
      </trkpt>
      <trkpt lat="42.90864" lon="0.15639">
        <ele>1942</ele>
        <time>2025-07-22T07:55:23Z</time>
      </trkpt>
      <trkpt lat="42.90877" lon="0.15641">
        <ele>1943</ele>
        <time>2025-07-22T07:55:29Z</time>
      </trkpt>
      <trkpt lat="42.90889" lon="0.15645">
        <ele>1944.4</ele>
        <time>2025-07-22T07:55:35Z</time>
      </trkpt>
      <trkpt lat="42.90895" lon="0.15644">
        <ele>1945</ele>
        <time>2025-07-22T07:55:38Z</time>
      </trkpt>
      <trkpt lat="42.90899" lon="0.15641">
        <ele>1945.6</ele>
        <time>2025-07-22T07:55:40Z</time>
      </trkpt>
      <trkpt lat="42.90908" lon="0.15635">
        <ele>1947</ele>
        <time>2025-07-22T07:55:45Z</time>
      </trkpt>
      <trkpt lat="42.90912" lon="0.15632">
        <ele>1947.4</ele>
        <time>2025-07-22T07:55:47Z</time>
      </trkpt>
      <trkpt lat="42.90921" lon="0.15624">
        <ele>1948.2</ele>
        <time>2025-07-22T07:55:52Z</time>
      </trkpt>
      <trkpt lat="42.90926" lon="0.15619">
        <ele>1948.8</ele>
        <time>2025-07-22T07:55:55Z</time>
      </trkpt>
      <trkpt lat="42.90931" lon="0.15615">
        <ele>1949.2</ele>
        <time>2025-07-22T07:55:58Z</time>
      </trkpt>
      <trkpt lat="42.9094" lon="0.1561">
        <ele>1950.2</ele>
        <time>2025-07-22T07:56:03Z</time>
      </trkpt>
      <trkpt lat="42.90942" lon="0.15609">
        <ele>1950.4</ele>
        <time>2025-07-22T07:56:04Z</time>
      </trkpt>
      <trkpt lat="42.90952" lon="0.15604">
        <ele>1951.2</ele>
        <time>2025-07-22T07:56:09Z</time>
      </trkpt>
      <trkpt lat="42.90957" lon="0.15603">
        <ele>1952</ele>
        <time>2025-07-22T07:56:12Z</time>
      </trkpt>
      <trkpt lat="42.90964" lon="0.15602">
        <ele>1952.4</ele>
        <time>2025-07-22T07:56:15Z</time>
      </trkpt>
      <trkpt lat="42.90972" lon="0.15608">
        <ele>1953.2</ele>
        <time>2025-07-22T07:56:19Z</time>
      </trkpt>
      <trkpt lat="42.90976" lon="0.15611">
        <ele>1953.4</ele>
        <time>2025-07-22T07:56:21Z</time>
      </trkpt>
      <trkpt lat="42.90988" lon="0.15625">
        <ele>1954.6</ele>
        <time>2025-07-22T07:56:28Z</time>
      </trkpt>
      <trkpt lat="42.9099" lon="0.15627">
        <ele>1954.8</ele>
        <time>2025-07-22T07:56:29Z</time>
      </trkpt>
      <trkpt lat="42.90996" lon="0.15629">
        <ele>1955.8</ele>
        <time>2025-07-22T07:56:32Z</time>
      </trkpt>
      <trkpt lat="42.91" lon="0.15631">
        <ele>1956</ele>
        <time>2025-07-22T07:56:34Z</time>
      </trkpt>
      <trkpt lat="42.91002" lon="0.15631">
        <ele>1956.2</ele>
        <time>2025-07-22T07:56:35Z</time>
      </trkpt>
      <trkpt lat="42.91009" lon="0.15627">
        <ele>1957</ele>
        <time>2025-07-22T07:56:38Z</time>
      </trkpt>
      <trkpt lat="42.91014" lon="0.15623">
        <ele>1957.6</ele>
        <time>2025-07-22T07:56:41Z</time>
      </trkpt>
      <trkpt lat="42.91016" lon="0.15617">
        <ele>1958.4</ele>
        <time>2025-07-22T07:56:43Z</time>
      </trkpt>
      <trkpt lat="42.91018" lon="0.15605">
        <ele>1959.2</ele>
        <time>2025-07-22T07:56:47Z</time>
      </trkpt>
      <trkpt lat="42.91018" lon="0.15602">
        <ele>1959.6</ele>
        <time>2025-07-22T07:56:48Z</time>
      </trkpt>
      <trkpt lat="42.91018" lon="0.15593">
        <ele>1960.4</ele>
        <time>2025-07-22T07:56:51Z</time>
      </trkpt>
      <trkpt lat="42.91012" lon="0.1558">
        <ele>1961.4</ele>
        <time>2025-07-22T07:56:56Z</time>
      </trkpt>
      <trkpt lat="42.91004" lon="0.15566">
        <ele>1962.6</ele>
        <time>2025-07-22T07:57:02Z</time>
      </trkpt>
      <trkpt lat="42.90999" lon="0.15559">
        <ele>1963</ele>
        <time>2025-07-22T07:57:05Z</time>
      </trkpt>
      <trkpt lat="42.90994" lon="0.15554">
        <ele>1963.6</ele>
        <time>2025-07-22T07:57:08Z</time>
      </trkpt>
      <trkpt lat="42.90984" lon="0.15547">
        <ele>1964.4</ele>
        <time>2025-07-22T07:57:13Z</time>
      </trkpt>
      <trkpt lat="42.9098" lon="0.15545">
        <ele>1964.4</ele>
        <time>2025-07-22T07:57:15Z</time>
      </trkpt>
      <trkpt lat="42.90968" lon="0.15539">
        <ele>1965.8</ele>
        <time>2025-07-22T07:57:21Z</time>
      </trkpt>
      <trkpt lat="42.90966" lon="0.15538">
        <ele>1966</ele>
        <time>2025-07-22T07:57:22Z</time>
      </trkpt>
      <trkpt lat="42.90961" lon="0.15533">
        <ele>1967</ele>
        <time>2025-07-22T07:57:25Z</time>
      </trkpt>
      <trkpt lat="42.90955" lon="0.15523">
        <ele>1968</ele>
        <time>2025-07-22T07:57:30Z</time>
      </trkpt>
      <trkpt lat="42.90954" lon="0.1552">
        <ele>1968</ele>
        <time>2025-07-22T07:57:31Z</time>
      </trkpt>
      <trkpt lat="42.90949" lon="0.15512">
        <ele>1968.6</ele>
        <time>2025-07-22T07:57:34Z</time>
      </trkpt>
      <trkpt lat="42.90947" lon="0.15509">
        <ele>1969</ele>
        <time>2025-07-22T07:57:35Z</time>
      </trkpt>
      <trkpt lat="42.9094" lon="0.15498">
        <ele>1969.8</ele>
        <time>2025-07-22T07:57:40Z</time>
      </trkpt>
      <trkpt lat="42.90933" lon="0.15486">
        <ele>1971</ele>
        <time>2025-07-22T07:57:45Z</time>
      </trkpt>
      <trkpt lat="42.90928" lon="0.15477">
        <ele>1971.6</ele>
        <time>2025-07-22T07:57:49Z</time>
      </trkpt>
      <trkpt lat="42.90924" lon="0.15471">
        <ele>1972</ele>
        <time>2025-07-22T07:57:52Z</time>
      </trkpt>
      <trkpt lat="42.90916" lon="0.15462">
        <ele>1973.2</ele>
        <time>2025-07-22T07:57:57Z</time>
      </trkpt>
      <trkpt lat="42.90914" lon="0.15461">
        <ele>1973.4</ele>
        <time>2025-07-22T07:57:58Z</time>
      </trkpt>
      <trkpt lat="42.90905" lon="0.15459">
        <ele>1974.4</ele>
        <time>2025-07-22T07:58:03Z</time>
      </trkpt>
      <trkpt lat="42.90902" lon="0.15459">
        <ele>1974.6</ele>
        <time>2025-07-22T07:58:04Z</time>
      </trkpt>
      <trkpt lat="42.90889" lon="0.15458">
        <ele>1975.2</ele>
        <time>2025-07-22T07:58:10Z</time>
      </trkpt>
      <trkpt lat="42.90877" lon="0.15451">
        <ele>1976.2</ele>
        <time>2025-07-22T07:58:16Z</time>
      </trkpt>
      <trkpt lat="42.90875" lon="0.15448">
        <ele>1976.2</ele>
        <time>2025-07-22T07:58:17Z</time>
      </trkpt>
      <trkpt lat="42.90869" lon="0.15436">
        <ele>1977.2</ele>
        <time>2025-07-22T07:58:22Z</time>
      </trkpt>
      <trkpt lat="42.90867" lon="0.15432">
        <ele>1977.8</ele>
        <time>2025-07-22T07:58:24Z</time>
      </trkpt>
      <trkpt lat="42.90864" lon="0.15426">
        <ele>1978.4</ele>
        <time>2025-07-22T07:58:27Z</time>
      </trkpt>
      <trkpt lat="42.9086" lon="0.15415">
        <ele>1979.4</ele>
        <time>2025-07-22T07:58:31Z</time>
      </trkpt>
      <trkpt lat="42.90858" lon="0.15409">
        <ele>1980.2</ele>
        <time>2025-07-22T07:58:33Z</time>
      </trkpt>
      <trkpt lat="42.90857" lon="0.15404">
        <ele>1980.6</ele>
        <time>2025-07-22T07:58:35Z</time>
      </trkpt>
      <trkpt lat="42.90853" lon="0.15394">
        <ele>1981.8</ele>
        <time>2025-07-22T07:58:39Z</time>
      </trkpt>
      <trkpt lat="42.9085" lon="0.15381">
        <ele>1982.8</ele>
        <time>2025-07-22T07:58:44Z</time>
      </trkpt>
      <trkpt lat="42.90844" lon="0.15364">
        <ele>1984</ele>
        <time>2025-07-22T07:58:51Z</time>
      </trkpt>
      <trkpt lat="42.90843" lon="0.15362">
        <ele>1984.2</ele>
        <time>2025-07-22T07:58:52Z</time>
      </trkpt>
      <trkpt lat="42.90842" lon="0.15352">
        <ele>1985.2</ele>
        <time>2025-07-22T07:58:56Z</time>
      </trkpt>
      <trkpt lat="42.90843" lon="0.15338">
        <ele>1986.6</ele>
        <time>2025-07-22T07:59:01Z</time>
      </trkpt>
      <trkpt lat="42.90846" lon="0.15327">
        <ele>1987.6</ele>
        <time>2025-07-22T07:59:05Z</time>
      </trkpt>
      <trkpt lat="42.90851" lon="0.15315">
        <ele>1988.4</ele>
        <time>2025-07-22T07:59:10Z</time>
      </trkpt>
      <trkpt lat="42.90853" lon="0.15311">
        <ele>1988.6</ele>
        <time>2025-07-22T07:59:12Z</time>
      </trkpt>
      <trkpt lat="42.90858" lon="0.15302">
        <ele>1989</ele>
        <time>2025-07-22T07:59:16Z</time>
      </trkpt>
      <trkpt lat="42.9086" lon="0.15296">
        <ele>1989.6</ele>
        <time>2025-07-22T07:59:18Z</time>
      </trkpt>
      <trkpt lat="42.90865" lon="0.15279">
        <ele>1990.6</ele>
        <time>2025-07-22T07:59:24Z</time>
      </trkpt>
      <trkpt lat="42.90868" lon="0.15274">
        <ele>1991</ele>
        <time>2025-07-22T07:59:26Z</time>
      </trkpt>
      <trkpt lat="42.90871" lon="0.15266">
        <ele>1991.6</ele>
        <time>2025-07-22T07:59:29Z</time>
      </trkpt>
      <trkpt lat="42.90876" lon="0.15252">
        <ele>1992.6</ele>
        <time>2025-07-22T07:59:34Z</time>
      </trkpt>
      <trkpt lat="42.90877" lon="0.15249">
        <ele>1992.8</ele>
        <time>2025-07-22T07:59:35Z</time>
      </trkpt>
      <trkpt lat="42.9088" lon="0.15235">
        <ele>1994</ele>
        <time>2025-07-22T07:59:40Z</time>
      </trkpt>
      <trkpt lat="42.90883" lon="0.15222">
        <ele>1994.8</ele>
        <time>2025-07-22T07:59:45Z</time>
      </trkpt>
      <trkpt lat="42.90884" lon="0.15217">
        <ele>1995</ele>
        <time>2025-07-22T07:59:47Z</time>
      </trkpt>
      <trkpt lat="42.90885" lon="0.15206">
        <ele>1995.8</ele>
        <time>2025-07-22T07:59:51Z</time>
      </trkpt>
      <trkpt lat="42.90885" lon="0.15203">
        <ele>1996</ele>
        <time>2025-07-22T07:59:52Z</time>
      </trkpt>
      <trkpt lat="42.90888" lon="0.1519">
        <ele>1997</ele>
        <time>2025-07-22T07:59:57Z</time>
      </trkpt>
      <trkpt lat="42.90892" lon="0.15176">
        <ele>1998</ele>
        <time>2025-07-22T08:00:02Z</time>
      </trkpt>
      <trkpt lat="42.90893" lon="0.1517">
        <ele>1998.8</ele>
        <time>2025-07-22T08:00:04Z</time>
      </trkpt>
      <trkpt lat="42.90895" lon="0.15162">
        <ele>1999.2</ele>
        <time>2025-07-22T08:00:07Z</time>
      </trkpt>
      <trkpt lat="42.90898" lon="0.15149">
        <ele>2000.2</ele>
        <time>2025-07-22T08:00:12Z</time>
      </trkpt>
      <trkpt lat="42.90898" lon="0.15147">
        <ele>2000.4</ele>
        <time>2025-07-22T08:00:13Z</time>
      </trkpt>
      <trkpt lat="42.909" lon="0.15137">
        <ele>2001</ele>
        <time>2025-07-22T08:00:17Z</time>
      </trkpt>
      <trkpt lat="42.90901" lon="0.15132">
        <ele>2001.4</ele>
        <time>2025-07-22T08:00:19Z</time>
      </trkpt>
      <trkpt lat="42.90901" lon="0.15129">
        <ele>2001.6</ele>
        <time>2025-07-22T08:00:20Z</time>
      </trkpt>
      <trkpt lat="42.90901" lon="0.15114">
        <ele>2002.6</ele>
        <time>2025-07-22T08:00:25Z</time>
      </trkpt>
      <trkpt lat="42.909" lon="0.15105">
        <ele>2003.6</ele>
        <time>2025-07-22T08:00:28Z</time>
      </trkpt>
      <trkpt lat="42.90897" lon="0.15091">
        <ele>2004.6</ele>
        <time>2025-07-22T08:00:33Z</time>
      </trkpt>
      <trkpt lat="42.90896" lon="0.15086">
        <ele>2005</ele>
        <time>2025-07-22T08:00:35Z</time>
      </trkpt>
      <trkpt lat="42.90893" lon="0.15075">
        <ele>2005.8</ele>
        <time>2025-07-22T08:00:39Z</time>
      </trkpt>
      <trkpt lat="42.90889" lon="0.15059">
        <ele>2006.8</ele>
        <time>2025-07-22T08:00:45Z</time>
      </trkpt>
      <trkpt lat="42.90888" lon="0.15056">
        <ele>2006.8</ele>
        <time>2025-07-22T08:00:46Z</time>
      </trkpt>
      <trkpt lat="42.90883" lon="0.1504">
        <ele>2008</ele>
        <time>2025-07-22T08:00:52Z</time>
      </trkpt>
      <trkpt lat="42.90881" lon="0.15035">
        <ele>2008.4</ele>
        <time>2025-07-22T08:00:54Z</time>
      </trkpt>
      <trkpt lat="42.90878" lon="0.15027">
        <ele>2009</ele>
        <time>2025-07-22T08:00:57Z</time>
      </trkpt>
      <trkpt lat="42.90871" lon="0.15015">
        <ele>2009.8</ele>
        <time>2025-07-22T08:01:02Z</time>
      </trkpt>
      <trkpt lat="42.90869" lon="0.15011">
        <ele>2010</ele>
        <time>2025-07-22T08:01:04Z</time>
      </trkpt>
      <trkpt lat="42.90868" lon="0.15008">
        <ele>2010</ele>
        <time>2025-07-22T08:01:05Z</time>
      </trkpt>
      <trkpt lat="42.90863" lon="0.14996">
        <ele>2011.2</ele>
        <time>2025-07-22T08:01:10Z</time>
      </trkpt>
      <trkpt lat="42.90861" lon="0.1498">
        <ele>2012.2</ele>
        <time>2025-07-22T08:01:16Z</time>
      </trkpt>
      <trkpt lat="42.9086" lon="0.14971">
        <ele>2013</ele>
        <time>2025-07-22T08:01:19Z</time>
      </trkpt>
      <trkpt lat="42.9086" lon="0.14966">
        <ele>2013.2</ele>
        <time>2025-07-22T08:01:21Z</time>
      </trkpt>
      <trkpt lat="42.90863" lon="0.14953">
        <ele>2014.4</ele>
        <time>2025-07-22T08:01:26Z</time>
      </trkpt>
      <trkpt lat="42.90866" lon="0.14941">
        <ele>2015.6</ele>
        <time>2025-07-22T08:01:31Z</time>
      </trkpt>
      <trkpt lat="42.90866" lon="0.14939">
        <ele>2015.8</ele>
        <time>2025-07-22T08:01:32Z</time>
      </trkpt>
      <trkpt lat="42.90867" lon="0.14928">
        <ele>2016.8</ele>
        <time>2025-07-22T08:01:36Z</time>
      </trkpt>
      <trkpt lat="42.90869" lon="0.14914">
        <ele>2018</ele>
        <time>2025-07-22T08:01:41Z</time>
      </trkpt>
      <trkpt lat="42.9087" lon="0.14911">
        <ele>2018.2</ele>
        <time>2025-07-22T08:01:42Z</time>
      </trkpt>
      <trkpt lat="42.90869" lon="0.14901">
        <ele>2019.4</ele>
        <time>2025-07-22T08:01:45Z</time>
      </trkpt>
      <trkpt lat="42.90866" lon="0.14895">
        <ele>2019.6</ele>
        <time>2025-07-22T08:01:47Z</time>
      </trkpt>
      <trkpt lat="42.9086" lon="0.14889">
        <ele>2020.2</ele>
        <time>2025-07-22T08:01:50Z</time>
      </trkpt>
      <trkpt lat="42.90853" lon="0.14886">
        <ele>2020.6</ele>
        <time>2025-07-22T08:01:53Z</time>
      </trkpt>
      <trkpt lat="42.90834" lon="0.14886">
        <ele>2021.2</ele>
        <time>2025-07-22T08:02:01Z</time>
      </trkpt>
      <trkpt lat="42.90832" lon="0.14886">
        <ele>2021.4</ele>
        <time>2025-07-22T08:02:02Z</time>
      </trkpt>
      <trkpt lat="42.90816" lon="0.14887">
        <ele>2022</ele>
        <time>2025-07-22T08:02:09Z</time>
      </trkpt>
      <trkpt lat="42.90809" lon="0.14887">
        <ele>2022.4</ele>
        <time>2025-07-22T08:02:12Z</time>
      </trkpt>
      <trkpt lat="42.908" lon="0.14885">
        <ele>2023.2</ele>
        <time>2025-07-22T08:02:16Z</time>
      </trkpt>
      <trkpt lat="42.90798" lon="0.14884">
        <ele>2023.4</ele>
        <time>2025-07-22T08:02:17Z</time>
      </trkpt>
      <trkpt lat="42.90789" lon="0.14877">
        <ele>2024.4</ele>
        <time>2025-07-22T08:02:22Z</time>
      </trkpt>
      <trkpt lat="42.90785" lon="0.14874">
        <ele>2025</ele>
        <time>2025-07-22T08:02:24Z</time>
      </trkpt>
      <trkpt lat="42.90777" lon="0.14871">
        <ele>2025.8</ele>
        <time>2025-07-22T08:02:28Z</time>
      </trkpt>
      <trkpt lat="42.90769" lon="0.1487">
        <ele>2026.6</ele>
        <time>2025-07-22T08:02:32Z</time>
      </trkpt>
      <trkpt lat="42.90767" lon="0.14871">
        <ele>2026.8</ele>
        <time>2025-07-22T08:02:33Z</time>
      </trkpt>
      <trkpt lat="42.90757" lon="0.14875">
        <ele>2027.8</ele>
        <time>2025-07-22T08:02:38Z</time>
      </trkpt>
      <trkpt lat="42.90754" lon="0.14876">
        <ele>2027.8</ele>
        <time>2025-07-22T08:02:39Z</time>
      </trkpt>
      <trkpt lat="42.90746" lon="0.14875">
        <ele>2028.8</ele>
        <time>2025-07-22T08:02:43Z</time>
      </trkpt>
      <trkpt lat="42.90739" lon="0.14872">
        <ele>2029.2</ele>
        <time>2025-07-22T08:02:46Z</time>
      </trkpt>
      <trkpt lat="42.90734" lon="0.1487">
        <ele>2030</ele>
        <time>2025-07-22T08:02:48Z</time>
      </trkpt>
      <trkpt lat="42.90724" lon="0.14863">
        <ele>2031.2</ele>
        <time>2025-07-22T08:02:53Z</time>
      </trkpt>
      <trkpt lat="42.9072" lon="0.14859">
        <ele>2031.6</ele>
        <time>2025-07-22T08:02:55Z</time>
      </trkpt>
      <trkpt lat="42.90713" lon="0.14853">
        <ele>2032.2</ele>
        <time>2025-07-22T08:02:59Z</time>
      </trkpt>
      <trkpt lat="42.90704" lon="0.14845">
        <ele>2033.4</ele>
        <time>2025-07-22T08:03:04Z</time>
      </trkpt>
      <trkpt lat="42.90703" lon="0.14844">
        <ele>2033.6</ele>
        <time>2025-07-22T08:03:05Z</time>
      </trkpt>
      <trkpt lat="42.90692" lon="0.14836">
        <ele>2034.6</ele>
        <time>2025-07-22T08:03:11Z</time>
      </trkpt>
      <trkpt lat="42.90689" lon="0.14835">
        <ele>2035</ele>
        <time>2025-07-22T08:03:13Z</time>
      </trkpt>
      <trkpt lat="42.90683" lon="0.14832">
        <ele>2035.6</ele>
        <time>2025-07-22T08:03:16Z</time>
      </trkpt>
      <trkpt lat="42.90674" lon="0.14826">
        <ele>2036.6</ele>
        <time>2025-07-22T08:03:21Z</time>
      </trkpt>
      <trkpt lat="42.90666" lon="0.14822">
        <ele>2037.6</ele>
        <time>2025-07-22T08:03:25Z</time>
      </trkpt>
      <trkpt lat="42.90655" lon="0.14819">
        <ele>2038.8</ele>
        <time>2025-07-22T08:03:30Z</time>
      </trkpt>
      <trkpt lat="42.90653" lon="0.14818">
        <ele>2039</ele>
        <time>2025-07-22T08:03:31Z</time>
      </trkpt>
      <trkpt lat="42.90644" lon="0.14818">
        <ele>2040</ele>
        <time>2025-07-22T08:03:35Z</time>
      </trkpt>
      <trkpt lat="42.90635" lon="0.1482">
        <ele>2040.8</ele>
        <time>2025-07-22T08:03:39Z</time>
      </trkpt>
      <trkpt lat="42.90633" lon="0.14821">
        <ele>2041</ele>
        <time>2025-07-22T08:03:40Z</time>
      </trkpt>
      <trkpt lat="42.90621" lon="0.14829">
        <ele>2042.2</ele>
        <time>2025-07-22T08:03:46Z</time>
      </trkpt>
      <trkpt lat="42.90605" lon="0.14831">
        <ele>2043</ele>
        <time>2025-07-22T08:03:53Z</time>
      </trkpt>
      <trkpt lat="42.90601" lon="0.14825">
        <ele>2043.8</ele>
        <time>2025-07-22T08:03:56Z</time>
      </trkpt>
      <trkpt lat="42.906" lon="0.14822">
        <ele>2044.4</ele>
        <time>2025-07-22T08:03:57Z</time>
      </trkpt>
      <trkpt lat="42.90599" lon="0.1482">
        <ele>2044.6</ele>
        <time>2025-07-22T08:03:58Z</time>
      </trkpt>
      <trkpt lat="42.906" lon="0.14814">
        <ele>2045.2</ele>
        <time>2025-07-22T08:04:00Z</time>
      </trkpt>
      <trkpt lat="42.90603" lon="0.14809">
        <ele>2046</ele>
        <time>2025-07-22T08:04:02Z</time>
      </trkpt>
      <trkpt lat="42.90606" lon="0.14807">
        <ele>2046.2</ele>
        <time>2025-07-22T08:04:03Z</time>
      </trkpt>
      <trkpt lat="42.90613" lon="0.14802">
        <ele>2047.2</ele>
        <time>2025-07-22T08:04:06Z</time>
      </trkpt>
      <trkpt lat="42.90622" lon="0.14797">
        <ele>2048.2</ele>
        <time>2025-07-22T08:04:10Z</time>
      </trkpt>
      <trkpt lat="42.90624" lon="0.14796">
        <ele>2048.4</ele>
        <time>2025-07-22T08:04:11Z</time>
      </trkpt>
      <trkpt lat="42.90635" lon="0.14791">
        <ele>2049.4</ele>
        <time>2025-07-22T08:04:16Z</time>
      </trkpt>
      <trkpt lat="42.90637" lon="0.14791">
        <ele>2049.6</ele>
        <time>2025-07-22T08:04:17Z</time>
      </trkpt>
      <trkpt lat="42.90646" lon="0.14789">
        <ele>2050.4</ele>
        <time>2025-07-22T08:04:21Z</time>
      </trkpt>
      <trkpt lat="42.90655" lon="0.14786">
        <ele>2051</ele>
        <time>2025-07-22T08:04:25Z</time>
      </trkpt>
      <trkpt lat="42.90661" lon="0.14783">
        <ele>2051.8</ele>
        <time>2025-07-22T08:04:28Z</time>
      </trkpt>
      <trkpt lat="42.90666" lon="0.14782">
        <ele>2052.8</ele>
        <time>2025-07-22T08:04:31Z</time>
      </trkpt>
      <trkpt lat="42.90674" lon="0.14781">
        <ele>2053.8</ele>
        <time>2025-07-22T08:04:35Z</time>
      </trkpt>
      <trkpt lat="42.90686" lon="0.14779">
        <ele>2054.6</ele>
        <time>2025-07-22T08:04:41Z</time>
      </trkpt>
      <trkpt lat="42.90688" lon="0.14778">
        <ele>2055</ele>
        <time>2025-07-22T08:04:42Z</time>
      </trkpt>
      <trkpt lat="42.90698" lon="0.14775">
        <ele>2056</ele>
        <time>2025-07-22T08:04:47Z</time>
      </trkpt>
      <trkpt lat="42.907" lon="0.14775">
        <ele>2056.2</ele>
        <time>2025-07-22T08:04:48Z</time>
      </trkpt>
      <trkpt lat="42.90702" lon="0.14774">
        <ele>2056.6</ele>
        <time>2025-07-22T08:04:49Z</time>
      </trkpt>
      <trkpt lat="42.90706" lon="0.14773">
        <ele>2056.8</ele>
        <time>2025-07-22T08:04:51Z</time>
      </trkpt>
      <trkpt lat="42.90717" lon="0.14771">
        <ele>2058</ele>
        <time>2025-07-22T08:04:56Z</time>
      </trkpt>
      <trkpt lat="42.90723" lon="0.14768">
        <ele>2059</ele>
        <time>2025-07-22T08:04:59Z</time>
      </trkpt>
      <trkpt lat="42.90724" lon="0.14767">
        <ele>2059</ele>
        <time>2025-07-22T08:05:00Z</time>
      </trkpt>
      <trkpt lat="42.90731" lon="0.14764">
        <ele>2060.2</ele>
        <time>2025-07-22T08:05:03Z</time>
      </trkpt>
      <trkpt lat="42.90743" lon="0.14757">
        <ele>2061.4</ele>
        <time>2025-07-22T08:05:09Z</time>
      </trkpt>
      <trkpt lat="42.90752" lon="0.14747">
        <ele>2062.4</ele>
        <time>2025-07-22T08:05:15Z</time>
      </trkpt>
      <trkpt lat="42.90755" lon="0.14744">
        <ele>2062.8</ele>
        <time>2025-07-22T08:05:17Z</time>
      </trkpt>
      <trkpt lat="42.90761" lon="0.14739">
        <ele>2063.6</ele>
        <time>2025-07-22T08:05:21Z</time>
      </trkpt>
      <trkpt lat="42.90765" lon="0.14733">
        <ele>2064</ele>
        <time>2025-07-22T08:05:24Z</time>
      </trkpt>
      <trkpt lat="42.90768" lon="0.14729">
        <ele>2064.6</ele>
        <time>2025-07-22T08:05:26Z</time>
      </trkpt>
      <trkpt lat="42.90775" lon="0.14719">
        <ele>2065.6</ele>
        <time>2025-07-22T08:05:31Z</time>
      </trkpt>
      <trkpt lat="42.90777" lon="0.14717">
        <ele>2065.8</ele>
        <time>2025-07-22T08:05:32Z</time>
      </trkpt>
      <trkpt lat="42.90784" lon="0.14707">
        <ele>2066.6</ele>
        <time>2025-07-22T08:05:37Z</time>
      </trkpt>
      <trkpt lat="42.90788" lon="0.14701">
        <ele>2067.4</ele>
        <time>2025-07-22T08:05:40Z</time>
      </trkpt>
      <trkpt lat="42.90791" lon="0.14697">
        <ele>2068.2</ele>
        <time>2025-07-22T08:05:42Z</time>
      </trkpt>
      <trkpt lat="42.90799" lon="0.14689">
        <ele>2069</ele>
        <time>2025-07-22T08:05:47Z</time>
      </trkpt>
      <trkpt lat="42.90801" lon="0.14687">
        <ele>2069.2</ele>
        <time>2025-07-22T08:05:48Z</time>
      </trkpt>
      <trkpt lat="42.90811" lon="0.14676">
        <ele>2070.4</ele>
        <time>2025-07-22T08:05:54Z</time>
      </trkpt>
      <trkpt lat="42.90818" lon="0.14665">
        <ele>2071.6</ele>
        <time>2025-07-22T08:05:59Z</time>
      </trkpt>
      <trkpt lat="42.90824" lon="0.14656">
        <ele>2072.4</ele>
        <time>2025-07-22T08:06:03Z</time>
      </trkpt>
      <trkpt lat="42.90825" lon="0.14654">
        <ele>2072.6</ele>
        <time>2025-07-22T08:06:04Z</time>
      </trkpt>
      <trkpt lat="42.90833" lon="0.14644">
        <ele>2073.8</ele>
        <time>2025-07-22T08:06:09Z</time>
      </trkpt>
      <trkpt lat="42.90836" lon="0.1464">
        <ele>2074.6</ele>
        <time>2025-07-22T08:06:11Z</time>
      </trkpt>
      <trkpt lat="42.90839" lon="0.14635">
        <ele>2075</ele>
        <time>2025-07-22T08:06:13Z</time>
      </trkpt>
      <trkpt lat="42.90846" lon="0.14629">
        <ele>2075.6</ele>
        <time>2025-07-22T08:06:17Z</time>
      </trkpt>
      <trkpt lat="42.90852" lon="0.14625">
        <ele>2076.2</ele>
        <time>2025-07-22T08:06:20Z</time>
      </trkpt>
      <trkpt lat="42.90855" lon="0.14619">
        <ele>2077.2</ele>
        <time>2025-07-22T08:06:23Z</time>
      </trkpt>
      <trkpt lat="42.90857" lon="0.14617">
        <ele>2077.4</ele>
        <time>2025-07-22T08:06:24Z</time>
      </trkpt>
      <trkpt lat="42.90862" lon="0.14607">
        <ele>2078.2</ele>
        <time>2025-07-22T08:06:28Z</time>
      </trkpt>
      <trkpt lat="42.90865" lon="0.14595">
        <ele>2079.6</ele>
        <time>2025-07-22T08:06:32Z</time>
      </trkpt>
      <trkpt lat="42.90865" lon="0.14592">
        <ele>2080</ele>
        <time>2025-07-22T08:06:33Z</time>
      </trkpt>
      <trkpt lat="42.90865" lon="0.14584">
        <ele>2080.8</ele>
        <time>2025-07-22T08:06:36Z</time>
      </trkpt>
      <trkpt lat="42.90863" lon="0.14573">
        <ele>2081.8</ele>
        <time>2025-07-22T08:06:40Z</time>
      </trkpt>
      <trkpt lat="42.90861" lon="0.14568">
        <ele>2082.8</ele>
        <time>2025-07-22T08:06:42Z</time>
      </trkpt>
      <trkpt lat="42.90859" lon="0.14565">
        <ele>2083</ele>
        <time>2025-07-22T08:06:43Z</time>
      </trkpt>
      <trkpt lat="42.90855" lon="0.14556">
        <ele>2084.4</ele>
        <time>2025-07-22T08:06:46Z</time>
      </trkpt>
      <trkpt lat="42.90849" lon="0.14545">
        <ele>2085.4</ele>
        <time>2025-07-22T08:06:50Z</time>
      </trkpt>
      <trkpt lat="42.90848" lon="0.14542">
        <ele>2085.8</ele>
        <time>2025-07-22T08:06:51Z</time>
      </trkpt>
      <trkpt lat="42.90841" lon="0.14534">
        <ele>2086.8</ele>
        <time>2025-07-22T08:06:55Z</time>
      </trkpt>
      <trkpt lat="42.90839" lon="0.14529">
        <ele>2087</ele>
        <time>2025-07-22T08:06:57Z</time>
      </trkpt>
      <trkpt lat="42.90836" lon="0.14522">
        <ele>2087.6</ele>
        <time>2025-07-22T08:07:00Z</time>
      </trkpt>
      <trkpt lat="42.90836" lon="0.1452">
        <ele>2087.8</ele>
        <time>2025-07-22T08:07:01Z</time>
      </trkpt>
      <trkpt lat="42.90836" lon="0.14518">
        <ele>2088</ele>
        <time>2025-07-22T08:07:02Z</time>
      </trkpt>
      <trkpt lat="42.90836" lon="0.14514">
        <ele>2088</ele>
        <time>2025-07-22T08:07:04Z</time>
      </trkpt>
      <trkpt lat="42.90832" lon="0.14508">
        <ele>2088.2</ele>
        <time>2025-07-22T08:07:07Z</time>
      </trkpt>
      <trkpt lat="42.90829" lon="0.14499">
        <ele>2087.8</ele>
        <time>2025-07-22T08:07:14Z</time>
      </trkpt>
      <trkpt lat="42.9082" lon="0.14503">
        <ele>2085.6</ele>
        <time>2025-07-22T08:09:07Z</time>
      </trkpt>
      <trkpt lat="42.90819" lon="0.14509">
        <ele>2085.6</ele>
        <time>2025-07-22T08:09:09Z</time>
      </trkpt>
      <trkpt lat="42.90827" lon="0.14517">
        <ele>2085.8</ele>
        <time>2025-07-22T08:09:13Z</time>
      </trkpt>
      <trkpt lat="42.90832" lon="0.14521">
        <ele>2086</ele>
        <time>2025-07-22T08:09:16Z</time>
      </trkpt>
      <trkpt lat="42.90835" lon="0.14526">
        <ele>2086.2</ele>
        <time>2025-07-22T08:09:18Z</time>
      </trkpt>
      <trkpt lat="42.9084" lon="0.14536">
        <ele>2086.6</ele>
        <time>2025-07-22T08:09:22Z</time>
      </trkpt>
      <trkpt lat="42.90846" lon="0.14549">
        <ele>2086.8</ele>
        <time>2025-07-22T08:09:26Z</time>
      </trkpt>
      <trkpt lat="42.90858" lon="0.14577">
        <ele>2085.8</ele>
        <time>2025-07-22T08:09:33Z</time>
      </trkpt>
      <trkpt lat="42.9086" lon="0.14586">
        <ele>2085.2</ele>
        <time>2025-07-22T08:09:35Z</time>
      </trkpt>
      <trkpt lat="42.90862" lon="0.14597">
        <ele>2083.8</ele>
        <time>2025-07-22T08:09:38Z</time>
      </trkpt>
      <trkpt lat="42.90865" lon="0.14606">
        <ele>2083</ele>
        <time>2025-07-22T08:09:41Z</time>
      </trkpt>
      <trkpt lat="42.90866" lon="0.14609">
        <ele>2082.2</ele>
        <time>2025-07-22T08:09:42Z</time>
      </trkpt>
      <trkpt lat="42.90867" lon="0.14623">
        <ele>2081</ele>
        <time>2025-07-22T08:09:47Z</time>
      </trkpt>
      <trkpt lat="42.90868" lon="0.14626">
        <ele>2079.8</ele>
        <time>2025-07-22T08:09:52Z</time>
      </trkpt>
      <trkpt lat="42.90868" lon="0.14626">
        <ele>2080</ele>
        <time>2025-07-22T08:09:53Z</time>
      </trkpt>
      <trkpt lat="42.90863" lon="0.1462">
        <ele>2080</ele>
        <time>2025-07-22T08:13:07Z</time>
      </trkpt>
      <trkpt lat="42.90859" lon="0.14621">
        <ele>2080</ele>
        <time>2025-07-22T08:13:10Z</time>
      </trkpt>
      <trkpt lat="42.90855" lon="0.14626">
        <ele>2079.8</ele>
        <time>2025-07-22T08:13:14Z</time>
      </trkpt>
      <trkpt lat="42.90854" lon="0.14626">
        <ele>2079.4</ele>
        <time>2025-07-22T08:13:15Z</time>
      </trkpt>
      <trkpt lat="42.90854" lon="0.14626">
        <ele>2078.8</ele>
        <time>2025-07-22T08:13:19Z</time>
      </trkpt>
      <trkpt lat="42.90856" lon="0.14619">
        <ele>2078.6</ele>
        <time>2025-07-22T08:15:43Z</time>
      </trkpt>
      <trkpt lat="42.90857" lon="0.14616">
        <ele>2078.6</ele>
        <time>2025-07-22T08:15:44Z</time>
      </trkpt>
      <trkpt lat="42.90862" lon="0.14606">
        <ele>2079.2</ele>
        <time>2025-07-22T08:15:47Z</time>
      </trkpt>
      <trkpt lat="42.90864" lon="0.14596">
        <ele>2080</ele>
        <time>2025-07-22T08:15:50Z</time>
      </trkpt>
      <trkpt lat="42.90864" lon="0.14593">
        <ele>2080.4</ele>
        <time>2025-07-22T08:15:51Z</time>
      </trkpt>
      <trkpt lat="42.90864" lon="0.14583">
        <ele>2081.4</ele>
        <time>2025-07-22T08:15:54Z</time>
      </trkpt>
      <trkpt lat="42.90862" lon="0.14573">
        <ele>2082.6</ele>
        <time>2025-07-22T08:15:57Z</time>
      </trkpt>
      <trkpt lat="42.90857" lon="0.14559">
        <ele>2083.4</ele>
        <time>2025-07-22T08:16:01Z</time>
      </trkpt>
      <trkpt lat="42.90853" lon="0.1455">
        <ele>2084.6</ele>
        <time>2025-07-22T08:16:04Z</time>
      </trkpt>
      <trkpt lat="42.90851" lon="0.14547">
        <ele>2085.2</ele>
        <time>2025-07-22T08:16:05Z</time>
      </trkpt>
      <trkpt lat="42.90849" lon="0.14541">
        <ele>2085.8</ele>
        <time>2025-07-22T08:16:07Z</time>
      </trkpt>
      <trkpt lat="42.90843" lon="0.14531">
        <ele>2087</ele>
        <time>2025-07-22T08:16:11Z</time>
      </trkpt>
      <trkpt lat="42.9084" lon="0.14524">
        <ele>2087.8</ele>
        <time>2025-07-22T08:16:14Z</time>
      </trkpt>
      <trkpt lat="42.90839" lon="0.14523">
        <ele>2088</ele>
        <time>2025-07-22T08:16:15Z</time>
      </trkpt>
      <trkpt lat="42.90826" lon="0.14513">
        <ele>2088.8</ele>
        <time>2025-07-22T08:16:22Z</time>
      </trkpt>
      <trkpt lat="42.90818" lon="0.14503">
        <ele>2088.4</ele>
        <time>2025-07-22T08:16:28Z</time>
      </trkpt>
      <trkpt lat="42.90818" lon="0.14502">
        <ele>2087.8</ele>
        <time>2025-07-22T08:16:31Z</time>
      </trkpt>
      <trkpt lat="42.90814" lon="0.14504">
        <ele>2085</ele>
        <time>2025-07-22T08:21:02Z</time>
      </trkpt>
      <trkpt lat="42.90798" lon="0.14511">
        <ele>2085</ele>
        <time>2025-07-22T08:21:08Z</time>
      </trkpt>
      <trkpt lat="42.90783" lon="0.14518">
        <ele>2084.6</ele>
        <time>2025-07-22T08:21:12Z</time>
      </trkpt>
      <trkpt lat="42.90769" lon="0.14516">
        <ele>2084.4</ele>
        <time>2025-07-22T08:21:15Z</time>
      </trkpt>
      <trkpt lat="42.90758" lon="0.14513">
        <ele>2083.6</ele>
        <time>2025-07-22T08:21:17Z</time>
      </trkpt>
      <trkpt lat="42.90741" lon="0.14509">
        <ele>2082.8</ele>
        <time>2025-07-22T08:21:20Z</time>
      </trkpt>
      <trkpt lat="42.90733" lon="0.1451">
        <ele>2082.4</ele>
        <time>2025-07-22T08:21:21Z</time>
      </trkpt>
      <trkpt lat="42.90719" lon="0.14512">
        <ele>2081.2</ele>
        <time>2025-07-22T08:21:23Z</time>
      </trkpt>
      <trkpt lat="42.90706" lon="0.14514">
        <ele>2079.8</ele>
        <time>2025-07-22T08:21:25Z</time>
      </trkpt>
      <trkpt lat="42.90692" lon="0.14518">
        <ele>2078.4</ele>
        <time>2025-07-22T08:21:27Z</time>
      </trkpt>
      <trkpt lat="42.90686" lon="0.14521">
        <ele>2077.6</ele>
        <time>2025-07-22T08:21:28Z</time>
      </trkpt>
      <trkpt lat="42.90681" lon="0.14526">
        <ele>2077</ele>
        <time>2025-07-22T08:21:29Z</time>
      </trkpt>
      <trkpt lat="42.90677" lon="0.14533">
        <ele>2075.8</ele>
        <time>2025-07-22T08:21:30Z</time>
      </trkpt>
      <trkpt lat="42.90673" lon="0.1454">
        <ele>2074.8</ele>
        <time>2025-07-22T08:21:31Z</time>
      </trkpt>
      <trkpt lat="42.90669" lon="0.14548">
        <ele>2074.2</ele>
        <time>2025-07-22T08:21:32Z</time>
      </trkpt>
      <trkpt lat="42.90665" lon="0.14554">
        <ele>2072.8</ele>
        <time>2025-07-22T08:21:33Z</time>
      </trkpt>
      <trkpt lat="42.90655" lon="0.14564">
        <ele>2071.2</ele>
        <time>2025-07-22T08:21:35Z</time>
      </trkpt>
      <trkpt lat="42.90648" lon="0.14569">
        <ele>2070.2</ele>
        <time>2025-07-22T08:21:36Z</time>
      </trkpt>
      <trkpt lat="42.90636" lon="0.14578">
        <ele>2068.6</ele>
        <time>2025-07-22T08:21:38Z</time>
      </trkpt>
      <trkpt lat="42.9063" lon="0.14583">
        <ele>2068</ele>
        <time>2025-07-22T08:21:39Z</time>
      </trkpt>
      <trkpt lat="42.90624" lon="0.14589">
        <ele>2067</ele>
        <time>2025-07-22T08:21:40Z</time>
      </trkpt>
      <trkpt lat="42.90617" lon="0.14596">
        <ele>2066.4</ele>
        <time>2025-07-22T08:21:41Z</time>
      </trkpt>
      <trkpt lat="42.90611" lon="0.14604">
        <ele>2065.6</ele>
        <time>2025-07-22T08:21:42Z</time>
      </trkpt>
      <trkpt lat="42.90597" lon="0.14622">
        <ele>2064.4</ele>
        <time>2025-07-22T08:21:44Z</time>
      </trkpt>
      <trkpt lat="42.9059" lon="0.14631">
        <ele>2063.8</ele>
        <time>2025-07-22T08:21:45Z</time>
      </trkpt>
      <trkpt lat="42.90575" lon="0.14647">
        <ele>2062.4</ele>
        <time>2025-07-22T08:21:47Z</time>
      </trkpt>
      <trkpt lat="42.90568" lon="0.14653">
        <ele>2061.8</ele>
        <time>2025-07-22T08:21:48Z</time>
      </trkpt>
      <trkpt lat="42.9056" lon="0.14657">
        <ele>2061</ele>
        <time>2025-07-22T08:21:49Z</time>
      </trkpt>
      <trkpt lat="42.90555" lon="0.1466">
        <ele>2059.8</ele>
        <time>2025-07-22T08:21:50Z</time>
      </trkpt>
      <trkpt lat="42.9054" lon="0.14668">
        <ele>2058</ele>
        <time>2025-07-22T08:21:52Z</time>
      </trkpt>
      <trkpt lat="42.90535" lon="0.1467">
        <ele>2057.4</ele>
        <time>2025-07-22T08:21:53Z</time>
      </trkpt>
      <trkpt lat="42.90529" lon="0.14671">
        <ele>2056.4</ele>
        <time>2025-07-22T08:21:54Z</time>
      </trkpt>
      <trkpt lat="42.90525" lon="0.14671">
        <ele>2056</ele>
        <time>2025-07-22T08:21:55Z</time>
      </trkpt>
      <trkpt lat="42.90521" lon="0.14667">
        <ele>2054.6</ele>
        <time>2025-07-22T08:21:56Z</time>
      </trkpt>
      <trkpt lat="42.9052" lon="0.14661">
        <ele>2052.8</ele>
        <time>2025-07-22T08:21:57Z</time>
      </trkpt>
      <trkpt lat="42.90522" lon="0.14655">
        <ele>2052.4</ele>
        <time>2025-07-22T08:21:58Z</time>
      </trkpt>
      <trkpt lat="42.90526" lon="0.1465">
        <ele>2051.4</ele>
        <time>2025-07-22T08:21:59Z</time>
      </trkpt>
      <trkpt lat="42.9054" lon="0.14645">
        <ele>2050</ele>
        <time>2025-07-22T08:22:01Z</time>
      </trkpt>
      <trkpt lat="42.90547" lon="0.14642">
        <ele>2049.2</ele>
        <time>2025-07-22T08:22:02Z</time>
      </trkpt>
      <trkpt lat="42.90554" lon="0.14637">
        <ele>2048.4</ele>
        <time>2025-07-22T08:22:03Z</time>
      </trkpt>
      <trkpt lat="42.90561" lon="0.1463">
        <ele>2047.2</ele>
        <time>2025-07-22T08:22:04Z</time>
      </trkpt>
      <trkpt lat="42.90577" lon="0.14604">
        <ele>2046</ele>
        <time>2025-07-22T08:22:07Z</time>
      </trkpt>
      <trkpt lat="42.90588" lon="0.14585">
        <ele>2044.4</ele>
        <time>2025-07-22T08:22:09Z</time>
      </trkpt>
      <trkpt lat="42.90596" lon="0.14562">
        <ele>2043.4</ele>
        <time>2025-07-22T08:22:11Z</time>
      </trkpt>
      <trkpt lat="42.90602" lon="0.14539">
        <ele>2041.8</ele>
        <time>2025-07-22T08:22:13Z</time>
      </trkpt>
      <trkpt lat="42.90608" lon="0.14521">
        <ele>2040.4</ele>
        <time>2025-07-22T08:22:15Z</time>
      </trkpt>
      <trkpt lat="42.90611" lon="0.14513">
        <ele>2039.2</ele>
        <time>2025-07-22T08:22:16Z</time>
      </trkpt>
      <trkpt lat="42.90614" lon="0.14506">
        <ele>2038.4</ele>
        <time>2025-07-22T08:22:17Z</time>
      </trkpt>
      <trkpt lat="42.90618" lon="0.14499">
        <ele>2037.2</ele>
        <time>2025-07-22T08:22:18Z</time>
      </trkpt>
      <trkpt lat="42.90625" lon="0.14483">
        <ele>2035.6</ele>
        <time>2025-07-22T08:22:20Z</time>
      </trkpt>
      <trkpt lat="42.90629" lon="0.14474">
        <ele>2035.2</ele>
        <time>2025-07-22T08:22:21Z</time>
      </trkpt>
      <trkpt lat="42.90634" lon="0.14467">
        <ele>2034.2</ele>
        <time>2025-07-22T08:22:22Z</time>
      </trkpt>
      <trkpt lat="42.9064" lon="0.14461">
        <ele>2033.4</ele>
        <time>2025-07-22T08:22:23Z</time>
      </trkpt>
      <trkpt lat="42.90648" lon="0.14457">
        <ele>2033</ele>
        <time>2025-07-22T08:22:24Z</time>
      </trkpt>
      <trkpt lat="42.90663" lon="0.1445">
        <ele>2031.6</ele>
        <time>2025-07-22T08:22:26Z</time>
      </trkpt>
      <trkpt lat="42.90671" lon="0.14445">
        <ele>2030.8</ele>
        <time>2025-07-22T08:22:27Z</time>
      </trkpt>
      <trkpt lat="42.90679" lon="0.14441">
        <ele>2029.6</ele>
        <time>2025-07-22T08:22:28Z</time>
      </trkpt>
      <trkpt lat="42.90695" lon="0.14432">
        <ele>2028.2</ele>
        <time>2025-07-22T08:22:30Z</time>
      </trkpt>
      <trkpt lat="42.9071" lon="0.14421">
        <ele>2027.2</ele>
        <time>2025-07-22T08:22:32Z</time>
      </trkpt>
      <trkpt lat="42.90717" lon="0.14415">
        <ele>2026.6</ele>
        <time>2025-07-22T08:22:33Z</time>
      </trkpt>
      <trkpt lat="42.90725" lon="0.14409">
        <ele>2025.8</ele>
        <time>2025-07-22T08:22:34Z</time>
      </trkpt>
      <trkpt lat="42.90738" lon="0.14399">
        <ele>2024.8</ele>
        <time>2025-07-22T08:22:36Z</time>
      </trkpt>
      <trkpt lat="42.90745" lon="0.14392">
        <ele>2023.6</ele>
        <time>2025-07-22T08:22:37Z</time>
      </trkpt>
      <trkpt lat="42.9075" lon="0.14384">
        <ele>2023.2</ele>
        <time>2025-07-22T08:22:38Z</time>
      </trkpt>
      <trkpt lat="42.90753" lon="0.14374">
        <ele>2022.6</ele>
        <time>2025-07-22T08:22:39Z</time>
      </trkpt>
      <trkpt lat="42.90754" lon="0.14362">
        <ele>2022.2</ele>
        <time>2025-07-22T08:22:40Z</time>
      </trkpt>
      <trkpt lat="42.90753" lon="0.14351">
        <ele>2021</ele>
        <time>2025-07-22T08:22:41Z</time>
      </trkpt>
      <trkpt lat="42.90751" lon="0.14326">
        <ele>2019.6</ele>
        <time>2025-07-22T08:22:43Z</time>
      </trkpt>
      <trkpt lat="42.90748" lon="0.14315">
        <ele>2018.6</ele>
        <time>2025-07-22T08:22:44Z</time>
      </trkpt>
      <trkpt lat="42.90741" lon="0.14294">
        <ele>2017</ele>
        <time>2025-07-22T08:22:46Z</time>
      </trkpt>
      <trkpt lat="42.90733" lon="0.14275">
        <ele>2015.4</ele>
        <time>2025-07-22T08:22:48Z</time>
      </trkpt>
      <trkpt lat="42.90729" lon="0.14265">
        <ele>2014.4</ele>
        <time>2025-07-22T08:22:49Z</time>
      </trkpt>
      <trkpt lat="42.90724" lon="0.14241">
        <ele>2012.8</ele>
        <time>2025-07-22T08:22:51Z</time>
      </trkpt>
      <trkpt lat="42.90726" lon="0.14217">
        <ele>2011.2</ele>
        <time>2025-07-22T08:22:53Z</time>
      </trkpt>
      <trkpt lat="42.90728" lon="0.14205">
        <ele>2009.2</ele>
        <time>2025-07-22T08:22:54Z</time>
      </trkpt>
      <trkpt lat="42.90733" lon="0.14181">
        <ele>2007.4</ele>
        <time>2025-07-22T08:22:56Z</time>
      </trkpt>
      <trkpt lat="42.9074" lon="0.14158">
        <ele>2005.8</ele>
        <time>2025-07-22T08:22:58Z</time>
      </trkpt>
      <trkpt lat="42.90742" lon="0.14147">
        <ele>2005.2</ele>
        <time>2025-07-22T08:22:59Z</time>
      </trkpt>
      <trkpt lat="42.90745" lon="0.14137">
        <ele>2003.8</ele>
        <time>2025-07-22T08:23:00Z</time>
      </trkpt>
      <trkpt lat="42.90753" lon="0.14119">
        <ele>2002.4</ele>
        <time>2025-07-22T08:23:02Z</time>
      </trkpt>
      <trkpt lat="42.90758" lon="0.14112">
        <ele>2001.2</ele>
        <time>2025-07-22T08:23:03Z</time>
      </trkpt>
      <trkpt lat="42.90767" lon="0.14098">
        <ele>1999.6</ele>
        <time>2025-07-22T08:23:05Z</time>
      </trkpt>
      <trkpt lat="42.90772" lon="0.1409">
        <ele>1998.4</ele>
        <time>2025-07-22T08:23:06Z</time>
      </trkpt>
      <trkpt lat="42.90777" lon="0.14083">
        <ele>1997.8</ele>
        <time>2025-07-22T08:23:07Z</time>
      </trkpt>
      <trkpt lat="42.90783" lon="0.14077">
        <ele>1996.8</ele>
        <time>2025-07-22T08:23:08Z</time>
      </trkpt>
      <trkpt lat="42.90795" lon="0.14066">
        <ele>1995.4</ele>
        <time>2025-07-22T08:23:10Z</time>
      </trkpt>
      <trkpt lat="42.908" lon="0.14059">
        <ele>1995</ele>
        <time>2025-07-22T08:23:11Z</time>
      </trkpt>
      <trkpt lat="42.90805" lon="0.14052">
        <ele>1993.8</ele>
        <time>2025-07-22T08:23:12Z</time>
      </trkpt>
      <trkpt lat="42.90816" lon="0.14037">
        <ele>1992.6</ele>
        <time>2025-07-22T08:23:14Z</time>
      </trkpt>
      <trkpt lat="42.90829" lon="0.14026">
        <ele>1990.8</ele>
        <time>2025-07-22T08:23:16Z</time>
      </trkpt>
      <trkpt lat="42.90835" lon="0.14021">
        <ele>1989.8</ele>
        <time>2025-07-22T08:23:17Z</time>
      </trkpt>
      <trkpt lat="42.90848" lon="0.14011">
        <ele>1988.2</ele>
        <time>2025-07-22T08:23:19Z</time>
      </trkpt>
      <trkpt lat="42.90853" lon="0.14006">
        <ele>1987.2</ele>
        <time>2025-07-22T08:23:20Z</time>
      </trkpt>
      <trkpt lat="42.90857" lon="0.14001">
        <ele>1986.6</ele>
        <time>2025-07-22T08:23:21Z</time>
      </trkpt>
      <trkpt lat="42.90865" lon="0.13991">
        <ele>1985.2</ele>
        <time>2025-07-22T08:23:23Z</time>
      </trkpt>
      <trkpt lat="42.90873" lon="0.13981">
        <ele>1983.8</ele>
        <time>2025-07-22T08:23:25Z</time>
      </trkpt>
      <trkpt lat="42.90882" lon="0.13971">
        <ele>1982.6</ele>
        <time>2025-07-22T08:23:27Z</time>
      </trkpt>
      <trkpt lat="42.90887" lon="0.13965">
        <ele>1982.2</ele>
        <time>2025-07-22T08:23:28Z</time>
      </trkpt>
      <trkpt lat="42.90893" lon="0.1396">
        <ele>1981.4</ele>
        <time>2025-07-22T08:23:29Z</time>
      </trkpt>
      <trkpt lat="42.90905" lon="0.13952">
        <ele>1980</ele>
        <time>2025-07-22T08:23:31Z</time>
      </trkpt>
      <trkpt lat="42.90911" lon="0.13949">
        <ele>1979</ele>
        <time>2025-07-22T08:23:32Z</time>
      </trkpt>
      <trkpt lat="42.90917" lon="0.13946">
        <ele>1978.8</ele>
        <time>2025-07-22T08:23:33Z</time>
      </trkpt>
      <trkpt lat="42.90923" lon="0.13944">
        <ele>1977.6</ele>
        <time>2025-07-22T08:23:34Z</time>
      </trkpt>
      <trkpt lat="42.90936" lon="0.13942">
        <ele>1976.4</ele>
        <time>2025-07-22T08:23:36Z</time>
      </trkpt>
      <trkpt lat="42.90942" lon="0.13941">
        <ele>1976.2</ele>
        <time>2025-07-22T08:23:37Z</time>
      </trkpt>
      <trkpt lat="42.90948" lon="0.1394">
        <ele>1975.4</ele>
        <time>2025-07-22T08:23:38Z</time>
      </trkpt>
      <trkpt lat="42.90954" lon="0.1394">
        <ele>1974.4</ele>
        <time>2025-07-22T08:23:39Z</time>
      </trkpt>
      <trkpt lat="42.9096" lon="0.13941">
        <ele>1974</ele>
        <time>2025-07-22T08:23:40Z</time>
      </trkpt>
      <trkpt lat="42.90971" lon="0.13943">
        <ele>1972.6</ele>
        <time>2025-07-22T08:23:42Z</time>
      </trkpt>
      <trkpt lat="42.90983" lon="0.13945">
        <ele>1971.2</ele>
        <time>2025-07-22T08:23:44Z</time>
      </trkpt>
      <trkpt lat="42.90988" lon="0.13944">
        <ele>1970.8</ele>
        <time>2025-07-22T08:23:45Z</time>
      </trkpt>
      <trkpt lat="42.90993" lon="0.13944">
        <ele>1970.2</ele>
        <time>2025-07-22T08:23:46Z</time>
      </trkpt>
      <trkpt lat="42.91004" lon="0.13941">
        <ele>1968.8</ele>
        <time>2025-07-22T08:23:48Z</time>
      </trkpt>
      <trkpt lat="42.91015" lon="0.13939">
        <ele>1967.8</ele>
        <time>2025-07-22T08:23:50Z</time>
      </trkpt>
      <trkpt lat="42.91028" lon="0.1394">
        <ele>1966.6</ele>
        <time>2025-07-22T08:23:52Z</time>
      </trkpt>
      <trkpt lat="42.91035" lon="0.1394">
        <ele>1965.8</ele>
        <time>2025-07-22T08:23:53Z</time>
      </trkpt>
      <trkpt lat="42.91041" lon="0.13941">
        <ele>1965.4</ele>
        <time>2025-07-22T08:23:54Z</time>
      </trkpt>
      <trkpt lat="42.91054" lon="0.13943">
        <ele>1964.4</ele>
        <time>2025-07-22T08:23:56Z</time>
      </trkpt>
      <trkpt lat="42.91066" lon="0.13947">
        <ele>1962.4</ele>
        <time>2025-07-22T08:23:58Z</time>
      </trkpt>
      <trkpt lat="42.91078" lon="0.13951">
        <ele>1961.4</ele>
        <time>2025-07-22T08:24:00Z</time>
      </trkpt>
      <trkpt lat="42.9109" lon="0.13954">
        <ele>1959.8</ele>
        <time>2025-07-22T08:24:02Z</time>
      </trkpt>
      <trkpt lat="42.91108" lon="0.13956">
        <ele>1957.8</ele>
        <time>2025-07-22T08:24:05Z</time>
      </trkpt>
      <trkpt lat="42.91118" lon="0.13958">
        <ele>1956.6</ele>
        <time>2025-07-22T08:24:07Z</time>
      </trkpt>
      <trkpt lat="42.91126" lon="0.13956">
        <ele>1955.8</ele>
        <time>2025-07-22T08:24:09Z</time>
      </trkpt>
      <trkpt lat="42.9113" lon="0.13954">
        <ele>1955.2</ele>
        <time>2025-07-22T08:24:10Z</time>
      </trkpt>
      <trkpt lat="42.91137" lon="0.13948">
        <ele>1954.6</ele>
        <time>2025-07-22T08:24:12Z</time>
      </trkpt>
      <trkpt lat="42.9114" lon="0.13942">
        <ele>1954.4</ele>
        <time>2025-07-22T08:24:13Z</time>
      </trkpt>
      <trkpt lat="42.91145" lon="0.13929">
        <ele>1954</ele>
        <time>2025-07-22T08:24:15Z</time>
      </trkpt>
      <trkpt lat="42.91152" lon="0.13913">
        <ele>1953.6</ele>
        <time>2025-07-22T08:24:17Z</time>
      </trkpt>
      <trkpt lat="42.91159" lon="0.13897">
        <ele>1952.4</ele>
        <time>2025-07-22T08:24:19Z</time>
      </trkpt>
      <trkpt lat="42.91166" lon="0.13884">
        <ele>1951.4</ele>
        <time>2025-07-22T08:24:21Z</time>
      </trkpt>
      <trkpt lat="42.91168" lon="0.13879">
        <ele>1950.6</ele>
        <time>2025-07-22T08:24:22Z</time>
      </trkpt>
      <trkpt lat="42.91171" lon="0.13874">
        <ele>1950.2</ele>
        <time>2025-07-22T08:24:23Z</time>
      </trkpt>
      <trkpt lat="42.91173" lon="0.13869">
        <ele>1949</ele>
        <time>2025-07-22T08:24:24Z</time>
      </trkpt>
      <trkpt lat="42.91179" lon="0.13861">
        <ele>1947.8</ele>
        <time>2025-07-22T08:24:26Z</time>
      </trkpt>
      <trkpt lat="42.91186" lon="0.13854">
        <ele>1946.8</ele>
        <time>2025-07-22T08:24:28Z</time>
      </trkpt>
      <trkpt lat="42.91195" lon="0.1385">
        <ele>1945.4</ele>
        <time>2025-07-22T08:24:30Z</time>
      </trkpt>
      <trkpt lat="42.91205" lon="0.13847">
        <ele>1944.6</ele>
        <time>2025-07-22T08:24:32Z</time>
      </trkpt>
      <trkpt lat="42.91211" lon="0.13845">
        <ele>1943.8</ele>
        <time>2025-07-22T08:24:33Z</time>
      </trkpt>
      <trkpt lat="42.9123" lon="0.13838">
        <ele>1942</ele>
        <time>2025-07-22T08:24:36Z</time>
      </trkpt>
      <trkpt lat="42.91236" lon="0.13834">
        <ele>1941.6</ele>
        <time>2025-07-22T08:24:37Z</time>
      </trkpt>
      <trkpt lat="42.91243" lon="0.1383">
        <ele>1940.8</ele>
        <time>2025-07-22T08:24:38Z</time>
      </trkpt>
      <trkpt lat="42.91256" lon="0.13821">
        <ele>1939.6</ele>
        <time>2025-07-22T08:24:40Z</time>
      </trkpt>
      <trkpt lat="42.91261" lon="0.13816">
        <ele>1938.6</ele>
        <time>2025-07-22T08:24:41Z</time>
      </trkpt>
      <trkpt lat="42.91265" lon="0.13811">
        <ele>1938.2</ele>
        <time>2025-07-22T08:24:42Z</time>
      </trkpt>
      <trkpt lat="42.91269" lon="0.13805">
        <ele>1937.4</ele>
        <time>2025-07-22T08:24:43Z</time>
      </trkpt>
      <trkpt lat="42.91279" lon="0.13788">
        <ele>1935.6</ele>
        <time>2025-07-22T08:24:46Z</time>
      </trkpt>
      <trkpt lat="42.91289" lon="0.13771">
        <ele>1934.4</ele>
        <time>2025-07-22T08:24:49Z</time>
      </trkpt>
      <trkpt lat="42.91292" lon="0.13765">
        <ele>1933.6</ele>
        <time>2025-07-22T08:24:50Z</time>
      </trkpt>
      <trkpt lat="42.91295" lon="0.13759">
        <ele>1933.2</ele>
        <time>2025-07-22T08:24:51Z</time>
      </trkpt>
      <trkpt lat="42.91298" lon="0.13753">
        <ele>1932.6</ele>
        <time>2025-07-22T08:24:52Z</time>
      </trkpt>
      <trkpt lat="42.91301" lon="0.13749">
        <ele>1932.2</ele>
        <time>2025-07-22T08:24:53Z</time>
      </trkpt>
      <trkpt lat="42.91307" lon="0.13744">
        <ele>1931</ele>
        <time>2025-07-22T08:24:55Z</time>
      </trkpt>
      <trkpt lat="42.91309" lon="0.13742">
        <ele>1930.6</ele>
        <time>2025-07-22T08:24:56Z</time>
      </trkpt>
      <trkpt lat="42.91312" lon="0.1374">
        <ele>1929.8</ele>
        <time>2025-07-22T08:24:57Z</time>
      </trkpt>
      <trkpt lat="42.91317" lon="0.13737">
        <ele>1928.8</ele>
        <time>2025-07-22T08:24:59Z</time>
      </trkpt>
      <trkpt lat="42.91328" lon="0.13728">
        <ele>1927.4</ele>
        <time>2025-07-22T08:25:02Z</time>
      </trkpt>
      <trkpt lat="42.91333" lon="0.13722">
        <ele>1927.2</ele>
        <time>2025-07-22T08:25:03Z</time>
      </trkpt>
      <trkpt lat="42.91337" lon="0.13716">
        <ele>1927</ele>
        <time>2025-07-22T08:25:04Z</time>
      </trkpt>
      <trkpt lat="42.9134" lon="0.137">
        <ele>1926.6</ele>
        <time>2025-07-22T08:25:06Z</time>
      </trkpt>
      <trkpt lat="42.91339" lon="0.13692">
        <ele>1926.2</ele>
        <time>2025-07-22T08:25:07Z</time>
      </trkpt>
      <trkpt lat="42.91335" lon="0.13685">
        <ele>1925.8</ele>
        <time>2025-07-22T08:25:08Z</time>
      </trkpt>
      <trkpt lat="42.9133" lon="0.13681">
        <ele>1925</ele>
        <time>2025-07-22T08:25:09Z</time>
      </trkpt>
      <trkpt lat="42.91324" lon="0.13679">
        <ele>1924.6</ele>
        <time>2025-07-22T08:25:10Z</time>
      </trkpt>
      <trkpt lat="42.91318" lon="0.13678">
        <ele>1923.8</ele>
        <time>2025-07-22T08:25:11Z</time>
      </trkpt>
      <trkpt lat="42.91311" lon="0.13681">
        <ele>1923</ele>
        <time>2025-07-22T08:25:12Z</time>
      </trkpt>
      <trkpt lat="42.91305" lon="0.13685">
        <ele>1922.4</ele>
        <time>2025-07-22T08:25:13Z</time>
      </trkpt>
      <trkpt lat="42.91299" lon="0.13691">
        <ele>1921.6</ele>
        <time>2025-07-22T08:25:14Z</time>
      </trkpt>
      <trkpt lat="42.91293" lon="0.13698">
        <ele>1921.4</ele>
        <time>2025-07-22T08:25:15Z</time>
      </trkpt>
      <trkpt lat="42.91288" lon="0.13706">
        <ele>1920.6</ele>
        <time>2025-07-22T08:25:16Z</time>
      </trkpt>
      <trkpt lat="42.91277" lon="0.13728">
        <ele>1919.6</ele>
        <time>2025-07-22T08:25:19Z</time>
      </trkpt>
      <trkpt lat="42.91271" lon="0.13742">
        <ele>1918.6</ele>
        <time>2025-07-22T08:25:21Z</time>
      </trkpt>
      <trkpt lat="42.91268" lon="0.13748">
        <ele>1918.4</ele>
        <time>2025-07-22T08:25:22Z</time>
      </trkpt>
      <trkpt lat="42.91264" lon="0.13753">
        <ele>1918.2</ele>
        <time>2025-07-22T08:25:23Z</time>
      </trkpt>
      <trkpt lat="42.9126" lon="0.13758">
        <ele>1917.8</ele>
        <time>2025-07-22T08:25:24Z</time>
      </trkpt>
      <trkpt lat="42.91251" lon="0.13768">
        <ele>1917.4</ele>
        <time>2025-07-22T08:25:26Z</time>
      </trkpt>
      <trkpt lat="42.91239" lon="0.13776">
        <ele>1917.2</ele>
        <time>2025-07-22T08:25:28Z</time>
      </trkpt>
      <trkpt lat="42.91233" lon="0.13779">
        <ele>1917</ele>
        <time>2025-07-22T08:25:29Z</time>
      </trkpt>
      <trkpt lat="42.91219" lon="0.13784">
        <ele>1916.6</ele>
        <time>2025-07-22T08:25:31Z</time>
      </trkpt>
      <trkpt lat="42.91205" lon="0.13786">
        <ele>1916.2</ele>
        <time>2025-07-22T08:25:33Z</time>
      </trkpt>
      <trkpt lat="42.91199" lon="0.13786">
        <ele>1916.2</ele>
        <time>2025-07-22T08:25:34Z</time>
      </trkpt>
      <trkpt lat="42.9117" lon="0.13787">
        <ele>1915.4</ele>
        <time>2025-07-22T08:25:38Z</time>
      </trkpt>
      <trkpt lat="42.91163" lon="0.13789">
        <ele>1915.2</ele>
        <time>2025-07-22T08:25:39Z</time>
      </trkpt>
      <trkpt lat="42.91152" lon="0.13799">
        <ele>1914.8</ele>
        <time>2025-07-22T08:25:41Z</time>
      </trkpt>
      <trkpt lat="42.91145" lon="0.13806">
        <ele>1914.6</ele>
        <time>2025-07-22T08:25:42Z</time>
      </trkpt>
      <trkpt lat="42.91126" lon="0.1383">
        <ele>1914.2</ele>
        <time>2025-07-22T08:25:45Z</time>
      </trkpt>
      <trkpt lat="42.91109" lon="0.13852">
        <ele>1913.4</ele>
        <time>2025-07-22T08:25:48Z</time>
      </trkpt>
      <trkpt lat="42.91105" lon="0.13857">
        <ele>1913.2</ele>
        <time>2025-07-22T08:25:49Z</time>
      </trkpt>
      <trkpt lat="42.911" lon="0.13859">
        <ele>1912.8</ele>
        <time>2025-07-22T08:25:50Z</time>
      </trkpt>
      <trkpt lat="42.91095" lon="0.13857">
        <ele>1912.6</ele>
        <time>2025-07-22T08:25:51Z</time>
      </trkpt>
      <trkpt lat="42.91091" lon="0.13853">
        <ele>1912.6</ele>
        <time>2025-07-22T08:25:52Z</time>
      </trkpt>
      <trkpt lat="42.91087" lon="0.13848">
        <ele>1912.2</ele>
        <time>2025-07-22T08:25:53Z</time>
      </trkpt>
      <trkpt lat="42.91084" lon="0.13841">
        <ele>1912</ele>
        <time>2025-07-22T08:25:54Z</time>
      </trkpt>
      <trkpt lat="42.91077" lon="0.13828">
        <ele>1911.4</ele>
        <time>2025-07-22T08:25:56Z</time>
      </trkpt>
      <trkpt lat="42.91068" lon="0.13815">
        <ele>1911</ele>
        <time>2025-07-22T08:25:58Z</time>
      </trkpt>
      <trkpt lat="42.91063" lon="0.1381">
        <ele>1910.6</ele>
        <time>2025-07-22T08:25:59Z</time>
      </trkpt>
      <trkpt lat="42.91057" lon="0.13806">
        <ele>1910</ele>
        <time>2025-07-22T08:26:00Z</time>
      </trkpt>
      <trkpt lat="42.91044" lon="0.13803">
        <ele>1909.4</ele>
        <time>2025-07-22T08:26:02Z</time>
      </trkpt>
      <trkpt lat="42.91031" lon="0.13803">
        <ele>1908.8</ele>
        <time>2025-07-22T08:26:04Z</time>
      </trkpt>
      <trkpt lat="42.91025" lon="0.13803">
        <ele>1908.4</ele>
        <time>2025-07-22T08:26:05Z</time>
      </trkpt>
      <trkpt lat="42.91012" lon="0.13803">
        <ele>1907.2</ele>
        <time>2025-07-22T08:26:07Z</time>
      </trkpt>
      <trkpt lat="42.91" lon="0.13801">
        <ele>1905.8</ele>
        <time>2025-07-22T08:26:09Z</time>
      </trkpt>
      <trkpt lat="42.90993" lon="0.13801">
        <ele>1905.6</ele>
        <time>2025-07-22T08:26:10Z</time>
      </trkpt>
      <trkpt lat="42.9098" lon="0.138">
        <ele>1904</ele>
        <time>2025-07-22T08:26:12Z</time>
      </trkpt>
      <trkpt lat="42.90967" lon="0.13799">
        <ele>1903</ele>
        <time>2025-07-22T08:26:14Z</time>
      </trkpt>
      <trkpt lat="42.90949" lon="0.13797">
        <ele>1901.6</ele>
        <time>2025-07-22T08:26:17Z</time>
      </trkpt>
      <trkpt lat="42.90942" lon="0.13796">
        <ele>1900.8</ele>
        <time>2025-07-22T08:26:18Z</time>
      </trkpt>
      <trkpt lat="42.90935" lon="0.13795">
        <ele>1900</ele>
        <time>2025-07-22T08:26:19Z</time>
      </trkpt>
      <trkpt lat="42.9092" lon="0.13791">
        <ele>1899</ele>
        <time>2025-07-22T08:26:21Z</time>
      </trkpt>
      <trkpt lat="42.90913" lon="0.13788">
        <ele>1898.6</ele>
        <time>2025-07-22T08:26:22Z</time>
      </trkpt>
      <trkpt lat="42.909" lon="0.13783">
        <ele>1897.4</ele>
        <time>2025-07-22T08:26:24Z</time>
      </trkpt>
      <trkpt lat="42.90891" lon="0.13781">
        <ele>1897</ele>
        <time>2025-07-22T08:26:25Z</time>
      </trkpt>
      <trkpt lat="42.90885" lon="0.1378">
        <ele>1896</ele>
        <time>2025-07-22T08:26:26Z</time>
      </trkpt>
      <trkpt lat="42.90878" lon="0.1378">
        <ele>1895.6</ele>
        <time>2025-07-22T08:26:27Z</time>
      </trkpt>
      <trkpt lat="42.90863" lon="0.13779">
        <ele>1894.6</ele>
        <time>2025-07-22T08:26:29Z</time>
      </trkpt>
      <trkpt lat="42.90849" lon="0.13779">
        <ele>1892.8</ele>
        <time>2025-07-22T08:26:31Z</time>
      </trkpt>
      <trkpt lat="42.90842" lon="0.13779">
        <ele>1892.4</ele>
        <time>2025-07-22T08:26:32Z</time>
      </trkpt>
      <trkpt lat="42.90827" lon="0.13783">
        <ele>1891.2</ele>
        <time>2025-07-22T08:26:34Z</time>
      </trkpt>
      <trkpt lat="42.90814" lon="0.13792">
        <ele>1890</ele>
        <time>2025-07-22T08:26:36Z</time>
      </trkpt>
      <trkpt lat="42.90801" lon="0.138">
        <ele>1888.2</ele>
        <time>2025-07-22T08:26:38Z</time>
      </trkpt>
      <trkpt lat="42.90788" lon="0.13808">
        <ele>1887</ele>
        <time>2025-07-22T08:26:40Z</time>
      </trkpt>
      <trkpt lat="42.90776" lon="0.13822">
        <ele>1886</ele>
        <time>2025-07-22T08:26:42Z</time>
      </trkpt>
      <trkpt lat="42.9077" lon="0.13831">
        <ele>1885.2</ele>
        <time>2025-07-22T08:26:43Z</time>
      </trkpt>
      <trkpt lat="42.90755" lon="0.13849">
        <ele>1883.8</ele>
        <time>2025-07-22T08:26:45Z</time>
      </trkpt>
      <trkpt lat="42.90746" lon="0.13855">
        <ele>1883.4</ele>
        <time>2025-07-22T08:26:46Z</time>
      </trkpt>
      <trkpt lat="42.90737" lon="0.13859">
        <ele>1882.6</ele>
        <time>2025-07-22T08:26:47Z</time>
      </trkpt>
      <trkpt lat="42.90716" lon="0.13859">
        <ele>1881.6</ele>
        <time>2025-07-22T08:26:49Z</time>
      </trkpt>
      <trkpt lat="42.90705" lon="0.13859">
        <ele>1880.6</ele>
        <time>2025-07-22T08:26:50Z</time>
      </trkpt>
      <trkpt lat="42.90684" lon="0.13864">
        <ele>1879</ele>
        <time>2025-07-22T08:26:52Z</time>
      </trkpt>
      <trkpt lat="42.90673" lon="0.13868">
        <ele>1878.4</ele>
        <time>2025-07-22T08:26:53Z</time>
      </trkpt>
      <trkpt lat="42.90662" lon="0.1387">
        <ele>1877.8</ele>
        <time>2025-07-22T08:26:54Z</time>
      </trkpt>
      <trkpt lat="42.9064" lon="0.13868">
        <ele>1876.2</ele>
        <time>2025-07-22T08:26:56Z</time>
      </trkpt>
      <trkpt lat="42.90629" lon="0.13863">
        <ele>1875.2</ele>
        <time>2025-07-22T08:26:57Z</time>
      </trkpt>
      <trkpt lat="42.90619" lon="0.13855">
        <ele>1874.8</ele>
        <time>2025-07-22T08:26:58Z</time>
      </trkpt>
      <trkpt lat="42.9061" lon="0.13847">
        <ele>1873.6</ele>
        <time>2025-07-22T08:26:59Z</time>
      </trkpt>
      <trkpt lat="42.906" lon="0.1384">
        <ele>1873.2</ele>
        <time>2025-07-22T08:27:00Z</time>
      </trkpt>
      <trkpt lat="42.9059" lon="0.13834">
        <ele>1871.6</ele>
        <time>2025-07-22T08:27:01Z</time>
      </trkpt>
      <trkpt lat="42.90579" lon="0.13828">
        <ele>1870.4</ele>
        <time>2025-07-22T08:27:02Z</time>
      </trkpt>
      <trkpt lat="42.90569" lon="0.13821">
        <ele>1870</ele>
        <time>2025-07-22T08:27:03Z</time>
      </trkpt>
      <trkpt lat="42.90559" lon="0.13812">
        <ele>1869.2</ele>
        <time>2025-07-22T08:27:04Z</time>
      </trkpt>
      <trkpt lat="42.9055" lon="0.13803">
        <ele>1868.6</ele>
        <time>2025-07-22T08:27:05Z</time>
      </trkpt>
      <trkpt lat="42.90542" lon="0.13792">
        <ele>1866.8</ele>
        <time>2025-07-22T08:27:06Z</time>
      </trkpt>
      <trkpt lat="42.90535" lon="0.1378">
        <ele>1866.2</ele>
        <time>2025-07-22T08:27:07Z</time>
      </trkpt>
      <trkpt lat="42.90529" lon="0.13768">
        <ele>1865.2</ele>
        <time>2025-07-22T08:27:08Z</time>
      </trkpt>
      <trkpt lat="42.90523" lon="0.13756">
        <ele>1863.8</ele>
        <time>2025-07-22T08:27:09Z</time>
      </trkpt>
      <trkpt lat="42.90516" lon="0.13745">
        <ele>1863.2</ele>
        <time>2025-07-22T08:27:10Z</time>
      </trkpt>
      <trkpt lat="42.90509" lon="0.13735">
        <ele>1862</ele>
        <time>2025-07-22T08:27:11Z</time>
      </trkpt>
      <trkpt lat="42.90501" lon="0.13725">
        <ele>1861.4</ele>
        <time>2025-07-22T08:27:12Z</time>
      </trkpt>
      <trkpt lat="42.90493" lon="0.13717">
        <ele>1860</ele>
        <time>2025-07-22T08:27:13Z</time>
      </trkpt>
      <trkpt lat="42.90483" lon="0.13711">
        <ele>1859</ele>
        <time>2025-07-22T08:27:14Z</time>
      </trkpt>
      <trkpt lat="42.90474" lon="0.13708">
        <ele>1858.4</ele>
        <time>2025-07-22T08:27:15Z</time>
      </trkpt>
      <trkpt lat="42.90464" lon="0.13708">
        <ele>1857.4</ele>
        <time>2025-07-22T08:27:16Z</time>
      </trkpt>
      <trkpt lat="42.90442" lon="0.13711">
        <ele>1855.6</ele>
        <time>2025-07-22T08:27:18Z</time>
      </trkpt>
      <trkpt lat="42.90419" lon="0.13708">
        <ele>1854</ele>
        <time>2025-07-22T08:27:20Z</time>
      </trkpt>
      <trkpt lat="42.90408" lon="0.13705">
        <ele>1853.2</ele>
        <time>2025-07-22T08:27:21Z</time>
      </trkpt>
      <trkpt lat="42.90397" lon="0.13701">
        <ele>1852.4</ele>
        <time>2025-07-22T08:27:22Z</time>
      </trkpt>
      <trkpt lat="42.90387" lon="0.13695">
        <ele>1851.4</ele>
        <time>2025-07-22T08:27:23Z</time>
      </trkpt>
      <trkpt lat="42.90378" lon="0.1369">
        <ele>1850.8</ele>
        <time>2025-07-22T08:27:24Z</time>
      </trkpt>
      <trkpt lat="42.90371" lon="0.13682">
        <ele>1849.2</ele>
        <time>2025-07-22T08:27:25Z</time>
      </trkpt>
      <trkpt lat="42.90365" lon="0.13673">
        <ele>1848.8</ele>
        <time>2025-07-22T08:27:26Z</time>
      </trkpt>
      <trkpt lat="42.90361" lon="0.13661">
        <ele>1847.8</ele>
        <time>2025-07-22T08:27:27Z</time>
      </trkpt>
      <trkpt lat="42.90357" lon="0.13649">
        <ele>1846.8</ele>
        <time>2025-07-22T08:27:28Z</time>
      </trkpt>
      <trkpt lat="42.90344" lon="0.13629">
        <ele>1844.8</ele>
        <time>2025-07-22T08:27:30Z</time>
      </trkpt>
      <trkpt lat="42.90335" lon="0.13622">
        <ele>1844.2</ele>
        <time>2025-07-22T08:27:31Z</time>
      </trkpt>
      <trkpt lat="42.90327" lon="0.13616">
        <ele>1843.2</ele>
        <time>2025-07-22T08:27:32Z</time>
      </trkpt>
      <trkpt lat="42.90319" lon="0.13612">
        <ele>1842</ele>
        <time>2025-07-22T08:27:33Z</time>
      </trkpt>
      <trkpt lat="42.90312" lon="0.13609">
        <ele>1841.6</ele>
        <time>2025-07-22T08:27:34Z</time>
      </trkpt>
      <trkpt lat="42.90304" lon="0.13608">
        <ele>1840.4</ele>
        <time>2025-07-22T08:27:35Z</time>
      </trkpt>
      <trkpt lat="42.90297" lon="0.13606">
        <ele>1839.8</ele>
        <time>2025-07-22T08:27:36Z</time>
      </trkpt>
      <trkpt lat="42.90291" lon="0.13601">
        <ele>1838.4</ele>
        <time>2025-07-22T08:27:37Z</time>
      </trkpt>
      <trkpt lat="42.90286" lon="0.13594">
        <ele>1837.8</ele>
        <time>2025-07-22T08:27:38Z</time>
      </trkpt>
      <trkpt lat="42.90284" lon="0.13583">
        <ele>1836.6</ele>
        <time>2025-07-22T08:27:39Z</time>
      </trkpt>
      <trkpt lat="42.90282" lon="0.13572">
        <ele>1835.6</ele>
        <time>2025-07-22T08:27:40Z</time>
      </trkpt>
      <trkpt lat="42.90277" lon="0.13548">
        <ele>1833.8</ele>
        <time>2025-07-22T08:27:42Z</time>
      </trkpt>
      <trkpt lat="42.90271" lon="0.13524">
        <ele>1832.8</ele>
        <time>2025-07-22T08:27:44Z</time>
      </trkpt>
      <trkpt lat="42.90273" lon="0.13497">
        <ele>1831.4</ele>
        <time>2025-07-22T08:27:46Z</time>
      </trkpt>
      <trkpt lat="42.90277" lon="0.13472">
        <ele>1830</ele>
        <time>2025-07-22T08:27:48Z</time>
      </trkpt>
      <trkpt lat="42.90277" lon="0.13459">
        <ele>1829.2</ele>
        <time>2025-07-22T08:27:49Z</time>
      </trkpt>
      <trkpt lat="42.90275" lon="0.13446">
        <ele>1828.6</ele>
        <time>2025-07-22T08:27:50Z</time>
      </trkpt>
      <trkpt lat="42.90266" lon="0.13423">
        <ele>1826.6</ele>
        <time>2025-07-22T08:27:52Z</time>
      </trkpt>
      <trkpt lat="42.90252" lon="0.13407">
        <ele>1825</ele>
        <time>2025-07-22T08:27:54Z</time>
      </trkpt>
      <trkpt lat="42.90236" lon="0.13397">
        <ele>1823.8</ele>
        <time>2025-07-22T08:27:56Z</time>
      </trkpt>
      <trkpt lat="42.90229" lon="0.13389">
        <ele>1823</ele>
        <time>2025-07-22T08:27:57Z</time>
      </trkpt>
      <trkpt lat="42.90225" lon="0.13379">
        <ele>1822</ele>
        <time>2025-07-22T08:27:58Z</time>
      </trkpt>
      <trkpt lat="42.90223" lon="0.13367">
        <ele>1820.6</ele>
        <time>2025-07-22T08:27:59Z</time>
      </trkpt>
      <trkpt lat="42.90219" lon="0.13341">
        <ele>1818.6</ele>
        <time>2025-07-22T08:28:01Z</time>
      </trkpt>
      <trkpt lat="42.90216" lon="0.1333">
        <ele>1818.2</ele>
        <time>2025-07-22T08:28:02Z</time>
      </trkpt>
      <trkpt lat="42.90211" lon="0.13315">
        <ele>1817.4</ele>
        <time>2025-07-22T08:28:03Z</time>
      </trkpt>
      <trkpt lat="42.90206" lon="0.13303">
        <ele>1816.2</ele>
        <time>2025-07-22T08:28:04Z</time>
      </trkpt>
      <trkpt lat="42.90196" lon="0.13281">
        <ele>1814.8</ele>
        <time>2025-07-22T08:28:06Z</time>
      </trkpt>
      <trkpt lat="42.90193" lon="0.1327">
        <ele>1814.2</ele>
        <time>2025-07-22T08:28:07Z</time>
      </trkpt>
      <trkpt lat="42.90192" lon="0.1326">
        <ele>1812.8</ele>
        <time>2025-07-22T08:28:08Z</time>
      </trkpt>
      <trkpt lat="42.90194" lon="0.1325">
        <ele>1812.2</ele>
        <time>2025-07-22T08:28:09Z</time>
      </trkpt>
      <trkpt lat="42.90198" lon="0.13242">
        <ele>1811.2</ele>
        <time>2025-07-22T08:28:10Z</time>
      </trkpt>
      <trkpt lat="42.90204" lon="0.13237">
        <ele>1810</ele>
        <time>2025-07-22T08:28:11Z</time>
      </trkpt>
      <trkpt lat="42.90212" lon="0.13234">
        <ele>1809.6</ele>
        <time>2025-07-22T08:28:12Z</time>
      </trkpt>
      <trkpt lat="42.9022" lon="0.13233">
        <ele>1808.4</ele>
        <time>2025-07-22T08:28:13Z</time>
      </trkpt>
      <trkpt lat="42.90228" lon="0.13232">
        <ele>1807.8</ele>
        <time>2025-07-22T08:28:14Z</time>
      </trkpt>
      <trkpt lat="42.90237" lon="0.13231">
        <ele>1806.6</ele>
        <time>2025-07-22T08:28:15Z</time>
      </trkpt>
      <trkpt lat="42.90263" lon="0.13224">
        <ele>1804.2</ele>
        <time>2025-07-22T08:28:18Z</time>
      </trkpt>
      <trkpt lat="42.90271" lon="0.1322">
        <ele>1803.6</ele>
        <time>2025-07-22T08:28:19Z</time>
      </trkpt>
      <trkpt lat="42.90279" lon="0.13214">
        <ele>1802.8</ele>
        <time>2025-07-22T08:28:20Z</time>
      </trkpt>
      <trkpt lat="42.90285" lon="0.13205">
        <ele>1802.2</ele>
        <time>2025-07-22T08:28:21Z</time>
      </trkpt>
      <trkpt lat="42.90292" lon="0.13194">
        <ele>1801.4</ele>
        <time>2025-07-22T08:28:22Z</time>
      </trkpt>
      <trkpt lat="42.90299" lon="0.13183">
        <ele>1800.4</ele>
        <time>2025-07-22T08:28:23Z</time>
      </trkpt>
      <trkpt lat="42.90306" lon="0.13174">
        <ele>1800.2</ele>
        <time>2025-07-22T08:28:24Z</time>
      </trkpt>
      <trkpt lat="42.90323" lon="0.13158">
        <ele>1798.8</ele>
        <time>2025-07-22T08:28:26Z</time>
      </trkpt>
      <trkpt lat="42.9033" lon="0.13149">
        <ele>1797.6</ele>
        <time>2025-07-22T08:28:27Z</time>
      </trkpt>
      <trkpt lat="42.9034" lon="0.13129">
        <ele>1796</ele>
        <time>2025-07-22T08:28:29Z</time>
      </trkpt>
      <trkpt lat="42.90341" lon="0.13104">
        <ele>1794.8</ele>
        <time>2025-07-22T08:28:31Z</time>
      </trkpt>
      <trkpt lat="42.90339" lon="0.13091">
        <ele>1793.8</ele>
        <time>2025-07-22T08:28:32Z</time>
      </trkpt>
      <trkpt lat="42.90338" lon="0.13078">
        <ele>1793.2</ele>
        <time>2025-07-22T08:28:33Z</time>
      </trkpt>
      <trkpt lat="42.90338" lon="0.13065">
        <ele>1792.2</ele>
        <time>2025-07-22T08:28:34Z</time>
      </trkpt>
      <trkpt lat="42.9034" lon="0.13053">
        <ele>1790.6</ele>
        <time>2025-07-22T08:28:35Z</time>
      </trkpt>
      <trkpt lat="42.90347" lon="0.1303">
        <ele>1788.8</ele>
        <time>2025-07-22T08:28:37Z</time>
      </trkpt>
      <trkpt lat="42.90353" lon="0.13008">
        <ele>1786.6</ele>
        <time>2025-07-22T08:28:39Z</time>
      </trkpt>
      <trkpt lat="42.90359" lon="0.12989">
        <ele>1784.8</ele>
        <time>2025-07-22T08:28:41Z</time>
      </trkpt>
      <trkpt lat="42.90365" lon="0.12972">
        <ele>1783.6</ele>
        <time>2025-07-22T08:28:43Z</time>
      </trkpt>
      <trkpt lat="42.90372" lon="0.12954">
        <ele>1782</ele>
        <time>2025-07-22T08:28:45Z</time>
      </trkpt>
      <trkpt lat="42.90376" lon="0.12943">
        <ele>1780.8</ele>
        <time>2025-07-22T08:28:46Z</time>
      </trkpt>
      <trkpt lat="42.90378" lon="0.12934">
        <ele>1780</ele>
        <time>2025-07-22T08:28:47Z</time>
      </trkpt>
      <trkpt lat="42.9038" lon="0.12924">
        <ele>1779.6</ele>
        <time>2025-07-22T08:28:48Z</time>
      </trkpt>
      <trkpt lat="42.90382" lon="0.12888">
        <ele>1778.2</ele>
        <time>2025-07-22T08:28:51Z</time>
      </trkpt>
      <trkpt lat="42.90382" lon="0.12877">
        <ele>1778</ele>
        <time>2025-07-22T08:28:52Z</time>
      </trkpt>
      <trkpt lat="42.9038" lon="0.12865">
        <ele>1776.6</ele>
        <time>2025-07-22T08:28:53Z</time>
      </trkpt>
      <trkpt lat="42.90376" lon="0.12854">
        <ele>1775.2</ele>
        <time>2025-07-22T08:28:54Z</time>
      </trkpt>
      <trkpt lat="42.90368" lon="0.12832">
        <ele>1773.6</ele>
        <time>2025-07-22T08:28:56Z</time>
      </trkpt>
      <trkpt lat="42.9036" lon="0.12798">
        <ele>1772</ele>
        <time>2025-07-22T08:28:59Z</time>
      </trkpt>
      <trkpt lat="42.9036" lon="0.12787">
        <ele>1770.8</ele>
        <time>2025-07-22T08:29:00Z</time>
      </trkpt>
      <trkpt lat="42.90362" lon="0.12775">
        <ele>1769.8</ele>
        <time>2025-07-22T08:29:01Z</time>
      </trkpt>
      <trkpt lat="42.90366" lon="0.12764">
        <ele>1769.2</ele>
        <time>2025-07-22T08:29:02Z</time>
      </trkpt>
      <trkpt lat="42.9037" lon="0.12754">
        <ele>1767.8</ele>
        <time>2025-07-22T08:29:03Z</time>
      </trkpt>
      <trkpt lat="42.90374" lon="0.12743">
        <ele>1767.4</ele>
        <time>2025-07-22T08:29:04Z</time>
      </trkpt>
      <trkpt lat="42.90376" lon="0.12731">
        <ele>1766.6</ele>
        <time>2025-07-22T08:29:05Z</time>
      </trkpt>
      <trkpt lat="42.90377" lon="0.12719">
        <ele>1765.4</ele>
        <time>2025-07-22T08:29:06Z</time>
      </trkpt>
      <trkpt lat="42.90375" lon="0.12695">
        <ele>1764</ele>
        <time>2025-07-22T08:29:08Z</time>
      </trkpt>
      <trkpt lat="42.90379" lon="0.12672">
        <ele>1762.6</ele>
        <time>2025-07-22T08:29:10Z</time>
      </trkpt>
      <trkpt lat="42.90386" lon="0.12655">
        <ele>1761.2</ele>
        <time>2025-07-22T08:29:12Z</time>
      </trkpt>
      <trkpt lat="42.90391" lon="0.12649">
        <ele>1760.2</ele>
        <time>2025-07-22T08:29:13Z</time>
      </trkpt>
      <trkpt lat="42.90396" lon="0.12646">
        <ele>1759.6</ele>
        <time>2025-07-22T08:29:14Z</time>
      </trkpt>
      <trkpt lat="42.90401" lon="0.12646">
        <ele>1758.2</ele>
        <time>2025-07-22T08:29:15Z</time>
      </trkpt>
      <trkpt lat="42.90407" lon="0.12648">
        <ele>1757.8</ele>
        <time>2025-07-22T08:29:16Z</time>
      </trkpt>
      <trkpt lat="42.90409" lon="0.12655">
        <ele>1757.2</ele>
        <time>2025-07-22T08:29:17Z</time>
      </trkpt>
      <trkpt lat="42.90409" lon="0.12663">
        <ele>1756.2</ele>
        <time>2025-07-22T08:29:18Z</time>
      </trkpt>
      <trkpt lat="42.90407" lon="0.12671">
        <ele>1755.8</ele>
        <time>2025-07-22T08:29:19Z</time>
      </trkpt>
      <trkpt lat="42.90405" lon="0.12683">
        <ele>1755</ele>
        <time>2025-07-22T08:29:20Z</time>
      </trkpt>
      <trkpt lat="42.90405" lon="0.12694">
        <ele>1754.4</ele>
        <time>2025-07-22T08:29:21Z</time>
      </trkpt>
      <trkpt lat="42.90405" lon="0.12706">
        <ele>1753.6</ele>
        <time>2025-07-22T08:29:22Z</time>
      </trkpt>
      <trkpt lat="42.90408" lon="0.12718">
        <ele>1753</ele>
        <time>2025-07-22T08:29:23Z</time>
      </trkpt>
      <trkpt lat="42.90411" lon="0.12727">
        <ele>1752</ele>
        <time>2025-07-22T08:29:24Z</time>
      </trkpt>
      <trkpt lat="42.90419" lon="0.12752">
        <ele>1750.4</ele>
        <time>2025-07-22T08:29:26Z</time>
      </trkpt>
      <trkpt lat="42.90421" lon="0.12765">
        <ele>1749.2</ele>
        <time>2025-07-22T08:29:27Z</time>
      </trkpt>
      <trkpt lat="42.90421" lon="0.12776">
        <ele>1748.8</ele>
        <time>2025-07-22T08:29:28Z</time>
      </trkpt>
      <trkpt lat="42.90422" lon="0.12791">
        <ele>1748</ele>
        <time>2025-07-22T08:29:29Z</time>
      </trkpt>
      <trkpt lat="42.90423" lon="0.12818">
        <ele>1746.8</ele>
        <time>2025-07-22T08:29:31Z</time>
      </trkpt>
      <trkpt lat="42.90425" lon="0.12842">
        <ele>1746.4</ele>
        <time>2025-07-22T08:29:33Z</time>
      </trkpt>
      <trkpt lat="42.90427" lon="0.12855">
        <ele>1745.8</ele>
        <time>2025-07-22T08:29:34Z</time>
      </trkpt>
      <trkpt lat="42.90436" lon="0.12898">
        <ele>1744.4</ele>
        <time>2025-07-22T08:29:37Z</time>
      </trkpt>
      <trkpt lat="42.90448" lon="0.12953">
        <ele>1743</ele>
        <time>2025-07-22T08:29:41Z</time>
      </trkpt>
      <trkpt lat="42.90457" lon="0.12975">
        <ele>1741.8</ele>
        <time>2025-07-22T08:29:43Z</time>
      </trkpt>
      <trkpt lat="42.90465" lon="0.12985">
        <ele>1741.2</ele>
        <time>2025-07-22T08:29:44Z</time>
      </trkpt>
      <trkpt lat="42.90475" lon="0.12996">
        <ele>1740.6</ele>
        <time>2025-07-22T08:29:45Z</time>
      </trkpt>
      <trkpt lat="42.90485" lon="0.13004">
        <ele>1739.2</ele>
        <time>2025-07-22T08:29:46Z</time>
      </trkpt>
      <trkpt lat="42.90496" lon="0.1301">
        <ele>1738.8</ele>
        <time>2025-07-22T08:29:47Z</time>
      </trkpt>
      <trkpt lat="42.90504" lon="0.13016">
        <ele>1737.8</ele>
        <time>2025-07-22T08:29:48Z</time>
      </trkpt>
      <trkpt lat="42.90514" lon="0.13023">
        <ele>1736.6</ele>
        <time>2025-07-22T08:29:49Z</time>
      </trkpt>
      <trkpt lat="42.90534" lon="0.13046">
        <ele>1735</ele>
        <time>2025-07-22T08:29:51Z</time>
      </trkpt>
      <trkpt lat="42.90548" lon="0.13072">
        <ele>1733</ele>
        <time>2025-07-22T08:29:53Z</time>
      </trkpt>
      <trkpt lat="42.90553" lon="0.13082">
        <ele>1732.4</ele>
        <time>2025-07-22T08:29:54Z</time>
      </trkpt>
      <trkpt lat="42.90558" lon="0.13096">
        <ele>1731.2</ele>
        <time>2025-07-22T08:29:55Z</time>
      </trkpt>
      <trkpt lat="42.90561" lon="0.13113">
        <ele>1729.6</ele>
        <time>2025-07-22T08:29:56Z</time>
      </trkpt>
      <trkpt lat="42.90566" lon="0.13136">
        <ele>1727.8</ele>
        <time>2025-07-22T08:29:58Z</time>
      </trkpt>
      <trkpt lat="42.90577" lon="0.13155">
        <ele>1725.8</ele>
        <time>2025-07-22T08:30:00Z</time>
      </trkpt>
      <trkpt lat="42.90586" lon="0.13161">
        <ele>1724.4</ele>
        <time>2025-07-22T08:30:01Z</time>
      </trkpt>
      <trkpt lat="42.90595" lon="0.13163">
        <ele>1723.8</ele>
        <time>2025-07-22T08:30:02Z</time>
      </trkpt>
      <trkpt lat="42.90602" lon="0.13163">
        <ele>1722.8</ele>
        <time>2025-07-22T08:30:03Z</time>
      </trkpt>
      <trkpt lat="42.90613" lon="0.13161">
        <ele>1722.4</ele>
        <time>2025-07-22T08:30:04Z</time>
      </trkpt>
      <trkpt lat="42.90621" lon="0.13158">
        <ele>1722</ele>
        <time>2025-07-22T08:30:05Z</time>
      </trkpt>
      <trkpt lat="42.9063" lon="0.13154">
        <ele>1721.8</ele>
        <time>2025-07-22T08:30:06Z</time>
      </trkpt>
      <trkpt lat="42.90638" lon="0.13149">
        <ele>1721.2</ele>
        <time>2025-07-22T08:30:07Z</time>
      </trkpt>
      <trkpt lat="42.90644" lon="0.13143">
        <ele>1721</ele>
        <time>2025-07-22T08:30:08Z</time>
      </trkpt>
      <trkpt lat="42.90655" lon="0.13126">
        <ele>1720.6</ele>
        <time>2025-07-22T08:30:10Z</time>
      </trkpt>
      <trkpt lat="42.90658" lon="0.13116">
        <ele>1720.6</ele>
        <time>2025-07-22T08:30:11Z</time>
      </trkpt>
      <trkpt lat="42.90662" lon="0.13104">
        <ele>1720.4</ele>
        <time>2025-07-22T08:30:12Z</time>
      </trkpt>
      <trkpt lat="42.90664" lon="0.13095">
        <ele>1720.2</ele>
        <time>2025-07-22T08:30:13Z</time>
      </trkpt>
      <trkpt lat="42.90669" lon="0.13074">
        <ele>1720</ele>
        <time>2025-07-22T08:30:15Z</time>
      </trkpt>
      <trkpt lat="42.90686" lon="0.13008">
        <ele>1719.2</ele>
        <time>2025-07-22T08:30:21Z</time>
      </trkpt>
      <trkpt lat="42.90692" lon="0.12985">
        <ele>1718.6</ele>
        <time>2025-07-22T08:30:23Z</time>
      </trkpt>
      <trkpt lat="42.90695" lon="0.12973">
        <ele>1718.2</ele>
        <time>2025-07-22T08:30:24Z</time>
      </trkpt>
      <trkpt lat="42.90696" lon="0.12963">
        <ele>1718</ele>
        <time>2025-07-22T08:30:25Z</time>
      </trkpt>
      <trkpt lat="42.90697" lon="0.12934">
        <ele>1717</ele>
        <time>2025-07-22T08:30:27Z</time>
      </trkpt>
      <trkpt lat="42.90697" lon="0.12923">
        <ele>1716.6</ele>
        <time>2025-07-22T08:30:28Z</time>
      </trkpt>
      <trkpt lat="42.90697" lon="0.12876">
        <ele>1714.8</ele>
        <time>2025-07-22T08:30:31Z</time>
      </trkpt>
      <trkpt lat="42.90698" lon="0.12847">
        <ele>1713.6</ele>
        <time>2025-07-22T08:30:33Z</time>
      </trkpt>
      <trkpt lat="42.90698" lon="0.12835">
        <ele>1712.8</ele>
        <time>2025-07-22T08:30:34Z</time>
      </trkpt>
      <trkpt lat="42.90699" lon="0.12819">
        <ele>1712.4</ele>
        <time>2025-07-22T08:30:35Z</time>
      </trkpt>
      <trkpt lat="42.907" lon="0.12804">
        <ele>1711</ele>
        <time>2025-07-22T08:30:36Z</time>
      </trkpt>
      <trkpt lat="42.90702" lon="0.1277">
        <ele>1709.4</ele>
        <time>2025-07-22T08:30:38Z</time>
      </trkpt>
      <trkpt lat="42.90704" lon="0.12743">
        <ele>1707.4</ele>
        <time>2025-07-22T08:30:40Z</time>
      </trkpt>
      <trkpt lat="42.90705" lon="0.12728">
        <ele>1705.8</ele>
        <time>2025-07-22T08:30:41Z</time>
      </trkpt>
      <trkpt lat="42.90707" lon="0.12713">
        <ele>1705.4</ele>
        <time>2025-07-22T08:30:42Z</time>
      </trkpt>
      <trkpt lat="42.90708" lon="0.12694">
        <ele>1704.4</ele>
        <time>2025-07-22T08:30:43Z</time>
      </trkpt>
      <trkpt lat="42.90709" lon="0.12682">
        <ele>1703.2</ele>
        <time>2025-07-22T08:30:44Z</time>
      </trkpt>
      <trkpt lat="42.90711" lon="0.12651">
        <ele>1702</ele>
        <time>2025-07-22T08:30:46Z</time>
      </trkpt>
      <trkpt lat="42.90712" lon="0.12616">
        <ele>1699.8</ele>
        <time>2025-07-22T08:30:48Z</time>
      </trkpt>
      <trkpt lat="42.90713" lon="0.12587">
        <ele>1698.2</ele>
        <time>2025-07-22T08:30:50Z</time>
      </trkpt>
      <trkpt lat="42.90712" lon="0.12552">
        <ele>1696.6</ele>
        <time>2025-07-22T08:30:52Z</time>
      </trkpt>
      <trkpt lat="42.9071" lon="0.12537">
        <ele>1695.4</ele>
        <time>2025-07-22T08:30:53Z</time>
      </trkpt>
      <trkpt lat="42.90709" lon="0.12521">
        <ele>1695</ele>
        <time>2025-07-22T08:30:54Z</time>
      </trkpt>
      <trkpt lat="42.90708" lon="0.12505">
        <ele>1694</ele>
        <time>2025-07-22T08:30:55Z</time>
      </trkpt>
      <trkpt lat="42.90707" lon="0.1249">
        <ele>1692.8</ele>
        <time>2025-07-22T08:30:56Z</time>
      </trkpt>
      <trkpt lat="42.90706" lon="0.12458">
        <ele>1690.8</ele>
        <time>2025-07-22T08:30:58Z</time>
      </trkpt>
      <trkpt lat="42.90706" lon="0.12425">
        <ele>1688.4</ele>
        <time>2025-07-22T08:31:00Z</time>
      </trkpt>
      <trkpt lat="42.90706" lon="0.12409">
        <ele>1687.8</ele>
        <time>2025-07-22T08:31:01Z</time>
      </trkpt>
      <trkpt lat="42.90706" lon="0.12392">
        <ele>1686.6</ele>
        <time>2025-07-22T08:31:02Z</time>
      </trkpt>
      <trkpt lat="42.90707" lon="0.12375">
        <ele>1685.4</ele>
        <time>2025-07-22T08:31:03Z</time>
      </trkpt>
      <trkpt lat="42.90709" lon="0.12342">
        <ele>1683.4</ele>
        <time>2025-07-22T08:31:05Z</time>
      </trkpt>
      <trkpt lat="42.9071" lon="0.1231">
        <ele>1680.8</ele>
        <time>2025-07-22T08:31:07Z</time>
      </trkpt>
      <trkpt lat="42.90711" lon="0.12293">
        <ele>1679.2</ele>
        <time>2025-07-22T08:31:08Z</time>
      </trkpt>
      <trkpt lat="42.9071" lon="0.1226">
        <ele>1677.6</ele>
        <time>2025-07-22T08:31:10Z</time>
      </trkpt>
      <trkpt lat="42.9071" lon="0.12227">
        <ele>1675.4</ele>
        <time>2025-07-22T08:31:12Z</time>
      </trkpt>
      <trkpt lat="42.9071" lon="0.1221">
        <ele>1674.6</ele>
        <time>2025-07-22T08:31:13Z</time>
      </trkpt>
      <trkpt lat="42.9071" lon="0.12194">
        <ele>1673</ele>
        <time>2025-07-22T08:31:14Z</time>
      </trkpt>
      <trkpt lat="42.9071" lon="0.12178">
        <ele>1671.8</ele>
        <time>2025-07-22T08:31:15Z</time>
      </trkpt>
      <trkpt lat="42.90711" lon="0.12145">
        <ele>1669.8</ele>
        <time>2025-07-22T08:31:17Z</time>
      </trkpt>
      <trkpt lat="42.9071" lon="0.12113">
        <ele>1667.4</ele>
        <time>2025-07-22T08:31:19Z</time>
      </trkpt>
      <trkpt lat="42.9071" lon="0.12096">
        <ele>1666</ele>
        <time>2025-07-22T08:31:20Z</time>
      </trkpt>
      <trkpt lat="42.90711" lon="0.12064">
        <ele>1664.2</ele>
        <time>2025-07-22T08:31:22Z</time>
      </trkpt>
      <trkpt lat="42.90714" lon="0.12031">
        <ele>1662.2</ele>
        <time>2025-07-22T08:31:24Z</time>
      </trkpt>
      <trkpt lat="42.90717" lon="0.11997">
        <ele>1659.8</ele>
        <time>2025-07-22T08:31:26Z</time>
      </trkpt>
      <trkpt lat="42.90719" lon="0.11981">
        <ele>1658.4</ele>
        <time>2025-07-22T08:31:27Z</time>
      </trkpt>
      <trkpt lat="42.90722" lon="0.11948">
        <ele>1656</ele>
        <time>2025-07-22T08:31:29Z</time>
      </trkpt>
      <trkpt lat="42.90725" lon="0.11914">
        <ele>1653.8</ele>
        <time>2025-07-22T08:31:31Z</time>
      </trkpt>
      <trkpt lat="42.90727" lon="0.11897">
        <ele>1652.4</ele>
        <time>2025-07-22T08:31:32Z</time>
      </trkpt>
      <trkpt lat="42.90731" lon="0.11864">
        <ele>1650.2</ele>
        <time>2025-07-22T08:31:34Z</time>
      </trkpt>
      <trkpt lat="42.90734" lon="0.11831">
        <ele>1648</ele>
        <time>2025-07-22T08:31:36Z</time>
      </trkpt>
      <trkpt lat="42.90739" lon="0.11798">
        <ele>1646</ele>
        <time>2025-07-22T08:31:38Z</time>
      </trkpt>
      <trkpt lat="42.90741" lon="0.11782">
        <ele>1644.4</ele>
        <time>2025-07-22T08:31:39Z</time>
      </trkpt>
      <trkpt lat="42.90747" lon="0.11749">
        <ele>1642</ele>
        <time>2025-07-22T08:31:41Z</time>
      </trkpt>
      <trkpt lat="42.90753" lon="0.11718">
        <ele>1640</ele>
        <time>2025-07-22T08:31:43Z</time>
      </trkpt>
      <trkpt lat="42.90757" lon="0.11703">
        <ele>1638.8</ele>
        <time>2025-07-22T08:31:44Z</time>
      </trkpt>
      <trkpt lat="42.90762" lon="0.1169">
        <ele>1638</ele>
        <time>2025-07-22T08:31:45Z</time>
      </trkpt>
      <trkpt lat="42.90767" lon="0.11676">
        <ele>1637</ele>
        <time>2025-07-22T08:31:46Z</time>
      </trkpt>
      <trkpt lat="42.90777" lon="0.11652">
        <ele>1634.8</ele>
        <time>2025-07-22T08:31:48Z</time>
      </trkpt>
      <trkpt lat="42.90788" lon="0.11627">
        <ele>1632.6</ele>
        <time>2025-07-22T08:31:50Z</time>
      </trkpt>
      <trkpt lat="42.90794" lon="0.11615">
        <ele>1631.4</ele>
        <time>2025-07-22T08:31:51Z</time>
      </trkpt>
      <trkpt lat="42.90806" lon="0.11594">
        <ele>1629</ele>
        <time>2025-07-22T08:31:53Z</time>
      </trkpt>
      <trkpt lat="42.90814" lon="0.11579">
        <ele>1626.6</ele>
        <time>2025-07-22T08:31:55Z</time>
      </trkpt>
      <trkpt lat="42.90816" lon="0.1157">
        <ele>1625.2</ele>
        <time>2025-07-22T08:31:56Z</time>
      </trkpt>
      <trkpt lat="42.90816" lon="0.11559">
        <ele>1624.6</ele>
        <time>2025-07-22T08:31:57Z</time>
      </trkpt>
      <trkpt lat="42.90812" lon="0.11552">
        <ele>1623.6</ele>
        <time>2025-07-22T08:31:58Z</time>
      </trkpt>
      <trkpt lat="42.90806" lon="0.11548">
        <ele>1623</ele>
        <time>2025-07-22T08:31:59Z</time>
      </trkpt>
      <trkpt lat="42.908" lon="0.11547">
        <ele>1621.8</ele>
        <time>2025-07-22T08:32:00Z</time>
      </trkpt>
      <trkpt lat="42.90794" lon="0.1155">
        <ele>1621.4</ele>
        <time>2025-07-22T08:32:01Z</time>
      </trkpt>
      <trkpt lat="42.90787" lon="0.11555">
        <ele>1620.4</ele>
        <time>2025-07-22T08:32:02Z</time>
      </trkpt>
      <trkpt lat="42.90774" lon="0.11569">
        <ele>1619.2</ele>
        <time>2025-07-22T08:32:04Z</time>
      </trkpt>
      <trkpt lat="42.9076" lon="0.11584">
        <ele>1618</ele>
        <time>2025-07-22T08:32:06Z</time>
      </trkpt>
      <trkpt lat="42.90753" lon="0.11593">
        <ele>1616.8</ele>
        <time>2025-07-22T08:32:07Z</time>
      </trkpt>
      <trkpt lat="42.90741" lon="0.11611">
        <ele>1615.6</ele>
        <time>2025-07-22T08:32:09Z</time>
      </trkpt>
      <trkpt lat="42.90735" lon="0.11617">
        <ele>1614.8</ele>
        <time>2025-07-22T08:32:10Z</time>
      </trkpt>
      <trkpt lat="42.90729" lon="0.11621">
        <ele>1614.2</ele>
        <time>2025-07-22T08:32:11Z</time>
      </trkpt>
      <trkpt lat="42.90723" lon="0.11621">
        <ele>1613.6</ele>
        <time>2025-07-22T08:32:12Z</time>
      </trkpt>
      <trkpt lat="42.90717" lon="0.11608">
        <ele>1612.2</ele>
        <time>2025-07-22T08:32:14Z</time>
      </trkpt>
      <trkpt lat="42.90718" lon="0.11598">
        <ele>1611.4</ele>
        <time>2025-07-22T08:32:15Z</time>
      </trkpt>
      <trkpt lat="42.90721" lon="0.11589">
        <ele>1611</ele>
        <time>2025-07-22T08:32:16Z</time>
      </trkpt>
      <trkpt lat="42.90724" lon="0.11578">
        <ele>1610.4</ele>
        <time>2025-07-22T08:32:17Z</time>
      </trkpt>
      <trkpt lat="42.9073" lon="0.11556">
        <ele>1609.4</ele>
        <time>2025-07-22T08:32:19Z</time>
      </trkpt>
      <trkpt lat="42.90736" lon="0.11519">
        <ele>1608.2</ele>
        <time>2025-07-22T08:32:22Z</time>
      </trkpt>
      <trkpt lat="42.90739" lon="0.11493">
        <ele>1607</ele>
        <time>2025-07-22T08:32:24Z</time>
      </trkpt>
      <trkpt lat="42.9074" lon="0.11467">
        <ele>1605.8</ele>
        <time>2025-07-22T08:32:26Z</time>
      </trkpt>
      <trkpt lat="42.9074" lon="0.11453">
        <ele>1605</ele>
        <time>2025-07-22T08:32:27Z</time>
      </trkpt>
      <trkpt lat="42.90739" lon="0.11439">
        <ele>1604.2</ele>
        <time>2025-07-22T08:32:28Z</time>
      </trkpt>
      <trkpt lat="42.90738" lon="0.11425">
        <ele>1603.2</ele>
        <time>2025-07-22T08:32:29Z</time>
      </trkpt>
      <trkpt lat="42.90735" lon="0.11397">
        <ele>1602.2</ele>
        <time>2025-07-22T08:32:31Z</time>
      </trkpt>
      <trkpt lat="42.90734" lon="0.11382">
        <ele>1600.8</ele>
        <time>2025-07-22T08:32:32Z</time>
      </trkpt>
      <trkpt lat="42.9073" lon="0.11351">
        <ele>1599.4</ele>
        <time>2025-07-22T08:32:34Z</time>
      </trkpt>
      <trkpt lat="42.90728" lon="0.1132">
        <ele>1597.6</ele>
        <time>2025-07-22T08:32:36Z</time>
      </trkpt>
      <trkpt lat="42.90727" lon="0.11305">
        <ele>1596.6</ele>
        <time>2025-07-22T08:32:37Z</time>
      </trkpt>
      <trkpt lat="42.90727" lon="0.11289">
        <ele>1595.4</ele>
        <time>2025-07-22T08:32:38Z</time>
      </trkpt>
      <trkpt lat="42.90727" lon="0.11261">
        <ele>1594.2</ele>
        <time>2025-07-22T08:32:40Z</time>
      </trkpt>
      <trkpt lat="42.90727" lon="0.11242">
        <ele>1593.2</ele>
        <time>2025-07-22T08:32:41Z</time>
      </trkpt>
      <trkpt lat="42.90725" lon="0.11212">
        <ele>1591</ele>
        <time>2025-07-22T08:32:43Z</time>
      </trkpt>
      <trkpt lat="42.90723" lon="0.11198">
        <ele>1589.8</ele>
        <time>2025-07-22T08:32:44Z</time>
      </trkpt>
      <trkpt lat="42.90717" lon="0.11169">
        <ele>1587.8</ele>
        <time>2025-07-22T08:32:46Z</time>
      </trkpt>
      <trkpt lat="42.90709" lon="0.1114">
        <ele>1585.8</ele>
        <time>2025-07-22T08:32:48Z</time>
      </trkpt>
      <trkpt lat="42.90705" lon="0.11125">
        <ele>1584.8</ele>
        <time>2025-07-22T08:32:49Z</time>
      </trkpt>
      <trkpt lat="42.90701" lon="0.1111">
        <ele>1584.2</ele>
        <time>2025-07-22T08:32:50Z</time>
      </trkpt>
      <trkpt lat="42.90698" lon="0.11095">
        <ele>1583</ele>
        <time>2025-07-22T08:32:51Z</time>
      </trkpt>
      <trkpt lat="42.9069" lon="0.11065">
        <ele>1581</ele>
        <time>2025-07-22T08:32:53Z</time>
      </trkpt>
      <trkpt lat="42.90681" lon="0.11035">
        <ele>1579.2</ele>
        <time>2025-07-22T08:32:55Z</time>
      </trkpt>
      <trkpt lat="42.90676" lon="0.1102">
        <ele>1578</ele>
        <time>2025-07-22T08:32:56Z</time>
      </trkpt>
      <trkpt lat="42.90672" lon="0.11005">
        <ele>1577.2</ele>
        <time>2025-07-22T08:32:57Z</time>
      </trkpt>
      <trkpt lat="42.90668" lon="0.1099">
        <ele>1575.8</ele>
        <time>2025-07-22T08:32:58Z</time>
      </trkpt>
      <trkpt lat="42.9066" lon="0.10961">
        <ele>1574.4</ele>
        <time>2025-07-22T08:33:00Z</time>
      </trkpt>
      <trkpt lat="42.90656" lon="0.10946">
        <ele>1572.8</ele>
        <time>2025-07-22T08:33:01Z</time>
      </trkpt>
      <trkpt lat="42.90651" lon="0.10916">
        <ele>1571</ele>
        <time>2025-07-22T08:33:03Z</time>
      </trkpt>
      <trkpt lat="42.90649" lon="0.10901">
        <ele>1570</ele>
        <time>2025-07-22T08:33:04Z</time>
      </trkpt>
      <trkpt lat="42.90647" lon="0.10885">
        <ele>1568.2</ele>
        <time>2025-07-22T08:33:05Z</time>
      </trkpt>
      <trkpt lat="42.90645" lon="0.1087">
        <ele>1567</ele>
        <time>2025-07-22T08:33:06Z</time>
      </trkpt>
      <trkpt lat="42.90643" lon="0.10854">
        <ele>1565.8</ele>
        <time>2025-07-22T08:33:07Z</time>
      </trkpt>
      <trkpt lat="42.90641" lon="0.10839">
        <ele>1564.2</ele>
        <time>2025-07-22T08:33:08Z</time>
      </trkpt>
      <trkpt lat="42.90638" lon="0.10807">
        <ele>1562.4</ele>
        <time>2025-07-22T08:33:10Z</time>
      </trkpt>
      <trkpt lat="42.90637" lon="0.10773">
        <ele>1560.6</ele>
        <time>2025-07-22T08:33:12Z</time>
      </trkpt>
      <trkpt lat="42.90637" lon="0.10757">
        <ele>1559</ele>
        <time>2025-07-22T08:33:13Z</time>
      </trkpt>
      <trkpt lat="42.90637" lon="0.10728">
        <ele>1556.6</ele>
        <time>2025-07-22T08:33:15Z</time>
      </trkpt>
      <trkpt lat="42.90636" lon="0.10709">
        <ele>1555.8</ele>
        <time>2025-07-22T08:33:16Z</time>
      </trkpt>
      <trkpt lat="42.90634" lon="0.10696">
        <ele>1554.4</ele>
        <time>2025-07-22T08:33:17Z</time>
      </trkpt>
      <trkpt lat="42.90632" lon="0.10681">
        <ele>1553.8</ele>
        <time>2025-07-22T08:33:18Z</time>
      </trkpt>
      <trkpt lat="42.90629" lon="0.10665">
        <ele>1552.6</ele>
        <time>2025-07-22T08:33:19Z</time>
      </trkpt>
      <trkpt lat="42.90626" lon="0.1065">
        <ele>1551.4</ele>
        <time>2025-07-22T08:33:20Z</time>
      </trkpt>
      <trkpt lat="42.9062" lon="0.10619">
        <ele>1549.2</ele>
        <time>2025-07-22T08:33:22Z</time>
      </trkpt>
      <trkpt lat="42.90618" lon="0.10605">
        <ele>1548.4</ele>
        <time>2025-07-22T08:33:23Z</time>
      </trkpt>
      <trkpt lat="42.90617" lon="0.10595">
        <ele>1546.8</ele>
        <time>2025-07-22T08:33:24Z</time>
      </trkpt>
      <trkpt lat="42.90618" lon="0.10581">
        <ele>1545.2</ele>
        <time>2025-07-22T08:33:25Z</time>
      </trkpt>
      <trkpt lat="42.90621" lon="0.10569">
        <ele>1544.6</ele>
        <time>2025-07-22T08:33:26Z</time>
      </trkpt>
      <trkpt lat="42.90626" lon="0.10557">
        <ele>1543.2</ele>
        <time>2025-07-22T08:33:27Z</time>
      </trkpt>
      <trkpt lat="42.90629" lon="0.10541">
        <ele>1542.4</ele>
        <time>2025-07-22T08:33:28Z</time>
      </trkpt>
      <trkpt lat="42.90631" lon="0.1053">
        <ele>1541</ele>
        <time>2025-07-22T08:33:29Z</time>
      </trkpt>
      <trkpt lat="42.90631" lon="0.10516">
        <ele>1539.8</ele>
        <time>2025-07-22T08:33:30Z</time>
      </trkpt>
      <trkpt lat="42.90631" lon="0.10484">
        <ele>1538.4</ele>
        <time>2025-07-22T08:33:32Z</time>
      </trkpt>
      <trkpt lat="42.90632" lon="0.10469">
        <ele>1538</ele>
        <time>2025-07-22T08:33:33Z</time>
      </trkpt>
      <trkpt lat="42.90633" lon="0.10454">
        <ele>1537</ele>
        <time>2025-07-22T08:33:34Z</time>
      </trkpt>
      <trkpt lat="42.90637" lon="0.10424">
        <ele>1535.6</ele>
        <time>2025-07-22T08:33:36Z</time>
      </trkpt>
      <trkpt lat="42.9064" lon="0.10393">
        <ele>1534</ele>
        <time>2025-07-22T08:33:38Z</time>
      </trkpt>
      <trkpt lat="42.90642" lon="0.10377">
        <ele>1533.2</ele>
        <time>2025-07-22T08:33:39Z</time>
      </trkpt>
      <trkpt lat="42.90643" lon="0.10365">
        <ele>1532.8</ele>
        <time>2025-07-22T08:33:40Z</time>
      </trkpt>
      <trkpt lat="42.90645" lon="0.10346">
        <ele>1531.6</ele>
        <time>2025-07-22T08:33:41Z</time>
      </trkpt>
      <trkpt lat="42.90646" lon="0.1033">
        <ele>1530</ele>
        <time>2025-07-22T08:33:42Z</time>
      </trkpt>
      <trkpt lat="42.90649" lon="0.10297">
        <ele>1528.8</ele>
        <time>2025-07-22T08:33:44Z</time>
      </trkpt>
      <trkpt lat="42.90653" lon="0.10266">
        <ele>1527.4</ele>
        <time>2025-07-22T08:33:46Z</time>
      </trkpt>
      <trkpt lat="42.90655" lon="0.10252">
        <ele>1526.8</ele>
        <time>2025-07-22T08:33:47Z</time>
      </trkpt>
      <trkpt lat="42.90657" lon="0.10239">
        <ele>1525.2</ele>
        <time>2025-07-22T08:33:48Z</time>
      </trkpt>
      <trkpt lat="42.90659" lon="0.10226">
        <ele>1524</ele>
        <time>2025-07-22T08:33:49Z</time>
      </trkpt>
      <trkpt lat="42.90662" lon="0.10207">
        <ele>1521.6</ele>
        <time>2025-07-22T08:33:51Z</time>
      </trkpt>
      <trkpt lat="42.90658" lon="0.10189">
        <ele>1519.8</ele>
        <time>2025-07-22T08:33:53Z</time>
      </trkpt>
      <trkpt lat="42.90654" lon="0.10185">
        <ele>1518.2</ele>
        <time>2025-07-22T08:33:54Z</time>
      </trkpt>
      <trkpt lat="42.90648" lon="0.10184">
        <ele>1517.6</ele>
        <time>2025-07-22T08:33:55Z</time>
      </trkpt>
      <trkpt lat="42.90643" lon="0.10187">
        <ele>1516.6</ele>
        <time>2025-07-22T08:33:56Z</time>
      </trkpt>
      <trkpt lat="42.90637" lon="0.10194">
        <ele>1516</ele>
        <time>2025-07-22T08:33:57Z</time>
      </trkpt>
      <trkpt lat="42.90634" lon="0.10204">
        <ele>1515.2</ele>
        <time>2025-07-22T08:33:58Z</time>
      </trkpt>
      <trkpt lat="42.90634" lon="0.10215">
        <ele>1514.4</ele>
        <time>2025-07-22T08:33:59Z</time>
      </trkpt>
      <trkpt lat="42.90634" lon="0.10227">
        <ele>1514</ele>
        <time>2025-07-22T08:34:00Z</time>
      </trkpt>
      <trkpt lat="42.90634" lon="0.10238">
        <ele>1513.2</ele>
        <time>2025-07-22T08:34:01Z</time>
      </trkpt>
      <trkpt lat="42.90632" lon="0.1025">
        <ele>1512.8</ele>
        <time>2025-07-22T08:34:02Z</time>
      </trkpt>
      <trkpt lat="42.90629" lon="0.10262">
        <ele>1511.8</ele>
        <time>2025-07-22T08:34:03Z</time>
      </trkpt>
      <trkpt lat="42.90625" lon="0.10274">
        <ele>1511.6</ele>
        <time>2025-07-22T08:34:04Z</time>
      </trkpt>
      <trkpt lat="42.9062" lon="0.10285">
        <ele>1510.8</ele>
        <time>2025-07-22T08:34:05Z</time>
      </trkpt>
      <trkpt lat="42.90611" lon="0.10309">
        <ele>1509.8</ele>
        <time>2025-07-22T08:34:07Z</time>
      </trkpt>
      <trkpt lat="42.90606" lon="0.10322">
        <ele>1509.2</ele>
        <time>2025-07-22T08:34:08Z</time>
      </trkpt>
      <trkpt lat="42.90599" lon="0.10349">
        <ele>1508</ele>
        <time>2025-07-22T08:34:10Z</time>
      </trkpt>
      <trkpt lat="42.90595" lon="0.10363">
        <ele>1507</ele>
        <time>2025-07-22T08:34:11Z</time>
      </trkpt>
      <trkpt lat="42.9059" lon="0.10376">
        <ele>1506.8</ele>
        <time>2025-07-22T08:34:12Z</time>
      </trkpt>
      <trkpt lat="42.90578" lon="0.10401">
        <ele>1505.6</ele>
        <time>2025-07-22T08:34:14Z</time>
      </trkpt>
      <trkpt lat="42.90567" lon="0.10426">
        <ele>1504.4</ele>
        <time>2025-07-22T08:34:16Z</time>
      </trkpt>
      <trkpt lat="42.90555" lon="0.10448">
        <ele>1502.6</ele>
        <time>2025-07-22T08:34:18Z</time>
      </trkpt>
      <trkpt lat="42.90542" lon="0.10461">
        <ele>1501</ele>
        <time>2025-07-22T08:34:20Z</time>
      </trkpt>
      <trkpt lat="42.90528" lon="0.10461">
        <ele>1499.6</ele>
        <time>2025-07-22T08:34:22Z</time>
      </trkpt>
      <trkpt lat="42.90522" lon="0.10448">
        <ele>1498.2</ele>
        <time>2025-07-22T08:34:24Z</time>
      </trkpt>
      <trkpt lat="42.90524" lon="0.10438">
        <ele>1496.8</ele>
        <time>2025-07-22T08:34:25Z</time>
      </trkpt>
      <trkpt lat="42.90528" lon="0.10429">
        <ele>1496.4</ele>
        <time>2025-07-22T08:34:26Z</time>
      </trkpt>
      <trkpt lat="42.90534" lon="0.10421">
        <ele>1495.4</ele>
        <time>2025-07-22T08:34:27Z</time>
      </trkpt>
      <trkpt lat="42.9054" lon="0.10412">
        <ele>1494.6</ele>
        <time>2025-07-22T08:34:28Z</time>
      </trkpt>
      <trkpt lat="42.90545" lon="0.10403">
        <ele>1494.2</ele>
        <time>2025-07-22T08:34:29Z</time>
      </trkpt>
      <trkpt lat="42.90549" lon="0.10392">
        <ele>1493.6</ele>
        <time>2025-07-22T08:34:30Z</time>
      </trkpt>
      <trkpt lat="42.90554" lon="0.10369">
        <ele>1492.8</ele>
        <time>2025-07-22T08:34:32Z</time>
      </trkpt>
      <trkpt lat="42.90559" lon="0.10343">
        <ele>1491.8</ele>
        <time>2025-07-22T08:34:34Z</time>
      </trkpt>
      <trkpt lat="42.90563" lon="0.10302">
        <ele>1490.6</ele>
        <time>2025-07-22T08:34:37Z</time>
      </trkpt>
      <trkpt lat="42.90565" lon="0.10274">
        <ele>1489.6</ele>
        <time>2025-07-22T08:34:39Z</time>
      </trkpt>
      <trkpt lat="42.90567" lon="0.10259">
        <ele>1488.8</ele>
        <time>2025-07-22T08:34:40Z</time>
      </trkpt>
      <trkpt lat="42.90568" lon="0.10229">
        <ele>1487.4</ele>
        <time>2025-07-22T08:34:42Z</time>
      </trkpt>
      <trkpt lat="42.90566" lon="0.102">
        <ele>1486.2</ele>
        <time>2025-07-22T08:34:44Z</time>
      </trkpt>
      <trkpt lat="42.9056" lon="0.10175">
        <ele>1484.6</ele>
        <time>2025-07-22T08:34:46Z</time>
      </trkpt>
      <trkpt lat="42.90556" lon="0.10165">
        <ele>1483.2</ele>
        <time>2025-07-22T08:34:47Z</time>
      </trkpt>
      <trkpt lat="42.90545" lon="0.10153">
        <ele>1481.8</ele>
        <time>2025-07-22T08:34:49Z</time>
      </trkpt>
      <trkpt lat="42.90532" lon="0.10157">
        <ele>1480</ele>
        <time>2025-07-22T08:34:51Z</time>
      </trkpt>
      <trkpt lat="42.90527" lon="0.10165">
        <ele>1478.8</ele>
        <time>2025-07-22T08:34:52Z</time>
      </trkpt>
      <trkpt lat="42.90525" lon="0.10175">
        <ele>1478.2</ele>
        <time>2025-07-22T08:34:53Z</time>
      </trkpt>
      <trkpt lat="42.90525" lon="0.10187">
        <ele>1477.2</ele>
        <time>2025-07-22T08:34:54Z</time>
      </trkpt>
      <trkpt lat="42.90526" lon="0.10212">
        <ele>1475.4</ele>
        <time>2025-07-22T08:34:56Z</time>
      </trkpt>
      <trkpt lat="42.90526" lon="0.10225">
        <ele>1474.6</ele>
        <time>2025-07-22T08:34:57Z</time>
      </trkpt>
      <trkpt lat="42.90523" lon="0.10238">
        <ele>1474.2</ele>
        <time>2025-07-22T08:34:58Z</time>
      </trkpt>
      <trkpt lat="42.90519" lon="0.10251">
        <ele>1473.8</ele>
        <time>2025-07-22T08:34:59Z</time>
      </trkpt>
      <trkpt lat="42.90506" lon="0.10274">
        <ele>1472.4</ele>
        <time>2025-07-22T08:35:01Z</time>
      </trkpt>
      <trkpt lat="42.90498" lon="0.10284">
        <ele>1471.8</ele>
        <time>2025-07-22T08:35:02Z</time>
      </trkpt>
      <trkpt lat="42.9049" lon="0.10293">
        <ele>1471</ele>
        <time>2025-07-22T08:35:03Z</time>
      </trkpt>
      <trkpt lat="42.90475" lon="0.10311">
        <ele>1469.4</ele>
        <time>2025-07-22T08:35:05Z</time>
      </trkpt>
      <trkpt lat="42.90468" lon="0.1032">
        <ele>1468.2</ele>
        <time>2025-07-22T08:35:06Z</time>
      </trkpt>
      <trkpt lat="42.90462" lon="0.10328">
        <ele>1467.4</ele>
        <time>2025-07-22T08:35:07Z</time>
      </trkpt>
      <trkpt lat="42.90455" lon="0.10337">
        <ele>1466.6</ele>
        <time>2025-07-22T08:35:08Z</time>
      </trkpt>
      <trkpt lat="42.90449" lon="0.10344">
        <ele>1465.2</ele>
        <time>2025-07-22T08:35:09Z</time>
      </trkpt>
      <trkpt lat="42.90436" lon="0.10358">
        <ele>1463.4</ele>
        <time>2025-07-22T08:35:11Z</time>
      </trkpt>
      <trkpt lat="42.90429" lon="0.10363">
        <ele>1462.8</ele>
        <time>2025-07-22T08:35:12Z</time>
      </trkpt>
      <trkpt lat="42.90421" lon="0.10365">
        <ele>1461.8</ele>
        <time>2025-07-22T08:35:13Z</time>
      </trkpt>
      <trkpt lat="42.90407" lon="0.10364">
        <ele>1460.8</ele>
        <time>2025-07-22T08:35:15Z</time>
      </trkpt>
      <trkpt lat="42.90393" lon="0.10355">
        <ele>1460.2</ele>
        <time>2025-07-22T08:35:17Z</time>
      </trkpt>
      <trkpt lat="42.90388" lon="0.10349">
        <ele>1460</ele>
        <time>2025-07-22T08:35:18Z</time>
      </trkpt>
      <trkpt lat="42.90382" lon="0.10341">
        <ele>1459.4</ele>
        <time>2025-07-22T08:35:19Z</time>
      </trkpt>
      <trkpt lat="42.90377" lon="0.10333">
        <ele>1459</ele>
        <time>2025-07-22T08:35:20Z</time>
      </trkpt>
      <trkpt lat="42.90371" lon="0.10323">
        <ele>1458.4</ele>
        <time>2025-07-22T08:35:21Z</time>
      </trkpt>
      <trkpt lat="42.90362" lon="0.10304">
        <ele>1457.2</ele>
        <time>2025-07-22T08:35:23Z</time>
      </trkpt>
      <trkpt lat="42.90353" lon="0.10285">
        <ele>1456</ele>
        <time>2025-07-22T08:35:25Z</time>
      </trkpt>
      <trkpt lat="42.90349" lon="0.10275">
        <ele>1455.4</ele>
        <time>2025-07-22T08:35:26Z</time>
      </trkpt>
      <trkpt lat="42.90347" lon="0.10266">
        <ele>1455</ele>
        <time>2025-07-22T08:35:27Z</time>
      </trkpt>
      <trkpt lat="42.90345" lon="0.10255">
        <ele>1454.2</ele>
        <time>2025-07-22T08:35:28Z</time>
      </trkpt>
      <trkpt lat="42.90343" lon="0.10244">
        <ele>1453.8</ele>
        <time>2025-07-22T08:35:29Z</time>
      </trkpt>
      <trkpt lat="42.90341" lon="0.10222">
        <ele>1452.8</ele>
        <time>2025-07-22T08:35:31Z</time>
      </trkpt>
      <trkpt lat="42.90339" lon="0.10196">
        <ele>1451.6</ele>
        <time>2025-07-22T08:35:33Z</time>
      </trkpt>
      <trkpt lat="42.90338" lon="0.10186">
        <ele>1451.4</ele>
        <time>2025-07-22T08:35:34Z</time>
      </trkpt>
      <trkpt lat="42.90335" lon="0.10159">
        <ele>1450.4</ele>
        <time>2025-07-22T08:35:36Z</time>
      </trkpt>
      <trkpt lat="42.90334" lon="0.10147">
        <ele>1449.4</ele>
        <time>2025-07-22T08:35:37Z</time>
      </trkpt>
      <trkpt lat="42.90328" lon="0.10124">
        <ele>1448.2</ele>
        <time>2025-07-22T08:35:39Z</time>
      </trkpt>
      <trkpt lat="42.90324" lon="0.10102">
        <ele>1447.6</ele>
        <time>2025-07-22T08:35:41Z</time>
      </trkpt>
      <trkpt lat="42.90324" lon="0.1008">
        <ele>1447</ele>
        <time>2025-07-22T08:35:43Z</time>
      </trkpt>
      <trkpt lat="42.9033" lon="0.10061">
        <ele>1446.4</ele>
        <time>2025-07-22T08:35:45Z</time>
      </trkpt>
      <trkpt lat="42.90336" lon="0.1005">
        <ele>1446.4</ele>
        <time>2025-07-22T08:35:46Z</time>
      </trkpt>
      <trkpt lat="42.90347" lon="0.1003">
        <ele>1446</ele>
        <time>2025-07-22T08:35:48Z</time>
      </trkpt>
      <trkpt lat="42.90352" lon="0.10019">
        <ele>1445.6</ele>
        <time>2025-07-22T08:35:49Z</time>
      </trkpt>
      <trkpt lat="42.90357" lon="0.09996">
        <ele>1444.6</ele>
        <time>2025-07-22T08:35:51Z</time>
      </trkpt>
      <trkpt lat="42.90358" lon="0.09956">
        <ele>1443.2</ele>
        <time>2025-07-22T08:35:54Z</time>
      </trkpt>
      <trkpt lat="42.90357" lon="0.09945">
        <ele>1442.4</ele>
        <time>2025-07-22T08:35:55Z</time>
      </trkpt>
      <trkpt lat="42.90356" lon="0.09913">
        <ele>1440.8</ele>
        <time>2025-07-22T08:35:57Z</time>
      </trkpt>
      <trkpt lat="42.90354" lon="0.09882">
        <ele>1439</ele>
        <time>2025-07-22T08:35:59Z</time>
      </trkpt>
      <trkpt lat="42.90351" lon="0.09851">
        <ele>1436.8</ele>
        <time>2025-07-22T08:36:01Z</time>
      </trkpt>
      <trkpt lat="42.90349" lon="0.09835">
        <ele>1435.6</ele>
        <time>2025-07-22T08:36:02Z</time>
      </trkpt>
      <trkpt lat="42.90346" lon="0.09803">
        <ele>1433.8</ele>
        <time>2025-07-22T08:36:04Z</time>
      </trkpt>
      <trkpt lat="42.90342" lon="0.09771">
        <ele>1432.2</ele>
        <time>2025-07-22T08:36:06Z</time>
      </trkpt>
      <trkpt lat="42.90339" lon="0.09741">
        <ele>1430.4</ele>
        <time>2025-07-22T08:36:08Z</time>
      </trkpt>
      <trkpt lat="42.90338" lon="0.09726">
        <ele>1429.4</ele>
        <time>2025-07-22T08:36:09Z</time>
      </trkpt>
      <trkpt lat="42.90337" lon="0.09697">
        <ele>1427.6</ele>
        <time>2025-07-22T08:36:11Z</time>
      </trkpt>
      <trkpt lat="42.90337" lon="0.09667">
        <ele>1426.6</ele>
        <time>2025-07-22T08:36:13Z</time>
      </trkpt>
      <trkpt lat="42.90336" lon="0.09653">
        <ele>1426</ele>
        <time>2025-07-22T08:36:14Z</time>
      </trkpt>
      <trkpt lat="42.90336" lon="0.09623">
        <ele>1424.8</ele>
        <time>2025-07-22T08:36:16Z</time>
      </trkpt>
      <trkpt lat="42.90335" lon="0.09594">
        <ele>1423.4</ele>
        <time>2025-07-22T08:36:18Z</time>
      </trkpt>
      <trkpt lat="42.90335" lon="0.09579">
        <ele>1422.4</ele>
        <time>2025-07-22T08:36:19Z</time>
      </trkpt>
      <trkpt lat="42.90335" lon="0.09549">
        <ele>1421.2</ele>
        <time>2025-07-22T08:36:21Z</time>
      </trkpt>
      <trkpt lat="42.90334" lon="0.09519">
        <ele>1420</ele>
        <time>2025-07-22T08:36:23Z</time>
      </trkpt>
      <trkpt lat="42.90334" lon="0.09501">
        <ele>1419.2</ele>
        <time>2025-07-22T08:36:24Z</time>
      </trkpt>
      <trkpt lat="42.90334" lon="0.09489">
        <ele>1418.6</ele>
        <time>2025-07-22T08:36:25Z</time>
      </trkpt>
      <trkpt lat="42.90334" lon="0.09459">
        <ele>1417.2</ele>
        <time>2025-07-22T08:36:27Z</time>
      </trkpt>
      <trkpt lat="42.90332" lon="0.09429">
        <ele>1416</ele>
        <time>2025-07-22T08:36:29Z</time>
      </trkpt>
      <trkpt lat="42.90331" lon="0.09414">
        <ele>1415.4</ele>
        <time>2025-07-22T08:36:30Z</time>
      </trkpt>
      <trkpt lat="42.90329" lon="0.094">
        <ele>1414.2</ele>
        <time>2025-07-22T08:36:31Z</time>
      </trkpt>
      <trkpt lat="42.90323" lon="0.09372">
        <ele>1413</ele>
        <time>2025-07-22T08:36:33Z</time>
      </trkpt>
      <trkpt lat="42.90318" lon="0.09345">
        <ele>1411.6</ele>
        <time>2025-07-22T08:36:35Z</time>
      </trkpt>
      <trkpt lat="42.90313" lon="0.09318">
        <ele>1410.6</ele>
        <time>2025-07-22T08:36:37Z</time>
      </trkpt>
      <trkpt lat="42.90308" lon="0.09289">
        <ele>1409.6</ele>
        <time>2025-07-22T08:36:39Z</time>
      </trkpt>
      <trkpt lat="42.90306" lon="0.09279">
        <ele>1409</ele>
        <time>2025-07-22T08:36:40Z</time>
      </trkpt>
      <trkpt lat="42.903" lon="0.09253">
        <ele>1408.4</ele>
        <time>2025-07-22T08:36:42Z</time>
      </trkpt>
      <trkpt lat="42.90282" lon="0.09187">
        <ele>1407</ele>
        <time>2025-07-22T08:36:47Z</time>
      </trkpt>
      <trkpt lat="42.90279" lon="0.09174">
        <ele>1406.6</ele>
        <time>2025-07-22T08:36:48Z</time>
      </trkpt>
      <trkpt lat="42.90274" lon="0.09149">
        <ele>1405.8</ele>
        <time>2025-07-22T08:36:50Z</time>
      </trkpt>
      <trkpt lat="42.9027" lon="0.09117">
        <ele>1404.6</ele>
        <time>2025-07-22T08:36:52Z</time>
      </trkpt>
      <trkpt lat="42.90269" lon="0.09105">
        <ele>1403.6</ele>
        <time>2025-07-22T08:36:53Z</time>
      </trkpt>
      <trkpt lat="42.90269" lon="0.0909">
        <ele>1403</ele>
        <time>2025-07-22T08:36:54Z</time>
      </trkpt>
      <trkpt lat="42.90273" lon="0.09044">
        <ele>1401.2</ele>
        <time>2025-07-22T08:36:57Z</time>
      </trkpt>
      <trkpt lat="42.90275" lon="0.09013">
        <ele>1400.2</ele>
        <time>2025-07-22T08:36:59Z</time>
      </trkpt>
      <trkpt lat="42.90273" lon="0.08997">
        <ele>1399.6</ele>
        <time>2025-07-22T08:37:00Z</time>
      </trkpt>
      <trkpt lat="42.90271" lon="0.08982">
        <ele>1399</ele>
        <time>2025-07-22T08:37:01Z</time>
      </trkpt>
      <trkpt lat="42.90267" lon="0.08967">
        <ele>1398</ele>
        <time>2025-07-22T08:37:02Z</time>
      </trkpt>
      <trkpt lat="42.9026" lon="0.08939">
        <ele>1396.8</ele>
        <time>2025-07-22T08:37:04Z</time>
      </trkpt>
      <trkpt lat="42.90249" lon="0.08897">
        <ele>1395</ele>
        <time>2025-07-22T08:37:07Z</time>
      </trkpt>
      <trkpt lat="42.90239" lon="0.08857">
        <ele>1393.8</ele>
        <time>2025-07-22T08:37:10Z</time>
      </trkpt>
      <trkpt lat="42.90236" lon="0.08845">
        <ele>1393.6</ele>
        <time>2025-07-22T08:37:11Z</time>
      </trkpt>
      <trkpt lat="42.90226" lon="0.08808">
        <ele>1392.6</ele>
        <time>2025-07-22T08:37:14Z</time>
      </trkpt>
      <trkpt lat="42.90212" lon="0.0876">
        <ele>1391.6</ele>
        <time>2025-07-22T08:37:18Z</time>
      </trkpt>
      <trkpt lat="42.90209" lon="0.08748">
        <ele>1391.4</ele>
        <time>2025-07-22T08:37:19Z</time>
      </trkpt>
      <trkpt lat="42.90196" lon="0.08698">
        <ele>1390.4</ele>
        <time>2025-07-22T08:37:23Z</time>
      </trkpt>
      <trkpt lat="42.9019" lon="0.08672">
        <ele>1389.8</ele>
        <time>2025-07-22T08:37:25Z</time>
      </trkpt>
      <trkpt lat="42.90189" lon="0.08658">
        <ele>1389</ele>
        <time>2025-07-22T08:37:26Z</time>
      </trkpt>
      <trkpt lat="42.90185" lon="0.08613">
        <ele>1387.4</ele>
        <time>2025-07-22T08:37:29Z</time>
      </trkpt>
      <trkpt lat="42.90182" lon="0.08582">
        <ele>1386.4</ele>
        <time>2025-07-22T08:37:31Z</time>
      </trkpt>
      <trkpt lat="42.90179" lon="0.0855">
        <ele>1385</ele>
        <time>2025-07-22T08:37:33Z</time>
      </trkpt>
      <trkpt lat="42.90176" lon="0.08516">
        <ele>1383.8</ele>
        <time>2025-07-22T08:37:35Z</time>
      </trkpt>
      <trkpt lat="42.90175" lon="0.08499">
        <ele>1382.4</ele>
        <time>2025-07-22T08:37:36Z</time>
      </trkpt>
      <trkpt lat="42.90171" lon="0.08466">
        <ele>1380.6</ele>
        <time>2025-07-22T08:37:38Z</time>
      </trkpt>
      <trkpt lat="42.90169" lon="0.08448">
        <ele>1379</ele>
        <time>2025-07-22T08:37:39Z</time>
      </trkpt>
      <trkpt lat="42.90163" lon="0.08415">
        <ele>1377.2</ele>
        <time>2025-07-22T08:37:41Z</time>
      </trkpt>
      <trkpt lat="42.90161" lon="0.08381">
        <ele>1375</ele>
        <time>2025-07-22T08:37:43Z</time>
      </trkpt>
      <trkpt lat="42.90162" lon="0.08365">
        <ele>1374.6</ele>
        <time>2025-07-22T08:37:44Z</time>
      </trkpt>
      <trkpt lat="42.90163" lon="0.08349">
        <ele>1372.8</ele>
        <time>2025-07-22T08:37:45Z</time>
      </trkpt>
      <trkpt lat="42.90162" lon="0.08334">
        <ele>1371</ele>
        <time>2025-07-22T08:37:46Z</time>
      </trkpt>
      <trkpt lat="42.9016" lon="0.08318">
        <ele>1370.2</ele>
        <time>2025-07-22T08:37:47Z</time>
      </trkpt>
      <trkpt lat="42.90155" lon="0.08304">
        <ele>1369</ele>
        <time>2025-07-22T08:37:48Z</time>
      </trkpt>
      <trkpt lat="42.90144" lon="0.08275">
        <ele>1366.6</ele>
        <time>2025-07-22T08:37:50Z</time>
      </trkpt>
      <trkpt lat="42.90137" lon="0.08261">
        <ele>1365.4</ele>
        <time>2025-07-22T08:37:51Z</time>
      </trkpt>
      <trkpt lat="42.90122" lon="0.08234">
        <ele>1363.2</ele>
        <time>2025-07-22T08:37:53Z</time>
      </trkpt>
      <trkpt lat="42.90108" lon="0.08206">
        <ele>1361.6</ele>
        <time>2025-07-22T08:37:55Z</time>
      </trkpt>
      <trkpt lat="42.90102" lon="0.08191">
        <ele>1359.8</ele>
        <time>2025-07-22T08:37:56Z</time>
      </trkpt>
      <trkpt lat="42.90093" lon="0.0816">
        <ele>1358</ele>
        <time>2025-07-22T08:37:58Z</time>
      </trkpt>
      <trkpt lat="42.90084" lon="0.08128">
        <ele>1355.6</ele>
        <time>2025-07-22T08:38:00Z</time>
      </trkpt>
      <trkpt lat="42.9008" lon="0.08112">
        <ele>1354.8</ele>
        <time>2025-07-22T08:38:01Z</time>
      </trkpt>
      <trkpt lat="42.90076" lon="0.08096">
        <ele>1353.2</ele>
        <time>2025-07-22T08:38:02Z</time>
      </trkpt>
      <trkpt lat="42.90072" lon="0.08081">
        <ele>1351.8</ele>
        <time>2025-07-22T08:38:03Z</time>
      </trkpt>
      <trkpt lat="42.90062" lon="0.08049">
        <ele>1349.4</ele>
        <time>2025-07-22T08:38:05Z</time>
      </trkpt>
      <trkpt lat="42.90053" lon="0.08018">
        <ele>1347.2</ele>
        <time>2025-07-22T08:38:07Z</time>
      </trkpt>
      <trkpt lat="42.90048" lon="0.08002">
        <ele>1345.8</ele>
        <time>2025-07-22T08:38:08Z</time>
      </trkpt>
      <trkpt lat="42.90042" lon="0.07987">
        <ele>1344.8</ele>
        <time>2025-07-22T08:38:09Z</time>
      </trkpt>
      <trkpt lat="42.90037" lon="0.07971">
        <ele>1343.2</ele>
        <time>2025-07-22T08:38:10Z</time>
      </trkpt>
      <trkpt lat="42.90031" lon="0.07955">
        <ele>1342.4</ele>
        <time>2025-07-22T08:38:11Z</time>
      </trkpt>
      <trkpt lat="42.90026" lon="0.0794">
        <ele>1341</ele>
        <time>2025-07-22T08:38:12Z</time>
      </trkpt>
      <trkpt lat="42.9002" lon="0.07924">
        <ele>1340.4</ele>
        <time>2025-07-22T08:38:13Z</time>
      </trkpt>
      <trkpt lat="42.90014" lon="0.07909">
        <ele>1339.2</ele>
        <time>2025-07-22T08:38:14Z</time>
      </trkpt>
      <trkpt lat="42.90009" lon="0.07894">
        <ele>1337.4</ele>
        <time>2025-07-22T08:38:15Z</time>
      </trkpt>
      <trkpt lat="42.89999" lon="0.07866">
        <ele>1335.2</ele>
        <time>2025-07-22T08:38:17Z</time>
      </trkpt>
      <trkpt lat="42.89989" lon="0.07839">
        <ele>1332.6</ele>
        <time>2025-07-22T08:38:19Z</time>
      </trkpt>
      <trkpt lat="42.89985" lon="0.07825">
        <ele>1331.2</ele>
        <time>2025-07-22T08:38:20Z</time>
      </trkpt>
      <trkpt lat="42.89978" lon="0.07794">
        <ele>1328.8</ele>
        <time>2025-07-22T08:38:22Z</time>
      </trkpt>
      <trkpt lat="42.89972" lon="0.07763">
        <ele>1326.6</ele>
        <time>2025-07-22T08:38:24Z</time>
      </trkpt>
      <trkpt lat="42.89968" lon="0.07747">
        <ele>1324.8</ele>
        <time>2025-07-22T08:38:25Z</time>
      </trkpt>
      <trkpt lat="42.8996" lon="0.07716">
        <ele>1322.4</ele>
        <time>2025-07-22T08:38:27Z</time>
      </trkpt>
      <trkpt lat="42.89957" lon="0.077">
        <ele>1321.8</ele>
        <time>2025-07-22T08:38:28Z</time>
      </trkpt>
      <trkpt lat="42.89955" lon="0.07685">
        <ele>1320.2</ele>
        <time>2025-07-22T08:38:29Z</time>
      </trkpt>
      <trkpt lat="42.89951" lon="0.07656">
        <ele>1318.4</ele>
        <time>2025-07-22T08:38:31Z</time>
      </trkpt>
      <trkpt lat="42.89948" lon="0.07639">
        <ele>1317</ele>
        <time>2025-07-22T08:38:32Z</time>
      </trkpt>
      <trkpt lat="42.89938" lon="0.07613">
        <ele>1314.4</ele>
        <time>2025-07-22T08:38:34Z</time>
      </trkpt>
      <trkpt lat="42.89932" lon="0.07601">
        <ele>1313.6</ele>
        <time>2025-07-22T08:38:35Z</time>
      </trkpt>
      <trkpt lat="42.89925" lon="0.07588">
        <ele>1312.2</ele>
        <time>2025-07-22T08:38:36Z</time>
      </trkpt>
      <trkpt lat="42.89919" lon="0.07576">
        <ele>1311</ele>
        <time>2025-07-22T08:38:37Z</time>
      </trkpt>
      <trkpt lat="42.89906" lon="0.07552">
        <ele>1308.6</ele>
        <time>2025-07-22T08:38:39Z</time>
      </trkpt>
      <trkpt lat="42.89893" lon="0.07529">
        <ele>1306.4</ele>
        <time>2025-07-22T08:38:41Z</time>
      </trkpt>
      <trkpt lat="42.89887" lon="0.07518">
        <ele>1304.8</ele>
        <time>2025-07-22T08:38:42Z</time>
      </trkpt>
      <trkpt lat="42.89876" lon="0.07495">
        <ele>1302.4</ele>
        <time>2025-07-22T08:38:44Z</time>
      </trkpt>
      <trkpt lat="42.89871" lon="0.07469">
        <ele>1300.2</ele>
        <time>2025-07-22T08:38:46Z</time>
      </trkpt>
      <trkpt lat="42.8987" lon="0.07456">
        <ele>1299.6</ele>
        <time>2025-07-22T08:38:47Z</time>
      </trkpt>
      <trkpt lat="42.8987" lon="0.07441">
        <ele>1298.4</ele>
        <time>2025-07-22T08:38:48Z</time>
      </trkpt>
      <trkpt lat="42.89869" lon="0.07427">
        <ele>1297.2</ele>
        <time>2025-07-22T08:38:49Z</time>
      </trkpt>
      <trkpt lat="42.89869" lon="0.07397">
        <ele>1295.4</ele>
        <time>2025-07-22T08:38:51Z</time>
      </trkpt>
      <trkpt lat="42.89867" lon="0.07366">
        <ele>1293.8</ele>
        <time>2025-07-22T08:38:53Z</time>
      </trkpt>
      <trkpt lat="42.89866" lon="0.07351">
        <ele>1292.4</ele>
        <time>2025-07-22T08:38:54Z</time>
      </trkpt>
      <trkpt lat="42.89862" lon="0.0732">
        <ele>1290.2</ele>
        <time>2025-07-22T08:38:56Z</time>
      </trkpt>
      <trkpt lat="42.89858" lon="0.07291">
        <ele>1288.2</ele>
        <time>2025-07-22T08:38:58Z</time>
      </trkpt>
      <trkpt lat="42.89856" lon="0.07276">
        <ele>1287</ele>
        <time>2025-07-22T08:38:59Z</time>
      </trkpt>
      <trkpt lat="42.8985" lon="0.07248">
        <ele>1285.2</ele>
        <time>2025-07-22T08:39:01Z</time>
      </trkpt>
      <trkpt lat="42.89847" lon="0.07234">
        <ele>1284.6</ele>
        <time>2025-07-22T08:39:02Z</time>
      </trkpt>
      <trkpt lat="42.89846" lon="0.0722">
        <ele>1283</ele>
        <time>2025-07-22T08:39:03Z</time>
      </trkpt>
      <trkpt lat="42.89846" lon="0.0719">
        <ele>1281.2</ele>
        <time>2025-07-22T08:39:05Z</time>
      </trkpt>
      <trkpt lat="42.89845" lon="0.07176">
        <ele>1280.2</ele>
        <time>2025-07-22T08:39:06Z</time>
      </trkpt>
      <trkpt lat="42.89844" lon="0.07148">
        <ele>1278</ele>
        <time>2025-07-22T08:39:08Z</time>
      </trkpt>
      <trkpt lat="42.89841" lon="0.0712">
        <ele>1276.2</ele>
        <time>2025-07-22T08:39:10Z</time>
      </trkpt>
      <trkpt lat="42.89839" lon="0.07106">
        <ele>1275</ele>
        <time>2025-07-22T08:39:11Z</time>
      </trkpt>
      <trkpt lat="42.89834" lon="0.07079">
        <ele>1273</ele>
        <time>2025-07-22T08:39:13Z</time>
      </trkpt>
      <trkpt lat="42.89828" lon="0.07052">
        <ele>1271.2</ele>
        <time>2025-07-22T08:39:15Z</time>
      </trkpt>
      <trkpt lat="42.89826" lon="0.07038">
        <ele>1269.8</ele>
        <time>2025-07-22T08:39:16Z</time>
      </trkpt>
      <trkpt lat="42.89821" lon="0.0701">
        <ele>1267.8</ele>
        <time>2025-07-22T08:39:18Z</time>
      </trkpt>
      <trkpt lat="42.89818" lon="0.06996">
        <ele>1267</ele>
        <time>2025-07-22T08:39:19Z</time>
      </trkpt>
      <trkpt lat="42.89815" lon="0.06983">
        <ele>1265.6</ele>
        <time>2025-07-22T08:39:20Z</time>
      </trkpt>
      <trkpt lat="42.8981" lon="0.06958">
        <ele>1263.2</ele>
        <time>2025-07-22T08:39:22Z</time>
      </trkpt>
      <trkpt lat="42.89808" lon="0.06945">
        <ele>1261.4</ele>
        <time>2025-07-22T08:39:23Z</time>
      </trkpt>
      <trkpt lat="42.89806" lon="0.06933">
        <ele>1260.8</ele>
        <time>2025-07-22T08:39:24Z</time>
      </trkpt>
      <trkpt lat="42.89803" lon="0.0692">
        <ele>1259.2</ele>
        <time>2025-07-22T08:39:25Z</time>
      </trkpt>
      <trkpt lat="42.89799" lon="0.06894">
        <ele>1257</ele>
        <time>2025-07-22T08:39:27Z</time>
      </trkpt>
      <trkpt lat="42.89796" lon="0.06882">
        <ele>1255.6</ele>
        <time>2025-07-22T08:39:28Z</time>
      </trkpt>
      <trkpt lat="42.89792" lon="0.0686">
        <ele>1254</ele>
        <time>2025-07-22T08:39:30Z</time>
      </trkpt>
      <trkpt lat="42.89789" lon="0.06839">
        <ele>1252.2</ele>
        <time>2025-07-22T08:39:32Z</time>
      </trkpt>
      <trkpt lat="42.89787" lon="0.06829">
        <ele>1250.2</ele>
        <time>2025-07-22T08:39:33Z</time>
      </trkpt>
      <trkpt lat="42.89784" lon="0.06808">
        <ele>1249</ele>
        <time>2025-07-22T08:39:35Z</time>
      </trkpt>
      <trkpt lat="42.89781" lon="0.06787">
        <ele>1247.4</ele>
        <time>2025-07-22T08:39:37Z</time>
      </trkpt>
      <trkpt lat="42.8978" lon="0.06777">
        <ele>1246.8</ele>
        <time>2025-07-22T08:39:38Z</time>
      </trkpt>
      <trkpt lat="42.89778" lon="0.06767">
        <ele>1245.6</ele>
        <time>2025-07-22T08:39:39Z</time>
      </trkpt>
      <trkpt lat="42.89776" lon="0.06757">
        <ele>1244.4</ele>
        <time>2025-07-22T08:39:40Z</time>
      </trkpt>
      <trkpt lat="42.89772" lon="0.06738">
        <ele>1242.6</ele>
        <time>2025-07-22T08:39:42Z</time>
      </trkpt>
      <trkpt lat="42.89768" lon="0.06722">
        <ele>1241</ele>
        <time>2025-07-22T08:39:44Z</time>
      </trkpt>
      <trkpt lat="42.89765" lon="0.06715">
        <ele>1239.8</ele>
        <time>2025-07-22T08:39:45Z</time>
      </trkpt>
      <trkpt lat="42.89763" lon="0.06708">
        <ele>1239.4</ele>
        <time>2025-07-22T08:39:46Z</time>
      </trkpt>
      <trkpt lat="42.8976" lon="0.06702">
        <ele>1238.6</ele>
        <time>2025-07-22T08:39:47Z</time>
      </trkpt>
      <trkpt lat="42.89754" lon="0.06689">
        <ele>1237.4</ele>
        <time>2025-07-22T08:39:49Z</time>
      </trkpt>
      <trkpt lat="42.89749" lon="0.06675">
        <ele>1236.4</ele>
        <time>2025-07-22T08:39:51Z</time>
      </trkpt>
      <trkpt lat="42.89745" lon="0.06661">
        <ele>1235.4</ele>
        <time>2025-07-22T08:39:53Z</time>
      </trkpt>
      <trkpt lat="42.89738" lon="0.06641">
        <ele>1233.6</ele>
        <time>2025-07-22T08:39:56Z</time>
      </trkpt>
      <trkpt lat="42.89726" lon="0.06612">
        <ele>1232.2</ele>
        <time>2025-07-22T08:40:01Z</time>
      </trkpt>
      <trkpt lat="42.89719" lon="0.06593">
        <ele>1231.2</ele>
        <time>2025-07-22T08:40:04Z</time>
      </trkpt>
      <trkpt lat="42.89718" lon="0.06587">
        <ele>1231</ele>
        <time>2025-07-22T08:40:05Z</time>
      </trkpt>
      <trkpt lat="42.89717" lon="0.06578">
        <ele>1230</ele>
        <time>2025-07-22T08:40:07Z</time>
      </trkpt>
      <trkpt lat="42.89727" lon="0.06561">
        <ele>1228.8</ele>
        <time>2025-07-22T08:40:11Z</time>
      </trkpt>
      <trkpt lat="42.89734" lon="0.06549">
        <ele>1227.6</ele>
        <time>2025-07-22T08:40:14Z</time>
      </trkpt>
      <trkpt lat="42.89734" lon="0.06544">
        <ele>1227.2</ele>
        <time>2025-07-22T08:40:15Z</time>
      </trkpt>
      <trkpt lat="42.8973" lon="0.06532">
        <ele>1226.6</ele>
        <time>2025-07-22T08:40:17Z</time>
      </trkpt>
      <trkpt lat="42.89726" lon="0.06527">
        <ele>1226.2</ele>
        <time>2025-07-22T08:40:18Z</time>
      </trkpt>
      <trkpt lat="42.8972" lon="0.06515">
        <ele>1225.6</ele>
        <time>2025-07-22T08:40:20Z</time>
      </trkpt>
      <trkpt lat="42.89718" lon="0.06508">
        <ele>1225</ele>
        <time>2025-07-22T08:40:21Z</time>
      </trkpt>
      <trkpt lat="42.89716" lon="0.06502">
        <ele>1224.6</ele>
        <time>2025-07-22T08:40:22Z</time>
      </trkpt>
      <trkpt lat="42.89714" lon="0.06494">
        <ele>1224</ele>
        <time>2025-07-22T08:40:23Z</time>
      </trkpt>
      <trkpt lat="42.89711" lon="0.06468">
        <ele>1222.2</ele>
        <time>2025-07-22T08:40:26Z</time>
      </trkpt>
      <trkpt lat="42.89709" lon="0.06442">
        <ele>1221.2</ele>
        <time>2025-07-22T08:40:29Z</time>
      </trkpt>
      <trkpt lat="42.89709" lon="0.06427">
        <ele>1219.6</ele>
        <time>2025-07-22T08:40:31Z</time>
      </trkpt>
      <trkpt lat="42.89709" lon="0.06423">
        <ele>1219.4</ele>
        <time>2025-07-22T08:40:32Z</time>
      </trkpt>
      <trkpt lat="42.89708" lon="0.06409">
        <ele>1218.6</ele>
        <time>2025-07-22T08:40:34Z</time>
      </trkpt>
      <trkpt lat="42.89706" lon="0.06403">
        <ele>1218</ele>
        <time>2025-07-22T08:40:35Z</time>
      </trkpt>
      <trkpt lat="42.89703" lon="0.06396">
        <ele>1217.4</ele>
        <time>2025-07-22T08:40:36Z</time>
      </trkpt>
      <trkpt lat="42.89697" lon="0.06384">
        <ele>1216.8</ele>
        <time>2025-07-22T08:40:38Z</time>
      </trkpt>
      <trkpt lat="42.89684" lon="0.06364">
        <ele>1215.6</ele>
        <time>2025-07-22T08:40:41Z</time>
      </trkpt>
      <trkpt lat="42.89677" lon="0.06351">
        <ele>1214.6</ele>
        <time>2025-07-22T08:40:43Z</time>
      </trkpt>
      <trkpt lat="42.8967" lon="0.0633">
        <ele>1213.6</ele>
        <time>2025-07-22T08:40:46Z</time>
      </trkpt>
      <trkpt lat="42.89668" lon="0.06317">
        <ele>1212.4</ele>
        <time>2025-07-22T08:40:48Z</time>
      </trkpt>
      <trkpt lat="42.89666" lon="0.06311">
        <ele>1212.4</ele>
        <time>2025-07-22T08:40:49Z</time>
      </trkpt>
      <trkpt lat="42.89665" lon="0.06306">
        <ele>1212</ele>
        <time>2025-07-22T08:40:50Z</time>
      </trkpt>
      <trkpt lat="42.8966" lon="0.06299">
        <ele>1211.8</ele>
        <time>2025-07-22T08:40:52Z</time>
      </trkpt>
      <trkpt lat="42.89657" lon="0.06298">
        <ele>1211.6</ele>
        <time>2025-07-22T08:40:53Z</time>
      </trkpt>
      <trkpt lat="42.89647" lon="0.06302">
        <ele>1211</ele>
        <time>2025-07-22T08:40:56Z</time>
      </trkpt>
      <trkpt lat="42.89634" lon="0.06302">
        <ele>1210.4</ele>
        <time>2025-07-22T08:41:00Z</time>
      </trkpt>
      <trkpt lat="42.89632" lon="0.063">
        <ele>1210.4</ele>
        <time>2025-07-22T08:41:01Z</time>
      </trkpt>
      <trkpt lat="42.89631" lon="0.06296">
        <ele>1210.4</ele>
        <time>2025-07-22T08:41:03Z</time>
      </trkpt>
      <trkpt lat="42.89629" lon="0.06294">
        <ele>1210.2</ele>
        <time>2025-07-22T08:41:05Z</time>
      </trkpt>
      <trkpt lat="42.89629" lon="0.06294">
        <ele>1210.2</ele>
        <time>2025-07-22T08:41:06Z</time>
      </trkpt>
      <trkpt lat="42.89627" lon="0.06291">
        <ele>1209.6</ele>
        <time>2025-07-22T08:41:45Z</time>
      </trkpt>
      <trkpt lat="42.89626" lon="0.06282">
        <ele>1209.6</ele>
        <time>2025-07-22T08:41:47Z</time>
      </trkpt>
      <trkpt lat="42.89624" lon="0.06257">
        <ele>1209.4</ele>
        <time>2025-07-22T08:41:52Z</time>
      </trkpt>
      <trkpt lat="42.89624" lon="0.06245">
        <ele>1208.6</ele>
        <time>2025-07-22T08:41:55Z</time>
      </trkpt>
      <trkpt lat="42.89623" lon="0.06231">
        <ele>1207.4</ele>
        <time>2025-07-22T08:41:58Z</time>
      </trkpt>
      <trkpt lat="42.89623" lon="0.06226">
        <ele>1207.4</ele>
        <time>2025-07-22T08:41:59Z</time>
      </trkpt>
      <trkpt lat="42.89621" lon="0.06204">
        <ele>1206.4</ele>
        <time>2025-07-22T08:42:03Z</time>
      </trkpt>
      <trkpt lat="42.8962" lon="0.06193">
        <ele>1206</ele>
        <time>2025-07-22T08:42:05Z</time>
      </trkpt>
      <trkpt lat="42.8962" lon="0.06168">
        <ele>1205.2</ele>
        <time>2025-07-22T08:42:09Z</time>
      </trkpt>
      <trkpt lat="42.89619" lon="0.06155">
        <ele>1204.8</ele>
        <time>2025-07-22T08:42:11Z</time>
      </trkpt>
      <trkpt lat="42.89619" lon="0.06133">
        <ele>1204.4</ele>
        <time>2025-07-22T08:42:14Z</time>
      </trkpt>
      <trkpt lat="42.89619" lon="0.06119">
        <ele>1204</ele>
        <time>2025-07-22T08:42:16Z</time>
      </trkpt>
      <trkpt lat="42.89619" lon="0.06104">
        <ele>1203.6</ele>
        <time>2025-07-22T08:42:18Z</time>
      </trkpt>
      <trkpt lat="42.89618" lon="0.06096">
        <ele>1203.2</ele>
        <time>2025-07-22T08:42:19Z</time>
      </trkpt>
      <trkpt lat="42.89615" lon="0.06072">
        <ele>1202.4</ele>
        <time>2025-07-22T08:42:22Z</time>
      </trkpt>
      <trkpt lat="42.89611" lon="0.06053">
        <ele>1202</ele>
        <time>2025-07-22T08:42:24Z</time>
      </trkpt>
      <trkpt lat="42.89607" lon="0.06025">
        <ele>1200.6</ele>
        <time>2025-07-22T08:42:27Z</time>
      </trkpt>
      <trkpt lat="42.89606" lon="0.06006">
        <ele>1199.8</ele>
        <time>2025-07-22T08:42:29Z</time>
      </trkpt>
      <trkpt lat="42.89605" lon="0.05997">
        <ele>1199.4</ele>
        <time>2025-07-22T08:42:30Z</time>
      </trkpt>
      <trkpt lat="42.89601" lon="0.0598">
        <ele>1198.8</ele>
        <time>2025-07-22T08:42:32Z</time>
      </trkpt>
      <trkpt lat="42.89597" lon="0.0597">
        <ele>1198.2</ele>
        <time>2025-07-22T08:42:33Z</time>
      </trkpt>
      <trkpt lat="42.89593" lon="0.05962">
        <ele>1197.6</ele>
        <time>2025-07-22T08:42:34Z</time>
      </trkpt>
      <trkpt lat="42.89587" lon="0.05955">
        <ele>1197</ele>
        <time>2025-07-22T08:42:35Z</time>
      </trkpt>
      <trkpt lat="42.89581" lon="0.05949">
        <ele>1196.4</ele>
        <time>2025-07-22T08:42:36Z</time>
      </trkpt>
      <trkpt lat="42.89575" lon="0.05946">
        <ele>1196</ele>
        <time>2025-07-22T08:42:37Z</time>
      </trkpt>
      <trkpt lat="42.89568" lon="0.05943">
        <ele>1195.8</ele>
        <time>2025-07-22T08:42:38Z</time>
      </trkpt>
      <trkpt lat="42.89559" lon="0.05942">
        <ele>1194.8</ele>
        <time>2025-07-22T08:42:39Z</time>
      </trkpt>
      <trkpt lat="42.89551" lon="0.05943">
        <ele>1194.4</ele>
        <time>2025-07-22T08:42:40Z</time>
      </trkpt>
      <trkpt lat="42.89544" lon="0.05944">
        <ele>1193.6</ele>
        <time>2025-07-22T08:42:41Z</time>
      </trkpt>
      <trkpt lat="42.89528" lon="0.05948">
        <ele>1192.4</ele>
        <time>2025-07-22T08:42:43Z</time>
      </trkpt>
      <trkpt lat="42.89519" lon="0.0595">
        <ele>1191.6</ele>
        <time>2025-07-22T08:42:44Z</time>
      </trkpt>
      <trkpt lat="42.89511" lon="0.05949">
        <ele>1191.4</ele>
        <time>2025-07-22T08:42:45Z</time>
      </trkpt>
      <trkpt lat="42.89505" lon="0.05947">
        <ele>1190.8</ele>
        <time>2025-07-22T08:42:46Z</time>
      </trkpt>
      <trkpt lat="42.89498" lon="0.05942">
        <ele>1190.4</ele>
        <time>2025-07-22T08:42:47Z</time>
      </trkpt>
      <trkpt lat="42.89496" lon="0.05936">
        <ele>1189.4</ele>
        <time>2025-07-22T08:42:48Z</time>
      </trkpt>
      <trkpt lat="42.89495" lon="0.05925">
        <ele>1188.6</ele>
        <time>2025-07-22T08:42:49Z</time>
      </trkpt>
      <trkpt lat="42.89496" lon="0.05916">
        <ele>1188.2</ele>
        <time>2025-07-22T08:42:50Z</time>
      </trkpt>
      <trkpt lat="42.89501" lon="0.05908">
        <ele>1187.6</ele>
        <time>2025-07-22T08:42:51Z</time>
      </trkpt>
      <trkpt lat="42.89513" lon="0.05902">
        <ele>1186.4</ele>
        <time>2025-07-22T08:42:53Z</time>
      </trkpt>
      <trkpt lat="42.89521" lon="0.05908">
        <ele>1185.8</ele>
        <time>2025-07-22T08:42:54Z</time>
      </trkpt>
      <trkpt lat="42.89535" lon="0.05917">
        <ele>1184.8</ele>
        <time>2025-07-22T08:42:56Z</time>
      </trkpt>
      <trkpt lat="42.89541" lon="0.05918">
        <ele>1184.2</ele>
        <time>2025-07-22T08:42:57Z</time>
      </trkpt>
      <trkpt lat="42.89549" lon="0.05917">
        <ele>1183.4</ele>
        <time>2025-07-22T08:42:58Z</time>
      </trkpt>
      <trkpt lat="42.89558" lon="0.05912">
        <ele>1183</ele>
        <time>2025-07-22T08:42:59Z</time>
      </trkpt>
      <trkpt lat="42.89564" lon="0.05904">
        <ele>1182.4</ele>
        <time>2025-07-22T08:43:00Z</time>
      </trkpt>
      <trkpt lat="42.89568" lon="0.05895">
        <ele>1182</ele>
        <time>2025-07-22T08:43:01Z</time>
      </trkpt>
      <trkpt lat="42.89568" lon="0.05887">
        <ele>1181.8</ele>
        <time>2025-07-22T08:43:02Z</time>
      </trkpt>
      <trkpt lat="42.89566" lon="0.05877">
        <ele>1181.2</ele>
        <time>2025-07-22T08:43:03Z</time>
      </trkpt>
      <trkpt lat="42.89562" lon="0.05869">
        <ele>1181</ele>
        <time>2025-07-22T08:43:04Z</time>
      </trkpt>
      <trkpt lat="42.89555" lon="0.05863">
        <ele>1180.4</ele>
        <time>2025-07-22T08:43:05Z</time>
      </trkpt>
      <trkpt lat="42.89546" lon="0.05857">
        <ele>1179.8</ele>
        <time>2025-07-22T08:43:06Z</time>
      </trkpt>
      <trkpt lat="42.89525" lon="0.05843">
        <ele>1178.4</ele>
        <time>2025-07-22T08:43:09Z</time>
      </trkpt>
      <trkpt lat="42.89507" lon="0.05829">
        <ele>1177.2</ele>
        <time>2025-07-22T08:43:11Z</time>
      </trkpt>
      <trkpt lat="42.89495" lon="0.05814">
        <ele>1175.4</ele>
        <time>2025-07-22T08:43:13Z</time>
      </trkpt>
      <trkpt lat="42.89479" lon="0.05793">
        <ele>1174.2</ele>
        <time>2025-07-22T08:43:15Z</time>
      </trkpt>
      <trkpt lat="42.89467" lon="0.05774">
        <ele>1172.8</ele>
        <time>2025-07-22T08:43:17Z</time>
      </trkpt>
      <trkpt lat="42.89461" lon="0.05764">
        <ele>1171.6</ele>
        <time>2025-07-22T08:43:18Z</time>
      </trkpt>
      <trkpt lat="42.8945" lon="0.05743">
        <ele>1170.2</ele>
        <time>2025-07-22T08:43:20Z</time>
      </trkpt>
      <trkpt lat="42.89441" lon="0.0572">
        <ele>1168.6</ele>
        <time>2025-07-22T08:43:22Z</time>
      </trkpt>
      <trkpt lat="42.89437" lon="0.05708">
        <ele>1167.2</ele>
        <time>2025-07-22T08:43:23Z</time>
      </trkpt>
      <trkpt lat="42.8943" lon="0.05683">
        <ele>1166.2</ele>
        <time>2025-07-22T08:43:25Z</time>
      </trkpt>
      <trkpt lat="42.89424" lon="0.05659">
        <ele>1164</ele>
        <time>2025-07-22T08:43:27Z</time>
      </trkpt>
      <trkpt lat="42.89416" lon="0.05634">
        <ele>1162.4</ele>
        <time>2025-07-22T08:43:29Z</time>
      </trkpt>
      <trkpt lat="42.89412" lon="0.05622">
        <ele>1161.2</ele>
        <time>2025-07-22T08:43:30Z</time>
      </trkpt>
      <trkpt lat="42.89401" lon="0.05596">
        <ele>1159.4</ele>
        <time>2025-07-22T08:43:32Z</time>
      </trkpt>
      <trkpt lat="42.89389" lon="0.05568">
        <ele>1157.6</ele>
        <time>2025-07-22T08:43:34Z</time>
      </trkpt>
      <trkpt lat="42.89376" lon="0.05539">
        <ele>1156</ele>
        <time>2025-07-22T08:43:36Z</time>
      </trkpt>
      <trkpt lat="42.8937" lon="0.05525">
        <ele>1154.6</ele>
        <time>2025-07-22T08:43:37Z</time>
      </trkpt>
      <trkpt lat="42.89357" lon="0.05496">
        <ele>1152.4</ele>
        <time>2025-07-22T08:43:39Z</time>
      </trkpt>
      <trkpt lat="42.8935" lon="0.05481">
        <ele>1151.6</ele>
        <time>2025-07-22T08:43:40Z</time>
      </trkpt>
      <trkpt lat="42.89342" lon="0.05465">
        <ele>1150</ele>
        <time>2025-07-22T08:43:41Z</time>
      </trkpt>
      <trkpt lat="42.89335" lon="0.0545">
        <ele>1148.6</ele>
        <time>2025-07-22T08:43:42Z</time>
      </trkpt>
      <trkpt lat="42.89322" lon="0.05418">
        <ele>1146.2</ele>
        <time>2025-07-22T08:43:44Z</time>
      </trkpt>
      <trkpt lat="42.8931" lon="0.05385">
        <ele>1144</ele>
        <time>2025-07-22T08:43:46Z</time>
      </trkpt>
      <trkpt lat="42.89305" lon="0.05368">
        <ele>1142.4</ele>
        <time>2025-07-22T08:43:47Z</time>
      </trkpt>
      <trkpt lat="42.89299" lon="0.05335">
        <ele>1140.2</ele>
        <time>2025-07-22T08:43:49Z</time>
      </trkpt>
      <trkpt lat="42.89296" lon="0.0532">
        <ele>1139.6</ele>
        <time>2025-07-22T08:43:50Z</time>
      </trkpt>
      <trkpt lat="42.89294" lon="0.05304">
        <ele>1138.4</ele>
        <time>2025-07-22T08:43:51Z</time>
      </trkpt>
      <trkpt lat="42.89288" lon="0.05275">
        <ele>1135.8</ele>
        <time>2025-07-22T08:43:53Z</time>
      </trkpt>
      <trkpt lat="42.89283" lon="0.0526">
        <ele>1134.4</ele>
        <time>2025-07-22T08:43:54Z</time>
      </trkpt>
      <trkpt lat="42.8927" lon="0.05233">
        <ele>1132.6</ele>
        <time>2025-07-22T08:43:56Z</time>
      </trkpt>
      <trkpt lat="42.89257" lon="0.05205">
        <ele>1130.8</ele>
        <time>2025-07-22T08:43:58Z</time>
      </trkpt>
      <trkpt lat="42.8925" lon="0.05191">
        <ele>1129.4</ele>
        <time>2025-07-22T08:43:59Z</time>
      </trkpt>
      <trkpt lat="42.89236" lon="0.05164">
        <ele>1127.4</ele>
        <time>2025-07-22T08:44:01Z</time>
      </trkpt>
      <trkpt lat="42.8923" lon="0.0515">
        <ele>1126.4</ele>
        <time>2025-07-22T08:44:02Z</time>
      </trkpt>
      <trkpt lat="42.89224" lon="0.05138">
        <ele>1125.2</ele>
        <time>2025-07-22T08:44:03Z</time>
      </trkpt>
      <trkpt lat="42.89219" lon="0.05128">
        <ele>1124</ele>
        <time>2025-07-22T08:44:04Z</time>
      </trkpt>
      <trkpt lat="42.89205" lon="0.05106">
        <ele>1122.2</ele>
        <time>2025-07-22T08:44:06Z</time>
      </trkpt>
      <trkpt lat="42.89187" lon="0.05091">
        <ele>1120.2</ele>
        <time>2025-07-22T08:44:08Z</time>
      </trkpt>
      <trkpt lat="42.89178" lon="0.05085">
        <ele>1119.8</ele>
        <time>2025-07-22T08:44:09Z</time>
      </trkpt>
      <trkpt lat="42.89168" lon="0.0508">
        <ele>1119</ele>
        <time>2025-07-22T08:44:10Z</time>
      </trkpt>
      <trkpt lat="42.89158" lon="0.05075">
        <ele>1117.6</ele>
        <time>2025-07-22T08:44:11Z</time>
      </trkpt>
      <trkpt lat="42.89138" lon="0.05065">
        <ele>1116</ele>
        <time>2025-07-22T08:44:13Z</time>
      </trkpt>
      <trkpt lat="42.8913" lon="0.0506">
        <ele>1115.4</ele>
        <time>2025-07-22T08:44:14Z</time>
      </trkpt>
      <trkpt lat="42.89121" lon="0.05052">
        <ele>1114.2</ele>
        <time>2025-07-22T08:44:15Z</time>
      </trkpt>
      <trkpt lat="42.89113" lon="0.05042">
        <ele>1112.8</ele>
        <time>2025-07-22T08:44:16Z</time>
      </trkpt>
      <trkpt lat="42.89096" lon="0.05017">
        <ele>1111</ele>
        <time>2025-07-22T08:44:18Z</time>
      </trkpt>
      <trkpt lat="42.89079" lon="0.04994">
        <ele>1109.6</ele>
        <time>2025-07-22T08:44:20Z</time>
      </trkpt>
      <trkpt lat="42.89066" lon="0.0497">
        <ele>1107.8</ele>
        <time>2025-07-22T08:44:22Z</time>
      </trkpt>
      <trkpt lat="42.89062" lon="0.04957">
        <ele>1106.4</ele>
        <time>2025-07-22T08:44:23Z</time>
      </trkpt>
      <trkpt lat="42.89059" lon="0.04943">
        <ele>1105.8</ele>
        <time>2025-07-22T08:44:24Z</time>
      </trkpt>
      <trkpt lat="42.89058" lon="0.04932">
        <ele>1104.2</ele>
        <time>2025-07-22T08:44:25Z</time>
      </trkpt>
      <trkpt lat="42.89058" lon="0.04918">
        <ele>1103.8</ele>
        <time>2025-07-22T08:44:26Z</time>
      </trkpt>
      <trkpt lat="42.89057" lon="0.04902">
        <ele>1102.4</ele>
        <time>2025-07-22T08:44:27Z</time>
      </trkpt>
      <trkpt lat="42.89054" lon="0.04889">
        <ele>1101.2</ele>
        <time>2025-07-22T08:44:28Z</time>
      </trkpt>
      <trkpt lat="42.8905" lon="0.04877">
        <ele>1100.6</ele>
        <time>2025-07-22T08:44:29Z</time>
      </trkpt>
      <trkpt lat="42.89045" lon="0.04869">
        <ele>1099.2</ele>
        <time>2025-07-22T08:44:30Z</time>
      </trkpt>
      <trkpt lat="42.89037" lon="0.0486">
        <ele>1098.6</ele>
        <time>2025-07-22T08:44:31Z</time>
      </trkpt>
      <trkpt lat="42.89028" lon="0.0485">
        <ele>1097.8</ele>
        <time>2025-07-22T08:44:32Z</time>
      </trkpt>
      <trkpt lat="42.89017" lon="0.04835">
        <ele>1096.4</ele>
        <time>2025-07-22T08:44:34Z</time>
      </trkpt>
      <trkpt lat="42.89015" lon="0.04828">
        <ele>1095.4</ele>
        <time>2025-07-22T08:44:35Z</time>
      </trkpt>
      <trkpt lat="42.89015" lon="0.04818">
        <ele>1095.2</ele>
        <time>2025-07-22T08:44:36Z</time>
      </trkpt>
      <trkpt lat="42.89018" lon="0.04809">
        <ele>1094.6</ele>
        <time>2025-07-22T08:44:37Z</time>
      </trkpt>
      <trkpt lat="42.89024" lon="0.04802">
        <ele>1094.2</ele>
        <time>2025-07-22T08:44:38Z</time>
      </trkpt>
      <trkpt lat="42.89031" lon="0.04801">
        <ele>1093.6</ele>
        <time>2025-07-22T08:44:39Z</time>
      </trkpt>
      <trkpt lat="42.89037" lon="0.04803">
        <ele>1092.6</ele>
        <time>2025-07-22T08:44:40Z</time>
      </trkpt>
      <trkpt lat="42.89043" lon="0.04808">
        <ele>1092.2</ele>
        <time>2025-07-22T08:44:41Z</time>
      </trkpt>
      <trkpt lat="42.89048" lon="0.04817">
        <ele>1091.2</ele>
        <time>2025-07-22T08:44:42Z</time>
      </trkpt>
      <trkpt lat="42.8906" lon="0.04838">
        <ele>1089.8</ele>
        <time>2025-07-22T08:44:44Z</time>
      </trkpt>
      <trkpt lat="42.89065" lon="0.04847">
        <ele>1089.2</ele>
        <time>2025-07-22T08:44:45Z</time>
      </trkpt>
      <trkpt lat="42.8907" lon="0.04854">
        <ele>1089</ele>
        <time>2025-07-22T08:44:46Z</time>
      </trkpt>
      <trkpt lat="42.89076" lon="0.04862">
        <ele>1088.6</ele>
        <time>2025-07-22T08:44:47Z</time>
      </trkpt>
      <trkpt lat="42.89091" lon="0.04876">
        <ele>1087.6</ele>
        <time>2025-07-22T08:44:49Z</time>
      </trkpt>
      <trkpt lat="42.89104" lon="0.04877">
        <ele>1086.8</ele>
        <time>2025-07-22T08:44:51Z</time>
      </trkpt>
      <trkpt lat="42.8911" lon="0.04873">
        <ele>1086.4</ele>
        <time>2025-07-22T08:44:52Z</time>
      </trkpt>
      <trkpt lat="42.89114" lon="0.04865">
        <ele>1086.2</ele>
        <time>2025-07-22T08:44:53Z</time>
      </trkpt>
      <trkpt lat="42.89116" lon="0.04856">
        <ele>1085.2</ele>
        <time>2025-07-22T08:44:54Z</time>
      </trkpt>
      <trkpt lat="42.89114" lon="0.04847">
        <ele>1085</ele>
        <time>2025-07-22T08:44:55Z</time>
      </trkpt>
      <trkpt lat="42.8911" lon="0.04838">
        <ele>1084.6</ele>
        <time>2025-07-22T08:44:56Z</time>
      </trkpt>
      <trkpt lat="42.89105" lon="0.0483">
        <ele>1084.2</ele>
        <time>2025-07-22T08:44:57Z</time>
      </trkpt>
      <trkpt lat="42.89084" lon="0.04794">
        <ele>1083</ele>
        <time>2025-07-22T08:45:01Z</time>
      </trkpt>
      <trkpt lat="42.89063" lon="0.04762">
        <ele>1081.6</ele>
        <time>2025-07-22T08:45:04Z</time>
      </trkpt>
      <trkpt lat="42.8905" lon="0.04742">
        <ele>1080</ele>
        <time>2025-07-22T08:45:06Z</time>
      </trkpt>
      <trkpt lat="42.89038" lon="0.04725">
        <ele>1078.8</ele>
        <time>2025-07-22T08:45:08Z</time>
      </trkpt>
      <trkpt lat="42.89028" lon="0.04714">
        <ele>1077.8</ele>
        <time>2025-07-22T08:45:09Z</time>
      </trkpt>
      <trkpt lat="42.8902" lon="0.04707">
        <ele>1077.6</ele>
        <time>2025-07-22T08:45:10Z</time>
      </trkpt>
      <trkpt lat="42.8901" lon="0.047">
        <ele>1076.6</ele>
        <time>2025-07-22T08:45:11Z</time>
      </trkpt>
      <trkpt lat="42.88999" lon="0.04695">
        <ele>1076</ele>
        <time>2025-07-22T08:45:12Z</time>
      </trkpt>
      <trkpt lat="42.88989" lon="0.0469">
        <ele>1075</ele>
        <time>2025-07-22T08:45:13Z</time>
      </trkpt>
      <trkpt lat="42.88966" lon="0.0468">
        <ele>1073.4</ele>
        <time>2025-07-22T08:45:15Z</time>
      </trkpt>
      <trkpt lat="42.88955" lon="0.04675">
        <ele>1072</ele>
        <time>2025-07-22T08:45:16Z</time>
      </trkpt>
      <trkpt lat="42.88932" lon="0.04664">
        <ele>1070.4</ele>
        <time>2025-07-22T08:45:18Z</time>
      </trkpt>
      <trkpt lat="42.8891" lon="0.04652">
        <ele>1068</ele>
        <time>2025-07-22T08:45:20Z</time>
      </trkpt>
      <trkpt lat="42.889" lon="0.04646">
        <ele>1066.4</ele>
        <time>2025-07-22T08:45:21Z</time>
      </trkpt>
      <trkpt lat="42.88878" lon="0.04635">
        <ele>1064.4</ele>
        <time>2025-07-22T08:45:23Z</time>
      </trkpt>
      <trkpt lat="42.88854" lon="0.04627">
        <ele>1062.2</ele>
        <time>2025-07-22T08:45:25Z</time>
      </trkpt>
      <trkpt lat="42.88842" lon="0.04622">
        <ele>1060.8</ele>
        <time>2025-07-22T08:45:26Z</time>
      </trkpt>
      <trkpt lat="42.8882" lon="0.04613">
        <ele>1059.2</ele>
        <time>2025-07-22T08:45:28Z</time>
      </trkpt>
      <trkpt lat="42.88807" lon="0.04604">
        <ele>1058.6</ele>
        <time>2025-07-22T08:45:29Z</time>
      </trkpt>
      <trkpt lat="42.88796" lon="0.04596">
        <ele>1057.4</ele>
        <time>2025-07-22T08:45:30Z</time>
      </trkpt>
      <trkpt lat="42.88778" lon="0.04579">
        <ele>1055.6</ele>
        <time>2025-07-22T08:45:32Z</time>
      </trkpt>
      <trkpt lat="42.88766" lon="0.04566">
        <ele>1054.6</ele>
        <time>2025-07-22T08:45:33Z</time>
      </trkpt>
      <trkpt lat="42.88746" lon="0.04546">
        <ele>1052.8</ele>
        <time>2025-07-22T08:45:35Z</time>
      </trkpt>
      <trkpt lat="42.88726" lon="0.04526">
        <ele>1051</ele>
        <time>2025-07-22T08:45:37Z</time>
      </trkpt>
      <trkpt lat="42.88705" lon="0.04508">
        <ele>1049.4</ele>
        <time>2025-07-22T08:45:39Z</time>
      </trkpt>
      <trkpt lat="42.88694" lon="0.04499">
        <ele>1048.4</ele>
        <time>2025-07-22T08:45:40Z</time>
      </trkpt>
      <trkpt lat="42.88683" lon="0.0449">
        <ele>1047.8</ele>
        <time>2025-07-22T08:45:41Z</time>
      </trkpt>
      <trkpt lat="42.88674" lon="0.04483">
        <ele>1047</ele>
        <time>2025-07-22T08:45:42Z</time>
      </trkpt>
      <trkpt lat="42.88661" lon="0.04472">
        <ele>1045.8</ele>
        <time>2025-07-22T08:45:43Z</time>
      </trkpt>
      <trkpt lat="42.88638" lon="0.04452">
        <ele>1043.8</ele>
        <time>2025-07-22T08:45:45Z</time>
      </trkpt>
      <trkpt lat="42.88617" lon="0.04431">
        <ele>1041.6</ele>
        <time>2025-07-22T08:45:47Z</time>
      </trkpt>
      <trkpt lat="42.88607" lon="0.0442">
        <ele>1040.6</ele>
        <time>2025-07-22T08:45:48Z</time>
      </trkpt>
      <trkpt lat="42.88598" lon="0.04408">
        <ele>1039.4</ele>
        <time>2025-07-22T08:45:49Z</time>
      </trkpt>
      <trkpt lat="42.88589" lon="0.04396">
        <ele>1037.8</ele>
        <time>2025-07-22T08:45:50Z</time>
      </trkpt>
      <trkpt lat="42.88571" lon="0.04372">
        <ele>1036.6</ele>
        <time>2025-07-22T08:45:52Z</time>
      </trkpt>
      <trkpt lat="42.88555" lon="0.04347">
        <ele>1034.2</ele>
        <time>2025-07-22T08:45:54Z</time>
      </trkpt>
      <trkpt lat="42.88548" lon="0.04333">
        <ele>1032.6</ele>
        <time>2025-07-22T08:45:55Z</time>
      </trkpt>
      <trkpt lat="42.88542" lon="0.0432">
        <ele>1032</ele>
        <time>2025-07-22T08:45:56Z</time>
      </trkpt>
      <trkpt lat="42.88535" lon="0.04306">
        <ele>1030.4</ele>
        <time>2025-07-22T08:45:57Z</time>
      </trkpt>
      <trkpt lat="42.88519" lon="0.04281">
        <ele>1028.4</ele>
        <time>2025-07-22T08:45:59Z</time>
      </trkpt>
      <trkpt lat="42.8851" lon="0.0427">
        <ele>1027.6</ele>
        <time>2025-07-22T08:46:00Z</time>
      </trkpt>
      <trkpt lat="42.88502" lon="0.0426">
        <ele>1026.4</ele>
        <time>2025-07-22T08:46:01Z</time>
      </trkpt>
      <trkpt lat="42.88493" lon="0.0425">
        <ele>1024.6</ele>
        <time>2025-07-22T08:46:02Z</time>
      </trkpt>
      <trkpt lat="42.88475" lon="0.04228">
        <ele>1022.8</ele>
        <time>2025-07-22T08:46:04Z</time>
      </trkpt>
      <trkpt lat="42.88457" lon="0.04206">
        <ele>1021</ele>
        <time>2025-07-22T08:46:06Z</time>
      </trkpt>
      <trkpt lat="42.88448" lon="0.04194">
        <ele>1020</ele>
        <time>2025-07-22T08:46:07Z</time>
      </trkpt>
      <trkpt lat="42.88431" lon="0.0417">
        <ele>1018.2</ele>
        <time>2025-07-22T08:46:09Z</time>
      </trkpt>
      <trkpt lat="42.88414" lon="0.04146">
        <ele>1016.2</ele>
        <time>2025-07-22T08:46:11Z</time>
      </trkpt>
      <trkpt lat="42.88398" lon="0.04124">
        <ele>1014.6</ele>
        <time>2025-07-22T08:46:13Z</time>
      </trkpt>
      <trkpt lat="42.88389" lon="0.04112">
        <ele>1013.8</ele>
        <time>2025-07-22T08:46:14Z</time>
      </trkpt>
      <trkpt lat="42.8837" lon="0.04086">
        <ele>1012.4</ele>
        <time>2025-07-22T08:46:16Z</time>
      </trkpt>
      <trkpt lat="42.88355" lon="0.04065">
        <ele>1010.4</ele>
        <time>2025-07-22T08:46:18Z</time>
      </trkpt>
      <trkpt lat="42.88345" lon="0.04051">
        <ele>1008.8</ele>
        <time>2025-07-22T08:46:19Z</time>
      </trkpt>
      <trkpt lat="42.88328" lon="0.04028">
        <ele>1006.6</ele>
        <time>2025-07-22T08:46:21Z</time>
      </trkpt>
      <trkpt lat="42.88315" lon="0.04009">
        <ele>1005.2</ele>
        <time>2025-07-22T08:46:23Z</time>
      </trkpt>
      <trkpt lat="42.88308" lon="0.04">
        <ele>1003.8</ele>
        <time>2025-07-22T08:46:24Z</time>
      </trkpt>
      <trkpt lat="42.88292" lon="0.03987">
        <ele>1001.4</ele>
        <time>2025-07-22T08:46:26Z</time>
      </trkpt>
      <trkpt lat="42.88284" lon="0.03984">
        <ele>1000.6</ele>
        <time>2025-07-22T08:46:27Z</time>
      </trkpt>
      <trkpt lat="42.88276" lon="0.03982">
        <ele>999.6</ele>
        <time>2025-07-22T08:46:28Z</time>
      </trkpt>
      <trkpt lat="42.88262" lon="0.03977">
        <ele>998</ele>
        <time>2025-07-22T08:46:30Z</time>
      </trkpt>
      <trkpt lat="42.88257" lon="0.03972">
        <ele>997.2</ele>
        <time>2025-07-22T08:46:31Z</time>
      </trkpt>
      <trkpt lat="42.88255" lon="0.03965">
        <ele>996.8</ele>
        <time>2025-07-22T08:46:32Z</time>
      </trkpt>
      <trkpt lat="42.88258" lon="0.03957">
        <ele>995.6</ele>
        <time>2025-07-22T08:46:33Z</time>
      </trkpt>
      <trkpt lat="42.88262" lon="0.0395">
        <ele>995.2</ele>
        <time>2025-07-22T08:46:34Z</time>
      </trkpt>
      <trkpt lat="42.88269" lon="0.03948">
        <ele>994.4</ele>
        <time>2025-07-22T08:46:35Z</time>
      </trkpt>
      <trkpt lat="42.88276" lon="0.03948">
        <ele>993.8</ele>
        <time>2025-07-22T08:46:36Z</time>
      </trkpt>
      <trkpt lat="42.88283" lon="0.03952">
        <ele>993.2</ele>
        <time>2025-07-22T08:46:37Z</time>
      </trkpt>
      <trkpt lat="42.88291" lon="0.03958">
        <ele>992.8</ele>
        <time>2025-07-22T08:46:38Z</time>
      </trkpt>
      <trkpt lat="42.88299" lon="0.03965">
        <ele>992.2</ele>
        <time>2025-07-22T08:46:39Z</time>
      </trkpt>
      <trkpt lat="42.88307" lon="0.03971">
        <ele>991.2</ele>
        <time>2025-07-22T08:46:40Z</time>
      </trkpt>
      <trkpt lat="42.88315" lon="0.03979">
        <ele>990.8</ele>
        <time>2025-07-22T08:46:41Z</time>
      </trkpt>
      <trkpt lat="42.88322" lon="0.03987">
        <ele>990.2</ele>
        <time>2025-07-22T08:46:42Z</time>
      </trkpt>
      <trkpt lat="42.88328" lon="0.03997">
        <ele>989.4</ele>
        <time>2025-07-22T08:46:43Z</time>
      </trkpt>
      <trkpt lat="42.88339" lon="0.04016">
        <ele>988.4</ele>
        <time>2025-07-22T08:46:45Z</time>
      </trkpt>
      <trkpt lat="42.88345" lon="0.04025">
        <ele>988.2</ele>
        <time>2025-07-22T08:46:46Z</time>
      </trkpt>
      <trkpt lat="42.88351" lon="0.04032">
        <ele>987.4</ele>
        <time>2025-07-22T08:46:47Z</time>
      </trkpt>
      <trkpt lat="42.88357" lon="0.04035">
        <ele>986.6</ele>
        <time>2025-07-22T08:46:48Z</time>
      </trkpt>
      <trkpt lat="42.88364" lon="0.04036">
        <ele>986.2</ele>
        <time>2025-07-22T08:46:49Z</time>
      </trkpt>
      <trkpt lat="42.88375" lon="0.04026">
        <ele>985.4</ele>
        <time>2025-07-22T08:46:51Z</time>
      </trkpt>
      <trkpt lat="42.88377" lon="0.04017">
        <ele>985.2</ele>
        <time>2025-07-22T08:46:52Z</time>
      </trkpt>
      <trkpt lat="42.88377" lon="0.04006">
        <ele>984.8</ele>
        <time>2025-07-22T08:46:53Z</time>
      </trkpt>
      <trkpt lat="42.8837" lon="0.03984">
        <ele>984.4</ele>
        <time>2025-07-22T08:46:55Z</time>
      </trkpt>
      <trkpt lat="42.88361" lon="0.03963">
        <ele>983.8</ele>
        <time>2025-07-22T08:46:57Z</time>
      </trkpt>
      <trkpt lat="42.88349" lon="0.03928">
        <ele>982.2</ele>
        <time>2025-07-22T08:47:00Z</time>
      </trkpt>
      <trkpt lat="42.88339" lon="0.03902">
        <ele>981</ele>
        <time>2025-07-22T08:47:02Z</time>
      </trkpt>
      <trkpt lat="42.88329" lon="0.03879">
        <ele>979.6</ele>
        <time>2025-07-22T08:47:04Z</time>
      </trkpt>
      <trkpt lat="42.88317" lon="0.03849">
        <ele>978.2</ele>
        <time>2025-07-22T08:47:06Z</time>
      </trkpt>
      <trkpt lat="42.88306" lon="0.03821">
        <ele>976.4</ele>
        <time>2025-07-22T08:47:08Z</time>
      </trkpt>
      <trkpt lat="42.88301" lon="0.03807">
        <ele>975.4</ele>
        <time>2025-07-22T08:47:09Z</time>
      </trkpt>
      <trkpt lat="42.88292" lon="0.03779">
        <ele>974</ele>
        <time>2025-07-22T08:47:11Z</time>
      </trkpt>
      <trkpt lat="42.88288" lon="0.03764">
        <ele>973</ele>
        <time>2025-07-22T08:47:12Z</time>
      </trkpt>
      <trkpt lat="42.88285" lon="0.03749">
        <ele>972.2</ele>
        <time>2025-07-22T08:47:13Z</time>
      </trkpt>
      <trkpt lat="42.88282" lon="0.03735">
        <ele>971.2</ele>
        <time>2025-07-22T08:47:14Z</time>
      </trkpt>
      <trkpt lat="42.88277" lon="0.03706">
        <ele>969.4</ele>
        <time>2025-07-22T08:47:16Z</time>
      </trkpt>
      <trkpt lat="42.88275" lon="0.03691">
        <ele>968.2</ele>
        <time>2025-07-22T08:47:17Z</time>
      </trkpt>
      <trkpt lat="42.88273" lon="0.03661">
        <ele>966.4</ele>
        <time>2025-07-22T08:47:19Z</time>
      </trkpt>
      <trkpt lat="42.88272" lon="0.03629">
        <ele>964.4</ele>
        <time>2025-07-22T08:47:21Z</time>
      </trkpt>
      <trkpt lat="42.88273" lon="0.03612">
        <ele>962.6</ele>
        <time>2025-07-22T08:47:22Z</time>
      </trkpt>
      <trkpt lat="42.88273" lon="0.03579">
        <ele>961</ele>
        <time>2025-07-22T08:47:24Z</time>
      </trkpt>
      <trkpt lat="42.88275" lon="0.03545">
        <ele>958.4</ele>
        <time>2025-07-22T08:47:26Z</time>
      </trkpt>
      <trkpt lat="42.88282" lon="0.03514">
        <ele>956.6</ele>
        <time>2025-07-22T08:47:28Z</time>
      </trkpt>
      <trkpt lat="42.88286" lon="0.03499">
        <ele>955</ele>
        <time>2025-07-22T08:47:29Z</time>
      </trkpt>
      <trkpt lat="42.88295" lon="0.03469">
        <ele>952.8</ele>
        <time>2025-07-22T08:47:31Z</time>
      </trkpt>
      <trkpt lat="42.88301" lon="0.03437">
        <ele>950.6</ele>
        <time>2025-07-22T08:47:33Z</time>
      </trkpt>
      <trkpt lat="42.88302" lon="0.03421">
        <ele>949.4</ele>
        <time>2025-07-22T08:47:34Z</time>
      </trkpt>
      <trkpt lat="42.88302" lon="0.03388">
        <ele>947.2</ele>
        <time>2025-07-22T08:47:36Z</time>
      </trkpt>
      <trkpt lat="42.88302" lon="0.0337">
        <ele>946.4</ele>
        <time>2025-07-22T08:47:37Z</time>
      </trkpt>
      <trkpt lat="42.88302" lon="0.03353">
        <ele>945</ele>
        <time>2025-07-22T08:47:38Z</time>
      </trkpt>
      <trkpt lat="42.88303" lon="0.0332">
        <ele>942.8</ele>
        <time>2025-07-22T08:47:40Z</time>
      </trkpt>
      <trkpt lat="42.88303" lon="0.03303">
        <ele>941.4</ele>
        <time>2025-07-22T08:47:41Z</time>
      </trkpt>
      <trkpt lat="42.88304" lon="0.03285">
        <ele>940.4</ele>
        <time>2025-07-22T08:47:42Z</time>
      </trkpt>
      <trkpt lat="42.88306" lon="0.03265">
        <ele>939</ele>
        <time>2025-07-22T08:47:43Z</time>
      </trkpt>
      <trkpt lat="42.88307" lon="0.03251">
        <ele>938</ele>
        <time>2025-07-22T08:47:44Z</time>
      </trkpt>
      <trkpt lat="42.88311" lon="0.03236">
        <ele>936.4</ele>
        <time>2025-07-22T08:47:45Z</time>
      </trkpt>
      <trkpt lat="42.88315" lon="0.03221">
        <ele>935.6</ele>
        <time>2025-07-22T08:47:46Z</time>
      </trkpt>
      <trkpt lat="42.88321" lon="0.03207">
        <ele>934.8</ele>
        <time>2025-07-22T08:47:47Z</time>
      </trkpt>
      <trkpt lat="42.88326" lon="0.03193">
        <ele>932.8</ele>
        <time>2025-07-22T08:47:48Z</time>
      </trkpt>
      <trkpt lat="42.88335" lon="0.03166">
        <ele>930.8</ele>
        <time>2025-07-22T08:47:50Z</time>
      </trkpt>
      <trkpt lat="42.88338" lon="0.03136">
        <ele>929.2</ele>
        <time>2025-07-22T08:47:52Z</time>
      </trkpt>
      <trkpt lat="42.88337" lon="0.03121">
        <ele>927.8</ele>
        <time>2025-07-22T08:47:53Z</time>
      </trkpt>
      <trkpt lat="42.88333" lon="0.03091">
        <ele>926.2</ele>
        <time>2025-07-22T08:47:55Z</time>
      </trkpt>
      <trkpt lat="42.88329" lon="0.03076">
        <ele>925.6</ele>
        <time>2025-07-22T08:47:56Z</time>
      </trkpt>
      <trkpt lat="42.88324" lon="0.03061">
        <ele>924</ele>
        <time>2025-07-22T08:47:57Z</time>
      </trkpt>
      <trkpt lat="42.88318" lon="0.03048">
        <ele>922.6</ele>
        <time>2025-07-22T08:47:58Z</time>
      </trkpt>
      <trkpt lat="42.88302" lon="0.03025">
        <ele>920.8</ele>
        <time>2025-07-22T08:48:00Z</time>
      </trkpt>
      <trkpt lat="42.88283" lon="0.03003">
        <ele>918.8</ele>
        <time>2025-07-22T08:48:02Z</time>
      </trkpt>
      <trkpt lat="42.88274" lon="0.02993">
        <ele>917.2</ele>
        <time>2025-07-22T08:48:03Z</time>
      </trkpt>
      <trkpt lat="42.88255" lon="0.02973">
        <ele>915</ele>
        <time>2025-07-22T08:48:05Z</time>
      </trkpt>
      <trkpt lat="42.88237" lon="0.02953">
        <ele>913</ele>
        <time>2025-07-22T08:48:07Z</time>
      </trkpt>
      <trkpt lat="42.88217" lon="0.02932">
        <ele>911</ele>
        <time>2025-07-22T08:48:09Z</time>
      </trkpt>
      <trkpt lat="42.88208" lon="0.02922">
        <ele>909.6</ele>
        <time>2025-07-22T08:48:10Z</time>
      </trkpt>
      <trkpt lat="42.88189" lon="0.02901">
        <ele>907.6</ele>
        <time>2025-07-22T08:48:12Z</time>
      </trkpt>
      <trkpt lat="42.8817" lon="0.0288">
        <ele>906</ele>
        <time>2025-07-22T08:48:14Z</time>
      </trkpt>
      <trkpt lat="42.88161" lon="0.02869">
        <ele>904.6</ele>
        <time>2025-07-22T08:48:15Z</time>
      </trkpt>
      <trkpt lat="42.88151" lon="0.02858">
        <ele>904</ele>
        <time>2025-07-22T08:48:16Z</time>
      </trkpt>
      <trkpt lat="42.88142" lon="0.02847">
        <ele>902.6</ele>
        <time>2025-07-22T08:48:17Z</time>
      </trkpt>
      <trkpt lat="42.88123" lon="0.02825">
        <ele>900.8</ele>
        <time>2025-07-22T08:48:19Z</time>
      </trkpt>
      <trkpt lat="42.88104" lon="0.02804">
        <ele>899.4</ele>
        <time>2025-07-22T08:48:21Z</time>
      </trkpt>
      <trkpt lat="42.88084" lon="0.02782">
        <ele>897.8</ele>
        <time>2025-07-22T08:48:23Z</time>
      </trkpt>
      <trkpt lat="42.88074" lon="0.0277">
        <ele>896.4</ele>
        <time>2025-07-22T08:48:24Z</time>
      </trkpt>
      <trkpt lat="42.88056" lon="0.0275">
        <ele>894.4</ele>
        <time>2025-07-22T08:48:26Z</time>
      </trkpt>
      <trkpt lat="42.88044" lon="0.02736">
        <ele>893</ele>
        <time>2025-07-22T08:48:27Z</time>
      </trkpt>
      <trkpt lat="42.88024" lon="0.02713">
        <ele>891.6</ele>
        <time>2025-07-22T08:48:29Z</time>
      </trkpt>
      <trkpt lat="42.88004" lon="0.0269">
        <ele>889.6</ele>
        <time>2025-07-22T08:48:31Z</time>
      </trkpt>
      <trkpt lat="42.87984" lon="0.02667">
        <ele>887.8</ele>
        <time>2025-07-22T08:48:33Z</time>
      </trkpt>
      <trkpt lat="42.87974" lon="0.02655">
        <ele>886.6</ele>
        <time>2025-07-22T08:48:34Z</time>
      </trkpt>
      <trkpt lat="42.87957" lon="0.02631">
        <ele>884.2</ele>
        <time>2025-07-22T08:48:36Z</time>
      </trkpt>
      <trkpt lat="42.8795" lon="0.02617">
        <ele>883.6</ele>
        <time>2025-07-22T08:48:37Z</time>
      </trkpt>
      <trkpt lat="42.87943" lon="0.02603">
        <ele>882.2</ele>
        <time>2025-07-22T08:48:38Z</time>
      </trkpt>
      <trkpt lat="42.87932" lon="0.02575">
        <ele>881</ele>
        <time>2025-07-22T08:48:40Z</time>
      </trkpt>
      <trkpt lat="42.87924" lon="0.02544">
        <ele>879.6</ele>
        <time>2025-07-22T08:48:42Z</time>
      </trkpt>
      <trkpt lat="42.87921" lon="0.02527">
        <ele>878.4</ele>
        <time>2025-07-22T08:48:43Z</time>
      </trkpt>
      <trkpt lat="42.87917" lon="0.02511">
        <ele>877.2</ele>
        <time>2025-07-22T08:48:44Z</time>
      </trkpt>
      <trkpt lat="42.8791" lon="0.02479">
        <ele>875.2</ele>
        <time>2025-07-22T08:48:46Z</time>
      </trkpt>
      <trkpt lat="42.87904" lon="0.02449">
        <ele>872.8</ele>
        <time>2025-07-22T08:48:48Z</time>
      </trkpt>
      <trkpt lat="42.87897" lon="0.0242">
        <ele>871</ele>
        <time>2025-07-22T08:48:50Z</time>
      </trkpt>
      <trkpt lat="42.87894" lon="0.02404">
        <ele>869.8</ele>
        <time>2025-07-22T08:48:51Z</time>
      </trkpt>
      <trkpt lat="42.87891" lon="0.02388">
        <ele>869.4</ele>
        <time>2025-07-22T08:48:52Z</time>
      </trkpt>
      <trkpt lat="42.87888" lon="0.02372">
        <ele>868</ele>
        <time>2025-07-22T08:48:53Z</time>
      </trkpt>
      <trkpt lat="42.87883" lon="0.02342">
        <ele>866.2</ele>
        <time>2025-07-22T08:48:55Z</time>
      </trkpt>
      <trkpt lat="42.8788" lon="0.02328">
        <ele>865.2</ele>
        <time>2025-07-22T08:48:56Z</time>
      </trkpt>
      <trkpt lat="42.87872" lon="0.023">
        <ele>863.4</ele>
        <time>2025-07-22T08:48:58Z</time>
      </trkpt>
      <trkpt lat="42.87865" lon="0.02272">
        <ele>861.8</ele>
        <time>2025-07-22T08:49:00Z</time>
      </trkpt>
      <trkpt lat="42.8786" lon="0.02243">
        <ele>860.2</ele>
        <time>2025-07-22T08:49:02Z</time>
      </trkpt>
      <trkpt lat="42.87859" lon="0.02228">
        <ele>859</ele>
        <time>2025-07-22T08:49:03Z</time>
      </trkpt>
      <trkpt lat="42.87857" lon="0.022">
        <ele>857.6</ele>
        <time>2025-07-22T08:49:05Z</time>
      </trkpt>
      <trkpt lat="42.87856" lon="0.02171">
        <ele>856.2</ele>
        <time>2025-07-22T08:49:07Z</time>
      </trkpt>
      <trkpt lat="42.87855" lon="0.02141">
        <ele>855</ele>
        <time>2025-07-22T08:49:09Z</time>
      </trkpt>
      <trkpt lat="42.87854" lon="0.02126">
        <ele>853.8</ele>
        <time>2025-07-22T08:49:10Z</time>
      </trkpt>
      <trkpt lat="42.87853" lon="0.02096">
        <ele>852.2</ele>
        <time>2025-07-22T08:49:12Z</time>
      </trkpt>
      <trkpt lat="42.87852" lon="0.02065">
        <ele>851</ele>
        <time>2025-07-22T08:49:14Z</time>
      </trkpt>
      <trkpt lat="42.87851" lon="0.0205">
        <ele>849.8</ele>
        <time>2025-07-22T08:49:15Z</time>
      </trkpt>
      <trkpt lat="42.87849" lon="0.02004">
        <ele>848.4</ele>
        <time>2025-07-22T08:49:18Z</time>
      </trkpt>
      <trkpt lat="42.87848" lon="0.01973">
        <ele>846.2</ele>
        <time>2025-07-22T08:49:20Z</time>
      </trkpt>
      <trkpt lat="42.87847" lon="0.01957">
        <ele>845.6</ele>
        <time>2025-07-22T08:49:21Z</time>
      </trkpt>
      <trkpt lat="42.87846" lon="0.01941">
        <ele>844.2</ele>
        <time>2025-07-22T08:49:22Z</time>
      </trkpt>
      <trkpt lat="42.87844" lon="0.01908">
        <ele>843</ele>
        <time>2025-07-22T08:49:24Z</time>
      </trkpt>
      <trkpt lat="42.87844" lon="0.01876">
        <ele>841.6</ele>
        <time>2025-07-22T08:49:26Z</time>
      </trkpt>
      <trkpt lat="42.87843" lon="0.01859">
        <ele>840.6</ele>
        <time>2025-07-22T08:49:27Z</time>
      </trkpt>
      <trkpt lat="42.87842" lon="0.01842">
        <ele>840</ele>
        <time>2025-07-22T08:49:28Z</time>
      </trkpt>
      <trkpt lat="42.87841" lon="0.01825">
        <ele>838.8</ele>
        <time>2025-07-22T08:49:29Z</time>
      </trkpt>
      <trkpt lat="42.87839" lon="0.01791">
        <ele>837.2</ele>
        <time>2025-07-22T08:49:31Z</time>
      </trkpt>
      <trkpt lat="42.87839" lon="0.01775">
        <ele>836</ele>
        <time>2025-07-22T08:49:32Z</time>
      </trkpt>
      <trkpt lat="42.87836" lon="0.01742">
        <ele>834.2</ele>
        <time>2025-07-22T08:49:34Z</time>
      </trkpt>
      <trkpt lat="42.87834" lon="0.01708">
        <ele>832.4</ele>
        <time>2025-07-22T08:49:36Z</time>
      </trkpt>
      <trkpt lat="42.87832" lon="0.01692">
        <ele>831.6</ele>
        <time>2025-07-22T08:49:37Z</time>
      </trkpt>
      <trkpt lat="42.87831" lon="0.01675">
        <ele>830.6</ele>
        <time>2025-07-22T08:49:38Z</time>
      </trkpt>
      <trkpt lat="42.87831" lon="0.01659">
        <ele>829.4</ele>
        <time>2025-07-22T08:49:39Z</time>
      </trkpt>
      <trkpt lat="42.87829" lon="0.01628">
        <ele>827.6</ele>
        <time>2025-07-22T08:49:41Z</time>
      </trkpt>
      <trkpt lat="42.87827" lon="0.01596">
        <ele>825.4</ele>
        <time>2025-07-22T08:49:43Z</time>
      </trkpt>
      <trkpt lat="42.87826" lon="0.01579">
        <ele>824</ele>
        <time>2025-07-22T08:49:44Z</time>
      </trkpt>
      <trkpt lat="42.87823" lon="0.01546">
        <ele>822.4</ele>
        <time>2025-07-22T08:49:46Z</time>
      </trkpt>
      <trkpt lat="42.87821" lon="0.01514">
        <ele>820.8</ele>
        <time>2025-07-22T08:49:48Z</time>
      </trkpt>
      <trkpt lat="42.8782" lon="0.01483">
        <ele>819.4</ele>
        <time>2025-07-22T08:49:50Z</time>
      </trkpt>
      <trkpt lat="42.8782" lon="0.01467">
        <ele>818.4</ele>
        <time>2025-07-22T08:49:51Z</time>
      </trkpt>
      <trkpt lat="42.8782" lon="0.01435">
        <ele>816.2</ele>
        <time>2025-07-22T08:49:53Z</time>
      </trkpt>
      <trkpt lat="42.87821" lon="0.01403">
        <ele>814.6</ele>
        <time>2025-07-22T08:49:55Z</time>
      </trkpt>
      <trkpt lat="42.87821" lon="0.01387">
        <ele>813.6</ele>
        <time>2025-07-22T08:49:56Z</time>
      </trkpt>
      <trkpt lat="42.8782" lon="0.01355">
        <ele>812</ele>
        <time>2025-07-22T08:49:58Z</time>
      </trkpt>
      <trkpt lat="42.87819" lon="0.01323">
        <ele>810.4</ele>
        <time>2025-07-22T08:50:00Z</time>
      </trkpt>
      <trkpt lat="42.87817" lon="0.01308">
        <ele>809.8</ele>
        <time>2025-07-22T08:50:01Z</time>
      </trkpt>
      <trkpt lat="42.87815" lon="0.01292">
        <ele>808.8</ele>
        <time>2025-07-22T08:50:02Z</time>
      </trkpt>
      <trkpt lat="42.87812" lon="0.01278">
        <ele>807.6</ele>
        <time>2025-07-22T08:50:03Z</time>
      </trkpt>
      <trkpt lat="42.87803" lon="0.01249">
        <ele>806</ele>
        <time>2025-07-22T08:50:05Z</time>
      </trkpt>
      <trkpt lat="42.87793" lon="0.0122">
        <ele>804</ele>
        <time>2025-07-22T08:50:07Z</time>
      </trkpt>
      <trkpt lat="42.87788" lon="0.01206">
        <ele>802.8</ele>
        <time>2025-07-22T08:50:08Z</time>
      </trkpt>
      <trkpt lat="42.87777" lon="0.01177">
        <ele>800.8</ele>
        <time>2025-07-22T08:50:10Z</time>
      </trkpt>
      <trkpt lat="42.87767" lon="0.01147">
        <ele>799</ele>
        <time>2025-07-22T08:50:12Z</time>
      </trkpt>
      <trkpt lat="42.87755" lon="0.01118">
        <ele>797.4</ele>
        <time>2025-07-22T08:50:14Z</time>
      </trkpt>
      <trkpt lat="42.87749" lon="0.01103">
        <ele>796</ele>
        <time>2025-07-22T08:50:15Z</time>
      </trkpt>
      <trkpt lat="42.87737" lon="0.01072">
        <ele>794.4</ele>
        <time>2025-07-22T08:50:17Z</time>
      </trkpt>
      <trkpt lat="42.87731" lon="0.01056">
        <ele>793.8</ele>
        <time>2025-07-22T08:50:18Z</time>
      </trkpt>
      <trkpt lat="42.87726" lon="0.0104">
        <ele>792.4</ele>
        <time>2025-07-22T08:50:19Z</time>
      </trkpt>
      <trkpt lat="42.8772" lon="0.01023">
        <ele>791.2</ele>
        <time>2025-07-22T08:50:20Z</time>
      </trkpt>
      <trkpt lat="42.8771" lon="0.00992">
        <ele>788.8</ele>
        <time>2025-07-22T08:50:22Z</time>
      </trkpt>
      <trkpt lat="42.877" lon="0.0096">
        <ele>787.2</ele>
        <time>2025-07-22T08:50:24Z</time>
      </trkpt>
      <trkpt lat="42.87696" lon="0.00944">
        <ele>786</ele>
        <time>2025-07-22T08:50:25Z</time>
      </trkpt>
      <trkpt lat="42.87686" lon="0.00914">
        <ele>784.2</ele>
        <time>2025-07-22T08:50:27Z</time>
      </trkpt>
      <trkpt lat="42.87673" lon="0.00886">
        <ele>782.4</ele>
        <time>2025-07-22T08:50:29Z</time>
      </trkpt>
      <trkpt lat="42.87659" lon="0.00862">
        <ele>780.8</ele>
        <time>2025-07-22T08:50:31Z</time>
      </trkpt>
      <trkpt lat="42.87644" lon="0.00839">
        <ele>779.4</ele>
        <time>2025-07-22T08:50:33Z</time>
      </trkpt>
      <trkpt lat="42.87636" lon="0.00829">
        <ele>778.2</ele>
        <time>2025-07-22T08:50:34Z</time>
      </trkpt>
      <trkpt lat="42.87621" lon="0.00808">
        <ele>777</ele>
        <time>2025-07-22T08:50:36Z</time>
      </trkpt>
      <trkpt lat="42.87613" lon="0.00797">
        <ele>776</ele>
        <time>2025-07-22T08:50:37Z</time>
      </trkpt>
      <trkpt lat="42.87591" lon="0.00767">
        <ele>775</ele>
        <time>2025-07-22T08:50:40Z</time>
      </trkpt>
      <trkpt lat="42.87571" lon="0.00737">
        <ele>773.4</ele>
        <time>2025-07-22T08:50:43Z</time>
      </trkpt>
      <trkpt lat="42.87557" lon="0.00718">
        <ele>772</ele>
        <time>2025-07-22T08:50:45Z</time>
      </trkpt>
      <trkpt lat="42.87544" lon="0.00699">
        <ele>771</ele>
        <time>2025-07-22T08:50:47Z</time>
      </trkpt>
      <trkpt lat="42.87532" lon="0.00682">
        <ele>769.2</ele>
        <time>2025-07-22T08:50:49Z</time>
      </trkpt>
      <trkpt lat="42.87526" lon="0.00673">
        <ele>768.8</ele>
        <time>2025-07-22T08:50:50Z</time>
      </trkpt>
      <trkpt lat="42.8752" lon="0.00665">
        <ele>768</ele>
        <time>2025-07-22T08:50:51Z</time>
      </trkpt>
      <trkpt lat="42.8751" lon="0.00647">
        <ele>767</ele>
        <time>2025-07-22T08:50:53Z</time>
      </trkpt>
      <trkpt lat="42.87498" lon="0.00631">
        <ele>766</ele>
        <time>2025-07-22T08:50:55Z</time>
      </trkpt>
      <trkpt lat="42.87493" lon="0.00623">
        <ele>765.2</ele>
        <time>2025-07-22T08:50:56Z</time>
      </trkpt>
      <trkpt lat="42.87482" lon="0.00607">
        <ele>764</ele>
        <time>2025-07-22T08:50:58Z</time>
      </trkpt>
      <trkpt lat="42.8747" lon="0.00589">
        <ele>763.2</ele>
        <time>2025-07-22T08:51:00Z</time>
      </trkpt>
      <trkpt lat="42.87464" lon="0.0058">
        <ele>762.4</ele>
        <time>2025-07-22T08:51:01Z</time>
      </trkpt>
      <trkpt lat="42.87459" lon="0.00572">
        <ele>762</ele>
        <time>2025-07-22T08:51:02Z</time>
      </trkpt>
      <trkpt lat="42.87441" lon="0.00546">
        <ele>760.6</ele>
        <time>2025-07-22T08:51:05Z</time>
      </trkpt>
      <trkpt lat="42.87425" lon="0.00521">
        <ele>759.2</ele>
        <time>2025-07-22T08:51:08Z</time>
      </trkpt>
      <trkpt lat="42.87421" lon="0.00514">
        <ele>759.2</ele>
        <time>2025-07-22T08:51:09Z</time>
      </trkpt>
      <trkpt lat="42.87416" lon="0.00502">
        <ele>758.8</ele>
        <time>2025-07-22T08:51:10Z</time>
      </trkpt>
      <trkpt lat="42.8741" lon="0.00484">
        <ele>758.2</ele>
        <time>2025-07-22T08:51:12Z</time>
      </trkpt>
      <trkpt lat="42.87407" lon="0.00473">
        <ele>757.6</ele>
        <time>2025-07-22T08:51:13Z</time>
      </trkpt>
      <trkpt lat="42.87401" lon="0.00448">
        <ele>756.6</ele>
        <time>2025-07-22T08:51:15Z</time>
      </trkpt>
      <trkpt lat="42.87392" lon="0.00414">
        <ele>755.4</ele>
        <time>2025-07-22T08:51:18Z</time>
      </trkpt>
      <trkpt lat="42.87389" lon="0.00402">
        <ele>754.8</ele>
        <time>2025-07-22T08:51:19Z</time>
      </trkpt>
      <trkpt lat="42.87385" lon="0.0039">
        <ele>754.4</ele>
        <time>2025-07-22T08:51:20Z</time>
      </trkpt>
      <trkpt lat="42.87378" lon="0.00363">
        <ele>753.2</ele>
        <time>2025-07-22T08:51:22Z</time>
      </trkpt>
      <trkpt lat="42.87372" lon="0.00339">
        <ele>752.2</ele>
        <time>2025-07-22T08:51:24Z</time>
      </trkpt>
      <trkpt lat="42.87363" lon="0.00313">
        <ele>751</ele>
        <time>2025-07-22T08:51:26Z</time>
      </trkpt>
      <trkpt lat="42.87353" lon="0.00274">
        <ele>749.4</ele>
        <time>2025-07-22T08:51:29Z</time>
      </trkpt>
      <trkpt lat="42.87346" lon="0.00247">
        <ele>748.4</ele>
        <time>2025-07-22T08:51:31Z</time>
      </trkpt>
      <trkpt lat="42.87337" lon="0.00213">
        <ele>746.8</ele>
        <time>2025-07-22T08:51:34Z</time>
      </trkpt>
      <trkpt lat="42.8733" lon="0.00187">
        <ele>746</ele>
        <time>2025-07-22T08:51:36Z</time>
      </trkpt>
      <trkpt lat="42.87327" lon="0.00175">
        <ele>745.6</ele>
        <time>2025-07-22T08:51:37Z</time>
      </trkpt>
      <trkpt lat="42.87319" lon="0.00145">
        <ele>745</ele>
        <time>2025-07-22T08:51:40Z</time>
      </trkpt>
      <trkpt lat="42.87314" lon="0.00125">
        <ele>744.8</ele>
        <time>2025-07-22T08:51:42Z</time>
      </trkpt>
      <trkpt lat="42.87304" lon="0.00088">
        <ele>744.2</ele>
        <time>2025-07-22T08:51:46Z</time>
      </trkpt>
      <trkpt lat="42.87292" lon="0.00042">
        <ele>744</ele>
        <time>2025-07-22T08:51:52Z</time>
      </trkpt>
      <trkpt lat="42.87285" lon="0.00017">
        <ele>743.6</ele>
        <time>2025-07-22T08:51:55Z</time>
      </trkpt>
      <trkpt lat="42.87273" lon="-0.00027">
        <ele>742.6</ele>
        <time>2025-07-22T08:52:00Z</time>
      </trkpt>
      <trkpt lat="42.8727" lon="-0.00034">
        <ele>742</ele>
        <time>2025-07-22T08:52:01Z</time>
      </trkpt>
      <trkpt lat="42.87265" lon="-0.00054">
        <ele>741.2</ele>
        <time>2025-07-22T08:52:03Z</time>
      </trkpt>
      <trkpt lat="42.87258" lon="-0.00081">
        <ele>740</ele>
        <time>2025-07-22T08:52:06Z</time>
      </trkpt>
      <trkpt lat="42.87252" lon="-0.00103">
        <ele>738.8</ele>
        <time>2025-07-22T08:52:08Z</time>
      </trkpt>
      <trkpt lat="42.87246" lon="-0.00121">
        <ele>738</ele>
        <time>2025-07-22T08:52:10Z</time>
      </trkpt>
      <trkpt lat="42.87236" lon="-0.00157">
        <ele>736.8</ele>
        <time>2025-07-22T08:52:14Z</time>
      </trkpt>
      <trkpt lat="42.87233" lon="-0.00165">
        <ele>736.4</ele>
        <time>2025-07-22T08:52:15Z</time>
      </trkpt>
      <trkpt lat="42.87233" lon="-0.00181">
        <ele>735.4</ele>
        <time>2025-07-22T08:52:17Z</time>
      </trkpt>
      <trkpt lat="42.87244" lon="-0.00201">
        <ele>734.4</ele>
        <time>2025-07-22T08:52:20Z</time>
      </trkpt>
      <trkpt lat="42.87265" lon="-0.00237">
        <ele>732.8</ele>
        <time>2025-07-22T08:52:24Z</time>
      </trkpt>
      <trkpt lat="42.8727" lon="-0.00246">
        <ele>732.4</ele>
        <time>2025-07-22T08:52:25Z</time>
      </trkpt>
      <trkpt lat="42.87274" lon="-0.00253">
        <ele>731.6</ele>
        <time>2025-07-22T08:52:26Z</time>
      </trkpt>
      <trkpt lat="42.87285" lon="-0.00272">
        <ele>730.4</ele>
        <time>2025-07-22T08:52:28Z</time>
      </trkpt>
      <trkpt lat="42.87294" lon="-0.00287">
        <ele>729</ele>
        <time>2025-07-22T08:52:30Z</time>
      </trkpt>
      <trkpt lat="42.87299" lon="-0.00295">
        <ele>727.8</ele>
        <time>2025-07-22T08:52:31Z</time>
      </trkpt>
      <trkpt lat="42.87307" lon="-0.00309">
        <ele>726.4</ele>
        <time>2025-07-22T08:52:33Z</time>
      </trkpt>
      <trkpt lat="42.87312" lon="-0.00317">
        <ele>725</ele>
        <time>2025-07-22T08:52:35Z</time>
      </trkpt>
      <trkpt lat="42.87317" lon="-0.0032">
        <ele>724.4</ele>
        <time>2025-07-22T08:52:37Z</time>
      </trkpt>
      <trkpt lat="42.87318" lon="-0.0032">
        <ele>723.8</ele>
        <time>2025-07-22T08:52:38Z</time>
      </trkpt>
      <trkpt lat="42.8732" lon="-0.00318">
        <ele>723.2</ele>
        <time>2025-07-22T08:52:39Z</time>
      </trkpt>
      <trkpt lat="42.87322" lon="-0.00313">
        <ele>722.8</ele>
        <time>2025-07-22T08:52:41Z</time>
      </trkpt>
      <trkpt lat="42.87322" lon="-0.0031">
        <ele>722.6</ele>
        <time>2025-07-22T08:52:42Z</time>
      </trkpt>
      <trkpt lat="42.8732" lon="-0.00294">
        <ele>722.4</ele>
        <time>2025-07-22T08:52:47Z</time>
      </trkpt>
      <trkpt lat="42.87307" lon="-0.00273">
        <ele>722.2</ele>
        <time>2025-07-22T08:52:56Z</time>
      </trkpt>
      <trkpt lat="42.87305" lon="-0.0026">
        <ele>722.2</ele>
        <time>2025-07-22T08:53:01Z</time>
      </trkpt>
      <trkpt lat="42.87306" lon="-0.00258">
        <ele>722.2</ele>
        <time>2025-07-22T08:53:02Z</time>
      </trkpt>
      <trkpt lat="42.87313" lon="-0.0024">
        <ele>722.8</ele>
        <time>2025-07-22T08:53:09Z</time>
      </trkpt>
      <trkpt lat="42.87317" lon="-0.00228">
        <ele>723.2</ele>
        <time>2025-07-22T08:53:17Z</time>
      </trkpt>
      <trkpt lat="42.87317" lon="-0.00228">
        <ele>723.2</ele>
        <time>2025-07-22T08:53:18Z</time>
      </trkpt>
      <trkpt lat="42.8734" lon="-0.0023">
        <ele>727.4</ele>
        <time>2025-07-22T09:55:19Z</time>
      </trkpt>
      <trkpt lat="42.8734" lon="-0.0023">
        <ele>727.4</ele>
        <time>2025-07-22T09:55:20Z</time>
      </trkpt>
      <trkpt lat="42.87325" lon="-0.00241">
        <ele>727.6</ele>
        <time>2025-07-22T09:56:29Z</time>
      </trkpt>
      <trkpt lat="42.87327" lon="-0.00246">
        <ele>727.4</ele>
        <time>2025-07-22T09:56:31Z</time>
      </trkpt>
      <trkpt lat="42.87324" lon="-0.00263">
        <ele>726.6</ele>
        <time>2025-07-22T09:56:37Z</time>
      </trkpt>
      <trkpt lat="42.87326" lon="-0.0029">
        <ele>726.2</ele>
        <time>2025-07-22T09:56:43Z</time>
      </trkpt>
      <trkpt lat="42.87329" lon="-0.00322">
        <ele>725.8</ele>
        <time>2025-07-22T09:56:50Z</time>
      </trkpt>
      <trkpt lat="42.87333" lon="-0.00326">
        <ele>725.8</ele>
        <time>2025-07-22T09:56:52Z</time>
      </trkpt>
      <trkpt lat="42.87335" lon="-0.00327">
        <ele>725.6</ele>
        <time>2025-07-22T09:56:54Z</time>
      </trkpt>
      <trkpt lat="42.87345" lon="-0.00326">
        <ele>725.4</ele>
        <time>2025-07-22T09:56:59Z</time>
      </trkpt>
      <trkpt lat="42.87361" lon="-0.00321">
        <ele>725.4</ele>
        <time>2025-07-22T09:57:04Z</time>
      </trkpt>
      <trkpt lat="42.87377" lon="-0.00318">
        <ele>725.8</ele>
        <time>2025-07-22T09:57:08Z</time>
      </trkpt>
      <trkpt lat="42.87411" lon="-0.00315">
        <ele>726</ele>
        <time>2025-07-22T09:57:16Z</time>
      </trkpt>
      <trkpt lat="42.87419" lon="-0.00314">
        <ele>725.8</ele>
        <time>2025-07-22T09:57:18Z</time>
      </trkpt>
      <trkpt lat="42.8744" lon="-0.0032">
        <ele>725.4</ele>
        <time>2025-07-22T09:57:23Z</time>
      </trkpt>
      <trkpt lat="42.87452" lon="-0.00333">
        <ele>725</ele>
        <time>2025-07-22T09:57:26Z</time>
      </trkpt>
      <trkpt lat="42.87458" lon="-0.00344">
        <ele>724.8</ele>
        <time>2025-07-22T09:57:28Z</time>
      </trkpt>
      <trkpt lat="42.87474" lon="-0.00366">
        <ele>724</ele>
        <time>2025-07-22T09:57:33Z</time>
      </trkpt>
      <trkpt lat="42.8748" lon="-0.00366">
        <ele>723.6</ele>
        <time>2025-07-22T09:57:35Z</time>
      </trkpt>
      <trkpt lat="42.87483" lon="-0.00364">
        <ele>723</ele>
        <time>2025-07-22T09:57:36Z</time>
      </trkpt>
      <trkpt lat="42.87486" lon="-0.00361">
        <ele>722.6</ele>
        <time>2025-07-22T09:57:37Z</time>
      </trkpt>
      <trkpt lat="42.87494" lon="-0.00353">
        <ele>721.6</ele>
        <time>2025-07-22T09:57:41Z</time>
      </trkpt>
      <trkpt lat="42.87496" lon="-0.00354">
        <ele>721.6</ele>
        <time>2025-07-22T09:57:42Z</time>
      </trkpt>
      <trkpt lat="42.87498" lon="-0.00356">
        <ele>721.4</ele>
        <time>2025-07-22T09:57:44Z</time>
      </trkpt>
      <trkpt lat="42.87499" lon="-0.00355">
        <ele>721.2</ele>
        <time>2025-07-22T09:57:48Z</time>
      </trkpt>
      <trkpt lat="42.87499" lon="-0.00354">
        <ele>721.2</ele>
        <time>2025-07-22T09:57:49Z</time>
      </trkpt>
      <trkpt lat="42.87536" lon="-0.00301">
        <ele>724.4</ele>
        <time>2025-07-22T10:33:08Z</time>
      </trkpt>
      <trkpt lat="42.87531" lon="-0.00302">
        <ele>724.4</ele>
        <time>2025-07-22T10:33:11Z</time>
      </trkpt>
      <trkpt lat="42.87532" lon="-0.00303">
        <ele>724.4</ele>
        <time>2025-07-22T10:33:12Z</time>
      </trkpt>
      <trkpt lat="42.87535" lon="-0.00323">
        <ele>724</ele>
        <time>2025-07-22T10:33:19Z</time>
      </trkpt>
      <trkpt lat="42.87533" lon="-0.00327">
        <ele>724.2</ele>
        <time>2025-07-22T10:33:21Z</time>
      </trkpt>
      <trkpt lat="42.87515" lon="-0.00346">
        <ele>724.2</ele>
        <time>2025-07-22T10:33:27Z</time>
      </trkpt>
      <trkpt lat="42.87498" lon="-0.00367">
        <ele>724</ele>
        <time>2025-07-22T10:33:36Z</time>
      </trkpt>
      <trkpt lat="42.87492" lon="-0.00373">
        <ele>724</ele>
        <time>2025-07-22T10:33:40Z</time>
      </trkpt>
      <trkpt lat="42.87492" lon="-0.00374">
        <ele>724</ele>
        <time>2025-07-22T10:33:41Z</time>
      </trkpt>
      <trkpt lat="42.87492" lon="-0.00376">
        <ele>724</ele>
        <time>2025-07-22T10:33:42Z</time>
      </trkpt>
      <trkpt lat="42.87492" lon="-0.0038">
        <ele>724</ele>
        <time>2025-07-22T10:33:45Z</time>
      </trkpt>
      <trkpt lat="42.87493" lon="-0.00385">
        <ele>723.8</ele>
        <time>2025-07-22T10:33:47Z</time>
      </trkpt>
      <trkpt lat="42.875" lon="-0.00398">
        <ele>723.6</ele>
        <time>2025-07-22T10:33:52Z</time>
      </trkpt>
      <trkpt lat="42.87508" lon="-0.00411">
        <ele>723.4</ele>
        <time>2025-07-22T10:33:55Z</time>
      </trkpt>
      <trkpt lat="42.87514" lon="-0.00422">
        <ele>723.4</ele>
        <time>2025-07-22T10:33:57Z</time>
      </trkpt>
      <trkpt lat="42.87518" lon="-0.00427">
        <ele>723.4</ele>
        <time>2025-07-22T10:33:58Z</time>
      </trkpt>
      <trkpt lat="42.87538" lon="-0.00458">
        <ele>722.8</ele>
        <time>2025-07-22T10:34:03Z</time>
      </trkpt>
      <trkpt lat="42.87552" lon="-0.00479">
        <ele>722.2</ele>
        <time>2025-07-22T10:34:06Z</time>
      </trkpt>
      <trkpt lat="42.87574" lon="-0.0051">
        <ele>721</ele>
        <time>2025-07-22T10:34:10Z</time>
      </trkpt>
      <trkpt lat="42.87597" lon="-0.00542">
        <ele>720</ele>
        <time>2025-07-22T10:34:14Z</time>
      </trkpt>
      <trkpt lat="42.8761" lon="-0.0056">
        <ele>719</ele>
        <time>2025-07-22T10:34:16Z</time>
      </trkpt>
      <trkpt lat="42.87616" lon="-0.00569">
        <ele>718.4</ele>
        <time>2025-07-22T10:34:17Z</time>
      </trkpt>
      <trkpt lat="42.87635" lon="-0.00595">
        <ele>717.2</ele>
        <time>2025-07-22T10:34:21Z</time>
      </trkpt>
      <trkpt lat="42.87653" lon="-0.00621">
        <ele>716.6</ele>
        <time>2025-07-22T10:34:23Z</time>
      </trkpt>
      <trkpt lat="42.87666" lon="-0.00639">
        <ele>716</ele>
        <time>2025-07-22T10:34:25Z</time>
      </trkpt>
      <trkpt lat="42.87685" lon="-0.00666">
        <ele>714.8</ele>
        <time>2025-07-22T10:34:28Z</time>
      </trkpt>
      <trkpt lat="42.87698" lon="-0.00684">
        <ele>713.8</ele>
        <time>2025-07-22T10:34:30Z</time>
      </trkpt>
      <trkpt lat="42.87704" lon="-0.00693">
        <ele>713.6</ele>
        <time>2025-07-22T10:34:31Z</time>
      </trkpt>
      <trkpt lat="42.87717" lon="-0.00712">
        <ele>712.8</ele>
        <time>2025-07-22T10:34:33Z</time>
      </trkpt>
      <trkpt lat="42.87724" lon="-0.00721">
        <ele>712.6</ele>
        <time>2025-07-22T10:34:34Z</time>
      </trkpt>
      <trkpt lat="42.87735" lon="-0.00738">
        <ele>711.4</ele>
        <time>2025-07-22T10:34:37Z</time>
      </trkpt>
      <trkpt lat="42.87774" lon="-0.00794">
        <ele>710.2</ele>
        <time>2025-07-22T10:34:42Z</time>
      </trkpt>
      <trkpt lat="42.878" lon="-0.00832">
        <ele>709</ele>
        <time>2025-07-22T10:34:46Z</time>
      </trkpt>
      <trkpt lat="42.87827" lon="-0.00872">
        <ele>707.6</ele>
        <time>2025-07-22T10:34:50Z</time>
      </trkpt>
      <trkpt lat="42.87832" lon="-0.0088">
        <ele>707.2</ele>
        <time>2025-07-22T10:34:51Z</time>
      </trkpt>
      <trkpt lat="42.87845" lon="-0.00898">
        <ele>706.4</ele>
        <time>2025-07-22T10:34:53Z</time>
      </trkpt>
      <trkpt lat="42.87864" lon="-0.00927">
        <ele>705</ele>
        <time>2025-07-22T10:34:56Z</time>
      </trkpt>
      <trkpt lat="42.87884" lon="-0.00956">
        <ele>704</ele>
        <time>2025-07-22T10:34:59Z</time>
      </trkpt>
      <trkpt lat="42.87891" lon="-0.00965">
        <ele>703.2</ele>
        <time>2025-07-22T10:35:00Z</time>
      </trkpt>
      <trkpt lat="42.87902" lon="-0.00982">
        <ele>702.8</ele>
        <time>2025-07-22T10:35:02Z</time>
      </trkpt>
      <trkpt lat="42.87915" lon="-0.01001">
        <ele>701.8</ele>
        <time>2025-07-22T10:35:04Z</time>
      </trkpt>
      <trkpt lat="42.8794" lon="-0.01037">
        <ele>700.8</ele>
        <time>2025-07-22T10:35:08Z</time>
      </trkpt>
      <trkpt lat="42.87966" lon="-0.01074">
        <ele>699.6</ele>
        <time>2025-07-22T10:35:12Z</time>
      </trkpt>
      <trkpt lat="42.87986" lon="-0.01104">
        <ele>698.4</ele>
        <time>2025-07-22T10:35:15Z</time>
      </trkpt>
      <trkpt lat="42.87991" lon="-0.01111">
        <ele>698</ele>
        <time>2025-07-22T10:35:16Z</time>
      </trkpt>
      <trkpt lat="42.8801" lon="-0.01138">
        <ele>697.4</ele>
        <time>2025-07-22T10:35:19Z</time>
      </trkpt>
      <trkpt lat="42.88033" lon="-0.01164">
        <ele>696.4</ele>
        <time>2025-07-22T10:35:22Z</time>
      </trkpt>
      <trkpt lat="42.88039" lon="-0.0117">
        <ele>696</ele>
        <time>2025-07-22T10:35:23Z</time>
      </trkpt>
      <trkpt lat="42.88065" lon="-0.0119">
        <ele>695</ele>
        <time>2025-07-22T10:35:26Z</time>
      </trkpt>
      <trkpt lat="42.88082" lon="-0.01204">
        <ele>693.8</ele>
        <time>2025-07-22T10:35:28Z</time>
      </trkpt>
      <trkpt lat="42.881" lon="-0.01217">
        <ele>692.6</ele>
        <time>2025-07-22T10:35:30Z</time>
      </trkpt>
      <trkpt lat="42.88119" lon="-0.01232">
        <ele>691.4</ele>
        <time>2025-07-22T10:35:32Z</time>
      </trkpt>
      <trkpt lat="42.88135" lon="-0.01244">
        <ele>690.6</ele>
        <time>2025-07-22T10:35:34Z</time>
      </trkpt>
      <trkpt lat="42.88144" lon="-0.0125">
        <ele>690.2</ele>
        <time>2025-07-22T10:35:35Z</time>
      </trkpt>
      <trkpt lat="42.8818" lon="-0.01277">
        <ele>689</ele>
        <time>2025-07-22T10:35:39Z</time>
      </trkpt>
      <trkpt lat="42.88196" lon="-0.01289">
        <ele>687.6</ele>
        <time>2025-07-22T10:35:41Z</time>
      </trkpt>
      <trkpt lat="42.88215" lon="-0.01302">
        <ele>686.8</ele>
        <time>2025-07-22T10:35:43Z</time>
      </trkpt>
      <trkpt lat="42.88224" lon="-0.01309">
        <ele>686.4</ele>
        <time>2025-07-22T10:35:44Z</time>
      </trkpt>
      <trkpt lat="42.88239" lon="-0.01321">
        <ele>684.8</ele>
        <time>2025-07-22T10:35:47Z</time>
      </trkpt>
      <trkpt lat="42.88276" lon="-0.01349">
        <ele>683.4</ele>
        <time>2025-07-22T10:35:50Z</time>
      </trkpt>
      <trkpt lat="42.88294" lon="-0.01363">
        <ele>682.8</ele>
        <time>2025-07-22T10:35:52Z</time>
      </trkpt>
      <trkpt lat="42.88301" lon="-0.01368">
        <ele>682.4</ele>
        <time>2025-07-22T10:35:53Z</time>
      </trkpt>
      <trkpt lat="42.88319" lon="-0.01381">
        <ele>681.2</ele>
        <time>2025-07-22T10:35:55Z</time>
      </trkpt>
      <trkpt lat="42.88348" lon="-0.01401">
        <ele>679.8</ele>
        <time>2025-07-22T10:35:58Z</time>
      </trkpt>
      <trkpt lat="42.88374" lon="-0.01418">
        <ele>678.6</ele>
        <time>2025-07-22T10:36:01Z</time>
      </trkpt>
      <trkpt lat="42.884" lon="-0.01438">
        <ele>677.4</ele>
        <time>2025-07-22T10:36:04Z</time>
      </trkpt>
      <trkpt lat="42.88425" lon="-0.01456">
        <ele>676.2</ele>
        <time>2025-07-22T10:36:07Z</time>
      </trkpt>
      <trkpt lat="42.8844" lon="-0.01468">
        <ele>675.6</ele>
        <time>2025-07-22T10:36:09Z</time>
      </trkpt>
      <trkpt lat="42.88456" lon="-0.01479">
        <ele>675</ele>
        <time>2025-07-22T10:36:11Z</time>
      </trkpt>
      <trkpt lat="42.88472" lon="-0.0149">
        <ele>674.6</ele>
        <time>2025-07-22T10:36:13Z</time>
      </trkpt>
      <trkpt lat="42.88496" lon="-0.01507">
        <ele>673.8</ele>
        <time>2025-07-22T10:36:16Z</time>
      </trkpt>
      <trkpt lat="42.88502" lon="-0.01511">
        <ele>673.2</ele>
        <time>2025-07-22T10:36:17Z</time>
      </trkpt>
      <trkpt lat="42.88523" lon="-0.01529">
        <ele>672.8</ele>
        <time>2025-07-22T10:36:20Z</time>
      </trkpt>
      <trkpt lat="42.88534" lon="-0.01544">
        <ele>672.4</ele>
        <time>2025-07-22T10:36:22Z</time>
      </trkpt>
      <trkpt lat="42.8854" lon="-0.01561">
        <ele>672.2</ele>
        <time>2025-07-22T10:36:24Z</time>
      </trkpt>
      <trkpt lat="42.88541" lon="-0.01571">
        <ele>672</ele>
        <time>2025-07-22T10:36:25Z</time>
      </trkpt>
      <trkpt lat="42.88544" lon="-0.01613">
        <ele>671.8</ele>
        <time>2025-07-22T10:36:29Z</time>
      </trkpt>
      <trkpt lat="42.88546" lon="-0.01623">
        <ele>671.6</ele>
        <time>2025-07-22T10:36:30Z</time>
      </trkpt>
      <trkpt lat="42.8855" lon="-0.01632">
        <ele>671.4</ele>
        <time>2025-07-22T10:36:31Z</time>
      </trkpt>
      <trkpt lat="42.8856" lon="-0.01647">
        <ele>671.4</ele>
        <time>2025-07-22T10:36:33Z</time>
      </trkpt>
      <trkpt lat="42.8857" lon="-0.0166">
        <ele>671.2</ele>
        <time>2025-07-22T10:36:35Z</time>
      </trkpt>
      <trkpt lat="42.88587" lon="-0.01676">
        <ele>671.2</ele>
        <time>2025-07-22T10:36:38Z</time>
      </trkpt>
      <trkpt lat="42.8863" lon="-0.01713">
        <ele>671</ele>
        <time>2025-07-22T10:36:45Z</time>
      </trkpt>
      <trkpt lat="42.88658" lon="-0.01738">
        <ele>670.4</ele>
        <time>2025-07-22T10:36:49Z</time>
      </trkpt>
      <trkpt lat="42.8868" lon="-0.01758">
        <ele>669.2</ele>
        <time>2025-07-22T10:36:52Z</time>
      </trkpt>
      <trkpt lat="42.88702" lon="-0.01777">
        <ele>668.2</ele>
        <time>2025-07-22T10:36:55Z</time>
      </trkpt>
      <trkpt lat="42.8873" lon="-0.01802">
        <ele>666.8</ele>
        <time>2025-07-22T10:36:59Z</time>
      </trkpt>
      <trkpt lat="42.88751" lon="-0.0182">
        <ele>666.4</ele>
        <time>2025-07-22T10:37:02Z</time>
      </trkpt>
      <trkpt lat="42.88786" lon="-0.01852">
        <ele>665.8</ele>
        <time>2025-07-22T10:37:07Z</time>
      </trkpt>
      <trkpt lat="42.88808" lon="-0.01871">
        <ele>665.2</ele>
        <time>2025-07-22T10:37:10Z</time>
      </trkpt>
      <trkpt lat="42.88816" lon="-0.01878">
        <ele>665</ele>
        <time>2025-07-22T10:37:11Z</time>
      </trkpt>
      <trkpt lat="42.88829" lon="-0.01893">
        <ele>664.4</ele>
        <time>2025-07-22T10:37:13Z</time>
      </trkpt>
      <trkpt lat="42.88847" lon="-0.01918">
        <ele>663.8</ele>
        <time>2025-07-22T10:37:16Z</time>
      </trkpt>
      <trkpt lat="42.88871" lon="-0.01963">
        <ele>663.2</ele>
        <time>2025-07-22T10:37:21Z</time>
      </trkpt>
      <trkpt lat="42.88875" lon="-0.01972">
        <ele>663</ele>
        <time>2025-07-22T10:37:22Z</time>
      </trkpt>
      <trkpt lat="42.88912" lon="-0.02033">
        <ele>662.4</ele>
        <time>2025-07-22T10:37:29Z</time>
      </trkpt>
      <trkpt lat="42.88925" lon="-0.02051">
        <ele>662.2</ele>
        <time>2025-07-22T10:37:31Z</time>
      </trkpt>
      <trkpt lat="42.88939" lon="-0.02064">
        <ele>661.8</ele>
        <time>2025-07-22T10:37:33Z</time>
      </trkpt>
      <trkpt lat="42.8897" lon="-0.02094">
        <ele>661</ele>
        <time>2025-07-22T10:37:38Z</time>
      </trkpt>
      <trkpt lat="42.88977" lon="-0.02102">
        <ele>661</ele>
        <time>2025-07-22T10:37:39Z</time>
      </trkpt>
      <trkpt lat="42.88981" lon="-0.02107">
        <ele>661</ele>
        <time>2025-07-22T10:37:40Z</time>
      </trkpt>
      <trkpt lat="42.89" lon="-0.02136">
        <ele>660.8</ele>
        <time>2025-07-22T10:37:44Z</time>
      </trkpt>
      <trkpt lat="42.89014" lon="-0.02157">
        <ele>660.6</ele>
        <time>2025-07-22T10:37:47Z</time>
      </trkpt>
      <trkpt lat="42.89036" lon="-0.022">
        <ele>660.4</ele>
        <time>2025-07-22T10:37:52Z</time>
      </trkpt>
      <trkpt lat="42.89054" lon="-0.0224">
        <ele>659.8</ele>
        <time>2025-07-22T10:37:57Z</time>
      </trkpt>
      <trkpt lat="42.8907" lon="-0.02273">
        <ele>659.2</ele>
        <time>2025-07-22T10:38:01Z</time>
      </trkpt>
      <trkpt lat="42.89083" lon="-0.02299">
        <ele>658.8</ele>
        <time>2025-07-22T10:38:04Z</time>
      </trkpt>
      <trkpt lat="42.89104" lon="-0.02332">
        <ele>658.4</ele>
        <time>2025-07-22T10:38:08Z</time>
      </trkpt>
      <trkpt lat="42.89141" lon="-0.02373">
        <ele>658.2</ele>
        <time>2025-07-22T10:38:14Z</time>
      </trkpt>
      <trkpt lat="42.89192" lon="-0.02406">
        <ele>657.8</ele>
        <time>2025-07-22T10:38:21Z</time>
      </trkpt>
      <trkpt lat="42.89199" lon="-0.02411">
        <ele>657.4</ele>
        <time>2025-07-22T10:38:22Z</time>
      </trkpt>
      <trkpt lat="42.8925" lon="-0.02445">
        <ele>656.8</ele>
        <time>2025-07-22T10:38:29Z</time>
      </trkpt>
      <trkpt lat="42.89264" lon="-0.02453">
        <ele>656.4</ele>
        <time>2025-07-22T10:38:31Z</time>
      </trkpt>
      <trkpt lat="42.89272" lon="-0.02457">
        <ele>656.2</ele>
        <time>2025-07-22T10:38:32Z</time>
      </trkpt>
      <trkpt lat="42.89315" lon="-0.02482">
        <ele>655.4</ele>
        <time>2025-07-22T10:38:38Z</time>
      </trkpt>
      <trkpt lat="42.89322" lon="-0.02486">
        <ele>655.2</ele>
        <time>2025-07-22T10:38:39Z</time>
      </trkpt>
      <trkpt lat="42.89351" lon="-0.02504">
        <ele>654.8</ele>
        <time>2025-07-22T10:38:43Z</time>
      </trkpt>
      <trkpt lat="42.8938" lon="-0.02522">
        <ele>654.8</ele>
        <time>2025-07-22T10:38:47Z</time>
      </trkpt>
      <trkpt lat="42.8942" lon="-0.02548">
        <ele>654.2</ele>
        <time>2025-07-22T10:38:53Z</time>
      </trkpt>
      <trkpt lat="42.89448" lon="-0.02566">
        <ele>653</ele>
        <time>2025-07-22T10:38:57Z</time>
      </trkpt>
      <trkpt lat="42.89466" lon="-0.02577">
        <ele>652.4</ele>
        <time>2025-07-22T10:39:00Z</time>
      </trkpt>
      <trkpt lat="42.89519" lon="-0.0261">
        <ele>652</ele>
        <time>2025-07-22T10:39:08Z</time>
      </trkpt>
      <trkpt lat="42.89525" lon="-0.02614">
        <ele>652</ele>
        <time>2025-07-22T10:39:09Z</time>
      </trkpt>
      <trkpt lat="42.8957" lon="-0.02642">
        <ele>651</ele>
        <time>2025-07-22T10:39:16Z</time>
      </trkpt>
      <trkpt lat="42.8959" lon="-0.02654">
        <ele>650.8</ele>
        <time>2025-07-22T10:39:19Z</time>
      </trkpt>
      <trkpt lat="42.89618" lon="-0.02671">
        <ele>650</ele>
        <time>2025-07-22T10:39:23Z</time>
      </trkpt>
      <trkpt lat="42.89672" lon="-0.02704">
        <ele>649</ele>
        <time>2025-07-22T10:39:31Z</time>
      </trkpt>
      <trkpt lat="42.89679" lon="-0.02708">
        <ele>648.8</ele>
        <time>2025-07-22T10:39:32Z</time>
      </trkpt>
      <trkpt lat="42.89727" lon="-0.02738">
        <ele>647.6</ele>
        <time>2025-07-22T10:39:39Z</time>
      </trkpt>
      <trkpt lat="42.89741" lon="-0.02746">
        <ele>647.4</ele>
        <time>2025-07-22T10:39:41Z</time>
      </trkpt>
      <trkpt lat="42.8978" lon="-0.02771">
        <ele>646.6</ele>
        <time>2025-07-22T10:39:47Z</time>
      </trkpt>
      <trkpt lat="42.89794" lon="-0.02779">
        <ele>646.4</ele>
        <time>2025-07-22T10:39:49Z</time>
      </trkpt>
      <trkpt lat="42.89846" lon="-0.02807">
        <ele>646</ele>
        <time>2025-07-22T10:39:57Z</time>
      </trkpt>
      <trkpt lat="42.8986" lon="-0.02815">
        <ele>646</ele>
        <time>2025-07-22T10:39:59Z</time>
      </trkpt>
      <trkpt lat="42.89902" lon="-0.02841">
        <ele>646.2</ele>
        <time>2025-07-22T10:40:06Z</time>
      </trkpt>
      <trkpt lat="42.89923" lon="-0.02858">
        <ele>646.2</ele>
        <time>2025-07-22T10:40:10Z</time>
      </trkpt>
      <trkpt lat="42.89932" lon="-0.02867">
        <ele>646.4</ele>
        <time>2025-07-22T10:40:12Z</time>
      </trkpt>
      <trkpt lat="42.89977" lon="-0.02901">
        <ele>647.6</ele>
        <time>2025-07-22T10:40:21Z</time>
      </trkpt>
      <trkpt lat="42.90006" lon="-0.02921">
        <ele>647.6</ele>
        <time>2025-07-22T10:40:26Z</time>
      </trkpt>
      <trkpt lat="42.90019" lon="-0.0293">
        <ele>647.4</ele>
        <time>2025-07-22T10:40:28Z</time>
      </trkpt>
      <trkpt lat="42.9007" lon="-0.02968">
        <ele>645.6</ele>
        <time>2025-07-22T10:40:36Z</time>
      </trkpt>
      <trkpt lat="42.90117" lon="-0.03004">
        <ele>644.6</ele>
        <time>2025-07-22T10:40:43Z</time>
      </trkpt>
      <trkpt lat="42.90153" lon="-0.03031">
        <ele>643.6</ele>
        <time>2025-07-22T10:40:48Z</time>
      </trkpt>
      <trkpt lat="42.90161" lon="-0.03037">
        <ele>643</ele>
        <time>2025-07-22T10:40:49Z</time>
      </trkpt>
      <trkpt lat="42.90185" lon="-0.03054">
        <ele>641.6</ele>
        <time>2025-07-22T10:40:52Z</time>
      </trkpt>
      <trkpt lat="42.90215" lon="-0.03076">
        <ele>640.4</ele>
        <time>2025-07-22T10:40:56Z</time>
      </trkpt>
      <trkpt lat="42.90222" lon="-0.03082">
        <ele>640.2</ele>
        <time>2025-07-22T10:40:57Z</time>
      </trkpt>
      <trkpt lat="42.90252" lon="-0.03103">
        <ele>639.4</ele>
        <time>2025-07-22T10:41:01Z</time>
      </trkpt>
      <trkpt lat="42.90291" lon="-0.03125">
        <ele>638.6</ele>
        <time>2025-07-22T10:41:06Z</time>
      </trkpt>
      <trkpt lat="42.90299" lon="-0.0313">
        <ele>638.4</ele>
        <time>2025-07-22T10:41:07Z</time>
      </trkpt>
      <trkpt lat="42.9033" lon="-0.03145">
        <ele>638</ele>
        <time>2025-07-22T10:41:11Z</time>
      </trkpt>
      <trkpt lat="42.90339" lon="-0.03146">
        <ele>638</ele>
        <time>2025-07-22T10:41:12Z</time>
      </trkpt>
      <trkpt lat="42.90347" lon="-0.03144">
        <ele>638</ele>
        <time>2025-07-22T10:41:13Z</time>
      </trkpt>
      <trkpt lat="42.90363" lon="-0.03137">
        <ele>637.8</ele>
        <time>2025-07-22T10:41:15Z</time>
      </trkpt>
      <trkpt lat="42.90379" lon="-0.03132">
        <ele>637.2</ele>
        <time>2025-07-22T10:41:17Z</time>
      </trkpt>
      <trkpt lat="42.90394" lon="-0.03133">
        <ele>636.8</ele>
        <time>2025-07-22T10:41:19Z</time>
      </trkpt>
      <trkpt lat="42.90411" lon="-0.03141">
        <ele>636.6</ele>
        <time>2025-07-22T10:41:21Z</time>
      </trkpt>
      <trkpt lat="42.90418" lon="-0.03147">
        <ele>636.6</ele>
        <time>2025-07-22T10:41:22Z</time>
      </trkpt>
      <trkpt lat="42.90443" lon="-0.03174">
        <ele>636.4</ele>
        <time>2025-07-22T10:41:26Z</time>
      </trkpt>
      <trkpt lat="42.90449" lon="-0.03182">
        <ele>636.2</ele>
        <time>2025-07-22T10:41:27Z</time>
      </trkpt>
      <trkpt lat="42.90482" lon="-0.03244">
        <ele>635.2</ele>
        <time>2025-07-22T10:41:34Z</time>
      </trkpt>
      <trkpt lat="42.90487" lon="-0.03254">
        <ele>635</ele>
        <time>2025-07-22T10:41:35Z</time>
      </trkpt>
      <trkpt lat="42.90512" lon="-0.03297">
        <ele>634</ele>
        <time>2025-07-22T10:41:40Z</time>
      </trkpt>
      <trkpt lat="42.90525" lon="-0.03318">
        <ele>633.6</ele>
        <time>2025-07-22T10:41:42Z</time>
      </trkpt>
      <trkpt lat="42.90543" lon="-0.03345">
        <ele>633</ele>
        <time>2025-07-22T10:41:45Z</time>
      </trkpt>
      <trkpt lat="42.90559" lon="-0.03374">
        <ele>632</ele>
        <time>2025-07-22T10:41:48Z</time>
      </trkpt>
      <trkpt lat="42.90586" lon="-0.03437">
        <ele>631</ele>
        <time>2025-07-22T10:41:54Z</time>
      </trkpt>
      <trkpt lat="42.9059" lon="-0.03447">
        <ele>630.6</ele>
        <time>2025-07-22T10:41:55Z</time>
      </trkpt>
      <trkpt lat="42.90602" lon="-0.03459">
        <ele>630</ele>
        <time>2025-07-22T10:41:57Z</time>
      </trkpt>
      <trkpt lat="42.90616" lon="-0.03458">
        <ele>629.6</ele>
        <time>2025-07-22T10:41:59Z</time>
      </trkpt>
      <trkpt lat="42.90623" lon="-0.03455">
        <ele>629.4</ele>
        <time>2025-07-22T10:42:00Z</time>
      </trkpt>
      <trkpt lat="42.9063" lon="-0.03452">
        <ele>629.2</ele>
        <time>2025-07-22T10:42:01Z</time>
      </trkpt>
      <trkpt lat="42.90641" lon="-0.03452">
        <ele>629</ele>
        <time>2025-07-22T10:42:03Z</time>
      </trkpt>
      <trkpt lat="42.90659" lon="-0.03463">
        <ele>629</ele>
        <time>2025-07-22T10:42:06Z</time>
      </trkpt>
      <trkpt lat="42.90664" lon="-0.03467">
        <ele>629</ele>
        <time>2025-07-22T10:42:07Z</time>
      </trkpt>
      <trkpt lat="42.90669" lon="-0.03472">
        <ele>629</ele>
        <time>2025-07-22T10:42:08Z</time>
      </trkpt>
      <trkpt lat="42.90688" lon="-0.03488">
        <ele>629.6</ele>
        <time>2025-07-22T10:42:12Z</time>
      </trkpt>
      <trkpt lat="42.90702" lon="-0.03497">
        <ele>630.2</ele>
        <time>2025-07-22T10:42:15Z</time>
      </trkpt>
      <trkpt lat="42.90707" lon="-0.03499">
        <ele>630.6</ele>
        <time>2025-07-22T10:42:16Z</time>
      </trkpt>
      <trkpt lat="42.90711" lon="-0.03502">
        <ele>630.8</ele>
        <time>2025-07-22T10:42:17Z</time>
      </trkpt>
      <trkpt lat="42.90721" lon="-0.03505">
        <ele>631.6</ele>
        <time>2025-07-22T10:42:19Z</time>
      </trkpt>
      <trkpt lat="42.90727" lon="-0.03505">
        <ele>631.8</ele>
        <time>2025-07-22T10:42:20Z</time>
      </trkpt>
      <trkpt lat="42.90731" lon="-0.03508">
        <ele>632</ele>
        <time>2025-07-22T10:42:21Z</time>
      </trkpt>
      <trkpt lat="42.9074" lon="-0.03513">
        <ele>632.4</ele>
        <time>2025-07-22T10:42:23Z</time>
      </trkpt>
      <trkpt lat="42.90754" lon="-0.03525">
        <ele>632.6</ele>
        <time>2025-07-22T10:42:26Z</time>
      </trkpt>
      <trkpt lat="42.90763" lon="-0.03532">
        <ele>632.8</ele>
        <time>2025-07-22T10:42:28Z</time>
      </trkpt>
      <trkpt lat="42.90782" lon="-0.03544">
        <ele>633.4</ele>
        <time>2025-07-22T10:42:32Z</time>
      </trkpt>
      <trkpt lat="42.908" lon="-0.03556">
        <ele>634</ele>
        <time>2025-07-22T10:42:36Z</time>
      </trkpt>
      <trkpt lat="42.90819" lon="-0.03569">
        <ele>634.6</ele>
        <time>2025-07-22T10:42:40Z</time>
      </trkpt>
      <trkpt lat="42.90837" lon="-0.03585">
        <ele>635</ele>
        <time>2025-07-22T10:42:44Z</time>
      </trkpt>
      <trkpt lat="42.90853" lon="-0.03602">
        <ele>635.2</ele>
        <time>2025-07-22T10:42:48Z</time>
      </trkpt>
      <trkpt lat="42.90883" lon="-0.03628">
        <ele>635.8</ele>
        <time>2025-07-22T10:42:55Z</time>
      </trkpt>
      <trkpt lat="42.90886" lon="-0.03631">
        <ele>636</ele>
        <time>2025-07-22T10:42:56Z</time>
      </trkpt>
      <trkpt lat="42.90904" lon="-0.03643">
        <ele>637</ele>
        <time>2025-07-22T10:43:01Z</time>
      </trkpt>
      <trkpt lat="42.90926" lon="-0.03651">
        <ele>638.2</ele>
        <time>2025-07-22T10:43:07Z</time>
      </trkpt>
      <trkpt lat="42.90944" lon="-0.03661">
        <ele>639.2</ele>
        <time>2025-07-22T10:43:12Z</time>
      </trkpt>
      <trkpt lat="42.90947" lon="-0.03662">
        <ele>639.4</ele>
        <time>2025-07-22T10:43:13Z</time>
      </trkpt>
      <trkpt lat="42.90954" lon="-0.03664">
        <ele>640</ele>
        <time>2025-07-22T10:43:15Z</time>
      </trkpt>
      <trkpt lat="42.90961" lon="-0.03662">
        <ele>640.2</ele>
        <time>2025-07-22T10:43:17Z</time>
      </trkpt>
      <trkpt lat="42.90964" lon="-0.03662">
        <ele>640.4</ele>
        <time>2025-07-22T10:43:18Z</time>
      </trkpt>
      <trkpt lat="42.90986" lon="-0.03658">
        <ele>641.4</ele>
        <time>2025-07-22T10:43:23Z</time>
      </trkpt>
      <trkpt lat="42.90999" lon="-0.03661">
        <ele>641.8</ele>
        <time>2025-07-22T10:43:26Z</time>
      </trkpt>
      <trkpt lat="42.91019" lon="-0.03664">
        <ele>642.2</ele>
        <time>2025-07-22T10:43:31Z</time>
      </trkpt>
      <trkpt lat="42.91023" lon="-0.03664">
        <ele>642.4</ele>
        <time>2025-07-22T10:43:32Z</time>
      </trkpt>
      <trkpt lat="42.91051" lon="-0.03668">
        <ele>643</ele>
        <time>2025-07-22T10:43:38Z</time>
      </trkpt>
      <trkpt lat="42.91056" lon="-0.03669">
        <ele>643.2</ele>
        <time>2025-07-22T10:43:39Z</time>
      </trkpt>
      <trkpt lat="42.91064" lon="-0.03669">
        <ele>643.4</ele>
        <time>2025-07-22T10:43:41Z</time>
      </trkpt>
      <trkpt lat="42.91075" lon="-0.03671">
        <ele>643.6</ele>
        <time>2025-07-22T10:43:44Z</time>
      </trkpt>
      <trkpt lat="42.9108" lon="-0.0367">
        <ele>643.6</ele>
        <time>2025-07-22T10:43:45Z</time>
      </trkpt>
      <trkpt lat="42.91094" lon="-0.0367">
        <ele>644</ele>
        <time>2025-07-22T10:43:48Z</time>
      </trkpt>
      <trkpt lat="42.91098" lon="-0.0367">
        <ele>644</ele>
        <time>2025-07-22T10:43:49Z</time>
      </trkpt>
      <trkpt lat="42.91112" lon="-0.03674">
        <ele>644.2</ele>
        <time>2025-07-22T10:43:52Z</time>
      </trkpt>
      <trkpt lat="42.91116" lon="-0.03677">
        <ele>644.2</ele>
        <time>2025-07-22T10:43:53Z</time>
      </trkpt>
      <trkpt lat="42.91135" lon="-0.03689">
        <ele>644.2</ele>
        <time>2025-07-22T10:43:57Z</time>
      </trkpt>
      <trkpt lat="42.91146" lon="-0.03696">
        <ele>644.2</ele>
        <time>2025-07-22T10:43:59Z</time>
      </trkpt>
      <trkpt lat="42.91158" lon="-0.03701">
        <ele>644</ele>
        <time>2025-07-22T10:44:01Z</time>
      </trkpt>
      <trkpt lat="42.91177" lon="-0.03708">
        <ele>643.8</ele>
        <time>2025-07-22T10:44:04Z</time>
      </trkpt>
      <trkpt lat="42.91221" lon="-0.03729">
        <ele>642.8</ele>
        <time>2025-07-22T10:44:11Z</time>
      </trkpt>
      <trkpt lat="42.91227" lon="-0.03731">
        <ele>642.6</ele>
        <time>2025-07-22T10:44:12Z</time>
      </trkpt>
      <trkpt lat="42.91241" lon="-0.03732">
        <ele>642.2</ele>
        <time>2025-07-22T10:44:14Z</time>
      </trkpt>
      <trkpt lat="42.91249" lon="-0.03731">
        <ele>642</ele>
        <time>2025-07-22T10:44:15Z</time>
      </trkpt>
      <trkpt lat="42.91279" lon="-0.03719">
        <ele>640.8</ele>
        <time>2025-07-22T10:44:19Z</time>
      </trkpt>
      <trkpt lat="42.91286" lon="-0.03716">
        <ele>640.4</ele>
        <time>2025-07-22T10:44:20Z</time>
      </trkpt>
      <trkpt lat="42.91294" lon="-0.03714">
        <ele>639.8</ele>
        <time>2025-07-22T10:44:21Z</time>
      </trkpt>
      <trkpt lat="42.91309" lon="-0.03712">
        <ele>638.2</ele>
        <time>2025-07-22T10:44:23Z</time>
      </trkpt>
      <trkpt lat="42.91317" lon="-0.03712">
        <ele>637.8</ele>
        <time>2025-07-22T10:44:24Z</time>
      </trkpt>
      <trkpt lat="42.91325" lon="-0.03711">
        <ele>637.6</ele>
        <time>2025-07-22T10:44:25Z</time>
      </trkpt>
      <trkpt lat="42.91341" lon="-0.03706">
        <ele>637.2</ele>
        <time>2025-07-22T10:44:27Z</time>
      </trkpt>
      <trkpt lat="42.9135" lon="-0.03702">
        <ele>636.4</ele>
        <time>2025-07-22T10:44:28Z</time>
      </trkpt>
      <trkpt lat="42.91373" lon="-0.03691">
        <ele>635.4</ele>
        <time>2025-07-22T10:44:31Z</time>
      </trkpt>
      <trkpt lat="42.9139" lon="-0.03689">
        <ele>634.8</ele>
        <time>2025-07-22T10:44:33Z</time>
      </trkpt>
      <trkpt lat="42.91398" lon="-0.03691">
        <ele>634</ele>
        <time>2025-07-22T10:44:34Z</time>
      </trkpt>
      <trkpt lat="42.91422" lon="-0.03699">
        <ele>633.2</ele>
        <time>2025-07-22T10:44:37Z</time>
      </trkpt>
      <trkpt lat="42.91437" lon="-0.03708">
        <ele>633</ele>
        <time>2025-07-22T10:44:39Z</time>
      </trkpt>
      <trkpt lat="42.91466" lon="-0.03726">
        <ele>632.6</ele>
        <time>2025-07-22T10:44:43Z</time>
      </trkpt>
      <trkpt lat="42.91508" lon="-0.03746">
        <ele>632.8</ele>
        <time>2025-07-22T10:44:49Z</time>
      </trkpt>
      <trkpt lat="42.91545" lon="-0.03762">
        <ele>633.6</ele>
        <time>2025-07-22T10:44:55Z</time>
      </trkpt>
      <trkpt lat="42.91552" lon="-0.03764">
        <ele>633.8</ele>
        <time>2025-07-22T10:44:56Z</time>
      </trkpt>
      <trkpt lat="42.91582" lon="-0.03779">
        <ele>634.6</ele>
        <time>2025-07-22T10:45:01Z</time>
      </trkpt>
      <trkpt lat="42.91594" lon="-0.03785">
        <ele>635</ele>
        <time>2025-07-22T10:45:03Z</time>
      </trkpt>
      <trkpt lat="42.91611" lon="-0.03794">
        <ele>635.4</ele>
        <time>2025-07-22T10:45:06Z</time>
      </trkpt>
      <trkpt lat="42.91622" lon="-0.03799">
        <ele>635.8</ele>
        <time>2025-07-22T10:45:08Z</time>
      </trkpt>
      <trkpt lat="42.91632" lon="-0.03807">
        <ele>636.2</ele>
        <time>2025-07-22T10:45:10Z</time>
      </trkpt>
      <trkpt lat="42.91637" lon="-0.03811">
        <ele>636.2</ele>
        <time>2025-07-22T10:45:11Z</time>
      </trkpt>
      <trkpt lat="42.91651" lon="-0.03826">
        <ele>636.6</ele>
        <time>2025-07-22T10:45:14Z</time>
      </trkpt>
      <trkpt lat="42.91658" lon="-0.03838">
        <ele>637</ele>
        <time>2025-07-22T10:45:16Z</time>
      </trkpt>
      <trkpt lat="42.91694" lon="-0.03898">
        <ele>637.8</ele>
        <time>2025-07-22T10:45:25Z</time>
      </trkpt>
      <trkpt lat="42.91709" lon="-0.03926">
        <ele>638</ele>
        <time>2025-07-22T10:45:29Z</time>
      </trkpt>
      <trkpt lat="42.91714" lon="-0.03933">
        <ele>638</ele>
        <time>2025-07-22T10:45:30Z</time>
      </trkpt>
      <trkpt lat="42.91723" lon="-0.03946">
        <ele>638</ele>
        <time>2025-07-22T10:45:32Z</time>
      </trkpt>
      <trkpt lat="42.91737" lon="-0.03967">
        <ele>637.8</ele>
        <time>2025-07-22T10:45:35Z</time>
      </trkpt>
      <trkpt lat="42.91743" lon="-0.03974">
        <ele>637.8</ele>
        <time>2025-07-22T10:45:36Z</time>
      </trkpt>
      <trkpt lat="42.91756" lon="-0.03981">
        <ele>637.8</ele>
        <time>2025-07-22T10:45:38Z</time>
      </trkpt>
      <trkpt lat="42.91788" lon="-0.03982">
        <ele>637.4</ele>
        <time>2025-07-22T10:45:42Z</time>
      </trkpt>
      <trkpt lat="42.91796" lon="-0.03983">
        <ele>637.2</ele>
        <time>2025-07-22T10:45:43Z</time>
      </trkpt>
      <trkpt lat="42.91813" lon="-0.03988">
        <ele>636.4</ele>
        <time>2025-07-22T10:45:45Z</time>
      </trkpt>
      <trkpt lat="42.9182" lon="-0.03993">
        <ele>636.2</ele>
        <time>2025-07-22T10:45:46Z</time>
      </trkpt>
      <trkpt lat="42.91829" lon="-0.04001">
        <ele>635.6</ele>
        <time>2025-07-22T10:45:47Z</time>
      </trkpt>
      <trkpt lat="42.91847" lon="-0.04022">
        <ele>635</ele>
        <time>2025-07-22T10:45:50Z</time>
      </trkpt>
      <trkpt lat="42.9186" lon="-0.04036">
        <ele>634.6</ele>
        <time>2025-07-22T10:45:52Z</time>
      </trkpt>
      <trkpt lat="42.91868" lon="-0.04039">
        <ele>634.6</ele>
        <time>2025-07-22T10:45:53Z</time>
      </trkpt>
      <trkpt lat="42.91876" lon="-0.04038">
        <ele>634.4</ele>
        <time>2025-07-22T10:45:54Z</time>
      </trkpt>
      <trkpt lat="42.91892" lon="-0.0403">
        <ele>634</ele>
        <time>2025-07-22T10:45:56Z</time>
      </trkpt>
      <trkpt lat="42.91909" lon="-0.04021">
        <ele>633.4</ele>
        <time>2025-07-22T10:45:58Z</time>
      </trkpt>
      <trkpt lat="42.91919" lon="-0.04017">
        <ele>633.2</ele>
        <time>2025-07-22T10:45:59Z</time>
      </trkpt>
      <trkpt lat="42.91928" lon="-0.04016">
        <ele>633</ele>
        <time>2025-07-22T10:46:00Z</time>
      </trkpt>
      <trkpt lat="42.91938" lon="-0.04017">
        <ele>632.8</ele>
        <time>2025-07-22T10:46:01Z</time>
      </trkpt>
      <trkpt lat="42.91947" lon="-0.0402">
        <ele>632.4</ele>
        <time>2025-07-22T10:46:02Z</time>
      </trkpt>
      <trkpt lat="42.91956" lon="-0.04023">
        <ele>632.2</ele>
        <time>2025-07-22T10:46:03Z</time>
      </trkpt>
      <trkpt lat="42.91966" lon="-0.04025">
        <ele>632</ele>
        <time>2025-07-22T10:46:04Z</time>
      </trkpt>
      <trkpt lat="42.91985" lon="-0.04024">
        <ele>631.8</ele>
        <time>2025-07-22T10:46:06Z</time>
      </trkpt>
      <trkpt lat="42.92004" lon="-0.04023">
        <ele>631.6</ele>
        <time>2025-07-22T10:46:08Z</time>
      </trkpt>
      <trkpt lat="42.92012" lon="-0.04024">
        <ele>631.2</ele>
        <time>2025-07-22T10:46:09Z</time>
      </trkpt>
      <trkpt lat="42.9202" lon="-0.04027">
        <ele>631</ele>
        <time>2025-07-22T10:46:10Z</time>
      </trkpt>
      <trkpt lat="42.92041" lon="-0.04048">
        <ele>630.6</ele>
        <time>2025-07-22T10:46:13Z</time>
      </trkpt>
      <trkpt lat="42.92051" lon="-0.04075">
        <ele>630.6</ele>
        <time>2025-07-22T10:46:16Z</time>
      </trkpt>
      <trkpt lat="42.92055" lon="-0.04084">
        <ele>630.6</ele>
        <time>2025-07-22T10:46:17Z</time>
      </trkpt>
      <trkpt lat="42.92066" lon="-0.04092">
        <ele>630.8</ele>
        <time>2025-07-22T10:46:19Z</time>
      </trkpt>
      <trkpt lat="42.92071" lon="-0.04091">
        <ele>631.2</ele>
        <time>2025-07-22T10:46:20Z</time>
      </trkpt>
      <trkpt lat="42.92081" lon="-0.04094">
        <ele>631.4</ele>
        <time>2025-07-22T10:46:22Z</time>
      </trkpt>
      <trkpt lat="42.92089" lon="-0.04097">
        <ele>631.6</ele>
        <time>2025-07-22T10:46:24Z</time>
      </trkpt>
      <trkpt lat="42.92091" lon="-0.041">
        <ele>632</ele>
        <time>2025-07-22T10:46:25Z</time>
      </trkpt>
      <trkpt lat="42.92095" lon="-0.04101">
        <ele>632.2</ele>
        <time>2025-07-22T10:46:26Z</time>
      </trkpt>
      <trkpt lat="42.921" lon="-0.04103">
        <ele>632.4</ele>
        <time>2025-07-22T10:46:27Z</time>
      </trkpt>
      <trkpt lat="42.92104" lon="-0.04103">
        <ele>632.6</ele>
        <time>2025-07-22T10:46:28Z</time>
      </trkpt>
      <trkpt lat="42.92125" lon="-0.04096">
        <ele>632.8</ele>
        <time>2025-07-22T10:46:32Z</time>
      </trkpt>
      <trkpt lat="42.92131" lon="-0.04092">
        <ele>632.8</ele>
        <time>2025-07-22T10:46:33Z</time>
      </trkpt>
      <trkpt lat="42.92149" lon="-0.04084">
        <ele>632.8</ele>
        <time>2025-07-22T10:46:35Z</time>
      </trkpt>
      <trkpt lat="42.92165" lon="-0.0408">
        <ele>632.8</ele>
        <time>2025-07-22T10:46:36Z</time>
      </trkpt>
      <trkpt lat="42.9219" lon="-0.04066">
        <ele>632.8</ele>
        <time>2025-07-22T10:46:39Z</time>
      </trkpt>
      <trkpt lat="42.92208" lon="-0.04062">
        <ele>632.4</ele>
        <time>2025-07-22T10:46:41Z</time>
      </trkpt>
      <trkpt lat="42.92226" lon="-0.04065">
        <ele>632</ele>
        <time>2025-07-22T10:46:43Z</time>
      </trkpt>
      <trkpt lat="42.92254" lon="-0.04061">
        <ele>631.2</ele>
        <time>2025-07-22T10:46:46Z</time>
      </trkpt>
      <trkpt lat="42.92262" lon="-0.04059">
        <ele>631</ele>
        <time>2025-07-22T10:46:47Z</time>
      </trkpt>
      <trkpt lat="42.9228" lon="-0.04059">
        <ele>629.8</ele>
        <time>2025-07-22T10:46:49Z</time>
      </trkpt>
      <trkpt lat="42.92299" lon="-0.04065">
        <ele>629.2</ele>
        <time>2025-07-22T10:46:51Z</time>
      </trkpt>
      <trkpt lat="42.92318" lon="-0.04073">
        <ele>628.8</ele>
        <time>2025-07-22T10:46:53Z</time>
      </trkpt>
      <trkpt lat="42.92339" lon="-0.04078">
        <ele>627.4</ele>
        <time>2025-07-22T10:46:55Z</time>
      </trkpt>
      <trkpt lat="42.9236" lon="-0.04078">
        <ele>626.2</ele>
        <time>2025-07-22T10:46:57Z</time>
      </trkpt>
      <trkpt lat="42.9238" lon="-0.04073">
        <ele>625.4</ele>
        <time>2025-07-22T10:46:59Z</time>
      </trkpt>
      <trkpt lat="42.92391" lon="-0.04077">
        <ele>625</ele>
        <time>2025-07-22T10:47:00Z</time>
      </trkpt>
      <trkpt lat="42.92401" lon="-0.04082">
        <ele>624.6</ele>
        <time>2025-07-22T10:47:01Z</time>
      </trkpt>
      <trkpt lat="42.92412" lon="-0.04092">
        <ele>624.2</ele>
        <time>2025-07-22T10:47:02Z</time>
      </trkpt>
      <trkpt lat="42.9242" lon="-0.04102">
        <ele>623.6</ele>
        <time>2025-07-22T10:47:03Z</time>
      </trkpt>
      <trkpt lat="42.92426" lon="-0.0411">
        <ele>623.2</ele>
        <time>2025-07-22T10:47:04Z</time>
      </trkpt>
      <trkpt lat="42.92436" lon="-0.04121">
        <ele>622.6</ele>
        <time>2025-07-22T10:47:05Z</time>
      </trkpt>
      <trkpt lat="42.92463" lon="-0.04148">
        <ele>621.2</ele>
        <time>2025-07-22T10:47:08Z</time>
      </trkpt>
      <trkpt lat="42.92488" lon="-0.04172">
        <ele>620</ele>
        <time>2025-07-22T10:47:11Z</time>
      </trkpt>
      <trkpt lat="42.92524" lon="-0.04201">
        <ele>618.6</ele>
        <time>2025-07-22T10:47:15Z</time>
      </trkpt>
      <trkpt lat="42.92542" lon="-0.04212">
        <ele>618</ele>
        <time>2025-07-22T10:47:17Z</time>
      </trkpt>
      <trkpt lat="42.92561" lon="-0.04214">
        <ele>617.6</ele>
        <time>2025-07-22T10:47:19Z</time>
      </trkpt>
      <trkpt lat="42.92571" lon="-0.0421">
        <ele>617.4</ele>
        <time>2025-07-22T10:47:20Z</time>
      </trkpt>
      <trkpt lat="42.92579" lon="-0.04205">
        <ele>616.8</ele>
        <time>2025-07-22T10:47:21Z</time>
      </trkpt>
      <trkpt lat="42.92588" lon="-0.04197">
        <ele>616.2</ele>
        <time>2025-07-22T10:47:22Z</time>
      </trkpt>
      <trkpt lat="42.92603" lon="-0.0418">
        <ele>615.2</ele>
        <time>2025-07-22T10:47:24Z</time>
      </trkpt>
      <trkpt lat="42.92612" lon="-0.04172">
        <ele>614.8</ele>
        <time>2025-07-22T10:47:25Z</time>
      </trkpt>
      <trkpt lat="42.9262" lon="-0.04167">
        <ele>614.2</ele>
        <time>2025-07-22T10:47:26Z</time>
      </trkpt>
      <trkpt lat="42.92629" lon="-0.04163">
        <ele>613.6</ele>
        <time>2025-07-22T10:47:27Z</time>
      </trkpt>
      <trkpt lat="42.9264" lon="-0.04162">
        <ele>612.2</ele>
        <time>2025-07-22T10:47:28Z</time>
      </trkpt>
      <trkpt lat="42.92653" lon="-0.04162">
        <ele>611</ele>
        <time>2025-07-22T10:47:29Z</time>
      </trkpt>
      <trkpt lat="42.92673" lon="-0.04163">
        <ele>609.2</ele>
        <time>2025-07-22T10:47:31Z</time>
      </trkpt>
      <trkpt lat="42.92696" lon="-0.04165">
        <ele>608</ele>
        <time>2025-07-22T10:47:33Z</time>
      </trkpt>
      <trkpt lat="42.92707" lon="-0.04167">
        <ele>607.6</ele>
        <time>2025-07-22T10:47:34Z</time>
      </trkpt>
      <trkpt lat="42.92719" lon="-0.0417">
        <ele>607</ele>
        <time>2025-07-22T10:47:35Z</time>
      </trkpt>
      <trkpt lat="42.92741" lon="-0.04177">
        <ele>605.8</ele>
        <time>2025-07-22T10:47:37Z</time>
      </trkpt>
      <trkpt lat="42.92764" lon="-0.04185">
        <ele>604.8</ele>
        <time>2025-07-22T10:47:39Z</time>
      </trkpt>
      <trkpt lat="42.92778" lon="-0.0419">
        <ele>604</ele>
        <time>2025-07-22T10:47:40Z</time>
      </trkpt>
      <trkpt lat="42.92787" lon="-0.04194">
        <ele>603.6</ele>
        <time>2025-07-22T10:47:41Z</time>
      </trkpt>
      <trkpt lat="42.92798" lon="-0.04198">
        <ele>602.6</ele>
        <time>2025-07-22T10:47:42Z</time>
      </trkpt>
      <trkpt lat="42.92809" lon="-0.04202">
        <ele>601.8</ele>
        <time>2025-07-22T10:47:43Z</time>
      </trkpt>
      <trkpt lat="42.92832" lon="-0.04211">
        <ele>600.8</ele>
        <time>2025-07-22T10:47:45Z</time>
      </trkpt>
      <trkpt lat="42.92843" lon="-0.04215">
        <ele>600.2</ele>
        <time>2025-07-22T10:47:46Z</time>
      </trkpt>
      <trkpt lat="42.92863" lon="-0.04229">
        <ele>598.6</ele>
        <time>2025-07-22T10:47:48Z</time>
      </trkpt>
      <trkpt lat="42.92871" lon="-0.04238">
        <ele>597.8</ele>
        <time>2025-07-22T10:47:49Z</time>
      </trkpt>
      <trkpt lat="42.9288" lon="-0.04248">
        <ele>597</ele>
        <time>2025-07-22T10:47:50Z</time>
      </trkpt>
      <trkpt lat="42.92897" lon="-0.04269">
        <ele>596</ele>
        <time>2025-07-22T10:47:52Z</time>
      </trkpt>
      <trkpt lat="42.92904" lon="-0.04281">
        <ele>595.4</ele>
        <time>2025-07-22T10:47:53Z</time>
      </trkpt>
      <trkpt lat="42.92912" lon="-0.04292">
        <ele>594.6</ele>
        <time>2025-07-22T10:47:54Z</time>
      </trkpt>
      <trkpt lat="42.92928" lon="-0.04318">
        <ele>593.2</ele>
        <time>2025-07-22T10:47:56Z</time>
      </trkpt>
      <trkpt lat="42.92938" lon="-0.04332">
        <ele>592</ele>
        <time>2025-07-22T10:47:57Z</time>
      </trkpt>
      <trkpt lat="42.92947" lon="-0.04343">
        <ele>591.8</ele>
        <time>2025-07-22T10:47:58Z</time>
      </trkpt>
      <trkpt lat="42.92957" lon="-0.04353">
        <ele>590.8</ele>
        <time>2025-07-22T10:47:59Z</time>
      </trkpt>
      <trkpt lat="42.92965" lon="-0.04364">
        <ele>590.2</ele>
        <time>2025-07-22T10:48:00Z</time>
      </trkpt>
      <trkpt lat="42.92972" lon="-0.04377">
        <ele>589.4</ele>
        <time>2025-07-22T10:48:01Z</time>
      </trkpt>
      <trkpt lat="42.92976" lon="-0.04392">
        <ele>588.2</ele>
        <time>2025-07-22T10:48:02Z</time>
      </trkpt>
      <trkpt lat="42.92984" lon="-0.04422">
        <ele>586.4</ele>
        <time>2025-07-22T10:48:04Z</time>
      </trkpt>
      <trkpt lat="42.92994" lon="-0.04451">
        <ele>585.2</ele>
        <time>2025-07-22T10:48:06Z</time>
      </trkpt>
      <trkpt lat="42.92999" lon="-0.04467">
        <ele>584.6</ele>
        <time>2025-07-22T10:48:07Z</time>
      </trkpt>
      <trkpt lat="42.93005" lon="-0.04481">
        <ele>583.8</ele>
        <time>2025-07-22T10:48:08Z</time>
      </trkpt>
      <trkpt lat="42.93017" lon="-0.04511">
        <ele>582.6</ele>
        <time>2025-07-22T10:48:10Z</time>
      </trkpt>
      <trkpt lat="42.93025" lon="-0.04524">
        <ele>581.4</ele>
        <time>2025-07-22T10:48:11Z</time>
      </trkpt>
      <trkpt lat="42.93032" lon="-0.04536">
        <ele>581</ele>
        <time>2025-07-22T10:48:12Z</time>
      </trkpt>
      <trkpt lat="42.93041" lon="-0.04548">
        <ele>579.8</ele>
        <time>2025-07-22T10:48:13Z</time>
      </trkpt>
      <trkpt lat="42.93058" lon="-0.04571">
        <ele>578.2</ele>
        <time>2025-07-22T10:48:15Z</time>
      </trkpt>
      <trkpt lat="42.93067" lon="-0.04582">
        <ele>577.2</ele>
        <time>2025-07-22T10:48:16Z</time>
      </trkpt>
      <trkpt lat="42.93076" lon="-0.04591">
        <ele>577</ele>
        <time>2025-07-22T10:48:17Z</time>
      </trkpt>
      <trkpt lat="42.93085" lon="-0.04601">
        <ele>576.2</ele>
        <time>2025-07-22T10:48:18Z</time>
      </trkpt>
      <trkpt lat="42.93095" lon="-0.04608">
        <ele>576</ele>
        <time>2025-07-22T10:48:19Z</time>
      </trkpt>
      <trkpt lat="42.93106" lon="-0.04612">
        <ele>575.4</ele>
        <time>2025-07-22T10:48:20Z</time>
      </trkpt>
      <trkpt lat="42.93116" lon="-0.04614">
        <ele>575</ele>
        <time>2025-07-22T10:48:21Z</time>
      </trkpt>
      <trkpt lat="42.93127" lon="-0.04614">
        <ele>574.2</ele>
        <time>2025-07-22T10:48:22Z</time>
      </trkpt>
      <trkpt lat="42.9314" lon="-0.04611">
        <ele>573</ele>
        <time>2025-07-22T10:48:23Z</time>
      </trkpt>
      <trkpt lat="42.93148" lon="-0.0461">
        <ele>572.6</ele>
        <time>2025-07-22T10:48:24Z</time>
      </trkpt>
      <trkpt lat="42.93159" lon="-0.04608">
        <ele>572</ele>
        <time>2025-07-22T10:48:25Z</time>
      </trkpt>
      <trkpt lat="42.9318" lon="-0.04609">
        <ele>571.2</ele>
        <time>2025-07-22T10:48:27Z</time>
      </trkpt>
      <trkpt lat="42.93191" lon="-0.04611">
        <ele>570.6</ele>
        <time>2025-07-22T10:48:28Z</time>
      </trkpt>
      <trkpt lat="42.93222" lon="-0.04622">
        <ele>569.6</ele>
        <time>2025-07-22T10:48:31Z</time>
      </trkpt>
      <trkpt lat="42.93241" lon="-0.04633">
        <ele>569</ele>
        <time>2025-07-22T10:48:33Z</time>
      </trkpt>
      <trkpt lat="42.93251" lon="-0.0464">
        <ele>568.6</ele>
        <time>2025-07-22T10:48:34Z</time>
      </trkpt>
      <trkpt lat="42.9328" lon="-0.04656">
        <ele>567.8</ele>
        <time>2025-07-22T10:48:37Z</time>
      </trkpt>
      <trkpt lat="42.933" lon="-0.04665">
        <ele>567.2</ele>
        <time>2025-07-22T10:48:39Z</time>
      </trkpt>
      <trkpt lat="42.93329" lon="-0.0468">
        <ele>566.4</ele>
        <time>2025-07-22T10:48:42Z</time>
      </trkpt>
      <trkpt lat="42.9334" lon="-0.04687">
        <ele>566.2</ele>
        <time>2025-07-22T10:48:43Z</time>
      </trkpt>
      <trkpt lat="42.93364" lon="-0.04704">
        <ele>565.2</ele>
        <time>2025-07-22T10:48:46Z</time>
      </trkpt>
      <trkpt lat="42.93374" lon="-0.04709">
        <ele>565</ele>
        <time>2025-07-22T10:48:47Z</time>
      </trkpt>
      <trkpt lat="42.93393" lon="-0.04719">
        <ele>563.6</ele>
        <time>2025-07-22T10:48:49Z</time>
      </trkpt>
      <trkpt lat="42.93417" lon="-0.04737">
        <ele>562.6</ele>
        <time>2025-07-22T10:48:52Z</time>
      </trkpt>
      <trkpt lat="42.93436" lon="-0.04763">
        <ele>561.2</ele>
        <time>2025-07-22T10:48:55Z</time>
      </trkpt>
      <trkpt lat="42.93442" lon="-0.04773">
        <ele>560.6</ele>
        <time>2025-07-22T10:48:56Z</time>
      </trkpt>
      <trkpt lat="42.93454" lon="-0.04797">
        <ele>559.4</ele>
        <time>2025-07-22T10:48:58Z</time>
      </trkpt>
      <trkpt lat="42.93462" lon="-0.04821">
        <ele>558.8</ele>
        <time>2025-07-22T10:49:00Z</time>
      </trkpt>
      <trkpt lat="42.93467" lon="-0.04832">
        <ele>558.2</ele>
        <time>2025-07-22T10:49:01Z</time>
      </trkpt>
      <trkpt lat="42.93481" lon="-0.04847">
        <ele>557.4</ele>
        <time>2025-07-22T10:49:03Z</time>
      </trkpt>
      <trkpt lat="42.93489" lon="-0.0485">
        <ele>557.2</ele>
        <time>2025-07-22T10:49:04Z</time>
      </trkpt>
      <trkpt lat="42.93498" lon="-0.0485">
        <ele>556.8</ele>
        <time>2025-07-22T10:49:05Z</time>
      </trkpt>
      <trkpt lat="42.93514" lon="-0.0485">
        <ele>556</ele>
        <time>2025-07-22T10:49:07Z</time>
      </trkpt>
      <trkpt lat="42.93523" lon="-0.04848">
        <ele>555.6</ele>
        <time>2025-07-22T10:49:08Z</time>
      </trkpt>
      <trkpt lat="42.93531" lon="-0.04845">
        <ele>555.2</ele>
        <time>2025-07-22T10:49:09Z</time>
      </trkpt>
      <trkpt lat="42.9354" lon="-0.04843">
        <ele>554.8</ele>
        <time>2025-07-22T10:49:10Z</time>
      </trkpt>
      <trkpt lat="42.9355" lon="-0.04841">
        <ele>554.6</ele>
        <time>2025-07-22T10:49:11Z</time>
      </trkpt>
      <trkpt lat="42.93568" lon="-0.04839">
        <ele>553.6</ele>
        <time>2025-07-22T10:49:13Z</time>
      </trkpt>
      <trkpt lat="42.93588" lon="-0.04834">
        <ele>552</ele>
        <time>2025-07-22T10:49:15Z</time>
      </trkpt>
      <trkpt lat="42.93598" lon="-0.04833">
        <ele>551.6</ele>
        <time>2025-07-22T10:49:16Z</time>
      </trkpt>
      <trkpt lat="42.93619" lon="-0.04835">
        <ele>550.6</ele>
        <time>2025-07-22T10:49:18Z</time>
      </trkpt>
      <trkpt lat="42.93629" lon="-0.04836">
        <ele>549.8</ele>
        <time>2025-07-22T10:49:19Z</time>
      </trkpt>
      <trkpt lat="42.93639" lon="-0.04839">
        <ele>549.6</ele>
        <time>2025-07-22T10:49:20Z</time>
      </trkpt>
      <trkpt lat="42.93649" lon="-0.04844">
        <ele>549</ele>
        <time>2025-07-22T10:49:21Z</time>
      </trkpt>
      <trkpt lat="42.93659" lon="-0.04853">
        <ele>548.8</ele>
        <time>2025-07-22T10:49:22Z</time>
      </trkpt>
      <trkpt lat="42.93668" lon="-0.04864">
        <ele>548.4</ele>
        <time>2025-07-22T10:49:23Z</time>
      </trkpt>
      <trkpt lat="42.93683" lon="-0.04888">
        <ele>547.6</ele>
        <time>2025-07-22T10:49:25Z</time>
      </trkpt>
      <trkpt lat="42.9369" lon="-0.04901">
        <ele>546.6</ele>
        <time>2025-07-22T10:49:26Z</time>
      </trkpt>
      <trkpt lat="42.93705" lon="-0.04925">
        <ele>545.4</ele>
        <time>2025-07-22T10:49:28Z</time>
      </trkpt>
      <trkpt lat="42.93714" lon="-0.04935">
        <ele>545</ele>
        <time>2025-07-22T10:49:29Z</time>
      </trkpt>
      <trkpt lat="42.93723" lon="-0.04943">
        <ele>544.8</ele>
        <time>2025-07-22T10:49:30Z</time>
      </trkpt>
      <trkpt lat="42.93732" lon="-0.0495">
        <ele>543.8</ele>
        <time>2025-07-22T10:49:31Z</time>
      </trkpt>
      <trkpt lat="42.93751" lon="-0.04961">
        <ele>543.2</ele>
        <time>2025-07-22T10:49:33Z</time>
      </trkpt>
      <trkpt lat="42.9376" lon="-0.04966">
        <ele>542.6</ele>
        <time>2025-07-22T10:49:34Z</time>
      </trkpt>
      <trkpt lat="42.93789" lon="-0.04982">
        <ele>541.4</ele>
        <time>2025-07-22T10:49:37Z</time>
      </trkpt>
      <trkpt lat="42.93798" lon="-0.04987">
        <ele>541</ele>
        <time>2025-07-22T10:49:38Z</time>
      </trkpt>
      <trkpt lat="42.93815" lon="-0.04996">
        <ele>540.2</ele>
        <time>2025-07-22T10:49:40Z</time>
      </trkpt>
      <trkpt lat="42.93832" lon="-0.05003">
        <ele>539.6</ele>
        <time>2025-07-22T10:49:42Z</time>
      </trkpt>
      <trkpt lat="42.93849" lon="-0.0501">
        <ele>539</ele>
        <time>2025-07-22T10:49:44Z</time>
      </trkpt>
      <trkpt lat="42.93874" lon="-0.05025">
        <ele>538</ele>
        <time>2025-07-22T10:49:47Z</time>
      </trkpt>
      <trkpt lat="42.93881" lon="-0.05031">
        <ele>537.8</ele>
        <time>2025-07-22T10:49:48Z</time>
      </trkpt>
      <trkpt lat="42.93894" lon="-0.05046">
        <ele>537.4</ele>
        <time>2025-07-22T10:49:50Z</time>
      </trkpt>
      <trkpt lat="42.93919" lon="-0.05083">
        <ele>536.8</ele>
        <time>2025-07-22T10:49:54Z</time>
      </trkpt>
      <trkpt lat="42.93924" lon="-0.05094">
        <ele>536.6</ele>
        <time>2025-07-22T10:49:55Z</time>
      </trkpt>
      <trkpt lat="42.93933" lon="-0.05117">
        <ele>536.2</ele>
        <time>2025-07-22T10:49:57Z</time>
      </trkpt>
      <trkpt lat="42.93938" lon="-0.05143">
        <ele>536</ele>
        <time>2025-07-22T10:49:59Z</time>
      </trkpt>
      <trkpt lat="42.93941" lon="-0.05156">
        <ele>535.8</ele>
        <time>2025-07-22T10:50:00Z</time>
      </trkpt>
      <trkpt lat="42.9395" lon="-0.05208">
        <ele>534.6</ele>
        <time>2025-07-22T10:50:04Z</time>
      </trkpt>
      <trkpt lat="42.93958" lon="-0.05234">
        <ele>533.6</ele>
        <time>2025-07-22T10:50:06Z</time>
      </trkpt>
      <trkpt lat="42.93972" lon="-0.05273">
        <ele>532.2</ele>
        <time>2025-07-22T10:50:09Z</time>
      </trkpt>
      <trkpt lat="42.93981" lon="-0.05298">
        <ele>531.2</ele>
        <time>2025-07-22T10:50:11Z</time>
      </trkpt>
      <trkpt lat="42.93987" lon="-0.05309">
        <ele>530.8</ele>
        <time>2025-07-22T10:50:12Z</time>
      </trkpt>
      <trkpt lat="42.93994" lon="-0.05318">
        <ele>530.4</ele>
        <time>2025-07-22T10:50:13Z</time>
      </trkpt>
      <trkpt lat="42.94012" lon="-0.05331">
        <ele>529.6</ele>
        <time>2025-07-22T10:50:15Z</time>
      </trkpt>
      <trkpt lat="42.94032" lon="-0.0533">
        <ele>529.2</ele>
        <time>2025-07-22T10:50:17Z</time>
      </trkpt>
      <trkpt lat="42.9405" lon="-0.05321">
        <ele>528.6</ele>
        <time>2025-07-22T10:50:19Z</time>
      </trkpt>
      <trkpt lat="42.94058" lon="-0.05312">
        <ele>528.2</ele>
        <time>2025-07-22T10:50:20Z</time>
      </trkpt>
      <trkpt lat="42.94082" lon="-0.05285">
        <ele>527.4</ele>
        <time>2025-07-22T10:50:23Z</time>
      </trkpt>
      <trkpt lat="42.94107" lon="-0.05259">
        <ele>527</ele>
        <time>2025-07-22T10:50:26Z</time>
      </trkpt>
      <trkpt lat="42.94124" lon="-0.05243">
        <ele>526.4</ele>
        <time>2025-07-22T10:50:28Z</time>
      </trkpt>
      <trkpt lat="42.94149" lon="-0.05224">
        <ele>525.8</ele>
        <time>2025-07-22T10:50:31Z</time>
      </trkpt>
      <trkpt lat="42.94158" lon="-0.05219">
        <ele>525.4</ele>
        <time>2025-07-22T10:50:32Z</time>
      </trkpt>
      <trkpt lat="42.94167" lon="-0.05216">
        <ele>525.2</ele>
        <time>2025-07-22T10:50:33Z</time>
      </trkpt>
      <trkpt lat="42.94175" lon="-0.05213">
        <ele>525</ele>
        <time>2025-07-22T10:50:34Z</time>
      </trkpt>
      <trkpt lat="42.94191" lon="-0.05215">
        <ele>524.8</ele>
        <time>2025-07-22T10:50:36Z</time>
      </trkpt>
      <trkpt lat="42.94198" lon="-0.05217">
        <ele>524.6</ele>
        <time>2025-07-22T10:50:37Z</time>
      </trkpt>
      <trkpt lat="42.94203" lon="-0.0522">
        <ele>524.6</ele>
        <time>2025-07-22T10:50:38Z</time>
      </trkpt>
      <trkpt lat="42.94215" lon="-0.05229">
        <ele>524.4</ele>
        <time>2025-07-22T10:50:40Z</time>
      </trkpt>
      <trkpt lat="42.94221" lon="-0.05235">
        <ele>524.4</ele>
        <time>2025-07-22T10:50:41Z</time>
      </trkpt>
      <trkpt lat="42.94256" lon="-0.05269">
        <ele>525</ele>
        <time>2025-07-22T10:50:47Z</time>
      </trkpt>
      <trkpt lat="42.94282" lon="-0.05296">
        <ele>525</ele>
        <time>2025-07-22T10:50:51Z</time>
      </trkpt>
      <trkpt lat="42.94295" lon="-0.05305">
        <ele>525</ele>
        <time>2025-07-22T10:50:53Z</time>
      </trkpt>
      <trkpt lat="42.94347" lon="-0.05334">
        <ele>524.4</ele>
        <time>2025-07-22T10:51:00Z</time>
      </trkpt>
      <trkpt lat="42.94383" lon="-0.05357">
        <ele>524</ele>
        <time>2025-07-22T10:51:05Z</time>
      </trkpt>
      <trkpt lat="42.9439" lon="-0.05364">
        <ele>523.8</ele>
        <time>2025-07-22T10:51:06Z</time>
      </trkpt>
      <trkpt lat="42.94429" lon="-0.054">
        <ele>523.8</ele>
        <time>2025-07-22T10:51:12Z</time>
      </trkpt>
      <trkpt lat="42.94474" lon="-0.0545">
        <ele>523</ele>
        <time>2025-07-22T10:51:19Z</time>
      </trkpt>
      <trkpt lat="42.9448" lon="-0.05459">
        <ele>522.8</ele>
        <time>2025-07-22T10:51:20Z</time>
      </trkpt>
      <trkpt lat="42.94512" lon="-0.05503">
        <ele>522.6</ele>
        <time>2025-07-22T10:51:25Z</time>
      </trkpt>
      <trkpt lat="42.94551" lon="-0.05552">
        <ele>521.8</ele>
        <time>2025-07-22T10:51:31Z</time>
      </trkpt>
      <trkpt lat="42.94557" lon="-0.05559">
        <ele>521.6</ele>
        <time>2025-07-22T10:51:32Z</time>
      </trkpt>
      <trkpt lat="42.94582" lon="-0.05588">
        <ele>521.4</ele>
        <time>2025-07-22T10:51:36Z</time>
      </trkpt>
      <trkpt lat="42.94595" lon="-0.05601">
        <ele>521.2</ele>
        <time>2025-07-22T10:51:38Z</time>
      </trkpt>
      <trkpt lat="42.94621" lon="-0.05627">
        <ele>520.6</ele>
        <time>2025-07-22T10:51:42Z</time>
      </trkpt>
      <trkpt lat="42.94633" lon="-0.05643">
        <ele>520.2</ele>
        <time>2025-07-22T10:51:44Z</time>
      </trkpt>
      <trkpt lat="42.94646" lon="-0.05658">
        <ele>519.6</ele>
        <time>2025-07-22T10:51:46Z</time>
      </trkpt>
      <trkpt lat="42.94671" lon="-0.05689">
        <ele>518.6</ele>
        <time>2025-07-22T10:51:50Z</time>
      </trkpt>
      <trkpt lat="42.9469" lon="-0.05731">
        <ele>518</ele>
        <time>2025-07-22T10:51:54Z</time>
      </trkpt>
      <trkpt lat="42.94702" lon="-0.05778">
        <ele>517.6</ele>
        <time>2025-07-22T10:51:58Z</time>
      </trkpt>
      <trkpt lat="42.94704" lon="-0.05792">
        <ele>517.4</ele>
        <time>2025-07-22T10:51:59Z</time>
      </trkpt>
      <trkpt lat="42.94705" lon="-0.05805">
        <ele>517.2</ele>
        <time>2025-07-22T10:52:00Z</time>
      </trkpt>
      <trkpt lat="42.94717" lon="-0.05875">
        <ele>516</ele>
        <time>2025-07-22T10:52:06Z</time>
      </trkpt>
      <trkpt lat="42.94736" lon="-0.05926">
        <ele>515.2</ele>
        <time>2025-07-22T10:52:11Z</time>
      </trkpt>
      <trkpt lat="42.94743" lon="-0.05946">
        <ele>514.6</ele>
        <time>2025-07-22T10:52:13Z</time>
      </trkpt>
      <trkpt lat="42.94751" lon="-0.05966">
        <ele>514</ele>
        <time>2025-07-22T10:52:15Z</time>
      </trkpt>
      <trkpt lat="42.94756" lon="-0.05976">
        <ele>513.6</ele>
        <time>2025-07-22T10:52:16Z</time>
      </trkpt>
      <trkpt lat="42.9476" lon="-0.05985">
        <ele>513.4</ele>
        <time>2025-07-22T10:52:17Z</time>
      </trkpt>
      <trkpt lat="42.94766" lon="-0.05993">
        <ele>513</ele>
        <time>2025-07-22T10:52:18Z</time>
      </trkpt>
      <trkpt lat="42.94783" lon="-0.06018">
        <ele>512.4</ele>
        <time>2025-07-22T10:52:21Z</time>
      </trkpt>
      <trkpt lat="42.94788" lon="-0.06026">
        <ele>512.4</ele>
        <time>2025-07-22T10:52:22Z</time>
      </trkpt>
      <trkpt lat="42.94814" lon="-0.0607">
        <ele>511.6</ele>
        <time>2025-07-22T10:52:27Z</time>
      </trkpt>
      <trkpt lat="42.94829" lon="-0.06098">
        <ele>511.2</ele>
        <time>2025-07-22T10:52:30Z</time>
      </trkpt>
      <trkpt lat="42.94848" lon="-0.06136">
        <ele>510.8</ele>
        <time>2025-07-22T10:52:34Z</time>
      </trkpt>
      <trkpt lat="42.94862" lon="-0.06166">
        <ele>510.2</ele>
        <time>2025-07-22T10:52:37Z</time>
      </trkpt>
      <trkpt lat="42.94885" lon="-0.06215">
        <ele>509.8</ele>
        <time>2025-07-22T10:52:42Z</time>
      </trkpt>
      <trkpt lat="42.9491" lon="-0.0626">
        <ele>509.2</ele>
        <time>2025-07-22T10:52:47Z</time>
      </trkpt>
      <trkpt lat="42.94925" lon="-0.06286">
        <ele>509.2</ele>
        <time>2025-07-22T10:52:50Z</time>
      </trkpt>
      <trkpt lat="42.94954" lon="-0.06337">
        <ele>508.8</ele>
        <time>2025-07-22T10:52:56Z</time>
      </trkpt>
      <trkpt lat="42.94975" lon="-0.06387">
        <ele>508.4</ele>
        <time>2025-07-22T10:53:01Z</time>
      </trkpt>
      <trkpt lat="42.94983" lon="-0.06409">
        <ele>508</ele>
        <time>2025-07-22T10:53:03Z</time>
      </trkpt>
      <trkpt lat="42.94997" lon="-0.06451">
        <ele>507</ele>
        <time>2025-07-22T10:53:07Z</time>
      </trkpt>
      <trkpt lat="42.95009" lon="-0.06509">
        <ele>506</ele>
        <time>2025-07-22T10:53:12Z</time>
      </trkpt>
      <trkpt lat="42.95012" lon="-0.0653">
        <ele>505.8</ele>
        <time>2025-07-22T10:53:14Z</time>
      </trkpt>
      <trkpt lat="42.95025" lon="-0.06587">
        <ele>504.8</ele>
        <time>2025-07-22T10:53:19Z</time>
      </trkpt>
      <trkpt lat="42.9503" lon="-0.06608">
        <ele>504.8</ele>
        <time>2025-07-22T10:53:21Z</time>
      </trkpt>
      <trkpt lat="42.95033" lon="-0.06618">
        <ele>504.6</ele>
        <time>2025-07-22T10:53:22Z</time>
      </trkpt>
      <trkpt lat="42.95045" lon="-0.06659">
        <ele>504.4</ele>
        <time>2025-07-22T10:53:26Z</time>
      </trkpt>
      <trkpt lat="42.95058" lon="-0.06709">
        <ele>504.4</ele>
        <time>2025-07-22T10:53:31Z</time>
      </trkpt>
      <trkpt lat="42.9506" lon="-0.06718">
        <ele>504.4</ele>
        <time>2025-07-22T10:53:32Z</time>
      </trkpt>
      <trkpt lat="42.95069" lon="-0.06731">
        <ele>504.4</ele>
        <time>2025-07-22T10:53:34Z</time>
      </trkpt>
      <trkpt lat="42.95074" lon="-0.06734">
        <ele>504.4</ele>
        <time>2025-07-22T10:53:35Z</time>
      </trkpt>
      <trkpt lat="42.9508" lon="-0.06734">
        <ele>504.4</ele>
        <time>2025-07-22T10:53:36Z</time>
      </trkpt>
      <trkpt lat="42.95092" lon="-0.06735">
        <ele>504.4</ele>
        <time>2025-07-22T10:53:38Z</time>
      </trkpt>
      <trkpt lat="42.95098" lon="-0.06738">
        <ele>504.2</ele>
        <time>2025-07-22T10:53:39Z</time>
      </trkpt>
      <trkpt lat="42.95103" lon="-0.06743">
        <ele>504.2</ele>
        <time>2025-07-22T10:53:40Z</time>
      </trkpt>
      <trkpt lat="42.95107" lon="-0.0676">
        <ele>504.2</ele>
        <time>2025-07-22T10:53:42Z</time>
      </trkpt>
      <trkpt lat="42.95101" lon="-0.06786">
        <ele>504</ele>
        <time>2025-07-22T10:53:45Z</time>
      </trkpt>
      <trkpt lat="42.951" lon="-0.06795">
        <ele>503.8</ele>
        <time>2025-07-22T10:53:46Z</time>
      </trkpt>
      <trkpt lat="42.95101" lon="-0.06804">
        <ele>503.6</ele>
        <time>2025-07-22T10:53:47Z</time>
      </trkpt>
      <trkpt lat="42.95103" lon="-0.06812">
        <ele>503.6</ele>
        <time>2025-07-22T10:53:48Z</time>
      </trkpt>
      <trkpt lat="42.9511" lon="-0.06827">
        <ele>503.6</ele>
        <time>2025-07-22T10:53:50Z</time>
      </trkpt>
      <trkpt lat="42.95118" lon="-0.0684">
        <ele>503.4</ele>
        <time>2025-07-22T10:53:52Z</time>
      </trkpt>
      <trkpt lat="42.95122" lon="-0.06847">
        <ele>503.4</ele>
        <time>2025-07-22T10:53:53Z</time>
      </trkpt>
      <trkpt lat="42.95138" lon="-0.06887">
        <ele>504</ele>
        <time>2025-07-22T10:53:59Z</time>
      </trkpt>
      <trkpt lat="42.95148" lon="-0.06913">
        <ele>505</ele>
        <time>2025-07-22T10:54:03Z</time>
      </trkpt>
      <trkpt lat="42.95159" lon="-0.06944">
        <ele>505.4</ele>
        <time>2025-07-22T10:54:07Z</time>
      </trkpt>
      <trkpt lat="42.95162" lon="-0.06951">
        <ele>505.6</ele>
        <time>2025-07-22T10:54:08Z</time>
      </trkpt>
      <trkpt lat="42.95171" lon="-0.06964">
        <ele>505.8</ele>
        <time>2025-07-22T10:54:10Z</time>
      </trkpt>
      <trkpt lat="42.95177" lon="-0.06969">
        <ele>505.8</ele>
        <time>2025-07-22T10:54:11Z</time>
      </trkpt>
      <trkpt lat="42.95195" lon="-0.06979">
        <ele>505.8</ele>
        <time>2025-07-22T10:54:14Z</time>
      </trkpt>
      <trkpt lat="42.95207" lon="-0.06983">
        <ele>505.8</ele>
        <time>2025-07-22T10:54:16Z</time>
      </trkpt>
      <trkpt lat="42.95214" lon="-0.06985">
        <ele>505.8</ele>
        <time>2025-07-22T10:54:17Z</time>
      </trkpt>
      <trkpt lat="42.95236" lon="-0.06987">
        <ele>505.8</ele>
        <time>2025-07-22T10:54:20Z</time>
      </trkpt>
      <trkpt lat="42.95251" lon="-0.0699">
        <ele>505.8</ele>
        <time>2025-07-22T10:54:22Z</time>
      </trkpt>
      <trkpt lat="42.95275" lon="-0.06999">
        <ele>505.4</ele>
        <time>2025-07-22T10:54:25Z</time>
      </trkpt>
      <trkpt lat="42.95306" lon="-0.07014">
        <ele>504.2</ele>
        <time>2025-07-22T10:54:29Z</time>
      </trkpt>
      <trkpt lat="42.95321" lon="-0.07022">
        <ele>503.8</ele>
        <time>2025-07-22T10:54:31Z</time>
      </trkpt>
      <trkpt lat="42.95329" lon="-0.07027">
        <ele>503.6</ele>
        <time>2025-07-22T10:54:32Z</time>
      </trkpt>
      <trkpt lat="42.95373" lon="-0.07055">
        <ele>502.8</ele>
        <time>2025-07-22T10:54:38Z</time>
      </trkpt>
      <trkpt lat="42.9538" lon="-0.07059">
        <ele>502.8</ele>
        <time>2025-07-22T10:54:39Z</time>
      </trkpt>
      <trkpt lat="42.95422" lon="-0.07087">
        <ele>503.6</ele>
        <time>2025-07-22T10:54:46Z</time>
      </trkpt>
      <trkpt lat="42.95442" lon="-0.07102">
        <ele>504.2</ele>
        <time>2025-07-22T10:54:50Z</time>
      </trkpt>
      <trkpt lat="42.95451" lon="-0.07109">
        <ele>504.6</ele>
        <time>2025-07-22T10:54:52Z</time>
      </trkpt>
      <trkpt lat="42.95469" lon="-0.07124">
        <ele>505.2</ele>
        <time>2025-07-22T10:54:56Z</time>
      </trkpt>
      <trkpt lat="42.95474" lon="-0.07128">
        <ele>505.2</ele>
        <time>2025-07-22T10:54:57Z</time>
      </trkpt>
      <trkpt lat="42.95482" lon="-0.07137">
        <ele>505.4</ele>
        <time>2025-07-22T10:54:59Z</time>
      </trkpt>
      <trkpt lat="42.95494" lon="-0.07151">
        <ele>505.8</ele>
        <time>2025-07-22T10:55:02Z</time>
      </trkpt>
      <trkpt lat="42.95509" lon="-0.07172">
        <ele>506</ele>
        <time>2025-07-22T10:55:06Z</time>
      </trkpt>
      <trkpt lat="42.95527" lon="-0.072">
        <ele>506.4</ele>
        <time>2025-07-22T10:55:11Z</time>
      </trkpt>
      <trkpt lat="42.95542" lon="-0.0722">
        <ele>506.8</ele>
        <time>2025-07-22T10:55:15Z</time>
      </trkpt>
      <trkpt lat="42.95563" lon="-0.07252">
        <ele>507.6</ele>
        <time>2025-07-22T10:55:21Z</time>
      </trkpt>
      <trkpt lat="42.95573" lon="-0.07266">
        <ele>507.8</ele>
        <time>2025-07-22T10:55:24Z</time>
      </trkpt>
      <trkpt lat="42.95594" lon="-0.07299">
        <ele>508.6</ele>
        <time>2025-07-22T10:55:31Z</time>
      </trkpt>
      <trkpt lat="42.95597" lon="-0.07304">
        <ele>508.8</ele>
        <time>2025-07-22T10:55:32Z</time>
      </trkpt>
      <trkpt lat="42.95605" lon="-0.07317">
        <ele>509.2</ele>
        <time>2025-07-22T10:55:35Z</time>
      </trkpt>
      <trkpt lat="42.95613" lon="-0.07328">
        <ele>509.6</ele>
        <time>2025-07-22T10:55:38Z</time>
      </trkpt>
      <trkpt lat="42.95622" lon="-0.0734">
        <ele>510</ele>
        <time>2025-07-22T10:55:41Z</time>
      </trkpt>
      <trkpt lat="42.95632" lon="-0.07357">
        <ele>510.6</ele>
        <time>2025-07-22T10:55:45Z</time>
      </trkpt>
      <trkpt lat="42.95637" lon="-0.07365">
        <ele>511</ele>
        <time>2025-07-22T10:55:47Z</time>
      </trkpt>
      <trkpt lat="42.95651" lon="-0.07388">
        <ele>511.8</ele>
        <time>2025-07-22T10:55:53Z</time>
      </trkpt>
      <trkpt lat="42.95653" lon="-0.07392">
        <ele>512</ele>
        <time>2025-07-22T10:55:54Z</time>
      </trkpt>
      <trkpt lat="42.95665" lon="-0.07415">
        <ele>513</ele>
        <time>2025-07-22T10:56:00Z</time>
      </trkpt>
      <trkpt lat="42.95667" lon="-0.07418">
        <ele>513.2</ele>
        <time>2025-07-22T10:56:01Z</time>
      </trkpt>
      <trkpt lat="42.95675" lon="-0.07443">
        <ele>514.4</ele>
        <time>2025-07-22T10:56:07Z</time>
      </trkpt>
      <trkpt lat="42.9568" lon="-0.0747">
        <ele>515.2</ele>
        <time>2025-07-22T10:56:13Z</time>
      </trkpt>
      <trkpt lat="42.95685" lon="-0.07487">
        <ele>515.4</ele>
        <time>2025-07-22T10:56:17Z</time>
      </trkpt>
      <trkpt lat="42.9569" lon="-0.07495">
        <ele>515.8</ele>
        <time>2025-07-22T10:56:19Z</time>
      </trkpt>
      <trkpt lat="42.95702" lon="-0.07504">
        <ele>516.8</ele>
        <time>2025-07-22T10:56:23Z</time>
      </trkpt>
      <trkpt lat="42.95706" lon="-0.07505">
        <ele>517.2</ele>
        <time>2025-07-22T10:56:24Z</time>
      </trkpt>
      <trkpt lat="42.95724" lon="-0.0751">
        <ele>517.8</ele>
        <time>2025-07-22T10:56:29Z</time>
      </trkpt>
      <trkpt lat="42.95728" lon="-0.0751">
        <ele>518</ele>
        <time>2025-07-22T10:56:30Z</time>
      </trkpt>
      <trkpt lat="42.95737" lon="-0.07509">
        <ele>518</ele>
        <time>2025-07-22T10:56:32Z</time>
      </trkpt>
      <trkpt lat="42.95753" lon="-0.07505">
        <ele>518</ele>
        <time>2025-07-22T10:56:35Z</time>
      </trkpt>
      <trkpt lat="42.95784" lon="-0.07494">
        <ele>517.2</ele>
        <time>2025-07-22T10:56:40Z</time>
      </trkpt>
      <trkpt lat="42.95797" lon="-0.07492">
        <ele>516.6</ele>
        <time>2025-07-22T10:56:42Z</time>
      </trkpt>
      <trkpt lat="42.9581" lon="-0.07486">
        <ele>515.8</ele>
        <time>2025-07-22T10:56:44Z</time>
      </trkpt>
      <trkpt lat="42.95817" lon="-0.07482">
        <ele>515.2</ele>
        <time>2025-07-22T10:56:45Z</time>
      </trkpt>
      <trkpt lat="42.95852" lon="-0.07463">
        <ele>514.2</ele>
        <time>2025-07-22T10:56:50Z</time>
      </trkpt>
      <trkpt lat="42.95873" lon="-0.07454">
        <ele>514</ele>
        <time>2025-07-22T10:56:53Z</time>
      </trkpt>
      <trkpt lat="42.95888" lon="-0.07451">
        <ele>513.4</ele>
        <time>2025-07-22T10:56:55Z</time>
      </trkpt>
      <trkpt lat="42.95894" lon="-0.07451">
        <ele>513.2</ele>
        <time>2025-07-22T10:56:56Z</time>
      </trkpt>
      <trkpt lat="42.95911" lon="-0.07447">
        <ele>512</ele>
        <time>2025-07-22T10:56:59Z</time>
      </trkpt>
      <trkpt lat="42.95917" lon="-0.07447">
        <ele>511.6</ele>
        <time>2025-07-22T10:57:00Z</time>
      </trkpt>
      <trkpt lat="42.95936" lon="-0.07445">
        <ele>511</ele>
        <time>2025-07-22T10:57:03Z</time>
      </trkpt>
      <trkpt lat="42.95943" lon="-0.07445">
        <ele>510.6</ele>
        <time>2025-07-22T10:57:04Z</time>
      </trkpt>
      <trkpt lat="42.95971" lon="-0.07448">
        <ele>509.4</ele>
        <time>2025-07-22T10:57:08Z</time>
      </trkpt>
      <trkpt lat="42.95977" lon="-0.07448">
        <ele>509.2</ele>
        <time>2025-07-22T10:57:09Z</time>
      </trkpt>
      <trkpt lat="42.95994" lon="-0.07447">
        <ele>508.4</ele>
        <time>2025-07-22T10:57:11Z</time>
      </trkpt>
      <trkpt lat="42.96026" lon="-0.07446">
        <ele>507.4</ele>
        <time>2025-07-22T10:57:15Z</time>
      </trkpt>
      <trkpt lat="42.96053" lon="-0.07446">
        <ele>506.2</ele>
        <time>2025-07-22T10:57:18Z</time>
      </trkpt>
      <trkpt lat="42.96069" lon="-0.07446">
        <ele>505.6</ele>
        <time>2025-07-22T10:57:20Z</time>
      </trkpt>
      <trkpt lat="42.9608" lon="-0.07447">
        <ele>505.2</ele>
        <time>2025-07-22T10:57:21Z</time>
      </trkpt>
      <trkpt lat="42.96106" lon="-0.07447">
        <ele>504.2</ele>
        <time>2025-07-22T10:57:24Z</time>
      </trkpt>
      <trkpt lat="42.96133" lon="-0.07448">
        <ele>503</ele>
        <time>2025-07-22T10:57:27Z</time>
      </trkpt>
      <trkpt lat="42.96168" lon="-0.07449">
        <ele>501.6</ele>
        <time>2025-07-22T10:57:31Z</time>
      </trkpt>
      <trkpt lat="42.96177" lon="-0.07449">
        <ele>501.4</ele>
        <time>2025-07-22T10:57:32Z</time>
      </trkpt>
      <trkpt lat="42.96209" lon="-0.07449">
        <ele>500.6</ele>
        <time>2025-07-22T10:57:36Z</time>
      </trkpt>
      <trkpt lat="42.96217" lon="-0.07449">
        <ele>500.6</ele>
        <time>2025-07-22T10:57:37Z</time>
      </trkpt>
      <trkpt lat="42.96258" lon="-0.07448">
        <ele>499.6</ele>
        <time>2025-07-22T10:57:42Z</time>
      </trkpt>
      <trkpt lat="42.96275" lon="-0.07448">
        <ele>499</ele>
        <time>2025-07-22T10:57:44Z</time>
      </trkpt>
      <trkpt lat="42.96306" lon="-0.07448">
        <ele>498.2</ele>
        <time>2025-07-22T10:57:48Z</time>
      </trkpt>
      <trkpt lat="42.96326" lon="-0.07448">
        <ele>497.6</ele>
        <time>2025-07-22T10:57:51Z</time>
      </trkpt>
      <trkpt lat="42.96332" lon="-0.07449">
        <ele>497</ele>
        <time>2025-07-22T10:57:52Z</time>
      </trkpt>
      <trkpt lat="42.96343" lon="-0.07454">
        <ele>496.6</ele>
        <time>2025-07-22T10:57:54Z</time>
      </trkpt>
      <trkpt lat="42.96351" lon="-0.07463">
        <ele>496</ele>
        <time>2025-07-22T10:57:56Z</time>
      </trkpt>
      <trkpt lat="42.96354" lon="-0.0747">
        <ele>495.6</ele>
        <time>2025-07-22T10:57:58Z</time>
      </trkpt>
      <trkpt lat="42.96361" lon="-0.07481">
        <ele>495.2</ele>
        <time>2025-07-22T10:58:02Z</time>
      </trkpt>
      <trkpt lat="42.96363" lon="-0.07483">
        <ele>495.2</ele>
        <time>2025-07-22T10:58:03Z</time>
      </trkpt>
      <trkpt lat="42.96366" lon="-0.07486">
        <ele>495</ele>
        <time>2025-07-22T10:58:04Z</time>
      </trkpt>
      <trkpt lat="42.96375" lon="-0.07502">
        <ele>494.8</ele>
        <time>2025-07-22T10:58:10Z</time>
      </trkpt>
      <trkpt lat="42.96378" lon="-0.07505">
        <ele>494.8</ele>
        <time>2025-07-22T10:58:12Z</time>
      </trkpt>
      <trkpt lat="42.96382" lon="-0.07506">
        <ele>494.8</ele>
        <time>2025-07-22T10:58:14Z</time>
      </trkpt>
      <trkpt lat="42.96383" lon="-0.07508">
        <ele>494.8</ele>
        <time>2025-07-22T10:58:15Z</time>
      </trkpt>
      <trkpt lat="42.96384" lon="-0.07514">
        <ele>494.8</ele>
        <time>2025-07-22T10:58:17Z</time>
      </trkpt>
      <trkpt lat="42.96385" lon="-0.07516">
        <ele>494.8</ele>
        <time>2025-07-22T10:58:18Z</time>
      </trkpt>
      <trkpt lat="42.96391" lon="-0.0752">
        <ele>494.8</ele>
        <time>2025-07-22T10:58:21Z</time>
      </trkpt>
      <trkpt lat="42.964" lon="-0.07532">
        <ele>495</ele>
        <time>2025-07-22T10:58:27Z</time>
      </trkpt>
      <trkpt lat="42.96419" lon="-0.0755">
        <ele>495</ele>
        <time>2025-07-22T10:58:36Z</time>
      </trkpt>
      <trkpt lat="42.96435" lon="-0.07562">
        <ele>495.2</ele>
        <time>2025-07-22T10:58:41Z</time>
      </trkpt>
      <trkpt lat="42.96453" lon="-0.07574">
        <ele>495.2</ele>
        <time>2025-07-22T10:58:46Z</time>
      </trkpt>
      <trkpt lat="42.96482" lon="-0.07582">
        <ele>495</ele>
        <time>2025-07-22T10:58:54Z</time>
      </trkpt>
      <trkpt lat="42.96506" lon="-0.07587">
        <ele>494.8</ele>
        <time>2025-07-22T10:59:01Z</time>
      </trkpt>
      <trkpt lat="42.96523" lon="-0.07597">
        <ele>495.2</ele>
        <time>2025-07-22T10:59:06Z</time>
      </trkpt>
      <trkpt lat="42.9654" lon="-0.07611">
        <ele>496.2</ele>
        <time>2025-07-22T10:59:12Z</time>
      </trkpt>
      <trkpt lat="42.96542" lon="-0.07612">
        <ele>496.4</ele>
        <time>2025-07-22T10:59:13Z</time>
      </trkpt>
      <trkpt lat="42.96553" lon="-0.07615">
        <ele>497.2</ele>
        <time>2025-07-22T10:59:17Z</time>
      </trkpt>
      <trkpt lat="42.96556" lon="-0.07615">
        <ele>497.4</ele>
        <time>2025-07-22T10:59:18Z</time>
      </trkpt>
      <trkpt lat="42.96568" lon="-0.07614">
        <ele>498.4</ele>
        <time>2025-07-22T10:59:23Z</time>
      </trkpt>
      <trkpt lat="42.96571" lon="-0.07613">
        <ele>498.6</ele>
        <time>2025-07-22T10:59:24Z</time>
      </trkpt>
      <trkpt lat="42.96589" lon="-0.07609">
        <ele>499.6</ele>
        <time>2025-07-22T10:59:30Z</time>
      </trkpt>
      <trkpt lat="42.96592" lon="-0.07607">
        <ele>499.6</ele>
        <time>2025-07-22T10:59:31Z</time>
      </trkpt>
      <trkpt lat="42.9661" lon="-0.07598">
        <ele>500.4</ele>
        <time>2025-07-22T10:59:38Z</time>
      </trkpt>
      <trkpt lat="42.96613" lon="-0.07597">
        <ele>500.6</ele>
        <time>2025-07-22T10:59:39Z</time>
      </trkpt>
      <trkpt lat="42.96626" lon="-0.07592">
        <ele>501.6</ele>
        <time>2025-07-22T10:59:45Z</time>
      </trkpt>
      <trkpt lat="42.96633" lon="-0.0759">
        <ele>502</ele>
        <time>2025-07-22T10:59:48Z</time>
      </trkpt>
      <trkpt lat="42.96641" lon="-0.07589">
        <ele>503.2</ele>
        <time>2025-07-22T10:59:52Z</time>
      </trkpt>
      <trkpt lat="42.96643" lon="-0.07589">
        <ele>503.4</ele>
        <time>2025-07-22T10:59:53Z</time>
      </trkpt>
      <trkpt lat="42.96651" lon="-0.07586">
        <ele>504.2</ele>
        <time>2025-07-22T10:59:57Z</time>
      </trkpt>
      <trkpt lat="42.96653" lon="-0.07585">
        <ele>504.6</ele>
        <time>2025-07-22T10:59:59Z</time>
      </trkpt>
      <trkpt lat="42.96654" lon="-0.07585">
        <ele>505.4</ele>
        <time>2025-07-22T11:00:02Z</time>
      </trkpt>
      <trkpt lat="42.96659" lon="-0.0759">
        <ele>506.4</ele>
        <time>2025-07-22T11:00:39Z</time>
      </trkpt>
      <trkpt lat="42.96661" lon="-0.07591">
        <ele>506.4</ele>
        <time>2025-07-22T11:00:40Z</time>
      </trkpt>
      <trkpt lat="42.96677" lon="-0.07599">
        <ele>507</ele>
        <time>2025-07-22T11:00:47Z</time>
      </trkpt>
      <trkpt lat="42.96682" lon="-0.07602">
        <ele>507.4</ele>
        <time>2025-07-22T11:00:49Z</time>
      </trkpt>
      <trkpt lat="42.96691" lon="-0.07606">
        <ele>508</ele>
        <time>2025-07-22T11:00:53Z</time>
      </trkpt>
      <trkpt lat="42.96708" lon="-0.07615">
        <ele>508.6</ele>
        <time>2025-07-22T11:01:00Z</time>
      </trkpt>
      <trkpt lat="42.9671" lon="-0.07617">
        <ele>508.8</ele>
        <time>2025-07-22T11:01:01Z</time>
      </trkpt>
      <trkpt lat="42.96719" lon="-0.07622">
        <ele>509.8</ele>
        <time>2025-07-22T11:01:05Z</time>
      </trkpt>
      <trkpt lat="42.9673" lon="-0.07629">
        <ele>510.8</ele>
        <time>2025-07-22T11:01:10Z</time>
      </trkpt>
      <trkpt lat="42.96732" lon="-0.0763">
        <ele>511</ele>
        <time>2025-07-22T11:01:11Z</time>
      </trkpt>
      <trkpt lat="42.96743" lon="-0.07638">
        <ele>512</ele>
        <time>2025-07-22T11:01:16Z</time>
      </trkpt>
      <trkpt lat="42.96749" lon="-0.07642">
        <ele>512.6</ele>
        <time>2025-07-22T11:01:19Z</time>
      </trkpt>
      <trkpt lat="42.96756" lon="-0.07646">
        <ele>513.2</ele>
        <time>2025-07-22T11:01:22Z</time>
      </trkpt>
      <trkpt lat="42.96765" lon="-0.07652">
        <ele>514.2</ele>
        <time>2025-07-22T11:01:26Z</time>
      </trkpt>
      <trkpt lat="42.96767" lon="-0.07654">
        <ele>514.4</ele>
        <time>2025-07-22T11:01:27Z</time>
      </trkpt>
      <trkpt lat="42.9678" lon="-0.07664">
        <ele>515.4</ele>
        <time>2025-07-22T11:01:33Z</time>
      </trkpt>
      <trkpt lat="42.96789" lon="-0.07671">
        <ele>516.2</ele>
        <time>2025-07-22T11:01:37Z</time>
      </trkpt>
      <trkpt lat="42.96792" lon="-0.07674">
        <ele>516.6</ele>
        <time>2025-07-22T11:01:39Z</time>
      </trkpt>
      <trkpt lat="42.96798" lon="-0.0768">
        <ele>517.2</ele>
        <time>2025-07-22T11:01:42Z</time>
      </trkpt>
      <trkpt lat="42.96802" lon="-0.07682">
        <ele>517.6</ele>
        <time>2025-07-22T11:01:44Z</time>
      </trkpt>
      <trkpt lat="42.96811" lon="-0.07691">
        <ele>518.8</ele>
        <time>2025-07-22T11:01:49Z</time>
      </trkpt>
      <trkpt lat="42.96815" lon="-0.07695">
        <ele>519.2</ele>
        <time>2025-07-22T11:01:51Z</time>
      </trkpt>
      <trkpt lat="42.96819" lon="-0.07701">
        <ele>519.8</ele>
        <time>2025-07-22T11:01:54Z</time>
      </trkpt>
      <trkpt lat="42.96828" lon="-0.07712">
        <ele>521</ele>
        <time>2025-07-22T11:02:00Z</time>
      </trkpt>
      <trkpt lat="42.96837" lon="-0.07722">
        <ele>522.2</ele>
        <time>2025-07-22T11:02:05Z</time>
      </trkpt>
      <trkpt lat="42.96842" lon="-0.07727">
        <ele>522.6</ele>
        <time>2025-07-22T11:02:08Z</time>
      </trkpt>
      <trkpt lat="42.96846" lon="-0.0773">
        <ele>523.4</ele>
        <time>2025-07-22T11:02:10Z</time>
      </trkpt>
      <trkpt lat="42.96857" lon="-0.07744">
        <ele>524.6</ele>
        <time>2025-07-22T11:02:16Z</time>
      </trkpt>
      <trkpt lat="42.96859" lon="-0.07746">
        <ele>524.8</ele>
        <time>2025-07-22T11:02:17Z</time>
      </trkpt>
      <trkpt lat="42.96867" lon="-0.07755">
        <ele>525.8</ele>
        <time>2025-07-22T11:02:21Z</time>
      </trkpt>
      <trkpt lat="42.96872" lon="-0.07761">
        <ele>526.6</ele>
        <time>2025-07-22T11:02:24Z</time>
      </trkpt>
      <trkpt lat="42.96876" lon="-0.07765">
        <ele>527</ele>
        <time>2025-07-22T11:02:26Z</time>
      </trkpt>
      <trkpt lat="42.96886" lon="-0.07778">
        <ele>527.8</ele>
        <time>2025-07-22T11:02:32Z</time>
      </trkpt>
      <trkpt lat="42.96888" lon="-0.07781">
        <ele>528.2</ele>
        <time>2025-07-22T11:02:33Z</time>
      </trkpt>
      <trkpt lat="42.96901" lon="-0.07796">
        <ele>529</ele>
        <time>2025-07-22T11:02:40Z</time>
      </trkpt>
      <trkpt lat="42.96903" lon="-0.07799">
        <ele>529.2</ele>
        <time>2025-07-22T11:02:41Z</time>
      </trkpt>
      <trkpt lat="42.96919" lon="-0.07816">
        <ele>529.6</ele>
        <time>2025-07-22T11:02:49Z</time>
      </trkpt>
      <trkpt lat="42.9693" lon="-0.07825">
        <ele>530.2</ele>
        <time>2025-07-22T11:02:54Z</time>
      </trkpt>
      <trkpt lat="42.96934" lon="-0.07828">
        <ele>530.4</ele>
        <time>2025-07-22T11:02:56Z</time>
      </trkpt>
      <trkpt lat="42.96948" lon="-0.07842">
        <ele>531</ele>
        <time>2025-07-22T11:03:03Z</time>
      </trkpt>
      <trkpt lat="42.96952" lon="-0.07847">
        <ele>531.2</ele>
        <time>2025-07-22T11:03:05Z</time>
      </trkpt>
      <trkpt lat="42.96964" lon="-0.07858">
        <ele>531.6</ele>
        <time>2025-07-22T11:03:10Z</time>
      </trkpt>
      <trkpt lat="42.96969" lon="-0.07862">
        <ele>531.8</ele>
        <time>2025-07-22T11:03:12Z</time>
      </trkpt>
      <trkpt lat="42.96973" lon="-0.07866">
        <ele>532.2</ele>
        <time>2025-07-22T11:03:14Z</time>
      </trkpt>
      <trkpt lat="42.96981" lon="-0.07871">
        <ele>532.4</ele>
        <time>2025-07-22T11:03:17Z</time>
      </trkpt>
      <trkpt lat="42.96988" lon="-0.07886">
        <ele>533.2</ele>
        <time>2025-07-22T11:03:22Z</time>
      </trkpt>
      <trkpt lat="42.9699" lon="-0.07889">
        <ele>533.2</ele>
        <time>2025-07-22T11:03:23Z</time>
      </trkpt>
      <trkpt lat="42.97003" lon="-0.07905">
        <ele>534.4</ele>
        <time>2025-07-22T11:03:30Z</time>
      </trkpt>
      <trkpt lat="42.97012" lon="-0.07921">
        <ele>535.2</ele>
        <time>2025-07-22T11:03:36Z</time>
      </trkpt>
      <trkpt lat="42.97015" lon="-0.07923">
        <ele>535.6</ele>
        <time>2025-07-22T11:03:37Z</time>
      </trkpt>
      <trkpt lat="42.97022" lon="-0.07934">
        <ele>536.6</ele>
        <time>2025-07-22T11:03:42Z</time>
      </trkpt>
      <trkpt lat="42.97035" lon="-0.07953">
        <ele>537.8</ele>
        <time>2025-07-22T11:03:49Z</time>
      </trkpt>
      <trkpt lat="42.97037" lon="-0.07955">
        <ele>537.8</ele>
        <time>2025-07-22T11:03:50Z</time>
      </trkpt>
      <trkpt lat="42.9704" lon="-0.07968">
        <ele>538.8</ele>
        <time>2025-07-22T11:03:54Z</time>
      </trkpt>
      <trkpt lat="42.97042" lon="-0.0797">
        <ele>539</ele>
        <time>2025-07-22T11:03:55Z</time>
      </trkpt>
      <trkpt lat="42.97047" lon="-0.07977">
        <ele>539.6</ele>
        <time>2025-07-22T11:03:58Z</time>
      </trkpt>
      <trkpt lat="42.97049" lon="-0.0798">
        <ele>539.8</ele>
        <time>2025-07-22T11:03:59Z</time>
      </trkpt>
      <trkpt lat="42.97051" lon="-0.07982">
        <ele>539.8</ele>
        <time>2025-07-22T11:04:00Z</time>
      </trkpt>
      <trkpt lat="42.97053" lon="-0.07991">
        <ele>540.8</ele>
        <time>2025-07-22T11:04:03Z</time>
      </trkpt>
      <trkpt lat="42.97055" lon="-0.07997">
        <ele>541.2</ele>
        <time>2025-07-22T11:04:05Z</time>
      </trkpt>
      <trkpt lat="42.97062" lon="-0.08003">
        <ele>542</ele>
        <time>2025-07-22T11:04:09Z</time>
      </trkpt>
      <trkpt lat="42.97065" lon="-0.08007">
        <ele>542.4</ele>
        <time>2025-07-22T11:04:11Z</time>
      </trkpt>
      <trkpt lat="42.97069" lon="-0.08018">
        <ele>543</ele>
        <time>2025-07-22T11:04:16Z</time>
      </trkpt>
      <trkpt lat="42.97071" lon="-0.08019">
        <ele>543.4</ele>
        <time>2025-07-22T11:04:17Z</time>
      </trkpt>
      <trkpt lat="42.97072" lon="-0.08021">
        <ele>543.6</ele>
        <time>2025-07-22T11:04:18Z</time>
      </trkpt>
      <trkpt lat="42.97075" lon="-0.08025">
        <ele>544</ele>
        <time>2025-07-22T11:04:20Z</time>
      </trkpt>
      <trkpt lat="42.97076" lon="-0.08027">
        <ele>544.4</ele>
        <time>2025-07-22T11:04:21Z</time>
      </trkpt>
      <trkpt lat="42.97077" lon="-0.0803">
        <ele>544.8</ele>
        <time>2025-07-22T11:04:22Z</time>
      </trkpt>
      <trkpt lat="42.97083" lon="-0.08043">
        <ele>545.6</ele>
        <time>2025-07-22T11:04:26Z</time>
      </trkpt>
      <trkpt lat="42.97085" lon="-0.08049">
        <ele>545.8</ele>
        <time>2025-07-22T11:04:28Z</time>
      </trkpt>
      <trkpt lat="42.97089" lon="-0.08066">
        <ele>546.8</ele>
        <time>2025-07-22T11:04:33Z</time>
      </trkpt>
      <trkpt lat="42.97094" lon="-0.08084">
        <ele>548</ele>
        <time>2025-07-22T11:04:38Z</time>
      </trkpt>
      <trkpt lat="42.97102" lon="-0.08105">
        <ele>548.8</ele>
        <time>2025-07-22T11:04:45Z</time>
      </trkpt>
      <trkpt lat="42.97106" lon="-0.08119">
        <ele>549.2</ele>
        <time>2025-07-22T11:04:49Z</time>
      </trkpt>
      <trkpt lat="42.9711" lon="-0.08127">
        <ele>549.2</ele>
        <time>2025-07-22T11:04:52Z</time>
      </trkpt>
      <trkpt lat="42.97116" lon="-0.08142">
        <ele>549.4</ele>
        <time>2025-07-22T11:04:57Z</time>
      </trkpt>
      <trkpt lat="42.97117" lon="-0.08144">
        <ele>549.6</ele>
        <time>2025-07-22T11:04:58Z</time>
      </trkpt>
      <trkpt lat="42.97123" lon="-0.08158">
        <ele>550</ele>
        <time>2025-07-22T11:05:03Z</time>
      </trkpt>
      <trkpt lat="42.97125" lon="-0.08161">
        <ele>550.4</ele>
        <time>2025-07-22T11:05:04Z</time>
      </trkpt>
      <trkpt lat="42.9713" lon="-0.08174">
        <ele>551.2</ele>
        <time>2025-07-22T11:05:08Z</time>
      </trkpt>
      <trkpt lat="42.97138" lon="-0.0819">
        <ele>552.2</ele>
        <time>2025-07-22T11:05:13Z</time>
      </trkpt>
      <trkpt lat="42.97141" lon="-0.08195">
        <ele>552.4</ele>
        <time>2025-07-22T11:05:15Z</time>
      </trkpt>
      <trkpt lat="42.9715" lon="-0.08208">
        <ele>553.4</ele>
        <time>2025-07-22T11:05:20Z</time>
      </trkpt>
      <trkpt lat="42.97153" lon="-0.08213">
        <ele>554</ele>
        <time>2025-07-22T11:05:22Z</time>
      </trkpt>
      <trkpt lat="42.97157" lon="-0.08218">
        <ele>554.6</ele>
        <time>2025-07-22T11:05:24Z</time>
      </trkpt>
      <trkpt lat="42.97165" lon="-0.08224">
        <ele>555</ele>
        <time>2025-07-22T11:05:28Z</time>
      </trkpt>
      <trkpt lat="42.97168" lon="-0.08227">
        <ele>555.4</ele>
        <time>2025-07-22T11:05:30Z</time>
      </trkpt>
      <trkpt lat="42.97178" lon="-0.08234">
        <ele>556.2</ele>
        <time>2025-07-22T11:05:35Z</time>
      </trkpt>
      <trkpt lat="42.97182" lon="-0.08237">
        <ele>556.6</ele>
        <time>2025-07-22T11:05:37Z</time>
      </trkpt>
      <trkpt lat="42.97184" lon="-0.0824">
        <ele>557</ele>
        <time>2025-07-22T11:05:38Z</time>
      </trkpt>
      <trkpt lat="42.97188" lon="-0.08245">
        <ele>557.4</ele>
        <time>2025-07-22T11:05:40Z</time>
      </trkpt>
      <trkpt lat="42.97192" lon="-0.08248">
        <ele>557.8</ele>
        <time>2025-07-22T11:05:42Z</time>
      </trkpt>
      <trkpt lat="42.97202" lon="-0.08254">
        <ele>558.4</ele>
        <time>2025-07-22T11:05:46Z</time>
      </trkpt>
      <trkpt lat="42.97214" lon="-0.08267">
        <ele>558.8</ele>
        <time>2025-07-22T11:05:51Z</time>
      </trkpt>
      <trkpt lat="42.97219" lon="-0.0827">
        <ele>559</ele>
        <time>2025-07-22T11:05:53Z</time>
      </trkpt>
      <trkpt lat="42.97237" lon="-0.08286">
        <ele>559.8</ele>
        <time>2025-07-22T11:06:00Z</time>
      </trkpt>
      <trkpt lat="42.9724" lon="-0.08287">
        <ele>559.8</ele>
        <time>2025-07-22T11:06:01Z</time>
      </trkpt>
      <trkpt lat="42.97261" lon="-0.08292">
        <ele>561</ele>
        <time>2025-07-22T11:06:09Z</time>
      </trkpt>
      <trkpt lat="42.97279" lon="-0.083">
        <ele>562</ele>
        <time>2025-07-22T11:06:16Z</time>
      </trkpt>
      <trkpt lat="42.97281" lon="-0.083">
        <ele>562.2</ele>
        <time>2025-07-22T11:06:17Z</time>
      </trkpt>
      <trkpt lat="42.97299" lon="-0.08304">
        <ele>562.8</ele>
        <time>2025-07-22T11:06:24Z</time>
      </trkpt>
      <trkpt lat="42.97304" lon="-0.08306">
        <ele>563.2</ele>
        <time>2025-07-22T11:06:26Z</time>
      </trkpt>
      <trkpt lat="42.97317" lon="-0.08311">
        <ele>563.8</ele>
        <time>2025-07-22T11:06:31Z</time>
      </trkpt>
      <trkpt lat="42.97327" lon="-0.08316">
        <ele>564.2</ele>
        <time>2025-07-22T11:06:35Z</time>
      </trkpt>
      <trkpt lat="42.97333" lon="-0.0832">
        <ele>564.2</ele>
        <time>2025-07-22T11:06:37Z</time>
      </trkpt>
      <trkpt lat="42.97348" lon="-0.08329">
        <ele>564.8</ele>
        <time>2025-07-22T11:06:43Z</time>
      </trkpt>
      <trkpt lat="42.97357" lon="-0.08336">
        <ele>565.2</ele>
        <time>2025-07-22T11:06:46Z</time>
      </trkpt>
      <trkpt lat="42.97365" lon="-0.08341">
        <ele>565.8</ele>
        <time>2025-07-22T11:06:49Z</time>
      </trkpt>
      <trkpt lat="42.97385" lon="-0.08352">
        <ele>566.6</ele>
        <time>2025-07-22T11:06:56Z</time>
      </trkpt>
      <trkpt lat="42.97388" lon="-0.08352">
        <ele>566.8</ele>
        <time>2025-07-22T11:06:57Z</time>
      </trkpt>
      <trkpt lat="42.9739" lon="-0.08353">
        <ele>566.8</ele>
        <time>2025-07-22T11:06:58Z</time>
      </trkpt>
      <trkpt lat="42.974" lon="-0.08358">
        <ele>567.2</ele>
        <time>2025-07-22T11:07:01Z</time>
      </trkpt>
      <trkpt lat="42.9741" lon="-0.08362">
        <ele>567.6</ele>
        <time>2025-07-22T11:07:04Z</time>
      </trkpt>
      <trkpt lat="42.97425" lon="-0.08367">
        <ele>568.4</ele>
        <time>2025-07-22T11:07:09Z</time>
      </trkpt>
      <trkpt lat="42.97435" lon="-0.08371">
        <ele>568.6</ele>
        <time>2025-07-22T11:07:12Z</time>
      </trkpt>
      <trkpt lat="42.97445" lon="-0.08382">
        <ele>569.2</ele>
        <time>2025-07-22T11:07:16Z</time>
      </trkpt>
      <trkpt lat="42.97465" lon="-0.08397">
        <ele>570</ele>
        <time>2025-07-22T11:07:23Z</time>
      </trkpt>
      <trkpt lat="42.97483" lon="-0.08413">
        <ele>570.4</ele>
        <time>2025-07-22T11:07:30Z</time>
      </trkpt>
      <trkpt lat="42.97499" lon="-0.08428">
        <ele>571</ele>
        <time>2025-07-22T11:07:36Z</time>
      </trkpt>
      <trkpt lat="42.97504" lon="-0.08432">
        <ele>571.2</ele>
        <time>2025-07-22T11:07:38Z</time>
      </trkpt>
      <trkpt lat="42.97526" lon="-0.08455">
        <ele>572</ele>
        <time>2025-07-22T11:07:46Z</time>
      </trkpt>
      <trkpt lat="42.9754" lon="-0.08467">
        <ele>572.8</ele>
        <time>2025-07-22T11:07:52Z</time>
      </trkpt>
      <trkpt lat="42.97549" lon="-0.08479">
        <ele>573.8</ele>
        <time>2025-07-22T11:07:57Z</time>
      </trkpt>
      <trkpt lat="42.97559" lon="-0.085">
        <ele>574.8</ele>
        <time>2025-07-22T11:08:05Z</time>
      </trkpt>
      <trkpt lat="42.97561" lon="-0.08502">
        <ele>574.8</ele>
        <time>2025-07-22T11:08:06Z</time>
      </trkpt>
      <trkpt lat="42.97572" lon="-0.08514">
        <ele>576</ele>
        <time>2025-07-22T11:08:11Z</time>
      </trkpt>
      <trkpt lat="42.97573" lon="-0.08516">
        <ele>576.2</ele>
        <time>2025-07-22T11:08:12Z</time>
      </trkpt>
      <trkpt lat="42.9758" lon="-0.08524">
        <ele>577</ele>
        <time>2025-07-22T11:08:16Z</time>
      </trkpt>
      <trkpt lat="42.9759" lon="-0.08534">
        <ele>577.8</ele>
        <time>2025-07-22T11:08:21Z</time>
      </trkpt>
      <trkpt lat="42.97594" lon="-0.08538">
        <ele>578.2</ele>
        <time>2025-07-22T11:08:23Z</time>
      </trkpt>
      <trkpt lat="42.97607" lon="-0.08551">
        <ele>579.2</ele>
        <time>2025-07-22T11:08:30Z</time>
      </trkpt>
      <trkpt lat="42.97609" lon="-0.08554">
        <ele>579.4</ele>
        <time>2025-07-22T11:08:31Z</time>
      </trkpt>
      <trkpt lat="42.97614" lon="-0.08562">
        <ele>580</ele>
        <time>2025-07-22T11:08:35Z</time>
      </trkpt>
      <trkpt lat="42.97617" lon="-0.08566">
        <ele>580.6</ele>
        <time>2025-07-22T11:08:37Z</time>
      </trkpt>
      <trkpt lat="42.9762" lon="-0.08579">
        <ele>581.6</ele>
        <time>2025-07-22T11:08:42Z</time>
      </trkpt>
      <trkpt lat="42.9762" lon="-0.08584">
        <ele>582.4</ele>
        <time>2025-07-22T11:08:44Z</time>
      </trkpt>
      <trkpt lat="42.97622" lon="-0.0859">
        <ele>582.8</ele>
        <time>2025-07-22T11:08:46Z</time>
      </trkpt>
      <trkpt lat="42.97625" lon="-0.08608">
        <ele>583.4</ele>
        <time>2025-07-22T11:08:51Z</time>
      </trkpt>
      <trkpt lat="42.97627" lon="-0.08631">
        <ele>583</ele>
        <time>2025-07-22T11:08:56Z</time>
      </trkpt>
      <trkpt lat="42.97624" lon="-0.08662">
        <ele>582.4</ele>
        <time>2025-07-22T11:09:01Z</time>
      </trkpt>
      <trkpt lat="42.97624" lon="-0.08677">
        <ele>582</ele>
        <time>2025-07-22T11:09:03Z</time>
      </trkpt>
      <trkpt lat="42.97628" lon="-0.08701">
        <ele>581.6</ele>
        <time>2025-07-22T11:09:06Z</time>
      </trkpt>
      <trkpt lat="42.9763" lon="-0.08718">
        <ele>580.8</ele>
        <time>2025-07-22T11:09:08Z</time>
      </trkpt>
      <trkpt lat="42.97635" lon="-0.08744">
        <ele>580.2</ele>
        <time>2025-07-22T11:09:11Z</time>
      </trkpt>
      <trkpt lat="42.97641" lon="-0.08765">
        <ele>579.8</ele>
        <time>2025-07-22T11:09:13Z</time>
      </trkpt>
      <trkpt lat="42.97651" lon="-0.08784">
        <ele>579</ele>
        <time>2025-07-22T11:09:15Z</time>
      </trkpt>
      <trkpt lat="42.97656" lon="-0.08793">
        <ele>578.6</ele>
        <time>2025-07-22T11:09:16Z</time>
      </trkpt>
      <trkpt lat="42.97669" lon="-0.0881">
        <ele>577.6</ele>
        <time>2025-07-22T11:09:18Z</time>
      </trkpt>
      <trkpt lat="42.97688" lon="-0.08834">
        <ele>576</ele>
        <time>2025-07-22T11:09:21Z</time>
      </trkpt>
      <trkpt lat="42.97701" lon="-0.0885">
        <ele>574.8</ele>
        <time>2025-07-22T11:09:23Z</time>
      </trkpt>
      <trkpt lat="42.97712" lon="-0.08866">
        <ele>573.8</ele>
        <time>2025-07-22T11:09:25Z</time>
      </trkpt>
      <trkpt lat="42.97722" lon="-0.08879">
        <ele>572.6</ele>
        <time>2025-07-22T11:09:27Z</time>
      </trkpt>
      <trkpt lat="42.97729" lon="-0.08885">
        <ele>572</ele>
        <time>2025-07-22T11:09:28Z</time>
      </trkpt>
      <trkpt lat="42.97736" lon="-0.0889">
        <ele>571.2</ele>
        <time>2025-07-22T11:09:29Z</time>
      </trkpt>
      <trkpt lat="42.97748" lon="-0.08896">
        <ele>569.6</ele>
        <time>2025-07-22T11:09:31Z</time>
      </trkpt>
      <trkpt lat="42.97754" lon="-0.08898">
        <ele>569</ele>
        <time>2025-07-22T11:09:32Z</time>
      </trkpt>
      <trkpt lat="42.97758" lon="-0.08898">
        <ele>567.8</ele>
        <time>2025-07-22T11:09:33Z</time>
      </trkpt>
      <trkpt lat="42.97764" lon="-0.08896">
        <ele>567.4</ele>
        <time>2025-07-22T11:09:34Z</time>
      </trkpt>
      <trkpt lat="42.9777" lon="-0.08893">
        <ele>566.6</ele>
        <time>2025-07-22T11:09:35Z</time>
      </trkpt>
      <trkpt lat="42.97776" lon="-0.08891">
        <ele>566.2</ele>
        <time>2025-07-22T11:09:36Z</time>
      </trkpt>
      <trkpt lat="42.97788" lon="-0.08893">
        <ele>565.2</ele>
        <time>2025-07-22T11:09:38Z</time>
      </trkpt>
      <trkpt lat="42.97802" lon="-0.08902">
        <ele>564.2</ele>
        <time>2025-07-22T11:09:40Z</time>
      </trkpt>
      <trkpt lat="42.97807" lon="-0.08908">
        <ele>564</ele>
        <time>2025-07-22T11:09:41Z</time>
      </trkpt>
      <trkpt lat="42.97812" lon="-0.08913">
        <ele>563.6</ele>
        <time>2025-07-22T11:09:42Z</time>
      </trkpt>
      <trkpt lat="42.9783" lon="-0.08936">
        <ele>562.8</ele>
        <time>2025-07-22T11:09:45Z</time>
      </trkpt>
      <trkpt lat="42.9784" lon="-0.08947">
        <ele>562.4</ele>
        <time>2025-07-22T11:09:47Z</time>
      </trkpt>
      <trkpt lat="42.97851" lon="-0.08954">
        <ele>561.6</ele>
        <time>2025-07-22T11:09:49Z</time>
      </trkpt>
      <trkpt lat="42.97862" lon="-0.08958">
        <ele>561.2</ele>
        <time>2025-07-22T11:09:51Z</time>
      </trkpt>
      <trkpt lat="42.97874" lon="-0.08962">
        <ele>560.8</ele>
        <time>2025-07-22T11:09:53Z</time>
      </trkpt>
      <trkpt lat="42.97879" lon="-0.08965">
        <ele>560.6</ele>
        <time>2025-07-22T11:09:54Z</time>
      </trkpt>
      <trkpt lat="42.97885" lon="-0.0897">
        <ele>560.6</ele>
        <time>2025-07-22T11:09:55Z</time>
      </trkpt>
      <trkpt lat="42.97902" lon="-0.08983">
        <ele>560.2</ele>
        <time>2025-07-22T11:09:58Z</time>
      </trkpt>
      <trkpt lat="42.97913" lon="-0.08994">
        <ele>559.6</ele>
        <time>2025-07-22T11:10:00Z</time>
      </trkpt>
      <trkpt lat="42.97917" lon="-0.08998">
        <ele>559.8</ele>
        <time>2025-07-22T11:10:01Z</time>
      </trkpt>
      <trkpt lat="42.97942" lon="-0.09019">
        <ele>559.4</ele>
        <time>2025-07-22T11:10:06Z</time>
      </trkpt>
      <trkpt lat="42.97949" lon="-0.09024">
        <ele>559.4</ele>
        <time>2025-07-22T11:10:08Z</time>
      </trkpt>
      <trkpt lat="42.97958" lon="-0.09033">
        <ele>559.4</ele>
        <time>2025-07-22T11:10:11Z</time>
      </trkpt>
      <trkpt lat="42.97966" lon="-0.09035">
        <ele>560.4</ele>
        <time>2025-07-22T11:10:15Z</time>
      </trkpt>
      <trkpt lat="42.97972" lon="-0.09035">
        <ele>560.8</ele>
        <time>2025-07-22T11:10:17Z</time>
      </trkpt>
      <trkpt lat="42.97986" lon="-0.09036">
        <ele>561.8</ele>
        <time>2025-07-22T11:10:22Z</time>
      </trkpt>
      <trkpt lat="42.98002" lon="-0.09041">
        <ele>562.8</ele>
        <time>2025-07-22T11:10:28Z</time>
      </trkpt>
      <trkpt lat="42.98004" lon="-0.09042">
        <ele>563.2</ele>
        <time>2025-07-22T11:10:29Z</time>
      </trkpt>
      <trkpt lat="42.98016" lon="-0.09047">
        <ele>564.4</ele>
        <time>2025-07-22T11:10:34Z</time>
      </trkpt>
      <trkpt lat="42.98019" lon="-0.09048">
        <ele>564.6</ele>
        <time>2025-07-22T11:10:35Z</time>
      </trkpt>
      <trkpt lat="42.98029" lon="-0.09049">
        <ele>565.4</ele>
        <time>2025-07-22T11:10:39Z</time>
      </trkpt>
      <trkpt lat="42.98035" lon="-0.09054">
        <ele>566</ele>
        <time>2025-07-22T11:10:42Z</time>
      </trkpt>
      <trkpt lat="42.9804" lon="-0.09065">
        <ele>566.4</ele>
        <time>2025-07-22T11:10:46Z</time>
      </trkpt>
      <trkpt lat="42.98042" lon="-0.09072">
        <ele>566.6</ele>
        <time>2025-07-22T11:10:48Z</time>
      </trkpt>
      <trkpt lat="42.98047" lon="-0.09083">
        <ele>567</ele>
        <time>2025-07-22T11:10:53Z</time>
      </trkpt>
      <trkpt lat="42.98046" lon="-0.09084">
        <ele>567</ele>
        <time>2025-07-22T11:10:54Z</time>
      </trkpt>
      <trkpt lat="42.98045" lon="-0.09086">
        <ele>567.2</ele>
        <time>2025-07-22T11:10:58Z</time>
      </trkpt>
      <trkpt lat="42.9804" lon="-0.0909">
        <ele>566.8</ele>
        <time>2025-07-22T11:12:52Z</time>
      </trkpt>
      <trkpt lat="42.98039" lon="-0.09093">
        <ele>566.8</ele>
        <time>2025-07-22T11:12:53Z</time>
      </trkpt>
      <trkpt lat="42.9803" lon="-0.09104">
        <ele>566.8</ele>
        <time>2025-07-22T11:12:57Z</time>
      </trkpt>
      <trkpt lat="42.98029" lon="-0.09107">
        <ele>566.8</ele>
        <time>2025-07-22T11:12:58Z</time>
      </trkpt>
      <trkpt lat="42.98027" lon="-0.09133">
        <ele>567.8</ele>
        <time>2025-07-22T11:13:05Z</time>
      </trkpt>
      <trkpt lat="42.98025" lon="-0.09149">
        <ele>568.2</ele>
        <time>2025-07-22T11:13:09Z</time>
      </trkpt>
      <trkpt lat="42.98024" lon="-0.09175">
        <ele>568.8</ele>
        <time>2025-07-22T11:13:16Z</time>
      </trkpt>
      <trkpt lat="42.98024" lon="-0.09189">
        <ele>569.8</ele>
        <time>2025-07-22T11:13:20Z</time>
      </trkpt>
      <trkpt lat="42.98024" lon="-0.09191">
        <ele>570</ele>
        <time>2025-07-22T11:13:21Z</time>
      </trkpt>
      <trkpt lat="42.98025" lon="-0.09205">
        <ele>570.8</ele>
        <time>2025-07-22T11:13:25Z</time>
      </trkpt>
      <trkpt lat="42.98026" lon="-0.09211">
        <ele>571</ele>
        <time>2025-07-22T11:13:27Z</time>
      </trkpt>
      <trkpt lat="42.98026" lon="-0.09214">
        <ele>571.2</ele>
        <time>2025-07-22T11:13:28Z</time>
      </trkpt>
      <trkpt lat="42.98027" lon="-0.09227">
        <ele>572</ele>
        <time>2025-07-22T11:13:32Z</time>
      </trkpt>
      <trkpt lat="42.98029" lon="-0.0924">
        <ele>572.8</ele>
        <time>2025-07-22T11:13:36Z</time>
      </trkpt>
      <trkpt lat="42.98029" lon="-0.09246">
        <ele>573.2</ele>
        <time>2025-07-22T11:13:38Z</time>
      </trkpt>
      <trkpt lat="42.98032" lon="-0.09261">
        <ele>574.2</ele>
        <time>2025-07-22T11:13:43Z</time>
      </trkpt>
      <trkpt lat="42.98033" lon="-0.09267">
        <ele>574.6</ele>
        <time>2025-07-22T11:13:45Z</time>
      </trkpt>
      <trkpt lat="42.98034" lon="-0.09273">
        <ele>575</ele>
        <time>2025-07-22T11:13:47Z</time>
      </trkpt>
      <trkpt lat="42.98036" lon="-0.09278">
        <ele>575.4</ele>
        <time>2025-07-22T11:13:49Z</time>
      </trkpt>
      <trkpt lat="42.98039" lon="-0.09287">
        <ele>576.8</ele>
        <time>2025-07-22T11:13:52Z</time>
      </trkpt>
      <trkpt lat="42.9804" lon="-0.0929">
        <ele>577</ele>
        <time>2025-07-22T11:13:53Z</time>
      </trkpt>
      <trkpt lat="42.98044" lon="-0.09298">
        <ele>578.2</ele>
        <time>2025-07-22T11:13:57Z</time>
      </trkpt>
      <trkpt lat="42.98044" lon="-0.09298">
        <ele>578.6</ele>
        <time>2025-07-22T11:13:58Z</time>
      </trkpt>
      <trkpt lat="42.98047" lon="-0.09304">
        <ele>579</ele>
        <time>2025-07-22T11:14:29Z</time>
      </trkpt>
      <trkpt lat="42.98051" lon="-0.09309">
        <ele>579.2</ele>
        <time>2025-07-22T11:14:31Z</time>
      </trkpt>
      <trkpt lat="42.98064" lon="-0.09327">
        <ele>579.6</ele>
        <time>2025-07-22T11:14:37Z</time>
      </trkpt>
      <trkpt lat="42.98066" lon="-0.09329">
        <ele>579.8</ele>
        <time>2025-07-22T11:14:38Z</time>
      </trkpt>
      <trkpt lat="42.98077" lon="-0.09346">
        <ele>580.6</ele>
        <time>2025-07-22T11:14:44Z</time>
      </trkpt>
      <trkpt lat="42.98086" lon="-0.09362">
        <ele>581.4</ele>
        <time>2025-07-22T11:14:50Z</time>
      </trkpt>
      <trkpt lat="42.98089" lon="-0.09367">
        <ele>581.8</ele>
        <time>2025-07-22T11:14:52Z</time>
      </trkpt>
      <trkpt lat="42.98096" lon="-0.09378">
        <ele>583</ele>
        <time>2025-07-22T11:14:57Z</time>
      </trkpt>
      <trkpt lat="42.98098" lon="-0.09381">
        <ele>583.2</ele>
        <time>2025-07-22T11:14:58Z</time>
      </trkpt>
      <trkpt lat="42.98108" lon="-0.09395">
        <ele>584.2</ele>
        <time>2025-07-22T11:15:04Z</time>
      </trkpt>
      <trkpt lat="42.98113" lon="-0.09401">
        <ele>584.6</ele>
        <time>2025-07-22T11:15:07Z</time>
      </trkpt>
      <trkpt lat="42.98118" lon="-0.09407">
        <ele>585.2</ele>
        <time>2025-07-22T11:15:10Z</time>
      </trkpt>
      <trkpt lat="42.98127" lon="-0.09418">
        <ele>586.2</ele>
        <time>2025-07-22T11:15:15Z</time>
      </trkpt>
      <trkpt lat="42.98128" lon="-0.09421">
        <ele>586.4</ele>
        <time>2025-07-22T11:15:16Z</time>
      </trkpt>
      <trkpt lat="42.98138" lon="-0.09435">
        <ele>587.4</ele>
        <time>2025-07-22T11:15:22Z</time>
      </trkpt>
      <trkpt lat="42.98142" lon="-0.09439">
        <ele>587.8</ele>
        <time>2025-07-22T11:15:24Z</time>
      </trkpt>
      <trkpt lat="42.9815" lon="-0.09446">
        <ele>588.4</ele>
        <time>2025-07-22T11:15:28Z</time>
      </trkpt>
      <trkpt lat="42.98155" lon="-0.09452">
        <ele>589</ele>
        <time>2025-07-22T11:15:31Z</time>
      </trkpt>
      <trkpt lat="42.98161" lon="-0.09456">
        <ele>589.6</ele>
        <time>2025-07-22T11:15:34Z</time>
      </trkpt>
      <trkpt lat="42.9817" lon="-0.09465">
        <ele>591</ele>
        <time>2025-07-22T11:15:38Z</time>
      </trkpt>
      <trkpt lat="42.98187" lon="-0.09468">
        <ele>592</ele>
        <time>2025-07-22T11:15:45Z</time>
      </trkpt>
      <trkpt lat="42.9819" lon="-0.09468">
        <ele>592</ele>
        <time>2025-07-22T11:15:46Z</time>
      </trkpt>
      <trkpt lat="42.98197" lon="-0.09469">
        <ele>592.8</ele>
        <time>2025-07-22T11:15:50Z</time>
      </trkpt>
      <trkpt lat="42.98204" lon="-0.09471">
        <ele>593.2</ele>
        <time>2025-07-22T11:15:53Z</time>
      </trkpt>
      <trkpt lat="42.98217" lon="-0.09476">
        <ele>594.2</ele>
        <time>2025-07-22T11:15:58Z</time>
      </trkpt>
      <trkpt lat="42.9822" lon="-0.09478">
        <ele>594.2</ele>
        <time>2025-07-22T11:15:59Z</time>
      </trkpt>
      <trkpt lat="42.98241" lon="-0.09492">
        <ele>595.2</ele>
        <time>2025-07-22T11:16:08Z</time>
      </trkpt>
      <trkpt lat="42.98246" lon="-0.09495">
        <ele>595.4</ele>
        <time>2025-07-22T11:16:10Z</time>
      </trkpt>
      <trkpt lat="42.98263" lon="-0.09508">
        <ele>596.4</ele>
        <time>2025-07-22T11:16:18Z</time>
      </trkpt>
      <trkpt lat="42.9828" lon="-0.09522">
        <ele>597.4</ele>
        <time>2025-07-22T11:16:26Z</time>
      </trkpt>
      <trkpt lat="42.98282" lon="-0.09523">
        <ele>597.6</ele>
        <time>2025-07-22T11:16:27Z</time>
      </trkpt>
      <trkpt lat="42.98297" lon="-0.09535">
        <ele>598.4</ele>
        <time>2025-07-22T11:16:34Z</time>
      </trkpt>
      <trkpt lat="42.98309" lon="-0.09545">
        <ele>599.6</ele>
        <time>2025-07-22T11:16:40Z</time>
      </trkpt>
      <trkpt lat="42.98312" lon="-0.09549">
        <ele>600</ele>
        <time>2025-07-22T11:16:42Z</time>
      </trkpt>
      <trkpt lat="42.9832" lon="-0.09555">
        <ele>600.8</ele>
        <time>2025-07-22T11:16:46Z</time>
      </trkpt>
      <trkpt lat="42.98329" lon="-0.09564">
        <ele>601.6</ele>
        <time>2025-07-22T11:16:51Z</time>
      </trkpt>
      <trkpt lat="42.9833" lon="-0.09567">
        <ele>601.8</ele>
        <time>2025-07-22T11:16:52Z</time>
      </trkpt>
      <trkpt lat="42.98335" lon="-0.09578">
        <ele>602.6</ele>
        <time>2025-07-22T11:16:56Z</time>
      </trkpt>
      <trkpt lat="42.98338" lon="-0.09583">
        <ele>602.8</ele>
        <time>2025-07-22T11:16:58Z</time>
      </trkpt>
      <trkpt lat="42.98341" lon="-0.09592">
        <ele>603</ele>
        <time>2025-07-22T11:17:01Z</time>
      </trkpt>
      <trkpt lat="42.98346" lon="-0.09605">
        <ele>603.6</ele>
        <time>2025-07-22T11:17:06Z</time>
      </trkpt>
      <trkpt lat="42.98349" lon="-0.09612">
        <ele>604</ele>
        <time>2025-07-22T11:17:09Z</time>
      </trkpt>
      <trkpt lat="42.98352" lon="-0.09621">
        <ele>604.6</ele>
        <time>2025-07-22T11:17:12Z</time>
      </trkpt>
      <trkpt lat="42.98355" lon="-0.09628">
        <ele>605.2</ele>
        <time>2025-07-22T11:17:15Z</time>
      </trkpt>
      <trkpt lat="42.98358" lon="-0.09635">
        <ele>605.4</ele>
        <time>2025-07-22T11:17:18Z</time>
      </trkpt>
      <trkpt lat="42.98363" lon="-0.0965">
        <ele>606.2</ele>
        <time>2025-07-22T11:17:23Z</time>
      </trkpt>
      <trkpt lat="42.98365" lon="-0.09654">
        <ele>606.6</ele>
        <time>2025-07-22T11:17:25Z</time>
      </trkpt>
      <trkpt lat="42.98371" lon="-0.09667">
        <ele>607.2</ele>
        <time>2025-07-22T11:17:30Z</time>
      </trkpt>
      <trkpt lat="42.98374" lon="-0.09675">
        <ele>607.6</ele>
        <time>2025-07-22T11:17:33Z</time>
      </trkpt>
      <trkpt lat="42.98379" lon="-0.09686">
        <ele>608.2</ele>
        <time>2025-07-22T11:17:37Z</time>
      </trkpt>
      <trkpt lat="42.98381" lon="-0.09694">
        <ele>609.2</ele>
        <time>2025-07-22T11:17:40Z</time>
      </trkpt>
      <trkpt lat="42.98384" lon="-0.09698">
        <ele>609.4</ele>
        <time>2025-07-22T11:17:42Z</time>
      </trkpt>
      <trkpt lat="42.98391" lon="-0.09716">
        <ele>610</ele>
        <time>2025-07-22T11:17:47Z</time>
      </trkpt>
      <trkpt lat="42.98395" lon="-0.09722">
        <ele>610.6</ele>
        <time>2025-07-22T11:17:49Z</time>
      </trkpt>
      <trkpt lat="42.984" lon="-0.09738">
        <ele>611.4</ele>
        <time>2025-07-22T11:17:54Z</time>
      </trkpt>
      <trkpt lat="42.98403" lon="-0.09747">
        <ele>611.6</ele>
        <time>2025-07-22T11:17:57Z</time>
      </trkpt>
      <trkpt lat="42.98408" lon="-0.09762">
        <ele>613</ele>
        <time>2025-07-22T11:18:02Z</time>
      </trkpt>
      <trkpt lat="42.9841" lon="-0.09767">
        <ele>613.2</ele>
        <time>2025-07-22T11:18:04Z</time>
      </trkpt>
      <trkpt lat="42.98414" lon="-0.09777">
        <ele>614</ele>
        <time>2025-07-22T11:18:07Z</time>
      </trkpt>
      <trkpt lat="42.98423" lon="-0.09794">
        <ele>615</ele>
        <time>2025-07-22T11:18:13Z</time>
      </trkpt>
      <trkpt lat="42.98424" lon="-0.09797">
        <ele>615.2</ele>
        <time>2025-07-22T11:18:14Z</time>
      </trkpt>
      <trkpt lat="42.9844" lon="-0.09819">
        <ele>616</ele>
        <time>2025-07-22T11:18:23Z</time>
      </trkpt>
      <trkpt lat="42.98443" lon="-0.09824">
        <ele>616.4</ele>
        <time>2025-07-22T11:18:25Z</time>
      </trkpt>
      <trkpt lat="42.98457" lon="-0.09844">
        <ele>617.4</ele>
        <time>2025-07-22T11:18:33Z</time>
      </trkpt>
      <trkpt lat="42.98459" lon="-0.09847">
        <ele>617.8</ele>
        <time>2025-07-22T11:18:34Z</time>
      </trkpt>
      <trkpt lat="42.98467" lon="-0.0987">
        <ele>618.4</ele>
        <time>2025-07-22T11:18:41Z</time>
      </trkpt>
      <trkpt lat="42.98477" lon="-0.09892">
        <ele>618.4</ele>
        <time>2025-07-22T11:18:48Z</time>
      </trkpt>
      <trkpt lat="42.98483" lon="-0.09902">
        <ele>618.4</ele>
        <time>2025-07-22T11:18:51Z</time>
      </trkpt>
      <trkpt lat="42.98498" lon="-0.09926">
        <ele>619</ele>
        <time>2025-07-22T11:18:58Z</time>
      </trkpt>
      <trkpt lat="42.98508" lon="-0.09949">
        <ele>619.4</ele>
        <time>2025-07-22T11:19:04Z</time>
      </trkpt>
      <trkpt lat="42.98515" lon="-0.09963">
        <ele>619.6</ele>
        <time>2025-07-22T11:19:08Z</time>
      </trkpt>
      <trkpt lat="42.98541" lon="-0.1001">
        <ele>620.2</ele>
        <time>2025-07-22T11:19:20Z</time>
      </trkpt>
      <trkpt lat="42.98557" lon="-0.10051">
        <ele>620.2</ele>
        <time>2025-07-22T11:19:30Z</time>
      </trkpt>
      <trkpt lat="42.98567" lon="-0.10079">
        <ele>620.6</ele>
        <time>2025-07-22T11:19:37Z</time>
      </trkpt>
      <trkpt lat="42.98568" lon="-0.10083">
        <ele>620.6</ele>
        <time>2025-07-22T11:19:38Z</time>
      </trkpt>
      <trkpt lat="42.98578" lon="-0.10112">
        <ele>621.4</ele>
        <time>2025-07-22T11:19:46Z</time>
      </trkpt>
      <trkpt lat="42.98581" lon="-0.10119">
        <ele>621.8</ele>
        <time>2025-07-22T11:19:48Z</time>
      </trkpt>
      <trkpt lat="42.98587" lon="-0.10134">
        <ele>622.6</ele>
        <time>2025-07-22T11:19:53Z</time>
      </trkpt>
      <trkpt lat="42.9859" lon="-0.1014">
        <ele>623</ele>
        <time>2025-07-22T11:19:55Z</time>
      </trkpt>
      <trkpt lat="42.98595" lon="-0.10153">
        <ele>624.2</ele>
        <time>2025-07-22T11:20:00Z</time>
      </trkpt>
      <trkpt lat="42.98596" lon="-0.10156">
        <ele>624.2</ele>
        <time>2025-07-22T11:20:01Z</time>
      </trkpt>
      <trkpt lat="42.98598" lon="-0.10164">
        <ele>625.2</ele>
        <time>2025-07-22T11:20:04Z</time>
      </trkpt>
      <trkpt lat="42.986" lon="-0.1018">
        <ele>626.4</ele>
        <time>2025-07-22T11:20:09Z</time>
      </trkpt>
      <trkpt lat="42.986" lon="-0.10183">
        <ele>626.4</ele>
        <time>2025-07-22T11:20:10Z</time>
      </trkpt>
      <trkpt lat="42.98602" lon="-0.10198">
        <ele>627.4</ele>
        <time>2025-07-22T11:20:15Z</time>
      </trkpt>
      <trkpt lat="42.98603" lon="-0.10204">
        <ele>627.8</ele>
        <time>2025-07-22T11:20:17Z</time>
      </trkpt>
      <trkpt lat="42.98605" lon="-0.10221">
        <ele>628.8</ele>
        <time>2025-07-22T11:20:23Z</time>
      </trkpt>
      <trkpt lat="42.98606" lon="-0.10232">
        <ele>629.4</ele>
        <time>2025-07-22T11:20:27Z</time>
      </trkpt>
      <trkpt lat="42.98608" lon="-0.1024">
        <ele>630</ele>
        <time>2025-07-22T11:20:30Z</time>
      </trkpt>
      <trkpt lat="42.9861" lon="-0.10255">
        <ele>630.6</ele>
        <time>2025-07-22T11:20:35Z</time>
      </trkpt>
      <trkpt lat="42.9861" lon="-0.10265">
        <ele>631</ele>
        <time>2025-07-22T11:20:38Z</time>
      </trkpt>
      <trkpt lat="42.98611" lon="-0.10274">
        <ele>631.6</ele>
        <time>2025-07-22T11:20:42Z</time>
      </trkpt>
      <trkpt lat="42.98612" lon="-0.10285">
        <ele>632</ele>
        <time>2025-07-22T11:20:45Z</time>
      </trkpt>
      <trkpt lat="42.98613" lon="-0.10293">
        <ele>632.8</ele>
        <time>2025-07-22T11:20:48Z</time>
      </trkpt>
      <trkpt lat="42.98612" lon="-0.10299">
        <ele>633.2</ele>
        <time>2025-07-22T11:20:50Z</time>
      </trkpt>
      <trkpt lat="42.98612" lon="-0.10311">
        <ele>634.4</ele>
        <time>2025-07-22T11:20:54Z</time>
      </trkpt>
      <trkpt lat="42.98612" lon="-0.10314">
        <ele>634.6</ele>
        <time>2025-07-22T11:20:55Z</time>
      </trkpt>
      <trkpt lat="42.9861" lon="-0.10327">
        <ele>635.4</ele>
        <time>2025-07-22T11:20:59Z</time>
      </trkpt>
      <trkpt lat="42.98611" lon="-0.10337">
        <ele>636</ele>
        <time>2025-07-22T11:21:02Z</time>
      </trkpt>
      <trkpt lat="42.98611" lon="-0.10344">
        <ele>636.4</ele>
        <time>2025-07-22T11:21:04Z</time>
      </trkpt>
      <trkpt lat="42.98611" lon="-0.10356">
        <ele>636.8</ele>
        <time>2025-07-22T11:21:08Z</time>
      </trkpt>
      <trkpt lat="42.98611" lon="-0.1037">
        <ele>637.4</ele>
        <time>2025-07-22T11:21:12Z</time>
      </trkpt>
      <trkpt lat="42.98611" lon="-0.10382">
        <ele>638.2</ele>
        <time>2025-07-22T11:21:16Z</time>
      </trkpt>
      <trkpt lat="42.98611" lon="-0.10388">
        <ele>638.6</ele>
        <time>2025-07-22T11:21:18Z</time>
      </trkpt>
      <trkpt lat="42.98613" lon="-0.10401">
        <ele>639.4</ele>
        <time>2025-07-22T11:21:23Z</time>
      </trkpt>
      <trkpt lat="42.98613" lon="-0.10404">
        <ele>639.6</ele>
        <time>2025-07-22T11:21:24Z</time>
      </trkpt>
      <trkpt lat="42.98616" lon="-0.10419">
        <ele>640.6</ele>
        <time>2025-07-22T11:21:29Z</time>
      </trkpt>
      <trkpt lat="42.98617" lon="-0.10422">
        <ele>640.8</ele>
        <time>2025-07-22T11:21:30Z</time>
      </trkpt>
      <trkpt lat="42.9862" lon="-0.10432">
        <ele>642</ele>
        <time>2025-07-22T11:21:34Z</time>
      </trkpt>
      <trkpt lat="42.98623" lon="-0.10442">
        <ele>642.8</ele>
        <time>2025-07-22T11:21:38Z</time>
      </trkpt>
      <trkpt lat="42.98624" lon="-0.10445">
        <ele>643</ele>
        <time>2025-07-22T11:21:39Z</time>
      </trkpt>
      <trkpt lat="42.98628" lon="-0.10454">
        <ele>644.2</ele>
        <time>2025-07-22T11:21:43Z</time>
      </trkpt>
      <trkpt lat="42.9863" lon="-0.1046">
        <ele>644.6</ele>
        <time>2025-07-22T11:21:45Z</time>
      </trkpt>
      <trkpt lat="42.98634" lon="-0.10469">
        <ele>645.4</ele>
        <time>2025-07-22T11:21:48Z</time>
      </trkpt>
      <trkpt lat="42.9864" lon="-0.10478">
        <ele>646.4</ele>
        <time>2025-07-22T11:21:52Z</time>
      </trkpt>
      <trkpt lat="42.98641" lon="-0.1048">
        <ele>646.6</ele>
        <time>2025-07-22T11:21:53Z</time>
      </trkpt>
      <trkpt lat="42.9865" lon="-0.10494">
        <ele>647.6</ele>
        <time>2025-07-22T11:21:59Z</time>
      </trkpt>
      <trkpt lat="42.98655" lon="-0.105">
        <ele>648</ele>
        <time>2025-07-22T11:22:02Z</time>
      </trkpt>
      <trkpt lat="42.98662" lon="-0.10508">
        <ele>648.6</ele>
        <time>2025-07-22T11:22:06Z</time>
      </trkpt>
      <trkpt lat="42.98671" lon="-0.10518">
        <ele>649.6</ele>
        <time>2025-07-22T11:22:11Z</time>
      </trkpt>
      <trkpt lat="42.98674" lon="-0.10523">
        <ele>650</ele>
        <time>2025-07-22T11:22:13Z</time>
      </trkpt>
      <trkpt lat="42.98686" lon="-0.10535">
        <ele>651.2</ele>
        <time>2025-07-22T11:22:19Z</time>
      </trkpt>
      <trkpt lat="42.98689" lon="-0.1054">
        <ele>651.6</ele>
        <time>2025-07-22T11:22:21Z</time>
      </trkpt>
      <trkpt lat="42.98696" lon="-0.10548">
        <ele>652.2</ele>
        <time>2025-07-22T11:22:25Z</time>
      </trkpt>
      <trkpt lat="42.98703" lon="-0.1056">
        <ele>653</ele>
        <time>2025-07-22T11:22:30Z</time>
      </trkpt>
      <trkpt lat="42.98704" lon="-0.10562">
        <ele>653.2</ele>
        <time>2025-07-22T11:22:31Z</time>
      </trkpt>
      <trkpt lat="42.98715" lon="-0.10582">
        <ele>654.2</ele>
        <time>2025-07-22T11:22:39Z</time>
      </trkpt>
      <trkpt lat="42.98716" lon="-0.10584">
        <ele>654.2</ele>
        <time>2025-07-22T11:22:40Z</time>
      </trkpt>
      <trkpt lat="42.98726" lon="-0.10602">
        <ele>655.4</ele>
        <time>2025-07-22T11:22:47Z</time>
      </trkpt>
      <trkpt lat="42.98738" lon="-0.10618">
        <ele>656.4</ele>
        <time>2025-07-22T11:22:54Z</time>
      </trkpt>
      <trkpt lat="42.9874" lon="-0.1062">
        <ele>656.4</ele>
        <time>2025-07-22T11:22:55Z</time>
      </trkpt>
      <trkpt lat="42.98749" lon="-0.10641">
        <ele>656.8</ele>
        <time>2025-07-22T11:23:02Z</time>
      </trkpt>
      <trkpt lat="42.98753" lon="-0.1067">
        <ele>656.4</ele>
        <time>2025-07-22T11:23:09Z</time>
      </trkpt>
      <trkpt lat="42.98752" lon="-0.107">
        <ele>656</ele>
        <time>2025-07-22T11:23:15Z</time>
      </trkpt>
      <trkpt lat="42.98745" lon="-0.10725">
        <ele>655.6</ele>
        <time>2025-07-22T11:23:20Z</time>
      </trkpt>
      <trkpt lat="42.98742" lon="-0.10734">
        <ele>655.2</ele>
        <time>2025-07-22T11:23:22Z</time>
      </trkpt>
      <trkpt lat="42.98731" lon="-0.10757">
        <ele>655</ele>
        <time>2025-07-22T11:23:27Z</time>
      </trkpt>
      <trkpt lat="42.98716" lon="-0.10786">
        <ele>655.6</ele>
        <time>2025-07-22T11:23:34Z</time>
      </trkpt>
      <trkpt lat="42.98693" lon="-0.10807">
        <ele>656</ele>
        <time>2025-07-22T11:23:41Z</time>
      </trkpt>
      <trkpt lat="42.98687" lon="-0.10813">
        <ele>656.2</ele>
        <time>2025-07-22T11:23:43Z</time>
      </trkpt>
      <trkpt lat="42.98672" lon="-0.10829">
        <ele>656.6</ele>
        <time>2025-07-22T11:23:48Z</time>
      </trkpt>
      <trkpt lat="42.9865" lon="-0.10859">
        <ele>657.2</ele>
        <time>2025-07-22T11:23:56Z</time>
      </trkpt>
      <trkpt lat="42.98647" lon="-0.10864">
        <ele>657.2</ele>
        <time>2025-07-22T11:23:57Z</time>
      </trkpt>
      <trkpt lat="42.98643" lon="-0.10874">
        <ele>657.2</ele>
        <time>2025-07-22T11:23:59Z</time>
      </trkpt>
      <trkpt lat="42.9864" lon="-0.1088">
        <ele>657.2</ele>
        <time>2025-07-22T11:24:00Z</time>
      </trkpt>
      <trkpt lat="42.98638" lon="-0.10885">
        <ele>657</ele>
        <time>2025-07-22T11:24:01Z</time>
      </trkpt>
      <trkpt lat="42.98635" lon="-0.10899">
        <ele>657.2</ele>
        <time>2025-07-22T11:24:04Z</time>
      </trkpt>
      <trkpt lat="42.9863" lon="-0.10921">
        <ele>657.8</ele>
        <time>2025-07-22T11:24:08Z</time>
      </trkpt>
      <trkpt lat="42.98631" lon="-0.10954">
        <ele>658.2</ele>
        <time>2025-07-22T11:24:14Z</time>
      </trkpt>
      <trkpt lat="42.98634" lon="-0.10993">
        <ele>658.4</ele>
        <time>2025-07-22T11:24:21Z</time>
      </trkpt>
      <trkpt lat="42.98636" lon="-0.11009">
        <ele>658.6</ele>
        <time>2025-07-22T11:24:24Z</time>
      </trkpt>
      <trkpt lat="42.98642" lon="-0.11047">
        <ele>659.6</ele>
        <time>2025-07-22T11:24:31Z</time>
      </trkpt>
      <trkpt lat="42.98647" lon="-0.11087">
        <ele>660.2</ele>
        <time>2025-07-22T11:24:39Z</time>
      </trkpt>
      <trkpt lat="42.98648" lon="-0.11092">
        <ele>660.8</ele>
        <time>2025-07-22T11:24:40Z</time>
      </trkpt>
      <trkpt lat="42.98651" lon="-0.11114">
        <ele>661.8</ele>
        <time>2025-07-22T11:24:44Z</time>
      </trkpt>
      <trkpt lat="42.98653" lon="-0.11134">
        <ele>662.2</ele>
        <time>2025-07-22T11:24:48Z</time>
      </trkpt>
      <trkpt lat="42.98655" lon="-0.11158">
        <ele>662.8</ele>
        <time>2025-07-22T11:24:53Z</time>
      </trkpt>
      <trkpt lat="42.98657" lon="-0.11169">
        <ele>662.8</ele>
        <time>2025-07-22T11:24:55Z</time>
      </trkpt>
      <trkpt lat="42.9866" lon="-0.11213">
        <ele>663.4</ele>
        <time>2025-07-22T11:25:04Z</time>
      </trkpt>
      <trkpt lat="42.98659" lon="-0.11238">
        <ele>663.8</ele>
        <time>2025-07-22T11:25:09Z</time>
      </trkpt>
      <trkpt lat="42.98658" lon="-0.11269">
        <ele>664.2</ele>
        <time>2025-07-22T11:25:15Z</time>
      </trkpt>
      <trkpt lat="42.98655" lon="-0.11316">
        <ele>664.6</ele>
        <time>2025-07-22T11:25:24Z</time>
      </trkpt>
      <trkpt lat="42.98653" lon="-0.11358">
        <ele>664.8</ele>
        <time>2025-07-22T11:25:31Z</time>
      </trkpt>
      <trkpt lat="42.98652" lon="-0.11364">
        <ele>664.8</ele>
        <time>2025-07-22T11:25:32Z</time>
      </trkpt>
      <trkpt lat="42.98649" lon="-0.11376">
        <ele>665</ele>
        <time>2025-07-22T11:25:34Z</time>
      </trkpt>
      <trkpt lat="42.98648" lon="-0.11381">
        <ele>665</ele>
        <time>2025-07-22T11:25:35Z</time>
      </trkpt>
      <trkpt lat="42.98647" lon="-0.11388">
        <ele>665</ele>
        <time>2025-07-22T11:25:36Z</time>
      </trkpt>
      <trkpt lat="42.98641" lon="-0.11409">
        <ele>665</ele>
        <time>2025-07-22T11:25:40Z</time>
      </trkpt>
      <trkpt lat="42.98633" lon="-0.11431">
        <ele>665.2</ele>
        <time>2025-07-22T11:25:44Z</time>
      </trkpt>
      <trkpt lat="42.98629" lon="-0.11442">
        <ele>665</ele>
        <time>2025-07-22T11:25:46Z</time>
      </trkpt>
      <trkpt lat="42.98625" lon="-0.11458">
        <ele>665.2</ele>
        <time>2025-07-22T11:25:49Z</time>
      </trkpt>
      <trkpt lat="42.98619" lon="-0.11481">
        <ele>665.4</ele>
        <time>2025-07-22T11:25:53Z</time>
      </trkpt>
      <trkpt lat="42.98608" lon="-0.11522">
        <ele>665.8</ele>
        <time>2025-07-22T11:26:00Z</time>
      </trkpt>
      <trkpt lat="42.98598" lon="-0.11545">
        <ele>666</ele>
        <time>2025-07-22T11:26:04Z</time>
      </trkpt>
      <trkpt lat="42.98592" lon="-0.11555">
        <ele>666.2</ele>
        <time>2025-07-22T11:26:06Z</time>
      </trkpt>
      <trkpt lat="42.98589" lon="-0.1156">
        <ele>666.2</ele>
        <time>2025-07-22T11:26:07Z</time>
      </trkpt>
      <trkpt lat="42.98581" lon="-0.11567">
        <ele>666.2</ele>
        <time>2025-07-22T11:26:09Z</time>
      </trkpt>
      <trkpt lat="42.98569" lon="-0.11574">
        <ele>666.6</ele>
        <time>2025-07-22T11:26:12Z</time>
      </trkpt>
      <trkpt lat="42.98545" lon="-0.11586">
        <ele>667.2</ele>
        <time>2025-07-22T11:26:19Z</time>
      </trkpt>
      <trkpt lat="42.98541" lon="-0.11589">
        <ele>667.2</ele>
        <time>2025-07-22T11:26:20Z</time>
      </trkpt>
      <trkpt lat="42.98516" lon="-0.11608">
        <ele>668.4</ele>
        <time>2025-07-22T11:26:28Z</time>
      </trkpt>
      <trkpt lat="42.98503" lon="-0.11621">
        <ele>669.4</ele>
        <time>2025-07-22T11:26:32Z</time>
      </trkpt>
      <trkpt lat="42.98493" lon="-0.11639">
        <ele>670</ele>
        <time>2025-07-22T11:26:36Z</time>
      </trkpt>
      <trkpt lat="42.98483" lon="-0.11676">
        <ele>670.4</ele>
        <time>2025-07-22T11:26:43Z</time>
      </trkpt>
      <trkpt lat="42.98477" lon="-0.11706">
        <ele>671.4</ele>
        <time>2025-07-22T11:26:50Z</time>
      </trkpt>
      <trkpt lat="42.98476" lon="-0.1171">
        <ele>671.6</ele>
        <time>2025-07-22T11:26:51Z</time>
      </trkpt>
      <trkpt lat="42.98471" lon="-0.11729">
        <ele>672.8</ele>
        <time>2025-07-22T11:26:57Z</time>
      </trkpt>
      <trkpt lat="42.9847" lon="-0.11731">
        <ele>673</ele>
        <time>2025-07-22T11:26:58Z</time>
      </trkpt>
      <trkpt lat="42.98463" lon="-0.11747">
        <ele>674</ele>
        <time>2025-07-22T11:27:04Z</time>
      </trkpt>
      <trkpt lat="42.98462" lon="-0.1175">
        <ele>674</ele>
        <time>2025-07-22T11:27:05Z</time>
      </trkpt>
      <trkpt lat="42.98455" lon="-0.11765">
        <ele>675.2</ele>
        <time>2025-07-22T11:27:11Z</time>
      </trkpt>
      <trkpt lat="42.98451" lon="-0.11772">
        <ele>675.8</ele>
        <time>2025-07-22T11:27:14Z</time>
      </trkpt>
      <trkpt lat="42.98447" lon="-0.11778">
        <ele>676.4</ele>
        <time>2025-07-22T11:27:17Z</time>
      </trkpt>
      <trkpt lat="42.98442" lon="-0.1179">
        <ele>677.4</ele>
        <time>2025-07-22T11:27:22Z</time>
      </trkpt>
      <trkpt lat="42.98437" lon="-0.11801">
        <ele>678.4</ele>
        <time>2025-07-22T11:27:27Z</time>
      </trkpt>
      <trkpt lat="42.98432" lon="-0.11809">
        <ele>678.8</ele>
        <time>2025-07-22T11:27:30Z</time>
      </trkpt>
      <trkpt lat="42.98428" lon="-0.11818">
        <ele>679.6</ele>
        <time>2025-07-22T11:27:34Z</time>
      </trkpt>
      <trkpt lat="42.98424" lon="-0.11826">
        <ele>680.6</ele>
        <time>2025-07-22T11:27:38Z</time>
      </trkpt>
      <trkpt lat="42.9842" lon="-0.11837">
        <ele>681.8</ele>
        <time>2025-07-22T11:27:43Z</time>
      </trkpt>
      <trkpt lat="42.98417" lon="-0.11843">
        <ele>682.6</ele>
        <time>2025-07-22T11:27:46Z</time>
      </trkpt>
      <trkpt lat="42.98415" lon="-0.11848">
        <ele>683.2</ele>
        <time>2025-07-22T11:27:48Z</time>
      </trkpt>
      <trkpt lat="42.9841" lon="-0.11857">
        <ele>684.4</ele>
        <time>2025-07-22T11:27:53Z</time>
      </trkpt>
      <trkpt lat="42.98409" lon="-0.11859">
        <ele>684.4</ele>
        <time>2025-07-22T11:27:54Z</time>
      </trkpt>
      <trkpt lat="42.98407" lon="-0.11865">
        <ele>685.4</ele>
        <time>2025-07-22T11:27:57Z</time>
      </trkpt>
      <trkpt lat="42.98403" lon="-0.11872">
        <ele>686.6</ele>
        <time>2025-07-22T11:28:00Z</time>
      </trkpt>
      <trkpt lat="42.98402" lon="-0.11873">
        <ele>687</ele>
        <time>2025-07-22T11:28:01Z</time>
      </trkpt>
      <trkpt lat="42.984" lon="-0.11879">
        <ele>687.8</ele>
        <time>2025-07-22T11:28:04Z</time>
      </trkpt>
      <trkpt lat="42.98397" lon="-0.11883">
        <ele>688.2</ele>
        <time>2025-07-22T11:28:06Z</time>
      </trkpt>
      <trkpt lat="42.98396" lon="-0.11885">
        <ele>688.4</ele>
        <time>2025-07-22T11:28:07Z</time>
      </trkpt>
      <trkpt lat="42.98394" lon="-0.11889">
        <ele>689.2</ele>
        <time>2025-07-22T11:28:09Z</time>
      </trkpt>
      <trkpt lat="42.98389" lon="-0.11897">
        <ele>690.2</ele>
        <time>2025-07-22T11:28:13Z</time>
      </trkpt>
      <trkpt lat="42.98388" lon="-0.11901">
        <ele>690.6</ele>
        <time>2025-07-22T11:28:15Z</time>
      </trkpt>
      <trkpt lat="42.98385" lon="-0.11907">
        <ele>691.2</ele>
        <time>2025-07-22T11:28:18Z</time>
      </trkpt>
      <trkpt lat="42.98379" lon="-0.1192">
        <ele>692.2</ele>
        <time>2025-07-22T11:28:24Z</time>
      </trkpt>
      <trkpt lat="42.9837" lon="-0.11942">
        <ele>693.2</ele>
        <time>2025-07-22T11:28:33Z</time>
      </trkpt>
      <trkpt lat="42.98369" lon="-0.11944">
        <ele>693.4</ele>
        <time>2025-07-22T11:28:34Z</time>
      </trkpt>
      <trkpt lat="42.9836" lon="-0.11963">
        <ele>694.2</ele>
        <time>2025-07-22T11:28:42Z</time>
      </trkpt>
      <trkpt lat="42.98359" lon="-0.11966">
        <ele>694.4</ele>
        <time>2025-07-22T11:28:43Z</time>
      </trkpt>
      <trkpt lat="42.98352" lon="-0.1198">
        <ele>695.2</ele>
        <time>2025-07-22T11:28:48Z</time>
      </trkpt>
      <trkpt lat="42.9835" lon="-0.11982">
        <ele>695.4</ele>
        <time>2025-07-22T11:28:49Z</time>
      </trkpt>
      <trkpt lat="42.98349" lon="-0.11985">
        <ele>695.6</ele>
        <time>2025-07-22T11:28:50Z</time>
      </trkpt>
      <trkpt lat="42.9834" lon="-0.12">
        <ele>696</ele>
        <time>2025-07-22T11:28:56Z</time>
      </trkpt>
      <trkpt lat="42.98333" lon="-0.12015">
        <ele>696.8</ele>
        <time>2025-07-22T11:29:01Z</time>
      </trkpt>
      <trkpt lat="42.98325" lon="-0.12029">
        <ele>696.8</ele>
        <time>2025-07-22T11:29:05Z</time>
      </trkpt>
      <trkpt lat="42.98308" lon="-0.12066">
        <ele>697.4</ele>
        <time>2025-07-22T11:29:13Z</time>
      </trkpt>
      <trkpt lat="42.983" lon="-0.12088">
        <ele>697.4</ele>
        <time>2025-07-22T11:29:17Z</time>
      </trkpt>
      <trkpt lat="42.98299" lon="-0.12099">
        <ele>697.4</ele>
        <time>2025-07-22T11:29:19Z</time>
      </trkpt>
      <trkpt lat="42.98297" lon="-0.12127">
        <ele>697.8</ele>
        <time>2025-07-22T11:29:24Z</time>
      </trkpt>
      <trkpt lat="42.98298" lon="-0.12143">
        <ele>698</ele>
        <time>2025-07-22T11:29:27Z</time>
      </trkpt>
      <trkpt lat="42.98303" lon="-0.12172">
        <ele>698.6</ele>
        <time>2025-07-22T11:29:33Z</time>
      </trkpt>
      <trkpt lat="42.98305" lon="-0.12179">
        <ele>698.8</ele>
        <time>2025-07-22T11:29:35Z</time>
      </trkpt>
      <trkpt lat="42.98307" lon="-0.12198">
        <ele>700</ele>
        <time>2025-07-22T11:29:40Z</time>
      </trkpt>
      <trkpt lat="42.9831" lon="-0.12229">
        <ele>701</ele>
        <time>2025-07-22T11:29:48Z</time>
      </trkpt>
      <trkpt lat="42.98311" lon="-0.12236">
        <ele>701.2</ele>
        <time>2025-07-22T11:29:50Z</time>
      </trkpt>
      <trkpt lat="42.98312" lon="-0.1225">
        <ele>702.4</ele>
        <time>2025-07-22T11:29:54Z</time>
      </trkpt>
      <trkpt lat="42.98315" lon="-0.12271">
        <ele>703.4</ele>
        <time>2025-07-22T11:30:00Z</time>
      </trkpt>
      <trkpt lat="42.98317" lon="-0.12289">
        <ele>704.4</ele>
        <time>2025-07-22T11:30:06Z</time>
      </trkpt>
      <trkpt lat="42.98318" lon="-0.12296">
        <ele>705</ele>
        <time>2025-07-22T11:30:08Z</time>
      </trkpt>
      <trkpt lat="42.98318" lon="-0.12301">
        <ele>705.6</ele>
        <time>2025-07-22T11:30:10Z</time>
      </trkpt>
      <trkpt lat="42.98319" lon="-0.1231">
        <ele>706.8</ele>
        <time>2025-07-22T11:30:13Z</time>
      </trkpt>
      <trkpt lat="42.98319" lon="-0.12322">
        <ele>707.8</ele>
        <time>2025-07-22T11:30:16Z</time>
      </trkpt>
      <trkpt lat="42.98314" lon="-0.12356">
        <ele>708.2</ele>
        <time>2025-07-22T11:30:23Z</time>
      </trkpt>
      <trkpt lat="42.98307" lon="-0.12394">
        <ele>707.6</ele>
        <time>2025-07-22T11:30:29Z</time>
      </trkpt>
      <trkpt lat="42.98307" lon="-0.124">
        <ele>707.2</ele>
        <time>2025-07-22T11:30:30Z</time>
      </trkpt>
      <trkpt lat="42.98308" lon="-0.12407">
        <ele>707.2</ele>
        <time>2025-07-22T11:30:31Z</time>
      </trkpt>
      <trkpt lat="42.98309" lon="-0.12422">
        <ele>706.8</ele>
        <time>2025-07-22T11:30:33Z</time>
      </trkpt>
      <trkpt lat="42.9831" lon="-0.12429">
        <ele>706.4</ele>
        <time>2025-07-22T11:30:34Z</time>
      </trkpt>
      <trkpt lat="42.98311" lon="-0.12436">
        <ele>706.4</ele>
        <time>2025-07-22T11:30:35Z</time>
      </trkpt>
      <trkpt lat="42.98318" lon="-0.12464">
        <ele>706.2</ele>
        <time>2025-07-22T11:30:39Z</time>
      </trkpt>
      <trkpt lat="42.98322" lon="-0.12485">
        <ele>706.2</ele>
        <time>2025-07-22T11:30:42Z</time>
      </trkpt>
      <trkpt lat="42.98324" lon="-0.12499">
        <ele>706.4</ele>
        <time>2025-07-22T11:30:44Z</time>
      </trkpt>
      <trkpt lat="42.98329" lon="-0.12524">
        <ele>706</ele>
        <time>2025-07-22T11:30:47Z</time>
      </trkpt>
      <trkpt lat="42.98329" lon="-0.12556">
        <ele>705.6</ele>
        <time>2025-07-22T11:30:50Z</time>
      </trkpt>
      <trkpt lat="42.9833" lon="-0.12569">
        <ele>705.4</ele>
        <time>2025-07-22T11:30:51Z</time>
      </trkpt>
      <trkpt lat="42.9833" lon="-0.12595">
        <ele>704.6</ele>
        <time>2025-07-22T11:30:53Z</time>
      </trkpt>
      <trkpt lat="42.98328" lon="-0.12619">
        <ele>703.6</ele>
        <time>2025-07-22T11:30:55Z</time>
      </trkpt>
      <trkpt lat="42.98326" lon="-0.12631">
        <ele>703.2</ele>
        <time>2025-07-22T11:30:56Z</time>
      </trkpt>
      <trkpt lat="42.98322" lon="-0.12642">
        <ele>702.6</ele>
        <time>2025-07-22T11:30:57Z</time>
      </trkpt>
      <trkpt lat="42.98317" lon="-0.12653">
        <ele>702.4</ele>
        <time>2025-07-22T11:30:58Z</time>
      </trkpt>
      <trkpt lat="42.98312" lon="-0.12663">
        <ele>701.8</ele>
        <time>2025-07-22T11:30:59Z</time>
      </trkpt>
      <trkpt lat="42.98297" lon="-0.12693">
        <ele>700.4</ele>
        <time>2025-07-22T11:31:02Z</time>
      </trkpt>
      <trkpt lat="42.98292" lon="-0.12704">
        <ele>700</ele>
        <time>2025-07-22T11:31:03Z</time>
      </trkpt>
      <trkpt lat="42.98284" lon="-0.12727">
        <ele>699.4</ele>
        <time>2025-07-22T11:31:05Z</time>
      </trkpt>
      <trkpt lat="42.98276" lon="-0.12764">
        <ele>698</ele>
        <time>2025-07-22T11:31:08Z</time>
      </trkpt>
      <trkpt lat="42.98268" lon="-0.12803">
        <ele>696.8</ele>
        <time>2025-07-22T11:31:11Z</time>
      </trkpt>
      <trkpt lat="42.98264" lon="-0.12829">
        <ele>695.6</ele>
        <time>2025-07-22T11:31:13Z</time>
      </trkpt>
      <trkpt lat="42.98261" lon="-0.12854">
        <ele>694.6</ele>
        <time>2025-07-22T11:31:15Z</time>
      </trkpt>
      <trkpt lat="42.98259" lon="-0.12866">
        <ele>694.4</ele>
        <time>2025-07-22T11:31:16Z</time>
      </trkpt>
      <trkpt lat="42.98254" lon="-0.12908">
        <ele>693.2</ele>
        <time>2025-07-22T11:31:20Z</time>
      </trkpt>
      <trkpt lat="42.98246" lon="-0.12951">
        <ele>692.8</ele>
        <time>2025-07-22T11:31:25Z</time>
      </trkpt>
      <trkpt lat="42.98228" lon="-0.12994">
        <ele>693.4</ele>
        <time>2025-07-22T11:31:32Z</time>
      </trkpt>
      <trkpt lat="42.98223" lon="-0.13005">
        <ele>693.8</ele>
        <time>2025-07-22T11:31:34Z</time>
      </trkpt>
      <trkpt lat="42.9822" lon="-0.13017">
        <ele>694.2</ele>
        <time>2025-07-22T11:31:36Z</time>
      </trkpt>
      <trkpt lat="42.9822" lon="-0.13023">
        <ele>694.4</ele>
        <time>2025-07-22T11:31:37Z</time>
      </trkpt>
      <trkpt lat="42.98219" lon="-0.13029">
        <ele>694.6</ele>
        <time>2025-07-22T11:31:38Z</time>
      </trkpt>
      <trkpt lat="42.98217" lon="-0.13051">
        <ele>695</ele>
        <time>2025-07-22T11:31:42Z</time>
      </trkpt>
      <trkpt lat="42.98217" lon="-0.13056">
        <ele>695.8</ele>
        <time>2025-07-22T11:31:43Z</time>
      </trkpt>
      <trkpt lat="42.98214" lon="-0.13089">
        <ele>696.8</ele>
        <time>2025-07-22T11:31:49Z</time>
      </trkpt>
      <trkpt lat="42.98214" lon="-0.131">
        <ele>697</ele>
        <time>2025-07-22T11:31:51Z</time>
      </trkpt>
      <trkpt lat="42.98212" lon="-0.13126">
        <ele>697.8</ele>
        <time>2025-07-22T11:31:56Z</time>
      </trkpt>
      <trkpt lat="42.98211" lon="-0.13131">
        <ele>698</ele>
        <time>2025-07-22T11:31:57Z</time>
      </trkpt>
      <trkpt lat="42.98203" lon="-0.13149">
        <ele>698.8</ele>
        <time>2025-07-22T11:32:02Z</time>
      </trkpt>
      <trkpt lat="42.982" lon="-0.13151">
        <ele>699</ele>
        <time>2025-07-22T11:32:03Z</time>
      </trkpt>
      <trkpt lat="42.9819" lon="-0.13155">
        <ele>700</ele>
        <time>2025-07-22T11:32:07Z</time>
      </trkpt>
      <trkpt lat="42.98187" lon="-0.13155">
        <ele>700.4</ele>
        <time>2025-07-22T11:32:08Z</time>
      </trkpt>
      <trkpt lat="42.9817" lon="-0.13156">
        <ele>701</ele>
        <time>2025-07-22T11:32:13Z</time>
      </trkpt>
      <trkpt lat="42.98158" lon="-0.13167">
        <ele>701.6</ele>
        <time>2025-07-22T11:32:17Z</time>
      </trkpt>
      <trkpt lat="42.98155" lon="-0.1317">
        <ele>701.6</ele>
        <time>2025-07-22T11:32:18Z</time>
      </trkpt>
      <trkpt lat="42.98141" lon="-0.13195">
        <ele>702.4</ele>
        <time>2025-07-22T11:32:24Z</time>
      </trkpt>
      <trkpt lat="42.98136" lon="-0.13208">
        <ele>702.4</ele>
        <time>2025-07-22T11:32:27Z</time>
      </trkpt>
      <trkpt lat="42.98131" lon="-0.13224">
        <ele>702.8</ele>
        <time>2025-07-22T11:32:30Z</time>
      </trkpt>
      <trkpt lat="42.98126" lon="-0.13236">
        <ele>703</ele>
        <time>2025-07-22T11:32:33Z</time>
      </trkpt>
      <trkpt lat="42.98112" lon="-0.13263">
        <ele>703.6</ele>
        <time>2025-07-22T11:32:39Z</time>
      </trkpt>
      <trkpt lat="42.9809" lon="-0.13299">
        <ele>704.2</ele>
        <time>2025-07-22T11:32:48Z</time>
      </trkpt>
      <trkpt lat="42.98083" lon="-0.13311">
        <ele>704.6</ele>
        <time>2025-07-22T11:32:51Z</time>
      </trkpt>
      <trkpt lat="42.98076" lon="-0.13325">
        <ele>704.8</ele>
        <time>2025-07-22T11:32:54Z</time>
      </trkpt>
      <trkpt lat="42.98075" lon="-0.13329">
        <ele>704.8</ele>
        <time>2025-07-22T11:32:55Z</time>
      </trkpt>
      <trkpt lat="42.98077" lon="-0.13345">
        <ele>705.2</ele>
        <time>2025-07-22T11:32:58Z</time>
      </trkpt>
      <trkpt lat="42.98096" lon="-0.13367">
        <ele>705.4</ele>
        <time>2025-07-22T11:33:03Z</time>
      </trkpt>
      <trkpt lat="42.98123" lon="-0.134">
        <ele>704.8</ele>
        <time>2025-07-22T11:33:09Z</time>
      </trkpt>
      <trkpt lat="42.98157" lon="-0.13451">
        <ele>703.2</ele>
        <time>2025-07-22T11:33:16Z</time>
      </trkpt>
      <trkpt lat="42.98162" lon="-0.13458">
        <ele>703.2</ele>
        <time>2025-07-22T11:33:17Z</time>
      </trkpt>
      <trkpt lat="42.98174" lon="-0.13471">
        <ele>702.8</ele>
        <time>2025-07-22T11:33:19Z</time>
      </trkpt>
      <trkpt lat="42.9818" lon="-0.13476">
        <ele>702.6</ele>
        <time>2025-07-22T11:33:20Z</time>
      </trkpt>
      <trkpt lat="42.98187" lon="-0.13482">
        <ele>702.2</ele>
        <time>2025-07-22T11:33:21Z</time>
      </trkpt>
      <trkpt lat="42.98214" lon="-0.13503">
        <ele>701.2</ele>
        <time>2025-07-22T11:33:25Z</time>
      </trkpt>
      <trkpt lat="42.9822" lon="-0.1352">
        <ele>700.8</ele>
        <time>2025-07-22T11:33:27Z</time>
      </trkpt>
      <trkpt lat="42.98217" lon="-0.13537">
        <ele>700.6</ele>
        <time>2025-07-22T11:33:29Z</time>
      </trkpt>
      <trkpt lat="42.98214" lon="-0.13543">
        <ele>700.2</ele>
        <time>2025-07-22T11:33:30Z</time>
      </trkpt>
      <trkpt lat="42.98209" lon="-0.13551">
        <ele>700</ele>
        <time>2025-07-22T11:33:31Z</time>
      </trkpt>
      <trkpt lat="42.98201" lon="-0.13567">
        <ele>699.6</ele>
        <time>2025-07-22T11:33:33Z</time>
      </trkpt>
      <trkpt lat="42.98189" lon="-0.13584">
        <ele>699</ele>
        <time>2025-07-22T11:33:35Z</time>
      </trkpt>
      <trkpt lat="42.98173" lon="-0.13607">
        <ele>698.4</ele>
        <time>2025-07-22T11:33:38Z</time>
      </trkpt>
      <trkpt lat="42.98161" lon="-0.13626">
        <ele>698</ele>
        <time>2025-07-22T11:33:40Z</time>
      </trkpt>
      <trkpt lat="42.98157" lon="-0.13633">
        <ele>697.8</ele>
        <time>2025-07-22T11:33:41Z</time>
      </trkpt>
      <trkpt lat="42.98149" lon="-0.13653">
        <ele>697.4</ele>
        <time>2025-07-22T11:33:43Z</time>
      </trkpt>
      <trkpt lat="42.9815" lon="-0.13672">
        <ele>696.8</ele>
        <time>2025-07-22T11:33:45Z</time>
      </trkpt>
      <trkpt lat="42.98151" lon="-0.13683">
        <ele>696.6</ele>
        <time>2025-07-22T11:33:46Z</time>
      </trkpt>
      <trkpt lat="42.98149" lon="-0.13702">
        <ele>696.2</ele>
        <time>2025-07-22T11:33:48Z</time>
      </trkpt>
      <trkpt lat="42.98142" lon="-0.13735">
        <ele>695.2</ele>
        <time>2025-07-22T11:33:51Z</time>
      </trkpt>
      <trkpt lat="42.98135" lon="-0.13757">
        <ele>694.2</ele>
        <time>2025-07-22T11:33:53Z</time>
      </trkpt>
      <trkpt lat="42.98129" lon="-0.1378">
        <ele>693</ele>
        <time>2025-07-22T11:33:55Z</time>
      </trkpt>
      <trkpt lat="42.98128" lon="-0.13802">
        <ele>692</ele>
        <time>2025-07-22T11:33:57Z</time>
      </trkpt>
      <trkpt lat="42.98131" lon="-0.13817">
        <ele>691.6</ele>
        <time>2025-07-22T11:33:58Z</time>
      </trkpt>
      <trkpt lat="42.98136" lon="-0.1384">
        <ele>690.6</ele>
        <time>2025-07-22T11:34:00Z</time>
      </trkpt>
      <trkpt lat="42.98138" lon="-0.13852">
        <ele>690.2</ele>
        <time>2025-07-22T11:34:01Z</time>
      </trkpt>
      <trkpt lat="42.98138" lon="-0.13877">
        <ele>689.2</ele>
        <time>2025-07-22T11:34:03Z</time>
      </trkpt>
      <trkpt lat="42.98138" lon="-0.13889">
        <ele>689</ele>
        <time>2025-07-22T11:34:04Z</time>
      </trkpt>
      <trkpt lat="42.98135" lon="-0.13926">
        <ele>687.8</ele>
        <time>2025-07-22T11:34:07Z</time>
      </trkpt>
      <trkpt lat="42.98134" lon="-0.13951">
        <ele>687.2</ele>
        <time>2025-07-22T11:34:09Z</time>
      </trkpt>
      <trkpt lat="42.98135" lon="-0.13964">
        <ele>686.6</ele>
        <time>2025-07-22T11:34:10Z</time>
      </trkpt>
      <trkpt lat="42.98141" lon="-0.14004">
        <ele>685.6</ele>
        <time>2025-07-22T11:34:13Z</time>
      </trkpt>
      <trkpt lat="42.98143" lon="-0.14018">
        <ele>685.2</ele>
        <time>2025-07-22T11:34:14Z</time>
      </trkpt>
      <trkpt lat="42.98143" lon="-0.14032">
        <ele>684.8</ele>
        <time>2025-07-22T11:34:15Z</time>
      </trkpt>
      <trkpt lat="42.98142" lon="-0.14044">
        <ele>684.2</ele>
        <time>2025-07-22T11:34:16Z</time>
      </trkpt>
      <trkpt lat="42.98142" lon="-0.14058">
        <ele>684</ele>
        <time>2025-07-22T11:34:17Z</time>
      </trkpt>
      <trkpt lat="42.98142" lon="-0.14084">
        <ele>682.2</ele>
        <time>2025-07-22T11:34:19Z</time>
      </trkpt>
      <trkpt lat="42.98143" lon="-0.14108">
        <ele>681.2</ele>
        <time>2025-07-22T11:34:21Z</time>
      </trkpt>
      <trkpt lat="42.98143" lon="-0.1412">
        <ele>681</ele>
        <time>2025-07-22T11:34:22Z</time>
      </trkpt>
      <trkpt lat="42.98138" lon="-0.14163">
        <ele>680.4</ele>
        <time>2025-07-22T11:34:26Z</time>
      </trkpt>
      <trkpt lat="42.98136" lon="-0.14183">
        <ele>680.2</ele>
        <time>2025-07-22T11:34:28Z</time>
      </trkpt>
      <trkpt lat="42.98137" lon="-0.14203">
        <ele>680.2</ele>
        <time>2025-07-22T11:34:30Z</time>
      </trkpt>
      <trkpt lat="42.98138" lon="-0.14212">
        <ele>680</ele>
        <time>2025-07-22T11:34:31Z</time>
      </trkpt>
      <trkpt lat="42.98139" lon="-0.14221">
        <ele>680</ele>
        <time>2025-07-22T11:34:32Z</time>
      </trkpt>
      <trkpt lat="42.9814" lon="-0.14239">
        <ele>679.8</ele>
        <time>2025-07-22T11:34:34Z</time>
      </trkpt>
      <trkpt lat="42.9814" lon="-0.14248">
        <ele>679.8</ele>
        <time>2025-07-22T11:34:35Z</time>
      </trkpt>
      <trkpt lat="42.98143" lon="-0.14298">
        <ele>679.4</ele>
        <time>2025-07-22T11:34:41Z</time>
      </trkpt>
      <trkpt lat="42.98142" lon="-0.14314">
        <ele>679.4</ele>
        <time>2025-07-22T11:34:43Z</time>
      </trkpt>
      <trkpt lat="42.98138" lon="-0.14328">
        <ele>679.6</ele>
        <time>2025-07-22T11:34:45Z</time>
      </trkpt>
      <trkpt lat="42.98128" lon="-0.14355">
        <ele>680</ele>
        <time>2025-07-22T11:34:49Z</time>
      </trkpt>
      <trkpt lat="42.98121" lon="-0.14365">
        <ele>680</ele>
        <time>2025-07-22T11:34:51Z</time>
      </trkpt>
      <trkpt lat="42.98111" lon="-0.14369">
        <ele>680</ele>
        <time>2025-07-22T11:34:53Z</time>
      </trkpt>
      <trkpt lat="42.98106" lon="-0.14369">
        <ele>680</ele>
        <time>2025-07-22T11:34:54Z</time>
      </trkpt>
      <trkpt lat="42.98091" lon="-0.14367">
        <ele>679.8</ele>
        <time>2025-07-22T11:34:57Z</time>
      </trkpt>
      <trkpt lat="42.98081" lon="-0.1437">
        <ele>679.8</ele>
        <time>2025-07-22T11:34:59Z</time>
      </trkpt>
      <trkpt lat="42.98073" lon="-0.14378">
        <ele>679.8</ele>
        <time>2025-07-22T11:35:01Z</time>
      </trkpt>
      <trkpt lat="42.98066" lon="-0.14388">
        <ele>680</ele>
        <time>2025-07-22T11:35:03Z</time>
      </trkpt>
      <trkpt lat="42.98048" lon="-0.14418">
        <ele>680.8</ele>
        <time>2025-07-22T11:35:09Z</time>
      </trkpt>
      <trkpt lat="42.98044" lon="-0.14429">
        <ele>681</ele>
        <time>2025-07-22T11:35:11Z</time>
      </trkpt>
      <trkpt lat="42.98041" lon="-0.14436">
        <ele>681.2</ele>
        <time>2025-07-22T11:35:12Z</time>
      </trkpt>
      <trkpt lat="42.98039" lon="-0.14442">
        <ele>681.4</ele>
        <time>2025-07-22T11:35:13Z</time>
      </trkpt>
      <trkpt lat="42.98035" lon="-0.14459">
        <ele>681.8</ele>
        <time>2025-07-22T11:35:16Z</time>
      </trkpt>
      <trkpt lat="42.98033" lon="-0.14472">
        <ele>682</ele>
        <time>2025-07-22T11:35:18Z</time>
      </trkpt>
      <trkpt lat="42.98031" lon="-0.14511">
        <ele>682.2</ele>
        <time>2025-07-22T11:35:24Z</time>
      </trkpt>
      <trkpt lat="42.98025" lon="-0.14539">
        <ele>682.2</ele>
        <time>2025-07-22T11:35:28Z</time>
      </trkpt>
      <trkpt lat="42.9802" lon="-0.14552">
        <ele>682.2</ele>
        <time>2025-07-22T11:35:30Z</time>
      </trkpt>
      <trkpt lat="42.98003" lon="-0.14599">
        <ele>683</ele>
        <time>2025-07-22T11:35:38Z</time>
      </trkpt>
      <trkpt lat="42.98001" lon="-0.14605">
        <ele>682.8</ele>
        <time>2025-07-22T11:35:39Z</time>
      </trkpt>
      <trkpt lat="42.97996" lon="-0.14628">
        <ele>683.6</ele>
        <time>2025-07-22T11:35:44Z</time>
      </trkpt>
      <trkpt lat="42.97995" lon="-0.14631">
        <ele>683.8</ele>
        <time>2025-07-22T11:35:45Z</time>
      </trkpt>
      <trkpt lat="42.97993" lon="-0.14646">
        <ele>684.8</ele>
        <time>2025-07-22T11:35:49Z</time>
      </trkpt>
      <trkpt lat="42.97992" lon="-0.14651">
        <ele>685</ele>
        <time>2025-07-22T11:35:50Z</time>
      </trkpt>
      <trkpt lat="42.97986" lon="-0.14678">
        <ele>686</ele>
        <time>2025-07-22T11:35:58Z</time>
      </trkpt>
      <trkpt lat="42.97976" lon="-0.14696">
        <ele>687</ele>
        <time>2025-07-22T11:36:04Z</time>
      </trkpt>
      <trkpt lat="42.97975" lon="-0.14698">
        <ele>687.2</ele>
        <time>2025-07-22T11:36:05Z</time>
      </trkpt>
      <trkpt lat="42.97966" lon="-0.14716">
        <ele>687.8</ele>
        <time>2025-07-22T11:36:11Z</time>
      </trkpt>
      <trkpt lat="42.97964" lon="-0.1472">
        <ele>688</ele>
        <time>2025-07-22T11:36:12Z</time>
      </trkpt>
      <trkpt lat="42.97961" lon="-0.14736">
        <ele>689</ele>
        <time>2025-07-22T11:36:17Z</time>
      </trkpt>
      <trkpt lat="42.9796" lon="-0.14742">
        <ele>689.6</ele>
        <time>2025-07-22T11:36:19Z</time>
      </trkpt>
      <trkpt lat="42.97959" lon="-0.14756">
        <ele>690</ele>
        <time>2025-07-22T11:36:23Z</time>
      </trkpt>
      <trkpt lat="42.97958" lon="-0.14769">
        <ele>690.4</ele>
        <time>2025-07-22T11:36:27Z</time>
      </trkpt>
      <trkpt lat="42.97953" lon="-0.14785">
        <ele>691.2</ele>
        <time>2025-07-22T11:36:32Z</time>
      </trkpt>
      <trkpt lat="42.97948" lon="-0.14795">
        <ele>691.6</ele>
        <time>2025-07-22T11:36:36Z</time>
      </trkpt>
      <trkpt lat="42.97944" lon="-0.14804">
        <ele>692.4</ele>
        <time>2025-07-22T11:36:39Z</time>
      </trkpt>
      <trkpt lat="42.97936" lon="-0.14815">
        <ele>693.4</ele>
        <time>2025-07-22T11:36:44Z</time>
      </trkpt>
      <trkpt lat="42.97927" lon="-0.14824">
        <ele>694.6</ele>
        <time>2025-07-22T11:36:50Z</time>
      </trkpt>
      <trkpt lat="42.97915" lon="-0.14833">
        <ele>695.6</ele>
        <time>2025-07-22T11:36:56Z</time>
      </trkpt>
      <trkpt lat="42.97908" lon="-0.14842">
        <ele>696.2</ele>
        <time>2025-07-22T11:37:00Z</time>
      </trkpt>
      <trkpt lat="42.97904" lon="-0.14845">
        <ele>696.8</ele>
        <time>2025-07-22T11:37:02Z</time>
      </trkpt>
      <trkpt lat="42.9789" lon="-0.14858">
        <ele>697.6</ele>
        <time>2025-07-22T11:37:09Z</time>
      </trkpt>
      <trkpt lat="42.97886" lon="-0.14862">
        <ele>697.8</ele>
        <time>2025-07-22T11:37:11Z</time>
      </trkpt>
      <trkpt lat="42.97874" lon="-0.14872">
        <ele>698.4</ele>
        <time>2025-07-22T11:37:17Z</time>
      </trkpt>
      <trkpt lat="42.97872" lon="-0.14874">
        <ele>698.8</ele>
        <time>2025-07-22T11:37:18Z</time>
      </trkpt>
      <trkpt lat="42.97863" lon="-0.14886">
        <ele>699.8</ele>
        <time>2025-07-22T11:37:24Z</time>
      </trkpt>
      <trkpt lat="42.97861" lon="-0.14888">
        <ele>700.2</ele>
        <time>2025-07-22T11:37:25Z</time>
      </trkpt>
      <trkpt lat="42.97856" lon="-0.14896">
        <ele>701</ele>
        <time>2025-07-22T11:37:28Z</time>
      </trkpt>
      <trkpt lat="42.97847" lon="-0.14907">
        <ele>702</ele>
        <time>2025-07-22T11:37:33Z</time>
      </trkpt>
      <trkpt lat="42.97836" lon="-0.14925">
        <ele>703</ele>
        <time>2025-07-22T11:37:40Z</time>
      </trkpt>
      <trkpt lat="42.97833" lon="-0.1493">
        <ele>703.2</ele>
        <time>2025-07-22T11:37:42Z</time>
      </trkpt>
      <trkpt lat="42.97822" lon="-0.1495">
        <ele>704</ele>
        <time>2025-07-22T11:37:49Z</time>
      </trkpt>
      <trkpt lat="42.97821" lon="-0.14953">
        <ele>704.2</ele>
        <time>2025-07-22T11:37:50Z</time>
      </trkpt>
      <trkpt lat="42.97815" lon="-0.14967">
        <ele>705</ele>
        <time>2025-07-22T11:37:55Z</time>
      </trkpt>
      <trkpt lat="42.97811" lon="-0.14977">
        <ele>705.4</ele>
        <time>2025-07-22T11:37:58Z</time>
      </trkpt>
      <trkpt lat="42.97806" lon="-0.14988">
        <ele>706.2</ele>
        <time>2025-07-22T11:38:02Z</time>
      </trkpt>
      <trkpt lat="42.97801" lon="-0.14996">
        <ele>706.6</ele>
        <time>2025-07-22T11:38:05Z</time>
      </trkpt>
      <trkpt lat="42.97794" lon="-0.15005">
        <ele>707.4</ele>
        <time>2025-07-22T11:38:09Z</time>
      </trkpt>
      <trkpt lat="42.97787" lon="-0.15014">
        <ele>707.8</ele>
        <time>2025-07-22T11:38:13Z</time>
      </trkpt>
      <trkpt lat="42.97782" lon="-0.1502">
        <ele>708.4</ele>
        <time>2025-07-22T11:38:16Z</time>
      </trkpt>
      <trkpt lat="42.97771" lon="-0.15028">
        <ele>709.2</ele>
        <time>2025-07-22T11:38:21Z</time>
      </trkpt>
      <trkpt lat="42.97767" lon="-0.15031">
        <ele>709.4</ele>
        <time>2025-07-22T11:38:23Z</time>
      </trkpt>
      <trkpt lat="42.97764" lon="-0.15033">
        <ele>709.6</ele>
        <time>2025-07-22T11:38:24Z</time>
      </trkpt>
      <trkpt lat="42.97753" lon="-0.15038">
        <ele>710.2</ele>
        <time>2025-07-22T11:38:29Z</time>
      </trkpt>
      <trkpt lat="42.97746" lon="-0.1504">
        <ele>710.4</ele>
        <time>2025-07-22T11:38:32Z</time>
      </trkpt>
      <trkpt lat="42.97732" lon="-0.15045">
        <ele>711</ele>
        <time>2025-07-22T11:38:38Z</time>
      </trkpt>
      <trkpt lat="42.97727" lon="-0.15048">
        <ele>711.4</ele>
        <time>2025-07-22T11:38:40Z</time>
      </trkpt>
      <trkpt lat="42.97713" lon="-0.15057">
        <ele>712.4</ele>
        <time>2025-07-22T11:38:47Z</time>
      </trkpt>
      <trkpt lat="42.97703" lon="-0.15069">
        <ele>713.6</ele>
        <time>2025-07-22T11:38:53Z</time>
      </trkpt>
      <trkpt lat="42.97701" lon="-0.15073">
        <ele>714</ele>
        <time>2025-07-22T11:38:55Z</time>
      </trkpt>
      <trkpt lat="42.97699" lon="-0.15075">
        <ele>714.2</ele>
        <time>2025-07-22T11:38:56Z</time>
      </trkpt>
      <trkpt lat="42.97698" lon="-0.15081">
        <ele>714.6</ele>
        <time>2025-07-22T11:38:58Z</time>
      </trkpt>
      <trkpt lat="42.97692" lon="-0.15095">
        <ele>715.8</ele>
        <time>2025-07-22T11:39:03Z</time>
      </trkpt>
      <trkpt lat="42.97686" lon="-0.15104">
        <ele>717</ele>
        <time>2025-07-22T11:39:07Z</time>
      </trkpt>
      <trkpt lat="42.97682" lon="-0.15112">
        <ele>717</ele>
        <time>2025-07-22T11:39:10Z</time>
      </trkpt>
      <trkpt lat="42.97673" lon="-0.15122">
        <ele>717.8</ele>
        <time>2025-07-22T11:39:15Z</time>
      </trkpt>
      <trkpt lat="42.97669" lon="-0.15126">
        <ele>718.4</ele>
        <time>2025-07-22T11:39:17Z</time>
      </trkpt>
      <trkpt lat="42.97665" lon="-0.15128">
        <ele>718.8</ele>
        <time>2025-07-22T11:39:19Z</time>
      </trkpt>
      <trkpt lat="42.97655" lon="-0.15134">
        <ele>720</ele>
        <time>2025-07-22T11:39:24Z</time>
      </trkpt>
      <trkpt lat="42.97649" lon="-0.15137">
        <ele>720.6</ele>
        <time>2025-07-22T11:39:27Z</time>
      </trkpt>
      <trkpt lat="42.97643" lon="-0.15141">
        <ele>721.2</ele>
        <time>2025-07-22T11:39:30Z</time>
      </trkpt>
      <trkpt lat="42.9763" lon="-0.1515">
        <ele>722.2</ele>
        <time>2025-07-22T11:39:37Z</time>
      </trkpt>
      <trkpt lat="42.97628" lon="-0.15151">
        <ele>722.2</ele>
        <time>2025-07-22T11:39:38Z</time>
      </trkpt>
      <trkpt lat="42.9762" lon="-0.15156">
        <ele>723.6</ele>
        <time>2025-07-22T11:39:42Z</time>
      </trkpt>
      <trkpt lat="42.97608" lon="-0.15163">
        <ele>724.8</ele>
        <time>2025-07-22T11:39:48Z</time>
      </trkpt>
      <trkpt lat="42.97606" lon="-0.15165">
        <ele>725</ele>
        <time>2025-07-22T11:39:49Z</time>
      </trkpt>
      <trkpt lat="42.97596" lon="-0.1517">
        <ele>726</ele>
        <time>2025-07-22T11:39:54Z</time>
      </trkpt>
      <trkpt lat="42.97589" lon="-0.15174">
        <ele>726.8</ele>
        <time>2025-07-22T11:39:58Z</time>
      </trkpt>
      <trkpt lat="42.97586" lon="-0.15175">
        <ele>726.8</ele>
        <time>2025-07-22T11:39:59Z</time>
      </trkpt>
      <trkpt lat="42.9758" lon="-0.15178">
        <ele>727.4</ele>
        <time>2025-07-22T11:40:02Z</time>
      </trkpt>
      <trkpt lat="42.97571" lon="-0.15182">
        <ele>728.4</ele>
        <time>2025-07-22T11:40:07Z</time>
      </trkpt>
      <trkpt lat="42.97569" lon="-0.15183">
        <ele>728.6</ele>
        <time>2025-07-22T11:40:08Z</time>
      </trkpt>
      <trkpt lat="42.97554" lon="-0.15187">
        <ele>729.6</ele>
        <time>2025-07-22T11:40:15Z</time>
      </trkpt>
      <trkpt lat="42.97544" lon="-0.1519">
        <ele>730.8</ele>
        <time>2025-07-22T11:40:20Z</time>
      </trkpt>
      <trkpt lat="42.97538" lon="-0.15192">
        <ele>731.2</ele>
        <time>2025-07-22T11:40:23Z</time>
      </trkpt>
      <trkpt lat="42.97529" lon="-0.15195">
        <ele>731.8</ele>
        <time>2025-07-22T11:40:28Z</time>
      </trkpt>
      <trkpt lat="42.97523" lon="-0.15198">
        <ele>732.4</ele>
        <time>2025-07-22T11:40:31Z</time>
      </trkpt>
      <trkpt lat="42.97521" lon="-0.15199">
        <ele>732.6</ele>
        <time>2025-07-22T11:40:32Z</time>
      </trkpt>
      <trkpt lat="42.97518" lon="-0.15201">
        <ele>733</ele>
        <time>2025-07-22T11:40:34Z</time>
      </trkpt>
      <trkpt lat="42.97509" lon="-0.15205">
        <ele>734.2</ele>
        <time>2025-07-22T11:40:39Z</time>
      </trkpt>
      <trkpt lat="42.97507" lon="-0.15206">
        <ele>734.4</ele>
        <time>2025-07-22T11:40:40Z</time>
      </trkpt>
      <trkpt lat="42.97501" lon="-0.15209">
        <ele>735.6</ele>
        <time>2025-07-22T11:40:43Z</time>
      </trkpt>
      <trkpt lat="42.97493" lon="-0.15213">
        <ele>736.2</ele>
        <time>2025-07-22T11:40:47Z</time>
      </trkpt>
      <trkpt lat="42.97488" lon="-0.15215">
        <ele>736.4</ele>
        <time>2025-07-22T11:40:50Z</time>
      </trkpt>
      <trkpt lat="42.97478" lon="-0.15218">
        <ele>737.2</ele>
        <time>2025-07-22T11:40:55Z</time>
      </trkpt>
      <trkpt lat="42.97476" lon="-0.15218">
        <ele>737.4</ele>
        <time>2025-07-22T11:40:56Z</time>
      </trkpt>
      <trkpt lat="42.97465" lon="-0.15219">
        <ele>738.6</ele>
        <time>2025-07-22T11:41:02Z</time>
      </trkpt>
      <trkpt lat="42.97462" lon="-0.1522">
        <ele>738.6</ele>
        <time>2025-07-22T11:41:03Z</time>
      </trkpt>
      <trkpt lat="42.97454" lon="-0.1522">
        <ele>739.6</ele>
        <time>2025-07-22T11:41:07Z</time>
      </trkpt>
      <trkpt lat="42.9745" lon="-0.15221">
        <ele>740</ele>
        <time>2025-07-22T11:41:09Z</time>
      </trkpt>
      <trkpt lat="42.97444" lon="-0.15223">
        <ele>740.4</ele>
        <time>2025-07-22T11:41:12Z</time>
      </trkpt>
      <trkpt lat="42.97442" lon="-0.15224">
        <ele>740.6</ele>
        <time>2025-07-22T11:41:13Z</time>
      </trkpt>
      <trkpt lat="42.97429" lon="-0.15229">
        <ele>741.6</ele>
        <time>2025-07-22T11:41:20Z</time>
      </trkpt>
      <trkpt lat="42.97427" lon="-0.15231">
        <ele>742</ele>
        <time>2025-07-22T11:41:21Z</time>
      </trkpt>
      <trkpt lat="42.9742" lon="-0.15233">
        <ele>742.8</ele>
        <time>2025-07-22T11:41:25Z</time>
      </trkpt>
      <trkpt lat="42.97414" lon="-0.15236">
        <ele>743.2</ele>
        <time>2025-07-22T11:41:28Z</time>
      </trkpt>
      <trkpt lat="42.97408" lon="-0.15239">
        <ele>744</ele>
        <time>2025-07-22T11:41:31Z</time>
      </trkpt>
      <trkpt lat="42.97395" lon="-0.15244">
        <ele>744.6</ele>
        <time>2025-07-22T11:41:37Z</time>
      </trkpt>
      <trkpt lat="42.97393" lon="-0.15244">
        <ele>744.8</ele>
        <time>2025-07-22T11:41:38Z</time>
      </trkpt>
      <trkpt lat="42.97381" lon="-0.15248">
        <ele>745.6</ele>
        <time>2025-07-22T11:41:44Z</time>
      </trkpt>
      <trkpt lat="42.97377" lon="-0.1525">
        <ele>746</ele>
        <time>2025-07-22T11:41:46Z</time>
      </trkpt>
      <trkpt lat="42.97363" lon="-0.15252">
        <ele>746.8</ele>
        <time>2025-07-22T11:41:54Z</time>
      </trkpt>
      <trkpt lat="42.97361" lon="-0.15253">
        <ele>747</ele>
        <time>2025-07-22T11:41:55Z</time>
      </trkpt>
      <trkpt lat="42.97349" lon="-0.15259">
        <ele>748</ele>
        <time>2025-07-22T11:42:01Z</time>
      </trkpt>
      <trkpt lat="42.97345" lon="-0.1526">
        <ele>748.4</ele>
        <time>2025-07-22T11:42:03Z</time>
      </trkpt>
      <trkpt lat="42.97337" lon="-0.15264">
        <ele>749</ele>
        <time>2025-07-22T11:42:07Z</time>
      </trkpt>
      <trkpt lat="42.97326" lon="-0.15272">
        <ele>749.4</ele>
        <time>2025-07-22T11:42:13Z</time>
      </trkpt>
      <trkpt lat="42.97316" lon="-0.15279">
        <ele>750</ele>
        <time>2025-07-22T11:42:18Z</time>
      </trkpt>
      <trkpt lat="42.97309" lon="-0.15285">
        <ele>750.6</ele>
        <time>2025-07-22T11:42:22Z</time>
      </trkpt>
      <trkpt lat="42.97303" lon="-0.15289">
        <ele>751.2</ele>
        <time>2025-07-22T11:42:25Z</time>
      </trkpt>
      <trkpt lat="42.97293" lon="-0.15296">
        <ele>752.4</ele>
        <time>2025-07-22T11:42:30Z</time>
      </trkpt>
      <trkpt lat="42.97287" lon="-0.15299">
        <ele>752.8</ele>
        <time>2025-07-22T11:42:33Z</time>
      </trkpt>
      <trkpt lat="42.97281" lon="-0.15302">
        <ele>753.8</ele>
        <time>2025-07-22T11:42:36Z</time>
      </trkpt>
      <trkpt lat="42.97272" lon="-0.15305">
        <ele>754.2</ele>
        <time>2025-07-22T11:42:40Z</time>
      </trkpt>
      <trkpt lat="42.97267" lon="-0.15307">
        <ele>754.6</ele>
        <time>2025-07-22T11:42:42Z</time>
      </trkpt>
      <trkpt lat="42.97255" lon="-0.1531">
        <ele>755.6</ele>
        <time>2025-07-22T11:42:48Z</time>
      </trkpt>
      <trkpt lat="42.9725" lon="-0.15311">
        <ele>756</ele>
        <time>2025-07-22T11:42:50Z</time>
      </trkpt>
      <trkpt lat="42.97246" lon="-0.15312">
        <ele>756.4</ele>
        <time>2025-07-22T11:42:52Z</time>
      </trkpt>
      <trkpt lat="42.97242" lon="-0.15312">
        <ele>756.6</ele>
        <time>2025-07-22T11:42:54Z</time>
      </trkpt>
      <trkpt lat="42.97226" lon="-0.15317">
        <ele>757.6</ele>
        <time>2025-07-22T11:43:02Z</time>
      </trkpt>
      <trkpt lat="42.97223" lon="-0.15317">
        <ele>757.6</ele>
        <time>2025-07-22T11:43:03Z</time>
      </trkpt>
      <trkpt lat="42.97214" lon="-0.1532">
        <ele>758.6</ele>
        <time>2025-07-22T11:43:08Z</time>
      </trkpt>
      <trkpt lat="42.97207" lon="-0.15322">
        <ele>759.4</ele>
        <time>2025-07-22T11:43:11Z</time>
      </trkpt>
      <trkpt lat="42.97201" lon="-0.15325">
        <ele>759.8</ele>
        <time>2025-07-22T11:43:14Z</time>
      </trkpt>
      <trkpt lat="42.97193" lon="-0.1533">
        <ele>760.8</ele>
        <time>2025-07-22T11:43:18Z</time>
      </trkpt>
      <trkpt lat="42.9719" lon="-0.15333">
        <ele>761.6</ele>
        <time>2025-07-22T11:43:20Z</time>
      </trkpt>
      <trkpt lat="42.97186" lon="-0.15336">
        <ele>762</ele>
        <time>2025-07-22T11:43:22Z</time>
      </trkpt>
      <trkpt lat="42.97178" lon="-0.15349">
        <ele>762.8</ele>
        <time>2025-07-22T11:43:28Z</time>
      </trkpt>
      <trkpt lat="42.97176" lon="-0.15351">
        <ele>763.2</ele>
        <time>2025-07-22T11:43:29Z</time>
      </trkpt>
      <trkpt lat="42.97172" lon="-0.1536">
        <ele>764</ele>
        <time>2025-07-22T11:43:33Z</time>
      </trkpt>
      <trkpt lat="42.97169" lon="-0.15367">
        <ele>764.6</ele>
        <time>2025-07-22T11:43:36Z</time>
      </trkpt>
      <trkpt lat="42.97166" lon="-0.15372">
        <ele>764.8</ele>
        <time>2025-07-22T11:43:38Z</time>
      </trkpt>
      <trkpt lat="42.97163" lon="-0.15376">
        <ele>765.2</ele>
        <time>2025-07-22T11:43:40Z</time>
      </trkpt>
      <trkpt lat="42.97158" lon="-0.15387">
        <ele>765.8</ele>
        <time>2025-07-22T11:43:45Z</time>
      </trkpt>
      <trkpt lat="42.97155" lon="-0.15393">
        <ele>766.2</ele>
        <time>2025-07-22T11:43:48Z</time>
      </trkpt>
      <trkpt lat="42.97149" lon="-0.15403">
        <ele>767.6</ele>
        <time>2025-07-22T11:43:53Z</time>
      </trkpt>
      <trkpt lat="42.97142" lon="-0.15413">
        <ele>768.6</ele>
        <time>2025-07-22T11:43:58Z</time>
      </trkpt>
      <trkpt lat="42.97138" lon="-0.15417">
        <ele>769.2</ele>
        <time>2025-07-22T11:44:00Z</time>
      </trkpt>
      <trkpt lat="42.97132" lon="-0.15422">
        <ele>769.8</ele>
        <time>2025-07-22T11:44:03Z</time>
      </trkpt>
      <trkpt lat="42.97121" lon="-0.1543">
        <ele>770.6</ele>
        <time>2025-07-22T11:44:08Z</time>
      </trkpt>
      <trkpt lat="42.97117" lon="-0.15432">
        <ele>771</ele>
        <time>2025-07-22T11:44:10Z</time>
      </trkpt>
      <trkpt lat="42.97106" lon="-0.15437">
        <ele>772</ele>
        <time>2025-07-22T11:44:15Z</time>
      </trkpt>
      <trkpt lat="42.97089" lon="-0.15443">
        <ele>773</ele>
        <time>2025-07-22T11:44:23Z</time>
      </trkpt>
      <trkpt lat="42.97086" lon="-0.15444">
        <ele>773.2</ele>
        <time>2025-07-22T11:44:24Z</time>
      </trkpt>
      <trkpt lat="42.97078" lon="-0.15449">
        <ele>774.2</ele>
        <time>2025-07-22T11:44:28Z</time>
      </trkpt>
      <trkpt lat="42.9707" lon="-0.15456">
        <ele>774.8</ele>
        <time>2025-07-22T11:44:32Z</time>
      </trkpt>
      <trkpt lat="42.97067" lon="-0.15466">
        <ele>775.2</ele>
        <time>2025-07-22T11:44:36Z</time>
      </trkpt>
      <trkpt lat="42.97067" lon="-0.15469">
        <ele>775.4</ele>
        <time>2025-07-22T11:44:37Z</time>
      </trkpt>
      <trkpt lat="42.97067" lon="-0.15471">
        <ele>775.6</ele>
        <time>2025-07-22T11:44:38Z</time>
      </trkpt>
      <trkpt lat="42.97073" lon="-0.15485">
        <ele>776.2</ele>
        <time>2025-07-22T11:44:42Z</time>
      </trkpt>
      <trkpt lat="42.97079" lon="-0.15494">
        <ele>776.6</ele>
        <time>2025-07-22T11:44:45Z</time>
      </trkpt>
      <trkpt lat="42.97085" lon="-0.15495">
        <ele>776.6</ele>
        <time>2025-07-22T11:44:47Z</time>
      </trkpt>
      <trkpt lat="42.97096" lon="-0.15493">
        <ele>777.2</ele>
        <time>2025-07-22T11:44:51Z</time>
      </trkpt>
      <trkpt lat="42.97098" lon="-0.15493">
        <ele>777.4</ele>
        <time>2025-07-22T11:44:52Z</time>
      </trkpt>
      <trkpt lat="42.97109" lon="-0.15497">
        <ele>778</ele>
        <time>2025-07-22T11:44:57Z</time>
      </trkpt>
      <trkpt lat="42.97111" lon="-0.15498">
        <ele>778.4</ele>
        <time>2025-07-22T11:44:58Z</time>
      </trkpt>
      <trkpt lat="42.9712" lon="-0.1551">
        <ele>779.4</ele>
        <time>2025-07-22T11:45:03Z</time>
      </trkpt>
      <trkpt lat="42.97133" lon="-0.15518">
        <ele>780</ele>
        <time>2025-07-22T11:45:10Z</time>
      </trkpt>
      <trkpt lat="42.97139" lon="-0.15521">
        <ele>780.6</ele>
        <time>2025-07-22T11:45:13Z</time>
      </trkpt>
      <trkpt lat="42.97148" lon="-0.15522">
        <ele>781.2</ele>
        <time>2025-07-22T11:45:17Z</time>
      </trkpt>
      <trkpt lat="42.97151" lon="-0.15524">
        <ele>781.6</ele>
        <time>2025-07-22T11:45:19Z</time>
      </trkpt>
      <trkpt lat="42.97163" lon="-0.1553">
        <ele>782.8</ele>
        <time>2025-07-22T11:45:25Z</time>
      </trkpt>
      <trkpt lat="42.97183" lon="-0.15543">
        <ele>783.6</ele>
        <time>2025-07-22T11:45:34Z</time>
      </trkpt>
      <trkpt lat="42.97184" lon="-0.15544">
        <ele>783.6</ele>
        <time>2025-07-22T11:45:35Z</time>
      </trkpt>
      <trkpt lat="42.97186" lon="-0.15544">
        <ele>783.8</ele>
        <time>2025-07-22T11:45:36Z</time>
      </trkpt>
      <trkpt lat="42.97193" lon="-0.15545">
        <ele>784.4</ele>
        <time>2025-07-22T11:45:39Z</time>
      </trkpt>
      <trkpt lat="42.97195" lon="-0.15546">
        <ele>784.6</ele>
        <time>2025-07-22T11:45:40Z</time>
      </trkpt>
      <trkpt lat="42.97206" lon="-0.15547">
        <ele>785.6</ele>
        <time>2025-07-22T11:45:45Z</time>
      </trkpt>
      <trkpt lat="42.97209" lon="-0.15548">
        <ele>786</ele>
        <time>2025-07-22T11:45:46Z</time>
      </trkpt>
      <trkpt lat="42.97224" lon="-0.15551">
        <ele>786.6</ele>
        <time>2025-07-22T11:45:53Z</time>
      </trkpt>
      <trkpt lat="42.97226" lon="-0.15552">
        <ele>786.6</ele>
        <time>2025-07-22T11:45:54Z</time>
      </trkpt>
      <trkpt lat="42.97228" lon="-0.15552">
        <ele>786.8</ele>
        <time>2025-07-22T11:45:55Z</time>
      </trkpt>
      <trkpt lat="42.97247" lon="-0.15556">
        <ele>787.6</ele>
        <time>2025-07-22T11:46:03Z</time>
      </trkpt>
      <trkpt lat="42.97266" lon="-0.15553">
        <ele>788.6</ele>
        <time>2025-07-22T11:46:12Z</time>
      </trkpt>
      <trkpt lat="42.97283" lon="-0.15548">
        <ele>789.4</ele>
        <time>2025-07-22T11:46:20Z</time>
      </trkpt>
      <trkpt lat="42.97288" lon="-0.15545">
        <ele>789.8</ele>
        <time>2025-07-22T11:46:22Z</time>
      </trkpt>
      <trkpt lat="42.9729" lon="-0.15544">
        <ele>789.8</ele>
        <time>2025-07-22T11:46:23Z</time>
      </trkpt>
      <trkpt lat="42.973" lon="-0.15537">
        <ele>790</ele>
        <time>2025-07-22T11:46:28Z</time>
      </trkpt>
      <trkpt lat="42.97309" lon="-0.15528">
        <ele>790.8</ele>
        <time>2025-07-22T11:46:33Z</time>
      </trkpt>
      <trkpt lat="42.97311" lon="-0.15526">
        <ele>791</ele>
        <time>2025-07-22T11:46:34Z</time>
      </trkpt>
      <trkpt lat="42.9732" lon="-0.15522">
        <ele>792</ele>
        <time>2025-07-22T11:46:38Z</time>
      </trkpt>
      <trkpt lat="42.97327" lon="-0.1552">
        <ele>792.6</ele>
        <time>2025-07-22T11:46:41Z</time>
      </trkpt>
      <trkpt lat="42.97332" lon="-0.15521">
        <ele>793</ele>
        <time>2025-07-22T11:46:43Z</time>
      </trkpt>
      <trkpt lat="42.97344" lon="-0.15521">
        <ele>794</ele>
        <time>2025-07-22T11:46:48Z</time>
      </trkpt>
      <trkpt lat="42.97347" lon="-0.1552">
        <ele>794.2</ele>
        <time>2025-07-22T11:46:49Z</time>
      </trkpt>
      <trkpt lat="42.97363" lon="-0.1551">
        <ele>794.6</ele>
        <time>2025-07-22T11:46:56Z</time>
      </trkpt>
      <trkpt lat="42.97373" lon="-0.15505">
        <ele>795.4</ele>
        <time>2025-07-22T11:47:01Z</time>
      </trkpt>
      <trkpt lat="42.9738" lon="-0.15505">
        <ele>795.8</ele>
        <time>2025-07-22T11:47:04Z</time>
      </trkpt>
      <trkpt lat="42.97393" lon="-0.15505">
        <ele>796.8</ele>
        <time>2025-07-22T11:47:10Z</time>
      </trkpt>
      <trkpt lat="42.97398" lon="-0.15506">
        <ele>797</ele>
        <time>2025-07-22T11:47:12Z</time>
      </trkpt>
      <trkpt lat="42.974" lon="-0.15506">
        <ele>797.2</ele>
        <time>2025-07-22T11:47:13Z</time>
      </trkpt>
      <trkpt lat="42.97406" lon="-0.15506">
        <ele>797.8</ele>
        <time>2025-07-22T11:47:16Z</time>
      </trkpt>
      <trkpt lat="42.97416" lon="-0.15507">
        <ele>798.6</ele>
        <time>2025-07-22T11:47:21Z</time>
      </trkpt>
      <trkpt lat="42.97419" lon="-0.15508">
        <ele>798.8</ele>
        <time>2025-07-22T11:47:22Z</time>
      </trkpt>
      <trkpt lat="42.97436" lon="-0.15509">
        <ele>800</ele>
        <time>2025-07-22T11:47:30Z</time>
      </trkpt>
      <trkpt lat="42.97449" lon="-0.15511">
        <ele>801</ele>
        <time>2025-07-22T11:47:36Z</time>
      </trkpt>
      <trkpt lat="42.97455" lon="-0.15514">
        <ele>801.4</ele>
        <time>2025-07-22T11:47:39Z</time>
      </trkpt>
      <trkpt lat="42.97464" lon="-0.15517">
        <ele>802</ele>
        <time>2025-07-22T11:47:43Z</time>
      </trkpt>
      <trkpt lat="42.97474" lon="-0.15525">
        <ele>802.8</ele>
        <time>2025-07-22T11:47:48Z</time>
      </trkpt>
      <trkpt lat="42.97479" lon="-0.15532">
        <ele>803.4</ele>
        <time>2025-07-22T11:47:51Z</time>
      </trkpt>
      <trkpt lat="42.97484" lon="-0.15541">
        <ele>804</ele>
        <time>2025-07-22T11:47:54Z</time>
      </trkpt>
      <trkpt lat="42.97491" lon="-0.15552">
        <ele>804.4</ele>
        <time>2025-07-22T11:47:58Z</time>
      </trkpt>
      <trkpt lat="42.97496" lon="-0.15558">
        <ele>804.8</ele>
        <time>2025-07-22T11:48:01Z</time>
      </trkpt>
      <trkpt lat="42.97514" lon="-0.1557">
        <ele>805.4</ele>
        <time>2025-07-22T11:48:09Z</time>
      </trkpt>
      <trkpt lat="42.97529" lon="-0.1557">
        <ele>806.6</ele>
        <time>2025-07-22T11:48:16Z</time>
      </trkpt>
      <trkpt lat="42.97542" lon="-0.15564">
        <ele>807.6</ele>
        <time>2025-07-22T11:48:22Z</time>
      </trkpt>
      <trkpt lat="42.97547" lon="-0.15562">
        <ele>808</ele>
        <time>2025-07-22T11:48:24Z</time>
      </trkpt>
      <trkpt lat="42.97556" lon="-0.15558">
        <ele>808.6</ele>
        <time>2025-07-22T11:48:28Z</time>
      </trkpt>
      <trkpt lat="42.97564" lon="-0.15553">
        <ele>809</ele>
        <time>2025-07-22T11:48:32Z</time>
      </trkpt>
      <trkpt lat="42.9758" lon="-0.15548">
        <ele>809.2</ele>
        <time>2025-07-22T11:48:40Z</time>
      </trkpt>
      <trkpt lat="42.97583" lon="-0.15552">
        <ele>809.8</ele>
        <time>2025-07-22T11:48:42Z</time>
      </trkpt>
      <trkpt lat="42.97587" lon="-0.15562">
        <ele>810.4</ele>
        <time>2025-07-22T11:48:45Z</time>
      </trkpt>
      <trkpt lat="42.97586" lon="-0.15576">
        <ele>810.8</ele>
        <time>2025-07-22T11:48:49Z</time>
      </trkpt>
      <trkpt lat="42.97585" lon="-0.15583">
        <ele>811.2</ele>
        <time>2025-07-22T11:48:51Z</time>
      </trkpt>
      <trkpt lat="42.97583" lon="-0.15603">
        <ele>812.2</ele>
        <time>2025-07-22T11:48:58Z</time>
      </trkpt>
      <trkpt lat="42.97583" lon="-0.15606">
        <ele>812.2</ele>
        <time>2025-07-22T11:48:59Z</time>
      </trkpt>
      <trkpt lat="42.97578" lon="-0.15626">
        <ele>813.2</ele>
        <time>2025-07-22T11:49:06Z</time>
      </trkpt>
      <trkpt lat="42.97574" lon="-0.15639">
        <ele>814.2</ele>
        <time>2025-07-22T11:49:11Z</time>
      </trkpt>
      <trkpt lat="42.97571" lon="-0.15647">
        <ele>814.4</ele>
        <time>2025-07-22T11:49:14Z</time>
      </trkpt>
      <trkpt lat="42.97563" lon="-0.1567">
        <ele>815.2</ele>
        <time>2025-07-22T11:49:21Z</time>
      </trkpt>
      <trkpt lat="42.97562" lon="-0.15673">
        <ele>815.4</ele>
        <time>2025-07-22T11:49:22Z</time>
      </trkpt>
      <trkpt lat="42.97557" lon="-0.15691">
        <ele>816.6</ele>
        <time>2025-07-22T11:49:28Z</time>
      </trkpt>
      <trkpt lat="42.97557" lon="-0.15694">
        <ele>816.6</ele>
        <time>2025-07-22T11:49:29Z</time>
      </trkpt>
      <trkpt lat="42.97555" lon="-0.15726">
        <ele>817</ele>
        <time>2025-07-22T11:49:37Z</time>
      </trkpt>
      <trkpt lat="42.9755" lon="-0.15757">
        <ele>817.2</ele>
        <time>2025-07-22T11:49:44Z</time>
      </trkpt>
      <trkpt lat="42.9755" lon="-0.15783">
        <ele>817.2</ele>
        <time>2025-07-22T11:49:49Z</time>
      </trkpt>
      <trkpt lat="42.97541" lon="-0.15813">
        <ele>817.4</ele>
        <time>2025-07-22T11:49:55Z</time>
      </trkpt>
      <trkpt lat="42.97535" lon="-0.15836">
        <ele>817.4</ele>
        <time>2025-07-22T11:49:59Z</time>
      </trkpt>
      <trkpt lat="42.97532" lon="-0.15846">
        <ele>817.4</ele>
        <time>2025-07-22T11:50:01Z</time>
      </trkpt>
      <trkpt lat="42.97524" lon="-0.15884">
        <ele>817.6</ele>
        <time>2025-07-22T11:50:08Z</time>
      </trkpt>
      <trkpt lat="42.97519" lon="-0.15908">
        <ele>817.8</ele>
        <time>2025-07-22T11:50:13Z</time>
      </trkpt>
      <trkpt lat="42.97516" lon="-0.15918">
        <ele>817.8</ele>
        <time>2025-07-22T11:50:15Z</time>
      </trkpt>
      <trkpt lat="42.97506" lon="-0.15955">
        <ele>818.6</ele>
        <time>2025-07-22T11:50:23Z</time>
      </trkpt>
      <trkpt lat="42.97503" lon="-0.15969">
        <ele>818.8</ele>
        <time>2025-07-22T11:50:26Z</time>
      </trkpt>
      <trkpt lat="42.97502" lon="-0.15974">
        <ele>818.8</ele>
        <time>2025-07-22T11:50:27Z</time>
      </trkpt>
      <trkpt lat="42.97488" lon="-0.16026">
        <ele>819.4</ele>
        <time>2025-07-22T11:50:37Z</time>
      </trkpt>
      <trkpt lat="42.97476" lon="-0.16073">
        <ele>819.8</ele>
        <time>2025-07-22T11:50:46Z</time>
      </trkpt>
      <trkpt lat="42.97475" lon="-0.16078">
        <ele>820</ele>
        <time>2025-07-22T11:50:47Z</time>
      </trkpt>
      <trkpt lat="42.97471" lon="-0.16102">
        <ele>821.2</ele>
        <time>2025-07-22T11:50:52Z</time>
      </trkpt>
      <trkpt lat="42.97468" lon="-0.16121">
        <ele>821.4</ele>
        <time>2025-07-22T11:50:56Z</time>
      </trkpt>
      <trkpt lat="42.97458" lon="-0.16169">
        <ele>821.6</ele>
        <time>2025-07-22T11:51:05Z</time>
      </trkpt>
      <trkpt lat="42.97455" lon="-0.16191">
        <ele>822</ele>
        <time>2025-07-22T11:51:09Z</time>
      </trkpt>
      <trkpt lat="42.97452" lon="-0.16213">
        <ele>822.4</ele>
        <time>2025-07-22T11:51:13Z</time>
      </trkpt>
      <trkpt lat="42.97451" lon="-0.16219">
        <ele>822.6</ele>
        <time>2025-07-22T11:51:14Z</time>
      </trkpt>
      <trkpt lat="42.97443" lon="-0.1628">
        <ele>823.2</ele>
        <time>2025-07-22T11:51:25Z</time>
      </trkpt>
      <trkpt lat="42.97443" lon="-0.16293">
        <ele>823.2</ele>
        <time>2025-07-22T11:51:27Z</time>
      </trkpt>
      <trkpt lat="42.97445" lon="-0.16304">
        <ele>823</ele>
        <time>2025-07-22T11:51:29Z</time>
      </trkpt>
      <trkpt lat="42.97446" lon="-0.1631">
        <ele>823</ele>
        <time>2025-07-22T11:51:30Z</time>
      </trkpt>
      <trkpt lat="42.97448" lon="-0.16316">
        <ele>823</ele>
        <time>2025-07-22T11:51:31Z</time>
      </trkpt>
      <trkpt lat="42.97461" lon="-0.1634">
        <ele>823</ele>
        <time>2025-07-22T11:51:36Z</time>
      </trkpt>
      <trkpt lat="42.97467" lon="-0.16355">
        <ele>823</ele>
        <time>2025-07-22T11:51:39Z</time>
      </trkpt>
      <trkpt lat="42.97473" lon="-0.1638">
        <ele>823.6</ele>
        <time>2025-07-22T11:51:43Z</time>
      </trkpt>
      <trkpt lat="42.97474" lon="-0.16385">
        <ele>823.6</ele>
        <time>2025-07-22T11:51:44Z</time>
      </trkpt>
      <trkpt lat="42.97475" lon="-0.16391">
        <ele>823.6</ele>
        <time>2025-07-22T11:51:45Z</time>
      </trkpt>
      <trkpt lat="42.97476" lon="-0.16397">
        <ele>823.8</ele>
        <time>2025-07-22T11:51:46Z</time>
      </trkpt>
      <trkpt lat="42.97477" lon="-0.16408">
        <ele>823.8</ele>
        <time>2025-07-22T11:51:48Z</time>
      </trkpt>
      <trkpt lat="42.97477" lon="-0.16431">
        <ele>824.4</ele>
        <time>2025-07-22T11:51:53Z</time>
      </trkpt>
      <trkpt lat="42.97477" lon="-0.16435">
        <ele>824.8</ele>
        <time>2025-07-22T11:51:54Z</time>
      </trkpt>
      <trkpt lat="42.97476" lon="-0.16456">
        <ele>825.8</ele>
        <time>2025-07-22T11:51:59Z</time>
      </trkpt>
      <trkpt lat="42.97476" lon="-0.1646">
        <ele>826</ele>
        <time>2025-07-22T11:52:00Z</time>
      </trkpt>
      <trkpt lat="42.97478" lon="-0.16477">
        <ele>827.2</ele>
        <time>2025-07-22T11:52:04Z</time>
      </trkpt>
      <trkpt lat="42.97478" lon="-0.16492">
        <ele>827.6</ele>
        <time>2025-07-22T11:52:07Z</time>
      </trkpt>
      <trkpt lat="42.97476" lon="-0.16504">
        <ele>827.6</ele>
        <time>2025-07-22T11:52:09Z</time>
      </trkpt>
      <trkpt lat="42.97472" lon="-0.1652">
        <ele>827.8</ele>
        <time>2025-07-22T11:52:12Z</time>
      </trkpt>
      <trkpt lat="42.97468" lon="-0.1653">
        <ele>827.8</ele>
        <time>2025-07-22T11:52:14Z</time>
      </trkpt>
      <trkpt lat="42.97456" lon="-0.16546">
        <ele>827.8</ele>
        <time>2025-07-22T11:52:18Z</time>
      </trkpt>
      <trkpt lat="42.97435" lon="-0.16574">
        <ele>828.2</ele>
        <time>2025-07-22T11:52:26Z</time>
      </trkpt>
      <trkpt lat="42.97432" lon="-0.16578">
        <ele>828.4</ele>
        <time>2025-07-22T11:52:27Z</time>
      </trkpt>
      <trkpt lat="42.97419" lon="-0.16606">
        <ele>829.6</ele>
        <time>2025-07-22T11:52:34Z</time>
      </trkpt>
      <trkpt lat="42.97414" lon="-0.16614">
        <ele>829.8</ele>
        <time>2025-07-22T11:52:36Z</time>
      </trkpt>
      <trkpt lat="42.97399" lon="-0.16646">
        <ele>830</ele>
        <time>2025-07-22T11:52:42Z</time>
      </trkpt>
      <trkpt lat="42.97391" lon="-0.16676">
        <ele>829.6</ele>
        <time>2025-07-22T11:52:47Z</time>
      </trkpt>
      <trkpt lat="42.9739" lon="-0.16682">
        <ele>829.6</ele>
        <time>2025-07-22T11:52:48Z</time>
      </trkpt>
      <trkpt lat="42.97382" lon="-0.16732">
        <ele>829.6</ele>
        <time>2025-07-22T11:52:56Z</time>
      </trkpt>
      <trkpt lat="42.97377" lon="-0.16752">
        <ele>829.6</ele>
        <time>2025-07-22T11:52:59Z</time>
      </trkpt>
      <trkpt lat="42.97373" lon="-0.16763">
        <ele>829.6</ele>
        <time>2025-07-22T11:53:01Z</time>
      </trkpt>
      <trkpt lat="42.9737" lon="-0.16769">
        <ele>829.6</ele>
        <time>2025-07-22T11:53:02Z</time>
      </trkpt>
      <trkpt lat="42.97348" lon="-0.16821">
        <ele>829.4</ele>
        <time>2025-07-22T11:53:11Z</time>
      </trkpt>
      <trkpt lat="42.97343" lon="-0.16838">
        <ele>829.8</ele>
        <time>2025-07-22T11:53:14Z</time>
      </trkpt>
      <trkpt lat="42.97342" lon="-0.1685">
        <ele>830</ele>
        <time>2025-07-22T11:53:16Z</time>
      </trkpt>
      <trkpt lat="42.97343" lon="-0.16856">
        <ele>830</ele>
        <time>2025-07-22T11:53:17Z</time>
      </trkpt>
      <trkpt lat="42.97344" lon="-0.16862">
        <ele>830.2</ele>
        <time>2025-07-22T11:53:18Z</time>
      </trkpt>
      <trkpt lat="42.97348" lon="-0.16873">
        <ele>830.2</ele>
        <time>2025-07-22T11:53:20Z</time>
      </trkpt>
      <trkpt lat="42.97352" lon="-0.16884">
        <ele>830.2</ele>
        <time>2025-07-22T11:53:22Z</time>
      </trkpt>
      <trkpt lat="42.97354" lon="-0.16895">
        <ele>830.4</ele>
        <time>2025-07-22T11:53:24Z</time>
      </trkpt>
      <trkpt lat="42.97353" lon="-0.16911">
        <ele>830.6</ele>
        <time>2025-07-22T11:53:27Z</time>
      </trkpt>
      <trkpt lat="42.97352" lon="-0.16916">
        <ele>830.8</ele>
        <time>2025-07-22T11:53:28Z</time>
      </trkpt>
      <trkpt lat="42.97351" lon="-0.16935">
        <ele>831.4</ele>
        <time>2025-07-22T11:53:32Z</time>
      </trkpt>
      <trkpt lat="42.97351" lon="-0.16945">
        <ele>832</ele>
        <time>2025-07-22T11:53:34Z</time>
      </trkpt>
      <trkpt lat="42.97352" lon="-0.16957">
        <ele>832.4</ele>
        <time>2025-07-22T11:53:37Z</time>
      </trkpt>
      <trkpt lat="42.97352" lon="-0.16969">
        <ele>832.8</ele>
        <time>2025-07-22T11:53:40Z</time>
      </trkpt>
      <trkpt lat="42.97352" lon="-0.16974">
        <ele>833</ele>
        <time>2025-07-22T11:53:41Z</time>
      </trkpt>
      <trkpt lat="42.97355" lon="-0.16998">
        <ele>834.2</ele>
        <time>2025-07-22T11:53:47Z</time>
      </trkpt>
      <trkpt lat="42.97356" lon="-0.17006">
        <ele>834.4</ele>
        <time>2025-07-22T11:53:49Z</time>
      </trkpt>
      <trkpt lat="42.97356" lon="-0.17021">
        <ele>835.4</ele>
        <time>2025-07-22T11:53:53Z</time>
      </trkpt>
      <trkpt lat="42.97354" lon="-0.17033">
        <ele>836.2</ele>
        <time>2025-07-22T11:53:56Z</time>
      </trkpt>
      <trkpt lat="42.97351" lon="-0.17046">
        <ele>836.4</ele>
        <time>2025-07-22T11:53:59Z</time>
      </trkpt>
      <trkpt lat="42.97345" lon="-0.17068">
        <ele>836.8</ele>
        <time>2025-07-22T11:54:04Z</time>
      </trkpt>
      <trkpt lat="42.97338" lon="-0.17091">
        <ele>837.6</ele>
        <time>2025-07-22T11:54:10Z</time>
      </trkpt>
      <trkpt lat="42.97335" lon="-0.17103">
        <ele>838.2</ele>
        <time>2025-07-22T11:54:13Z</time>
      </trkpt>
      <trkpt lat="42.97331" lon="-0.17117">
        <ele>838.6</ele>
        <time>2025-07-22T11:54:16Z</time>
      </trkpt>
      <trkpt lat="42.97323" lon="-0.17145">
        <ele>839</ele>
        <time>2025-07-22T11:54:22Z</time>
      </trkpt>
      <trkpt lat="42.97315" lon="-0.17187">
        <ele>839.6</ele>
        <time>2025-07-22T11:54:31Z</time>
      </trkpt>
      <trkpt lat="42.97315" lon="-0.17191">
        <ele>839.8</ele>
        <time>2025-07-22T11:54:32Z</time>
      </trkpt>
      <trkpt lat="42.97314" lon="-0.1722">
        <ele>840.4</ele>
        <time>2025-07-22T11:54:38Z</time>
      </trkpt>
      <trkpt lat="42.97315" lon="-0.17243">
        <ele>840.8</ele>
        <time>2025-07-22T11:54:43Z</time>
      </trkpt>
      <trkpt lat="42.97315" lon="-0.17248">
        <ele>841</ele>
        <time>2025-07-22T11:54:44Z</time>
      </trkpt>
      <trkpt lat="42.97319" lon="-0.17288">
        <ele>841.8</ele>
        <time>2025-07-22T11:54:52Z</time>
      </trkpt>
      <trkpt lat="42.97325" lon="-0.17322">
        <ele>843</ele>
        <time>2025-07-22T11:55:00Z</time>
      </trkpt>
      <trkpt lat="42.97326" lon="-0.17326">
        <ele>843</ele>
        <time>2025-07-22T11:55:01Z</time>
      </trkpt>
      <trkpt lat="42.97328" lon="-0.17344">
        <ele>844</ele>
        <time>2025-07-22T11:55:05Z</time>
      </trkpt>
      <trkpt lat="42.9733" lon="-0.17368">
        <ele>844.4</ele>
        <time>2025-07-22T11:55:10Z</time>
      </trkpt>
      <trkpt lat="42.97338" lon="-0.17387">
        <ele>844.8</ele>
        <time>2025-07-22T11:55:15Z</time>
      </trkpt>
      <trkpt lat="42.97341" lon="-0.17392">
        <ele>845.2</ele>
        <time>2025-07-22T11:55:17Z</time>
      </trkpt>
      <trkpt lat="42.97347" lon="-0.17397">
        <ele>846</ele>
        <time>2025-07-22T11:55:20Z</time>
      </trkpt>
      <trkpt lat="42.97348" lon="-0.17398">
        <ele>846.2</ele>
        <time>2025-07-22T11:55:21Z</time>
      </trkpt>
      <trkpt lat="42.97354" lon="-0.17401">
        <ele>847.2</ele>
        <time>2025-07-22T11:55:24Z</time>
      </trkpt>
      <trkpt lat="42.97357" lon="-0.17403">
        <ele>847.6</ele>
        <time>2025-07-22T11:55:26Z</time>
      </trkpt>
      <trkpt lat="42.97366" lon="-0.17403">
        <ele>848.4</ele>
        <time>2025-07-22T11:55:30Z</time>
      </trkpt>
      <trkpt lat="42.97369" lon="-0.17402">
        <ele>848.8</ele>
        <time>2025-07-22T11:55:31Z</time>
      </trkpt>
      <trkpt lat="42.97373" lon="-0.174">
        <ele>849.4</ele>
        <time>2025-07-22T11:55:33Z</time>
      </trkpt>
      <trkpt lat="42.97376" lon="-0.17399">
        <ele>849.6</ele>
        <time>2025-07-22T11:55:34Z</time>
      </trkpt>
      <trkpt lat="42.97392" lon="-0.17394">
        <ele>850.6</ele>
        <time>2025-07-22T11:55:40Z</time>
      </trkpt>
      <trkpt lat="42.97396" lon="-0.17393">
        <ele>850.8</ele>
        <time>2025-07-22T11:55:42Z</time>
      </trkpt>
      <trkpt lat="42.97406" lon="-0.17394">
        <ele>851.6</ele>
        <time>2025-07-22T11:55:46Z</time>
      </trkpt>
      <trkpt lat="42.97412" lon="-0.17397">
        <ele>852.4</ele>
        <time>2025-07-22T11:55:49Z</time>
      </trkpt>
      <trkpt lat="42.97415" lon="-0.17399">
        <ele>852.6</ele>
        <time>2025-07-22T11:55:50Z</time>
      </trkpt>
      <trkpt lat="42.97419" lon="-0.17404">
        <ele>853.2</ele>
        <time>2025-07-22T11:55:52Z</time>
      </trkpt>
      <trkpt lat="42.97422" lon="-0.1741">
        <ele>853.6</ele>
        <time>2025-07-22T11:55:54Z</time>
      </trkpt>
      <trkpt lat="42.97424" lon="-0.17417">
        <ele>853.8</ele>
        <time>2025-07-22T11:55:56Z</time>
      </trkpt>
      <trkpt lat="42.97428" lon="-0.17435">
        <ele>854.4</ele>
        <time>2025-07-22T11:56:01Z</time>
      </trkpt>
      <trkpt lat="42.97425" lon="-0.17453">
        <ele>854.8</ele>
        <time>2025-07-22T11:56:07Z</time>
      </trkpt>
      <trkpt lat="42.97424" lon="-0.17457">
        <ele>855</ele>
        <time>2025-07-22T11:56:08Z</time>
      </trkpt>
      <trkpt lat="42.97421" lon="-0.1747">
        <ele>856.2</ele>
        <time>2025-07-22T11:56:12Z</time>
      </trkpt>
      <trkpt lat="42.97419" lon="-0.1748">
        <ele>856.8</ele>
        <time>2025-07-22T11:56:15Z</time>
      </trkpt>
      <trkpt lat="42.97412" lon="-0.17505">
        <ele>856.8</ele>
        <time>2025-07-22T11:56:21Z</time>
      </trkpt>
      <trkpt lat="42.97405" lon="-0.17541">
        <ele>856.8</ele>
        <time>2025-07-22T11:56:26Z</time>
      </trkpt>
      <trkpt lat="42.97394" lon="-0.17586">
        <ele>856</ele>
        <time>2025-07-22T11:56:32Z</time>
      </trkpt>
      <trkpt lat="42.97389" lon="-0.17619">
        <ele>856</ele>
        <time>2025-07-22T11:56:37Z</time>
      </trkpt>
      <trkpt lat="42.97381" lon="-0.17642">
        <ele>856.4</ele>
        <time>2025-07-22T11:56:42Z</time>
      </trkpt>
      <trkpt lat="42.97369" lon="-0.17675">
        <ele>857</ele>
        <time>2025-07-22T11:56:48Z</time>
      </trkpt>
      <trkpt lat="42.97356" lon="-0.17709">
        <ele>856.6</ele>
        <time>2025-07-22T11:56:54Z</time>
      </trkpt>
      <trkpt lat="42.97353" lon="-0.17714">
        <ele>856.6</ele>
        <time>2025-07-22T11:56:55Z</time>
      </trkpt>
      <trkpt lat="42.97333" lon="-0.17751">
        <ele>856.6</ele>
        <time>2025-07-22T11:57:02Z</time>
      </trkpt>
      <trkpt lat="42.97312" lon="-0.17789">
        <ele>856</ele>
        <time>2025-07-22T11:57:07Z</time>
      </trkpt>
      <trkpt lat="42.97294" lon="-0.17836">
        <ele>855</ele>
        <time>2025-07-22T11:57:12Z</time>
      </trkpt>
      <trkpt lat="42.97291" lon="-0.17846">
        <ele>855</ele>
        <time>2025-07-22T11:57:13Z</time>
      </trkpt>
      <trkpt lat="42.97287" lon="-0.17865">
        <ele>854.8</ele>
        <time>2025-07-22T11:57:15Z</time>
      </trkpt>
      <trkpt lat="42.97283" lon="-0.17891">
        <ele>854</ele>
        <time>2025-07-22T11:57:18Z</time>
      </trkpt>
      <trkpt lat="42.97275" lon="-0.17927">
        <ele>853.6</ele>
        <time>2025-07-22T11:57:23Z</time>
      </trkpt>
      <trkpt lat="42.97272" lon="-0.1794">
        <ele>853.8</ele>
        <time>2025-07-22T11:57:25Z</time>
      </trkpt>
      <trkpt lat="42.97265" lon="-0.17963">
        <ele>854</ele>
        <time>2025-07-22T11:57:29Z</time>
      </trkpt>
      <trkpt lat="42.97263" lon="-0.17968">
        <ele>854.2</ele>
        <time>2025-07-22T11:57:30Z</time>
      </trkpt>
      <trkpt lat="42.97257" lon="-0.1798">
        <ele>854.4</ele>
        <time>2025-07-22T11:57:33Z</time>
      </trkpt>
      <trkpt lat="42.97246" lon="-0.17997">
        <ele>855.2</ele>
        <time>2025-07-22T11:57:38Z</time>
      </trkpt>
      <trkpt lat="42.97241" lon="-0.18005">
        <ele>855.8</ele>
        <time>2025-07-22T11:57:40Z</time>
      </trkpt>
      <trkpt lat="42.9723" lon="-0.18019">
        <ele>856.2</ele>
        <time>2025-07-22T11:57:44Z</time>
      </trkpt>
      <trkpt lat="42.97221" lon="-0.18035">
        <ele>856.6</ele>
        <time>2025-07-22T11:57:48Z</time>
      </trkpt>
      <trkpt lat="42.97208" lon="-0.1806">
        <ele>857.2</ele>
        <time>2025-07-22T11:57:55Z</time>
      </trkpt>
      <trkpt lat="42.97198" lon="-0.18081">
        <ele>857.2</ele>
        <time>2025-07-22T11:58:00Z</time>
      </trkpt>
      <trkpt lat="42.97191" lon="-0.18096">
        <ele>857.2</ele>
        <time>2025-07-22T11:58:03Z</time>
      </trkpt>
      <trkpt lat="42.9719" lon="-0.18103">
        <ele>857.2</ele>
        <time>2025-07-22T11:58:04Z</time>
      </trkpt>
      <trkpt lat="42.9719" lon="-0.1811">
        <ele>857</ele>
        <time>2025-07-22T11:58:05Z</time>
      </trkpt>
      <trkpt lat="42.97195" lon="-0.18125">
        <ele>856.6</ele>
        <time>2025-07-22T11:58:07Z</time>
      </trkpt>
      <trkpt lat="42.97213" lon="-0.18152">
        <ele>855.2</ele>
        <time>2025-07-22T11:58:11Z</time>
      </trkpt>
      <trkpt lat="42.97225" lon="-0.18174">
        <ele>854.6</ele>
        <time>2025-07-22T11:58:14Z</time>
      </trkpt>
      <trkpt lat="42.97233" lon="-0.18194">
        <ele>854.4</ele>
        <time>2025-07-22T11:58:17Z</time>
      </trkpt>
      <trkpt lat="42.97238" lon="-0.18204">
        <ele>854.4</ele>
        <time>2025-07-22T11:58:19Z</time>
      </trkpt>
      <trkpt lat="42.9725" lon="-0.18229">
        <ele>855.8</ele>
        <time>2025-07-22T11:58:26Z</time>
      </trkpt>
      <trkpt lat="42.97251" lon="-0.18233">
        <ele>856.4</ele>
        <time>2025-07-22T11:58:27Z</time>
      </trkpt>
      <trkpt lat="42.97257" lon="-0.18246">
        <ele>857.4</ele>
        <time>2025-07-22T11:58:31Z</time>
      </trkpt>
      <trkpt lat="42.97261" lon="-0.18254">
        <ele>858</ele>
        <time>2025-07-22T11:58:33Z</time>
      </trkpt>
      <trkpt lat="42.97273" lon="-0.18277">
        <ele>858.4</ele>
        <time>2025-07-22T11:58:38Z</time>
      </trkpt>
      <trkpt lat="42.97282" lon="-0.18307">
        <ele>858</ele>
        <time>2025-07-22T11:58:43Z</time>
      </trkpt>
      <trkpt lat="42.97283" lon="-0.18314">
        <ele>858</ele>
        <time>2025-07-22T11:58:44Z</time>
      </trkpt>
      <trkpt lat="42.97288" lon="-0.18333">
        <ele>857.8</ele>
        <time>2025-07-22T11:58:47Z</time>
      </trkpt>
      <trkpt lat="42.97295" lon="-0.18351">
        <ele>857.8</ele>
        <time>2025-07-22T11:58:50Z</time>
      </trkpt>
      <trkpt lat="42.97311" lon="-0.18375">
        <ele>857.8</ele>
        <time>2025-07-22T11:58:55Z</time>
      </trkpt>
      <trkpt lat="42.97331" lon="-0.18397">
        <ele>858</ele>
        <time>2025-07-22T11:59:01Z</time>
      </trkpt>
      <trkpt lat="42.97334" lon="-0.18401">
        <ele>858</ele>
        <time>2025-07-22T11:59:02Z</time>
      </trkpt>
      <trkpt lat="42.97344" lon="-0.18423">
        <ele>858.4</ele>
        <time>2025-07-22T11:59:07Z</time>
      </trkpt>
      <trkpt lat="42.97351" lon="-0.18445">
        <ele>859.6</ele>
        <time>2025-07-22T11:59:12Z</time>
      </trkpt>
      <trkpt lat="42.97354" lon="-0.18458">
        <ele>860</ele>
        <time>2025-07-22T11:59:15Z</time>
      </trkpt>
      <trkpt lat="42.97358" lon="-0.1848">
        <ele>860.8</ele>
        <time>2025-07-22T11:59:20Z</time>
      </trkpt>
      <trkpt lat="42.97359" lon="-0.1849">
        <ele>860.8</ele>
        <time>2025-07-22T11:59:22Z</time>
      </trkpt>
      <trkpt lat="42.97365" lon="-0.18526">
        <ele>861.6</ele>
        <time>2025-07-22T11:59:29Z</time>
      </trkpt>
      <trkpt lat="42.97365" lon="-0.18532">
        <ele>861.6</ele>
        <time>2025-07-22T11:59:30Z</time>
      </trkpt>
      <trkpt lat="42.97365" lon="-0.18558">
        <ele>861.6</ele>
        <time>2025-07-22T11:59:34Z</time>
      </trkpt>
      <trkpt lat="42.97365" lon="-0.1861">
        <ele>861.4</ele>
        <time>2025-07-22T11:59:42Z</time>
      </trkpt>
      <trkpt lat="42.97365" lon="-0.1866">
        <ele>861.4</ele>
        <time>2025-07-22T11:59:50Z</time>
      </trkpt>
      <trkpt lat="42.97365" lon="-0.18699">
        <ele>861.4</ele>
        <time>2025-07-22T11:59:56Z</time>
      </trkpt>
      <trkpt lat="42.97368" lon="-0.18712">
        <ele>861.4</ele>
        <time>2025-07-22T11:59:58Z</time>
      </trkpt>
      <trkpt lat="42.97377" lon="-0.18727">
        <ele>861.4</ele>
        <time>2025-07-22T12:00:01Z</time>
      </trkpt>
      <trkpt lat="42.97384" lon="-0.18735">
        <ele>861.4</ele>
        <time>2025-07-22T12:00:03Z</time>
      </trkpt>
      <trkpt lat="42.97399" lon="-0.18752">
        <ele>861.8</ele>
        <time>2025-07-22T12:00:07Z</time>
      </trkpt>
      <trkpt lat="42.97413" lon="-0.18769">
        <ele>862.2</ele>
        <time>2025-07-22T12:00:11Z</time>
      </trkpt>
      <trkpt lat="42.97437" lon="-0.18786">
        <ele>862.8</ele>
        <time>2025-07-22T12:00:17Z</time>
      </trkpt>
      <trkpt lat="42.97441" lon="-0.18787">
        <ele>863</ele>
        <time>2025-07-22T12:00:18Z</time>
      </trkpt>
      <trkpt lat="42.97445" lon="-0.18788">
        <ele>862.8</ele>
        <time>2025-07-22T12:00:19Z</time>
      </trkpt>
      <trkpt lat="42.97449" lon="-0.1879">
        <ele>862.8</ele>
        <time>2025-07-22T12:00:20Z</time>
      </trkpt>
      <trkpt lat="42.97456" lon="-0.18798">
        <ele>863</ele>
        <time>2025-07-22T12:00:22Z</time>
      </trkpt>
      <trkpt lat="42.97459" lon="-0.18803">
        <ele>863.2</ele>
        <time>2025-07-22T12:00:23Z</time>
      </trkpt>
      <trkpt lat="42.97461" lon="-0.18808">
        <ele>863.2</ele>
        <time>2025-07-22T12:00:24Z</time>
      </trkpt>
      <trkpt lat="42.97469" lon="-0.18837">
        <ele>863.8</ele>
        <time>2025-07-22T12:00:29Z</time>
      </trkpt>
      <trkpt lat="42.9747" lon="-0.18842">
        <ele>863.6</ele>
        <time>2025-07-22T12:00:30Z</time>
      </trkpt>
      <trkpt lat="42.97475" lon="-0.18857">
        <ele>863.8</ele>
        <time>2025-07-22T12:00:33Z</time>
      </trkpt>
      <trkpt lat="42.97478" lon="-0.18866">
        <ele>864</ele>
        <time>2025-07-22T12:00:35Z</time>
      </trkpt>
      <trkpt lat="42.97485" lon="-0.18898">
        <ele>865.2</ele>
        <time>2025-07-22T12:00:42Z</time>
      </trkpt>
      <trkpt lat="42.97486" lon="-0.18919">
        <ele>866.2</ele>
        <time>2025-07-22T12:00:47Z</time>
      </trkpt>
      <trkpt lat="42.97486" lon="-0.18927">
        <ele>866.4</ele>
        <time>2025-07-22T12:00:49Z</time>
      </trkpt>
      <trkpt lat="42.97484" lon="-0.18946">
        <ele>867.2</ele>
        <time>2025-07-22T12:00:54Z</time>
      </trkpt>
      <trkpt lat="42.97483" lon="-0.18954">
        <ele>867.6</ele>
        <time>2025-07-22T12:00:56Z</time>
      </trkpt>
      <trkpt lat="42.97479" lon="-0.18972">
        <ele>868.4</ele>
        <time>2025-07-22T12:01:01Z</time>
      </trkpt>
      <trkpt lat="42.97474" lon="-0.18986">
        <ele>869</ele>
        <time>2025-07-22T12:01:05Z</time>
      </trkpt>
      <trkpt lat="42.97471" lon="-0.19001">
        <ele>869.6</ele>
        <time>2025-07-22T12:01:09Z</time>
      </trkpt>
      <trkpt lat="42.97468" lon="-0.19016">
        <ele>870.2</ele>
        <time>2025-07-22T12:01:13Z</time>
      </trkpt>
      <trkpt lat="42.97466" lon="-0.19027">
        <ele>870.6</ele>
        <time>2025-07-22T12:01:16Z</time>
      </trkpt>
      <trkpt lat="42.97463" lon="-0.19052">
        <ele>871.6</ele>
        <time>2025-07-22T12:01:23Z</time>
      </trkpt>
      <trkpt lat="42.97459" lon="-0.19075">
        <ele>872.8</ele>
        <time>2025-07-22T12:01:30Z</time>
      </trkpt>
      <trkpt lat="42.97459" lon="-0.19078">
        <ele>873</ele>
        <time>2025-07-22T12:01:31Z</time>
      </trkpt>
      <trkpt lat="42.97457" lon="-0.19083">
        <ele>873.4</ele>
        <time>2025-07-22T12:01:33Z</time>
      </trkpt>
      <trkpt lat="42.97453" lon="-0.19096">
        <ele>874</ele>
        <time>2025-07-22T12:01:37Z</time>
      </trkpt>
      <trkpt lat="42.97452" lon="-0.19099">
        <ele>874.2</ele>
        <time>2025-07-22T12:01:38Z</time>
      </trkpt>
      <trkpt lat="42.97448" lon="-0.19111">
        <ele>875</ele>
        <time>2025-07-22T12:01:42Z</time>
      </trkpt>
      <trkpt lat="42.97438" lon="-0.19133">
        <ele>875.8</ele>
        <time>2025-07-22T12:01:49Z</time>
      </trkpt>
      <trkpt lat="42.9743" lon="-0.19152">
        <ele>876</ele>
        <time>2025-07-22T12:01:54Z</time>
      </trkpt>
      <trkpt lat="42.97422" lon="-0.19167">
        <ele>876.4</ele>
        <time>2025-07-22T12:01:58Z</time>
      </trkpt>
      <trkpt lat="42.97414" lon="-0.1919">
        <ele>877.2</ele>
        <time>2025-07-22T12:02:04Z</time>
      </trkpt>
      <trkpt lat="42.9741" lon="-0.19202">
        <ele>877.6</ele>
        <time>2025-07-22T12:02:07Z</time>
      </trkpt>
      <trkpt lat="42.97402" lon="-0.19216">
        <ele>878.2</ele>
        <time>2025-07-22T12:02:11Z</time>
      </trkpt>
      <trkpt lat="42.97398" lon="-0.19222">
        <ele>878.6</ele>
        <time>2025-07-22T12:02:13Z</time>
      </trkpt>
      <trkpt lat="42.97383" lon="-0.19242">
        <ele>879.2</ele>
        <time>2025-07-22T12:02:19Z</time>
      </trkpt>
      <trkpt lat="42.9738" lon="-0.19245">
        <ele>879.4</ele>
        <time>2025-07-22T12:02:20Z</time>
      </trkpt>
      <trkpt lat="42.97357" lon="-0.19268">
        <ele>880</ele>
        <time>2025-07-22T12:02:27Z</time>
      </trkpt>
      <trkpt lat="42.97343" lon="-0.19287">
        <ele>880.2</ele>
        <time>2025-07-22T12:02:31Z</time>
      </trkpt>
      <trkpt lat="42.97341" lon="-0.19292">
        <ele>880.2</ele>
        <time>2025-07-22T12:02:32Z</time>
      </trkpt>
      <trkpt lat="42.97339" lon="-0.19298">
        <ele>880.2</ele>
        <time>2025-07-22T12:02:33Z</time>
      </trkpt>
      <trkpt lat="42.97337" lon="-0.1931">
        <ele>880.4</ele>
        <time>2025-07-22T12:02:35Z</time>
      </trkpt>
      <trkpt lat="42.97335" lon="-0.19316">
        <ele>880.4</ele>
        <time>2025-07-22T12:02:36Z</time>
      </trkpt>
      <trkpt lat="42.97332" lon="-0.19322">
        <ele>880.4</ele>
        <time>2025-07-22T12:02:37Z</time>
      </trkpt>
      <trkpt lat="42.97319" lon="-0.19341">
        <ele>880.4</ele>
        <time>2025-07-22T12:02:41Z</time>
      </trkpt>
      <trkpt lat="42.973" lon="-0.19376">
        <ele>880.2</ele>
        <time>2025-07-22T12:02:47Z</time>
      </trkpt>
      <trkpt lat="42.97298" lon="-0.19384">
        <ele>880.2</ele>
        <time>2025-07-22T12:02:48Z</time>
      </trkpt>
      <trkpt lat="42.97288" lon="-0.19434">
        <ele>879.6</ele>
        <time>2025-07-22T12:02:55Z</time>
      </trkpt>
      <trkpt lat="42.97286" lon="-0.19442">
        <ele>879.6</ele>
        <time>2025-07-22T12:02:56Z</time>
      </trkpt>
      <trkpt lat="42.97277" lon="-0.19464">
        <ele>879.2</ele>
        <time>2025-07-22T12:02:59Z</time>
      </trkpt>
      <trkpt lat="42.97269" lon="-0.19479">
        <ele>879</ele>
        <time>2025-07-22T12:03:01Z</time>
      </trkpt>
      <trkpt lat="42.97244" lon="-0.19517">
        <ele>877.8</ele>
        <time>2025-07-22T12:03:06Z</time>
      </trkpt>
      <trkpt lat="42.97239" lon="-0.19525">
        <ele>877.6</ele>
        <time>2025-07-22T12:03:07Z</time>
      </trkpt>
      <trkpt lat="42.97221" lon="-0.19549">
        <ele>876.8</ele>
        <time>2025-07-22T12:03:10Z</time>
      </trkpt>
      <trkpt lat="42.97204" lon="-0.19575">
        <ele>875.6</ele>
        <time>2025-07-22T12:03:13Z</time>
      </trkpt>
      <trkpt lat="42.97198" lon="-0.19583">
        <ele>875.4</ele>
        <time>2025-07-22T12:03:14Z</time>
      </trkpt>
      <trkpt lat="42.97174" lon="-0.19618">
        <ele>874.4</ele>
        <time>2025-07-22T12:03:18Z</time>
      </trkpt>
      <trkpt lat="42.97157" lon="-0.19644">
        <ele>873.4</ele>
        <time>2025-07-22T12:03:21Z</time>
      </trkpt>
      <trkpt lat="42.97127" lon="-0.19685">
        <ele>872.4</ele>
        <time>2025-07-22T12:03:26Z</time>
      </trkpt>
      <trkpt lat="42.97117" lon="-0.19702">
        <ele>871.8</ele>
        <time>2025-07-22T12:03:28Z</time>
      </trkpt>
      <trkpt lat="42.97106" lon="-0.19719">
        <ele>871.2</ele>
        <time>2025-07-22T12:03:30Z</time>
      </trkpt>
      <trkpt lat="42.97081" lon="-0.1975">
        <ele>870.6</ele>
        <time>2025-07-22T12:03:34Z</time>
      </trkpt>
      <trkpt lat="42.9707" lon="-0.19766">
        <ele>870.2</ele>
        <time>2025-07-22T12:03:36Z</time>
      </trkpt>
      <trkpt lat="42.9704" lon="-0.19804">
        <ele>869.2</ele>
        <time>2025-07-22T12:03:41Z</time>
      </trkpt>
      <trkpt lat="42.97034" lon="-0.19812">
        <ele>869</ele>
        <time>2025-07-22T12:03:42Z</time>
      </trkpt>
      <trkpt lat="42.97014" lon="-0.19847">
        <ele>868</ele>
        <time>2025-07-22T12:03:46Z</time>
      </trkpt>
      <trkpt lat="42.97009" lon="-0.19858">
        <ele>867.8</ele>
        <time>2025-07-22T12:03:47Z</time>
      </trkpt>
      <trkpt lat="42.96983" lon="-0.19925">
        <ele>867</ele>
        <time>2025-07-22T12:03:54Z</time>
      </trkpt>
      <trkpt lat="42.9697" lon="-0.19964">
        <ele>867</ele>
        <time>2025-07-22T12:03:59Z</time>
      </trkpt>
      <trkpt lat="42.96955" lon="-0.20007">
        <ele>867.6</ele>
        <time>2025-07-22T12:04:06Z</time>
      </trkpt>
      <trkpt lat="42.96939" lon="-0.2004">
        <ele>869</ele>
        <time>2025-07-22T12:04:13Z</time>
      </trkpt>
      <trkpt lat="42.96936" lon="-0.20044">
        <ele>869.2</ele>
        <time>2025-07-22T12:04:14Z</time>
      </trkpt>
      <trkpt lat="42.96918" lon="-0.2007">
        <ele>869.8</ele>
        <time>2025-07-22T12:04:20Z</time>
      </trkpt>
      <trkpt lat="42.96915" lon="-0.20074">
        <ele>870</ele>
        <time>2025-07-22T12:04:21Z</time>
      </trkpt>
      <trkpt lat="42.96893" lon="-0.20103">
        <ele>870.8</ele>
        <time>2025-07-22T12:04:28Z</time>
      </trkpt>
      <trkpt lat="42.96888" lon="-0.20111">
        <ele>871</ele>
        <time>2025-07-22T12:04:30Z</time>
      </trkpt>
      <trkpt lat="42.96865" lon="-0.20143">
        <ele>871.6</ele>
        <time>2025-07-22T12:04:38Z</time>
      </trkpt>
      <trkpt lat="42.9686" lon="-0.20151">
        <ele>872</ele>
        <time>2025-07-22T12:04:40Z</time>
      </trkpt>
      <trkpt lat="42.9684" lon="-0.20176">
        <ele>872.8</ele>
        <time>2025-07-22T12:04:47Z</time>
      </trkpt>
      <trkpt lat="42.96833" lon="-0.20183">
        <ele>873</ele>
        <time>2025-07-22T12:04:49Z</time>
      </trkpt>
      <trkpt lat="42.96817" lon="-0.20196">
        <ele>873.2</ele>
        <time>2025-07-22T12:04:53Z</time>
      </trkpt>
      <trkpt lat="42.96788" lon="-0.20214">
        <ele>873.4</ele>
        <time>2025-07-22T12:04:59Z</time>
      </trkpt>
      <trkpt lat="42.96743" lon="-0.20237">
        <ele>873.6</ele>
        <time>2025-07-22T12:05:07Z</time>
      </trkpt>
      <trkpt lat="42.96697" lon="-0.2025">
        <ele>874</ele>
        <time>2025-07-22T12:05:15Z</time>
      </trkpt>
      <trkpt lat="42.96675" lon="-0.20253">
        <ele>874</ele>
        <time>2025-07-22T12:05:19Z</time>
      </trkpt>
      <trkpt lat="42.96659" lon="-0.20254">
        <ele>874.2</ele>
        <time>2025-07-22T12:05:22Z</time>
      </trkpt>
      <trkpt lat="42.96648" lon="-0.20252">
        <ele>874.2</ele>
        <time>2025-07-22T12:05:24Z</time>
      </trkpt>
      <trkpt lat="42.96622" lon="-0.20239">
        <ele>874.2</ele>
        <time>2025-07-22T12:05:29Z</time>
      </trkpt>
      <trkpt lat="42.96616" lon="-0.20234">
        <ele>874.4</ele>
        <time>2025-07-22T12:05:30Z</time>
      </trkpt>
      <trkpt lat="42.96602" lon="-0.20224">
        <ele>874.4</ele>
        <time>2025-07-22T12:05:33Z</time>
      </trkpt>
      <trkpt lat="42.96591" lon="-0.20222">
        <ele>874.6</ele>
        <time>2025-07-22T12:05:35Z</time>
      </trkpt>
      <trkpt lat="42.96587" lon="-0.20221">
        <ele>874.6</ele>
        <time>2025-07-22T12:05:36Z</time>
      </trkpt>
      <trkpt lat="42.96571" lon="-0.2021">
        <ele>874.8</ele>
        <time>2025-07-22T12:05:39Z</time>
      </trkpt>
      <trkpt lat="42.9654" lon="-0.20185">
        <ele>875</ele>
        <time>2025-07-22T12:05:45Z</time>
      </trkpt>
      <trkpt lat="42.96513" lon="-0.2017">
        <ele>874.6</ele>
        <time>2025-07-22T12:05:50Z</time>
      </trkpt>
      <trkpt lat="42.96502" lon="-0.20169">
        <ele>874.8</ele>
        <time>2025-07-22T12:05:52Z</time>
      </trkpt>
      <trkpt lat="42.96476" lon="-0.20183">
        <ele>875</ele>
        <time>2025-07-22T12:05:57Z</time>
      </trkpt>
      <trkpt lat="42.96467" lon="-0.20187">
        <ele>875</ele>
        <time>2025-07-22T12:05:59Z</time>
      </trkpt>
      <trkpt lat="42.96457" lon="-0.20189">
        <ele>875.2</ele>
        <time>2025-07-22T12:06:01Z</time>
      </trkpt>
      <trkpt lat="42.9645" lon="-0.20189">
        <ele>875.2</ele>
        <time>2025-07-22T12:06:02Z</time>
      </trkpt>
      <trkpt lat="42.96445" lon="-0.20187">
        <ele>875.2</ele>
        <time>2025-07-22T12:06:03Z</time>
      </trkpt>
      <trkpt lat="42.96434" lon="-0.20179">
        <ele>875.4</ele>
        <time>2025-07-22T12:06:05Z</time>
      </trkpt>
      <trkpt lat="42.96429" lon="-0.20174">
        <ele>875.2</ele>
        <time>2025-07-22T12:06:06Z</time>
      </trkpt>
      <trkpt lat="42.96423" lon="-0.20169">
        <ele>875.2</ele>
        <time>2025-07-22T12:06:07Z</time>
      </trkpt>
      <trkpt lat="42.96411" lon="-0.20163">
        <ele>875</ele>
        <time>2025-07-22T12:06:09Z</time>
      </trkpt>
      <trkpt lat="42.96404" lon="-0.20161">
        <ele>875</ele>
        <time>2025-07-22T12:06:10Z</time>
      </trkpt>
      <trkpt lat="42.96367" lon="-0.2016">
        <ele>874.6</ele>
        <time>2025-07-22T12:06:16Z</time>
      </trkpt>
      <trkpt lat="42.96327" lon="-0.20174">
        <ele>874.4</ele>
        <time>2025-07-22T12:06:23Z</time>
      </trkpt>
      <trkpt lat="42.96294" lon="-0.20192">
        <ele>874.8</ele>
        <time>2025-07-22T12:06:30Z</time>
      </trkpt>
      <trkpt lat="42.96264" lon="-0.20208">
        <ele>875.8</ele>
        <time>2025-07-22T12:06:37Z</time>
      </trkpt>
      <trkpt lat="42.96252" lon="-0.20216">
        <ele>876.2</ele>
        <time>2025-07-22T12:06:40Z</time>
      </trkpt>
      <trkpt lat="42.96232" lon="-0.20228">
        <ele>876.8</ele>
        <time>2025-07-22T12:06:45Z</time>
      </trkpt>
      <trkpt lat="42.96215" lon="-0.20238">
        <ele>877.4</ele>
        <time>2025-07-22T12:06:49Z</time>
      </trkpt>
      <trkpt lat="42.96203" lon="-0.20244">
        <ele>877.6</ele>
        <time>2025-07-22T12:06:52Z</time>
      </trkpt>
      <trkpt lat="42.96159" lon="-0.2027">
        <ele>878.4</ele>
        <time>2025-07-22T12:07:02Z</time>
      </trkpt>
      <trkpt lat="42.96145" lon="-0.20282">
        <ele>878.4</ele>
        <time>2025-07-22T12:07:05Z</time>
      </trkpt>
      <trkpt lat="42.96123" lon="-0.20307">
        <ele>878.6</ele>
        <time>2025-07-22T12:07:10Z</time>
      </trkpt>
      <trkpt lat="42.96101" lon="-0.20346">
        <ele>878.8</ele>
        <time>2025-07-22T12:07:16Z</time>
      </trkpt>
      <trkpt lat="42.96079" lon="-0.20406">
        <ele>879</ele>
        <time>2025-07-22T12:07:24Z</time>
      </trkpt>
      <trkpt lat="42.96053" lon="-0.20475">
        <ele>879.2</ele>
        <time>2025-07-22T12:07:33Z</time>
      </trkpt>
      <trkpt lat="42.96044" lon="-0.20499">
        <ele>879.2</ele>
        <time>2025-07-22T12:07:36Z</time>
      </trkpt>
      <trkpt lat="42.9602" lon="-0.20563">
        <ele>879</ele>
        <time>2025-07-22T12:07:44Z</time>
      </trkpt>
      <trkpt lat="42.95989" lon="-0.20634">
        <ele>879</ele>
        <time>2025-07-22T12:07:53Z</time>
      </trkpt>
      <trkpt lat="42.95962" lon="-0.20679">
        <ele>879.4</ele>
        <time>2025-07-22T12:08:00Z</time>
      </trkpt>
      <trkpt lat="42.9595" lon="-0.20696">
        <ele>879.8</ele>
        <time>2025-07-22T12:08:03Z</time>
      </trkpt>
      <trkpt lat="42.95931" lon="-0.20724">
        <ele>880</ele>
        <time>2025-07-22T12:08:08Z</time>
      </trkpt>
      <trkpt lat="42.95907" lon="-0.20765">
        <ele>880.6</ele>
        <time>2025-07-22T12:08:15Z</time>
      </trkpt>
      <trkpt lat="42.95901" lon="-0.20777">
        <ele>880.8</ele>
        <time>2025-07-22T12:08:17Z</time>
      </trkpt>
      <trkpt lat="42.95885" lon="-0.20806">
        <ele>881.2</ele>
        <time>2025-07-22T12:08:22Z</time>
      </trkpt>
      <trkpt lat="42.95861" lon="-0.20853">
        <ele>881.8</ele>
        <time>2025-07-22T12:08:30Z</time>
      </trkpt>
      <trkpt lat="42.95855" lon="-0.20865">
        <ele>882</ele>
        <time>2025-07-22T12:08:32Z</time>
      </trkpt>
      <trkpt lat="42.95832" lon="-0.20907">
        <ele>882.8</ele>
        <time>2025-07-22T12:08:39Z</time>
      </trkpt>
      <trkpt lat="42.95825" lon="-0.20918">
        <ele>883</ele>
        <time>2025-07-22T12:08:41Z</time>
      </trkpt>
      <trkpt lat="42.9579" lon="-0.20974">
        <ele>883.8</ele>
        <time>2025-07-22T12:08:51Z</time>
      </trkpt>
      <trkpt lat="42.95756" lon="-0.21028">
        <ele>884.6</ele>
        <time>2025-07-22T12:09:01Z</time>
      </trkpt>
      <trkpt lat="42.95747" lon="-0.21044">
        <ele>884.8</ele>
        <time>2025-07-22T12:09:04Z</time>
      </trkpt>
      <trkpt lat="42.95731" lon="-0.21069">
        <ele>885.2</ele>
        <time>2025-07-22T12:09:09Z</time>
      </trkpt>
      <trkpt lat="42.95713" lon="-0.21104">
        <ele>886</ele>
        <time>2025-07-22T12:09:16Z</time>
      </trkpt>
      <trkpt lat="42.95699" lon="-0.21141">
        <ele>886.8</ele>
        <time>2025-07-22T12:09:23Z</time>
      </trkpt>
      <trkpt lat="42.95692" lon="-0.21161">
        <ele>887</ele>
        <time>2025-07-22T12:09:27Z</time>
      </trkpt>
      <trkpt lat="42.95679" lon="-0.21196">
        <ele>887.2</ele>
        <time>2025-07-22T12:09:33Z</time>
      </trkpt>
      <trkpt lat="42.95675" lon="-0.21206">
        <ele>887.2</ele>
        <time>2025-07-22T12:09:35Z</time>
      </trkpt>
      <trkpt lat="42.95669" lon="-0.21224">
        <ele>887.4</ele>
        <time>2025-07-22T12:09:39Z</time>
      </trkpt>
      <trkpt lat="42.95665" lon="-0.21229">
        <ele>887.6</ele>
        <time>2025-07-22T12:09:41Z</time>
      </trkpt>
      <trkpt lat="42.95662" lon="-0.2123">
        <ele>887.8</ele>
        <time>2025-07-22T12:09:43Z</time>
      </trkpt>
      <trkpt lat="42.95662" lon="-0.21231">
        <ele>887.8</ele>
        <time>2025-07-22T12:09:47Z</time>
      </trkpt>
      <trkpt lat="42.95662" lon="-0.21233">
        <ele>887.8</ele>
        <time>2025-07-22T12:09:54Z</time>
      </trkpt>
      <trkpt lat="42.95661" lon="-0.21233">
        <ele>888</ele>
        <time>2025-07-22T12:09:58Z</time>
      </trkpt>
      <trkpt lat="42.95665" lon="-0.21237">
        <ele>888.2</ele>
        <time>2025-07-22T12:23:36Z</time>
      </trkpt>
      <trkpt lat="42.95667" lon="-0.21244">
        <ele>888.2</ele>
        <time>2025-07-22T12:23:38Z</time>
      </trkpt>
      <trkpt lat="42.95667" lon="-0.21253">
        <ele>888.2</ele>
        <time>2025-07-22T12:23:40Z</time>
      </trkpt>
      <trkpt lat="42.95665" lon="-0.21283">
        <ele>887.8</ele>
        <time>2025-07-22T12:23:46Z</time>
      </trkpt>
      <trkpt lat="42.95654" lon="-0.21318">
        <ele>888.2</ele>
        <time>2025-07-22T12:23:53Z</time>
      </trkpt>
      <trkpt lat="42.95643" lon="-0.21338">
        <ele>888.6</ele>
        <time>2025-07-22T12:23:58Z</time>
      </trkpt>
      <trkpt lat="42.95629" lon="-0.21358">
        <ele>889</ele>
        <time>2025-07-22T12:24:04Z</time>
      </trkpt>
      <trkpt lat="42.95621" lon="-0.21375">
        <ele>889.4</ele>
        <time>2025-07-22T12:24:08Z</time>
      </trkpt>
      <trkpt lat="42.9562" lon="-0.2138">
        <ele>889.4</ele>
        <time>2025-07-22T12:24:09Z</time>
      </trkpt>
      <trkpt lat="42.95619" lon="-0.21394">
        <ele>889.6</ele>
        <time>2025-07-22T12:24:12Z</time>
      </trkpt>
      <trkpt lat="42.95618" lon="-0.21419">
        <ele>890.6</ele>
        <time>2025-07-22T12:24:17Z</time>
      </trkpt>
      <trkpt lat="42.95618" lon="-0.21423">
        <ele>890.8</ele>
        <time>2025-07-22T12:24:18Z</time>
      </trkpt>
      <trkpt lat="42.95627" lon="-0.21451">
        <ele>890.8</ele>
        <time>2025-07-22T12:24:24Z</time>
      </trkpt>
      <trkpt lat="42.95637" lon="-0.21478">
        <ele>891.4</ele>
        <time>2025-07-22T12:24:30Z</time>
      </trkpt>
      <trkpt lat="42.95648" lon="-0.2151">
        <ele>892.6</ele>
        <time>2025-07-22T12:24:38Z</time>
      </trkpt>
      <trkpt lat="42.95663" lon="-0.21529">
        <ele>893.4</ele>
        <time>2025-07-22T12:24:44Z</time>
      </trkpt>
      <trkpt lat="42.95669" lon="-0.21535">
        <ele>893.6</ele>
        <time>2025-07-22T12:24:46Z</time>
      </trkpt>
      <trkpt lat="42.95678" lon="-0.21543">
        <ele>894</ele>
        <time>2025-07-22T12:24:49Z</time>
      </trkpt>
      <trkpt lat="42.9568" lon="-0.21545">
        <ele>894</ele>
        <time>2025-07-22T12:24:50Z</time>
      </trkpt>
      <trkpt lat="42.95699" lon="-0.21556">
        <ele>894.8</ele>
        <time>2025-07-22T12:24:56Z</time>
      </trkpt>
      <trkpt lat="42.95712" lon="-0.21559">
        <ele>895.6</ele>
        <time>2025-07-22T12:25:01Z</time>
      </trkpt>
      <trkpt lat="42.95714" lon="-0.2156">
        <ele>895.8</ele>
        <time>2025-07-22T12:25:02Z</time>
      </trkpt>
      <trkpt lat="42.95725" lon="-0.21563">
        <ele>896.4</ele>
        <time>2025-07-22T12:25:07Z</time>
      </trkpt>
      <trkpt lat="42.9573" lon="-0.21563">
        <ele>896.8</ele>
        <time>2025-07-22T12:25:09Z</time>
      </trkpt>
      <trkpt lat="42.95739" lon="-0.21559">
        <ele>898</ele>
        <time>2025-07-22T12:25:14Z</time>
      </trkpt>
      <trkpt lat="42.9575" lon="-0.2155">
        <ele>899.2</ele>
        <time>2025-07-22T12:25:20Z</time>
      </trkpt>
      <trkpt lat="42.95756" lon="-0.21544">
        <ele>900.2</ele>
        <time>2025-07-22T12:25:24Z</time>
      </trkpt>
      <trkpt lat="42.95758" lon="-0.21543">
        <ele>900.6</ele>
        <time>2025-07-22T12:25:25Z</time>
      </trkpt>
      <trkpt lat="42.95763" lon="-0.21538">
        <ele>901.2</ele>
        <time>2025-07-22T12:25:28Z</time>
      </trkpt>
      <trkpt lat="42.95771" lon="-0.21531">
        <ele>902.4</ele>
        <time>2025-07-22T12:25:33Z</time>
      </trkpt>
      <trkpt lat="42.95776" lon="-0.21527">
        <ele>902.8</ele>
        <time>2025-07-22T12:25:36Z</time>
      </trkpt>
      <trkpt lat="42.95781" lon="-0.21524">
        <ele>903.4</ele>
        <time>2025-07-22T12:25:39Z</time>
      </trkpt>
      <trkpt lat="42.95793" lon="-0.21517">
        <ele>904.4</ele>
        <time>2025-07-22T12:25:46Z</time>
      </trkpt>
      <trkpt lat="42.95794" lon="-0.21516">
        <ele>904.4</ele>
        <time>2025-07-22T12:25:47Z</time>
      </trkpt>
      <trkpt lat="42.95807" lon="-0.21505">
        <ele>905.4</ele>
        <time>2025-07-22T12:25:55Z</time>
      </trkpt>
      <trkpt lat="42.95814" lon="-0.21495">
        <ele>906.6</ele>
        <time>2025-07-22T12:26:01Z</time>
      </trkpt>
      <trkpt lat="42.95815" lon="-0.21493">
        <ele>907</ele>
        <time>2025-07-22T12:26:02Z</time>
      </trkpt>
      <trkpt lat="42.9582" lon="-0.21485">
        <ele>907.6</ele>
        <time>2025-07-22T12:26:06Z</time>
      </trkpt>
      <trkpt lat="42.95826" lon="-0.21475">
        <ele>908.4</ele>
        <time>2025-07-22T12:26:11Z</time>
      </trkpt>
      <trkpt lat="42.95829" lon="-0.21468">
        <ele>908.8</ele>
        <time>2025-07-22T12:26:14Z</time>
      </trkpt>
      <trkpt lat="42.95837" lon="-0.21453">
        <ele>910</ele>
        <time>2025-07-22T12:26:21Z</time>
      </trkpt>
      <trkpt lat="42.95838" lon="-0.2145">
        <ele>910</ele>
        <time>2025-07-22T12:26:22Z</time>
      </trkpt>
      <trkpt lat="42.95844" lon="-0.21438">
        <ele>911</ele>
        <time>2025-07-22T12:26:27Z</time>
      </trkpt>
      <trkpt lat="42.95845" lon="-0.21433">
        <ele>911.6</ele>
        <time>2025-07-22T12:26:29Z</time>
      </trkpt>
      <trkpt lat="42.95847" lon="-0.21426">
        <ele>912</ele>
        <time>2025-07-22T12:26:32Z</time>
      </trkpt>
      <trkpt lat="42.9585" lon="-0.21411">
        <ele>913.2</ele>
        <time>2025-07-22T12:26:38Z</time>
      </trkpt>
      <trkpt lat="42.95851" lon="-0.21395">
        <ele>914.4</ele>
        <time>2025-07-22T12:26:44Z</time>
      </trkpt>
      <trkpt lat="42.95852" lon="-0.21385">
        <ele>914.8</ele>
        <time>2025-07-22T12:26:48Z</time>
      </trkpt>
      <trkpt lat="42.95853" lon="-0.21377">
        <ele>915.4</ele>
        <time>2025-07-22T12:26:51Z</time>
      </trkpt>
      <trkpt lat="42.95857" lon="-0.21364">
        <ele>916.2</ele>
        <time>2025-07-22T12:26:56Z</time>
      </trkpt>
      <trkpt lat="42.95859" lon="-0.21359">
        <ele>916.6</ele>
        <time>2025-07-22T12:26:58Z</time>
      </trkpt>
      <trkpt lat="42.95865" lon="-0.21349">
        <ele>917.4</ele>
        <time>2025-07-22T12:27:03Z</time>
      </trkpt>
      <trkpt lat="42.95868" lon="-0.21345">
        <ele>917.8</ele>
        <time>2025-07-22T12:27:05Z</time>
      </trkpt>
      <trkpt lat="42.95877" lon="-0.21338">
        <ele>918.6</ele>
        <time>2025-07-22T12:27:10Z</time>
      </trkpt>
      <trkpt lat="42.95881" lon="-0.21335">
        <ele>918.8</ele>
        <time>2025-07-22T12:27:12Z</time>
      </trkpt>
      <trkpt lat="42.95893" lon="-0.21325">
        <ele>920</ele>
        <time>2025-07-22T12:27:19Z</time>
      </trkpt>
      <trkpt lat="42.95895" lon="-0.21323">
        <ele>920.2</ele>
        <time>2025-07-22T12:27:20Z</time>
      </trkpt>
      <trkpt lat="42.95903" lon="-0.21312">
        <ele>921.2</ele>
        <time>2025-07-22T12:27:26Z</time>
      </trkpt>
      <trkpt lat="42.95904" lon="-0.21308">
        <ele>921.6</ele>
        <time>2025-07-22T12:27:28Z</time>
      </trkpt>
      <trkpt lat="42.95908" lon="-0.213">
        <ele>922.2</ele>
        <time>2025-07-22T12:27:31Z</time>
      </trkpt>
      <trkpt lat="42.95917" lon="-0.21285">
        <ele>923.4</ele>
        <time>2025-07-22T12:27:38Z</time>
      </trkpt>
      <trkpt lat="42.95929" lon="-0.21265">
        <ele>924.4</ele>
        <time>2025-07-22T12:27:47Z</time>
      </trkpt>
      <trkpt lat="42.9593" lon="-0.21263">
        <ele>924.6</ele>
        <time>2025-07-22T12:27:48Z</time>
      </trkpt>
      <trkpt lat="42.95939" lon="-0.21251">
        <ele>925.8</ele>
        <time>2025-07-22T12:27:54Z</time>
      </trkpt>
      <trkpt lat="42.95943" lon="-0.21246">
        <ele>926</ele>
        <time>2025-07-22T12:27:56Z</time>
      </trkpt>
      <trkpt lat="42.95949" lon="-0.21239">
        <ele>926.8</ele>
        <time>2025-07-22T12:28:00Z</time>
      </trkpt>
      <trkpt lat="42.95959" lon="-0.21227">
        <ele>928</ele>
        <time>2025-07-22T12:28:07Z</time>
      </trkpt>
      <trkpt lat="42.95961" lon="-0.21226">
        <ele>928</ele>
        <time>2025-07-22T12:28:08Z</time>
      </trkpt>
      <trkpt lat="42.95969" lon="-0.21218">
        <ele>929</ele>
        <time>2025-07-22T12:28:13Z</time>
      </trkpt>
      <trkpt lat="42.95978" lon="-0.2121">
        <ele>929.6</ele>
        <time>2025-07-22T12:28:18Z</time>
      </trkpt>
      <trkpt lat="42.9598" lon="-0.21206">
        <ele>930</ele>
        <time>2025-07-22T12:28:20Z</time>
      </trkpt>
      <trkpt lat="42.95988" lon="-0.21197">
        <ele>931.2</ele>
        <time>2025-07-22T12:28:25Z</time>
      </trkpt>
      <trkpt lat="42.95992" lon="-0.21192">
        <ele>931.8</ele>
        <time>2025-07-22T12:28:28Z</time>
      </trkpt>
      <trkpt lat="42.95998" lon="-0.21185">
        <ele>932.4</ele>
        <time>2025-07-22T12:28:32Z</time>
      </trkpt>
      <trkpt lat="42.96007" lon="-0.21173">
        <ele>933.4</ele>
        <time>2025-07-22T12:28:38Z</time>
      </trkpt>
      <trkpt lat="42.96009" lon="-0.2117">
        <ele>933.6</ele>
        <time>2025-07-22T12:28:39Z</time>
      </trkpt>
      <trkpt lat="42.96015" lon="-0.21157">
        <ele>934.6</ele>
        <time>2025-07-22T12:28:45Z</time>
      </trkpt>
      <trkpt lat="42.96016" lon="-0.21152">
        <ele>935.2</ele>
        <time>2025-07-22T12:28:47Z</time>
      </trkpt>
      <trkpt lat="42.96017" lon="-0.2115">
        <ele>935.4</ele>
        <time>2025-07-22T12:28:48Z</time>
      </trkpt>
      <trkpt lat="42.96018" lon="-0.21144">
        <ele>936</ele>
        <time>2025-07-22T12:28:50Z</time>
      </trkpt>
      <trkpt lat="42.96019" lon="-0.21139">
        <ele>936.4</ele>
        <time>2025-07-22T12:28:52Z</time>
      </trkpt>
      <trkpt lat="42.96023" lon="-0.21128">
        <ele>937</ele>
        <time>2025-07-22T12:28:56Z</time>
      </trkpt>
      <trkpt lat="42.96024" lon="-0.21126">
        <ele>937.2</ele>
        <time>2025-07-22T12:28:57Z</time>
      </trkpt>
      <trkpt lat="42.96027" lon="-0.21122">
        <ele>937.4</ele>
        <time>2025-07-22T12:28:59Z</time>
      </trkpt>
      <trkpt lat="42.96036" lon="-0.21115">
        <ele>938.4</ele>
        <time>2025-07-22T12:29:04Z</time>
      </trkpt>
      <trkpt lat="42.96042" lon="-0.21114">
        <ele>939.2</ele>
        <time>2025-07-22T12:29:07Z</time>
      </trkpt>
      <trkpt lat="42.96051" lon="-0.21116">
        <ele>939.6</ele>
        <time>2025-07-22T12:29:11Z</time>
      </trkpt>
      <trkpt lat="42.96055" lon="-0.21119">
        <ele>939.8</ele>
        <time>2025-07-22T12:29:13Z</time>
      </trkpt>
      <trkpt lat="42.96065" lon="-0.21134">
        <ele>940.6</ele>
        <time>2025-07-22T12:29:20Z</time>
      </trkpt>
      <trkpt lat="42.96067" lon="-0.21155">
        <ele>941.4</ele>
        <time>2025-07-22T12:29:27Z</time>
      </trkpt>
      <trkpt lat="42.96067" lon="-0.21164">
        <ele>941.8</ele>
        <time>2025-07-22T12:29:30Z</time>
      </trkpt>
      <trkpt lat="42.96066" lon="-0.21179">
        <ele>942.2</ele>
        <time>2025-07-22T12:29:35Z</time>
      </trkpt>
      <trkpt lat="42.96066" lon="-0.2119">
        <ele>942.8</ele>
        <time>2025-07-22T12:29:39Z</time>
      </trkpt>
      <trkpt lat="42.96066" lon="-0.21204">
        <ele>943.6</ele>
        <time>2025-07-22T12:29:44Z</time>
      </trkpt>
      <trkpt lat="42.96066" lon="-0.2121">
        <ele>944</ele>
        <time>2025-07-22T12:29:46Z</time>
      </trkpt>
      <trkpt lat="42.96066" lon="-0.21233">
        <ele>945</ele>
        <time>2025-07-22T12:29:54Z</time>
      </trkpt>
      <trkpt lat="42.96066" lon="-0.21236">
        <ele>945</ele>
        <time>2025-07-22T12:29:55Z</time>
      </trkpt>
      <trkpt lat="42.96066" lon="-0.21253">
        <ele>946.2</ele>
        <time>2025-07-22T12:30:01Z</time>
      </trkpt>
      <trkpt lat="42.96066" lon="-0.21273">
        <ele>947</ele>
        <time>2025-07-22T12:30:08Z</time>
      </trkpt>
      <trkpt lat="42.96066" lon="-0.21276">
        <ele>947.2</ele>
        <time>2025-07-22T12:30:09Z</time>
      </trkpt>
      <trkpt lat="42.96067" lon="-0.21295">
        <ele>948.4</ele>
        <time>2025-07-22T12:30:16Z</time>
      </trkpt>
      <trkpt lat="42.96066" lon="-0.21305">
        <ele>949.2</ele>
        <time>2025-07-22T12:30:19Z</time>
      </trkpt>
      <trkpt lat="42.96066" lon="-0.21311">
        <ele>949.4</ele>
        <time>2025-07-22T12:30:21Z</time>
      </trkpt>
      <trkpt lat="42.96063" lon="-0.21326">
        <ele>950.6</ele>
        <time>2025-07-22T12:30:26Z</time>
      </trkpt>
      <trkpt lat="42.96062" lon="-0.21328">
        <ele>950.8</ele>
        <time>2025-07-22T12:30:27Z</time>
      </trkpt>
      <trkpt lat="42.96059" lon="-0.21342">
        <ele>951.6</ele>
        <time>2025-07-22T12:30:32Z</time>
      </trkpt>
      <trkpt lat="42.96058" lon="-0.21347">
        <ele>951.8</ele>
        <time>2025-07-22T12:30:34Z</time>
      </trkpt>
      <trkpt lat="42.96057" lon="-0.21357">
        <ele>952.6</ele>
        <time>2025-07-22T12:30:37Z</time>
      </trkpt>
      <trkpt lat="42.96056" lon="-0.21374">
        <ele>953.6</ele>
        <time>2025-07-22T12:30:43Z</time>
      </trkpt>
      <trkpt lat="42.96056" lon="-0.21377">
        <ele>953.8</ele>
        <time>2025-07-22T12:30:44Z</time>
      </trkpt>
      <trkpt lat="42.96061" lon="-0.21395">
        <ele>955</ele>
        <time>2025-07-22T12:30:51Z</time>
      </trkpt>
      <trkpt lat="42.96067" lon="-0.21407">
        <ele>956</ele>
        <time>2025-07-22T12:30:56Z</time>
      </trkpt>
      <trkpt lat="42.9607" lon="-0.21414">
        <ele>957</ele>
        <time>2025-07-22T12:30:59Z</time>
      </trkpt>
      <trkpt lat="42.96072" lon="-0.21416">
        <ele>957</ele>
        <time>2025-07-22T12:31:00Z</time>
      </trkpt>
      <trkpt lat="42.96076" lon="-0.21422">
        <ele>957.8</ele>
        <time>2025-07-22T12:31:03Z</time>
      </trkpt>
      <trkpt lat="42.96079" lon="-0.21425">
        <ele>958</ele>
        <time>2025-07-22T12:31:05Z</time>
      </trkpt>
      <trkpt lat="42.96087" lon="-0.21436">
        <ele>959.2</ele>
        <time>2025-07-22T12:31:10Z</time>
      </trkpt>
      <trkpt lat="42.96093" lon="-0.21443">
        <ele>960</ele>
        <time>2025-07-22T12:31:14Z</time>
      </trkpt>
      <trkpt lat="42.96095" lon="-0.21448">
        <ele>960.2</ele>
        <time>2025-07-22T12:31:16Z</time>
      </trkpt>
      <trkpt lat="42.961" lon="-0.21464">
        <ele>961.4</ele>
        <time>2025-07-22T12:31:23Z</time>
      </trkpt>
      <trkpt lat="42.96103" lon="-0.21483">
        <ele>962.4</ele>
        <time>2025-07-22T12:31:30Z</time>
      </trkpt>
      <trkpt lat="42.96103" lon="-0.21486">
        <ele>962.8</ele>
        <time>2025-07-22T12:31:31Z</time>
      </trkpt>
      <trkpt lat="42.96103" lon="-0.21495">
        <ele>963.6</ele>
        <time>2025-07-22T12:31:34Z</time>
      </trkpt>
      <trkpt lat="42.96102" lon="-0.21514">
        <ele>964.8</ele>
        <time>2025-07-22T12:31:41Z</time>
      </trkpt>
      <trkpt lat="42.96102" lon="-0.2152">
        <ele>965</ele>
        <time>2025-07-22T12:31:43Z</time>
      </trkpt>
      <trkpt lat="42.961" lon="-0.21539">
        <ele>966</ele>
        <time>2025-07-22T12:31:50Z</time>
      </trkpt>
      <trkpt lat="42.961" lon="-0.21548">
        <ele>966.4</ele>
        <time>2025-07-22T12:31:53Z</time>
      </trkpt>
      <trkpt lat="42.96099" lon="-0.21553">
        <ele>967</ele>
        <time>2025-07-22T12:31:55Z</time>
      </trkpt>
      <trkpt lat="42.96097" lon="-0.2157">
        <ele>968</ele>
        <time>2025-07-22T12:32:01Z</time>
      </trkpt>
      <trkpt lat="42.96096" lon="-0.21578">
        <ele>968.6</ele>
        <time>2025-07-22T12:32:04Z</time>
      </trkpt>
      <trkpt lat="42.96096" lon="-0.21583">
        <ele>969</ele>
        <time>2025-07-22T12:32:06Z</time>
      </trkpt>
      <trkpt lat="42.96094" lon="-0.216">
        <ele>970</ele>
        <time>2025-07-22T12:32:12Z</time>
      </trkpt>
      <trkpt lat="42.96094" lon="-0.21605">
        <ele>970.4</ele>
        <time>2025-07-22T12:32:14Z</time>
      </trkpt>
      <trkpt lat="42.96092" lon="-0.21617">
        <ele>971.4</ele>
        <time>2025-07-22T12:32:18Z</time>
      </trkpt>
      <trkpt lat="42.96091" lon="-0.21632">
        <ele>972.6</ele>
        <time>2025-07-22T12:32:23Z</time>
      </trkpt>
      <trkpt lat="42.9609" lon="-0.21648">
        <ele>973.6</ele>
        <time>2025-07-22T12:32:29Z</time>
      </trkpt>
      <trkpt lat="42.96091" lon="-0.21654">
        <ele>974</ele>
        <time>2025-07-22T12:32:31Z</time>
      </trkpt>
      <trkpt lat="42.96091" lon="-0.21662">
        <ele>974.6</ele>
        <time>2025-07-22T12:32:34Z</time>
      </trkpt>
      <trkpt lat="42.96093" lon="-0.21679">
        <ele>975.4</ele>
        <time>2025-07-22T12:32:40Z</time>
      </trkpt>
      <trkpt lat="42.96093" lon="-0.21686">
        <ele>975.6</ele>
        <time>2025-07-22T12:32:42Z</time>
      </trkpt>
      <trkpt lat="42.96094" lon="-0.217">
        <ele>976.8</ele>
        <time>2025-07-22T12:32:47Z</time>
      </trkpt>
      <trkpt lat="42.96093" lon="-0.2172">
        <ele>977.6</ele>
        <time>2025-07-22T12:32:54Z</time>
      </trkpt>
      <trkpt lat="42.96093" lon="-0.21722">
        <ele>977.8</ele>
        <time>2025-07-22T12:32:55Z</time>
      </trkpt>
      <trkpt lat="42.96089" lon="-0.21739">
        <ele>978.6</ele>
        <time>2025-07-22T12:33:01Z</time>
      </trkpt>
      <trkpt lat="42.96088" lon="-0.21742">
        <ele>978.8</ele>
        <time>2025-07-22T12:33:02Z</time>
      </trkpt>
      <trkpt lat="42.96084" lon="-0.21762">
        <ele>979.8</ele>
        <time>2025-07-22T12:33:09Z</time>
      </trkpt>
      <trkpt lat="42.96084" lon="-0.21765">
        <ele>979.8</ele>
        <time>2025-07-22T12:33:10Z</time>
      </trkpt>
      <trkpt lat="42.96083" lon="-0.21783">
        <ele>980.8</ele>
        <time>2025-07-22T12:33:16Z</time>
      </trkpt>
      <trkpt lat="42.96083" lon="-0.21788">
        <ele>981</ele>
        <time>2025-07-22T12:33:18Z</time>
      </trkpt>
      <trkpt lat="42.96085" lon="-0.21803">
        <ele>982</ele>
        <time>2025-07-22T12:33:23Z</time>
      </trkpt>
      <trkpt lat="42.96086" lon="-0.21817">
        <ele>982.6</ele>
        <time>2025-07-22T12:33:28Z</time>
      </trkpt>
      <trkpt lat="42.96087" lon="-0.21823">
        <ele>983</ele>
        <time>2025-07-22T12:33:30Z</time>
      </trkpt>
      <trkpt lat="42.96087" lon="-0.21829">
        <ele>983.6</ele>
        <time>2025-07-22T12:33:32Z</time>
      </trkpt>
      <trkpt lat="42.96087" lon="-0.21839">
        <ele>984.2</ele>
        <time>2025-07-22T12:33:35Z</time>
      </trkpt>
      <trkpt lat="42.96086" lon="-0.21847">
        <ele>984.6</ele>
        <time>2025-07-22T12:33:38Z</time>
      </trkpt>
      <trkpt lat="42.96084" lon="-0.21857">
        <ele>985.2</ele>
        <time>2025-07-22T12:33:41Z</time>
      </trkpt>
      <trkpt lat="42.96079" lon="-0.21868">
        <ele>985.6</ele>
        <time>2025-07-22T12:33:45Z</time>
      </trkpt>
      <trkpt lat="42.96074" lon="-0.21879">
        <ele>986.4</ele>
        <time>2025-07-22T12:33:49Z</time>
      </trkpt>
      <trkpt lat="42.96072" lon="-0.21887">
        <ele>987</ele>
        <time>2025-07-22T12:33:52Z</time>
      </trkpt>
      <trkpt lat="42.9607" lon="-0.21895">
        <ele>987.6</ele>
        <time>2025-07-22T12:33:55Z</time>
      </trkpt>
      <trkpt lat="42.96069" lon="-0.2191">
        <ele>988</ele>
        <time>2025-07-22T12:34:00Z</time>
      </trkpt>
      <trkpt lat="42.9607" lon="-0.21919">
        <ele>988.6</ele>
        <time>2025-07-22T12:34:03Z</time>
      </trkpt>
      <trkpt lat="42.96071" lon="-0.21928">
        <ele>989</ele>
        <time>2025-07-22T12:34:06Z</time>
      </trkpt>
      <trkpt lat="42.96074" lon="-0.21937">
        <ele>989.4</ele>
        <time>2025-07-22T12:34:09Z</time>
      </trkpt>
      <trkpt lat="42.96075" lon="-0.21943">
        <ele>989.6</ele>
        <time>2025-07-22T12:34:11Z</time>
      </trkpt>
      <trkpt lat="42.96076" lon="-0.21949">
        <ele>990</ele>
        <time>2025-07-22T12:34:13Z</time>
      </trkpt>
      <trkpt lat="42.96081" lon="-0.21971">
        <ele>990.6</ele>
        <time>2025-07-22T12:34:18Z</time>
      </trkpt>
      <trkpt lat="42.96084" lon="-0.21982">
        <ele>990.6</ele>
        <time>2025-07-22T12:34:20Z</time>
      </trkpt>
      <trkpt lat="42.96088" lon="-0.2201">
        <ele>991.2</ele>
        <time>2025-07-22T12:34:26Z</time>
      </trkpt>
      <trkpt lat="42.96089" lon="-0.22025">
        <ele>991.8</ele>
        <time>2025-07-22T12:34:30Z</time>
      </trkpt>
      <trkpt lat="42.9609" lon="-0.2203">
        <ele>992.2</ele>
        <time>2025-07-22T12:34:32Z</time>
      </trkpt>
      <trkpt lat="42.96095" lon="-0.22041">
        <ele>992.8</ele>
        <time>2025-07-22T12:34:36Z</time>
      </trkpt>
      <trkpt lat="42.96099" lon="-0.22045">
        <ele>993.2</ele>
        <time>2025-07-22T12:34:38Z</time>
      </trkpt>
      <trkpt lat="42.96104" lon="-0.22047">
        <ele>994</ele>
        <time>2025-07-22T12:34:41Z</time>
      </trkpt>
      <trkpt lat="42.9611" lon="-0.22049">
        <ele>995</ele>
        <time>2025-07-22T12:34:44Z</time>
      </trkpt>
      <trkpt lat="42.96112" lon="-0.22049">
        <ele>995.2</ele>
        <time>2025-07-22T12:34:45Z</time>
      </trkpt>
      <trkpt lat="42.96117" lon="-0.22047">
        <ele>996.2</ele>
        <time>2025-07-22T12:34:47Z</time>
      </trkpt>
      <trkpt lat="42.96122" lon="-0.22041">
        <ele>996.8</ele>
        <time>2025-07-22T12:34:50Z</time>
      </trkpt>
      <trkpt lat="42.96123" lon="-0.22035">
        <ele>997.2</ele>
        <time>2025-07-22T12:34:52Z</time>
      </trkpt>
      <trkpt lat="42.96125" lon="-0.22021">
        <ele>998</ele>
        <time>2025-07-22T12:34:57Z</time>
      </trkpt>
      <trkpt lat="42.96125" lon="-0.22016">
        <ele>998.2</ele>
        <time>2025-07-22T12:34:59Z</time>
      </trkpt>
      <trkpt lat="42.96123" lon="-0.22002">
        <ele>999.2</ele>
        <time>2025-07-22T12:35:04Z</time>
      </trkpt>
      <trkpt lat="42.96119" lon="-0.21991">
        <ele>1000.4</ele>
        <time>2025-07-22T12:35:08Z</time>
      </trkpt>
      <trkpt lat="42.96117" lon="-0.21976">
        <ele>1001.4</ele>
        <time>2025-07-22T12:35:13Z</time>
      </trkpt>
      <trkpt lat="42.96117" lon="-0.21973">
        <ele>1001.4</ele>
        <time>2025-07-22T12:35:14Z</time>
      </trkpt>
      <trkpt lat="42.96118" lon="-0.21958">
        <ele>1002.6</ele>
        <time>2025-07-22T12:35:19Z</time>
      </trkpt>
      <trkpt lat="42.96118" lon="-0.21955">
        <ele>1002.6</ele>
        <time>2025-07-22T12:35:20Z</time>
      </trkpt>
      <trkpt lat="42.9612" lon="-0.21946">
        <ele>1003.6</ele>
        <time>2025-07-22T12:35:23Z</time>
      </trkpt>
      <trkpt lat="42.96125" lon="-0.21936">
        <ele>1004.8</ele>
        <time>2025-07-22T12:35:27Z</time>
      </trkpt>
      <trkpt lat="42.9613" lon="-0.21929">
        <ele>1006</ele>
        <time>2025-07-22T12:35:30Z</time>
      </trkpt>
      <trkpt lat="42.9614" lon="-0.2192">
        <ele>1007.4</ele>
        <time>2025-07-22T12:35:35Z</time>
      </trkpt>
      <trkpt lat="42.96152" lon="-0.21918">
        <ele>1008.6</ele>
        <time>2025-07-22T12:35:40Z</time>
      </trkpt>
      <trkpt lat="42.96156" lon="-0.21918">
        <ele>1008.8</ele>
        <time>2025-07-22T12:35:42Z</time>
      </trkpt>
      <trkpt lat="42.96165" lon="-0.2192">
        <ele>1009.6</ele>
        <time>2025-07-22T12:35:46Z</time>
      </trkpt>
      <trkpt lat="42.96177" lon="-0.21925">
        <ele>1010.4</ele>
        <time>2025-07-22T12:35:52Z</time>
      </trkpt>
      <trkpt lat="42.96179" lon="-0.21925">
        <ele>1010.6</ele>
        <time>2025-07-22T12:35:53Z</time>
      </trkpt>
      <trkpt lat="42.96189" lon="-0.21928">
        <ele>1011.8</ele>
        <time>2025-07-22T12:35:58Z</time>
      </trkpt>
      <trkpt lat="42.96193" lon="-0.21929">
        <ele>1012.2</ele>
        <time>2025-07-22T12:36:00Z</time>
      </trkpt>
      <trkpt lat="42.962" lon="-0.21932">
        <ele>1012.8</ele>
        <time>2025-07-22T12:36:03Z</time>
      </trkpt>
      <trkpt lat="42.9621" lon="-0.21932">
        <ele>1013.6</ele>
        <time>2025-07-22T12:36:08Z</time>
      </trkpt>
      <trkpt lat="42.96217" lon="-0.21932">
        <ele>1013.8</ele>
        <time>2025-07-22T12:36:11Z</time>
      </trkpt>
      <trkpt lat="42.96227" lon="-0.21925">
        <ele>1014.8</ele>
        <time>2025-07-22T12:36:16Z</time>
      </trkpt>
      <trkpt lat="42.96229" lon="-0.21923">
        <ele>1015</ele>
        <time>2025-07-22T12:36:17Z</time>
      </trkpt>
      <trkpt lat="42.96234" lon="-0.21914">
        <ele>1015.4</ele>
        <time>2025-07-22T12:36:21Z</time>
      </trkpt>
      <trkpt lat="42.96235" lon="-0.21911">
        <ele>1015.8</ele>
        <time>2025-07-22T12:36:22Z</time>
      </trkpt>
      <trkpt lat="42.96235" lon="-0.21908">
        <ele>1016</ele>
        <time>2025-07-22T12:36:23Z</time>
      </trkpt>
      <trkpt lat="42.96234" lon="-0.21897">
        <ele>1017.2</ele>
        <time>2025-07-22T12:36:27Z</time>
      </trkpt>
      <trkpt lat="42.96232" lon="-0.21892">
        <ele>1017.8</ele>
        <time>2025-07-22T12:36:29Z</time>
      </trkpt>
      <trkpt lat="42.9623" lon="-0.21886">
        <ele>1018.2</ele>
        <time>2025-07-22T12:36:31Z</time>
      </trkpt>
      <trkpt lat="42.96226" lon="-0.21875">
        <ele>1019</ele>
        <time>2025-07-22T12:36:36Z</time>
      </trkpt>
      <trkpt lat="42.96225" lon="-0.2187">
        <ele>1019.6</ele>
        <time>2025-07-22T12:36:38Z</time>
      </trkpt>
      <trkpt lat="42.96222" lon="-0.21858">
        <ele>1020</ele>
        <time>2025-07-22T12:36:42Z</time>
      </trkpt>
      <trkpt lat="42.96222" lon="-0.2185">
        <ele>1021</ele>
        <time>2025-07-22T12:36:45Z</time>
      </trkpt>
      <trkpt lat="42.96223" lon="-0.21847">
        <ele>1021</ele>
        <time>2025-07-22T12:36:46Z</time>
      </trkpt>
      <trkpt lat="42.96228" lon="-0.21825">
        <ele>1022.4</ele>
        <time>2025-07-22T12:36:54Z</time>
      </trkpt>
      <trkpt lat="42.96231" lon="-0.21817">
        <ele>1022.6</ele>
        <time>2025-07-22T12:36:57Z</time>
      </trkpt>
      <trkpt lat="42.96233" lon="-0.2181">
        <ele>1023.4</ele>
        <time>2025-07-22T12:37:00Z</time>
      </trkpt>
      <trkpt lat="42.9624" lon="-0.21796">
        <ele>1024.6</ele>
        <time>2025-07-22T12:37:06Z</time>
      </trkpt>
      <trkpt lat="42.96245" lon="-0.21791">
        <ele>1025</ele>
        <time>2025-07-22T12:37:09Z</time>
      </trkpt>
      <trkpt lat="42.9625" lon="-0.21786">
        <ele>1025.8</ele>
        <time>2025-07-22T12:37:12Z</time>
      </trkpt>
      <trkpt lat="42.9626" lon="-0.21783">
        <ele>1026.8</ele>
        <time>2025-07-22T12:37:17Z</time>
      </trkpt>
      <trkpt lat="42.96263" lon="-0.21783">
        <ele>1027</ele>
        <time>2025-07-22T12:37:18Z</time>
      </trkpt>
      <trkpt lat="42.96267" lon="-0.21783">
        <ele>1027.4</ele>
        <time>2025-07-22T12:37:20Z</time>
      </trkpt>
      <trkpt lat="42.96275" lon="-0.21786">
        <ele>1028.2</ele>
        <time>2025-07-22T12:37:24Z</time>
      </trkpt>
      <trkpt lat="42.96279" lon="-0.21788">
        <ele>1028.6</ele>
        <time>2025-07-22T12:37:26Z</time>
      </trkpt>
      <trkpt lat="42.96286" lon="-0.21793">
        <ele>1029.2</ele>
        <time>2025-07-22T12:37:30Z</time>
      </trkpt>
      <trkpt lat="42.96291" lon="-0.21798">
        <ele>1029.8</ele>
        <time>2025-07-22T12:37:33Z</time>
      </trkpt>
      <trkpt lat="42.96293" lon="-0.21803">
        <ele>1030.2</ele>
        <time>2025-07-22T12:37:35Z</time>
      </trkpt>
      <trkpt lat="42.96295" lon="-0.21818">
        <ele>1031.4</ele>
        <time>2025-07-22T12:37:40Z</time>
      </trkpt>
      <trkpt lat="42.96293" lon="-0.2184">
        <ele>1032.4</ele>
        <time>2025-07-22T12:37:47Z</time>
      </trkpt>
      <trkpt lat="42.96293" lon="-0.21843">
        <ele>1032.4</ele>
        <time>2025-07-22T12:37:48Z</time>
      </trkpt>
      <trkpt lat="42.963" lon="-0.21865">
        <ele>1033.2</ele>
        <time>2025-07-22T12:37:56Z</time>
      </trkpt>
      <trkpt lat="42.96303" lon="-0.21869">
        <ele>1033.6</ele>
        <time>2025-07-22T12:37:58Z</time>
      </trkpt>
      <trkpt lat="42.96311" lon="-0.21874">
        <ele>1034.6</ele>
        <time>2025-07-22T12:38:02Z</time>
      </trkpt>
      <trkpt lat="42.96318" lon="-0.21876">
        <ele>1035.6</ele>
        <time>2025-07-22T12:38:06Z</time>
      </trkpt>
      <trkpt lat="42.96321" lon="-0.21876">
        <ele>1036.4</ele>
        <time>2025-07-22T12:38:08Z</time>
      </trkpt>
      <trkpt lat="42.96323" lon="-0.21876">
        <ele>1036.8</ele>
        <time>2025-07-22T12:38:09Z</time>
      </trkpt>
      <trkpt lat="42.9633" lon="-0.21872">
        <ele>1037.8</ele>
        <time>2025-07-22T12:38:13Z</time>
      </trkpt>
      <trkpt lat="42.96334" lon="-0.21868">
        <ele>1038.4</ele>
        <time>2025-07-22T12:38:15Z</time>
      </trkpt>
      <trkpt lat="42.96342" lon="-0.2186">
        <ele>1039.2</ele>
        <time>2025-07-22T12:38:19Z</time>
      </trkpt>
      <trkpt lat="42.96346" lon="-0.21855">
        <ele>1040.2</ele>
        <time>2025-07-22T12:38:22Z</time>
      </trkpt>
      <trkpt lat="42.9635" lon="-0.21851">
        <ele>1040.4</ele>
        <time>2025-07-22T12:38:24Z</time>
      </trkpt>
      <trkpt lat="42.9636" lon="-0.21838">
        <ele>1041.4</ele>
        <time>2025-07-22T12:38:30Z</time>
      </trkpt>
      <trkpt lat="42.9637" lon="-0.21827">
        <ele>1042.6</ele>
        <time>2025-07-22T12:38:36Z</time>
      </trkpt>
      <trkpt lat="42.96373" lon="-0.21824">
        <ele>1042.8</ele>
        <time>2025-07-22T12:38:38Z</time>
      </trkpt>
      <trkpt lat="42.96376" lon="-0.2182">
        <ele>1043.2</ele>
        <time>2025-07-22T12:38:40Z</time>
      </trkpt>
      <trkpt lat="42.96381" lon="-0.21815">
        <ele>1043.6</ele>
        <time>2025-07-22T12:38:43Z</time>
      </trkpt>
      <trkpt lat="42.9639" lon="-0.21806">
        <ele>1044.2</ele>
        <time>2025-07-22T12:38:48Z</time>
      </trkpt>
      <trkpt lat="42.96391" lon="-0.21804">
        <ele>1044.4</ele>
        <time>2025-07-22T12:38:49Z</time>
      </trkpt>
      <trkpt lat="42.964" lon="-0.21793">
        <ele>1045.6</ele>
        <time>2025-07-22T12:38:55Z</time>
      </trkpt>
      <trkpt lat="42.9641" lon="-0.21781">
        <ele>1046.8</ele>
        <time>2025-07-22T12:39:01Z</time>
      </trkpt>
      <trkpt lat="42.96415" lon="-0.21776">
        <ele>1047.4</ele>
        <time>2025-07-22T12:39:04Z</time>
      </trkpt>
      <trkpt lat="42.96418" lon="-0.21773">
        <ele>1048</ele>
        <time>2025-07-22T12:39:06Z</time>
      </trkpt>
      <trkpt lat="42.96429" lon="-0.21761">
        <ele>1049</ele>
        <time>2025-07-22T12:39:13Z</time>
      </trkpt>
      <trkpt lat="42.9644" lon="-0.21748">
        <ele>1050.2</ele>
        <time>2025-07-22T12:39:20Z</time>
      </trkpt>
      <trkpt lat="42.96443" lon="-0.21745">
        <ele>1050.6</ele>
        <time>2025-07-22T12:39:22Z</time>
      </trkpt>
      <trkpt lat="42.9645" lon="-0.21738">
        <ele>1051.2</ele>
        <time>2025-07-22T12:39:26Z</time>
      </trkpt>
      <trkpt lat="42.96452" lon="-0.21737">
        <ele>1051.6</ele>
        <time>2025-07-22T12:39:27Z</time>
      </trkpt>
      <trkpt lat="42.96457" lon="-0.21732">
        <ele>1052</ele>
        <time>2025-07-22T12:39:30Z</time>
      </trkpt>
      <trkpt lat="42.96461" lon="-0.21729">
        <ele>1052.6</ele>
        <time>2025-07-22T12:39:32Z</time>
      </trkpt>
      <trkpt lat="42.96473" lon="-0.21716">
        <ele>1053.6</ele>
        <time>2025-07-22T12:39:40Z</time>
      </trkpt>
      <trkpt lat="42.96483" lon="-0.21707">
        <ele>1054.8</ele>
        <time>2025-07-22T12:39:46Z</time>
      </trkpt>
      <trkpt lat="42.96487" lon="-0.21701">
        <ele>1055.4</ele>
        <time>2025-07-22T12:39:49Z</time>
      </trkpt>
      <trkpt lat="42.96491" lon="-0.21698">
        <ele>1055.8</ele>
        <time>2025-07-22T12:39:51Z</time>
      </trkpt>
      <trkpt lat="42.96498" lon="-0.21691">
        <ele>1057</ele>
        <time>2025-07-22T12:39:55Z</time>
      </trkpt>
      <trkpt lat="42.96501" lon="-0.21687">
        <ele>1057.2</ele>
        <time>2025-07-22T12:39:57Z</time>
      </trkpt>
      <trkpt lat="42.96508" lon="-0.21677">
        <ele>1058</ele>
        <time>2025-07-22T12:40:01Z</time>
      </trkpt>
      <trkpt lat="42.96515" lon="-0.21666">
        <ele>1058.8</ele>
        <time>2025-07-22T12:40:06Z</time>
      </trkpt>
      <trkpt lat="42.96519" lon="-0.21662">
        <ele>1059.2</ele>
        <time>2025-07-22T12:40:08Z</time>
      </trkpt>
      <trkpt lat="42.96526" lon="-0.21651">
        <ele>1060.2</ele>
        <time>2025-07-22T12:40:13Z</time>
      </trkpt>
      <trkpt lat="42.9653" lon="-0.21645">
        <ele>1060.6</ele>
        <time>2025-07-22T12:40:16Z</time>
      </trkpt>
      <trkpt lat="42.96535" lon="-0.21639">
        <ele>1061.2</ele>
        <time>2025-07-22T12:40:19Z</time>
      </trkpt>
      <trkpt lat="42.96547" lon="-0.21629">
        <ele>1062.4</ele>
        <time>2025-07-22T12:40:26Z</time>
      </trkpt>
      <trkpt lat="42.96549" lon="-0.21628">
        <ele>1062.6</ele>
        <time>2025-07-22T12:40:27Z</time>
      </trkpt>
      <trkpt lat="42.96554" lon="-0.21624">
        <ele>1063.4</ele>
        <time>2025-07-22T12:40:30Z</time>
      </trkpt>
      <trkpt lat="42.96569" lon="-0.21619">
        <ele>1064.4</ele>
        <time>2025-07-22T12:40:37Z</time>
      </trkpt>
      <trkpt lat="42.96582" lon="-0.21612">
        <ele>1065.6</ele>
        <time>2025-07-22T12:40:44Z</time>
      </trkpt>
      <trkpt lat="42.96592" lon="-0.21603">
        <ele>1066.6</ele>
        <time>2025-07-22T12:40:50Z</time>
      </trkpt>
      <trkpt lat="42.96594" lon="-0.21601">
        <ele>1066.8</ele>
        <time>2025-07-22T12:40:51Z</time>
      </trkpt>
      <trkpt lat="42.966" lon="-0.21588">
        <ele>1067.8</ele>
        <time>2025-07-22T12:40:56Z</time>
      </trkpt>
      <trkpt lat="42.96603" lon="-0.21579">
        <ele>1068.6</ele>
        <time>2025-07-22T12:40:59Z</time>
      </trkpt>
      <trkpt lat="42.96603" lon="-0.21577">
        <ele>1068.8</ele>
        <time>2025-07-22T12:41:00Z</time>
      </trkpt>
      <trkpt lat="42.96607" lon="-0.21562">
        <ele>1069.6</ele>
        <time>2025-07-22T12:41:05Z</time>
      </trkpt>
      <trkpt lat="42.96609" lon="-0.21557">
        <ele>1070</ele>
        <time>2025-07-22T12:41:07Z</time>
      </trkpt>
      <trkpt lat="42.96614" lon="-0.2154">
        <ele>1070.8</ele>
        <time>2025-07-22T12:41:13Z</time>
      </trkpt>
      <trkpt lat="42.96619" lon="-0.21527">
        <ele>1072</ele>
        <time>2025-07-22T12:41:18Z</time>
      </trkpt>
      <trkpt lat="42.96625" lon="-0.21519">
        <ele>1072.4</ele>
        <time>2025-07-22T12:41:22Z</time>
      </trkpt>
      <trkpt lat="42.96631" lon="-0.21516">
        <ele>1073</ele>
        <time>2025-07-22T12:41:25Z</time>
      </trkpt>
      <trkpt lat="42.9664" lon="-0.21517">
        <ele>1074</ele>
        <time>2025-07-22T12:41:29Z</time>
      </trkpt>
      <trkpt lat="42.96642" lon="-0.21518">
        <ele>1074.4</ele>
        <time>2025-07-22T12:41:30Z</time>
      </trkpt>
      <trkpt lat="42.96651" lon="-0.2153">
        <ele>1075</ele>
        <time>2025-07-22T12:41:36Z</time>
      </trkpt>
      <trkpt lat="42.96653" lon="-0.21539">
        <ele>1075.6</ele>
        <time>2025-07-22T12:41:39Z</time>
      </trkpt>
      <trkpt lat="42.96653" lon="-0.21547">
        <ele>1075.8</ele>
        <time>2025-07-22T12:41:42Z</time>
      </trkpt>
      <trkpt lat="42.9665" lon="-0.21559">
        <ele>1076.8</ele>
        <time>2025-07-22T12:41:46Z</time>
      </trkpt>
      <trkpt lat="42.96647" lon="-0.2157">
        <ele>1077.4</ele>
        <time>2025-07-22T12:41:50Z</time>
      </trkpt>
      <trkpt lat="42.96644" lon="-0.21583">
        <ele>1078</ele>
        <time>2025-07-22T12:41:55Z</time>
      </trkpt>
      <trkpt lat="42.96643" lon="-0.21594">
        <ele>1078.6</ele>
        <time>2025-07-22T12:41:59Z</time>
      </trkpt>
      <trkpt lat="42.96642" lon="-0.21602">
        <ele>1079.2</ele>
        <time>2025-07-22T12:42:02Z</time>
      </trkpt>
      <trkpt lat="42.96642" lon="-0.21618">
        <ele>1080.2</ele>
        <time>2025-07-22T12:42:08Z</time>
      </trkpt>
      <trkpt lat="42.96642" lon="-0.21621">
        <ele>1080.4</ele>
        <time>2025-07-22T12:42:09Z</time>
      </trkpt>
      <trkpt lat="42.96643" lon="-0.21635">
        <ele>1081.6</ele>
        <time>2025-07-22T12:42:14Z</time>
      </trkpt>
      <trkpt lat="42.96643" lon="-0.2165">
        <ele>1082.8</ele>
        <time>2025-07-22T12:42:19Z</time>
      </trkpt>
      <trkpt lat="42.96641" lon="-0.21663">
        <ele>1083.6</ele>
        <time>2025-07-22T12:42:24Z</time>
      </trkpt>
      <trkpt lat="42.96641" lon="-0.21668">
        <ele>1084</ele>
        <time>2025-07-22T12:42:26Z</time>
      </trkpt>
      <trkpt lat="42.96638" lon="-0.21686">
        <ele>1084.8</ele>
        <time>2025-07-22T12:42:32Z</time>
      </trkpt>
      <trkpt lat="42.96638" lon="-0.21689">
        <ele>1085.2</ele>
        <time>2025-07-22T12:42:33Z</time>
      </trkpt>
      <trkpt lat="42.96635" lon="-0.21705">
        <ele>1086.2</ele>
        <time>2025-07-22T12:42:39Z</time>
      </trkpt>
      <trkpt lat="42.96634" lon="-0.21708">
        <ele>1086.4</ele>
        <time>2025-07-22T12:42:40Z</time>
      </trkpt>
      <trkpt lat="42.9663" lon="-0.21723">
        <ele>1087.2</ele>
        <time>2025-07-22T12:42:46Z</time>
      </trkpt>
      <trkpt lat="42.96629" lon="-0.21726">
        <ele>1087.4</ele>
        <time>2025-07-22T12:42:47Z</time>
      </trkpt>
      <trkpt lat="42.96626" lon="-0.21736">
        <ele>1088.2</ele>
        <time>2025-07-22T12:42:51Z</time>
      </trkpt>
      <trkpt lat="42.96625" lon="-0.21739">
        <ele>1088.4</ele>
        <time>2025-07-22T12:42:52Z</time>
      </trkpt>
      <trkpt lat="42.9662" lon="-0.21749">
        <ele>1089</ele>
        <time>2025-07-22T12:42:57Z</time>
      </trkpt>
      <trkpt lat="42.96619" lon="-0.21752">
        <ele>1089.2</ele>
        <time>2025-07-22T12:42:58Z</time>
      </trkpt>
      <trkpt lat="42.96614" lon="-0.21765">
        <ele>1090.4</ele>
        <time>2025-07-22T12:43:03Z</time>
      </trkpt>
      <trkpt lat="42.96612" lon="-0.21773">
        <ele>1090.8</ele>
        <time>2025-07-22T12:43:06Z</time>
      </trkpt>
      <trkpt lat="42.96609" lon="-0.21783">
        <ele>1091.8</ele>
        <time>2025-07-22T12:43:10Z</time>
      </trkpt>
      <trkpt lat="42.96608" lon="-0.21791">
        <ele>1092</ele>
        <time>2025-07-22T12:43:13Z</time>
      </trkpt>
      <trkpt lat="42.96609" lon="-0.21797">
        <ele>1092.2</ele>
        <time>2025-07-22T12:43:15Z</time>
      </trkpt>
      <trkpt lat="42.96609" lon="-0.21803">
        <ele>1092.6</ele>
        <time>2025-07-22T12:43:17Z</time>
      </trkpt>
      <trkpt lat="42.96609" lon="-0.21805">
        <ele>1092.8</ele>
        <time>2025-07-22T12:43:18Z</time>
      </trkpt>
      <trkpt lat="42.96609" lon="-0.21812">
        <ele>1093.2</ele>
        <time>2025-07-22T12:43:20Z</time>
      </trkpt>
      <trkpt lat="42.96609" lon="-0.21818">
        <ele>1093.6</ele>
        <time>2025-07-22T12:43:22Z</time>
      </trkpt>
      <trkpt lat="42.96607" lon="-0.21831">
        <ele>1094.4</ele>
        <time>2025-07-22T12:43:27Z</time>
      </trkpt>
      <trkpt lat="42.96606" lon="-0.21834">
        <ele>1094.6</ele>
        <time>2025-07-22T12:43:28Z</time>
      </trkpt>
      <trkpt lat="42.96605" lon="-0.21849">
        <ele>1095.6</ele>
        <time>2025-07-22T12:43:34Z</time>
      </trkpt>
      <trkpt lat="42.96604" lon="-0.21852">
        <ele>1096</ele>
        <time>2025-07-22T12:43:35Z</time>
      </trkpt>
      <trkpt lat="42.96603" lon="-0.2186">
        <ele>1096.8</ele>
        <time>2025-07-22T12:43:38Z</time>
      </trkpt>
      <trkpt lat="42.966" lon="-0.21873">
        <ele>1097.8</ele>
        <time>2025-07-22T12:43:43Z</time>
      </trkpt>
      <trkpt lat="42.96599" lon="-0.21881">
        <ele>1098.4</ele>
        <time>2025-07-22T12:43:46Z</time>
      </trkpt>
      <trkpt lat="42.96597" lon="-0.21888">
        <ele>1099</ele>
        <time>2025-07-22T12:43:49Z</time>
      </trkpt>
      <trkpt lat="42.96596" lon="-0.21897">
        <ele>1099.4</ele>
        <time>2025-07-22T12:43:52Z</time>
      </trkpt>
      <trkpt lat="42.96596" lon="-0.21907">
        <ele>1100</ele>
        <time>2025-07-22T12:43:56Z</time>
      </trkpt>
      <trkpt lat="42.96596" lon="-0.2191">
        <ele>1100.2</ele>
        <time>2025-07-22T12:43:57Z</time>
      </trkpt>
      <trkpt lat="42.96596" lon="-0.21927">
        <ele>1101.2</ele>
        <time>2025-07-22T12:44:03Z</time>
      </trkpt>
      <trkpt lat="42.96596" lon="-0.2193">
        <ele>1101.4</ele>
        <time>2025-07-22T12:44:04Z</time>
      </trkpt>
      <trkpt lat="42.96595" lon="-0.21943">
        <ele>1102.4</ele>
        <time>2025-07-22T12:44:09Z</time>
      </trkpt>
      <trkpt lat="42.96595" lon="-0.21946">
        <ele>1102.6</ele>
        <time>2025-07-22T12:44:10Z</time>
      </trkpt>
      <trkpt lat="42.96594" lon="-0.21955">
        <ele>1102.8</ele>
        <time>2025-07-22T12:44:13Z</time>
      </trkpt>
      <trkpt lat="42.96591" lon="-0.21965">
        <ele>1103.4</ele>
        <time>2025-07-22T12:44:17Z</time>
      </trkpt>
      <trkpt lat="42.96589" lon="-0.21975">
        <ele>1104.2</ele>
        <time>2025-07-22T12:44:21Z</time>
      </trkpt>
      <trkpt lat="42.96588" lon="-0.21978">
        <ele>1104.4</ele>
        <time>2025-07-22T12:44:22Z</time>
      </trkpt>
      <trkpt lat="42.96582" lon="-0.21991">
        <ele>1105.6</ele>
        <time>2025-07-22T12:44:28Z</time>
      </trkpt>
      <trkpt lat="42.9658" lon="-0.21996">
        <ele>1106</ele>
        <time>2025-07-22T12:44:30Z</time>
      </trkpt>
      <trkpt lat="42.96578" lon="-0.22">
        <ele>1106.6</ele>
        <time>2025-07-22T12:44:32Z</time>
      </trkpt>
      <trkpt lat="42.96573" lon="-0.22009">
        <ele>1107.6</ele>
        <time>2025-07-22T12:44:36Z</time>
      </trkpt>
      <trkpt lat="42.9657" lon="-0.22013">
        <ele>1108</ele>
        <time>2025-07-22T12:44:38Z</time>
      </trkpt>
      <trkpt lat="42.96569" lon="-0.22015">
        <ele>1108</ele>
        <time>2025-07-22T12:44:39Z</time>
      </trkpt>
      <trkpt lat="42.96563" lon="-0.22027">
        <ele>1108.6</ele>
        <time>2025-07-22T12:44:44Z</time>
      </trkpt>
      <trkpt lat="42.9656" lon="-0.22041">
        <ele>1109.6</ele>
        <time>2025-07-22T12:44:49Z</time>
      </trkpt>
      <trkpt lat="42.9656" lon="-0.22044">
        <ele>1109.8</ele>
        <time>2025-07-22T12:44:50Z</time>
      </trkpt>
      <trkpt lat="42.96558" lon="-0.22061">
        <ele>1110.8</ele>
        <time>2025-07-22T12:44:56Z</time>
      </trkpt>
      <trkpt lat="42.96558" lon="-0.22072">
        <ele>1111.4</ele>
        <time>2025-07-22T12:45:00Z</time>
      </trkpt>
      <trkpt lat="42.96557" lon="-0.22075">
        <ele>1111.8</ele>
        <time>2025-07-22T12:45:01Z</time>
      </trkpt>
      <trkpt lat="42.96556" lon="-0.22091">
        <ele>1112.8</ele>
        <time>2025-07-22T12:45:07Z</time>
      </trkpt>
      <trkpt lat="42.96556" lon="-0.22099">
        <ele>1113.6</ele>
        <time>2025-07-22T12:45:10Z</time>
      </trkpt>
      <trkpt lat="42.96555" lon="-0.22105">
        <ele>1114</ele>
        <time>2025-07-22T12:45:12Z</time>
      </trkpt>
      <trkpt lat="42.96555" lon="-0.22114">
        <ele>1114.6</ele>
        <time>2025-07-22T12:45:15Z</time>
      </trkpt>
      <trkpt lat="42.96555" lon="-0.2212">
        <ele>1115</ele>
        <time>2025-07-22T12:45:17Z</time>
      </trkpt>
      <trkpt lat="42.96558" lon="-0.22134">
        <ele>1116.2</ele>
        <time>2025-07-22T12:45:22Z</time>
      </trkpt>
      <trkpt lat="42.96559" lon="-0.2214">
        <ele>1116.4</ele>
        <time>2025-07-22T12:45:24Z</time>
      </trkpt>
      <trkpt lat="42.96563" lon="-0.22151">
        <ele>1117.2</ele>
        <time>2025-07-22T12:45:28Z</time>
      </trkpt>
      <trkpt lat="42.96567" lon="-0.22168">
        <ele>1118.2</ele>
        <time>2025-07-22T12:45:34Z</time>
      </trkpt>
      <trkpt lat="42.96568" lon="-0.2217">
        <ele>1118.2</ele>
        <time>2025-07-22T12:45:35Z</time>
      </trkpt>
      <trkpt lat="42.96568" lon="-0.22188">
        <ele>1119.2</ele>
        <time>2025-07-22T12:45:41Z</time>
      </trkpt>
      <trkpt lat="42.96567" lon="-0.22191">
        <ele>1119.6</ele>
        <time>2025-07-22T12:45:42Z</time>
      </trkpt>
      <trkpt lat="42.96562" lon="-0.22211">
        <ele>1120.2</ele>
        <time>2025-07-22T12:45:47Z</time>
      </trkpt>
      <trkpt lat="42.96558" lon="-0.22221">
        <ele>1120.6</ele>
        <time>2025-07-22T12:45:49Z</time>
      </trkpt>
      <trkpt lat="42.96548" lon="-0.22248">
        <ele>1121</ele>
        <time>2025-07-22T12:45:54Z</time>
      </trkpt>
      <trkpt lat="42.96535" lon="-0.2228">
        <ele>1121</ele>
        <time>2025-07-22T12:46:00Z</time>
      </trkpt>
      <trkpt lat="42.9653" lon="-0.22292">
        <ele>1121.6</ele>
        <time>2025-07-22T12:46:04Z</time>
      </trkpt>
      <trkpt lat="42.96529" lon="-0.22294">
        <ele>1121.8</ele>
        <time>2025-07-22T12:46:05Z</time>
      </trkpt>
      <trkpt lat="42.96527" lon="-0.22301">
        <ele>1122.8</ele>
        <time>2025-07-22T12:46:08Z</time>
      </trkpt>
      <trkpt lat="42.96525" lon="-0.22307">
        <ele>1123.4</ele>
        <time>2025-07-22T12:46:11Z</time>
      </trkpt>
      <trkpt lat="42.96525" lon="-0.2231">
        <ele>1123.8</ele>
        <time>2025-07-22T12:46:12Z</time>
      </trkpt>
      <trkpt lat="42.96523" lon="-0.22317">
        <ele>1125</ele>
        <time>2025-07-22T12:46:15Z</time>
      </trkpt>
      <trkpt lat="42.96519" lon="-0.22326">
        <ele>1126</ele>
        <time>2025-07-22T12:46:19Z</time>
      </trkpt>
      <trkpt lat="42.96516" lon="-0.22336">
        <ele>1127</ele>
        <time>2025-07-22T12:46:23Z</time>
      </trkpt>
      <trkpt lat="42.96514" lon="-0.22342">
        <ele>1128.2</ele>
        <time>2025-07-22T12:46:26Z</time>
      </trkpt>
      <trkpt lat="42.96513" lon="-0.22347">
        <ele>1128.8</ele>
        <time>2025-07-22T12:46:28Z</time>
      </trkpt>
      <trkpt lat="42.96513" lon="-0.22349">
        <ele>1129</ele>
        <time>2025-07-22T12:46:29Z</time>
      </trkpt>
      <trkpt lat="42.96513" lon="-0.22355">
        <ele>1130.2</ele>
        <time>2025-07-22T12:46:31Z</time>
      </trkpt>
      <trkpt lat="42.96513" lon="-0.22363">
        <ele>1131.2</ele>
        <time>2025-07-22T12:46:34Z</time>
      </trkpt>
      <trkpt lat="42.96513" lon="-0.22366">
        <ele>1131.8</ele>
        <time>2025-07-22T12:46:35Z</time>
      </trkpt>
      <trkpt lat="42.96513" lon="-0.22372">
        <ele>1132.4</ele>
        <time>2025-07-22T12:46:37Z</time>
      </trkpt>
      <trkpt lat="42.96518" lon="-0.22382">
        <ele>1133.4</ele>
        <time>2025-07-22T12:46:41Z</time>
      </trkpt>
      <trkpt lat="42.9652" lon="-0.22384">
        <ele>1133.6</ele>
        <time>2025-07-22T12:46:42Z</time>
      </trkpt>
      <trkpt lat="42.96523" lon="-0.22387">
        <ele>1134</ele>
        <time>2025-07-22T12:46:44Z</time>
      </trkpt>
      <trkpt lat="42.96529" lon="-0.22392">
        <ele>1134.8</ele>
        <time>2025-07-22T12:46:47Z</time>
      </trkpt>
      <trkpt lat="42.96533" lon="-0.22394">
        <ele>1135.2</ele>
        <time>2025-07-22T12:46:49Z</time>
      </trkpt>
      <trkpt lat="42.9654" lon="-0.22397">
        <ele>1135.8</ele>
        <time>2025-07-22T12:46:53Z</time>
      </trkpt>
      <trkpt lat="42.96552" lon="-0.22398">
        <ele>1136.6</ele>
        <time>2025-07-22T12:46:59Z</time>
      </trkpt>
      <trkpt lat="42.96557" lon="-0.22399">
        <ele>1136.8</ele>
        <time>2025-07-22T12:47:01Z</time>
      </trkpt>
      <trkpt lat="42.96567" lon="-0.22399">
        <ele>1138</ele>
        <time>2025-07-22T12:47:06Z</time>
      </trkpt>
      <trkpt lat="42.96572" lon="-0.22399">
        <ele>1138.4</ele>
        <time>2025-07-22T12:47:08Z</time>
      </trkpt>
      <trkpt lat="42.96586" lon="-0.22397">
        <ele>1139</ele>
        <time>2025-07-22T12:47:14Z</time>
      </trkpt>
      <trkpt lat="42.96591" lon="-0.22395">
        <ele>1139.4</ele>
        <time>2025-07-22T12:47:16Z</time>
      </trkpt>
      <trkpt lat="42.96598" lon="-0.22391">
        <ele>1140.2</ele>
        <time>2025-07-22T12:47:19Z</time>
      </trkpt>
      <trkpt lat="42.96613" lon="-0.22385">
        <ele>1141.4</ele>
        <time>2025-07-22T12:47:26Z</time>
      </trkpt>
      <trkpt lat="42.96619" lon="-0.22382">
        <ele>1142</ele>
        <time>2025-07-22T12:47:29Z</time>
      </trkpt>
      <trkpt lat="42.96628" lon="-0.22382">
        <ele>1142.6</ele>
        <time>2025-07-22T12:47:33Z</time>
      </trkpt>
      <trkpt lat="42.96639" lon="-0.22382">
        <ele>1143.6</ele>
        <time>2025-07-22T12:47:38Z</time>
      </trkpt>
      <trkpt lat="42.96642" lon="-0.22383">
        <ele>1143.6</ele>
        <time>2025-07-22T12:47:39Z</time>
      </trkpt>
      <trkpt lat="42.96657" lon="-0.22388">
        <ele>1144.6</ele>
        <time>2025-07-22T12:47:46Z</time>
      </trkpt>
      <trkpt lat="42.9666" lon="-0.22389">
        <ele>1144.6</ele>
        <time>2025-07-22T12:47:47Z</time>
      </trkpt>
      <trkpt lat="42.96679" lon="-0.22402">
        <ele>1145.4</ele>
        <time>2025-07-22T12:47:56Z</time>
      </trkpt>
      <trkpt lat="42.96685" lon="-0.22409">
        <ele>1145.6</ele>
        <time>2025-07-22T12:47:59Z</time>
      </trkpt>
      <trkpt lat="42.96697" lon="-0.22425">
        <ele>1146</ele>
        <time>2025-07-22T12:48:05Z</time>
      </trkpt>
      <trkpt lat="42.96718" lon="-0.22455">
        <ele>1146.6</ele>
        <time>2025-07-22T12:48:16Z</time>
      </trkpt>
      <trkpt lat="42.96719" lon="-0.22457">
        <ele>1146.6</ele>
        <time>2025-07-22T12:48:17Z</time>
      </trkpt>
      <trkpt lat="42.96724" lon="-0.22465">
        <ele>1146.8</ele>
        <time>2025-07-22T12:48:20Z</time>
      </trkpt>
      <trkpt lat="42.9673" lon="-0.22479">
        <ele>1147</ele>
        <time>2025-07-22T12:48:25Z</time>
      </trkpt>
      <trkpt lat="42.96733" lon="-0.22494">
        <ele>1147.4</ele>
        <time>2025-07-22T12:48:30Z</time>
      </trkpt>
      <trkpt lat="42.96735" lon="-0.225">
        <ele>1147.6</ele>
        <time>2025-07-22T12:48:32Z</time>
      </trkpt>
      <trkpt lat="42.96733" lon="-0.22514">
        <ele>1148.6</ele>
        <time>2025-07-22T12:48:37Z</time>
      </trkpt>
      <trkpt lat="42.96732" lon="-0.22519">
        <ele>1148.8</ele>
        <time>2025-07-22T12:48:39Z</time>
      </trkpt>
      <trkpt lat="42.96731" lon="-0.22535">
        <ele>1149.6</ele>
        <time>2025-07-22T12:48:45Z</time>
      </trkpt>
      <trkpt lat="42.9673" lon="-0.2254">
        <ele>1150</ele>
        <time>2025-07-22T12:48:47Z</time>
      </trkpt>
      <trkpt lat="42.96729" lon="-0.22547">
        <ele>1150.6</ele>
        <time>2025-07-22T12:48:50Z</time>
      </trkpt>
      <trkpt lat="42.96727" lon="-0.22559">
        <ele>1151.6</ele>
        <time>2025-07-22T12:48:54Z</time>
      </trkpt>
      <trkpt lat="42.96725" lon="-0.22561">
        <ele>1151.6</ele>
        <time>2025-07-22T12:48:55Z</time>
      </trkpt>
      <trkpt lat="42.96722" lon="-0.22578">
        <ele>1152.8</ele>
        <time>2025-07-22T12:49:01Z</time>
      </trkpt>
      <trkpt lat="42.96721" lon="-0.22581">
        <ele>1153</ele>
        <time>2025-07-22T12:49:02Z</time>
      </trkpt>
      <trkpt lat="42.96718" lon="-0.22595">
        <ele>1153.8</ele>
        <time>2025-07-22T12:49:07Z</time>
      </trkpt>
      <trkpt lat="42.96717" lon="-0.22603">
        <ele>1154.2</ele>
        <time>2025-07-22T12:49:10Z</time>
      </trkpt>
      <trkpt lat="42.96718" lon="-0.22608">
        <ele>1154.8</ele>
        <time>2025-07-22T12:49:12Z</time>
      </trkpt>
      <trkpt lat="42.96715" lon="-0.22625">
        <ele>1156</ele>
        <time>2025-07-22T12:49:18Z</time>
      </trkpt>
      <trkpt lat="42.96714" lon="-0.2263">
        <ele>1156.2</ele>
        <time>2025-07-22T12:49:20Z</time>
      </trkpt>
      <trkpt lat="42.96714" lon="-0.22641">
        <ele>1157</ele>
        <time>2025-07-22T12:49:24Z</time>
      </trkpt>
      <trkpt lat="42.96714" lon="-0.22652">
        <ele>1158</ele>
        <time>2025-07-22T12:49:28Z</time>
      </trkpt>
      <trkpt lat="42.96714" lon="-0.22655">
        <ele>1158.2</ele>
        <time>2025-07-22T12:49:29Z</time>
      </trkpt>
      <trkpt lat="42.96716" lon="-0.22668">
        <ele>1159.2</ele>
        <time>2025-07-22T12:49:34Z</time>
      </trkpt>
      <trkpt lat="42.96718" lon="-0.22678">
        <ele>1160</ele>
        <time>2025-07-22T12:49:38Z</time>
      </trkpt>
      <trkpt lat="42.96719" lon="-0.2268">
        <ele>1160.2</ele>
        <time>2025-07-22T12:49:39Z</time>
      </trkpt>
      <trkpt lat="42.96723" lon="-0.22697">
        <ele>1161.4</ele>
        <time>2025-07-22T12:49:46Z</time>
      </trkpt>
      <trkpt lat="42.96723" lon="-0.227">
        <ele>1161.6</ele>
        <time>2025-07-22T12:49:47Z</time>
      </trkpt>
      <trkpt lat="42.96724" lon="-0.22713">
        <ele>1162.4</ele>
        <time>2025-07-22T12:49:52Z</time>
      </trkpt>
      <trkpt lat="42.96724" lon="-0.22722">
        <ele>1163</ele>
        <time>2025-07-22T12:49:55Z</time>
      </trkpt>
      <trkpt lat="42.96723" lon="-0.22727">
        <ele>1163.6</ele>
        <time>2025-07-22T12:49:57Z</time>
      </trkpt>
      <trkpt lat="42.96719" lon="-0.2274">
        <ele>1164.2</ele>
        <time>2025-07-22T12:50:02Z</time>
      </trkpt>
      <trkpt lat="42.96717" lon="-0.22745">
        <ele>1164.4</ele>
        <time>2025-07-22T12:50:04Z</time>
      </trkpt>
      <trkpt lat="42.96709" lon="-0.22757">
        <ele>1165.2</ele>
        <time>2025-07-22T12:50:10Z</time>
      </trkpt>
      <trkpt lat="42.96707" lon="-0.22759">
        <ele>1165.4</ele>
        <time>2025-07-22T12:50:11Z</time>
      </trkpt>
      <trkpt lat="42.96697" lon="-0.2277">
        <ele>1166.6</ele>
        <time>2025-07-22T12:50:17Z</time>
      </trkpt>
      <trkpt lat="42.96695" lon="-0.22772">
        <ele>1166.6</ele>
        <time>2025-07-22T12:50:18Z</time>
      </trkpt>
      <trkpt lat="42.96686" lon="-0.22779">
        <ele>1167.6</ele>
        <time>2025-07-22T12:50:23Z</time>
      </trkpt>
      <trkpt lat="42.9668" lon="-0.22783">
        <ele>1168</ele>
        <time>2025-07-22T12:50:26Z</time>
      </trkpt>
      <trkpt lat="42.96673" lon="-0.2279">
        <ele>1168.8</ele>
        <time>2025-07-22T12:50:30Z</time>
      </trkpt>
      <trkpt lat="42.96664" lon="-0.22794">
        <ele>1170</ele>
        <time>2025-07-22T12:50:34Z</time>
      </trkpt>
      <trkpt lat="42.96652" lon="-0.22795">
        <ele>1170.8</ele>
        <time>2025-07-22T12:50:40Z</time>
      </trkpt>
      <trkpt lat="42.9665" lon="-0.22795">
        <ele>1171</ele>
        <time>2025-07-22T12:50:41Z</time>
      </trkpt>
      <trkpt lat="42.9664" lon="-0.22793">
        <ele>1172.2</ele>
        <time>2025-07-22T12:50:46Z</time>
      </trkpt>
      <trkpt lat="42.96636" lon="-0.22791">
        <ele>1172.2</ele>
        <time>2025-07-22T12:50:48Z</time>
      </trkpt>
      <trkpt lat="42.9663" lon="-0.22786">
        <ele>1173</ele>
        <time>2025-07-22T12:50:51Z</time>
      </trkpt>
      <trkpt lat="42.9662" lon="-0.22777">
        <ele>1174</ele>
        <time>2025-07-22T12:50:56Z</time>
      </trkpt>
      <trkpt lat="42.96618" lon="-0.22776">
        <ele>1174.4</ele>
        <time>2025-07-22T12:50:57Z</time>
      </trkpt>
      <trkpt lat="42.96609" lon="-0.22767">
        <ele>1175.2</ele>
        <time>2025-07-22T12:51:02Z</time>
      </trkpt>
      <trkpt lat="42.96608" lon="-0.22765">
        <ele>1175.4</ele>
        <time>2025-07-22T12:51:03Z</time>
      </trkpt>
      <trkpt lat="42.96601" lon="-0.22761">
        <ele>1176.4</ele>
        <time>2025-07-22T12:51:06Z</time>
      </trkpt>
      <trkpt lat="42.96589" lon="-0.22756">
        <ele>1177.4</ele>
        <time>2025-07-22T12:51:12Z</time>
      </trkpt>
      <trkpt lat="42.96577" lon="-0.22757">
        <ele>1178.4</ele>
        <time>2025-07-22T12:51:18Z</time>
      </trkpt>
      <trkpt lat="42.96573" lon="-0.22758">
        <ele>1178.6</ele>
        <time>2025-07-22T12:51:20Z</time>
      </trkpt>
      <trkpt lat="42.96559" lon="-0.22765">
        <ele>1179.4</ele>
        <time>2025-07-22T12:51:27Z</time>
      </trkpt>
      <trkpt lat="42.96557" lon="-0.22767">
        <ele>1179.6</ele>
        <time>2025-07-22T12:51:28Z</time>
      </trkpt>
      <trkpt lat="42.96551" lon="-0.22774">
        <ele>1180.6</ele>
        <time>2025-07-22T12:51:32Z</time>
      </trkpt>
      <trkpt lat="42.96548" lon="-0.22781">
        <ele>1181</ele>
        <time>2025-07-22T12:51:35Z</time>
      </trkpt>
      <trkpt lat="42.96546" lon="-0.22789">
        <ele>1181.6</ele>
        <time>2025-07-22T12:51:38Z</time>
      </trkpt>
      <trkpt lat="42.9654" lon="-0.22802">
        <ele>1182.4</ele>
        <time>2025-07-22T12:51:43Z</time>
      </trkpt>
      <trkpt lat="42.96539" lon="-0.22808">
        <ele>1182.8</ele>
        <time>2025-07-22T12:51:45Z</time>
      </trkpt>
      <trkpt lat="42.96536" lon="-0.22816">
        <ele>1183.8</ele>
        <time>2025-07-22T12:51:48Z</time>
      </trkpt>
      <trkpt lat="42.96533" lon="-0.22826">
        <ele>1184.4</ele>
        <time>2025-07-22T12:51:52Z</time>
      </trkpt>
      <trkpt lat="42.96532" lon="-0.22829">
        <ele>1184.8</ele>
        <time>2025-07-22T12:51:53Z</time>
      </trkpt>
      <trkpt lat="42.96529" lon="-0.22843">
        <ele>1186</ele>
        <time>2025-07-22T12:51:58Z</time>
      </trkpt>
      <trkpt lat="42.96525" lon="-0.22853">
        <ele>1186.2</ele>
        <time>2025-07-22T12:52:02Z</time>
      </trkpt>
      <trkpt lat="42.96522" lon="-0.22863">
        <ele>1187</ele>
        <time>2025-07-22T12:52:06Z</time>
      </trkpt>
      <trkpt lat="42.96517" lon="-0.22881">
        <ele>1188</ele>
        <time>2025-07-22T12:52:13Z</time>
      </trkpt>
      <trkpt lat="42.96516" lon="-0.22883">
        <ele>1188.2</ele>
        <time>2025-07-22T12:52:14Z</time>
      </trkpt>
      <trkpt lat="42.96512" lon="-0.22895">
        <ele>1189.4</ele>
        <time>2025-07-22T12:52:19Z</time>
      </trkpt>
      <trkpt lat="42.9651" lon="-0.229">
        <ele>1189.8</ele>
        <time>2025-07-22T12:52:21Z</time>
      </trkpt>
      <trkpt lat="42.96507" lon="-0.22908">
        <ele>1190.4</ele>
        <time>2025-07-22T12:52:24Z</time>
      </trkpt>
      <trkpt lat="42.96501" lon="-0.22922">
        <ele>1191.4</ele>
        <time>2025-07-22T12:52:30Z</time>
      </trkpt>
      <trkpt lat="42.965" lon="-0.22925">
        <ele>1191.6</ele>
        <time>2025-07-22T12:52:31Z</time>
      </trkpt>
      <trkpt lat="42.96494" lon="-0.22937">
        <ele>1192.6</ele>
        <time>2025-07-22T12:52:36Z</time>
      </trkpt>
      <trkpt lat="42.96488" lon="-0.22946">
        <ele>1193.4</ele>
        <time>2025-07-22T12:52:40Z</time>
      </trkpt>
      <trkpt lat="42.96485" lon="-0.22949">
        <ele>1193.6</ele>
        <time>2025-07-22T12:52:42Z</time>
      </trkpt>
      <trkpt lat="42.9647" lon="-0.22963">
        <ele>1194.8</ele>
        <time>2025-07-22T12:52:50Z</time>
      </trkpt>
      <trkpt lat="42.9646" lon="-0.22971">
        <ele>1196</ele>
        <time>2025-07-22T12:52:55Z</time>
      </trkpt>
      <trkpt lat="42.96455" lon="-0.22976">
        <ele>1196.4</ele>
        <time>2025-07-22T12:52:58Z</time>
      </trkpt>
      <trkpt lat="42.96448" lon="-0.22983">
        <ele>1197</ele>
        <time>2025-07-22T12:53:02Z</time>
      </trkpt>
      <trkpt lat="42.96443" lon="-0.22989">
        <ele>1197.4</ele>
        <time>2025-07-22T12:53:05Z</time>
      </trkpt>
      <trkpt lat="42.96439" lon="-0.22995">
        <ele>1198.4</ele>
        <time>2025-07-22T12:53:08Z</time>
      </trkpt>
      <trkpt lat="42.96434" lon="-0.23004">
        <ele>1199.2</ele>
        <time>2025-07-22T12:53:12Z</time>
      </trkpt>
      <trkpt lat="42.96433" lon="-0.23007">
        <ele>1199.4</ele>
        <time>2025-07-22T12:53:13Z</time>
      </trkpt>
      <trkpt lat="42.9643" lon="-0.23023">
        <ele>1200.6</ele>
        <time>2025-07-22T12:53:19Z</time>
      </trkpt>
      <trkpt lat="42.96429" lon="-0.23027">
        <ele>1201</ele>
        <time>2025-07-22T12:53:21Z</time>
      </trkpt>
      <trkpt lat="42.96428" lon="-0.23037">
        <ele>1201.6</ele>
        <time>2025-07-22T12:53:24Z</time>
      </trkpt>
      <trkpt lat="42.96425" lon="-0.23051">
        <ele>1202.4</ele>
        <time>2025-07-22T12:53:29Z</time>
      </trkpt>
      <trkpt lat="42.96424" lon="-0.23056">
        <ele>1202.8</ele>
        <time>2025-07-22T12:53:31Z</time>
      </trkpt>
      <trkpt lat="42.9642" lon="-0.2307">
        <ele>1204</ele>
        <time>2025-07-22T12:53:36Z</time>
      </trkpt>
      <trkpt lat="42.96414" lon="-0.2308">
        <ele>1205</ele>
        <time>2025-07-22T12:53:41Z</time>
      </trkpt>
      <trkpt lat="42.96408" lon="-0.23085">
        <ele>1205.6</ele>
        <time>2025-07-22T12:53:44Z</time>
      </trkpt>
      <trkpt lat="42.96402" lon="-0.23089">
        <ele>1206</ele>
        <time>2025-07-22T12:53:47Z</time>
      </trkpt>
      <trkpt lat="42.96395" lon="-0.23092">
        <ele>1207</ele>
        <time>2025-07-22T12:53:51Z</time>
      </trkpt>
      <trkpt lat="42.96393" lon="-0.23092">
        <ele>1207.4</ele>
        <time>2025-07-22T12:53:52Z</time>
      </trkpt>
      <trkpt lat="42.96386" lon="-0.23092">
        <ele>1208</ele>
        <time>2025-07-22T12:53:55Z</time>
      </trkpt>
      <trkpt lat="42.96378" lon="-0.2309">
        <ele>1208.8</ele>
        <time>2025-07-22T12:53:59Z</time>
      </trkpt>
      <trkpt lat="42.96374" lon="-0.2309">
        <ele>1209.2</ele>
        <time>2025-07-22T12:54:01Z</time>
      </trkpt>
      <trkpt lat="42.96366" lon="-0.23087">
        <ele>1210.2</ele>
        <time>2025-07-22T12:54:05Z</time>
      </trkpt>
      <trkpt lat="42.96364" lon="-0.23087">
        <ele>1210.6</ele>
        <time>2025-07-22T12:54:06Z</time>
      </trkpt>
      <trkpt lat="42.96358" lon="-0.23086">
        <ele>1211.4</ele>
        <time>2025-07-22T12:54:09Z</time>
      </trkpt>
      <trkpt lat="42.96347" lon="-0.23089">
        <ele>1212</ele>
        <time>2025-07-22T12:54:14Z</time>
      </trkpt>
      <trkpt lat="42.96345" lon="-0.2309">
        <ele>1212.2</ele>
        <time>2025-07-22T12:54:15Z</time>
      </trkpt>
      <trkpt lat="42.96334" lon="-0.23097">
        <ele>1213.2</ele>
        <time>2025-07-22T12:54:21Z</time>
      </trkpt>
      <trkpt lat="42.96332" lon="-0.231">
        <ele>1213.2</ele>
        <time>2025-07-22T12:54:22Z</time>
      </trkpt>
      <trkpt lat="42.96322" lon="-0.23111">
        <ele>1214.2</ele>
        <time>2025-07-22T12:54:28Z</time>
      </trkpt>
      <trkpt lat="42.96317" lon="-0.23117">
        <ele>1214.8</ele>
        <time>2025-07-22T12:54:31Z</time>
      </trkpt>
      <trkpt lat="42.96308" lon="-0.23126">
        <ele>1215.4</ele>
        <time>2025-07-22T12:54:36Z</time>
      </trkpt>
      <trkpt lat="42.963" lon="-0.23135">
        <ele>1216.4</ele>
        <time>2025-07-22T12:54:41Z</time>
      </trkpt>
      <trkpt lat="42.96291" lon="-0.23146">
        <ele>1217.4</ele>
        <time>2025-07-22T12:54:47Z</time>
      </trkpt>
      <trkpt lat="42.96286" lon="-0.23152">
        <ele>1217.8</ele>
        <time>2025-07-22T12:54:50Z</time>
      </trkpt>
      <trkpt lat="42.96283" lon="-0.23156">
        <ele>1218.6</ele>
        <time>2025-07-22T12:54:52Z</time>
      </trkpt>
      <trkpt lat="42.96277" lon="-0.23168">
        <ele>1219.8</ele>
        <time>2025-07-22T12:54:57Z</time>
      </trkpt>
      <trkpt lat="42.96276" lon="-0.2317">
        <ele>1219.8</ele>
        <time>2025-07-22T12:54:58Z</time>
      </trkpt>
      <trkpt lat="42.96268" lon="-0.23188">
        <ele>1220.8</ele>
        <time>2025-07-22T12:55:05Z</time>
      </trkpt>
      <trkpt lat="42.96267" lon="-0.23196">
        <ele>1221.4</ele>
        <time>2025-07-22T12:55:08Z</time>
      </trkpt>
      <trkpt lat="42.96264" lon="-0.23207">
        <ele>1222</ele>
        <time>2025-07-22T12:55:12Z</time>
      </trkpt>
      <trkpt lat="42.96259" lon="-0.23223">
        <ele>1223.2</ele>
        <time>2025-07-22T12:55:18Z</time>
      </trkpt>
      <trkpt lat="42.96254" lon="-0.2324">
        <ele>1224.4</ele>
        <time>2025-07-22T12:55:24Z</time>
      </trkpt>
      <trkpt lat="42.96253" lon="-0.23245">
        <ele>1224.8</ele>
        <time>2025-07-22T12:55:26Z</time>
      </trkpt>
      <trkpt lat="42.96249" lon="-0.23259">
        <ele>1225.4</ele>
        <time>2025-07-22T12:55:31Z</time>
      </trkpt>
      <trkpt lat="42.96246" lon="-0.2327">
        <ele>1226.2</ele>
        <time>2025-07-22T12:55:35Z</time>
      </trkpt>
      <trkpt lat="42.96246" lon="-0.23272">
        <ele>1226.4</ele>
        <time>2025-07-22T12:55:36Z</time>
      </trkpt>
      <trkpt lat="42.96242" lon="-0.23292">
        <ele>1227.6</ele>
        <time>2025-07-22T12:55:43Z</time>
      </trkpt>
      <trkpt lat="42.9624" lon="-0.23306">
        <ele>1228.6</ele>
        <time>2025-07-22T12:55:48Z</time>
      </trkpt>
      <trkpt lat="42.96238" lon="-0.23323">
        <ele>1229.8</ele>
        <time>2025-07-22T12:55:54Z</time>
      </trkpt>
      <trkpt lat="42.96238" lon="-0.23329">
        <ele>1230</ele>
        <time>2025-07-22T12:55:56Z</time>
      </trkpt>
      <trkpt lat="42.96239" lon="-0.23338">
        <ele>1231</ele>
        <time>2025-07-22T12:55:59Z</time>
      </trkpt>
      <trkpt lat="42.96241" lon="-0.23353">
        <ele>1232</ele>
        <time>2025-07-22T12:56:04Z</time>
      </trkpt>
      <trkpt lat="42.96242" lon="-0.23356">
        <ele>1232.2</ele>
        <time>2025-07-22T12:56:05Z</time>
      </trkpt>
      <trkpt lat="42.96246" lon="-0.23372">
        <ele>1233.4</ele>
        <time>2025-07-22T12:56:11Z</time>
      </trkpt>
      <trkpt lat="42.96248" lon="-0.23381">
        <ele>1233.8</ele>
        <time>2025-07-22T12:56:14Z</time>
      </trkpt>
      <trkpt lat="42.96252" lon="-0.23392">
        <ele>1234.6</ele>
        <time>2025-07-22T12:56:18Z</time>
      </trkpt>
      <trkpt lat="42.96255" lon="-0.23402">
        <ele>1235.6</ele>
        <time>2025-07-22T12:56:22Z</time>
      </trkpt>
      <trkpt lat="42.96256" lon="-0.23405">
        <ele>1235.6</ele>
        <time>2025-07-22T12:56:23Z</time>
      </trkpt>
      <trkpt lat="42.96263" lon="-0.23426">
        <ele>1236.6</ele>
        <time>2025-07-22T12:56:31Z</time>
      </trkpt>
      <trkpt lat="42.96265" lon="-0.23431">
        <ele>1236.8</ele>
        <time>2025-07-22T12:56:33Z</time>
      </trkpt>
      <trkpt lat="42.96267" lon="-0.23442">
        <ele>1238.2</ele>
        <time>2025-07-22T12:56:37Z</time>
      </trkpt>
      <trkpt lat="42.9627" lon="-0.2345">
        <ele>1239.2</ele>
        <time>2025-07-22T12:56:40Z</time>
      </trkpt>
      <trkpt lat="42.96272" lon="-0.23455">
        <ele>1239.4</ele>
        <time>2025-07-22T12:56:42Z</time>
      </trkpt>
      <trkpt lat="42.96279" lon="-0.23476">
        <ele>1240.4</ele>
        <time>2025-07-22T12:56:50Z</time>
      </trkpt>
      <trkpt lat="42.9628" lon="-0.23481">
        <ele>1240.8</ele>
        <time>2025-07-22T12:56:52Z</time>
      </trkpt>
      <trkpt lat="42.96282" lon="-0.2349">
        <ele>1241.4</ele>
        <time>2025-07-22T12:56:55Z</time>
      </trkpt>
      <trkpt lat="42.96285" lon="-0.23501">
        <ele>1242.2</ele>
        <time>2025-07-22T12:56:59Z</time>
      </trkpt>
      <trkpt lat="42.96287" lon="-0.23509">
        <ele>1242.6</ele>
        <time>2025-07-22T12:57:02Z</time>
      </trkpt>
      <trkpt lat="42.96291" lon="-0.2352">
        <ele>1243.6</ele>
        <time>2025-07-22T12:57:06Z</time>
      </trkpt>
      <trkpt lat="42.96294" lon="-0.2353">
        <ele>1244.2</ele>
        <time>2025-07-22T12:57:10Z</time>
      </trkpt>
      <trkpt lat="42.96297" lon="-0.23541">
        <ele>1244.8</ele>
        <time>2025-07-22T12:57:14Z</time>
      </trkpt>
      <trkpt lat="42.96302" lon="-0.23558">
        <ele>1245.8</ele>
        <time>2025-07-22T12:57:20Z</time>
      </trkpt>
      <trkpt lat="42.96303" lon="-0.23564">
        <ele>1246.2</ele>
        <time>2025-07-22T12:57:22Z</time>
      </trkpt>
      <trkpt lat="42.96307" lon="-0.23575">
        <ele>1247</ele>
        <time>2025-07-22T12:57:26Z</time>
      </trkpt>
      <trkpt lat="42.96309" lon="-0.23586">
        <ele>1248</ele>
        <time>2025-07-22T12:57:30Z</time>
      </trkpt>
      <trkpt lat="42.96315" lon="-0.23602">
        <ele>1249.2</ele>
        <time>2025-07-22T12:57:36Z</time>
      </trkpt>
      <trkpt lat="42.96318" lon="-0.23611">
        <ele>1249.4</ele>
        <time>2025-07-22T12:57:39Z</time>
      </trkpt>
      <trkpt lat="42.96321" lon="-0.23619">
        <ele>1250</ele>
        <time>2025-07-22T12:57:42Z</time>
      </trkpt>
      <trkpt lat="42.96326" lon="-0.2363">
        <ele>1250.8</ele>
        <time>2025-07-22T12:57:46Z</time>
      </trkpt>
      <trkpt lat="42.96328" lon="-0.23635">
        <ele>1251</ele>
        <time>2025-07-22T12:57:48Z</time>
      </trkpt>
      <trkpt lat="42.96334" lon="-0.23647">
        <ele>1252.2</ele>
        <time>2025-07-22T12:57:53Z</time>
      </trkpt>
      <trkpt lat="42.96336" lon="-0.23649">
        <ele>1252.4</ele>
        <time>2025-07-22T12:57:54Z</time>
      </trkpt>
      <trkpt lat="42.96342" lon="-0.23662">
        <ele>1253.4</ele>
        <time>2025-07-22T12:57:59Z</time>
      </trkpt>
      <trkpt lat="42.96347" lon="-0.23672">
        <ele>1254</ele>
        <time>2025-07-22T12:58:03Z</time>
      </trkpt>
      <trkpt lat="42.9635" lon="-0.23676">
        <ele>1254.4</ele>
        <time>2025-07-22T12:58:05Z</time>
      </trkpt>
      <trkpt lat="42.96358" lon="-0.2369">
        <ele>1255.6</ele>
        <time>2025-07-22T12:58:11Z</time>
      </trkpt>
      <trkpt lat="42.96361" lon="-0.23698">
        <ele>1255.8</ele>
        <time>2025-07-22T12:58:14Z</time>
      </trkpt>
      <trkpt lat="42.96366" lon="-0.23708">
        <ele>1256.6</ele>
        <time>2025-07-22T12:58:18Z</time>
      </trkpt>
      <trkpt lat="42.9637" lon="-0.2372">
        <ele>1257.4</ele>
        <time>2025-07-22T12:58:23Z</time>
      </trkpt>
      <trkpt lat="42.96371" lon="-0.23723">
        <ele>1257.6</ele>
        <time>2025-07-22T12:58:24Z</time>
      </trkpt>
      <trkpt lat="42.96379" lon="-0.23743">
        <ele>1258.6</ele>
        <time>2025-07-22T12:58:32Z</time>
      </trkpt>
      <trkpt lat="42.96382" lon="-0.23762">
        <ele>1259.6</ele>
        <time>2025-07-22T12:58:39Z</time>
      </trkpt>
      <trkpt lat="42.96383" lon="-0.23764">
        <ele>1260</ele>
        <time>2025-07-22T12:58:40Z</time>
      </trkpt>
      <trkpt lat="42.96387" lon="-0.23776">
        <ele>1260.6</ele>
        <time>2025-07-22T12:58:45Z</time>
      </trkpt>
      <trkpt lat="42.96389" lon="-0.23781">
        <ele>1261.2</ele>
        <time>2025-07-22T12:58:47Z</time>
      </trkpt>
      <trkpt lat="42.9639" lon="-0.23783">
        <ele>1261.2</ele>
        <time>2025-07-22T12:58:48Z</time>
      </trkpt>
      <trkpt lat="42.96392" lon="-0.23788">
        <ele>1261.8</ele>
        <time>2025-07-22T12:58:50Z</time>
      </trkpt>
      <trkpt lat="42.96395" lon="-0.23798">
        <ele>1262.8</ele>
        <time>2025-07-22T12:58:54Z</time>
      </trkpt>
      <trkpt lat="42.96396" lon="-0.23801">
        <ele>1262.8</ele>
        <time>2025-07-22T12:58:55Z</time>
      </trkpt>
      <trkpt lat="42.96398" lon="-0.23814">
        <ele>1263.8</ele>
        <time>2025-07-22T12:59:00Z</time>
      </trkpt>
      <trkpt lat="42.96399" lon="-0.23817">
        <ele>1264</ele>
        <time>2025-07-22T12:59:01Z</time>
      </trkpt>
      <trkpt lat="42.96404" lon="-0.23839">
        <ele>1265</ele>
        <time>2025-07-22T12:59:08Z</time>
      </trkpt>
      <trkpt lat="42.96404" lon="-0.23842">
        <ele>1265</ele>
        <time>2025-07-22T12:59:09Z</time>
      </trkpt>
      <trkpt lat="42.96404" lon="-0.23861">
        <ele>1266.2</ele>
        <time>2025-07-22T12:59:15Z</time>
      </trkpt>
      <trkpt lat="42.96399" lon="-0.23872">
        <ele>1267.2</ele>
        <time>2025-07-22T12:59:20Z</time>
      </trkpt>
      <trkpt lat="42.96398" lon="-0.23877">
        <ele>1268</ele>
        <time>2025-07-22T12:59:22Z</time>
      </trkpt>
      <trkpt lat="42.96396" lon="-0.23881">
        <ele>1268.4</ele>
        <time>2025-07-22T12:59:24Z</time>
      </trkpt>
      <trkpt lat="42.96392" lon="-0.23896">
        <ele>1269.2</ele>
        <time>2025-07-22T12:59:30Z</time>
      </trkpt>
      <trkpt lat="42.96392" lon="-0.239">
        <ele>1269.6</ele>
        <time>2025-07-22T12:59:31Z</time>
      </trkpt>
      <trkpt lat="42.96393" lon="-0.2391">
        <ele>1270.6</ele>
        <time>2025-07-22T12:59:35Z</time>
      </trkpt>
      <trkpt lat="42.96395" lon="-0.23918">
        <ele>1271.2</ele>
        <time>2025-07-22T12:59:38Z</time>
      </trkpt>
      <trkpt lat="42.96398" lon="-0.2393">
        <ele>1272</ele>
        <time>2025-07-22T12:59:42Z</time>
      </trkpt>
      <trkpt lat="42.96399" lon="-0.23938">
        <ele>1272.6</ele>
        <time>2025-07-22T12:59:45Z</time>
      </trkpt>
      <trkpt lat="42.96401" lon="-0.23944">
        <ele>1273.4</ele>
        <time>2025-07-22T12:59:47Z</time>
      </trkpt>
      <trkpt lat="42.96405" lon="-0.23954">
        <ele>1274.4</ele>
        <time>2025-07-22T12:59:51Z</time>
      </trkpt>
      <trkpt lat="42.96407" lon="-0.23959">
        <ele>1274.8</ele>
        <time>2025-07-22T12:59:53Z</time>
      </trkpt>
      <trkpt lat="42.96411" lon="-0.23965">
        <ele>1275.4</ele>
        <time>2025-07-22T12:59:56Z</time>
      </trkpt>
      <trkpt lat="42.96416" lon="-0.23973">
        <ele>1276.6</ele>
        <time>2025-07-22T13:00:00Z</time>
      </trkpt>
      <trkpt lat="42.9642" lon="-0.23986">
        <ele>1277.8</ele>
        <time>2025-07-22T13:00:05Z</time>
      </trkpt>
      <trkpt lat="42.96422" lon="-0.23994">
        <ele>1278.2</ele>
        <time>2025-07-22T13:00:08Z</time>
      </trkpt>
      <trkpt lat="42.96422" lon="-0.24002">
        <ele>1278.8</ele>
        <time>2025-07-22T13:00:11Z</time>
      </trkpt>
      <trkpt lat="42.9642" lon="-0.24016">
        <ele>1279.6</ele>
        <time>2025-07-22T13:00:15Z</time>
      </trkpt>
      <trkpt lat="42.9642" lon="-0.24016">
        <ele>1279.8</ele>
        <time>2025-07-22T13:00:16Z</time>
      </trkpt>
      <trkpt lat="42.96415" lon="-0.24028">
        <ele>1281</ele>
        <time>2025-07-22T13:00:21Z</time>
      </trkpt>
      <trkpt lat="42.96409" lon="-0.24039">
        <ele>1281.6</ele>
        <time>2025-07-22T13:00:25Z</time>
      </trkpt>
      <trkpt lat="42.96409" lon="-0.24039">
        <ele>1281.8</ele>
        <time>2025-07-22T13:00:26Z</time>
      </trkpt>
      <trkpt lat="42.96402" lon="-0.24052">
        <ele>1282.8</ele>
        <time>2025-07-22T13:00:32Z</time>
      </trkpt>
      <trkpt lat="42.96399" lon="-0.24058">
        <ele>1283.4</ele>
        <time>2025-07-22T13:00:34Z</time>
      </trkpt>
      <trkpt lat="42.96395" lon="-0.24064">
        <ele>1284</ele>
        <time>2025-07-22T13:00:37Z</time>
      </trkpt>
      <trkpt lat="42.96389" lon="-0.24075">
        <ele>1285</ele>
        <time>2025-07-22T13:00:43Z</time>
      </trkpt>
      <trkpt lat="42.96385" lon="-0.24083">
        <ele>1285.4</ele>
        <time>2025-07-22T13:00:45Z</time>
      </trkpt>
      <trkpt lat="42.96382" lon="-0.24087">
        <ele>1286.2</ele>
        <time>2025-07-22T13:00:48Z</time>
      </trkpt>
      <trkpt lat="42.9637" lon="-0.24101">
        <ele>1287</ele>
        <time>2025-07-22T13:00:55Z</time>
      </trkpt>
      <trkpt lat="42.96366" lon="-0.24103">
        <ele>1287.2</ele>
        <time>2025-07-22T13:00:56Z</time>
      </trkpt>
      <trkpt lat="42.96357" lon="-0.24106">
        <ele>1288</ele>
        <time>2025-07-22T13:01:00Z</time>
      </trkpt>
      <trkpt lat="42.96346" lon="-0.24107">
        <ele>1289.2</ele>
        <time>2025-07-22T13:01:05Z</time>
      </trkpt>
      <trkpt lat="42.96334" lon="-0.24107">
        <ele>1290.2</ele>
        <time>2025-07-22T13:01:11Z</time>
      </trkpt>
      <trkpt lat="42.96322" lon="-0.24106">
        <ele>1290.8</ele>
        <time>2025-07-22T13:01:16Z</time>
      </trkpt>
      <trkpt lat="42.96316" lon="-0.24108">
        <ele>1291.2</ele>
        <time>2025-07-22T13:01:19Z</time>
      </trkpt>
      <trkpt lat="42.96307" lon="-0.24113">
        <ele>1292.4</ele>
        <time>2025-07-22T13:01:25Z</time>
      </trkpt>
      <trkpt lat="42.96305" lon="-0.24114">
        <ele>1292.8</ele>
        <time>2025-07-22T13:01:26Z</time>
      </trkpt>
      <trkpt lat="42.96296" lon="-0.24123">
        <ele>1293.4</ele>
        <time>2025-07-22T13:01:30Z</time>
      </trkpt>
      <trkpt lat="42.96289" lon="-0.24131">
        <ele>1294.4</ele>
        <time>2025-07-22T13:01:36Z</time>
      </trkpt>
      <trkpt lat="42.96282" lon="-0.24141">
        <ele>1295.6</ele>
        <time>2025-07-22T13:01:41Z</time>
      </trkpt>
      <trkpt lat="42.96277" lon="-0.24156">
        <ele>1296.6</ele>
        <time>2025-07-22T13:01:46Z</time>
      </trkpt>
      <trkpt lat="42.96275" lon="-0.24171">
        <ele>1297.6</ele>
        <time>2025-07-22T13:01:51Z</time>
      </trkpt>
      <trkpt lat="42.96275" lon="-0.24186">
        <ele>1298.4</ele>
        <time>2025-07-22T13:01:56Z</time>
      </trkpt>
      <trkpt lat="42.96276" lon="-0.24189">
        <ele>1298.8</ele>
        <time>2025-07-22T13:01:58Z</time>
      </trkpt>
      <trkpt lat="42.96282" lon="-0.24207">
        <ele>1299.8</ele>
        <time>2025-07-22T13:02:04Z</time>
      </trkpt>
      <trkpt lat="42.96284" lon="-0.24212">
        <ele>1300.4</ele>
        <time>2025-07-22T13:02:06Z</time>
      </trkpt>
      <trkpt lat="42.96289" lon="-0.24221">
        <ele>1301</ele>
        <time>2025-07-22T13:02:10Z</time>
      </trkpt>
      <trkpt lat="42.96294" lon="-0.24226">
        <ele>1302.4</ele>
        <time>2025-07-22T13:02:14Z</time>
      </trkpt>
      <trkpt lat="42.96299" lon="-0.2423">
        <ele>1303.2</ele>
        <time>2025-07-22T13:02:16Z</time>
      </trkpt>
      <trkpt lat="42.96299" lon="-0.2423">
        <ele>1303.6</ele>
        <time>2025-07-22T13:02:17Z</time>
      </trkpt>
      <trkpt lat="42.96307" lon="-0.24233">
        <ele>1304.6</ele>
        <time>2025-07-22T13:02:20Z</time>
      </trkpt>
      <trkpt lat="42.96312" lon="-0.24233">
        <ele>1305.6</ele>
        <time>2025-07-22T13:02:23Z</time>
      </trkpt>
      <trkpt lat="42.96316" lon="-0.24233">
        <ele>1305.8</ele>
        <time>2025-07-22T13:02:24Z</time>
      </trkpt>
      <trkpt lat="42.96323" lon="-0.24233">
        <ele>1306.8</ele>
        <time>2025-07-22T13:02:27Z</time>
      </trkpt>
      <trkpt lat="42.96332" lon="-0.24235">
        <ele>1307.8</ele>
        <time>2025-07-22T13:02:31Z</time>
      </trkpt>
      <trkpt lat="42.96332" lon="-0.24235">
        <ele>1308.2</ele>
        <time>2025-07-22T13:02:32Z</time>
      </trkpt>
      <trkpt lat="42.96345" lon="-0.24245">
        <ele>1308.8</ele>
        <time>2025-07-22T13:02:38Z</time>
      </trkpt>
      <trkpt lat="42.96345" lon="-0.24245">
        <ele>1309.2</ele>
        <time>2025-07-22T13:02:39Z</time>
      </trkpt>
      <trkpt lat="42.96351" lon="-0.24264">
        <ele>1310</ele>
        <time>2025-07-22T13:02:45Z</time>
      </trkpt>
      <trkpt lat="42.96352" lon="-0.2427">
        <ele>1310.6</ele>
        <time>2025-07-22T13:02:47Z</time>
      </trkpt>
      <trkpt lat="42.96352" lon="-0.24272">
        <ele>1311</ele>
        <time>2025-07-22T13:02:49Z</time>
      </trkpt>
      <trkpt lat="42.9635" lon="-0.24283">
        <ele>1312.2</ele>
        <time>2025-07-22T13:02:53Z</time>
      </trkpt>
      <trkpt lat="42.96347" lon="-0.2429">
        <ele>1312.8</ele>
        <time>2025-07-22T13:02:56Z</time>
      </trkpt>
      <trkpt lat="42.96344" lon="-0.24296">
        <ele>1313.2</ele>
        <time>2025-07-22T13:02:58Z</time>
      </trkpt>
      <trkpt lat="42.96337" lon="-0.24307">
        <ele>1314.2</ele>
        <time>2025-07-22T13:03:03Z</time>
      </trkpt>
      <trkpt lat="42.96328" lon="-0.24319">
        <ele>1315.4</ele>
        <time>2025-07-22T13:03:09Z</time>
      </trkpt>
      <trkpt lat="42.96325" lon="-0.24323">
        <ele>1315.6</ele>
        <time>2025-07-22T13:03:12Z</time>
      </trkpt>
      <trkpt lat="42.96315" lon="-0.24336">
        <ele>1316.4</ele>
        <time>2025-07-22T13:03:17Z</time>
      </trkpt>
      <trkpt lat="42.96311" lon="-0.24342">
        <ele>1317</ele>
        <time>2025-07-22T13:03:20Z</time>
      </trkpt>
      <trkpt lat="42.96309" lon="-0.24345">
        <ele>1317.4</ele>
        <time>2025-07-22T13:03:22Z</time>
      </trkpt>
      <trkpt lat="42.96303" lon="-0.24359">
        <ele>1318.6</ele>
        <time>2025-07-22T13:03:27Z</time>
      </trkpt>
      <trkpt lat="42.96298" lon="-0.24367">
        <ele>1319.2</ele>
        <time>2025-07-22T13:03:31Z</time>
      </trkpt>
      <trkpt lat="42.96296" lon="-0.24371">
        <ele>1319.6</ele>
        <time>2025-07-22T13:03:33Z</time>
      </trkpt>
      <trkpt lat="42.96292" lon="-0.24383">
        <ele>1320.6</ele>
        <time>2025-07-22T13:03:39Z</time>
      </trkpt>
      <trkpt lat="42.96291" lon="-0.24387">
        <ele>1320.8</ele>
        <time>2025-07-22T13:03:40Z</time>
      </trkpt>
      <trkpt lat="42.96291" lon="-0.24387">
        <ele>1321</ele>
        <time>2025-07-22T13:03:41Z</time>
      </trkpt>
      <trkpt lat="42.96288" lon="-0.244">
        <ele>1321.8</ele>
        <time>2025-07-22T13:03:45Z</time>
      </trkpt>
      <trkpt lat="42.96282" lon="-0.24413">
        <ele>1323</ele>
        <time>2025-07-22T13:03:50Z</time>
      </trkpt>
      <trkpt lat="42.96275" lon="-0.24429">
        <ele>1324.4</ele>
        <time>2025-07-22T13:03:56Z</time>
      </trkpt>
      <trkpt lat="42.96273" lon="-0.24434">
        <ele>1325</ele>
        <time>2025-07-22T13:03:59Z</time>
      </trkpt>
      <trkpt lat="42.96268" lon="-0.24445">
        <ele>1325.6</ele>
        <time>2025-07-22T13:04:03Z</time>
      </trkpt>
      <trkpt lat="42.96264" lon="-0.24455">
        <ele>1326.2</ele>
        <time>2025-07-22T13:04:07Z</time>
      </trkpt>
      <trkpt lat="42.96263" lon="-0.24457">
        <ele>1326.6</ele>
        <time>2025-07-22T13:04:08Z</time>
      </trkpt>
      <trkpt lat="42.96257" lon="-0.24469">
        <ele>1327.6</ele>
        <time>2025-07-22T13:04:13Z</time>
      </trkpt>
      <trkpt lat="42.96251" lon="-0.24476">
        <ele>1328.4</ele>
        <time>2025-07-22T13:04:17Z</time>
      </trkpt>
      <trkpt lat="42.96249" lon="-0.24478">
        <ele>1328.8</ele>
        <time>2025-07-22T13:04:19Z</time>
      </trkpt>
      <trkpt lat="42.96239" lon="-0.2449">
        <ele>1329.8</ele>
        <time>2025-07-22T13:04:25Z</time>
      </trkpt>
      <trkpt lat="42.96237" lon="-0.24492">
        <ele>1329.8</ele>
        <time>2025-07-22T13:04:26Z</time>
      </trkpt>
      <trkpt lat="42.96227" lon="-0.24499">
        <ele>1331</ele>
        <time>2025-07-22T13:04:31Z</time>
      </trkpt>
      <trkpt lat="42.96219" lon="-0.24508">
        <ele>1331.8</ele>
        <time>2025-07-22T13:04:36Z</time>
      </trkpt>
      <trkpt lat="42.96216" lon="-0.24511">
        <ele>1332</ele>
        <time>2025-07-22T13:04:38Z</time>
      </trkpt>
      <trkpt lat="42.96201" lon="-0.24526">
        <ele>1333</ele>
        <time>2025-07-22T13:04:47Z</time>
      </trkpt>
      <trkpt lat="42.96197" lon="-0.24529">
        <ele>1333.4</ele>
        <time>2025-07-22T13:04:49Z</time>
      </trkpt>
      <trkpt lat="42.9619" lon="-0.24537">
        <ele>1334.2</ele>
        <time>2025-07-22T13:04:53Z</time>
      </trkpt>
      <trkpt lat="42.96184" lon="-0.24544">
        <ele>1335.2</ele>
        <time>2025-07-22T13:04:57Z</time>
      </trkpt>
      <trkpt lat="42.96182" lon="-0.24546">
        <ele>1335.4</ele>
        <time>2025-07-22T13:04:58Z</time>
      </trkpt>
      <trkpt lat="42.96174" lon="-0.24557">
        <ele>1336.4</ele>
        <time>2025-07-22T13:05:03Z</time>
      </trkpt>
      <trkpt lat="42.96166" lon="-0.24566">
        <ele>1337.4</ele>
        <time>2025-07-22T13:05:08Z</time>
      </trkpt>
      <trkpt lat="42.96164" lon="-0.24568">
        <ele>1337.6</ele>
        <time>2025-07-22T13:05:09Z</time>
      </trkpt>
      <trkpt lat="42.96153" lon="-0.24577">
        <ele>1338.4</ele>
        <time>2025-07-22T13:05:15Z</time>
      </trkpt>
      <trkpt lat="42.96149" lon="-0.2458">
        <ele>1338.8</ele>
        <time>2025-07-22T13:05:17Z</time>
      </trkpt>
      <trkpt lat="42.96144" lon="-0.24585">
        <ele>1339.4</ele>
        <time>2025-07-22T13:05:20Z</time>
      </trkpt>
      <trkpt lat="42.96136" lon="-0.24595">
        <ele>1340.4</ele>
        <time>2025-07-22T13:05:25Z</time>
      </trkpt>
      <trkpt lat="42.96135" lon="-0.24597">
        <ele>1340.6</ele>
        <time>2025-07-22T13:05:26Z</time>
      </trkpt>
      <trkpt lat="42.96127" lon="-0.24614">
        <ele>1341.8</ele>
        <time>2025-07-22T13:05:33Z</time>
      </trkpt>
      <trkpt lat="42.96124" lon="-0.24624">
        <ele>1342.2</ele>
        <time>2025-07-22T13:05:37Z</time>
      </trkpt>
      <trkpt lat="42.96123" lon="-0.24628">
        <ele>1342.8</ele>
        <time>2025-07-22T13:05:40Z</time>
      </trkpt>
      <trkpt lat="42.96121" lon="-0.24641">
        <ele>1344</ele>
        <time>2025-07-22T13:05:45Z</time>
      </trkpt>
      <trkpt lat="42.9612" lon="-0.24644">
        <ele>1344.2</ele>
        <time>2025-07-22T13:05:46Z</time>
      </trkpt>
      <trkpt lat="42.96117" lon="-0.24654">
        <ele>1345</ele>
        <time>2025-07-22T13:05:50Z</time>
      </trkpt>
      <trkpt lat="42.96111" lon="-0.2467">
        <ele>1346</ele>
        <time>2025-07-22T13:05:55Z</time>
      </trkpt>
      <trkpt lat="42.9611" lon="-0.24673">
        <ele>1346.2</ele>
        <time>2025-07-22T13:05:56Z</time>
      </trkpt>
      <trkpt lat="42.96104" lon="-0.2469">
        <ele>1347.4</ele>
        <time>2025-07-22T13:06:02Z</time>
      </trkpt>
      <trkpt lat="42.96098" lon="-0.24707">
        <ele>1348.4</ele>
        <time>2025-07-22T13:06:09Z</time>
      </trkpt>
      <trkpt lat="42.96096" lon="-0.24716">
        <ele>1349.2</ele>
        <time>2025-07-22T13:06:12Z</time>
      </trkpt>
      <trkpt lat="42.96095" lon="-0.24721">
        <ele>1349.6</ele>
        <time>2025-07-22T13:06:14Z</time>
      </trkpt>
      <trkpt lat="42.9609" lon="-0.24741">
        <ele>1350.6</ele>
        <time>2025-07-22T13:06:21Z</time>
      </trkpt>
      <trkpt lat="42.96089" lon="-0.24749">
        <ele>1351.2</ele>
        <time>2025-07-22T13:06:24Z</time>
      </trkpt>
      <trkpt lat="42.96088" lon="-0.24755">
        <ele>1351.6</ele>
        <time>2025-07-22T13:06:26Z</time>
      </trkpt>
      <trkpt lat="42.96085" lon="-0.24771">
        <ele>1352.8</ele>
        <time>2025-07-22T13:06:32Z</time>
      </trkpt>
      <trkpt lat="42.96082" lon="-0.24778">
        <ele>1353.4</ele>
        <time>2025-07-22T13:06:35Z</time>
      </trkpt>
      <trkpt lat="42.96079" lon="-0.24786">
        <ele>1353.8</ele>
        <time>2025-07-22T13:06:38Z</time>
      </trkpt>
      <trkpt lat="42.96073" lon="-0.24798">
        <ele>1354.4</ele>
        <time>2025-07-22T13:06:43Z</time>
      </trkpt>
      <trkpt lat="42.96072" lon="-0.24801">
        <ele>1354.8</ele>
        <time>2025-07-22T13:06:44Z</time>
      </trkpt>
      <trkpt lat="42.96066" lon="-0.24815">
        <ele>1356</ele>
        <time>2025-07-22T13:06:50Z</time>
      </trkpt>
      <trkpt lat="42.96063" lon="-0.24822">
        <ele>1356.4</ele>
        <time>2025-07-22T13:06:53Z</time>
      </trkpt>
      <trkpt lat="42.96058" lon="-0.24829">
        <ele>1357.2</ele>
        <time>2025-07-22T13:06:56Z</time>
      </trkpt>
      <trkpt lat="42.96052" lon="-0.24837">
        <ele>1358.4</ele>
        <time>2025-07-22T13:07:00Z</time>
      </trkpt>
      <trkpt lat="42.96045" lon="-0.24846">
        <ele>1359.4</ele>
        <time>2025-07-22T13:07:04Z</time>
      </trkpt>
      <trkpt lat="42.96034" lon="-0.24859">
        <ele>1360.4</ele>
        <time>2025-07-22T13:07:11Z</time>
      </trkpt>
      <trkpt lat="42.96031" lon="-0.24866">
        <ele>1360.8</ele>
        <time>2025-07-22T13:07:14Z</time>
      </trkpt>
      <trkpt lat="42.96027" lon="-0.24877">
        <ele>1361.6</ele>
        <time>2025-07-22T13:07:18Z</time>
      </trkpt>
      <trkpt lat="42.96022" lon="-0.24893">
        <ele>1362.4</ele>
        <time>2025-07-22T13:07:24Z</time>
      </trkpt>
      <trkpt lat="42.96022" lon="-0.24893">
        <ele>1362.4</ele>
        <time>2025-07-22T13:07:25Z</time>
      </trkpt>
      <trkpt lat="42.96016" lon="-0.24909">
        <ele>1363.6</ele>
        <time>2025-07-22T13:07:31Z</time>
      </trkpt>
      <trkpt lat="42.96013" lon="-0.24921">
        <ele>1364.4</ele>
        <time>2025-07-22T13:07:34Z</time>
      </trkpt>
      <trkpt lat="42.96013" lon="-0.24923">
        <ele>1364.6</ele>
        <time>2025-07-22T13:07:35Z</time>
      </trkpt>
      <trkpt lat="42.96008" lon="-0.24948">
        <ele>1366</ele>
        <time>2025-07-22T13:07:43Z</time>
      </trkpt>
      <trkpt lat="42.96008" lon="-0.24963">
        <ele>1367</ele>
        <time>2025-07-22T13:07:48Z</time>
      </trkpt>
      <trkpt lat="42.96009" lon="-0.24976">
        <ele>1367.4</ele>
        <time>2025-07-22T13:07:52Z</time>
      </trkpt>
      <trkpt lat="42.96012" lon="-0.2499">
        <ele>1368.2</ele>
        <time>2025-07-22T13:07:57Z</time>
      </trkpt>
      <trkpt lat="42.96016" lon="-0.25005">
        <ele>1369.4</ele>
        <time>2025-07-22T13:08:03Z</time>
      </trkpt>
      <trkpt lat="42.96022" lon="-0.25019">
        <ele>1370</ele>
        <time>2025-07-22T13:08:08Z</time>
      </trkpt>
      <trkpt lat="42.96024" lon="-0.25021">
        <ele>1370.2</ele>
        <time>2025-07-22T13:08:09Z</time>
      </trkpt>
      <trkpt lat="42.96026" lon="-0.25023">
        <ele>1370.6</ele>
        <time>2025-07-22T13:08:10Z</time>
      </trkpt>
      <trkpt lat="42.96035" lon="-0.25031">
        <ele>1371.8</ele>
        <time>2025-07-22T13:08:16Z</time>
      </trkpt>
      <trkpt lat="42.96039" lon="-0.25033">
        <ele>1372.4</ele>
        <time>2025-07-22T13:08:18Z</time>
      </trkpt>
      <trkpt lat="42.96041" lon="-0.25033">
        <ele>1372.8</ele>
        <time>2025-07-22T13:08:19Z</time>
      </trkpt>
      <trkpt lat="42.96048" lon="-0.25033">
        <ele>1374</ele>
        <time>2025-07-22T13:08:22Z</time>
      </trkpt>
      <trkpt lat="42.96058" lon="-0.25033">
        <ele>1375</ele>
        <time>2025-07-22T13:08:26Z</time>
      </trkpt>
      <trkpt lat="42.9607" lon="-0.25033">
        <ele>1376</ele>
        <time>2025-07-22T13:08:32Z</time>
      </trkpt>
      <trkpt lat="42.96078" lon="-0.25033">
        <ele>1376.6</ele>
        <time>2025-07-22T13:08:36Z</time>
      </trkpt>
      <trkpt lat="42.96084" lon="-0.25034">
        <ele>1377</ele>
        <time>2025-07-22T13:08:39Z</time>
      </trkpt>
      <trkpt lat="42.96095" lon="-0.25036">
        <ele>1378.4</ele>
        <time>2025-07-22T13:08:45Z</time>
      </trkpt>
      <trkpt lat="42.96105" lon="-0.25041">
        <ele>1379.8</ele>
        <time>2025-07-22T13:08:51Z</time>
      </trkpt>
      <trkpt lat="42.96114" lon="-0.25051">
        <ele>1380.4</ele>
        <time>2025-07-22T13:08:55Z</time>
      </trkpt>
      <trkpt lat="42.96118" lon="-0.25062">
        <ele>1380.8</ele>
        <time>2025-07-22T13:08:59Z</time>
      </trkpt>
      <trkpt lat="42.9612" lon="-0.25072">
        <ele>1381</ele>
        <time>2025-07-22T13:09:02Z</time>
      </trkpt>
      <trkpt lat="42.96122" lon="-0.2508">
        <ele>1381.8</ele>
        <time>2025-07-22T13:09:05Z</time>
      </trkpt>
      <trkpt lat="42.96121" lon="-0.25094">
        <ele>1382.6</ele>
        <time>2025-07-22T13:09:10Z</time>
      </trkpt>
      <trkpt lat="42.96118" lon="-0.25101">
        <ele>1383</ele>
        <time>2025-07-22T13:09:13Z</time>
      </trkpt>
      <trkpt lat="42.96115" lon="-0.25113">
        <ele>1384</ele>
        <time>2025-07-22T13:09:18Z</time>
      </trkpt>
      <trkpt lat="42.96112" lon="-0.25121">
        <ele>1385</ele>
        <time>2025-07-22T13:09:21Z</time>
      </trkpt>
      <trkpt lat="42.96111" lon="-0.25126">
        <ele>1386</ele>
        <time>2025-07-22T13:09:24Z</time>
      </trkpt>
      <trkpt lat="42.96107" lon="-0.25139">
        <ele>1387.2</ele>
        <time>2025-07-22T13:09:28Z</time>
      </trkpt>
      <trkpt lat="42.96102" lon="-0.25153">
        <ele>1388.6</ele>
        <time>2025-07-22T13:09:33Z</time>
      </trkpt>
      <trkpt lat="42.961" lon="-0.25165">
        <ele>1389.6</ele>
        <time>2025-07-22T13:09:37Z</time>
      </trkpt>
      <trkpt lat="42.96099" lon="-0.25167">
        <ele>1389.6</ele>
        <time>2025-07-22T13:09:38Z</time>
      </trkpt>
      <trkpt lat="42.96099" lon="-0.25179">
        <ele>1390.6</ele>
        <time>2025-07-22T13:09:42Z</time>
      </trkpt>
      <trkpt lat="42.96099" lon="-0.25182">
        <ele>1390.8</ele>
        <time>2025-07-22T13:09:43Z</time>
      </trkpt>
      <trkpt lat="42.96105" lon="-0.25194">
        <ele>1392</ele>
        <time>2025-07-22T13:09:48Z</time>
      </trkpt>
      <trkpt lat="42.96108" lon="-0.25198">
        <ele>1392.4</ele>
        <time>2025-07-22T13:09:50Z</time>
      </trkpt>
      <trkpt lat="42.96111" lon="-0.25203">
        <ele>1393.2</ele>
        <time>2025-07-22T13:09:53Z</time>
      </trkpt>
      <trkpt lat="42.96118" lon="-0.25212">
        <ele>1394.2</ele>
        <time>2025-07-22T13:09:57Z</time>
      </trkpt>
      <trkpt lat="42.96124" lon="-0.25221">
        <ele>1394.6</ele>
        <time>2025-07-22T13:10:01Z</time>
      </trkpt>
      <trkpt lat="42.96127" lon="-0.25226">
        <ele>1395</ele>
        <time>2025-07-22T13:10:03Z</time>
      </trkpt>
      <trkpt lat="42.9613" lon="-0.2524">
        <ele>1396</ele>
        <time>2025-07-22T13:10:08Z</time>
      </trkpt>
      <trkpt lat="42.9613" lon="-0.25245">
        <ele>1396.4</ele>
        <time>2025-07-22T13:10:10Z</time>
      </trkpt>
      <trkpt lat="42.96129" lon="-0.25254">
        <ele>1397</ele>
        <time>2025-07-22T13:10:13Z</time>
      </trkpt>
      <trkpt lat="42.96125" lon="-0.25267">
        <ele>1397.8</ele>
        <time>2025-07-22T13:10:18Z</time>
      </trkpt>
      <trkpt lat="42.96123" lon="-0.25274">
        <ele>1398.2</ele>
        <time>2025-07-22T13:10:21Z</time>
      </trkpt>
      <trkpt lat="42.96121" lon="-0.25284">
        <ele>1399.2</ele>
        <time>2025-07-22T13:10:25Z</time>
      </trkpt>
      <trkpt lat="42.9612" lon="-0.2529">
        <ele>1399.2</ele>
        <time>2025-07-22T13:10:27Z</time>
      </trkpt>
      <trkpt lat="42.96119" lon="-0.25305">
        <ele>1400.4</ele>
        <time>2025-07-22T13:10:32Z</time>
      </trkpt>
      <trkpt lat="42.96119" lon="-0.25311">
        <ele>1400.8</ele>
        <time>2025-07-22T13:10:34Z</time>
      </trkpt>
      <trkpt lat="42.96119" lon="-0.25319">
        <ele>1401.6</ele>
        <time>2025-07-22T13:10:37Z</time>
      </trkpt>
      <trkpt lat="42.9612" lon="-0.25336">
        <ele>1402.8</ele>
        <time>2025-07-22T13:10:43Z</time>
      </trkpt>
      <trkpt lat="42.9612" lon="-0.25339">
        <ele>1403</ele>
        <time>2025-07-22T13:10:44Z</time>
      </trkpt>
      <trkpt lat="42.96121" lon="-0.25355">
        <ele>1403.8</ele>
        <time>2025-07-22T13:10:49Z</time>
      </trkpt>
      <trkpt lat="42.9612" lon="-0.25363">
        <ele>1404.6</ele>
        <time>2025-07-22T13:10:52Z</time>
      </trkpt>
      <trkpt lat="42.9612" lon="-0.25366">
        <ele>1404.8</ele>
        <time>2025-07-22T13:10:53Z</time>
      </trkpt>
      <trkpt lat="42.96118" lon="-0.2538">
        <ele>1406</ele>
        <time>2025-07-22T13:10:58Z</time>
      </trkpt>
      <trkpt lat="42.96117" lon="-0.25385">
        <ele>1406.4</ele>
        <time>2025-07-22T13:11:00Z</time>
      </trkpt>
      <trkpt lat="42.96112" lon="-0.25395">
        <ele>1407.2</ele>
        <time>2025-07-22T13:11:04Z</time>
      </trkpt>
      <trkpt lat="42.9611" lon="-0.25399">
        <ele>1407.4</ele>
        <time>2025-07-22T13:11:06Z</time>
      </trkpt>
      <trkpt lat="42.96104" lon="-0.25403">
        <ele>1408.2</ele>
        <time>2025-07-22T13:11:09Z</time>
      </trkpt>
      <trkpt lat="42.96096" lon="-0.25408">
        <ele>1409.2</ele>
        <time>2025-07-22T13:11:13Z</time>
      </trkpt>
      <trkpt lat="42.96094" lon="-0.25409">
        <ele>1409.4</ele>
        <time>2025-07-22T13:11:14Z</time>
      </trkpt>
      <trkpt lat="42.96084" lon="-0.25415">
        <ele>1410.2</ele>
        <time>2025-07-22T13:11:19Z</time>
      </trkpt>
      <trkpt lat="42.96079" lon="-0.25419">
        <ele>1411.4</ele>
        <time>2025-07-22T13:11:22Z</time>
      </trkpt>
      <trkpt lat="42.96072" lon="-0.25426">
        <ele>1412.2</ele>
        <time>2025-07-22T13:11:26Z</time>
      </trkpt>
      <trkpt lat="42.9607" lon="-0.25428">
        <ele>1412.6</ele>
        <time>2025-07-22T13:11:27Z</time>
      </trkpt>
      <trkpt lat="42.96062" lon="-0.25438">
        <ele>1413.6</ele>
        <time>2025-07-22T13:11:32Z</time>
      </trkpt>
      <trkpt lat="42.96058" lon="-0.25444">
        <ele>1414.4</ele>
        <time>2025-07-22T13:11:35Z</time>
      </trkpt>
      <trkpt lat="42.96055" lon="-0.25448">
        <ele>1414.6</ele>
        <time>2025-07-22T13:11:37Z</time>
      </trkpt>
      <trkpt lat="42.96047" lon="-0.25459">
        <ele>1415.6</ele>
        <time>2025-07-22T13:11:42Z</time>
      </trkpt>
      <trkpt lat="42.96042" lon="-0.25468">
        <ele>1416.4</ele>
        <time>2025-07-22T13:11:46Z</time>
      </trkpt>
      <trkpt lat="42.9604" lon="-0.25473">
        <ele>1416.8</ele>
        <time>2025-07-22T13:11:48Z</time>
      </trkpt>
      <trkpt lat="42.96034" lon="-0.25484">
        <ele>1418</ele>
        <time>2025-07-22T13:11:53Z</time>
      </trkpt>
      <trkpt lat="42.96034" lon="-0.25487">
        <ele>1418.2</ele>
        <time>2025-07-22T13:11:54Z</time>
      </trkpt>
      <trkpt lat="42.96031" lon="-0.25501">
        <ele>1419</ele>
        <time>2025-07-22T13:11:59Z</time>
      </trkpt>
      <trkpt lat="42.9603" lon="-0.25512">
        <ele>1420</ele>
        <time>2025-07-22T13:12:03Z</time>
      </trkpt>
      <trkpt lat="42.9603" lon="-0.25514">
        <ele>1420.2</ele>
        <time>2025-07-22T13:12:04Z</time>
      </trkpt>
      <trkpt lat="42.96028" lon="-0.2553">
        <ele>1421.4</ele>
        <time>2025-07-22T13:12:09Z</time>
      </trkpt>
      <trkpt lat="42.96028" lon="-0.25533">
        <ele>1421.8</ele>
        <time>2025-07-22T13:12:10Z</time>
      </trkpt>
      <trkpt lat="42.96029" lon="-0.25542">
        <ele>1422.4</ele>
        <time>2025-07-22T13:12:13Z</time>
      </trkpt>
      <trkpt lat="42.9603" lon="-0.2556">
        <ele>1423.6</ele>
        <time>2025-07-22T13:12:19Z</time>
      </trkpt>
      <trkpt lat="42.96031" lon="-0.25566">
        <ele>1423.8</ele>
        <time>2025-07-22T13:12:21Z</time>
      </trkpt>
      <trkpt lat="42.96037" lon="-0.25579">
        <ele>1425</ele>
        <time>2025-07-22T13:12:26Z</time>
      </trkpt>
      <trkpt lat="42.9604" lon="-0.25583">
        <ele>1425.2</ele>
        <time>2025-07-22T13:12:28Z</time>
      </trkpt>
      <trkpt lat="42.96045" lon="-0.25589">
        <ele>1426</ele>
        <time>2025-07-22T13:12:31Z</time>
      </trkpt>
      <trkpt lat="42.96056" lon="-0.25598">
        <ele>1427</ele>
        <time>2025-07-22T13:12:37Z</time>
      </trkpt>
      <trkpt lat="42.96058" lon="-0.25599">
        <ele>1427</ele>
        <time>2025-07-22T13:12:38Z</time>
      </trkpt>
      <trkpt lat="42.9607" lon="-0.25608">
        <ele>1428.4</ele>
        <time>2025-07-22T13:12:44Z</time>
      </trkpt>
      <trkpt lat="42.96073" lon="-0.25612">
        <ele>1428.8</ele>
        <time>2025-07-22T13:12:46Z</time>
      </trkpt>
      <trkpt lat="42.96079" lon="-0.25621">
        <ele>1429.4</ele>
        <time>2025-07-22T13:12:50Z</time>
      </trkpt>
      <trkpt lat="42.96084" lon="-0.25634">
        <ele>1430.6</ele>
        <time>2025-07-22T13:12:55Z</time>
      </trkpt>
      <trkpt lat="42.96086" lon="-0.25649">
        <ele>1431.6</ele>
        <time>2025-07-22T13:13:00Z</time>
      </trkpt>
      <trkpt lat="42.96086" lon="-0.25655">
        <ele>1431.8</ele>
        <time>2025-07-22T13:13:02Z</time>
      </trkpt>
      <trkpt lat="42.96086" lon="-0.25658">
        <ele>1432</ele>
        <time>2025-07-22T13:13:03Z</time>
      </trkpt>
      <trkpt lat="42.96086" lon="-0.25671">
        <ele>1432.8</ele>
        <time>2025-07-22T13:13:07Z</time>
      </trkpt>
      <trkpt lat="42.96086" lon="-0.25683">
        <ele>1433.4</ele>
        <time>2025-07-22T13:13:11Z</time>
      </trkpt>
      <trkpt lat="42.96087" lon="-0.25691">
        <ele>1434</ele>
        <time>2025-07-22T13:13:14Z</time>
      </trkpt>
      <trkpt lat="42.96088" lon="-0.25707">
        <ele>1434.8</ele>
        <time>2025-07-22T13:13:20Z</time>
      </trkpt>
      <trkpt lat="42.96088" lon="-0.25709">
        <ele>1435</ele>
        <time>2025-07-22T13:13:21Z</time>
      </trkpt>
      <trkpt lat="42.96088" lon="-0.2572">
        <ele>1436.2</ele>
        <time>2025-07-22T13:13:25Z</time>
      </trkpt>
      <trkpt lat="42.96087" lon="-0.25733">
        <ele>1437</ele>
        <time>2025-07-22T13:13:29Z</time>
      </trkpt>
      <trkpt lat="42.96086" lon="-0.25736">
        <ele>1437.4</ele>
        <time>2025-07-22T13:13:30Z</time>
      </trkpt>
      <trkpt lat="42.96084" lon="-0.2575">
        <ele>1438.6</ele>
        <time>2025-07-22T13:13:35Z</time>
      </trkpt>
      <trkpt lat="42.96082" lon="-0.2576">
        <ele>1439.4</ele>
        <time>2025-07-22T13:13:39Z</time>
      </trkpt>
      <trkpt lat="42.96082" lon="-0.25763">
        <ele>1439.6</ele>
        <time>2025-07-22T13:13:40Z</time>
      </trkpt>
      <trkpt lat="42.96079" lon="-0.25778">
        <ele>1440.8</ele>
        <time>2025-07-22T13:13:45Z</time>
      </trkpt>
      <trkpt lat="42.96075" lon="-0.25792">
        <ele>1441.4</ele>
        <time>2025-07-22T13:13:50Z</time>
      </trkpt>
      <trkpt lat="42.96073" lon="-0.25801">
        <ele>1441.8</ele>
        <time>2025-07-22T13:13:53Z</time>
      </trkpt>
      <trkpt lat="42.9607" lon="-0.25816">
        <ele>1443</ele>
        <time>2025-07-22T13:13:58Z</time>
      </trkpt>
      <trkpt lat="42.96066" lon="-0.2583">
        <ele>1443.4</ele>
        <time>2025-07-22T13:14:03Z</time>
      </trkpt>
      <trkpt lat="42.96066" lon="-0.25833">
        <ele>1443.8</ele>
        <time>2025-07-22T13:14:04Z</time>
      </trkpt>
      <trkpt lat="42.96063" lon="-0.25847">
        <ele>1445</ele>
        <time>2025-07-22T13:14:09Z</time>
      </trkpt>
      <trkpt lat="42.96061" lon="-0.25859">
        <ele>1445.8</ele>
        <time>2025-07-22T13:14:13Z</time>
      </trkpt>
      <trkpt lat="42.96059" lon="-0.25865">
        <ele>1446</ele>
        <time>2025-07-22T13:14:15Z</time>
      </trkpt>
      <trkpt lat="42.96055" lon="-0.25875">
        <ele>1447.2</ele>
        <time>2025-07-22T13:14:19Z</time>
      </trkpt>
      <trkpt lat="42.96052" lon="-0.25882">
        <ele>1447.6</ele>
        <time>2025-07-22T13:14:22Z</time>
      </trkpt>
      <trkpt lat="42.96049" lon="-0.25891">
        <ele>1448.4</ele>
        <time>2025-07-22T13:14:25Z</time>
      </trkpt>
      <trkpt lat="42.96042" lon="-0.25908">
        <ele>1449.4</ele>
        <time>2025-07-22T13:14:31Z</time>
      </trkpt>
      <trkpt lat="42.96041" lon="-0.2591">
        <ele>1449.6</ele>
        <time>2025-07-22T13:14:32Z</time>
      </trkpt>
      <trkpt lat="42.96038" lon="-0.25922">
        <ele>1451</ele>
        <time>2025-07-22T13:14:36Z</time>
      </trkpt>
      <trkpt lat="42.96038" lon="-0.25931">
        <ele>1451.4</ele>
        <time>2025-07-22T13:14:39Z</time>
      </trkpt>
      <trkpt lat="42.96038" lon="-0.25946">
        <ele>1452</ele>
        <time>2025-07-22T13:14:44Z</time>
      </trkpt>
      <trkpt lat="42.96039" lon="-0.25953">
        <ele>1452.4</ele>
        <time>2025-07-22T13:14:46Z</time>
      </trkpt>
      <trkpt lat="42.9604" lon="-0.25966">
        <ele>1453.2</ele>
        <time>2025-07-22T13:14:50Z</time>
      </trkpt>
      <trkpt lat="42.96042" lon="-0.25978">
        <ele>1454.4</ele>
        <time>2025-07-22T13:14:54Z</time>
      </trkpt>
      <trkpt lat="42.96043" lon="-0.25981">
        <ele>1454.6</ele>
        <time>2025-07-22T13:14:55Z</time>
      </trkpt>
      <trkpt lat="42.96047" lon="-0.25992">
        <ele>1455.4</ele>
        <time>2025-07-22T13:14:59Z</time>
      </trkpt>
      <trkpt lat="42.96053" lon="-0.26001">
        <ele>1456.2</ele>
        <time>2025-07-22T13:15:03Z</time>
      </trkpt>
      <trkpt lat="42.96056" lon="-0.26006">
        <ele>1456.6</ele>
        <time>2025-07-22T13:15:05Z</time>
      </trkpt>
      <trkpt lat="42.96061" lon="-0.26016">
        <ele>1457.6</ele>
        <time>2025-07-22T13:15:09Z</time>
      </trkpt>
      <trkpt lat="42.96063" lon="-0.26022">
        <ele>1458.2</ele>
        <time>2025-07-22T13:15:11Z</time>
      </trkpt>
      <trkpt lat="42.96064" lon="-0.26028">
        <ele>1458.6</ele>
        <time>2025-07-22T13:15:13Z</time>
      </trkpt>
      <trkpt lat="42.96065" lon="-0.26042">
        <ele>1459.6</ele>
        <time>2025-07-22T13:15:18Z</time>
      </trkpt>
      <trkpt lat="42.96066" lon="-0.26045">
        <ele>1459.8</ele>
        <time>2025-07-22T13:15:19Z</time>
      </trkpt>
      <trkpt lat="42.96066" lon="-0.26069">
        <ele>1460.8</ele>
        <time>2025-07-22T13:15:27Z</time>
      </trkpt>
      <trkpt lat="42.96066" lon="-0.26076">
        <ele>1461</ele>
        <time>2025-07-22T13:15:29Z</time>
      </trkpt>
      <trkpt lat="42.96065" lon="-0.26089">
        <ele>1462</ele>
        <time>2025-07-22T13:15:33Z</time>
      </trkpt>
      <trkpt lat="42.96066" lon="-0.26097">
        <ele>1462.8</ele>
        <time>2025-07-22T13:15:36Z</time>
      </trkpt>
      <trkpt lat="42.96067" lon="-0.26108">
        <ele>1463.8</ele>
        <time>2025-07-22T13:15:40Z</time>
      </trkpt>
      <trkpt lat="42.96068" lon="-0.2611">
        <ele>1464</ele>
        <time>2025-07-22T13:15:41Z</time>
      </trkpt>
      <trkpt lat="42.96069" lon="-0.26116">
        <ele>1464.4</ele>
        <time>2025-07-22T13:15:44Z</time>
      </trkpt>
      <trkpt lat="42.96069" lon="-0.26116">
        <ele>1464.4</ele>
        <time>2025-07-22T13:15:45Z</time>
      </trkpt>
      <trkpt lat="42.96069" lon="-0.26116">
        <ele>1464.6</ele>
        <time>2025-07-22T13:15:47Z</time>
      </trkpt>
      <trkpt lat="42.96068" lon="-0.26106">
        <ele>1464.8</ele>
        <time>2025-07-22T13:15:54Z</time>
      </trkpt>
      <trkpt lat="42.96067" lon="-0.26103">
        <ele>1464.8</ele>
        <time>2025-07-22T13:15:55Z</time>
      </trkpt>
      <trkpt lat="42.96067" lon="-0.26098">
        <ele>1465.2</ele>
        <time>2025-07-22T13:15:57Z</time>
      </trkpt>
      <trkpt lat="42.96066" lon="-0.26086">
        <ele>1465.6</ele>
        <time>2025-07-22T13:16:02Z</time>
      </trkpt>
      <trkpt lat="42.96067" lon="-0.26076">
        <ele>1465.6</ele>
        <time>2025-07-22T13:16:08Z</time>
      </trkpt>
      <trkpt lat="42.96067" lon="-0.26076">
        <ele>1465.4</ele>
        <time>2025-07-22T13:16:10Z</time>
      </trkpt>
      <trkpt lat="42.96067" lon="-0.26091">
        <ele>1463.8</ele>
        <time>2025-07-22T13:21:56Z</time>
      </trkpt>
      <trkpt lat="42.96067" lon="-0.26093">
        <ele>1463.8</ele>
        <time>2025-07-22T13:21:57Z</time>
      </trkpt>
      <trkpt lat="42.96066" lon="-0.26104">
        <ele>1463.8</ele>
        <time>2025-07-22T13:22:04Z</time>
      </trkpt>
      <trkpt lat="42.96066" lon="-0.26104">
        <ele>1463.8</ele>
        <time>2025-07-22T13:22:05Z</time>
      </trkpt>
      <trkpt lat="42.96067" lon="-0.26108">
        <ele>1464.2</ele>
        <time>2025-07-22T13:22:10Z</time>
      </trkpt>
      <trkpt lat="42.96068" lon="-0.26111">
        <ele>1464.8</ele>
        <time>2025-07-22T13:22:32Z</time>
      </trkpt>
      <trkpt lat="42.96068" lon="-0.26114">
        <ele>1464.8</ele>
        <time>2025-07-22T13:22:33Z</time>
      </trkpt>
      <trkpt lat="42.96068" lon="-0.26132">
        <ele>1464.8</ele>
        <time>2025-07-22T13:22:38Z</time>
      </trkpt>
      <trkpt lat="42.96069" lon="-0.26164">
        <ele>1463.8</ele>
        <time>2025-07-22T13:22:45Z</time>
      </trkpt>
      <trkpt lat="42.96067" lon="-0.26201">
        <ele>1462.8</ele>
        <time>2025-07-22T13:22:51Z</time>
      </trkpt>
      <trkpt lat="42.96063" lon="-0.26237">
        <ele>1461.6</ele>
        <time>2025-07-22T13:22:56Z</time>
      </trkpt>
      <trkpt lat="42.96062" lon="-0.26244">
        <ele>1461.4</ele>
        <time>2025-07-22T13:22:57Z</time>
      </trkpt>
      <trkpt lat="42.9606" lon="-0.26265">
        <ele>1460.4</ele>
        <time>2025-07-22T13:23:00Z</time>
      </trkpt>
      <trkpt lat="42.96058" lon="-0.26283">
        <ele>1459.6</ele>
        <time>2025-07-22T13:23:03Z</time>
      </trkpt>
      <trkpt lat="42.96057" lon="-0.26295">
        <ele>1459</ele>
        <time>2025-07-22T13:23:05Z</time>
      </trkpt>
      <trkpt lat="42.96055" lon="-0.2631">
        <ele>1457.8</ele>
        <time>2025-07-22T13:23:09Z</time>
      </trkpt>
      <trkpt lat="42.96055" lon="-0.2632">
        <ele>1456.8</ele>
        <time>2025-07-22T13:23:13Z</time>
      </trkpt>
      <trkpt lat="42.96055" lon="-0.26321">
        <ele>1456.4</ele>
        <time>2025-07-22T13:23:15Z</time>
      </trkpt>
      <trkpt lat="42.96055" lon="-0.26321">
        <ele>1456</ele>
        <time>2025-07-22T13:23:16Z</time>
      </trkpt>
      <trkpt lat="42.96054" lon="-0.26324">
        <ele>1454.6</ele>
        <time>2025-07-22T13:24:55Z</time>
      </trkpt>
      <trkpt lat="42.96052" lon="-0.26333">
        <ele>1454.6</ele>
        <time>2025-07-22T13:24:57Z</time>
      </trkpt>
      <trkpt lat="42.96048" lon="-0.26363">
        <ele>1454.4</ele>
        <time>2025-07-22T13:25:01Z</time>
      </trkpt>
      <trkpt lat="42.96046" lon="-0.26372">
        <ele>1454.4</ele>
        <time>2025-07-22T13:25:02Z</time>
      </trkpt>
      <trkpt lat="42.96038" lon="-0.26399">
        <ele>1454</ele>
        <time>2025-07-22T13:25:05Z</time>
      </trkpt>
      <trkpt lat="42.96031" lon="-0.26419">
        <ele>1453.6</ele>
        <time>2025-07-22T13:25:07Z</time>
      </trkpt>
      <trkpt lat="42.96018" lon="-0.26449">
        <ele>1453</ele>
        <time>2025-07-22T13:25:10Z</time>
      </trkpt>
      <trkpt lat="42.96007" lon="-0.26469">
        <ele>1452.4</ele>
        <time>2025-07-22T13:25:12Z</time>
      </trkpt>
      <trkpt lat="42.96003" lon="-0.26479">
        <ele>1452</ele>
        <time>2025-07-22T13:25:13Z</time>
      </trkpt>
      <trkpt lat="42.95999" lon="-0.26491">
        <ele>1451.6</ele>
        <time>2025-07-22T13:25:14Z</time>
      </trkpt>
      <trkpt lat="42.95997" lon="-0.265">
        <ele>1451</ele>
        <time>2025-07-22T13:25:15Z</time>
      </trkpt>
      <trkpt lat="42.9599" lon="-0.26542">
        <ele>1449.8</ele>
        <time>2025-07-22T13:25:18Z</time>
      </trkpt>
      <trkpt lat="42.95988" lon="-0.26555">
        <ele>1448.6</ele>
        <time>2025-07-22T13:25:19Z</time>
      </trkpt>
      <trkpt lat="42.95981" lon="-0.26594">
        <ele>1447</ele>
        <time>2025-07-22T13:25:22Z</time>
      </trkpt>
      <trkpt lat="42.95976" lon="-0.26619">
        <ele>1445.4</ele>
        <time>2025-07-22T13:25:24Z</time>
      </trkpt>
      <trkpt lat="42.95969" lon="-0.26657">
        <ele>1444.2</ele>
        <time>2025-07-22T13:25:27Z</time>
      </trkpt>
      <trkpt lat="42.95964" lon="-0.26683">
        <ele>1442.6</ele>
        <time>2025-07-22T13:25:29Z</time>
      </trkpt>
      <trkpt lat="42.95957" lon="-0.26719">
        <ele>1441.6</ele>
        <time>2025-07-22T13:25:32Z</time>
      </trkpt>
      <trkpt lat="42.9595" lon="-0.26751">
        <ele>1440.6</ele>
        <time>2025-07-22T13:25:35Z</time>
      </trkpt>
      <trkpt lat="42.95946" lon="-0.26775">
        <ele>1440</ele>
        <time>2025-07-22T13:25:37Z</time>
      </trkpt>
      <trkpt lat="42.95944" lon="-0.26804">
        <ele>1439.4</ele>
        <time>2025-07-22T13:25:40Z</time>
      </trkpt>
      <trkpt lat="42.95941" lon="-0.26836">
        <ele>1439</ele>
        <time>2025-07-22T13:25:43Z</time>
      </trkpt>
      <trkpt lat="42.95935" lon="-0.26855">
        <ele>1438.6</ele>
        <time>2025-07-22T13:25:45Z</time>
      </trkpt>
      <trkpt lat="42.95932" lon="-0.26863">
        <ele>1438.4</ele>
        <time>2025-07-22T13:25:46Z</time>
      </trkpt>
      <trkpt lat="42.95928" lon="-0.26872">
        <ele>1438.4</ele>
        <time>2025-07-22T13:25:47Z</time>
      </trkpt>
      <trkpt lat="42.95906" lon="-0.26906">
        <ele>1438</ele>
        <time>2025-07-22T13:25:51Z</time>
      </trkpt>
      <trkpt lat="42.959" lon="-0.26914">
        <ele>1437.8</ele>
        <time>2025-07-22T13:25:52Z</time>
      </trkpt>
      <trkpt lat="42.95889" lon="-0.26928">
        <ele>1437.2</ele>
        <time>2025-07-22T13:25:54Z</time>
      </trkpt>
      <trkpt lat="42.95885" lon="-0.26935">
        <ele>1437</ele>
        <time>2025-07-22T13:25:55Z</time>
      </trkpt>
      <trkpt lat="42.95882" lon="-0.26943">
        <ele>1436.6</ele>
        <time>2025-07-22T13:25:56Z</time>
      </trkpt>
      <trkpt lat="42.95876" lon="-0.26969">
        <ele>1436.4</ele>
        <time>2025-07-22T13:25:59Z</time>
      </trkpt>
      <trkpt lat="42.95868" lon="-0.26996">
        <ele>1436.2</ele>
        <time>2025-07-22T13:26:02Z</time>
      </trkpt>
      <trkpt lat="42.95865" lon="-0.27005">
        <ele>1436.2</ele>
        <time>2025-07-22T13:26:03Z</time>
      </trkpt>
      <trkpt lat="42.95853" lon="-0.27027">
        <ele>1436</ele>
        <time>2025-07-22T13:26:06Z</time>
      </trkpt>
      <trkpt lat="42.95843" lon="-0.27042">
        <ele>1436</ele>
        <time>2025-07-22T13:26:08Z</time>
      </trkpt>
      <trkpt lat="42.95838" lon="-0.27051">
        <ele>1435.8</ele>
        <time>2025-07-22T13:26:09Z</time>
      </trkpt>
      <trkpt lat="42.95833" lon="-0.27067">
        <ele>1435.6</ele>
        <time>2025-07-22T13:26:11Z</time>
      </trkpt>
      <trkpt lat="42.95833" lon="-0.27088">
        <ele>1435.6</ele>
        <time>2025-07-22T13:26:13Z</time>
      </trkpt>
      <trkpt lat="42.95834" lon="-0.27097">
        <ele>1435.2</ele>
        <time>2025-07-22T13:26:14Z</time>
      </trkpt>
      <trkpt lat="42.95835" lon="-0.27105">
        <ele>1435.2</ele>
        <time>2025-07-22T13:26:15Z</time>
      </trkpt>
      <trkpt lat="42.95839" lon="-0.27159">
        <ele>1433.8</ele>
        <time>2025-07-22T13:26:21Z</time>
      </trkpt>
      <trkpt lat="42.95839" lon="-0.27169">
        <ele>1433.6</ele>
        <time>2025-07-22T13:26:22Z</time>
      </trkpt>
      <trkpt lat="42.95838" lon="-0.27182">
        <ele>1433.2</ele>
        <time>2025-07-22T13:26:24Z</time>
      </trkpt>
      <trkpt lat="42.95837" lon="-0.27187">
        <ele>1432.8</ele>
        <time>2025-07-22T13:26:25Z</time>
      </trkpt>
      <trkpt lat="42.95834" lon="-0.27199">
        <ele>1432.6</ele>
        <time>2025-07-22T13:26:27Z</time>
      </trkpt>
      <trkpt lat="42.95825" lon="-0.27224">
        <ele>1432.6</ele>
        <time>2025-07-22T13:26:32Z</time>
      </trkpt>
      <trkpt lat="42.95821" lon="-0.27239">
        <ele>1432.4</ele>
        <time>2025-07-22T13:26:35Z</time>
      </trkpt>
      <trkpt lat="42.95814" lon="-0.2726">
        <ele>1432.2</ele>
        <time>2025-07-22T13:26:39Z</time>
      </trkpt>
      <trkpt lat="42.95811" lon="-0.27269">
        <ele>1432</ele>
        <time>2025-07-22T13:26:41Z</time>
      </trkpt>
      <trkpt lat="42.95809" lon="-0.27286">
        <ele>1432</ele>
        <time>2025-07-22T13:26:44Z</time>
      </trkpt>
      <trkpt lat="42.9581" lon="-0.27297">
        <ele>1431.8</ele>
        <time>2025-07-22T13:26:46Z</time>
      </trkpt>
      <trkpt lat="42.95815" lon="-0.27337">
        <ele>1431.6</ele>
        <time>2025-07-22T13:26:53Z</time>
      </trkpt>
      <trkpt lat="42.95817" lon="-0.27349">
        <ele>1431.4</ele>
        <time>2025-07-22T13:26:55Z</time>
      </trkpt>
      <trkpt lat="42.95821" lon="-0.27362">
        <ele>1431.4</ele>
        <time>2025-07-22T13:26:57Z</time>
      </trkpt>
      <trkpt lat="42.95827" lon="-0.27381">
        <ele>1431.2</ele>
        <time>2025-07-22T13:27:00Z</time>
      </trkpt>
      <trkpt lat="42.9583" lon="-0.27388">
        <ele>1431</ele>
        <time>2025-07-22T13:27:01Z</time>
      </trkpt>
      <trkpt lat="42.95838" lon="-0.27402">
        <ele>1430.6</ele>
        <time>2025-07-22T13:27:04Z</time>
      </trkpt>
      <trkpt lat="42.95843" lon="-0.27409">
        <ele>1430</ele>
        <time>2025-07-22T13:27:06Z</time>
      </trkpt>
      <trkpt lat="42.95845" lon="-0.27412">
        <ele>1429.6</ele>
        <time>2025-07-22T13:27:07Z</time>
      </trkpt>
      <trkpt lat="42.95848" lon="-0.2742">
        <ele>1429</ele>
        <time>2025-07-22T13:27:11Z</time>
      </trkpt>
      <trkpt lat="42.95848" lon="-0.2742">
        <ele>1428.6</ele>
        <time>2025-07-22T13:27:14Z</time>
      </trkpt>
      <trkpt lat="42.9585" lon="-0.27431">
        <ele>1428.2</ele>
        <time>2025-07-22T13:28:18Z</time>
      </trkpt>
      <trkpt lat="42.95846" lon="-0.27454">
        <ele>1428</ele>
        <time>2025-07-22T13:28:24Z</time>
      </trkpt>
      <trkpt lat="42.95835" lon="-0.27477">
        <ele>1427.6</ele>
        <time>2025-07-22T13:28:28Z</time>
      </trkpt>
      <trkpt lat="42.95829" lon="-0.27491">
        <ele>1427.4</ele>
        <time>2025-07-22T13:28:30Z</time>
      </trkpt>
      <trkpt lat="42.95824" lon="-0.27508">
        <ele>1427.2</ele>
        <time>2025-07-22T13:28:32Z</time>
      </trkpt>
      <trkpt lat="42.95823" lon="-0.27518">
        <ele>1427.2</ele>
        <time>2025-07-22T13:28:33Z</time>
      </trkpt>
      <trkpt lat="42.9582" lon="-0.27537">
        <ele>1426</ele>
        <time>2025-07-22T13:28:35Z</time>
      </trkpt>
      <trkpt lat="42.95814" lon="-0.27567">
        <ele>1425</ele>
        <time>2025-07-22T13:28:38Z</time>
      </trkpt>
      <trkpt lat="42.95811" lon="-0.27577">
        <ele>1424.6</ele>
        <time>2025-07-22T13:28:39Z</time>
      </trkpt>
      <trkpt lat="42.95803" lon="-0.27606">
        <ele>1423.2</ele>
        <time>2025-07-22T13:28:42Z</time>
      </trkpt>
      <trkpt lat="42.95792" lon="-0.27642">
        <ele>1421.8</ele>
        <time>2025-07-22T13:28:46Z</time>
      </trkpt>
      <trkpt lat="42.95789" lon="-0.2765">
        <ele>1421.6</ele>
        <time>2025-07-22T13:28:47Z</time>
      </trkpt>
      <trkpt lat="42.9578" lon="-0.27663">
        <ele>1420.6</ele>
        <time>2025-07-22T13:28:49Z</time>
      </trkpt>
      <trkpt lat="42.95774" lon="-0.27665">
        <ele>1419.4</ele>
        <time>2025-07-22T13:28:50Z</time>
      </trkpt>
      <trkpt lat="42.95768" lon="-0.27665">
        <ele>1418.6</ele>
        <time>2025-07-22T13:28:51Z</time>
      </trkpt>
      <trkpt lat="42.95759" lon="-0.27663">
        <ele>1418.2</ele>
        <time>2025-07-22T13:28:52Z</time>
      </trkpt>
      <trkpt lat="42.95752" lon="-0.27657">
        <ele>1417.8</ele>
        <time>2025-07-22T13:28:53Z</time>
      </trkpt>
      <trkpt lat="42.95736" lon="-0.27645">
        <ele>1417.2</ele>
        <time>2025-07-22T13:28:55Z</time>
      </trkpt>
      <trkpt lat="42.95729" lon="-0.27641">
        <ele>1416.6</ele>
        <time>2025-07-22T13:28:56Z</time>
      </trkpt>
      <trkpt lat="42.9572" lon="-0.27639">
        <ele>1415.6</ele>
        <time>2025-07-22T13:28:57Z</time>
      </trkpt>
      <trkpt lat="42.95698" lon="-0.27636">
        <ele>1414.4</ele>
        <time>2025-07-22T13:28:59Z</time>
      </trkpt>
      <trkpt lat="42.95688" lon="-0.27635">
        <ele>1413.2</ele>
        <time>2025-07-22T13:29:00Z</time>
      </trkpt>
      <trkpt lat="42.9568" lon="-0.27632">
        <ele>1412.8</ele>
        <time>2025-07-22T13:29:01Z</time>
      </trkpt>
      <trkpt lat="42.95669" lon="-0.27628">
        <ele>1412.2</ele>
        <time>2025-07-22T13:29:02Z</time>
      </trkpt>
      <trkpt lat="42.95659" lon="-0.27626">
        <ele>1411.8</ele>
        <time>2025-07-22T13:29:03Z</time>
      </trkpt>
      <trkpt lat="42.95649" lon="-0.27626">
        <ele>1411</ele>
        <time>2025-07-22T13:29:04Z</time>
      </trkpt>
      <trkpt lat="42.95639" lon="-0.2763">
        <ele>1410.6</ele>
        <time>2025-07-22T13:29:05Z</time>
      </trkpt>
      <trkpt lat="42.95622" lon="-0.27642">
        <ele>1409</ele>
        <time>2025-07-22T13:29:07Z</time>
      </trkpt>
      <trkpt lat="42.95601" lon="-0.2766">
        <ele>1406.8</ele>
        <time>2025-07-22T13:29:09Z</time>
      </trkpt>
      <trkpt lat="42.95582" lon="-0.27678">
        <ele>1404.4</ele>
        <time>2025-07-22T13:29:11Z</time>
      </trkpt>
      <trkpt lat="42.95574" lon="-0.27687">
        <ele>1403.2</ele>
        <time>2025-07-22T13:29:12Z</time>
      </trkpt>
      <trkpt lat="42.95558" lon="-0.27702">
        <ele>1401.8</ele>
        <time>2025-07-22T13:29:14Z</time>
      </trkpt>
      <trkpt lat="42.95544" lon="-0.27717">
        <ele>1400</ele>
        <time>2025-07-22T13:29:16Z</time>
      </trkpt>
      <trkpt lat="42.95538" lon="-0.27727">
        <ele>1399.4</ele>
        <time>2025-07-22T13:29:17Z</time>
      </trkpt>
      <trkpt lat="42.95535" lon="-0.27739">
        <ele>1398.2</ele>
        <time>2025-07-22T13:29:18Z</time>
      </trkpt>
      <trkpt lat="42.95534" lon="-0.27753">
        <ele>1397.6</ele>
        <time>2025-07-22T13:29:19Z</time>
      </trkpt>
      <trkpt lat="42.95535" lon="-0.27767">
        <ele>1396.4</ele>
        <time>2025-07-22T13:29:20Z</time>
      </trkpt>
      <trkpt lat="42.95537" lon="-0.27781">
        <ele>1395.2</ele>
        <time>2025-07-22T13:29:21Z</time>
      </trkpt>
      <trkpt lat="42.9554" lon="-0.27794">
        <ele>1394.6</ele>
        <time>2025-07-22T13:29:22Z</time>
      </trkpt>
      <trkpt lat="42.95542" lon="-0.27808">
        <ele>1393.6</ele>
        <time>2025-07-22T13:29:23Z</time>
      </trkpt>
      <trkpt lat="42.95542" lon="-0.27837">
        <ele>1392</ele>
        <time>2025-07-22T13:29:25Z</time>
      </trkpt>
      <trkpt lat="42.9554" lon="-0.27865">
        <ele>1390.6</ele>
        <time>2025-07-22T13:29:27Z</time>
      </trkpt>
      <trkpt lat="42.95539" lon="-0.27883">
        <ele>1389.4</ele>
        <time>2025-07-22T13:29:28Z</time>
      </trkpt>
      <trkpt lat="42.95538" lon="-0.27915">
        <ele>1388.2</ele>
        <time>2025-07-22T13:29:30Z</time>
      </trkpt>
      <trkpt lat="42.95537" lon="-0.27931">
        <ele>1387.4</ele>
        <time>2025-07-22T13:29:31Z</time>
      </trkpt>
      <trkpt lat="42.95536" lon="-0.27946">
        <ele>1386</ele>
        <time>2025-07-22T13:29:32Z</time>
      </trkpt>
      <trkpt lat="42.95532" lon="-0.27977">
        <ele>1384.4</ele>
        <time>2025-07-22T13:29:34Z</time>
      </trkpt>
      <trkpt lat="42.95529" lon="-0.27991">
        <ele>1383.8</ele>
        <time>2025-07-22T13:29:35Z</time>
      </trkpt>
      <trkpt lat="42.95527" lon="-0.28002">
        <ele>1383.2</ele>
        <time>2025-07-22T13:29:36Z</time>
      </trkpt>
      <trkpt lat="42.95525" lon="-0.28016">
        <ele>1381.6</ele>
        <time>2025-07-22T13:29:37Z</time>
      </trkpt>
      <trkpt lat="42.95522" lon="-0.28032">
        <ele>1381</ele>
        <time>2025-07-22T13:29:38Z</time>
      </trkpt>
      <trkpt lat="42.95519" lon="-0.28042">
        <ele>1379.4</ele>
        <time>2025-07-22T13:29:39Z</time>
      </trkpt>
      <trkpt lat="42.95514" lon="-0.28058">
        <ele>1378.8</ele>
        <time>2025-07-22T13:29:40Z</time>
      </trkpt>
      <trkpt lat="42.95509" lon="-0.28067">
        <ele>1377.4</ele>
        <time>2025-07-22T13:29:41Z</time>
      </trkpt>
      <trkpt lat="42.95502" lon="-0.28081">
        <ele>1376.2</ele>
        <time>2025-07-22T13:29:42Z</time>
      </trkpt>
      <trkpt lat="42.95496" lon="-0.28092">
        <ele>1375.4</ele>
        <time>2025-07-22T13:29:43Z</time>
      </trkpt>
      <trkpt lat="42.95492" lon="-0.28104">
        <ele>1374</ele>
        <time>2025-07-22T13:29:44Z</time>
      </trkpt>
      <trkpt lat="42.95491" lon="-0.28117">
        <ele>1373.2</ele>
        <time>2025-07-22T13:29:45Z</time>
      </trkpt>
      <trkpt lat="42.95492" lon="-0.2813">
        <ele>1372</ele>
        <time>2025-07-22T13:29:46Z</time>
      </trkpt>
      <trkpt lat="42.95496" lon="-0.28143">
        <ele>1371.4</ele>
        <time>2025-07-22T13:29:47Z</time>
      </trkpt>
      <trkpt lat="42.955" lon="-0.28155">
        <ele>1370.6</ele>
        <time>2025-07-22T13:29:48Z</time>
      </trkpt>
      <trkpt lat="42.95502" lon="-0.28168">
        <ele>1369.4</ele>
        <time>2025-07-22T13:29:49Z</time>
      </trkpt>
      <trkpt lat="42.95504" lon="-0.28196">
        <ele>1367.6</ele>
        <time>2025-07-22T13:29:51Z</time>
      </trkpt>
      <trkpt lat="42.95502" lon="-0.28226">
        <ele>1366</ele>
        <time>2025-07-22T13:29:53Z</time>
      </trkpt>
      <trkpt lat="42.955" lon="-0.28257">
        <ele>1364.6</ele>
        <time>2025-07-22T13:29:55Z</time>
      </trkpt>
      <trkpt lat="42.955" lon="-0.28273">
        <ele>1364.2</ele>
        <time>2025-07-22T13:29:56Z</time>
      </trkpt>
      <trkpt lat="42.95499" lon="-0.28288">
        <ele>1363.6</ele>
        <time>2025-07-22T13:29:57Z</time>
      </trkpt>
      <trkpt lat="42.95497" lon="-0.28303">
        <ele>1362.4</ele>
        <time>2025-07-22T13:29:58Z</time>
      </trkpt>
      <trkpt lat="42.95494" lon="-0.28331">
        <ele>1360.8</ele>
        <time>2025-07-22T13:30:00Z</time>
      </trkpt>
      <trkpt lat="42.95495" lon="-0.28356">
        <ele>1359.6</ele>
        <time>2025-07-22T13:30:02Z</time>
      </trkpt>
      <trkpt lat="42.95499" lon="-0.28366">
        <ele>1359</ele>
        <time>2025-07-22T13:30:03Z</time>
      </trkpt>
      <trkpt lat="42.95503" lon="-0.28376">
        <ele>1358.4</ele>
        <time>2025-07-22T13:30:04Z</time>
      </trkpt>
      <trkpt lat="42.95508" lon="-0.28396">
        <ele>1357.8</ele>
        <time>2025-07-22T13:30:06Z</time>
      </trkpt>
      <trkpt lat="42.95508" lon="-0.28406">
        <ele>1357.2</ele>
        <time>2025-07-22T13:30:07Z</time>
      </trkpt>
      <trkpt lat="42.95507" lon="-0.28417">
        <ele>1357.2</ele>
        <time>2025-07-22T13:30:08Z</time>
      </trkpt>
      <trkpt lat="42.95505" lon="-0.28427">
        <ele>1356.8</ele>
        <time>2025-07-22T13:30:09Z</time>
      </trkpt>
      <trkpt lat="42.95501" lon="-0.28446">
        <ele>1356.2</ele>
        <time>2025-07-22T13:30:11Z</time>
      </trkpt>
      <trkpt lat="42.95498" lon="-0.28455">
        <ele>1356</ele>
        <time>2025-07-22T13:30:12Z</time>
      </trkpt>
      <trkpt lat="42.95491" lon="-0.28472">
        <ele>1355.8</ele>
        <time>2025-07-22T13:30:14Z</time>
      </trkpt>
      <trkpt lat="42.95465" lon="-0.28519">
        <ele>1355.8</ele>
        <time>2025-07-22T13:30:20Z</time>
      </trkpt>
      <trkpt lat="42.95462" lon="-0.28527">
        <ele>1355.6</ele>
        <time>2025-07-22T13:30:21Z</time>
      </trkpt>
      <trkpt lat="42.95444" lon="-0.28566">
        <ele>1355.6</ele>
        <time>2025-07-22T13:30:26Z</time>
      </trkpt>
      <trkpt lat="42.95441" lon="-0.28572">
        <ele>1355.6</ele>
        <time>2025-07-22T13:30:27Z</time>
      </trkpt>
      <trkpt lat="42.95428" lon="-0.28593">
        <ele>1355.6</ele>
        <time>2025-07-22T13:30:30Z</time>
      </trkpt>
      <trkpt lat="42.95423" lon="-0.28608">
        <ele>1355.6</ele>
        <time>2025-07-22T13:30:32Z</time>
      </trkpt>
      <trkpt lat="42.95414" lon="-0.2863">
        <ele>1355.6</ele>
        <time>2025-07-22T13:30:35Z</time>
      </trkpt>
      <trkpt lat="42.95408" lon="-0.28644">
        <ele>1355.8</ele>
        <time>2025-07-22T13:30:37Z</time>
      </trkpt>
      <trkpt lat="42.95398" lon="-0.28663">
        <ele>1355.8</ele>
        <time>2025-07-22T13:30:40Z</time>
      </trkpt>
      <trkpt lat="42.95393" lon="-0.28678">
        <ele>1355.8</ele>
        <time>2025-07-22T13:30:42Z</time>
      </trkpt>
      <trkpt lat="42.95392" lon="-0.28686">
        <ele>1355.8</ele>
        <time>2025-07-22T13:30:43Z</time>
      </trkpt>
      <trkpt lat="42.95392" lon="-0.28695">
        <ele>1356</ele>
        <time>2025-07-22T13:30:44Z</time>
      </trkpt>
      <trkpt lat="42.95396" lon="-0.2871">
        <ele>1356</ele>
        <time>2025-07-22T13:30:46Z</time>
      </trkpt>
      <trkpt lat="42.95399" lon="-0.28716">
        <ele>1356</ele>
        <time>2025-07-22T13:30:47Z</time>
      </trkpt>
      <trkpt lat="42.95408" lon="-0.28735">
        <ele>1356.2</ele>
        <time>2025-07-22T13:30:50Z</time>
      </trkpt>
      <trkpt lat="42.95416" lon="-0.28754">
        <ele>1356.6</ele>
        <time>2025-07-22T13:30:53Z</time>
      </trkpt>
      <trkpt lat="42.95431" lon="-0.28801">
        <ele>1357</ele>
        <time>2025-07-22T13:31:00Z</time>
      </trkpt>
      <trkpt lat="42.95433" lon="-0.28815">
        <ele>1357</ele>
        <time>2025-07-22T13:31:02Z</time>
      </trkpt>
      <trkpt lat="42.95433" lon="-0.28822">
        <ele>1357</ele>
        <time>2025-07-22T13:31:03Z</time>
      </trkpt>
      <trkpt lat="42.95434" lon="-0.28844">
        <ele>1357</ele>
        <time>2025-07-22T13:31:06Z</time>
      </trkpt>
      <trkpt lat="42.95436" lon="-0.28852">
        <ele>1357</ele>
        <time>2025-07-22T13:31:07Z</time>
      </trkpt>
      <trkpt lat="42.95443" lon="-0.2887">
        <ele>1357</ele>
        <time>2025-07-22T13:31:10Z</time>
      </trkpt>
      <trkpt lat="42.95469" lon="-0.28899">
        <ele>1357.4</ele>
        <time>2025-07-22T13:31:16Z</time>
      </trkpt>
      <trkpt lat="42.95477" lon="-0.28907">
        <ele>1357.6</ele>
        <time>2025-07-22T13:31:18Z</time>
      </trkpt>
      <trkpt lat="42.95482" lon="-0.28912">
        <ele>1357.8</ele>
        <time>2025-07-22T13:31:19Z</time>
      </trkpt>
      <trkpt lat="42.9549" lon="-0.28922">
        <ele>1358</ele>
        <time>2025-07-22T13:31:21Z</time>
      </trkpt>
      <trkpt lat="42.95493" lon="-0.28927">
        <ele>1358</ele>
        <time>2025-07-22T13:31:22Z</time>
      </trkpt>
      <trkpt lat="42.95496" lon="-0.28934">
        <ele>1358</ele>
        <time>2025-07-22T13:31:23Z</time>
      </trkpt>
      <trkpt lat="42.95497" lon="-0.28941">
        <ele>1358.2</ele>
        <time>2025-07-22T13:31:24Z</time>
      </trkpt>
      <trkpt lat="42.955" lon="-0.28963">
        <ele>1358.2</ele>
        <time>2025-07-22T13:31:27Z</time>
      </trkpt>
      <trkpt lat="42.95501" lon="-0.28969">
        <ele>1358.2</ele>
        <time>2025-07-22T13:31:28Z</time>
      </trkpt>
      <trkpt lat="42.95508" lon="-0.28982">
        <ele>1358.2</ele>
        <time>2025-07-22T13:31:30Z</time>
      </trkpt>
      <trkpt lat="42.95547" lon="-0.29023">
        <ele>1358.6</ele>
        <time>2025-07-22T13:31:39Z</time>
      </trkpt>
      <trkpt lat="42.95551" lon="-0.29027">
        <ele>1358.6</ele>
        <time>2025-07-22T13:31:40Z</time>
      </trkpt>
      <trkpt lat="42.95573" lon="-0.29048">
        <ele>1358.8</ele>
        <time>2025-07-22T13:31:45Z</time>
      </trkpt>
      <trkpt lat="42.95585" lon="-0.29062">
        <ele>1359</ele>
        <time>2025-07-22T13:31:48Z</time>
      </trkpt>
      <trkpt lat="42.9562" lon="-0.29088">
        <ele>1359.8</ele>
        <time>2025-07-22T13:31:55Z</time>
      </trkpt>
      <trkpt lat="42.95631" lon="-0.29091">
        <ele>1359.6</ele>
        <time>2025-07-22T13:31:57Z</time>
      </trkpt>
      <trkpt lat="42.95635" lon="-0.29088">
        <ele>1359.8</ele>
        <time>2025-07-22T13:31:58Z</time>
      </trkpt>
      <trkpt lat="42.95682" lon="-0.29082">
        <ele>1359.8</ele>
        <time>2025-07-22T13:32:07Z</time>
      </trkpt>
      <trkpt lat="42.95687" lon="-0.29082">
        <ele>1360</ele>
        <time>2025-07-22T13:32:08Z</time>
      </trkpt>
      <trkpt lat="42.95709" lon="-0.29079">
        <ele>1360</ele>
        <time>2025-07-22T13:32:12Z</time>
      </trkpt>
      <trkpt lat="42.95719" lon="-0.29076">
        <ele>1360.2</ele>
        <time>2025-07-22T13:32:14Z</time>
      </trkpt>
      <trkpt lat="42.95724" lon="-0.29074">
        <ele>1360.4</ele>
        <time>2025-07-22T13:32:15Z</time>
      </trkpt>
      <trkpt lat="42.9573" lon="-0.29072">
        <ele>1360.6</ele>
        <time>2025-07-22T13:32:16Z</time>
      </trkpt>
      <trkpt lat="42.95746" lon="-0.29071">
        <ele>1360.8</ele>
        <time>2025-07-22T13:32:19Z</time>
      </trkpt>
      <trkpt lat="42.95749" lon="-0.29073">
        <ele>1360.6</ele>
        <time>2025-07-22T13:32:20Z</time>
      </trkpt>
      <trkpt lat="42.95755" lon="-0.29078">
        <ele>1360.8</ele>
        <time>2025-07-22T13:32:22Z</time>
      </trkpt>
      <trkpt lat="42.95765" lon="-0.29092">
        <ele>1360.8</ele>
        <time>2025-07-22T13:32:25Z</time>
      </trkpt>
      <trkpt lat="42.95769" lon="-0.29097">
        <ele>1360.8</ele>
        <time>2025-07-22T13:32:26Z</time>
      </trkpt>
      <trkpt lat="42.95785" lon="-0.29106">
        <ele>1361</ele>
        <time>2025-07-22T13:32:29Z</time>
      </trkpt>
      <trkpt lat="42.95796" lon="-0.29107">
        <ele>1361</ele>
        <time>2025-07-22T13:32:31Z</time>
      </trkpt>
      <trkpt lat="42.958" lon="-0.2911">
        <ele>1361</ele>
        <time>2025-07-22T13:32:32Z</time>
      </trkpt>
      <trkpt lat="42.95804" lon="-0.29115">
        <ele>1361</ele>
        <time>2025-07-22T13:32:33Z</time>
      </trkpt>
      <trkpt lat="42.95809" lon="-0.29127">
        <ele>1361</ele>
        <time>2025-07-22T13:32:35Z</time>
      </trkpt>
      <trkpt lat="42.95809" lon="-0.29141">
        <ele>1360.8</ele>
        <time>2025-07-22T13:32:37Z</time>
      </trkpt>
      <trkpt lat="42.95807" lon="-0.29154">
        <ele>1360.8</ele>
        <time>2025-07-22T13:32:39Z</time>
      </trkpt>
      <trkpt lat="42.95806" lon="-0.29163">
        <ele>1360.6</ele>
        <time>2025-07-22T13:32:40Z</time>
      </trkpt>
      <trkpt lat="42.95807" lon="-0.29175">
        <ele>1360.6</ele>
        <time>2025-07-22T13:32:42Z</time>
      </trkpt>
      <trkpt lat="42.95809" lon="-0.29181">
        <ele>1360.6</ele>
        <time>2025-07-22T13:32:43Z</time>
      </trkpt>
      <trkpt lat="42.95812" lon="-0.29187">
        <ele>1360.6</ele>
        <time>2025-07-22T13:32:44Z</time>
      </trkpt>
      <trkpt lat="42.95823" lon="-0.29204">
        <ele>1360.8</ele>
        <time>2025-07-22T13:32:47Z</time>
      </trkpt>
      <trkpt lat="42.95831" lon="-0.29223">
        <ele>1361.2</ele>
        <time>2025-07-22T13:32:50Z</time>
      </trkpt>
      <trkpt lat="42.95832" lon="-0.29235">
        <ele>1361.4</ele>
        <time>2025-07-22T13:32:52Z</time>
      </trkpt>
      <trkpt lat="42.95832" lon="-0.29242">
        <ele>1361.4</ele>
        <time>2025-07-22T13:32:53Z</time>
      </trkpt>
      <trkpt lat="42.95829" lon="-0.29263">
        <ele>1361.6</ele>
        <time>2025-07-22T13:32:56Z</time>
      </trkpt>
      <trkpt lat="42.95827" lon="-0.29276">
        <ele>1361.8</ele>
        <time>2025-07-22T13:32:58Z</time>
      </trkpt>
      <trkpt lat="42.95827" lon="-0.29282">
        <ele>1361.8</ele>
        <time>2025-07-22T13:32:59Z</time>
      </trkpt>
      <trkpt lat="42.95828" lon="-0.29288">
        <ele>1361.8</ele>
        <time>2025-07-22T13:33:00Z</time>
      </trkpt>
      <trkpt lat="42.95832" lon="-0.29301">
        <ele>1362</ele>
        <time>2025-07-22T13:33:02Z</time>
      </trkpt>
      <trkpt lat="42.95838" lon="-0.29311">
        <ele>1362</ele>
        <time>2025-07-22T13:33:04Z</time>
      </trkpt>
      <trkpt lat="42.95855" lon="-0.29328">
        <ele>1362.2</ele>
        <time>2025-07-22T13:33:08Z</time>
      </trkpt>
      <trkpt lat="42.95858" lon="-0.29332">
        <ele>1362.4</ele>
        <time>2025-07-22T13:33:09Z</time>
      </trkpt>
      <trkpt lat="42.95868" lon="-0.29349">
        <ele>1362.2</ele>
        <time>2025-07-22T13:33:12Z</time>
      </trkpt>
      <trkpt lat="42.95871" lon="-0.29355">
        <ele>1362.4</ele>
        <time>2025-07-22T13:33:13Z</time>
      </trkpt>
      <trkpt lat="42.95879" lon="-0.29372">
        <ele>1362.4</ele>
        <time>2025-07-22T13:33:16Z</time>
      </trkpt>
      <trkpt lat="42.95888" lon="-0.29385">
        <ele>1362.6</ele>
        <time>2025-07-22T13:33:19Z</time>
      </trkpt>
      <trkpt lat="42.95919" lon="-0.29421">
        <ele>1363.2</ele>
        <time>2025-07-22T13:33:28Z</time>
      </trkpt>
      <trkpt lat="42.95925" lon="-0.29429">
        <ele>1363.4</ele>
        <time>2025-07-22T13:33:30Z</time>
      </trkpt>
      <trkpt lat="42.95933" lon="-0.29442">
        <ele>1363.6</ele>
        <time>2025-07-22T13:33:33Z</time>
      </trkpt>
      <trkpt lat="42.95937" lon="-0.29451">
        <ele>1363.6</ele>
        <time>2025-07-22T13:33:35Z</time>
      </trkpt>
      <trkpt lat="42.9594" lon="-0.29464">
        <ele>1364.2</ele>
        <time>2025-07-22T13:33:37Z</time>
      </trkpt>
      <trkpt lat="42.95942" lon="-0.29479">
        <ele>1364.6</ele>
        <time>2025-07-22T13:33:40Z</time>
      </trkpt>
      <trkpt lat="42.96028" lon="-0.29597">
        <ele>1370.4</ele>
        <time>2025-07-22T13:34:13Z</time>
      </trkpt>
      <trkpt lat="42.96035" lon="-0.29599">
        <ele>1370.4</ele>
        <time>2025-07-22T13:34:14Z</time>
      </trkpt>
      <trkpt lat="42.96056" lon="-0.2964">
        <ele>1370.2</ele>
        <time>2025-07-22T13:34:22Z</time>
      </trkpt>
      <trkpt lat="42.96062" lon="-0.29655">
        <ele>1370.2</ele>
        <time>2025-07-22T13:34:25Z</time>
      </trkpt>
      <trkpt lat="42.96066" lon="-0.29666">
        <ele>1370.2</ele>
        <time>2025-07-22T13:34:27Z</time>
      </trkpt>
      <trkpt lat="42.96068" lon="-0.29671">
        <ele>1370.2</ele>
        <time>2025-07-22T13:34:28Z</time>
      </trkpt>
      <trkpt lat="42.96088" lon="-0.29717">
        <ele>1371.2</ele>
        <time>2025-07-22T13:34:37Z</time>
      </trkpt>
      <trkpt lat="42.96097" lon="-0.29737">
        <ele>1371.6</ele>
        <time>2025-07-22T13:34:41Z</time>
      </trkpt>
      <trkpt lat="42.96104" lon="-0.29745">
        <ele>1371.8</ele>
        <time>2025-07-22T13:34:43Z</time>
      </trkpt>
      <trkpt lat="42.96117" lon="-0.29758">
        <ele>1372.2</ele>
        <time>2025-07-22T13:34:47Z</time>
      </trkpt>
      <trkpt lat="42.96139" lon="-0.29777">
        <ele>1372.4</ele>
        <time>2025-07-22T13:34:53Z</time>
      </trkpt>
      <trkpt lat="42.96166" lon="-0.2979">
        <ele>1372.6</ele>
        <time>2025-07-22T13:35:00Z</time>
      </trkpt>
      <trkpt lat="42.9617" lon="-0.29793">
        <ele>1372.8</ele>
        <time>2025-07-22T13:35:01Z</time>
      </trkpt>
      <trkpt lat="42.96174" lon="-0.29797">
        <ele>1372.8</ele>
        <time>2025-07-22T13:35:02Z</time>
      </trkpt>
      <trkpt lat="42.96181" lon="-0.29805">
        <ele>1373</ele>
        <time>2025-07-22T13:35:04Z</time>
      </trkpt>
      <trkpt lat="42.96186" lon="-0.29813">
        <ele>1373.4</ele>
        <time>2025-07-22T13:35:06Z</time>
      </trkpt>
      <trkpt lat="42.96203" lon="-0.29849">
        <ele>1374.2</ele>
        <time>2025-07-22T13:35:13Z</time>
      </trkpt>
      <trkpt lat="42.96205" lon="-0.29853">
        <ele>1374.2</ele>
        <time>2025-07-22T13:35:14Z</time>
      </trkpt>
      <trkpt lat="42.96212" lon="-0.29868">
        <ele>1374.6</ele>
        <time>2025-07-22T13:35:17Z</time>
      </trkpt>
      <trkpt lat="42.96221" lon="-0.29881">
        <ele>1374.8</ele>
        <time>2025-07-22T13:35:20Z</time>
      </trkpt>
      <trkpt lat="42.96235" lon="-0.29902">
        <ele>1375.2</ele>
        <time>2025-07-22T13:35:25Z</time>
      </trkpt>
      <trkpt lat="42.96241" lon="-0.29913">
        <ele>1375.4</ele>
        <time>2025-07-22T13:35:27Z</time>
      </trkpt>
      <trkpt lat="42.96243" lon="-0.29918">
        <ele>1375.6</ele>
        <time>2025-07-22T13:35:28Z</time>
      </trkpt>
      <trkpt lat="42.96251" lon="-0.29931">
        <ele>1375.8</ele>
        <time>2025-07-22T13:35:31Z</time>
      </trkpt>
      <trkpt lat="42.96258" lon="-0.2994">
        <ele>1376</ele>
        <time>2025-07-22T13:35:33Z</time>
      </trkpt>
      <trkpt lat="42.96261" lon="-0.29946">
        <ele>1376.2</ele>
        <time>2025-07-22T13:35:34Z</time>
      </trkpt>
      <trkpt lat="42.96263" lon="-0.2995">
        <ele>1376.2</ele>
        <time>2025-07-22T13:35:35Z</time>
      </trkpt>
      <trkpt lat="42.96267" lon="-0.29966">
        <ele>1376.4</ele>
        <time>2025-07-22T13:35:38Z</time>
      </trkpt>
      <trkpt lat="42.9627" lon="-0.29978">
        <ele>1376.8</ele>
        <time>2025-07-22T13:35:40Z</time>
      </trkpt>
      <trkpt lat="42.96275" lon="-0.30006">
        <ele>1377.6</ele>
        <time>2025-07-22T13:35:45Z</time>
      </trkpt>
      <trkpt lat="42.96276" lon="-0.30012">
        <ele>1377.6</ele>
        <time>2025-07-22T13:35:46Z</time>
      </trkpt>
      <trkpt lat="42.96279" lon="-0.30024">
        <ele>1378</ele>
        <time>2025-07-22T13:35:48Z</time>
      </trkpt>
      <trkpt lat="42.96286" lon="-0.30039">
        <ele>1378.4</ele>
        <time>2025-07-22T13:35:51Z</time>
      </trkpt>
      <trkpt lat="42.96291" lon="-0.30049">
        <ele>1378.6</ele>
        <time>2025-07-22T13:35:53Z</time>
      </trkpt>
      <trkpt lat="42.96296" lon="-0.30058">
        <ele>1378.6</ele>
        <time>2025-07-22T13:35:55Z</time>
      </trkpt>
      <trkpt lat="42.96298" lon="-0.30064">
        <ele>1378.6</ele>
        <time>2025-07-22T13:35:56Z</time>
      </trkpt>
      <trkpt lat="42.963" lon="-0.30069">
        <ele>1378.6</ele>
        <time>2025-07-22T13:35:57Z</time>
      </trkpt>
      <trkpt lat="42.96309" lon="-0.30101">
        <ele>1378.8</ele>
        <time>2025-07-22T13:36:03Z</time>
      </trkpt>
      <trkpt lat="42.9632" lon="-0.30137">
        <ele>1379.6</ele>
        <time>2025-07-22T13:36:10Z</time>
      </trkpt>
      <trkpt lat="42.96332" lon="-0.30168">
        <ele>1380.8</ele>
        <time>2025-07-22T13:36:16Z</time>
      </trkpt>
      <trkpt lat="42.96337" lon="-0.30191">
        <ele>1381.6</ele>
        <time>2025-07-22T13:36:20Z</time>
      </trkpt>
      <trkpt lat="42.9634" lon="-0.30202">
        <ele>1382</ele>
        <time>2025-07-22T13:36:22Z</time>
      </trkpt>
      <trkpt lat="42.96352" lon="-0.30253">
        <ele>1383</ele>
        <time>2025-07-22T13:36:31Z</time>
      </trkpt>
      <trkpt lat="42.96366" lon="-0.30304">
        <ele>1383.8</ele>
        <time>2025-07-22T13:36:40Z</time>
      </trkpt>
      <trkpt lat="42.9637" lon="-0.30315">
        <ele>1383.8</ele>
        <time>2025-07-22T13:36:42Z</time>
      </trkpt>
      <trkpt lat="42.96373" lon="-0.30321">
        <ele>1383.8</ele>
        <time>2025-07-22T13:36:43Z</time>
      </trkpt>
      <trkpt lat="42.96379" lon="-0.30328">
        <ele>1384</ele>
        <time>2025-07-22T13:36:45Z</time>
      </trkpt>
      <trkpt lat="42.96387" lon="-0.30331">
        <ele>1384.4</ele>
        <time>2025-07-22T13:36:47Z</time>
      </trkpt>
      <trkpt lat="42.96391" lon="-0.3033">
        <ele>1384.4</ele>
        <time>2025-07-22T13:36:48Z</time>
      </trkpt>
      <trkpt lat="42.96403" lon="-0.30328">
        <ele>1385</ele>
        <time>2025-07-22T13:36:51Z</time>
      </trkpt>
      <trkpt lat="42.96413" lon="-0.30326">
        <ele>1385.2</ele>
        <time>2025-07-22T13:36:53Z</time>
      </trkpt>
      <trkpt lat="42.96421" lon="-0.30322">
        <ele>1385.4</ele>
        <time>2025-07-22T13:36:55Z</time>
      </trkpt>
      <trkpt lat="42.96428" lon="-0.30316">
        <ele>1385.4</ele>
        <time>2025-07-22T13:36:57Z</time>
      </trkpt>
      <trkpt lat="42.96433" lon="-0.30308">
        <ele>1385.6</ele>
        <time>2025-07-22T13:36:59Z</time>
      </trkpt>
      <trkpt lat="42.96438" lon="-0.30302">
        <ele>1386</ele>
        <time>2025-07-22T13:37:01Z</time>
      </trkpt>
      <trkpt lat="42.96447" lon="-0.30291">
        <ele>1387</ele>
        <time>2025-07-22T13:37:05Z</time>
      </trkpt>
      <trkpt lat="42.96466" lon="-0.30276">
        <ele>1388</ele>
        <time>2025-07-22T13:37:12Z</time>
      </trkpt>
      <trkpt lat="42.96468" lon="-0.30274">
        <ele>1388</ele>
        <time>2025-07-22T13:37:13Z</time>
      </trkpt>
      <trkpt lat="42.96481" lon="-0.30261">
        <ele>1388.8</ele>
        <time>2025-07-22T13:37:19Z</time>
      </trkpt>
      <trkpt lat="42.96483" lon="-0.30259">
        <ele>1389.2</ele>
        <time>2025-07-22T13:37:20Z</time>
      </trkpt>
      <trkpt lat="42.96496" lon="-0.3025">
        <ele>1390</ele>
        <time>2025-07-22T13:37:25Z</time>
      </trkpt>
      <trkpt lat="42.96499" lon="-0.30247">
        <ele>1390.4</ele>
        <time>2025-07-22T13:37:27Z</time>
      </trkpt>
      <trkpt lat="42.96509" lon="-0.30238">
        <ele>1391.2</ele>
        <time>2025-07-22T13:37:32Z</time>
      </trkpt>
      <trkpt lat="42.96514" lon="-0.30235">
        <ele>1391.4</ele>
        <time>2025-07-22T13:37:34Z</time>
      </trkpt>
      <trkpt lat="42.96518" lon="-0.30231">
        <ele>1391.8</ele>
        <time>2025-07-22T13:37:37Z</time>
      </trkpt>
      <trkpt lat="42.96523" lon="-0.30228">
        <ele>1392.6</ele>
        <time>2025-07-22T13:37:39Z</time>
      </trkpt>
      <trkpt lat="42.96532" lon="-0.3022">
        <ele>1393.8</ele>
        <time>2025-07-22T13:37:44Z</time>
      </trkpt>
      <trkpt lat="42.96535" lon="-0.30219">
        <ele>1394</ele>
        <time>2025-07-22T13:37:45Z</time>
      </trkpt>
      <trkpt lat="42.96541" lon="-0.30215">
        <ele>1394.8</ele>
        <time>2025-07-22T13:37:48Z</time>
      </trkpt>
      <trkpt lat="42.96554" lon="-0.30206">
        <ele>1395.6</ele>
        <time>2025-07-22T13:37:54Z</time>
      </trkpt>
      <trkpt lat="42.96556" lon="-0.30205">
        <ele>1395.8</ele>
        <time>2025-07-22T13:37:55Z</time>
      </trkpt>
      <trkpt lat="42.96571" lon="-0.30196">
        <ele>1396.6</ele>
        <time>2025-07-22T13:38:02Z</time>
      </trkpt>
      <trkpt lat="42.96573" lon="-0.30195">
        <ele>1396.8</ele>
        <time>2025-07-22T13:38:03Z</time>
      </trkpt>
      <trkpt lat="42.96586" lon="-0.30186">
        <ele>1397.8</ele>
        <time>2025-07-22T13:38:09Z</time>
      </trkpt>
      <trkpt lat="42.96591" lon="-0.30184">
        <ele>1398.4</ele>
        <time>2025-07-22T13:38:11Z</time>
      </trkpt>
      <trkpt lat="42.96608" lon="-0.30186">
        <ele>1399.2</ele>
        <time>2025-07-22T13:38:17Z</time>
      </trkpt>
      <trkpt lat="42.96624" lon="-0.30209">
        <ele>1399.6</ele>
        <time>2025-07-22T13:38:24Z</time>
      </trkpt>
      <trkpt lat="42.96639" lon="-0.30238">
        <ele>1399.8</ele>
        <time>2025-07-22T13:38:31Z</time>
      </trkpt>
      <trkpt lat="42.96647" lon="-0.30256">
        <ele>1400.2</ele>
        <time>2025-07-22T13:38:35Z</time>
      </trkpt>
      <trkpt lat="42.9666" lon="-0.30269">
        <ele>1400.6</ele>
        <time>2025-07-22T13:38:39Z</time>
      </trkpt>
      <trkpt lat="42.96681" lon="-0.30275">
        <ele>1401</ele>
        <time>2025-07-22T13:38:45Z</time>
      </trkpt>
      <trkpt lat="42.96685" lon="-0.30274">
        <ele>1401.4</ele>
        <time>2025-07-22T13:38:46Z</time>
      </trkpt>
      <trkpt lat="42.9669" lon="-0.30273">
        <ele>1401.6</ele>
        <time>2025-07-22T13:38:47Z</time>
      </trkpt>
      <trkpt lat="42.96699" lon="-0.3027">
        <ele>1401.6</ele>
        <time>2025-07-22T13:38:49Z</time>
      </trkpt>
      <trkpt lat="42.96704" lon="-0.30267">
        <ele>1401.4</ele>
        <time>2025-07-22T13:38:50Z</time>
      </trkpt>
      <trkpt lat="42.96715" lon="-0.3026">
        <ele>1401.4</ele>
        <time>2025-07-22T13:38:52Z</time>
      </trkpt>
      <trkpt lat="42.96728" lon="-0.30247">
        <ele>1401.6</ele>
        <time>2025-07-22T13:38:55Z</time>
      </trkpt>
      <trkpt lat="42.96759" lon="-0.30214">
        <ele>1401.8</ele>
        <time>2025-07-22T13:39:03Z</time>
      </trkpt>
      <trkpt lat="42.96767" lon="-0.30208">
        <ele>1401.8</ele>
        <time>2025-07-22T13:39:05Z</time>
      </trkpt>
      <trkpt lat="42.96778" lon="-0.302">
        <ele>1402.4</ele>
        <time>2025-07-22T13:39:08Z</time>
      </trkpt>
      <trkpt lat="42.96788" lon="-0.30196">
        <ele>1403</ele>
        <time>2025-07-22T13:39:11Z</time>
      </trkpt>
      <trkpt lat="42.96792" lon="-0.30196">
        <ele>1403.2</ele>
        <time>2025-07-22T13:39:12Z</time>
      </trkpt>
      <trkpt lat="42.96813" lon="-0.30199">
        <ele>1403.6</ele>
        <time>2025-07-22T13:39:17Z</time>
      </trkpt>
      <trkpt lat="42.96818" lon="-0.302">
        <ele>1403.6</ele>
        <time>2025-07-22T13:39:18Z</time>
      </trkpt>
      <trkpt lat="42.96829" lon="-0.30201">
        <ele>1403.8</ele>
        <time>2025-07-22T13:39:21Z</time>
      </trkpt>
      <trkpt lat="42.96836" lon="-0.30199">
        <ele>1404</ele>
        <time>2025-07-22T13:39:23Z</time>
      </trkpt>
      <trkpt lat="42.96842" lon="-0.30195">
        <ele>1404</ele>
        <time>2025-07-22T13:39:25Z</time>
      </trkpt>
      <trkpt lat="42.96845" lon="-0.30192">
        <ele>1404.4</ele>
        <time>2025-07-22T13:39:26Z</time>
      </trkpt>
      <trkpt lat="42.96847" lon="-0.30188">
        <ele>1404.6</ele>
        <time>2025-07-22T13:39:27Z</time>
      </trkpt>
      <trkpt lat="42.96852" lon="-0.30181">
        <ele>1405.4</ele>
        <time>2025-07-22T13:39:29Z</time>
      </trkpt>
      <trkpt lat="42.96859" lon="-0.30169">
        <ele>1406</ele>
        <time>2025-07-22T13:39:32Z</time>
      </trkpt>
      <trkpt lat="42.96862" lon="-0.30165">
        <ele>1406.2</ele>
        <time>2025-07-22T13:39:33Z</time>
      </trkpt>
      <trkpt lat="42.96874" lon="-0.30151">
        <ele>1407.2</ele>
        <time>2025-07-22T13:39:37Z</time>
      </trkpt>
      <trkpt lat="42.96878" lon="-0.30147">
        <ele>1407.4</ele>
        <time>2025-07-22T13:39:38Z</time>
      </trkpt>
      <trkpt lat="42.96888" lon="-0.30137">
        <ele>1407.8</ele>
        <time>2025-07-22T13:39:41Z</time>
      </trkpt>
      <trkpt lat="42.96898" lon="-0.30128">
        <ele>1408.2</ele>
        <time>2025-07-22T13:39:44Z</time>
      </trkpt>
      <trkpt lat="42.96902" lon="-0.30125">
        <ele>1408.4</ele>
        <time>2025-07-22T13:39:45Z</time>
      </trkpt>
      <trkpt lat="42.96913" lon="-0.30116">
        <ele>1408.6</ele>
        <time>2025-07-22T13:39:48Z</time>
      </trkpt>
      <trkpt lat="42.96923" lon="-0.30107">
        <ele>1408.8</ele>
        <time>2025-07-22T13:39:51Z</time>
      </trkpt>
      <trkpt lat="42.96944" lon="-0.30091">
        <ele>1409.2</ele>
        <time>2025-07-22T13:39:57Z</time>
      </trkpt>
      <trkpt lat="42.96957" lon="-0.30082">
        <ele>1409.4</ele>
        <time>2025-07-22T13:40:01Z</time>
      </trkpt>
      <trkpt lat="42.96969" lon="-0.30071">
        <ele>1409.6</ele>
        <time>2025-07-22T13:40:05Z</time>
      </trkpt>
      <trkpt lat="42.9698" lon="-0.30062">
        <ele>1410.2</ele>
        <time>2025-07-22T13:40:09Z</time>
      </trkpt>
      <trkpt lat="42.96985" lon="-0.30057">
        <ele>1410.6</ele>
        <time>2025-07-22T13:40:11Z</time>
      </trkpt>
      <trkpt lat="42.96998" lon="-0.30046">
        <ele>1411.4</ele>
        <time>2025-07-22T13:40:16Z</time>
      </trkpt>
      <trkpt lat="42.97003" lon="-0.30046">
        <ele>1412</ele>
        <time>2025-07-22T13:40:18Z</time>
      </trkpt>
      <trkpt lat="42.97008" lon="-0.30049">
        <ele>1412.6</ele>
        <time>2025-07-22T13:40:20Z</time>
      </trkpt>
      <trkpt lat="42.97014" lon="-0.30059">
        <ele>1413.2</ele>
        <time>2025-07-22T13:40:23Z</time>
      </trkpt>
      <trkpt lat="42.97016" lon="-0.30065">
        <ele>1413.8</ele>
        <time>2025-07-22T13:40:25Z</time>
      </trkpt>
      <trkpt lat="42.97021" lon="-0.30079">
        <ele>1414.8</ele>
        <time>2025-07-22T13:40:30Z</time>
      </trkpt>
      <trkpt lat="42.97028" lon="-0.30105">
        <ele>1416</ele>
        <time>2025-07-22T13:40:38Z</time>
      </trkpt>
      <trkpt lat="42.97046" lon="-0.30129">
        <ele>1416.8</ele>
        <time>2025-07-22T13:40:47Z</time>
      </trkpt>
      <trkpt lat="42.9705" lon="-0.30133">
        <ele>1417</ele>
        <time>2025-07-22T13:40:49Z</time>
      </trkpt>
      <trkpt lat="42.97072" lon="-0.30152">
        <ele>1417.4</ele>
        <time>2025-07-22T13:40:57Z</time>
      </trkpt>
      <trkpt lat="42.97082" lon="-0.30162">
        <ele>1417.8</ele>
        <time>2025-07-22T13:41:01Z</time>
      </trkpt>
      <trkpt lat="42.97094" lon="-0.30175">
        <ele>1418.2</ele>
        <time>2025-07-22T13:41:05Z</time>
      </trkpt>
      <trkpt lat="42.97118" lon="-0.3019">
        <ele>1418.6</ele>
        <time>2025-07-22T13:41:12Z</time>
      </trkpt>
      <trkpt lat="42.9713" lon="-0.30202">
        <ele>1419</ele>
        <time>2025-07-22T13:41:16Z</time>
      </trkpt>
      <trkpt lat="42.97135" lon="-0.3021">
        <ele>1419.2</ele>
        <time>2025-07-22T13:41:18Z</time>
      </trkpt>
      <trkpt lat="42.97153" lon="-0.30237">
        <ele>1420</ele>
        <time>2025-07-22T13:41:26Z</time>
      </trkpt>
      <trkpt lat="42.97155" lon="-0.3024">
        <ele>1420.4</ele>
        <time>2025-07-22T13:41:27Z</time>
      </trkpt>
      <trkpt lat="42.97163" lon="-0.30255">
        <ele>1421.2</ele>
        <time>2025-07-22T13:41:32Z</time>
      </trkpt>
      <trkpt lat="42.97169" lon="-0.30269">
        <ele>1422.4</ele>
        <time>2025-07-22T13:41:37Z</time>
      </trkpt>
      <trkpt lat="42.97172" lon="-0.30275">
        <ele>1422.8</ele>
        <time>2025-07-22T13:41:39Z</time>
      </trkpt>
      <trkpt lat="42.97174" lon="-0.3028">
        <ele>1423.4</ele>
        <time>2025-07-22T13:41:41Z</time>
      </trkpt>
      <trkpt lat="42.97179" lon="-0.30291">
        <ele>1424.6</ele>
        <time>2025-07-22T13:41:45Z</time>
      </trkpt>
      <trkpt lat="42.97181" lon="-0.30294">
        <ele>1424.6</ele>
        <time>2025-07-22T13:41:46Z</time>
      </trkpt>
      <trkpt lat="42.97188" lon="-0.30306">
        <ele>1425.6</ele>
        <time>2025-07-22T13:41:51Z</time>
      </trkpt>
      <trkpt lat="42.97195" lon="-0.30318">
        <ele>1426.4</ele>
        <time>2025-07-22T13:41:56Z</time>
      </trkpt>
      <trkpt lat="42.97196" lon="-0.3032">
        <ele>1426.6</ele>
        <time>2025-07-22T13:41:57Z</time>
      </trkpt>
      <trkpt lat="42.97207" lon="-0.30338">
        <ele>1427.4</ele>
        <time>2025-07-22T13:42:04Z</time>
      </trkpt>
      <trkpt lat="42.97221" lon="-0.30355">
        <ele>1428.4</ele>
        <time>2025-07-22T13:42:11Z</time>
      </trkpt>
      <trkpt lat="42.97227" lon="-0.30362">
        <ele>1428.8</ele>
        <time>2025-07-22T13:42:14Z</time>
      </trkpt>
      <trkpt lat="42.97232" lon="-0.30371">
        <ele>1429.8</ele>
        <time>2025-07-22T13:42:17Z</time>
      </trkpt>
      <trkpt lat="42.97243" lon="-0.30392">
        <ele>1430.8</ele>
        <time>2025-07-22T13:42:23Z</time>
      </trkpt>
      <trkpt lat="42.97246" lon="-0.30397">
        <ele>1430.8</ele>
        <time>2025-07-22T13:42:24Z</time>
      </trkpt>
      <trkpt lat="42.97259" lon="-0.30415">
        <ele>1430.8</ele>
        <time>2025-07-22T13:42:29Z</time>
      </trkpt>
      <trkpt lat="42.97279" lon="-0.30442">
        <ele>1431.4</ele>
        <time>2025-07-22T13:42:37Z</time>
      </trkpt>
      <trkpt lat="42.97289" lon="-0.30445">
        <ele>1431.8</ele>
        <time>2025-07-22T13:42:40Z</time>
      </trkpt>
      <trkpt lat="42.97303" lon="-0.30445">
        <ele>1432.2</ele>
        <time>2025-07-22T13:42:44Z</time>
      </trkpt>
      <trkpt lat="42.97323" lon="-0.30445">
        <ele>1433</ele>
        <time>2025-07-22T13:42:50Z</time>
      </trkpt>
      <trkpt lat="42.97327" lon="-0.30447">
        <ele>1433</ele>
        <time>2025-07-22T13:42:51Z</time>
      </trkpt>
      <trkpt lat="42.9735" lon="-0.30461">
        <ele>1433.6</ele>
        <time>2025-07-22T13:42:58Z</time>
      </trkpt>
      <trkpt lat="42.97369" lon="-0.30464">
        <ele>1434</ele>
        <time>2025-07-22T13:43:03Z</time>
      </trkpt>
      <trkpt lat="42.97377" lon="-0.30465">
        <ele>1434.2</ele>
        <time>2025-07-22T13:43:05Z</time>
      </trkpt>
      <trkpt lat="42.97395" lon="-0.30475">
        <ele>1434.6</ele>
        <time>2025-07-22T13:43:10Z</time>
      </trkpt>
      <trkpt lat="42.97414" lon="-0.30503">
        <ele>1435</ele>
        <time>2025-07-22T13:43:17Z</time>
      </trkpt>
      <trkpt lat="42.97417" lon="-0.30505">
        <ele>1435.2</ele>
        <time>2025-07-22T13:43:18Z</time>
      </trkpt>
      <trkpt lat="42.97441" lon="-0.30532">
        <ele>1435.8</ele>
        <time>2025-07-22T13:43:26Z</time>
      </trkpt>
      <trkpt lat="42.97447" lon="-0.30536">
        <ele>1436</ele>
        <time>2025-07-22T13:43:28Z</time>
      </trkpt>
      <trkpt lat="42.97472" lon="-0.30558">
        <ele>1436.6</ele>
        <time>2025-07-22T13:43:35Z</time>
      </trkpt>
      <trkpt lat="42.9748" lon="-0.30575">
        <ele>1437</ele>
        <time>2025-07-22T13:43:39Z</time>
      </trkpt>
      <trkpt lat="42.97482" lon="-0.30581">
        <ele>1437</ele>
        <time>2025-07-22T13:43:40Z</time>
      </trkpt>
      <trkpt lat="42.97483" lon="-0.30587">
        <ele>1437.2</ele>
        <time>2025-07-22T13:43:41Z</time>
      </trkpt>
      <trkpt lat="42.97483" lon="-0.30608">
        <ele>1437.4</ele>
        <time>2025-07-22T13:43:45Z</time>
      </trkpt>
      <trkpt lat="42.9748" lon="-0.30642">
        <ele>1438.2</ele>
        <time>2025-07-22T13:43:51Z</time>
      </trkpt>
      <trkpt lat="42.97478" lon="-0.30658">
        <ele>1438.6</ele>
        <time>2025-07-22T13:43:54Z</time>
      </trkpt>
      <trkpt lat="42.97478" lon="-0.30663">
        <ele>1438.8</ele>
        <time>2025-07-22T13:43:55Z</time>
      </trkpt>
      <trkpt lat="42.97475" lon="-0.30688">
        <ele>1439.6</ele>
        <time>2025-07-22T13:44:00Z</time>
      </trkpt>
      <trkpt lat="42.97472" lon="-0.30706">
        <ele>1440</ele>
        <time>2025-07-22T13:44:04Z</time>
      </trkpt>
      <trkpt lat="42.97471" lon="-0.30718">
        <ele>1440.6</ele>
        <time>2025-07-22T13:44:07Z</time>
      </trkpt>
      <trkpt lat="42.97469" lon="-0.30739">
        <ele>1441.6</ele>
        <time>2025-07-22T13:44:12Z</time>
      </trkpt>
      <trkpt lat="42.97468" lon="-0.30743">
        <ele>1441.8</ele>
        <time>2025-07-22T13:44:13Z</time>
      </trkpt>
      <trkpt lat="42.97463" lon="-0.30759">
        <ele>1442.8</ele>
        <time>2025-07-22T13:44:17Z</time>
      </trkpt>
      <trkpt lat="42.97458" lon="-0.3077">
        <ele>1443.4</ele>
        <time>2025-07-22T13:44:20Z</time>
      </trkpt>
      <trkpt lat="42.97456" lon="-0.30773">
        <ele>1444</ele>
        <time>2025-07-22T13:44:21Z</time>
      </trkpt>
      <trkpt lat="42.97451" lon="-0.30794">
        <ele>1445</ele>
        <time>2025-07-22T13:44:26Z</time>
      </trkpt>
      <trkpt lat="42.97453" lon="-0.30802">
        <ele>1445.2</ele>
        <time>2025-07-22T13:44:28Z</time>
      </trkpt>
      <trkpt lat="42.97458" lon="-0.30814">
        <ele>1445.4</ele>
        <time>2025-07-22T13:44:31Z</time>
      </trkpt>
      <trkpt lat="42.97472" lon="-0.30847">
        <ele>1446</ele>
        <time>2025-07-22T13:44:39Z</time>
      </trkpt>
      <trkpt lat="42.97476" lon="-0.30854">
        <ele>1446.2</ele>
        <time>2025-07-22T13:44:41Z</time>
      </trkpt>
      <trkpt lat="42.97489" lon="-0.30873">
        <ele>1446.6</ele>
        <time>2025-07-22T13:44:46Z</time>
      </trkpt>
      <trkpt lat="42.97499" lon="-0.30882">
        <ele>1447</ele>
        <time>2025-07-22T13:44:49Z</time>
      </trkpt>
      <trkpt lat="42.97515" lon="-0.30896">
        <ele>1448.2</ele>
        <time>2025-07-22T13:44:54Z</time>
      </trkpt>
      <trkpt lat="42.97518" lon="-0.30899">
        <ele>1448.4</ele>
        <time>2025-07-22T13:44:55Z</time>
      </trkpt>
      <trkpt lat="42.97533" lon="-0.3092">
        <ele>1449.2</ele>
        <time>2025-07-22T13:45:01Z</time>
      </trkpt>
      <trkpt lat="42.97535" lon="-0.30923">
        <ele>1449.4</ele>
        <time>2025-07-22T13:45:02Z</time>
      </trkpt>
      <trkpt lat="42.97541" lon="-0.30932">
        <ele>1450.4</ele>
        <time>2025-07-22T13:45:05Z</time>
      </trkpt>
      <trkpt lat="42.9755" lon="-0.30944">
        <ele>1451.2</ele>
        <time>2025-07-22T13:45:09Z</time>
      </trkpt>
      <trkpt lat="42.97552" lon="-0.30947">
        <ele>1451.6</ele>
        <time>2025-07-22T13:45:10Z</time>
      </trkpt>
      <trkpt lat="42.97558" lon="-0.30958">
        <ele>1452.6</ele>
        <time>2025-07-22T13:45:14Z</time>
      </trkpt>
      <trkpt lat="42.9756" lon="-0.30961">
        <ele>1452.8</ele>
        <time>2025-07-22T13:45:15Z</time>
      </trkpt>
      <trkpt lat="42.97571" lon="-0.30976">
        <ele>1453.6</ele>
        <time>2025-07-22T13:45:21Z</time>
      </trkpt>
      <trkpt lat="42.97572" lon="-0.30978">
        <ele>1453.8</ele>
        <time>2025-07-22T13:45:22Z</time>
      </trkpt>
      <trkpt lat="42.97578" lon="-0.30986">
        <ele>1454.8</ele>
        <time>2025-07-22T13:45:25Z</time>
      </trkpt>
      <trkpt lat="42.97591" lon="-0.31002">
        <ele>1455.8</ele>
        <time>2025-07-22T13:45:31Z</time>
      </trkpt>
      <trkpt lat="42.97599" lon="-0.31011">
        <ele>1457</ele>
        <time>2025-07-22T13:45:36Z</time>
      </trkpt>
      <trkpt lat="42.976" lon="-0.31013">
        <ele>1457</ele>
        <time>2025-07-22T13:45:37Z</time>
      </trkpt>
      <trkpt lat="42.97605" lon="-0.31018">
        <ele>1457.6</ele>
        <time>2025-07-22T13:45:40Z</time>
      </trkpt>
      <trkpt lat="42.97607" lon="-0.3102">
        <ele>1457.8</ele>
        <time>2025-07-22T13:45:41Z</time>
      </trkpt>
      <trkpt lat="42.97609" lon="-0.31022">
        <ele>1458</ele>
        <time>2025-07-22T13:45:42Z</time>
      </trkpt>
      <trkpt lat="42.97621" lon="-0.31033">
        <ele>1459.2</ele>
        <time>2025-07-22T13:45:48Z</time>
      </trkpt>
      <trkpt lat="42.97622" lon="-0.31034">
        <ele>1459.4</ele>
        <time>2025-07-22T13:45:49Z</time>
      </trkpt>
      <trkpt lat="42.97629" lon="-0.31046">
        <ele>1460.4</ele>
        <time>2025-07-22T13:45:55Z</time>
      </trkpt>
      <trkpt lat="42.97629" lon="-0.31064">
        <ele>1461.2</ele>
        <time>2025-07-22T13:46:02Z</time>
      </trkpt>
      <trkpt lat="42.97627" lon="-0.3107">
        <ele>1461.6</ele>
        <time>2025-07-22T13:46:04Z</time>
      </trkpt>
      <trkpt lat="42.97625" lon="-0.31088">
        <ele>1462.6</ele>
        <time>2025-07-22T13:46:10Z</time>
      </trkpt>
      <trkpt lat="42.97623" lon="-0.31096">
        <ele>1462.8</ele>
        <time>2025-07-22T13:46:13Z</time>
      </trkpt>
      <trkpt lat="42.97619" lon="-0.31111">
        <ele>1463.6</ele>
        <time>2025-07-22T13:46:18Z</time>
      </trkpt>
      <trkpt lat="42.97619" lon="-0.31114">
        <ele>1463.8</ele>
        <time>2025-07-22T13:46:19Z</time>
      </trkpt>
      <trkpt lat="42.97619" lon="-0.3112">
        <ele>1464</ele>
        <time>2025-07-22T13:46:21Z</time>
      </trkpt>
      <trkpt lat="42.97616" lon="-0.31134">
        <ele>1464.8</ele>
        <time>2025-07-22T13:46:26Z</time>
      </trkpt>
      <trkpt lat="42.9761" lon="-0.31152">
        <ele>1466</ele>
        <time>2025-07-22T13:46:33Z</time>
      </trkpt>
      <trkpt lat="42.9761" lon="-0.31155">
        <ele>1466.4</ele>
        <time>2025-07-22T13:46:35Z</time>
      </trkpt>
      <trkpt lat="42.97606" lon="-0.31169">
        <ele>1467.2</ele>
        <time>2025-07-22T13:46:39Z</time>
      </trkpt>
      <trkpt lat="42.97604" lon="-0.31177">
        <ele>1467.6</ele>
        <time>2025-07-22T13:46:42Z</time>
      </trkpt>
      <trkpt lat="42.97599" lon="-0.31189">
        <ele>1468.4</ele>
        <time>2025-07-22T13:46:47Z</time>
      </trkpt>
      <trkpt lat="42.97599" lon="-0.31192">
        <ele>1468.6</ele>
        <time>2025-07-22T13:46:48Z</time>
      </trkpt>
      <trkpt lat="42.97597" lon="-0.31201">
        <ele>1469</ele>
        <time>2025-07-22T13:46:51Z</time>
      </trkpt>
      <trkpt lat="42.97596" lon="-0.31207">
        <ele>1469.6</ele>
        <time>2025-07-22T13:46:53Z</time>
      </trkpt>
      <trkpt lat="42.97591" lon="-0.31228">
        <ele>1470.6</ele>
        <time>2025-07-22T13:47:00Z</time>
      </trkpt>
      <trkpt lat="42.9759" lon="-0.31231">
        <ele>1470.8</ele>
        <time>2025-07-22T13:47:01Z</time>
      </trkpt>
      <trkpt lat="42.97583" lon="-0.31248">
        <ele>1471.6</ele>
        <time>2025-07-22T13:47:07Z</time>
      </trkpt>
      <trkpt lat="42.97576" lon="-0.31261">
        <ele>1472.8</ele>
        <time>2025-07-22T13:47:12Z</time>
      </trkpt>
      <trkpt lat="42.97574" lon="-0.31264">
        <ele>1472.8</ele>
        <time>2025-07-22T13:47:13Z</time>
      </trkpt>
      <trkpt lat="42.97569" lon="-0.31276">
        <ele>1473.8</ele>
        <time>2025-07-22T13:47:17Z</time>
      </trkpt>
      <trkpt lat="42.97568" lon="-0.3128">
        <ele>1473.8</ele>
        <time>2025-07-22T13:47:18Z</time>
      </trkpt>
      <trkpt lat="42.97567" lon="-0.31291">
        <ele>1474.2</ele>
        <time>2025-07-22T13:47:21Z</time>
      </trkpt>
      <trkpt lat="42.97567" lon="-0.31298">
        <ele>1474.4</ele>
        <time>2025-07-22T13:47:23Z</time>
      </trkpt>
      <trkpt lat="42.97568" lon="-0.31301">
        <ele>1474.4</ele>
        <time>2025-07-22T13:47:24Z</time>
      </trkpt>
      <trkpt lat="42.9757" lon="-0.31311">
        <ele>1474.6</ele>
        <time>2025-07-22T13:47:27Z</time>
      </trkpt>
      <trkpt lat="42.9758" lon="-0.31329">
        <ele>1475.6</ele>
        <time>2025-07-22T13:47:32Z</time>
      </trkpt>
      <trkpt lat="42.97587" lon="-0.31346">
        <ele>1476.8</ele>
        <time>2025-07-22T13:47:37Z</time>
      </trkpt>
      <trkpt lat="42.97584" lon="-0.31362">
        <ele>1478</ele>
        <time>2025-07-22T13:47:42Z</time>
      </trkpt>
      <trkpt lat="42.97584" lon="-0.31365">
        <ele>1478</ele>
        <time>2025-07-22T13:47:43Z</time>
      </trkpt>
      <trkpt lat="42.97584" lon="-0.31384">
        <ele>1479</ele>
        <time>2025-07-22T13:47:50Z</time>
      </trkpt>
      <trkpt lat="42.97583" lon="-0.3139">
        <ele>1479</ele>
        <time>2025-07-22T13:47:51Z</time>
      </trkpt>
      <trkpt lat="42.97581" lon="-0.31412">
        <ele>1480</ele>
        <time>2025-07-22T13:47:58Z</time>
      </trkpt>
      <trkpt lat="42.97579" lon="-0.31422">
        <ele>1480.8</ele>
        <time>2025-07-22T13:48:01Z</time>
      </trkpt>
      <trkpt lat="42.97577" lon="-0.31431">
        <ele>1481.6</ele>
        <time>2025-07-22T13:48:04Z</time>
      </trkpt>
      <trkpt lat="42.97571" lon="-0.31447">
        <ele>1482.6</ele>
        <time>2025-07-22T13:48:10Z</time>
      </trkpt>
      <trkpt lat="42.97567" lon="-0.3147">
        <ele>1483.6</ele>
        <time>2025-07-22T13:48:17Z</time>
      </trkpt>
      <trkpt lat="42.97577" lon="-0.31489">
        <ele>1484.4</ele>
        <time>2025-07-22T13:48:23Z</time>
      </trkpt>
      <trkpt lat="42.97578" lon="-0.31497">
        <ele>1485.2</ele>
        <time>2025-07-22T13:48:25Z</time>
      </trkpt>
      <trkpt lat="42.97578" lon="-0.31514">
        <ele>1485.8</ele>
        <time>2025-07-22T13:48:29Z</time>
      </trkpt>
      <trkpt lat="42.97577" lon="-0.31528">
        <ele>1486.2</ele>
        <time>2025-07-22T13:48:32Z</time>
      </trkpt>
      <trkpt lat="42.97577" lon="-0.31553">
        <ele>1486.6</ele>
        <time>2025-07-22T13:48:37Z</time>
      </trkpt>
      <trkpt lat="42.97576" lon="-0.31593">
        <ele>1487.4</ele>
        <time>2025-07-22T13:48:45Z</time>
      </trkpt>
      <trkpt lat="42.9758" lon="-0.31636">
        <ele>1488.4</ele>
        <time>2025-07-22T13:48:53Z</time>
      </trkpt>
      <trkpt lat="42.9758" lon="-0.31641">
        <ele>1488.4</ele>
        <time>2025-07-22T13:48:54Z</time>
      </trkpt>
      <trkpt lat="42.9758" lon="-0.31675">
        <ele>1489</ele>
        <time>2025-07-22T13:49:01Z</time>
      </trkpt>
      <trkpt lat="42.97578" lon="-0.3169">
        <ele>1489.4</ele>
        <time>2025-07-22T13:49:04Z</time>
      </trkpt>
      <trkpt lat="42.97574" lon="-0.31709">
        <ele>1490</ele>
        <time>2025-07-22T13:49:09Z</time>
      </trkpt>
      <trkpt lat="42.9757" lon="-0.31722">
        <ele>1490.6</ele>
        <time>2025-07-22T13:49:13Z</time>
      </trkpt>
      <trkpt lat="42.97567" lon="-0.3173">
        <ele>1491.4</ele>
        <time>2025-07-22T13:49:16Z</time>
      </trkpt>
      <trkpt lat="42.97565" lon="-0.31735">
        <ele>1491.8</ele>
        <time>2025-07-22T13:49:18Z</time>
      </trkpt>
      <trkpt lat="42.97557" lon="-0.31749">
        <ele>1493</ele>
        <time>2025-07-22T13:49:23Z</time>
      </trkpt>
      <trkpt lat="42.97546" lon="-0.31763">
        <ele>1494</ele>
        <time>2025-07-22T13:49:29Z</time>
      </trkpt>
      <trkpt lat="42.97545" lon="-0.31765">
        <ele>1494.2</ele>
        <time>2025-07-22T13:49:30Z</time>
      </trkpt>
      <trkpt lat="42.97538" lon="-0.31773">
        <ele>1495.2</ele>
        <time>2025-07-22T13:49:34Z</time>
      </trkpt>
      <trkpt lat="42.97533" lon="-0.31778">
        <ele>1495.6</ele>
        <time>2025-07-22T13:49:37Z</time>
      </trkpt>
      <trkpt lat="42.97529" lon="-0.3178">
        <ele>1496</ele>
        <time>2025-07-22T13:49:39Z</time>
      </trkpt>
      <trkpt lat="42.97526" lon="-0.31782">
        <ele>1497.2</ele>
        <time>2025-07-22T13:49:42Z</time>
      </trkpt>
      <trkpt lat="42.97522" lon="-0.31786">
        <ele>1497.2</ele>
        <time>2025-07-22T13:49:43Z</time>
      </trkpt>
      <trkpt lat="42.97514" lon="-0.3179">
        <ele>1498</ele>
        <time>2025-07-22T13:49:48Z</time>
      </trkpt>
      <trkpt lat="42.97511" lon="-0.31791">
        <ele>1498.2</ele>
        <time>2025-07-22T13:49:49Z</time>
      </trkpt>
      <trkpt lat="42.975" lon="-0.31796">
        <ele>1499.4</ele>
        <time>2025-07-22T13:49:56Z</time>
      </trkpt>
      <trkpt lat="42.97484" lon="-0.31803">
        <ele>1500.6</ele>
        <time>2025-07-22T13:50:02Z</time>
      </trkpt>
      <trkpt lat="42.97482" lon="-0.31804">
        <ele>1501</ele>
        <time>2025-07-22T13:50:04Z</time>
      </trkpt>
      <trkpt lat="42.97473" lon="-0.31809">
        <ele>1501.8</ele>
        <time>2025-07-22T13:50:07Z</time>
      </trkpt>
      <trkpt lat="42.97467" lon="-0.31814">
        <ele>1502.8</ele>
        <time>2025-07-22T13:50:10Z</time>
      </trkpt>
      <trkpt lat="42.97466" lon="-0.31816">
        <ele>1503.2</ele>
        <time>2025-07-22T13:50:12Z</time>
      </trkpt>
      <trkpt lat="42.97456" lon="-0.31828">
        <ele>1504</ele>
        <time>2025-07-22T13:50:17Z</time>
      </trkpt>
      <trkpt lat="42.97452" lon="-0.31831">
        <ele>1504.2</ele>
        <time>2025-07-22T13:50:19Z</time>
      </trkpt>
      <trkpt lat="42.97448" lon="-0.31834">
        <ele>1504.6</ele>
        <time>2025-07-22T13:50:21Z</time>
      </trkpt>
      <trkpt lat="42.97444" lon="-0.31835">
        <ele>1505.2</ele>
        <time>2025-07-22T13:50:23Z</time>
      </trkpt>
      <trkpt lat="42.97439" lon="-0.31833">
        <ele>1505.8</ele>
        <time>2025-07-22T13:50:25Z</time>
      </trkpt>
      <trkpt lat="42.97437" lon="-0.31832">
        <ele>1506.2</ele>
        <time>2025-07-22T13:50:26Z</time>
      </trkpt>
      <trkpt lat="42.97425" lon="-0.31828">
        <ele>1507.4</ele>
        <time>2025-07-22T13:50:31Z</time>
      </trkpt>
      <trkpt lat="42.97418" lon="-0.31827">
        <ele>1507.8</ele>
        <time>2025-07-22T13:50:34Z</time>
      </trkpt>
      <trkpt lat="42.9741" lon="-0.31825">
        <ele>1508.6</ele>
        <time>2025-07-22T13:50:38Z</time>
      </trkpt>
      <trkpt lat="42.97397" lon="-0.3182">
        <ele>1509.8</ele>
        <time>2025-07-22T13:50:44Z</time>
      </trkpt>
      <trkpt lat="42.97393" lon="-0.31819">
        <ele>1510</ele>
        <time>2025-07-22T13:50:46Z</time>
      </trkpt>
      <trkpt lat="42.97379" lon="-0.31819">
        <ele>1510.8</ele>
        <time>2025-07-22T13:50:52Z</time>
      </trkpt>
      <trkpt lat="42.97375" lon="-0.31818">
        <ele>1511</ele>
        <time>2025-07-22T13:50:54Z</time>
      </trkpt>
      <trkpt lat="42.97363" lon="-0.31812">
        <ele>1511.8</ele>
        <time>2025-07-22T13:51:00Z</time>
      </trkpt>
      <trkpt lat="42.97357" lon="-0.31808">
        <ele>1512.6</ele>
        <time>2025-07-22T13:51:03Z</time>
      </trkpt>
      <trkpt lat="42.97354" lon="-0.31806">
        <ele>1513</ele>
        <time>2025-07-22T13:51:05Z</time>
      </trkpt>
      <trkpt lat="42.97352" lon="-0.31805">
        <ele>1513.4</ele>
        <time>2025-07-22T13:51:06Z</time>
      </trkpt>
      <trkpt lat="42.97343" lon="-0.31801">
        <ele>1513.8</ele>
        <time>2025-07-22T13:51:11Z</time>
      </trkpt>
      <trkpt lat="42.97338" lon="-0.31801">
        <ele>1514.2</ele>
        <time>2025-07-22T13:51:13Z</time>
      </trkpt>
      <trkpt lat="42.97328" lon="-0.318">
        <ele>1515.4</ele>
        <time>2025-07-22T13:51:17Z</time>
      </trkpt>
      <trkpt lat="42.97327" lon="-0.31799">
        <ele>1515.4</ele>
        <time>2025-07-22T13:51:18Z</time>
      </trkpt>
      <trkpt lat="42.97319" lon="-0.31798">
        <ele>1516.2</ele>
        <time>2025-07-22T13:51:22Z</time>
      </trkpt>
      <trkpt lat="42.97315" lon="-0.31797">
        <ele>1516.8</ele>
        <time>2025-07-22T13:51:24Z</time>
      </trkpt>
      <trkpt lat="42.97309" lon="-0.31796">
        <ele>1517.2</ele>
        <time>2025-07-22T13:51:27Z</time>
      </trkpt>
      <trkpt lat="42.97299" lon="-0.31797">
        <ele>1518.4</ele>
        <time>2025-07-22T13:51:31Z</time>
      </trkpt>
      <trkpt lat="42.97293" lon="-0.31798">
        <ele>1519.2</ele>
        <time>2025-07-22T13:51:34Z</time>
      </trkpt>
      <trkpt lat="42.97289" lon="-0.31799">
        <ele>1519.6</ele>
        <time>2025-07-22T13:51:36Z</time>
      </trkpt>
      <trkpt lat="42.97279" lon="-0.31801">
        <ele>1520.4</ele>
        <time>2025-07-22T13:51:41Z</time>
      </trkpt>
      <trkpt lat="42.97275" lon="-0.31802">
        <ele>1521</ele>
        <time>2025-07-22T13:51:43Z</time>
      </trkpt>
      <trkpt lat="42.97267" lon="-0.31808">
        <ele>1521.8</ele>
        <time>2025-07-22T13:51:47Z</time>
      </trkpt>
      <trkpt lat="42.97264" lon="-0.3181">
        <ele>1522</ele>
        <time>2025-07-22T13:51:49Z</time>
      </trkpt>
      <trkpt lat="42.9726" lon="-0.31816">
        <ele>1522.8</ele>
        <time>2025-07-22T13:51:52Z</time>
      </trkpt>
      <trkpt lat="42.97258" lon="-0.3182">
        <ele>1523.2</ele>
        <time>2025-07-22T13:51:54Z</time>
      </trkpt>
      <trkpt lat="42.97257" lon="-0.31825">
        <ele>1523.6</ele>
        <time>2025-07-22T13:51:56Z</time>
      </trkpt>
      <trkpt lat="42.97256" lon="-0.31829">
        <ele>1523.8</ele>
        <time>2025-07-22T13:51:57Z</time>
      </trkpt>
      <trkpt lat="42.97256" lon="-0.31837">
        <ele>1524.6</ele>
        <time>2025-07-22T13:52:00Z</time>
      </trkpt>
      <trkpt lat="42.97256" lon="-0.31841">
        <ele>1525</ele>
        <time>2025-07-22T13:52:01Z</time>
      </trkpt>
      <trkpt lat="42.97257" lon="-0.31857">
        <ele>1526.2</ele>
        <time>2025-07-22T13:52:06Z</time>
      </trkpt>
      <trkpt lat="42.97256" lon="-0.31863">
        <ele>1526.6</ele>
        <time>2025-07-22T13:52:08Z</time>
      </trkpt>
      <trkpt lat="42.97254" lon="-0.31875">
        <ele>1527.2</ele>
        <time>2025-07-22T13:52:12Z</time>
      </trkpt>
      <trkpt lat="42.97253" lon="-0.31883">
        <ele>1528.4</ele>
        <time>2025-07-22T13:52:15Z</time>
      </trkpt>
      <trkpt lat="42.97251" lon="-0.31892">
        <ele>1529.4</ele>
        <time>2025-07-22T13:52:18Z</time>
      </trkpt>
      <trkpt lat="42.97251" lon="-0.31895">
        <ele>1529.6</ele>
        <time>2025-07-22T13:52:19Z</time>
      </trkpt>
      <trkpt lat="42.97249" lon="-0.31909">
        <ele>1530.6</ele>
        <time>2025-07-22T13:52:24Z</time>
      </trkpt>
      <trkpt lat="42.97249" lon="-0.31912">
        <ele>1530.8</ele>
        <time>2025-07-22T13:52:25Z</time>
      </trkpt>
      <trkpt lat="42.97248" lon="-0.31923">
        <ele>1532</ele>
        <time>2025-07-22T13:52:29Z</time>
      </trkpt>
      <trkpt lat="42.97247" lon="-0.31938">
        <ele>1533</ele>
        <time>2025-07-22T13:52:34Z</time>
      </trkpt>
      <trkpt lat="42.97246" lon="-0.31955">
        <ele>1533.8</ele>
        <time>2025-07-22T13:52:40Z</time>
      </trkpt>
      <trkpt lat="42.97243" lon="-0.31969">
        <ele>1534.8</ele>
        <time>2025-07-22T13:52:45Z</time>
      </trkpt>
      <trkpt lat="42.97243" lon="-0.31972">
        <ele>1535.2</ele>
        <time>2025-07-22T13:52:46Z</time>
      </trkpt>
      <trkpt lat="42.97241" lon="-0.31993">
        <ele>1536.2</ele>
        <time>2025-07-22T13:52:53Z</time>
      </trkpt>
      <trkpt lat="42.9724" lon="-0.31996">
        <ele>1536.4</ele>
        <time>2025-07-22T13:52:54Z</time>
      </trkpt>
      <trkpt lat="42.97238" lon="-0.32009">
        <ele>1537.4</ele>
        <time>2025-07-22T13:52:59Z</time>
      </trkpt>
      <trkpt lat="42.97236" lon="-0.32025">
        <ele>1538.2</ele>
        <time>2025-07-22T13:53:04Z</time>
      </trkpt>
      <trkpt lat="42.97236" lon="-0.32028">
        <ele>1538.4</ele>
        <time>2025-07-22T13:53:05Z</time>
      </trkpt>
      <trkpt lat="42.97235" lon="-0.32045">
        <ele>1539.4</ele>
        <time>2025-07-22T13:53:11Z</time>
      </trkpt>
      <trkpt lat="42.97235" lon="-0.32047">
        <ele>1539.6</ele>
        <time>2025-07-22T13:53:12Z</time>
      </trkpt>
      <trkpt lat="42.97236" lon="-0.3206">
        <ele>1540.4</ele>
        <time>2025-07-22T13:53:16Z</time>
      </trkpt>
      <trkpt lat="42.97237" lon="-0.32067">
        <ele>1541</ele>
        <time>2025-07-22T13:53:18Z</time>
      </trkpt>
      <trkpt lat="42.97238" lon="-0.32076">
        <ele>1541.6</ele>
        <time>2025-07-22T13:53:21Z</time>
      </trkpt>
      <trkpt lat="42.97236" lon="-0.32092">
        <ele>1542.4</ele>
        <time>2025-07-22T13:53:26Z</time>
      </trkpt>
      <trkpt lat="42.97235" lon="-0.32095">
        <ele>1542.6</ele>
        <time>2025-07-22T13:53:27Z</time>
      </trkpt>
      <trkpt lat="42.97229" lon="-0.32118">
        <ele>1543.8</ele>
        <time>2025-07-22T13:53:35Z</time>
      </trkpt>
      <trkpt lat="42.97226" lon="-0.32127">
        <ele>1544.2</ele>
        <time>2025-07-22T13:53:38Z</time>
      </trkpt>
      <trkpt lat="42.97222" lon="-0.32136">
        <ele>1545.2</ele>
        <time>2025-07-22T13:53:42Z</time>
      </trkpt>
      <trkpt lat="42.97216" lon="-0.32146">
        <ele>1546</ele>
        <time>2025-07-22T13:53:47Z</time>
      </trkpt>
      <trkpt lat="42.97215" lon="-0.32149">
        <ele>1546.2</ele>
        <time>2025-07-22T13:53:48Z</time>
      </trkpt>
      <trkpt lat="42.97205" lon="-0.32164">
        <ele>1547.6</ele>
        <time>2025-07-22T13:53:55Z</time>
      </trkpt>
      <trkpt lat="42.97201" lon="-0.32172">
        <ele>1548</ele>
        <time>2025-07-22T13:53:58Z</time>
      </trkpt>
      <trkpt lat="42.97195" lon="-0.32184">
        <ele>1548.6</ele>
        <time>2025-07-22T13:54:03Z</time>
      </trkpt>
      <trkpt lat="42.97193" lon="-0.32192">
        <ele>1549</ele>
        <time>2025-07-22T13:54:06Z</time>
      </trkpt>
      <trkpt lat="42.97191" lon="-0.322">
        <ele>1549.8</ele>
        <time>2025-07-22T13:54:09Z</time>
      </trkpt>
      <trkpt lat="42.97185" lon="-0.32208">
        <ele>1550.6</ele>
        <time>2025-07-22T13:54:13Z</time>
      </trkpt>
      <trkpt lat="42.97184" lon="-0.3221">
        <ele>1551</ele>
        <time>2025-07-22T13:54:14Z</time>
      </trkpt>
      <trkpt lat="42.97174" lon="-0.32218">
        <ele>1552.2</ele>
        <time>2025-07-22T13:54:19Z</time>
      </trkpt>
      <trkpt lat="42.97171" lon="-0.32221">
        <ele>1552.8</ele>
        <time>2025-07-22T13:54:21Z</time>
      </trkpt>
      <trkpt lat="42.97165" lon="-0.32225">
        <ele>1553.2</ele>
        <time>2025-07-22T13:54:24Z</time>
      </trkpt>
      <trkpt lat="42.97153" lon="-0.3223">
        <ele>1554.2</ele>
        <time>2025-07-22T13:54:29Z</time>
      </trkpt>
      <trkpt lat="42.97151" lon="-0.32232">
        <ele>1554.4</ele>
        <time>2025-07-22T13:54:30Z</time>
      </trkpt>
      <trkpt lat="42.97145" lon="-0.32241">
        <ele>1554.8</ele>
        <time>2025-07-22T13:54:34Z</time>
      </trkpt>
      <trkpt lat="42.97143" lon="-0.32249">
        <ele>1555.6</ele>
        <time>2025-07-22T13:54:37Z</time>
      </trkpt>
      <trkpt lat="42.9714" lon="-0.32261">
        <ele>1556.6</ele>
        <time>2025-07-22T13:54:41Z</time>
      </trkpt>
      <trkpt lat="42.97139" lon="-0.32273">
        <ele>1557.8</ele>
        <time>2025-07-22T13:54:45Z</time>
      </trkpt>
      <trkpt lat="42.9714" lon="-0.32288">
        <ele>1558.6</ele>
        <time>2025-07-22T13:54:50Z</time>
      </trkpt>
      <trkpt lat="42.9714" lon="-0.32291">
        <ele>1558.8</ele>
        <time>2025-07-22T13:54:51Z</time>
      </trkpt>
      <trkpt lat="42.97147" lon="-0.3231">
        <ele>1560</ele>
        <time>2025-07-22T13:54:58Z</time>
      </trkpt>
      <trkpt lat="42.97147" lon="-0.32313">
        <ele>1560.2</ele>
        <time>2025-07-22T13:54:59Z</time>
      </trkpt>
      <trkpt lat="42.97148" lon="-0.32325">
        <ele>1561.4</ele>
        <time>2025-07-22T13:55:03Z</time>
      </trkpt>
      <trkpt lat="42.97147" lon="-0.3233">
        <ele>1562</ele>
        <time>2025-07-22T13:55:05Z</time>
      </trkpt>
      <trkpt lat="42.97146" lon="-0.3234">
        <ele>1562.6</ele>
        <time>2025-07-22T13:55:08Z</time>
      </trkpt>
      <trkpt lat="42.97142" lon="-0.32361">
        <ele>1563.6</ele>
        <time>2025-07-22T13:55:15Z</time>
      </trkpt>
      <trkpt lat="42.97141" lon="-0.32364">
        <ele>1563.6</ele>
        <time>2025-07-22T13:55:16Z</time>
      </trkpt>
      <trkpt lat="42.97133" lon="-0.32377">
        <ele>1564.8</ele>
        <time>2025-07-22T13:55:22Z</time>
      </trkpt>
      <trkpt lat="42.97119" lon="-0.32383">
        <ele>1566.2</ele>
        <time>2025-07-22T13:55:27Z</time>
      </trkpt>
      <trkpt lat="42.97111" lon="-0.32387">
        <ele>1567.4</ele>
        <time>2025-07-22T13:55:32Z</time>
      </trkpt>
      <trkpt lat="42.97107" lon="-0.3239">
        <ele>1567.6</ele>
        <time>2025-07-22T13:55:33Z</time>
      </trkpt>
      <trkpt lat="42.97098" lon="-0.32399">
        <ele>1568.4</ele>
        <time>2025-07-22T13:55:38Z</time>
      </trkpt>
      <trkpt lat="42.97093" lon="-0.32406">
        <ele>1568.8</ele>
        <time>2025-07-22T13:55:41Z</time>
      </trkpt>
      <trkpt lat="42.97091" lon="-0.32412">
        <ele>1569.4</ele>
        <time>2025-07-22T13:55:43Z</time>
      </trkpt>
      <trkpt lat="42.97091" lon="-0.32412">
        <ele>1569.6</ele>
        <time>2025-07-22T13:55:44Z</time>
      </trkpt>
      <trkpt lat="42.97091" lon="-0.32421">
        <ele>1570.2</ele>
        <time>2025-07-22T13:55:46Z</time>
      </trkpt>
      <trkpt lat="42.97092" lon="-0.32424">
        <ele>1570.6</ele>
        <time>2025-07-22T13:55:47Z</time>
      </trkpt>
      <trkpt lat="42.97096" lon="-0.32428">
        <ele>1571.2</ele>
        <time>2025-07-22T13:55:49Z</time>
      </trkpt>
      <trkpt lat="42.971" lon="-0.32431">
        <ele>1571.6</ele>
        <time>2025-07-22T13:55:51Z</time>
      </trkpt>
      <trkpt lat="42.97102" lon="-0.32433">
        <ele>1572</ele>
        <time>2025-07-22T13:55:52Z</time>
      </trkpt>
      <trkpt lat="42.97109" lon="-0.32438">
        <ele>1573</ele>
        <time>2025-07-22T13:55:56Z</time>
      </trkpt>
      <trkpt lat="42.97116" lon="-0.32446">
        <ele>1573.8</ele>
        <time>2025-07-22T13:56:00Z</time>
      </trkpt>
      <trkpt lat="42.97118" lon="-0.32448">
        <ele>1574.2</ele>
        <time>2025-07-22T13:56:01Z</time>
      </trkpt>
      <trkpt lat="42.97123" lon="-0.32453">
        <ele>1575.2</ele>
        <time>2025-07-22T13:56:04Z</time>
      </trkpt>
      <trkpt lat="42.97131" lon="-0.32458">
        <ele>1576</ele>
        <time>2025-07-22T13:56:08Z</time>
      </trkpt>
      <trkpt lat="42.97136" lon="-0.3246">
        <ele>1576.6</ele>
        <time>2025-07-22T13:56:10Z</time>
      </trkpt>
      <trkpt lat="42.97149" lon="-0.32462">
        <ele>1577.6</ele>
        <time>2025-07-22T13:56:15Z</time>
      </trkpt>
      <trkpt lat="42.97166" lon="-0.32465">
        <ele>1578.8</ele>
        <time>2025-07-22T13:56:22Z</time>
      </trkpt>
      <trkpt lat="42.97171" lon="-0.32466">
        <ele>1579.2</ele>
        <time>2025-07-22T13:56:24Z</time>
      </trkpt>
      <trkpt lat="42.97178" lon="-0.32469">
        <ele>1580.2</ele>
        <time>2025-07-22T13:56:27Z</time>
      </trkpt>
      <trkpt lat="42.97194" lon="-0.3247">
        <ele>1581.2</ele>
        <time>2025-07-22T13:56:34Z</time>
      </trkpt>
      <trkpt lat="42.97199" lon="-0.32469">
        <ele>1581.2</ele>
        <time>2025-07-22T13:56:36Z</time>
      </trkpt>
      <trkpt lat="42.97211" lon="-0.32468">
        <ele>1582.2</ele>
        <time>2025-07-22T13:56:41Z</time>
      </trkpt>
      <trkpt lat="42.97213" lon="-0.32467">
        <ele>1582.4</ele>
        <time>2025-07-22T13:56:42Z</time>
      </trkpt>
      <trkpt lat="42.97226" lon="-0.32467">
        <ele>1583.4</ele>
        <time>2025-07-22T13:56:48Z</time>
      </trkpt>
      <trkpt lat="42.97228" lon="-0.32467">
        <ele>1583.6</ele>
        <time>2025-07-22T13:56:49Z</time>
      </trkpt>
      <trkpt lat="42.97233" lon="-0.32469">
        <ele>1584.6</ele>
        <time>2025-07-22T13:56:52Z</time>
      </trkpt>
      <trkpt lat="42.97242" lon="-0.32475">
        <ele>1585.6</ele>
        <time>2025-07-22T13:56:56Z</time>
      </trkpt>
      <trkpt lat="42.97248" lon="-0.3249">
        <ele>1586.8</ele>
        <time>2025-07-22T13:57:01Z</time>
      </trkpt>
      <trkpt lat="42.9725" lon="-0.32495">
        <ele>1587.2</ele>
        <time>2025-07-22T13:57:03Z</time>
      </trkpt>
      <trkpt lat="42.97253" lon="-0.32504">
        <ele>1588</ele>
        <time>2025-07-22T13:57:06Z</time>
      </trkpt>
      <trkpt lat="42.97254" lon="-0.32517">
        <ele>1588.8</ele>
        <time>2025-07-22T13:57:10Z</time>
      </trkpt>
      <trkpt lat="42.97255" lon="-0.32526">
        <ele>1589.2</ele>
        <time>2025-07-22T13:57:13Z</time>
      </trkpt>
      <trkpt lat="42.97251" lon="-0.32544">
        <ele>1590.4</ele>
        <time>2025-07-22T13:57:19Z</time>
      </trkpt>
      <trkpt lat="42.9725" lon="-0.32547">
        <ele>1590.6</ele>
        <time>2025-07-22T13:57:20Z</time>
      </trkpt>
      <trkpt lat="42.97243" lon="-0.32563">
        <ele>1591.4</ele>
        <time>2025-07-22T13:57:25Z</time>
      </trkpt>
      <trkpt lat="42.97237" lon="-0.32572">
        <ele>1591.6</ele>
        <time>2025-07-22T13:57:28Z</time>
      </trkpt>
      <trkpt lat="42.97232" lon="-0.32578">
        <ele>1592</ele>
        <time>2025-07-22T13:57:30Z</time>
      </trkpt>
      <trkpt lat="42.97222" lon="-0.32587">
        <ele>1592.6</ele>
        <time>2025-07-22T13:57:35Z</time>
      </trkpt>
      <trkpt lat="42.97207" lon="-0.326">
        <ele>1593</ele>
        <time>2025-07-22T13:57:39Z</time>
      </trkpt>
      <trkpt lat="42.97182" lon="-0.32622">
        <ele>1593.4</ele>
        <time>2025-07-22T13:57:47Z</time>
      </trkpt>
      <trkpt lat="42.97179" lon="-0.32626">
        <ele>1593.4</ele>
        <time>2025-07-22T13:57:48Z</time>
      </trkpt>
      <trkpt lat="42.97166" lon="-0.32649">
        <ele>1593.8</ele>
        <time>2025-07-22T13:57:54Z</time>
      </trkpt>
      <trkpt lat="42.97152" lon="-0.32672">
        <ele>1594.6</ele>
        <time>2025-07-22T13:58:00Z</time>
      </trkpt>
      <trkpt lat="42.9715" lon="-0.32675">
        <ele>1594.8</ele>
        <time>2025-07-22T13:58:01Z</time>
      </trkpt>
      <trkpt lat="42.97147" lon="-0.32679">
        <ele>1595</ele>
        <time>2025-07-22T13:58:02Z</time>
      </trkpt>
      <trkpt lat="42.97131" lon="-0.3271">
        <ele>1595.4</ele>
        <time>2025-07-22T13:58:11Z</time>
      </trkpt>
      <trkpt lat="42.97124" lon="-0.32733">
        <ele>1595.8</ele>
        <time>2025-07-22T13:58:16Z</time>
      </trkpt>
      <trkpt lat="42.97122" lon="-0.32756">
        <ele>1596</ele>
        <time>2025-07-22T13:58:20Z</time>
      </trkpt>
      <trkpt lat="42.97128" lon="-0.32772">
        <ele>1596.8</ele>
        <time>2025-07-22T13:58:25Z</time>
      </trkpt>
      <trkpt lat="42.9714" lon="-0.32788">
        <ele>1597.2</ele>
        <time>2025-07-22T13:58:30Z</time>
      </trkpt>
      <trkpt lat="42.97146" lon="-0.32794">
        <ele>1597.6</ele>
        <time>2025-07-22T13:58:31Z</time>
      </trkpt>
      <trkpt lat="42.97149" lon="-0.32797">
        <ele>1597.8</ele>
        <time>2025-07-22T13:58:33Z</time>
      </trkpt>
      <trkpt lat="42.9716" lon="-0.32816">
        <ele>1598.6</ele>
        <time>2025-07-22T13:58:38Z</time>
      </trkpt>
      <trkpt lat="42.97161" lon="-0.32824">
        <ele>1599.2</ele>
        <time>2025-07-22T13:58:40Z</time>
      </trkpt>
      <trkpt lat="42.9716" lon="-0.32836">
        <ele>1599.8</ele>
        <time>2025-07-22T13:58:43Z</time>
      </trkpt>
      <trkpt lat="42.97156" lon="-0.32851">
        <ele>1600.2</ele>
        <time>2025-07-22T13:58:47Z</time>
      </trkpt>
      <trkpt lat="42.97153" lon="-0.32864">
        <ele>1600.6</ele>
        <time>2025-07-22T13:58:50Z</time>
      </trkpt>
      <trkpt lat="42.97152" lon="-0.32877">
        <ele>1601.2</ele>
        <time>2025-07-22T13:58:54Z</time>
      </trkpt>
      <trkpt lat="42.97154" lon="-0.32891">
        <ele>1601.8</ele>
        <time>2025-07-22T13:58:57Z</time>
      </trkpt>
      <trkpt lat="42.97156" lon="-0.32902">
        <ele>1602.4</ele>
        <time>2025-07-22T13:59:00Z</time>
      </trkpt>
      <trkpt lat="42.97158" lon="-0.32914">
        <ele>1603.4</ele>
        <time>2025-07-22T13:59:04Z</time>
      </trkpt>
      <trkpt lat="42.97158" lon="-0.32917">
        <ele>1603.8</ele>
        <time>2025-07-22T13:59:05Z</time>
      </trkpt>
      <trkpt lat="42.97159" lon="-0.32927">
        <ele>1604.6</ele>
        <time>2025-07-22T13:59:08Z</time>
      </trkpt>
      <trkpt lat="42.97161" lon="-0.32941">
        <ele>1605.6</ele>
        <time>2025-07-22T13:59:12Z</time>
      </trkpt>
      <trkpt lat="42.97163" lon="-0.32948">
        <ele>1606</ele>
        <time>2025-07-22T13:59:14Z</time>
      </trkpt>
      <trkpt lat="42.97167" lon="-0.32962">
        <ele>1606.6</ele>
        <time>2025-07-22T13:59:18Z</time>
      </trkpt>
      <trkpt lat="42.97169" lon="-0.32976">
        <ele>1607.6</ele>
        <time>2025-07-22T13:59:22Z</time>
      </trkpt>
      <trkpt lat="42.9717" lon="-0.3298">
        <ele>1607.8</ele>
        <time>2025-07-22T13:59:23Z</time>
      </trkpt>
      <trkpt lat="42.97173" lon="-0.32994">
        <ele>1608.6</ele>
        <time>2025-07-22T13:59:27Z</time>
      </trkpt>
      <trkpt lat="42.9718" lon="-0.33011">
        <ele>1609.4</ele>
        <time>2025-07-22T13:59:32Z</time>
      </trkpt>
      <trkpt lat="42.97182" lon="-0.33014">
        <ele>1609.8</ele>
        <time>2025-07-22T13:59:33Z</time>
      </trkpt>
      <trkpt lat="42.97192" lon="-0.33033">
        <ele>1610.8</ele>
        <time>2025-07-22T13:59:40Z</time>
      </trkpt>
      <trkpt lat="42.97201" lon="-0.33046">
        <ele>1612.2</ele>
        <time>2025-07-22T13:59:47Z</time>
      </trkpt>
      <trkpt lat="42.97205" lon="-0.3306">
        <ele>1613.2</ele>
        <time>2025-07-22T13:59:51Z</time>
      </trkpt>
      <trkpt lat="42.97208" lon="-0.33066">
        <ele>1614.2</ele>
        <time>2025-07-22T13:59:54Z</time>
      </trkpt>
      <trkpt lat="42.97211" lon="-0.33069">
        <ele>1614.6</ele>
        <time>2025-07-22T13:59:55Z</time>
      </trkpt>
      <trkpt lat="42.97217" lon="-0.33078">
        <ele>1615.6</ele>
        <time>2025-07-22T13:59:59Z</time>
      </trkpt>
      <trkpt lat="42.9722" lon="-0.33083">
        <ele>1616</ele>
        <time>2025-07-22T14:00:01Z</time>
      </trkpt>
      <trkpt lat="42.97225" lon="-0.33089">
        <ele>1616.8</ele>
        <time>2025-07-22T14:00:04Z</time>
      </trkpt>
      <trkpt lat="42.97228" lon="-0.33101">
        <ele>1617.6</ele>
        <time>2025-07-22T14:00:08Z</time>
      </trkpt>
      <trkpt lat="42.97229" lon="-0.33109">
        <ele>1618</ele>
        <time>2025-07-22T14:00:11Z</time>
      </trkpt>
      <trkpt lat="42.97229" lon="-0.33112">
        <ele>1618.2</ele>
        <time>2025-07-22T14:00:12Z</time>
      </trkpt>
      <trkpt lat="42.97227" lon="-0.33127">
        <ele>1619</ele>
        <time>2025-07-22T14:00:17Z</time>
      </trkpt>
      <trkpt lat="42.97227" lon="-0.3313">
        <ele>1619.2</ele>
        <time>2025-07-22T14:00:18Z</time>
      </trkpt>
      <trkpt lat="42.97223" lon="-0.33144">
        <ele>1620.2</ele>
        <time>2025-07-22T14:00:24Z</time>
      </trkpt>
      <trkpt lat="42.9722" lon="-0.33166">
        <ele>1621</ele>
        <time>2025-07-22T14:00:30Z</time>
      </trkpt>
      <trkpt lat="42.97222" lon="-0.33188">
        <ele>1622.2</ele>
        <time>2025-07-22T14:00:37Z</time>
      </trkpt>
      <trkpt lat="42.97225" lon="-0.33194">
        <ele>1622.4</ele>
        <time>2025-07-22T14:00:39Z</time>
      </trkpt>
      <trkpt lat="42.97228" lon="-0.33198">
        <ele>1623.2</ele>
        <time>2025-07-22T14:00:42Z</time>
      </trkpt>
      <trkpt lat="42.97235" lon="-0.33201">
        <ele>1623.4</ele>
        <time>2025-07-22T14:00:45Z</time>
      </trkpt>
      <trkpt lat="42.97247" lon="-0.332">
        <ele>1624.4</ele>
        <time>2025-07-22T14:00:49Z</time>
      </trkpt>
      <trkpt lat="42.97254" lon="-0.33198">
        <ele>1624.6</ele>
        <time>2025-07-22T14:00:52Z</time>
      </trkpt>
      <trkpt lat="42.97263" lon="-0.33197">
        <ele>1625.4</ele>
        <time>2025-07-22T14:00:56Z</time>
      </trkpt>
      <trkpt lat="42.97277" lon="-0.33195">
        <ele>1626.6</ele>
        <time>2025-07-22T14:01:02Z</time>
      </trkpt>
      <trkpt lat="42.97293" lon="-0.33195">
        <ele>1627.6</ele>
        <time>2025-07-22T14:01:09Z</time>
      </trkpt>
      <trkpt lat="42.97298" lon="-0.33195">
        <ele>1628</ele>
        <time>2025-07-22T14:01:11Z</time>
      </trkpt>
      <trkpt lat="42.97304" lon="-0.33197">
        <ele>1628.8</ele>
        <time>2025-07-22T14:01:14Z</time>
      </trkpt>
      <trkpt lat="42.97316" lon="-0.332">
        <ele>1630</ele>
        <time>2025-07-22T14:01:19Z</time>
      </trkpt>
      <trkpt lat="42.97318" lon="-0.332">
        <ele>1630.2</ele>
        <time>2025-07-22T14:01:20Z</time>
      </trkpt>
      <trkpt lat="42.97331" lon="-0.33205">
        <ele>1631.4</ele>
        <time>2025-07-22T14:01:25Z</time>
      </trkpt>
      <trkpt lat="42.97335" lon="-0.33208">
        <ele>1632.2</ele>
        <time>2025-07-22T14:01:28Z</time>
      </trkpt>
      <trkpt lat="42.97339" lon="-0.3321">
        <ele>1632.2</ele>
        <time>2025-07-22T14:01:29Z</time>
      </trkpt>
      <trkpt lat="42.9735" lon="-0.33218">
        <ele>1633.6</ele>
        <time>2025-07-22T14:01:35Z</time>
      </trkpt>
      <trkpt lat="42.97354" lon="-0.33223">
        <ele>1633.8</ele>
        <time>2025-07-22T14:01:37Z</time>
      </trkpt>
      <trkpt lat="42.97362" lon="-0.33231">
        <ele>1634.6</ele>
        <time>2025-07-22T14:01:41Z</time>
      </trkpt>
      <trkpt lat="42.97372" lon="-0.33241">
        <ele>1635.8</ele>
        <time>2025-07-22T14:01:46Z</time>
      </trkpt>
      <trkpt lat="42.97389" lon="-0.3326">
        <ele>1636.8</ele>
        <time>2025-07-22T14:01:54Z</time>
      </trkpt>
      <trkpt lat="42.97391" lon="-0.33263">
        <ele>1637</ele>
        <time>2025-07-22T14:01:55Z</time>
      </trkpt>
      <trkpt lat="42.974" lon="-0.33278">
        <ele>1638</ele>
        <time>2025-07-22T14:01:59Z</time>
      </trkpt>
      <trkpt lat="42.97408" lon="-0.33297">
        <ele>1639</ele>
        <time>2025-07-22T14:02:06Z</time>
      </trkpt>
      <trkpt lat="42.97416" lon="-0.33318">
        <ele>1639.8</ele>
        <time>2025-07-22T14:02:13Z</time>
      </trkpt>
      <trkpt lat="42.97419" lon="-0.33331">
        <ele>1640.4</ele>
        <time>2025-07-22T14:02:16Z</time>
      </trkpt>
      <trkpt lat="42.97421" lon="-0.33337">
        <ele>1641</ele>
        <time>2025-07-22T14:02:18Z</time>
      </trkpt>
      <trkpt lat="42.97426" lon="-0.33353">
        <ele>1642</ele>
        <time>2025-07-22T14:02:23Z</time>
      </trkpt>
      <trkpt lat="42.97427" lon="-0.33356">
        <ele>1642.2</ele>
        <time>2025-07-22T14:02:24Z</time>
      </trkpt>
      <trkpt lat="42.97432" lon="-0.33367">
        <ele>1643.2</ele>
        <time>2025-07-22T14:02:28Z</time>
      </trkpt>
      <trkpt lat="42.97436" lon="-0.33379">
        <ele>1644.4</ele>
        <time>2025-07-22T14:02:32Z</time>
      </trkpt>
      <trkpt lat="42.9744" lon="-0.3339">
        <ele>1645.2</ele>
        <time>2025-07-22T14:02:36Z</time>
      </trkpt>
      <trkpt lat="42.97441" lon="-0.33393">
        <ele>1645.6</ele>
        <time>2025-07-22T14:02:37Z</time>
      </trkpt>
      <trkpt lat="42.97447" lon="-0.33407">
        <ele>1646.6</ele>
        <time>2025-07-22T14:02:42Z</time>
      </trkpt>
      <trkpt lat="42.97452" lon="-0.33414">
        <ele>1647</ele>
        <time>2025-07-22T14:02:45Z</time>
      </trkpt>
      <trkpt lat="42.97457" lon="-0.33421">
        <ele>1648</ele>
        <time>2025-07-22T14:02:48Z</time>
      </trkpt>
      <trkpt lat="42.97464" lon="-0.33431">
        <ele>1649</ele>
        <time>2025-07-22T14:02:53Z</time>
      </trkpt>
      <trkpt lat="42.97471" lon="-0.3344">
        <ele>1650.2</ele>
        <time>2025-07-22T14:02:58Z</time>
      </trkpt>
      <trkpt lat="42.97478" lon="-0.33444">
        <ele>1650.4</ele>
        <time>2025-07-22T14:03:00Z</time>
      </trkpt>
      <trkpt lat="42.97483" lon="-0.33452">
        <ele>1651.2</ele>
        <time>2025-07-22T14:03:03Z</time>
      </trkpt>
      <trkpt lat="42.97489" lon="-0.33465">
        <ele>1652.4</ele>
        <time>2025-07-22T14:03:08Z</time>
      </trkpt>
      <trkpt lat="42.9749" lon="-0.33468">
        <ele>1652.6</ele>
        <time>2025-07-22T14:03:09Z</time>
      </trkpt>
      <trkpt lat="42.97497" lon="-0.33485">
        <ele>1653.4</ele>
        <time>2025-07-22T14:03:15Z</time>
      </trkpt>
      <trkpt lat="42.97498" lon="-0.33491">
        <ele>1654</ele>
        <time>2025-07-22T14:03:17Z</time>
      </trkpt>
      <trkpt lat="42.97501" lon="-0.33503">
        <ele>1654.6</ele>
        <time>2025-07-22T14:03:21Z</time>
      </trkpt>
      <trkpt lat="42.97504" lon="-0.33518">
        <ele>1655.8</ele>
        <time>2025-07-22T14:03:26Z</time>
      </trkpt>
      <trkpt lat="42.97508" lon="-0.33536">
        <ele>1656.8</ele>
        <time>2025-07-22T14:03:32Z</time>
      </trkpt>
      <trkpt lat="42.97509" lon="-0.33543">
        <ele>1657</ele>
        <time>2025-07-22T14:03:34Z</time>
      </trkpt>
      <trkpt lat="42.97511" lon="-0.33558">
        <ele>1658</ele>
        <time>2025-07-22T14:03:39Z</time>
      </trkpt>
      <trkpt lat="42.97512" lon="-0.33567">
        <ele>1658.6</ele>
        <time>2025-07-22T14:03:42Z</time>
      </trkpt>
      <trkpt lat="42.97513" lon="-0.33574">
        <ele>1659</ele>
        <time>2025-07-22T14:03:44Z</time>
      </trkpt>
      <trkpt lat="42.97513" lon="-0.33577">
        <ele>1659.2</ele>
        <time>2025-07-22T14:03:45Z</time>
      </trkpt>
      <trkpt lat="42.97515" lon="-0.33596">
        <ele>1660.2</ele>
        <time>2025-07-22T14:03:51Z</time>
      </trkpt>
      <trkpt lat="42.97516" lon="-0.33602">
        <ele>1660.8</ele>
        <time>2025-07-22T14:03:53Z</time>
      </trkpt>
      <trkpt lat="42.97517" lon="-0.33608">
        <ele>1661.2</ele>
        <time>2025-07-22T14:03:55Z</time>
      </trkpt>
      <trkpt lat="42.97519" lon="-0.33627">
        <ele>1662.4</ele>
        <time>2025-07-22T14:04:01Z</time>
      </trkpt>
      <trkpt lat="42.9752" lon="-0.33639">
        <ele>1663</ele>
        <time>2025-07-22T14:04:05Z</time>
      </trkpt>
      <trkpt lat="42.9752" lon="-0.33642">
        <ele>1663.2</ele>
        <time>2025-07-22T14:04:06Z</time>
      </trkpt>
      <trkpt lat="42.97518" lon="-0.33661">
        <ele>1664.4</ele>
        <time>2025-07-22T14:04:12Z</time>
      </trkpt>
      <trkpt lat="42.97518" lon="-0.33671">
        <ele>1665</ele>
        <time>2025-07-22T14:04:15Z</time>
      </trkpt>
      <trkpt lat="42.97518" lon="-0.33674">
        <ele>1665.4</ele>
        <time>2025-07-22T14:04:16Z</time>
      </trkpt>
      <trkpt lat="42.97521" lon="-0.33692">
        <ele>1666.2</ele>
        <time>2025-07-22T14:04:22Z</time>
      </trkpt>
      <trkpt lat="42.97522" lon="-0.33696">
        <ele>1666.4</ele>
        <time>2025-07-22T14:04:23Z</time>
      </trkpt>
      <trkpt lat="42.97528" lon="-0.33713">
        <ele>1667.6</ele>
        <time>2025-07-22T14:04:29Z</time>
      </trkpt>
      <trkpt lat="42.9753" lon="-0.33718">
        <ele>1668.2</ele>
        <time>2025-07-22T14:04:31Z</time>
      </trkpt>
      <trkpt lat="42.97535" lon="-0.33725">
        <ele>1668.8</ele>
        <time>2025-07-22T14:04:34Z</time>
      </trkpt>
      <trkpt lat="42.97543" lon="-0.33736">
        <ele>1669.8</ele>
        <time>2025-07-22T14:04:39Z</time>
      </trkpt>
      <trkpt lat="42.97545" lon="-0.33738">
        <ele>1669.8</ele>
        <time>2025-07-22T14:04:40Z</time>
      </trkpt>
      <trkpt lat="42.97554" lon="-0.33745">
        <ele>1671</ele>
        <time>2025-07-22T14:04:44Z</time>
      </trkpt>
      <trkpt lat="42.97556" lon="-0.33748">
        <ele>1671.2</ele>
        <time>2025-07-22T14:04:45Z</time>
      </trkpt>
      <trkpt lat="42.97568" lon="-0.33757">
        <ele>1672</ele>
        <time>2025-07-22T14:04:51Z</time>
      </trkpt>
      <trkpt lat="42.97578" lon="-0.33765">
        <ele>1673</ele>
        <time>2025-07-22T14:04:56Z</time>
      </trkpt>
      <trkpt lat="42.97579" lon="-0.33767">
        <ele>1673.2</ele>
        <time>2025-07-22T14:04:57Z</time>
      </trkpt>
      <trkpt lat="42.97589" lon="-0.33774">
        <ele>1674.4</ele>
        <time>2025-07-22T14:05:02Z</time>
      </trkpt>
      <trkpt lat="42.97595" lon="-0.33778">
        <ele>1675.4</ele>
        <time>2025-07-22T14:05:05Z</time>
      </trkpt>
      <trkpt lat="42.97599" lon="-0.3378">
        <ele>1675.6</ele>
        <time>2025-07-22T14:05:07Z</time>
      </trkpt>
      <trkpt lat="42.97606" lon="-0.33786">
        <ele>1676.6</ele>
        <time>2025-07-22T14:05:12Z</time>
      </trkpt>
      <trkpt lat="42.97608" lon="-0.33788">
        <ele>1676.8</ele>
        <time>2025-07-22T14:05:13Z</time>
      </trkpt>
      <trkpt lat="42.97613" lon="-0.33795">
        <ele>1677.8</ele>
        <time>2025-07-22T14:05:16Z</time>
      </trkpt>
      <trkpt lat="42.97623" lon="-0.33811">
        <ele>1678.8</ele>
        <time>2025-07-22T14:05:21Z</time>
      </trkpt>
      <trkpt lat="42.97623" lon="-0.33811">
        <ele>1679</ele>
        <time>2025-07-22T14:05:22Z</time>
      </trkpt>
      <trkpt lat="42.97629" lon="-0.33829">
        <ele>1679.8</ele>
        <time>2025-07-22T14:05:27Z</time>
      </trkpt>
      <trkpt lat="42.97631" lon="-0.33841">
        <ele>1681</ele>
        <time>2025-07-22T14:05:31Z</time>
      </trkpt>
      <trkpt lat="42.97635" lon="-0.33857">
        <ele>1682</ele>
        <time>2025-07-22T14:05:37Z</time>
      </trkpt>
      <trkpt lat="42.97638" lon="-0.33874">
        <ele>1682.8</ele>
        <time>2025-07-22T14:05:42Z</time>
      </trkpt>
      <trkpt lat="42.97638" lon="-0.33874">
        <ele>1683.2</ele>
        <time>2025-07-22T14:05:43Z</time>
      </trkpt>
      <trkpt lat="42.97644" lon="-0.33893">
        <ele>1684.2</ele>
        <time>2025-07-22T14:05:48Z</time>
      </trkpt>
      <trkpt lat="42.9765" lon="-0.33911">
        <ele>1685.2</ele>
        <time>2025-07-22T14:05:54Z</time>
      </trkpt>
      <trkpt lat="42.97658" lon="-0.33927">
        <ele>1686.4</ele>
        <time>2025-07-22T14:06:00Z</time>
      </trkpt>
      <trkpt lat="42.97659" lon="-0.3393">
        <ele>1687.2</ele>
        <time>2025-07-22T14:06:02Z</time>
      </trkpt>
      <trkpt lat="42.97663" lon="-0.33938">
        <ele>1687.6</ele>
        <time>2025-07-22T14:06:05Z</time>
      </trkpt>
      <trkpt lat="42.97667" lon="-0.33957">
        <ele>1688.6</ele>
        <time>2025-07-22T14:06:10Z</time>
      </trkpt>
      <trkpt lat="42.97667" lon="-0.33957">
        <ele>1689</ele>
        <time>2025-07-22T14:06:11Z</time>
      </trkpt>
      <trkpt lat="42.97666" lon="-0.33965">
        <ele>1689.8</ele>
        <time>2025-07-22T14:06:14Z</time>
      </trkpt>
      <trkpt lat="42.97663" lon="-0.33973">
        <ele>1690.2</ele>
        <time>2025-07-22T14:06:17Z</time>
      </trkpt>
      <trkpt lat="42.97662" lon="-0.33977">
        <ele>1690.8</ele>
        <time>2025-07-22T14:06:19Z</time>
      </trkpt>
      <trkpt lat="42.97659" lon="-0.33987">
        <ele>1691.2</ele>
        <time>2025-07-22T14:06:23Z</time>
      </trkpt>
      <trkpt lat="42.97643" lon="-0.34011">
        <ele>1690.6</ele>
        <time>2025-07-22T14:06:34Z</time>
      </trkpt>
      <trkpt lat="42.97634" lon="-0.34018">
        <ele>1689.6</ele>
        <time>2025-07-22T14:06:41Z</time>
      </trkpt>
      <trkpt lat="42.97634" lon="-0.34018">
        <ele>1689.6</ele>
        <time>2025-07-22T14:06:42Z</time>
      </trkpt>
      <trkpt lat="42.9764" lon="-0.34012">
        <ele>1690</ele>
        <time>2025-07-22T14:08:29Z</time>
      </trkpt>
      <trkpt lat="42.97643" lon="-0.34007">
        <ele>1690</ele>
        <time>2025-07-22T14:08:31Z</time>
      </trkpt>
      <trkpt lat="42.97648" lon="-0.33999">
        <ele>1690.2</ele>
        <time>2025-07-22T14:08:34Z</time>
      </trkpt>
      <trkpt lat="42.97653" lon="-0.33988">
        <ele>1690.8</ele>
        <time>2025-07-22T14:08:38Z</time>
      </trkpt>
      <trkpt lat="42.97655" lon="-0.33984">
        <ele>1691</ele>
        <time>2025-07-22T14:08:40Z</time>
      </trkpt>
      <trkpt lat="42.97658" lon="-0.33981">
        <ele>1691.4</ele>
        <time>2025-07-22T14:08:42Z</time>
      </trkpt>
      <trkpt lat="42.97659" lon="-0.33979">
        <ele>1691.4</ele>
        <time>2025-07-22T14:08:43Z</time>
      </trkpt>
      <trkpt lat="42.97661" lon="-0.33972">
        <ele>1691.6</ele>
        <time>2025-07-22T14:08:47Z</time>
      </trkpt>
      <trkpt lat="42.97661" lon="-0.33972">
        <ele>1691.8</ele>
        <time>2025-07-22T14:08:48Z</time>
      </trkpt>
      <trkpt lat="42.97661" lon="-0.33969">
        <ele>1692</ele>
        <time>2025-07-22T14:08:53Z</time>
      </trkpt>
      <trkpt lat="42.97654" lon="-0.3398">
        <ele>1690.8</ele>
        <time>2025-07-22T14:18:53Z</time>
      </trkpt>
      <trkpt lat="42.97645" lon="-0.34002">
        <ele>1690.8</ele>
        <time>2025-07-22T14:18:58Z</time>
      </trkpt>
      <trkpt lat="42.97636" lon="-0.34027">
        <ele>1689.6</ele>
        <time>2025-07-22T14:19:04Z</time>
      </trkpt>
      <trkpt lat="42.97635" lon="-0.34033">
        <ele>1689.4</ele>
        <time>2025-07-22T14:19:05Z</time>
      </trkpt>
      <trkpt lat="42.97633" lon="-0.34042">
        <ele>1689.2</ele>
        <time>2025-07-22T14:19:07Z</time>
      </trkpt>
      <trkpt lat="42.97631" lon="-0.34057">
        <ele>1688.2</ele>
        <time>2025-07-22T14:19:09Z</time>
      </trkpt>
      <trkpt lat="42.97634" lon="-0.34095">
        <ele>1687.4</ele>
        <time>2025-07-22T14:19:14Z</time>
      </trkpt>
      <trkpt lat="42.97637" lon="-0.34107">
        <ele>1687.2</ele>
        <time>2025-07-22T14:19:15Z</time>
      </trkpt>
      <trkpt lat="42.97639" lon="-0.34114">
        <ele>1686.8</ele>
        <time>2025-07-22T14:19:16Z</time>
      </trkpt>
      <trkpt lat="42.97645" lon="-0.34131">
        <ele>1685.8</ele>
        <time>2025-07-22T14:19:18Z</time>
      </trkpt>
      <trkpt lat="42.97653" lon="-0.34148">
        <ele>1685</ele>
        <time>2025-07-22T14:19:20Z</time>
      </trkpt>
      <trkpt lat="42.97658" lon="-0.34157">
        <ele>1684.6</ele>
        <time>2025-07-22T14:19:21Z</time>
      </trkpt>
      <trkpt lat="42.97668" lon="-0.34171">
        <ele>1684</ele>
        <time>2025-07-22T14:19:23Z</time>
      </trkpt>
      <trkpt lat="42.97682" lon="-0.34188">
        <ele>1682.6</ele>
        <time>2025-07-22T14:19:25Z</time>
      </trkpt>
      <trkpt lat="42.97687" lon="-0.34195">
        <ele>1681.6</ele>
        <time>2025-07-22T14:19:26Z</time>
      </trkpt>
      <trkpt lat="42.97693" lon="-0.34207">
        <ele>1681.2</ele>
        <time>2025-07-22T14:19:27Z</time>
      </trkpt>
      <trkpt lat="42.977" lon="-0.34227">
        <ele>1680.6</ele>
        <time>2025-07-22T14:19:29Z</time>
      </trkpt>
      <trkpt lat="42.97703" lon="-0.34239">
        <ele>1680</ele>
        <time>2025-07-22T14:19:30Z</time>
      </trkpt>
      <trkpt lat="42.97706" lon="-0.34251">
        <ele>1679.6</ele>
        <time>2025-07-22T14:19:31Z</time>
      </trkpt>
      <trkpt lat="42.97708" lon="-0.34264">
        <ele>1678.8</ele>
        <time>2025-07-22T14:19:32Z</time>
      </trkpt>
      <trkpt lat="42.97713" lon="-0.34288">
        <ele>1677.8</ele>
        <time>2025-07-22T14:19:34Z</time>
      </trkpt>
      <trkpt lat="42.97716" lon="-0.34298">
        <ele>1676.8</ele>
        <time>2025-07-22T14:19:35Z</time>
      </trkpt>
      <trkpt lat="42.97721" lon="-0.34307">
        <ele>1676.2</ele>
        <time>2025-07-22T14:19:36Z</time>
      </trkpt>
      <trkpt lat="42.97728" lon="-0.34315">
        <ele>1675.4</ele>
        <time>2025-07-22T14:19:37Z</time>
      </trkpt>
      <trkpt lat="42.97735" lon="-0.34319">
        <ele>1674.8</ele>
        <time>2025-07-22T14:19:38Z</time>
      </trkpt>
      <trkpt lat="42.97743" lon="-0.34321">
        <ele>1674</ele>
        <time>2025-07-22T14:19:39Z</time>
      </trkpt>
      <trkpt lat="42.97752" lon="-0.34321">
        <ele>1673.2</ele>
        <time>2025-07-22T14:19:40Z</time>
      </trkpt>
      <trkpt lat="42.9776" lon="-0.3432">
        <ele>1672.4</ele>
        <time>2025-07-22T14:19:41Z</time>
      </trkpt>
      <trkpt lat="42.97769" lon="-0.34318">
        <ele>1671</ele>
        <time>2025-07-22T14:19:42Z</time>
      </trkpt>
      <trkpt lat="42.97777" lon="-0.34314">
        <ele>1670.6</ele>
        <time>2025-07-22T14:19:43Z</time>
      </trkpt>
      <trkpt lat="42.97784" lon="-0.34308">
        <ele>1669.2</ele>
        <time>2025-07-22T14:19:44Z</time>
      </trkpt>
      <trkpt lat="42.97791" lon="-0.34301">
        <ele>1668.8</ele>
        <time>2025-07-22T14:19:45Z</time>
      </trkpt>
      <trkpt lat="42.97797" lon="-0.34294">
        <ele>1667.8</ele>
        <time>2025-07-22T14:19:46Z</time>
      </trkpt>
      <trkpt lat="42.97804" lon="-0.34287">
        <ele>1667.6</ele>
        <time>2025-07-22T14:19:47Z</time>
      </trkpt>
      <trkpt lat="42.97812" lon="-0.34281">
        <ele>1666.4</ele>
        <time>2025-07-22T14:19:48Z</time>
      </trkpt>
      <trkpt lat="42.9782" lon="-0.34278">
        <ele>1665.8</ele>
        <time>2025-07-22T14:19:49Z</time>
      </trkpt>
      <trkpt lat="42.97829" lon="-0.34277">
        <ele>1665.4</ele>
        <time>2025-07-22T14:19:50Z</time>
      </trkpt>
      <trkpt lat="42.97838" lon="-0.34278">
        <ele>1664.6</ele>
        <time>2025-07-22T14:19:51Z</time>
      </trkpt>
      <trkpt lat="42.97847" lon="-0.34279">
        <ele>1664.4</ele>
        <time>2025-07-22T14:19:52Z</time>
      </trkpt>
      <trkpt lat="42.97857" lon="-0.34278">
        <ele>1663.2</ele>
        <time>2025-07-22T14:19:53Z</time>
      </trkpt>
      <trkpt lat="42.97866" lon="-0.34276">
        <ele>1662.6</ele>
        <time>2025-07-22T14:19:54Z</time>
      </trkpt>
      <trkpt lat="42.97875" lon="-0.34274">
        <ele>1661.6</ele>
        <time>2025-07-22T14:19:55Z</time>
      </trkpt>
      <trkpt lat="42.97883" lon="-0.34272">
        <ele>1660.8</ele>
        <time>2025-07-22T14:19:56Z</time>
      </trkpt>
      <trkpt lat="42.9789" lon="-0.34273">
        <ele>1660.6</ele>
        <time>2025-07-22T14:19:57Z</time>
      </trkpt>
      <trkpt lat="42.97896" lon="-0.34277">
        <ele>1659.4</ele>
        <time>2025-07-22T14:19:58Z</time>
      </trkpt>
      <trkpt lat="42.97901" lon="-0.34295">
        <ele>1658</ele>
        <time>2025-07-22T14:20:00Z</time>
      </trkpt>
      <trkpt lat="42.97894" lon="-0.34308">
        <ele>1657</ele>
        <time>2025-07-22T14:20:02Z</time>
      </trkpt>
      <trkpt lat="42.97877" lon="-0.34311">
        <ele>1655.4</ele>
        <time>2025-07-22T14:20:04Z</time>
      </trkpt>
      <trkpt lat="42.97862" lon="-0.34305">
        <ele>1654.2</ele>
        <time>2025-07-22T14:20:06Z</time>
      </trkpt>
      <trkpt lat="42.97846" lon="-0.34304">
        <ele>1653</ele>
        <time>2025-07-22T14:20:08Z</time>
      </trkpt>
      <trkpt lat="42.97829" lon="-0.34313">
        <ele>1651.6</ele>
        <time>2025-07-22T14:20:10Z</time>
      </trkpt>
      <trkpt lat="42.97822" lon="-0.3432">
        <ele>1651.4</ele>
        <time>2025-07-22T14:20:11Z</time>
      </trkpt>
      <trkpt lat="42.97819" lon="-0.34327">
        <ele>1650.8</ele>
        <time>2025-07-22T14:20:12Z</time>
      </trkpt>
      <trkpt lat="42.97816" lon="-0.34339">
        <ele>1650.6</ele>
        <time>2025-07-22T14:20:13Z</time>
      </trkpt>
      <trkpt lat="42.97813" lon="-0.34353">
        <ele>1650</ele>
        <time>2025-07-22T14:20:14Z</time>
      </trkpt>
      <trkpt lat="42.97805" lon="-0.34374">
        <ele>1648.6</ele>
        <time>2025-07-22T14:20:16Z</time>
      </trkpt>
      <trkpt lat="42.9779" lon="-0.34405">
        <ele>1647</ele>
        <time>2025-07-22T14:20:19Z</time>
      </trkpt>
      <trkpt lat="42.9778" lon="-0.34425">
        <ele>1645.8</ele>
        <time>2025-07-22T14:20:21Z</time>
      </trkpt>
      <trkpt lat="42.9777" lon="-0.34441">
        <ele>1644.2</ele>
        <time>2025-07-22T14:20:23Z</time>
      </trkpt>
      <trkpt lat="42.97763" lon="-0.34451">
        <ele>1643.2</ele>
        <time>2025-07-22T14:20:24Z</time>
      </trkpt>
      <trkpt lat="42.97751" lon="-0.34468">
        <ele>1642</ele>
        <time>2025-07-22T14:20:26Z</time>
      </trkpt>
      <trkpt lat="42.97743" lon="-0.34485">
        <ele>1641</ele>
        <time>2025-07-22T14:20:28Z</time>
      </trkpt>
      <trkpt lat="42.97733" lon="-0.34506">
        <ele>1639.8</ele>
        <time>2025-07-22T14:20:30Z</time>
      </trkpt>
      <trkpt lat="42.97723" lon="-0.34521">
        <ele>1638.4</ele>
        <time>2025-07-22T14:20:32Z</time>
      </trkpt>
      <trkpt lat="42.97716" lon="-0.34528">
        <ele>1637.4</ele>
        <time>2025-07-22T14:20:33Z</time>
      </trkpt>
      <trkpt lat="42.97708" lon="-0.34533">
        <ele>1637</ele>
        <time>2025-07-22T14:20:34Z</time>
      </trkpt>
      <trkpt lat="42.97691" lon="-0.34537">
        <ele>1635.8</ele>
        <time>2025-07-22T14:20:36Z</time>
      </trkpt>
      <trkpt lat="42.97674" lon="-0.34534">
        <ele>1633.8</ele>
        <time>2025-07-22T14:20:38Z</time>
      </trkpt>
      <trkpt lat="42.97665" lon="-0.3453">
        <ele>1633.4</ele>
        <time>2025-07-22T14:20:39Z</time>
      </trkpt>
      <trkpt lat="42.97657" lon="-0.34525">
        <ele>1632.2</ele>
        <time>2025-07-22T14:20:40Z</time>
      </trkpt>
      <trkpt lat="42.9765" lon="-0.3452">
        <ele>1631.6</ele>
        <time>2025-07-22T14:20:41Z</time>
      </trkpt>
      <trkpt lat="42.97643" lon="-0.34513">
        <ele>1630.4</ele>
        <time>2025-07-22T14:20:42Z</time>
      </trkpt>
      <trkpt lat="42.97638" lon="-0.34506">
        <ele>1630.2</ele>
        <time>2025-07-22T14:20:43Z</time>
      </trkpt>
      <trkpt lat="42.97627" lon="-0.34492">
        <ele>1628.4</ele>
        <time>2025-07-22T14:20:45Z</time>
      </trkpt>
      <trkpt lat="42.97621" lon="-0.34489">
        <ele>1628</ele>
        <time>2025-07-22T14:20:46Z</time>
      </trkpt>
      <trkpt lat="42.97615" lon="-0.34488">
        <ele>1627.2</ele>
        <time>2025-07-22T14:20:47Z</time>
      </trkpt>
      <trkpt lat="42.97609" lon="-0.34491">
        <ele>1626.4</ele>
        <time>2025-07-22T14:20:48Z</time>
      </trkpt>
      <trkpt lat="42.97603" lon="-0.34497">
        <ele>1625.6</ele>
        <time>2025-07-22T14:20:49Z</time>
      </trkpt>
      <trkpt lat="42.97595" lon="-0.34511">
        <ele>1624.6</ele>
        <time>2025-07-22T14:20:51Z</time>
      </trkpt>
      <trkpt lat="42.97591" lon="-0.34519">
        <ele>1623.6</ele>
        <time>2025-07-22T14:20:52Z</time>
      </trkpt>
      <trkpt lat="42.97586" lon="-0.34525">
        <ele>1623.2</ele>
        <time>2025-07-22T14:20:53Z</time>
      </trkpt>
      <trkpt lat="42.97579" lon="-0.3453">
        <ele>1622.4</ele>
        <time>2025-07-22T14:20:54Z</time>
      </trkpt>
      <trkpt lat="42.97565" lon="-0.34535">
        <ele>1621.8</ele>
        <time>2025-07-22T14:20:56Z</time>
      </trkpt>
      <trkpt lat="42.97558" lon="-0.34535">
        <ele>1621.2</ele>
        <time>2025-07-22T14:20:57Z</time>
      </trkpt>
      <trkpt lat="42.9755" lon="-0.34533">
        <ele>1620.4</ele>
        <time>2025-07-22T14:20:58Z</time>
      </trkpt>
      <trkpt lat="42.97538" lon="-0.34521">
        <ele>1619</ele>
        <time>2025-07-22T14:21:00Z</time>
      </trkpt>
      <trkpt lat="42.97528" lon="-0.34504">
        <ele>1618.2</ele>
        <time>2025-07-22T14:21:02Z</time>
      </trkpt>
      <trkpt lat="42.97523" lon="-0.34494">
        <ele>1616.8</ele>
        <time>2025-07-22T14:21:03Z</time>
      </trkpt>
      <trkpt lat="42.97517" lon="-0.34485">
        <ele>1616.4</ele>
        <time>2025-07-22T14:21:04Z</time>
      </trkpt>
      <trkpt lat="42.9751" lon="-0.34476">
        <ele>1615.6</ele>
        <time>2025-07-22T14:21:05Z</time>
      </trkpt>
      <trkpt lat="42.97497" lon="-0.34465">
        <ele>1614.2</ele>
        <time>2025-07-22T14:21:07Z</time>
      </trkpt>
      <trkpt lat="42.97486" lon="-0.34457">
        <ele>1613</ele>
        <time>2025-07-22T14:21:09Z</time>
      </trkpt>
      <trkpt lat="42.97482" lon="-0.34453">
        <ele>1612</ele>
        <time>2025-07-22T14:21:10Z</time>
      </trkpt>
      <trkpt lat="42.97478" lon="-0.34451">
        <ele>1611.6</ele>
        <time>2025-07-22T14:21:11Z</time>
      </trkpt>
      <trkpt lat="42.97474" lon="-0.34448">
        <ele>1610.6</ele>
        <time>2025-07-22T14:21:12Z</time>
      </trkpt>
      <trkpt lat="42.97467" lon="-0.34445">
        <ele>1609.4</ele>
        <time>2025-07-22T14:21:14Z</time>
      </trkpt>
      <trkpt lat="42.97458" lon="-0.34445">
        <ele>1608.4</ele>
        <time>2025-07-22T14:21:16Z</time>
      </trkpt>
      <trkpt lat="42.97453" lon="-0.34446">
        <ele>1607.6</ele>
        <time>2025-07-22T14:21:17Z</time>
      </trkpt>
      <trkpt lat="42.97447" lon="-0.34448">
        <ele>1607.2</ele>
        <time>2025-07-22T14:21:18Z</time>
      </trkpt>
      <trkpt lat="42.97437" lon="-0.34456">
        <ele>1606.2</ele>
        <time>2025-07-22T14:21:20Z</time>
      </trkpt>
      <trkpt lat="42.9743" lon="-0.34467">
        <ele>1605.2</ele>
        <time>2025-07-22T14:21:22Z</time>
      </trkpt>
      <trkpt lat="42.97428" lon="-0.34473">
        <ele>1604.8</ele>
        <time>2025-07-22T14:21:23Z</time>
      </trkpt>
      <trkpt lat="42.97425" lon="-0.34481">
        <ele>1604.2</ele>
        <time>2025-07-22T14:21:24Z</time>
      </trkpt>
      <trkpt lat="42.97423" lon="-0.34489">
        <ele>1603.8</ele>
        <time>2025-07-22T14:21:25Z</time>
      </trkpt>
      <trkpt lat="42.97418" lon="-0.34506">
        <ele>1602.8</ele>
        <time>2025-07-22T14:21:27Z</time>
      </trkpt>
      <trkpt lat="42.9741" lon="-0.34521">
        <ele>1602</ele>
        <time>2025-07-22T14:21:29Z</time>
      </trkpt>
      <trkpt lat="42.97403" lon="-0.34527">
        <ele>1601.6</ele>
        <time>2025-07-22T14:21:30Z</time>
      </trkpt>
      <trkpt lat="42.97397" lon="-0.34531">
        <ele>1601.2</ele>
        <time>2025-07-22T14:21:31Z</time>
      </trkpt>
      <trkpt lat="42.97389" lon="-0.34533">
        <ele>1600.6</ele>
        <time>2025-07-22T14:21:32Z</time>
      </trkpt>
      <trkpt lat="42.97382" lon="-0.34536">
        <ele>1600</ele>
        <time>2025-07-22T14:21:33Z</time>
      </trkpt>
      <trkpt lat="42.97376" lon="-0.3454">
        <ele>1599.2</ele>
        <time>2025-07-22T14:21:34Z</time>
      </trkpt>
      <trkpt lat="42.97371" lon="-0.34547">
        <ele>1598.6</ele>
        <time>2025-07-22T14:21:35Z</time>
      </trkpt>
      <trkpt lat="42.97367" lon="-0.34556">
        <ele>1597.8</ele>
        <time>2025-07-22T14:21:36Z</time>
      </trkpt>
      <trkpt lat="42.97366" lon="-0.34566">
        <ele>1597.4</ele>
        <time>2025-07-22T14:21:37Z</time>
      </trkpt>
      <trkpt lat="42.97366" lon="-0.34577">
        <ele>1597</ele>
        <time>2025-07-22T14:21:38Z</time>
      </trkpt>
      <trkpt lat="42.97367" lon="-0.34588">
        <ele>1596.4</ele>
        <time>2025-07-22T14:21:39Z</time>
      </trkpt>
      <trkpt lat="42.9737" lon="-0.3461">
        <ele>1594.8</ele>
        <time>2025-07-22T14:21:41Z</time>
      </trkpt>
      <trkpt lat="42.9737" lon="-0.3462">
        <ele>1594</ele>
        <time>2025-07-22T14:21:42Z</time>
      </trkpt>
      <trkpt lat="42.97369" lon="-0.3463">
        <ele>1593.2</ele>
        <time>2025-07-22T14:21:43Z</time>
      </trkpt>
      <trkpt lat="42.97359" lon="-0.34646">
        <ele>1591.4</ele>
        <time>2025-07-22T14:21:45Z</time>
      </trkpt>
      <trkpt lat="42.97344" lon="-0.34653">
        <ele>1590.6</ele>
        <time>2025-07-22T14:21:47Z</time>
      </trkpt>
      <trkpt lat="42.97335" lon="-0.34654">
        <ele>1589.6</ele>
        <time>2025-07-22T14:21:48Z</time>
      </trkpt>
      <trkpt lat="42.97318" lon="-0.34653">
        <ele>1588.2</ele>
        <time>2025-07-22T14:21:50Z</time>
      </trkpt>
      <trkpt lat="42.97301" lon="-0.3465">
        <ele>1586.8</ele>
        <time>2025-07-22T14:21:52Z</time>
      </trkpt>
      <trkpt lat="42.97284" lon="-0.34646">
        <ele>1584.8</ele>
        <time>2025-07-22T14:21:54Z</time>
      </trkpt>
      <trkpt lat="42.97271" lon="-0.34635">
        <ele>1583.2</ele>
        <time>2025-07-22T14:21:56Z</time>
      </trkpt>
      <trkpt lat="42.97267" lon="-0.34626">
        <ele>1582</ele>
        <time>2025-07-22T14:21:57Z</time>
      </trkpt>
      <trkpt lat="42.97265" lon="-0.34616">
        <ele>1581.4</ele>
        <time>2025-07-22T14:21:58Z</time>
      </trkpt>
      <trkpt lat="42.97263" lon="-0.34606">
        <ele>1580.4</ele>
        <time>2025-07-22T14:21:59Z</time>
      </trkpt>
      <trkpt lat="42.9726" lon="-0.34596">
        <ele>1580.2</ele>
        <time>2025-07-22T14:22:00Z</time>
      </trkpt>
      <trkpt lat="42.97256" lon="-0.34588">
        <ele>1578.8</ele>
        <time>2025-07-22T14:22:01Z</time>
      </trkpt>
      <trkpt lat="42.9725" lon="-0.34582">
        <ele>1577.6</ele>
        <time>2025-07-22T14:22:02Z</time>
      </trkpt>
      <trkpt lat="42.97233" lon="-0.34578">
        <ele>1576.4</ele>
        <time>2025-07-22T14:22:04Z</time>
      </trkpt>
      <trkpt lat="42.97225" lon="-0.34577">
        <ele>1575.8</ele>
        <time>2025-07-22T14:22:05Z</time>
      </trkpt>
      <trkpt lat="42.97217" lon="-0.34577">
        <ele>1574.6</ele>
        <time>2025-07-22T14:22:06Z</time>
      </trkpt>
      <trkpt lat="42.97209" lon="-0.34577">
        <ele>1574</ele>
        <time>2025-07-22T14:22:07Z</time>
      </trkpt>
      <trkpt lat="42.97202" lon="-0.3458">
        <ele>1573.2</ele>
        <time>2025-07-22T14:22:08Z</time>
      </trkpt>
      <trkpt lat="42.97196" lon="-0.34586">
        <ele>1572.4</ele>
        <time>2025-07-22T14:22:09Z</time>
      </trkpt>
      <trkpt lat="42.97187" lon="-0.34603">
        <ele>1571.6</ele>
        <time>2025-07-22T14:22:11Z</time>
      </trkpt>
      <trkpt lat="42.97187" lon="-0.34624">
        <ele>1570.2</ele>
        <time>2025-07-22T14:22:13Z</time>
      </trkpt>
      <trkpt lat="42.97187" lon="-0.34635">
        <ele>1569.6</ele>
        <time>2025-07-22T14:22:14Z</time>
      </trkpt>
      <trkpt lat="42.97187" lon="-0.34645">
        <ele>1568.6</ele>
        <time>2025-07-22T14:22:15Z</time>
      </trkpt>
      <trkpt lat="42.97186" lon="-0.34663">
        <ele>1567.2</ele>
        <time>2025-07-22T14:22:17Z</time>
      </trkpt>
      <trkpt lat="42.97184" lon="-0.34671">
        <ele>1566.6</ele>
        <time>2025-07-22T14:22:18Z</time>
      </trkpt>
      <trkpt lat="42.97181" lon="-0.34677">
        <ele>1565.8</ele>
        <time>2025-07-22T14:22:19Z</time>
      </trkpt>
      <trkpt lat="42.97171" lon="-0.34682">
        <ele>1564.8</ele>
        <time>2025-07-22T14:22:21Z</time>
      </trkpt>
      <trkpt lat="42.97162" lon="-0.34675">
        <ele>1563.2</ele>
        <time>2025-07-22T14:22:23Z</time>
      </trkpt>
      <trkpt lat="42.97158" lon="-0.34658">
        <ele>1562.2</ele>
        <time>2025-07-22T14:22:25Z</time>
      </trkpt>
      <trkpt lat="42.97158" lon="-0.34648">
        <ele>1562</ele>
        <time>2025-07-22T14:22:26Z</time>
      </trkpt>
      <trkpt lat="42.97158" lon="-0.34637">
        <ele>1561.4</ele>
        <time>2025-07-22T14:22:27Z</time>
      </trkpt>
      <trkpt lat="42.97157" lon="-0.34626">
        <ele>1561.2</ele>
        <time>2025-07-22T14:22:28Z</time>
      </trkpt>
      <trkpt lat="42.97152" lon="-0.34605">
        <ele>1560.2</ele>
        <time>2025-07-22T14:22:30Z</time>
      </trkpt>
      <trkpt lat="42.97146" lon="-0.34586">
        <ele>1558.6</ele>
        <time>2025-07-22T14:22:32Z</time>
      </trkpt>
      <trkpt lat="42.97134" lon="-0.34572">
        <ele>1557.8</ele>
        <time>2025-07-22T14:22:34Z</time>
      </trkpt>
      <trkpt lat="42.9711" lon="-0.34558">
        <ele>1555.8</ele>
        <time>2025-07-22T14:22:37Z</time>
      </trkpt>
      <trkpt lat="42.97102" lon="-0.34552">
        <ele>1555.4</ele>
        <time>2025-07-22T14:22:38Z</time>
      </trkpt>
      <trkpt lat="42.97094" lon="-0.34547">
        <ele>1554.4</ele>
        <time>2025-07-22T14:22:39Z</time>
      </trkpt>
      <trkpt lat="42.97086" lon="-0.34538">
        <ele>1554</ele>
        <time>2025-07-22T14:22:40Z</time>
      </trkpt>
      <trkpt lat="42.97081" lon="-0.34529">
        <ele>1553</ele>
        <time>2025-07-22T14:22:41Z</time>
      </trkpt>
      <trkpt lat="42.97077" lon="-0.34519">
        <ele>1552.2</ele>
        <time>2025-07-22T14:22:42Z</time>
      </trkpt>
      <trkpt lat="42.97073" lon="-0.34508">
        <ele>1551.2</ele>
        <time>2025-07-22T14:22:43Z</time>
      </trkpt>
      <trkpt lat="42.97063" lon="-0.34485">
        <ele>1550.2</ele>
        <time>2025-07-22T14:22:45Z</time>
      </trkpt>
      <trkpt lat="42.97057" lon="-0.34474">
        <ele>1549</ele>
        <time>2025-07-22T14:22:46Z</time>
      </trkpt>
      <trkpt lat="42.97047" lon="-0.34453">
        <ele>1547.6</ele>
        <time>2025-07-22T14:22:48Z</time>
      </trkpt>
      <trkpt lat="42.97036" lon="-0.34431">
        <ele>1546.2</ele>
        <time>2025-07-22T14:22:50Z</time>
      </trkpt>
      <trkpt lat="42.97031" lon="-0.34421">
        <ele>1545.2</ele>
        <time>2025-07-22T14:22:51Z</time>
      </trkpt>
      <trkpt lat="42.97025" lon="-0.34412">
        <ele>1544.8</ele>
        <time>2025-07-22T14:22:52Z</time>
      </trkpt>
      <trkpt lat="42.97019" lon="-0.34404">
        <ele>1543.6</ele>
        <time>2025-07-22T14:22:53Z</time>
      </trkpt>
      <trkpt lat="42.97012" lon="-0.34397">
        <ele>1542.8</ele>
        <time>2025-07-22T14:22:54Z</time>
      </trkpt>
      <trkpt lat="42.97005" lon="-0.34391">
        <ele>1541.6</ele>
        <time>2025-07-22T14:22:55Z</time>
      </trkpt>
      <trkpt lat="42.96998" lon="-0.34386">
        <ele>1540.6</ele>
        <time>2025-07-22T14:22:56Z</time>
      </trkpt>
      <trkpt lat="42.96992" lon="-0.3438">
        <ele>1540.2</ele>
        <time>2025-07-22T14:22:57Z</time>
      </trkpt>
      <trkpt lat="42.96987" lon="-0.34372">
        <ele>1539</ele>
        <time>2025-07-22T14:22:58Z</time>
      </trkpt>
      <trkpt lat="42.96983" lon="-0.34363">
        <ele>1538.6</ele>
        <time>2025-07-22T14:22:59Z</time>
      </trkpt>
      <trkpt lat="42.96982" lon="-0.34352">
        <ele>1537.6</ele>
        <time>2025-07-22T14:23:00Z</time>
      </trkpt>
      <trkpt lat="42.96983" lon="-0.3434">
        <ele>1537</ele>
        <time>2025-07-22T14:23:01Z</time>
      </trkpt>
      <trkpt lat="42.96984" lon="-0.34328">
        <ele>1536.2</ele>
        <time>2025-07-22T14:23:02Z</time>
      </trkpt>
      <trkpt lat="42.96987" lon="-0.34307">
        <ele>1535</ele>
        <time>2025-07-22T14:23:04Z</time>
      </trkpt>
      <trkpt lat="42.96988" lon="-0.34295">
        <ele>1533.8</ele>
        <time>2025-07-22T14:23:05Z</time>
      </trkpt>
      <trkpt lat="42.96988" lon="-0.34283">
        <ele>1533.4</ele>
        <time>2025-07-22T14:23:06Z</time>
      </trkpt>
      <trkpt lat="42.96986" lon="-0.34274">
        <ele>1532.6</ele>
        <time>2025-07-22T14:23:07Z</time>
      </trkpt>
      <trkpt lat="42.96977" lon="-0.34249">
        <ele>1530.4</ele>
        <time>2025-07-22T14:23:09Z</time>
      </trkpt>
      <trkpt lat="42.9697" lon="-0.34229">
        <ele>1529.4</ele>
        <time>2025-07-22T14:23:11Z</time>
      </trkpt>
      <trkpt lat="42.9696" lon="-0.34207">
        <ele>1527.8</ele>
        <time>2025-07-22T14:23:13Z</time>
      </trkpt>
      <trkpt lat="42.96955" lon="-0.34196">
        <ele>1526.6</ele>
        <time>2025-07-22T14:23:14Z</time>
      </trkpt>
      <trkpt lat="42.96944" lon="-0.34176">
        <ele>1524.6</ele>
        <time>2025-07-22T14:23:16Z</time>
      </trkpt>
      <trkpt lat="42.96939" lon="-0.34166">
        <ele>1523.4</ele>
        <time>2025-07-22T14:23:17Z</time>
      </trkpt>
      <trkpt lat="42.9693" lon="-0.34148">
        <ele>1521.6</ele>
        <time>2025-07-22T14:23:19Z</time>
      </trkpt>
      <trkpt lat="42.96927" lon="-0.34139">
        <ele>1520.6</ele>
        <time>2025-07-22T14:23:20Z</time>
      </trkpt>
      <trkpt lat="42.96926" lon="-0.34129">
        <ele>1519.2</ele>
        <time>2025-07-22T14:23:21Z</time>
      </trkpt>
      <trkpt lat="42.96929" lon="-0.34109">
        <ele>1517.6</ele>
        <time>2025-07-22T14:23:23Z</time>
      </trkpt>
      <trkpt lat="42.96938" lon="-0.3409">
        <ele>1516.4</ele>
        <time>2025-07-22T14:23:25Z</time>
      </trkpt>
      <trkpt lat="42.96941" lon="-0.34081">
        <ele>1515.6</ele>
        <time>2025-07-22T14:23:26Z</time>
      </trkpt>
      <trkpt lat="42.96943" lon="-0.34071">
        <ele>1515.2</ele>
        <time>2025-07-22T14:23:27Z</time>
      </trkpt>
      <trkpt lat="42.96942" lon="-0.3406">
        <ele>1514.8</ele>
        <time>2025-07-22T14:23:28Z</time>
      </trkpt>
      <trkpt lat="42.96939" lon="-0.3405">
        <ele>1514.2</ele>
        <time>2025-07-22T14:23:29Z</time>
      </trkpt>
      <trkpt lat="42.9693" lon="-0.34031">
        <ele>1512.2</ele>
        <time>2025-07-22T14:23:31Z</time>
      </trkpt>
      <trkpt lat="42.96923" lon="-0.34007">
        <ele>1510.2</ele>
        <time>2025-07-22T14:23:33Z</time>
      </trkpt>
      <trkpt lat="42.96918" lon="-0.33981">
        <ele>1508.8</ele>
        <time>2025-07-22T14:23:35Z</time>
      </trkpt>
      <trkpt lat="42.9691" lon="-0.33956">
        <ele>1507.4</ele>
        <time>2025-07-22T14:23:37Z</time>
      </trkpt>
      <trkpt lat="42.96906" lon="-0.33943">
        <ele>1506.4</ele>
        <time>2025-07-22T14:23:38Z</time>
      </trkpt>
      <trkpt lat="42.96903" lon="-0.3393">
        <ele>1505.8</ele>
        <time>2025-07-22T14:23:39Z</time>
      </trkpt>
      <trkpt lat="42.96902" lon="-0.33917">
        <ele>1504.8</ele>
        <time>2025-07-22T14:23:40Z</time>
      </trkpt>
      <trkpt lat="42.96901" lon="-0.33903">
        <ele>1504.2</ele>
        <time>2025-07-22T14:23:41Z</time>
      </trkpt>
      <trkpt lat="42.969" lon="-0.3389">
        <ele>1503.2</ele>
        <time>2025-07-22T14:23:42Z</time>
      </trkpt>
      <trkpt lat="42.96898" lon="-0.33874">
        <ele>1502.2</ele>
        <time>2025-07-22T14:23:43Z</time>
      </trkpt>
      <trkpt lat="42.96892" lon="-0.33849">
        <ele>1500.6</ele>
        <time>2025-07-22T14:23:45Z</time>
      </trkpt>
      <trkpt lat="42.96887" lon="-0.33827">
        <ele>1499</ele>
        <time>2025-07-22T14:23:47Z</time>
      </trkpt>
      <trkpt lat="42.96884" lon="-0.33802">
        <ele>1497.4</ele>
        <time>2025-07-22T14:23:49Z</time>
      </trkpt>
      <trkpt lat="42.96883" lon="-0.33791">
        <ele>1496</ele>
        <time>2025-07-22T14:23:50Z</time>
      </trkpt>
      <trkpt lat="42.96884" lon="-0.33783">
        <ele>1495.4</ele>
        <time>2025-07-22T14:23:51Z</time>
      </trkpt>
      <trkpt lat="42.96886" lon="-0.33774">
        <ele>1494.2</ele>
        <time>2025-07-22T14:23:52Z</time>
      </trkpt>
      <trkpt lat="42.96889" lon="-0.33763">
        <ele>1493.6</ele>
        <time>2025-07-22T14:23:53Z</time>
      </trkpt>
      <trkpt lat="42.96892" lon="-0.33753">
        <ele>1492.2</ele>
        <time>2025-07-22T14:23:54Z</time>
      </trkpt>
      <trkpt lat="42.9689" lon="-0.33736">
        <ele>1490.6</ele>
        <time>2025-07-22T14:23:56Z</time>
      </trkpt>
      <trkpt lat="42.96887" lon="-0.33727">
        <ele>1489.4</ele>
        <time>2025-07-22T14:23:57Z</time>
      </trkpt>
      <trkpt lat="42.96885" lon="-0.33718">
        <ele>1489</ele>
        <time>2025-07-22T14:23:58Z</time>
      </trkpt>
      <trkpt lat="42.96885" lon="-0.33708">
        <ele>1488</ele>
        <time>2025-07-22T14:23:59Z</time>
      </trkpt>
      <trkpt lat="42.96887" lon="-0.337">
        <ele>1487.4</ele>
        <time>2025-07-22T14:24:00Z</time>
      </trkpt>
      <trkpt lat="42.96889" lon="-0.33692">
        <ele>1486.4</ele>
        <time>2025-07-22T14:24:01Z</time>
      </trkpt>
      <trkpt lat="42.9689" lon="-0.33684">
        <ele>1485.8</ele>
        <time>2025-07-22T14:24:02Z</time>
      </trkpt>
      <trkpt lat="42.96889" lon="-0.33676">
        <ele>1485</ele>
        <time>2025-07-22T14:24:03Z</time>
      </trkpt>
      <trkpt lat="42.96884" lon="-0.33668">
        <ele>1484.4</ele>
        <time>2025-07-22T14:24:04Z</time>
      </trkpt>
      <trkpt lat="42.96879" lon="-0.33662">
        <ele>1484</ele>
        <time>2025-07-22T14:24:05Z</time>
      </trkpt>
      <trkpt lat="42.96871" lon="-0.33659">
        <ele>1483.2</ele>
        <time>2025-07-22T14:24:06Z</time>
      </trkpt>
      <trkpt lat="42.96864" lon="-0.33658">
        <ele>1482.6</ele>
        <time>2025-07-22T14:24:07Z</time>
      </trkpt>
      <trkpt lat="42.96848" lon="-0.33656">
        <ele>1481</ele>
        <time>2025-07-22T14:24:09Z</time>
      </trkpt>
      <trkpt lat="42.9684" lon="-0.33654">
        <ele>1480</ele>
        <time>2025-07-22T14:24:10Z</time>
      </trkpt>
      <trkpt lat="42.96833" lon="-0.3365">
        <ele>1479.4</ele>
        <time>2025-07-22T14:24:11Z</time>
      </trkpt>
      <trkpt lat="42.96825" lon="-0.33644">
        <ele>1478.8</ele>
        <time>2025-07-22T14:24:12Z</time>
      </trkpt>
      <trkpt lat="42.96811" lon="-0.33631">
        <ele>1477.4</ele>
        <time>2025-07-22T14:24:14Z</time>
      </trkpt>
      <trkpt lat="42.96806" lon="-0.33623">
        <ele>1476.4</ele>
        <time>2025-07-22T14:24:15Z</time>
      </trkpt>
      <trkpt lat="42.96796" lon="-0.33604">
        <ele>1475</ele>
        <time>2025-07-22T14:24:17Z</time>
      </trkpt>
      <trkpt lat="42.96791" lon="-0.33598">
        <ele>1473.8</ele>
        <time>2025-07-22T14:24:18Z</time>
      </trkpt>
      <trkpt lat="42.96781" lon="-0.33593">
        <ele>1473.2</ele>
        <time>2025-07-22T14:24:19Z</time>
      </trkpt>
      <trkpt lat="42.96772" lon="-0.3359">
        <ele>1472.2</ele>
        <time>2025-07-22T14:24:20Z</time>
      </trkpt>
      <trkpt lat="42.96764" lon="-0.33587">
        <ele>1471.6</ele>
        <time>2025-07-22T14:24:21Z</time>
      </trkpt>
      <trkpt lat="42.96756" lon="-0.33582">
        <ele>1470.4</ele>
        <time>2025-07-22T14:24:22Z</time>
      </trkpt>
      <trkpt lat="42.96749" lon="-0.33575">
        <ele>1469.6</ele>
        <time>2025-07-22T14:24:23Z</time>
      </trkpt>
      <trkpt lat="42.96741" lon="-0.33568">
        <ele>1468.8</ele>
        <time>2025-07-22T14:24:24Z</time>
      </trkpt>
      <trkpt lat="42.96732" lon="-0.33562">
        <ele>1468.2</ele>
        <time>2025-07-22T14:24:25Z</time>
      </trkpt>
      <trkpt lat="42.96723" lon="-0.33559">
        <ele>1467.4</ele>
        <time>2025-07-22T14:24:26Z</time>
      </trkpt>
      <trkpt lat="42.96714" lon="-0.33558">
        <ele>1466.6</ele>
        <time>2025-07-22T14:24:27Z</time>
      </trkpt>
      <trkpt lat="42.96704" lon="-0.33558">
        <ele>1466.2</ele>
        <time>2025-07-22T14:24:28Z</time>
      </trkpt>
      <trkpt lat="42.96695" lon="-0.33556">
        <ele>1465</ele>
        <time>2025-07-22T14:24:29Z</time>
      </trkpt>
      <trkpt lat="42.96686" lon="-0.33553">
        <ele>1464</ele>
        <time>2025-07-22T14:24:30Z</time>
      </trkpt>
      <trkpt lat="42.96677" lon="-0.33549">
        <ele>1463.6</ele>
        <time>2025-07-22T14:24:31Z</time>
      </trkpt>
      <trkpt lat="42.96669" lon="-0.33545">
        <ele>1462.6</ele>
        <time>2025-07-22T14:24:32Z</time>
      </trkpt>
      <trkpt lat="42.96661" lon="-0.33539">
        <ele>1462</ele>
        <time>2025-07-22T14:24:33Z</time>
      </trkpt>
      <trkpt lat="42.96654" lon="-0.33533">
        <ele>1460.4</ele>
        <time>2025-07-22T14:24:34Z</time>
      </trkpt>
      <trkpt lat="42.96648" lon="-0.33527">
        <ele>1459.8</ele>
        <time>2025-07-22T14:24:35Z</time>
      </trkpt>
      <trkpt lat="42.96643" lon="-0.33519">
        <ele>1458.8</ele>
        <time>2025-07-22T14:24:36Z</time>
      </trkpt>
      <trkpt lat="42.96641" lon="-0.3351">
        <ele>1457.4</ele>
        <time>2025-07-22T14:24:37Z</time>
      </trkpt>
      <trkpt lat="42.96639" lon="-0.33489">
        <ele>1456.2</ele>
        <time>2025-07-22T14:24:39Z</time>
      </trkpt>
      <trkpt lat="42.96637" lon="-0.33478">
        <ele>1456</ele>
        <time>2025-07-22T14:24:40Z</time>
      </trkpt>
      <trkpt lat="42.96635" lon="-0.33467">
        <ele>1455</ele>
        <time>2025-07-22T14:24:41Z</time>
      </trkpt>
      <trkpt lat="42.96631" lon="-0.33458">
        <ele>1454.8</ele>
        <time>2025-07-22T14:24:42Z</time>
      </trkpt>
      <trkpt lat="42.96622" lon="-0.33446">
        <ele>1453.4</ele>
        <time>2025-07-22T14:24:44Z</time>
      </trkpt>
      <trkpt lat="42.96607" lon="-0.3344">
        <ele>1452.4</ele>
        <time>2025-07-22T14:24:46Z</time>
      </trkpt>
      <trkpt lat="42.966" lon="-0.33441">
        <ele>1452</ele>
        <time>2025-07-22T14:24:47Z</time>
      </trkpt>
      <trkpt lat="42.96584" lon="-0.33446">
        <ele>1450.6</ele>
        <time>2025-07-22T14:24:49Z</time>
      </trkpt>
      <trkpt lat="42.9657" lon="-0.3345">
        <ele>1449.4</ele>
        <time>2025-07-22T14:24:51Z</time>
      </trkpt>
      <trkpt lat="42.96555" lon="-0.33445">
        <ele>1448</ele>
        <time>2025-07-22T14:24:53Z</time>
      </trkpt>
      <trkpt lat="42.96548" lon="-0.3344">
        <ele>1447.4</ele>
        <time>2025-07-22T14:24:54Z</time>
      </trkpt>
      <trkpt lat="42.96542" lon="-0.33436">
        <ele>1446.4</ele>
        <time>2025-07-22T14:24:55Z</time>
      </trkpt>
      <trkpt lat="42.96531" lon="-0.33415">
        <ele>1444.4</ele>
        <time>2025-07-22T14:24:57Z</time>
      </trkpt>
      <trkpt lat="42.96526" lon="-0.33393">
        <ele>1443.2</ele>
        <time>2025-07-22T14:24:59Z</time>
      </trkpt>
      <trkpt lat="42.96521" lon="-0.33376">
        <ele>1441.6</ele>
        <time>2025-07-22T14:25:00Z</time>
      </trkpt>
      <trkpt lat="42.96513" lon="-0.33348">
        <ele>1440</ele>
        <time>2025-07-22T14:25:02Z</time>
      </trkpt>
      <trkpt lat="42.96511" lon="-0.33335">
        <ele>1438.8</ele>
        <time>2025-07-22T14:25:03Z</time>
      </trkpt>
      <trkpt lat="42.9651" lon="-0.33324">
        <ele>1438.2</ele>
        <time>2025-07-22T14:25:04Z</time>
      </trkpt>
      <trkpt lat="42.96509" lon="-0.33311">
        <ele>1437.4</ele>
        <time>2025-07-22T14:25:05Z</time>
      </trkpt>
      <trkpt lat="42.96508" lon="-0.33296">
        <ele>1436.8</ele>
        <time>2025-07-22T14:25:06Z</time>
      </trkpt>
      <trkpt lat="42.96505" lon="-0.33283">
        <ele>1435.6</ele>
        <time>2025-07-22T14:25:07Z</time>
      </trkpt>
      <trkpt lat="42.96503" lon="-0.33271">
        <ele>1435</ele>
        <time>2025-07-22T14:25:08Z</time>
      </trkpt>
      <trkpt lat="42.96501" lon="-0.33261">
        <ele>1434</ele>
        <time>2025-07-22T14:25:09Z</time>
      </trkpt>
      <trkpt lat="42.965" lon="-0.33247">
        <ele>1432.8</ele>
        <time>2025-07-22T14:25:10Z</time>
      </trkpt>
      <trkpt lat="42.96497" lon="-0.33235">
        <ele>1432.4</ele>
        <time>2025-07-22T14:25:11Z</time>
      </trkpt>
      <trkpt lat="42.96492" lon="-0.33225">
        <ele>1431.4</ele>
        <time>2025-07-22T14:25:12Z</time>
      </trkpt>
      <trkpt lat="42.96482" lon="-0.33205">
        <ele>1429.4</ele>
        <time>2025-07-22T14:25:14Z</time>
      </trkpt>
      <trkpt lat="42.96476" lon="-0.33195">
        <ele>1428.6</ele>
        <time>2025-07-22T14:25:15Z</time>
      </trkpt>
      <trkpt lat="42.96469" lon="-0.33187">
        <ele>1427.6</ele>
        <time>2025-07-22T14:25:16Z</time>
      </trkpt>
      <trkpt lat="42.96456" lon="-0.3317">
        <ele>1426.2</ele>
        <time>2025-07-22T14:25:18Z</time>
      </trkpt>
      <trkpt lat="42.96448" lon="-0.33162">
        <ele>1425.4</ele>
        <time>2025-07-22T14:25:19Z</time>
      </trkpt>
      <trkpt lat="42.96439" lon="-0.33155">
        <ele>1424.8</ele>
        <time>2025-07-22T14:25:20Z</time>
      </trkpt>
      <trkpt lat="42.96429" lon="-0.3315">
        <ele>1423.2</ele>
        <time>2025-07-22T14:25:21Z</time>
      </trkpt>
      <trkpt lat="42.96419" lon="-0.33146">
        <ele>1422.6</ele>
        <time>2025-07-22T14:25:22Z</time>
      </trkpt>
      <trkpt lat="42.9641" lon="-0.33142">
        <ele>1421.6</ele>
        <time>2025-07-22T14:25:23Z</time>
      </trkpt>
      <trkpt lat="42.96401" lon="-0.33137">
        <ele>1420.4</ele>
        <time>2025-07-22T14:25:24Z</time>
      </trkpt>
      <trkpt lat="42.96393" lon="-0.33131">
        <ele>1419.8</ele>
        <time>2025-07-22T14:25:25Z</time>
      </trkpt>
      <trkpt lat="42.96385" lon="-0.33127">
        <ele>1418.6</ele>
        <time>2025-07-22T14:25:26Z</time>
      </trkpt>
      <trkpt lat="42.96376" lon="-0.33124">
        <ele>1418</ele>
        <time>2025-07-22T14:25:27Z</time>
      </trkpt>
      <trkpt lat="42.96368" lon="-0.33121">
        <ele>1416.6</ele>
        <time>2025-07-22T14:25:28Z</time>
      </trkpt>
      <trkpt lat="42.96362" lon="-0.33117">
        <ele>1416</ele>
        <time>2025-07-22T14:25:29Z</time>
      </trkpt>
      <trkpt lat="42.96354" lon="-0.33109">
        <ele>1414.4</ele>
        <time>2025-07-22T14:25:30Z</time>
      </trkpt>
      <trkpt lat="42.96348" lon="-0.331">
        <ele>1413.2</ele>
        <time>2025-07-22T14:25:31Z</time>
      </trkpt>
      <trkpt lat="42.96344" lon="-0.3309">
        <ele>1412.6</ele>
        <time>2025-07-22T14:25:32Z</time>
      </trkpt>
      <trkpt lat="42.96341" lon="-0.33079">
        <ele>1411.4</ele>
        <time>2025-07-22T14:25:33Z</time>
      </trkpt>
      <trkpt lat="42.96337" lon="-0.33069">
        <ele>1410.8</ele>
        <time>2025-07-22T14:25:34Z</time>
      </trkpt>
      <trkpt lat="42.96331" lon="-0.33059">
        <ele>1409.8</ele>
        <time>2025-07-22T14:25:35Z</time>
      </trkpt>
      <trkpt lat="42.96322" lon="-0.33051">
        <ele>1409.2</ele>
        <time>2025-07-22T14:25:36Z</time>
      </trkpt>
      <trkpt lat="42.96313" lon="-0.33044">
        <ele>1408</ele>
        <time>2025-07-22T14:25:37Z</time>
      </trkpt>
      <trkpt lat="42.96302" lon="-0.3304">
        <ele>1407</ele>
        <time>2025-07-22T14:25:38Z</time>
      </trkpt>
      <trkpt lat="42.96292" lon="-0.33037">
        <ele>1406.4</ele>
        <time>2025-07-22T14:25:39Z</time>
      </trkpt>
      <trkpt lat="42.96281" lon="-0.33037">
        <ele>1405.6</ele>
        <time>2025-07-22T14:25:40Z</time>
      </trkpt>
      <trkpt lat="42.96262" lon="-0.33044">
        <ele>1403.6</ele>
        <time>2025-07-22T14:25:42Z</time>
      </trkpt>
      <trkpt lat="42.96253" lon="-0.3305">
        <ele>1402.2</ele>
        <time>2025-07-22T14:25:43Z</time>
      </trkpt>
      <trkpt lat="42.96235" lon="-0.3306">
        <ele>1400.4</ele>
        <time>2025-07-22T14:25:45Z</time>
      </trkpt>
      <trkpt lat="42.96216" lon="-0.33071">
        <ele>1398</ele>
        <time>2025-07-22T14:25:47Z</time>
      </trkpt>
      <trkpt lat="42.96197" lon="-0.33084">
        <ele>1396.8</ele>
        <time>2025-07-22T14:25:49Z</time>
      </trkpt>
      <trkpt lat="42.96187" lon="-0.33091">
        <ele>1395.2</ele>
        <time>2025-07-22T14:25:50Z</time>
      </trkpt>
      <trkpt lat="42.96178" lon="-0.33096">
        <ele>1394.6</ele>
        <time>2025-07-22T14:25:51Z</time>
      </trkpt>
      <trkpt lat="42.96169" lon="-0.331">
        <ele>1393.2</ele>
        <time>2025-07-22T14:25:52Z</time>
      </trkpt>
      <trkpt lat="42.96159" lon="-0.33104">
        <ele>1392.8</ele>
        <time>2025-07-22T14:25:53Z</time>
      </trkpt>
      <trkpt lat="42.9615" lon="-0.33108">
        <ele>1391</ele>
        <time>2025-07-22T14:25:54Z</time>
      </trkpt>
      <trkpt lat="42.96132" lon="-0.33112">
        <ele>1388.8</ele>
        <time>2025-07-22T14:25:56Z</time>
      </trkpt>
      <trkpt lat="42.96124" lon="-0.33112">
        <ele>1386.8</ele>
        <time>2025-07-22T14:25:57Z</time>
      </trkpt>
      <trkpt lat="42.96109" lon="-0.3311">
        <ele>1384.8</ele>
        <time>2025-07-22T14:25:59Z</time>
      </trkpt>
      <trkpt lat="42.96093" lon="-0.33115">
        <ele>1383</ele>
        <time>2025-07-22T14:26:01Z</time>
      </trkpt>
      <trkpt lat="42.96078" lon="-0.33122">
        <ele>1381.4</ele>
        <time>2025-07-22T14:26:03Z</time>
      </trkpt>
      <trkpt lat="42.96061" lon="-0.33125">
        <ele>1380.4</ele>
        <time>2025-07-22T14:26:05Z</time>
      </trkpt>
      <trkpt lat="42.96053" lon="-0.33127">
        <ele>1379.4</ele>
        <time>2025-07-22T14:26:06Z</time>
      </trkpt>
      <trkpt lat="42.96045" lon="-0.33131">
        <ele>1379.2</ele>
        <time>2025-07-22T14:26:07Z</time>
      </trkpt>
      <trkpt lat="42.96038" lon="-0.33137">
        <ele>1378.6</ele>
        <time>2025-07-22T14:26:08Z</time>
      </trkpt>
      <trkpt lat="42.96024" lon="-0.33152">
        <ele>1377.2</ele>
        <time>2025-07-22T14:26:10Z</time>
      </trkpt>
      <trkpt lat="42.96018" lon="-0.3316">
        <ele>1376</ele>
        <time>2025-07-22T14:26:11Z</time>
      </trkpt>
      <trkpt lat="42.96012" lon="-0.33167">
        <ele>1375.6</ele>
        <time>2025-07-22T14:26:12Z</time>
      </trkpt>
      <trkpt lat="42.96007" lon="-0.33174">
        <ele>1375</ele>
        <time>2025-07-22T14:26:13Z</time>
      </trkpt>
      <trkpt lat="42.95998" lon="-0.33186">
        <ele>1373.4</ele>
        <time>2025-07-22T14:26:15Z</time>
      </trkpt>
      <trkpt lat="42.95995" lon="-0.33195">
        <ele>1372.4</ele>
        <time>2025-07-22T14:26:16Z</time>
      </trkpt>
      <trkpt lat="42.95993" lon="-0.33206">
        <ele>1372</ele>
        <time>2025-07-22T14:26:17Z</time>
      </trkpt>
      <trkpt lat="42.95991" lon="-0.33216">
        <ele>1371</ele>
        <time>2025-07-22T14:26:18Z</time>
      </trkpt>
      <trkpt lat="42.9599" lon="-0.33225">
        <ele>1370.2</ele>
        <time>2025-07-22T14:26:19Z</time>
      </trkpt>
      <trkpt lat="42.95987" lon="-0.33234">
        <ele>1369.4</ele>
        <time>2025-07-22T14:26:20Z</time>
      </trkpt>
      <trkpt lat="42.95984" lon="-0.33242">
        <ele>1368.8</ele>
        <time>2025-07-22T14:26:21Z</time>
      </trkpt>
      <trkpt lat="42.95979" lon="-0.33248">
        <ele>1368</ele>
        <time>2025-07-22T14:26:22Z</time>
      </trkpt>
      <trkpt lat="42.95974" lon="-0.33254">
        <ele>1367.2</ele>
        <time>2025-07-22T14:26:23Z</time>
      </trkpt>
      <trkpt lat="42.95962" lon="-0.33264">
        <ele>1365.8</ele>
        <time>2025-07-22T14:26:25Z</time>
      </trkpt>
      <trkpt lat="42.95949" lon="-0.33269">
        <ele>1364.2</ele>
        <time>2025-07-22T14:26:27Z</time>
      </trkpt>
      <trkpt lat="42.95933" lon="-0.33268">
        <ele>1362.8</ele>
        <time>2025-07-22T14:26:29Z</time>
      </trkpt>
      <trkpt lat="42.95919" lon="-0.33267">
        <ele>1362</ele>
        <time>2025-07-22T14:26:31Z</time>
      </trkpt>
      <trkpt lat="42.95911" lon="-0.33268">
        <ele>1361.4</ele>
        <time>2025-07-22T14:26:32Z</time>
      </trkpt>
      <trkpt lat="42.95904" lon="-0.3327">
        <ele>1361</ele>
        <time>2025-07-22T14:26:33Z</time>
      </trkpt>
      <trkpt lat="42.9589" lon="-0.33273">
        <ele>1360.2</ele>
        <time>2025-07-22T14:26:35Z</time>
      </trkpt>
      <trkpt lat="42.95883" lon="-0.33274">
        <ele>1359.6</ele>
        <time>2025-07-22T14:26:36Z</time>
      </trkpt>
      <trkpt lat="42.95876" lon="-0.33272">
        <ele>1359.2</ele>
        <time>2025-07-22T14:26:37Z</time>
      </trkpt>
      <trkpt lat="42.9587" lon="-0.3327">
        <ele>1358.8</ele>
        <time>2025-07-22T14:26:38Z</time>
      </trkpt>
      <trkpt lat="42.95864" lon="-0.33266">
        <ele>1358</ele>
        <time>2025-07-22T14:26:39Z</time>
      </trkpt>
      <trkpt lat="42.95859" lon="-0.33261">
        <ele>1357.4</ele>
        <time>2025-07-22T14:26:40Z</time>
      </trkpt>
      <trkpt lat="42.95854" lon="-0.33256">
        <ele>1356.4</ele>
        <time>2025-07-22T14:26:41Z</time>
      </trkpt>
      <trkpt lat="42.9585" lon="-0.3325">
        <ele>1356</ele>
        <time>2025-07-22T14:26:42Z</time>
      </trkpt>
      <trkpt lat="42.95846" lon="-0.33245">
        <ele>1355.2</ele>
        <time>2025-07-22T14:26:43Z</time>
      </trkpt>
      <trkpt lat="42.95841" lon="-0.33242">
        <ele>1353.8</ele>
        <time>2025-07-22T14:26:44Z</time>
      </trkpt>
      <trkpt lat="42.95836" lon="-0.3324">
        <ele>1353.4</ele>
        <time>2025-07-22T14:26:45Z</time>
      </trkpt>
      <trkpt lat="42.95832" lon="-0.33239">
        <ele>1352.4</ele>
        <time>2025-07-22T14:26:46Z</time>
      </trkpt>
      <trkpt lat="42.95823" lon="-0.3324">
        <ele>1351</ele>
        <time>2025-07-22T14:26:48Z</time>
      </trkpt>
      <trkpt lat="42.95819" lon="-0.33242">
        <ele>1350.4</ele>
        <time>2025-07-22T14:26:49Z</time>
      </trkpt>
      <trkpt lat="42.95815" lon="-0.33245">
        <ele>1349.6</ele>
        <time>2025-07-22T14:26:50Z</time>
      </trkpt>
      <trkpt lat="42.95811" lon="-0.33254">
        <ele>1348.8</ele>
        <time>2025-07-22T14:26:52Z</time>
      </trkpt>
      <trkpt lat="42.95811" lon="-0.33259">
        <ele>1348</ele>
        <time>2025-07-22T14:26:53Z</time>
      </trkpt>
      <trkpt lat="42.95814" lon="-0.33267">
        <ele>1347.4</ele>
        <time>2025-07-22T14:26:55Z</time>
      </trkpt>
      <trkpt lat="42.95816" lon="-0.33271">
        <ele>1346.8</ele>
        <time>2025-07-22T14:26:56Z</time>
      </trkpt>
      <trkpt lat="42.95827" lon="-0.33284">
        <ele>1346</ele>
        <time>2025-07-22T14:27:00Z</time>
      </trkpt>
      <trkpt lat="42.9583" lon="-0.33287">
        <ele>1345.8</ele>
        <time>2025-07-22T14:27:01Z</time>
      </trkpt>
      <trkpt lat="42.95855" lon="-0.33297">
        <ele>1345</ele>
        <time>2025-07-22T14:27:08Z</time>
      </trkpt>
      <trkpt lat="42.95864" lon="-0.33298">
        <ele>1344.8</ele>
        <time>2025-07-22T14:27:10Z</time>
      </trkpt>
      <trkpt lat="42.95886" lon="-0.33294">
        <ele>1344.4</ele>
        <time>2025-07-22T14:27:15Z</time>
      </trkpt>
      <trkpt lat="42.95917" lon="-0.33289">
        <ele>1344.2</ele>
        <time>2025-07-22T14:27:21Z</time>
      </trkpt>
      <trkpt lat="42.95942" lon="-0.33293">
        <ele>1343.6</ele>
        <time>2025-07-22T14:27:26Z</time>
      </trkpt>
      <trkpt lat="42.95954" lon="-0.33297">
        <ele>1343.4</ele>
        <time>2025-07-22T14:27:28Z</time>
      </trkpt>
      <trkpt lat="42.95976" lon="-0.33301">
        <ele>1342.6</ele>
        <time>2025-07-22T14:27:31Z</time>
      </trkpt>
      <trkpt lat="42.95984" lon="-0.33301">
        <ele>1342.4</ele>
        <time>2025-07-22T14:27:32Z</time>
      </trkpt>
      <trkpt lat="42.9601" lon="-0.33296">
        <ele>1341</ele>
        <time>2025-07-22T14:27:35Z</time>
      </trkpt>
      <trkpt lat="42.96018" lon="-0.33292">
        <ele>1340.4</ele>
        <time>2025-07-22T14:27:36Z</time>
      </trkpt>
      <trkpt lat="42.96025" lon="-0.33287">
        <ele>1340</ele>
        <time>2025-07-22T14:27:37Z</time>
      </trkpt>
      <trkpt lat="42.96041" lon="-0.33279">
        <ele>1339</ele>
        <time>2025-07-22T14:27:39Z</time>
      </trkpt>
      <trkpt lat="42.96057" lon="-0.33274">
        <ele>1337.8</ele>
        <time>2025-07-22T14:27:41Z</time>
      </trkpt>
      <trkpt lat="42.96072" lon="-0.33277">
        <ele>1336</ele>
        <time>2025-07-22T14:27:43Z</time>
      </trkpt>
      <trkpt lat="42.9608" lon="-0.33281">
        <ele>1335.8</ele>
        <time>2025-07-22T14:27:44Z</time>
      </trkpt>
      <trkpt lat="42.96095" lon="-0.33292">
        <ele>1334.2</ele>
        <time>2025-07-22T14:27:46Z</time>
      </trkpt>
      <trkpt lat="42.96103" lon="-0.33297">
        <ele>1333.2</ele>
        <time>2025-07-22T14:27:47Z</time>
      </trkpt>
      <trkpt lat="42.96111" lon="-0.33299">
        <ele>1332.8</ele>
        <time>2025-07-22T14:27:48Z</time>
      </trkpt>
      <trkpt lat="42.96119" lon="-0.333">
        <ele>1331.2</ele>
        <time>2025-07-22T14:27:49Z</time>
      </trkpt>
      <trkpt lat="42.96127" lon="-0.33297">
        <ele>1329.8</ele>
        <time>2025-07-22T14:27:50Z</time>
      </trkpt>
      <trkpt lat="42.96134" lon="-0.3329">
        <ele>1329.4</ele>
        <time>2025-07-22T14:27:51Z</time>
      </trkpt>
      <trkpt lat="42.96141" lon="-0.33282">
        <ele>1328.6</ele>
        <time>2025-07-22T14:27:52Z</time>
      </trkpt>
      <trkpt lat="42.96156" lon="-0.33269">
        <ele>1327</ele>
        <time>2025-07-22T14:27:54Z</time>
      </trkpt>
      <trkpt lat="42.96164" lon="-0.33264">
        <ele>1326.4</ele>
        <time>2025-07-22T14:27:55Z</time>
      </trkpt>
      <trkpt lat="42.96172" lon="-0.3326">
        <ele>1325.4</ele>
        <time>2025-07-22T14:27:56Z</time>
      </trkpt>
      <trkpt lat="42.9619" lon="-0.33256">
        <ele>1324</ele>
        <time>2025-07-22T14:27:58Z</time>
      </trkpt>
      <trkpt lat="42.96199" lon="-0.33256">
        <ele>1323</ele>
        <time>2025-07-22T14:27:59Z</time>
      </trkpt>
      <trkpt lat="42.96209" lon="-0.33257">
        <ele>1322.6</ele>
        <time>2025-07-22T14:28:00Z</time>
      </trkpt>
      <trkpt lat="42.96219" lon="-0.33257">
        <ele>1321.4</ele>
        <time>2025-07-22T14:28:01Z</time>
      </trkpt>
      <trkpt lat="42.96237" lon="-0.3326">
        <ele>1320.6</ele>
        <time>2025-07-22T14:28:03Z</time>
      </trkpt>
      <trkpt lat="42.96246" lon="-0.33264">
        <ele>1318.8</ele>
        <time>2025-07-22T14:28:04Z</time>
      </trkpt>
      <trkpt lat="42.96254" lon="-0.33269">
        <ele>1318.4</ele>
        <time>2025-07-22T14:28:05Z</time>
      </trkpt>
      <trkpt lat="42.9626" lon="-0.33274">
        <ele>1317.6</ele>
        <time>2025-07-22T14:28:06Z</time>
      </trkpt>
      <trkpt lat="42.9627" lon="-0.33282">
        <ele>1317</ele>
        <time>2025-07-22T14:28:07Z</time>
      </trkpt>
      <trkpt lat="42.96278" lon="-0.33289">
        <ele>1315.4</ele>
        <time>2025-07-22T14:28:08Z</time>
      </trkpt>
      <trkpt lat="42.96284" lon="-0.33295">
        <ele>1314.4</ele>
        <time>2025-07-22T14:28:09Z</time>
      </trkpt>
      <trkpt lat="42.96302" lon="-0.3331">
        <ele>1312.8</ele>
        <time>2025-07-22T14:28:11Z</time>
      </trkpt>
      <trkpt lat="42.96309" lon="-0.33317">
        <ele>1312.6</ele>
        <time>2025-07-22T14:28:12Z</time>
      </trkpt>
      <trkpt lat="42.96316" lon="-0.33326">
        <ele>1311.2</ele>
        <time>2025-07-22T14:28:13Z</time>
      </trkpt>
      <trkpt lat="42.9633" lon="-0.33342">
        <ele>1310.2</ele>
        <time>2025-07-22T14:28:15Z</time>
      </trkpt>
      <trkpt lat="42.96337" lon="-0.33352">
        <ele>1309</ele>
        <time>2025-07-22T14:28:16Z</time>
      </trkpt>
      <trkpt lat="42.96343" lon="-0.33362">
        <ele>1308.6</ele>
        <time>2025-07-22T14:28:17Z</time>
      </trkpt>
      <trkpt lat="42.96349" lon="-0.33373">
        <ele>1307.2</ele>
        <time>2025-07-22T14:28:18Z</time>
      </trkpt>
      <trkpt lat="42.96362" lon="-0.33396">
        <ele>1305.8</ele>
        <time>2025-07-22T14:28:20Z</time>
      </trkpt>
      <trkpt lat="42.96368" lon="-0.33409">
        <ele>1305.4</ele>
        <time>2025-07-22T14:28:21Z</time>
      </trkpt>
      <trkpt lat="42.96373" lon="-0.33422">
        <ele>1304.6</ele>
        <time>2025-07-22T14:28:22Z</time>
      </trkpt>
      <trkpt lat="42.96377" lon="-0.33434">
        <ele>1303.2</ele>
        <time>2025-07-22T14:28:23Z</time>
      </trkpt>
      <trkpt lat="42.96382" lon="-0.33446">
        <ele>1302.8</ele>
        <time>2025-07-22T14:28:24Z</time>
      </trkpt>
      <trkpt lat="42.96387" lon="-0.33458">
        <ele>1301.4</ele>
        <time>2025-07-22T14:28:25Z</time>
      </trkpt>
      <trkpt lat="42.96397" lon="-0.3348">
        <ele>1299.6</ele>
        <time>2025-07-22T14:28:27Z</time>
      </trkpt>
      <trkpt lat="42.96405" lon="-0.33499">
        <ele>1297.6</ele>
        <time>2025-07-22T14:28:29Z</time>
      </trkpt>
      <trkpt lat="42.96409" lon="-0.33509">
        <ele>1295.8</ele>
        <time>2025-07-22T14:28:30Z</time>
      </trkpt>
      <trkpt lat="42.96413" lon="-0.33518">
        <ele>1295</ele>
        <time>2025-07-22T14:28:31Z</time>
      </trkpt>
      <trkpt lat="42.96417" lon="-0.33527">
        <ele>1293.8</ele>
        <time>2025-07-22T14:28:32Z</time>
      </trkpt>
      <trkpt lat="42.96422" lon="-0.33546">
        <ele>1292.4</ele>
        <time>2025-07-22T14:28:34Z</time>
      </trkpt>
      <trkpt lat="42.96424" lon="-0.33554">
        <ele>1292</ele>
        <time>2025-07-22T14:28:35Z</time>
      </trkpt>
      <trkpt lat="42.96426" lon="-0.33562">
        <ele>1290.8</ele>
        <time>2025-07-22T14:28:36Z</time>
      </trkpt>
      <trkpt lat="42.96428" lon="-0.33582">
        <ele>1289.6</ele>
        <time>2025-07-22T14:28:38Z</time>
      </trkpt>
      <trkpt lat="42.96427" lon="-0.33591">
        <ele>1288.6</ele>
        <time>2025-07-22T14:28:39Z</time>
      </trkpt>
      <trkpt lat="42.96423" lon="-0.3362">
        <ele>1286.8</ele>
        <time>2025-07-22T14:28:42Z</time>
      </trkpt>
      <trkpt lat="42.96424" lon="-0.3363">
        <ele>1286.4</ele>
        <time>2025-07-22T14:28:43Z</time>
      </trkpt>
      <trkpt lat="42.96425" lon="-0.33638">
        <ele>1285.8</ele>
        <time>2025-07-22T14:28:44Z</time>
      </trkpt>
      <trkpt lat="42.96427" lon="-0.33645">
        <ele>1285.4</ele>
        <time>2025-07-22T14:28:45Z</time>
      </trkpt>
      <trkpt lat="42.9643" lon="-0.33651">
        <ele>1284.2</ele>
        <time>2025-07-22T14:28:46Z</time>
      </trkpt>
      <trkpt lat="42.96433" lon="-0.33676">
        <ele>1282.2</ele>
        <time>2025-07-22T14:28:49Z</time>
      </trkpt>
      <trkpt lat="42.96435" lon="-0.33686">
        <ele>1281.6</ele>
        <time>2025-07-22T14:28:50Z</time>
      </trkpt>
      <trkpt lat="42.96436" lon="-0.33696">
        <ele>1280.6</ele>
        <time>2025-07-22T14:28:51Z</time>
      </trkpt>
      <trkpt lat="42.96437" lon="-0.33708">
        <ele>1280.4</ele>
        <time>2025-07-22T14:28:52Z</time>
      </trkpt>
      <trkpt lat="42.96439" lon="-0.33733">
        <ele>1279.2</ele>
        <time>2025-07-22T14:28:54Z</time>
      </trkpt>
      <trkpt lat="42.96441" lon="-0.33756">
        <ele>1277.4</ele>
        <time>2025-07-22T14:28:56Z</time>
      </trkpt>
      <trkpt lat="42.96445" lon="-0.33784">
        <ele>1275.8</ele>
        <time>2025-07-22T14:28:58Z</time>
      </trkpt>
      <trkpt lat="42.96455" lon="-0.33809">
        <ele>1274.4</ele>
        <time>2025-07-22T14:29:00Z</time>
      </trkpt>
      <trkpt lat="42.96464" lon="-0.33829">
        <ele>1272.6</ele>
        <time>2025-07-22T14:29:02Z</time>
      </trkpt>
      <trkpt lat="42.96467" lon="-0.33844">
        <ele>1271.2</ele>
        <time>2025-07-22T14:29:03Z</time>
      </trkpt>
      <trkpt lat="42.96468" lon="-0.33869">
        <ele>1269.2</ele>
        <time>2025-07-22T14:29:05Z</time>
      </trkpt>
      <trkpt lat="42.96466" lon="-0.33891">
        <ele>1267.6</ele>
        <time>2025-07-22T14:29:07Z</time>
      </trkpt>
      <trkpt lat="42.9647" lon="-0.33919">
        <ele>1266</ele>
        <time>2025-07-22T14:29:09Z</time>
      </trkpt>
      <trkpt lat="42.96475" lon="-0.33944">
        <ele>1264.8</ele>
        <time>2025-07-22T14:29:11Z</time>
      </trkpt>
      <trkpt lat="42.96476" lon="-0.33959">
        <ele>1263.8</ele>
        <time>2025-07-22T14:29:12Z</time>
      </trkpt>
      <trkpt lat="42.96478" lon="-0.33974">
        <ele>1263</ele>
        <time>2025-07-22T14:29:13Z</time>
      </trkpt>
      <trkpt lat="42.96479" lon="-0.33991">
        <ele>1262</ele>
        <time>2025-07-22T14:29:14Z</time>
      </trkpt>
      <trkpt lat="42.96481" lon="-0.34006">
        <ele>1261.4</ele>
        <time>2025-07-22T14:29:15Z</time>
      </trkpt>
      <trkpt lat="42.96483" lon="-0.34018">
        <ele>1259.8</ele>
        <time>2025-07-22T14:29:16Z</time>
      </trkpt>
      <trkpt lat="42.96487" lon="-0.34032">
        <ele>1258.6</ele>
        <time>2025-07-22T14:29:17Z</time>
      </trkpt>
      <trkpt lat="42.96494" lon="-0.34063">
        <ele>1257</ele>
        <time>2025-07-22T14:29:19Z</time>
      </trkpt>
      <trkpt lat="42.96499" lon="-0.34094">
        <ele>1254.6</ele>
        <time>2025-07-22T14:29:21Z</time>
      </trkpt>
      <trkpt lat="42.965" lon="-0.34109">
        <ele>1254</ele>
        <time>2025-07-22T14:29:22Z</time>
      </trkpt>
      <trkpt lat="42.96501" lon="-0.34125">
        <ele>1253</ele>
        <time>2025-07-22T14:29:23Z</time>
      </trkpt>
      <trkpt lat="42.96504" lon="-0.34156">
        <ele>1251.4</ele>
        <time>2025-07-22T14:29:25Z</time>
      </trkpt>
      <trkpt lat="42.96505" lon="-0.34168">
        <ele>1250</ele>
        <time>2025-07-22T14:29:26Z</time>
      </trkpt>
      <trkpt lat="42.96509" lon="-0.34201">
        <ele>1248.2</ele>
        <time>2025-07-22T14:29:28Z</time>
      </trkpt>
      <trkpt lat="42.96511" lon="-0.34216">
        <ele>1246.6</ele>
        <time>2025-07-22T14:29:29Z</time>
      </trkpt>
      <trkpt lat="42.96514" lon="-0.34244">
        <ele>1244.8</ele>
        <time>2025-07-22T14:29:31Z</time>
      </trkpt>
      <trkpt lat="42.96515" lon="-0.34269">
        <ele>1242.6</ele>
        <time>2025-07-22T14:29:33Z</time>
      </trkpt>
      <trkpt lat="42.96515" lon="-0.34298">
        <ele>1241</ele>
        <time>2025-07-22T14:29:35Z</time>
      </trkpt>
      <trkpt lat="42.96514" lon="-0.34311">
        <ele>1240</ele>
        <time>2025-07-22T14:29:36Z</time>
      </trkpt>
      <trkpt lat="42.96513" lon="-0.34321">
        <ele>1239.4</ele>
        <time>2025-07-22T14:29:37Z</time>
      </trkpt>
      <trkpt lat="42.96509" lon="-0.34332">
        <ele>1237.8</ele>
        <time>2025-07-22T14:29:38Z</time>
      </trkpt>
      <trkpt lat="42.96497" lon="-0.3435">
        <ele>1236</ele>
        <time>2025-07-22T14:29:40Z</time>
      </trkpt>
      <trkpt lat="42.96482" lon="-0.34348">
        <ele>1234</ele>
        <time>2025-07-22T14:29:42Z</time>
      </trkpt>
      <trkpt lat="42.96475" lon="-0.3434">
        <ele>1233</ele>
        <time>2025-07-22T14:29:43Z</time>
      </trkpt>
      <trkpt lat="42.96469" lon="-0.34327">
        <ele>1232.6</ele>
        <time>2025-07-22T14:29:44Z</time>
      </trkpt>
      <trkpt lat="42.96462" lon="-0.34302">
        <ele>1231.4</ele>
        <time>2025-07-22T14:29:46Z</time>
      </trkpt>
      <trkpt lat="42.96458" lon="-0.34288">
        <ele>1230.4</ele>
        <time>2025-07-22T14:29:47Z</time>
      </trkpt>
      <trkpt lat="42.96454" lon="-0.34274">
        <ele>1230</ele>
        <time>2025-07-22T14:29:48Z</time>
      </trkpt>
      <trkpt lat="42.9645" lon="-0.34259">
        <ele>1229</ele>
        <time>2025-07-22T14:29:49Z</time>
      </trkpt>
      <trkpt lat="42.96446" lon="-0.34241">
        <ele>1227.8</ele>
        <time>2025-07-22T14:29:50Z</time>
      </trkpt>
      <trkpt lat="42.96439" lon="-0.34215">
        <ele>1226.6</ele>
        <time>2025-07-22T14:29:52Z</time>
      </trkpt>
      <trkpt lat="42.96429" lon="-0.34185">
        <ele>1225</ele>
        <time>2025-07-22T14:29:54Z</time>
      </trkpt>
      <trkpt lat="42.96422" lon="-0.34158">
        <ele>1223.2</ele>
        <time>2025-07-22T14:29:56Z</time>
      </trkpt>
      <trkpt lat="42.96419" lon="-0.34148">
        <ele>1221.8</ele>
        <time>2025-07-22T14:29:57Z</time>
      </trkpt>
      <trkpt lat="42.96416" lon="-0.34134">
        <ele>1221.4</ele>
        <time>2025-07-22T14:29:58Z</time>
      </trkpt>
      <trkpt lat="42.96413" lon="-0.34121">
        <ele>1220.4</ele>
        <time>2025-07-22T14:29:59Z</time>
      </trkpt>
      <trkpt lat="42.96412" lon="-0.34106">
        <ele>1219.6</ele>
        <time>2025-07-22T14:30:00Z</time>
      </trkpt>
      <trkpt lat="42.96412" lon="-0.34091">
        <ele>1218.4</ele>
        <time>2025-07-22T14:30:01Z</time>
      </trkpt>
      <trkpt lat="42.96411" lon="-0.34061">
        <ele>1217.2</ele>
        <time>2025-07-22T14:30:03Z</time>
      </trkpt>
      <trkpt lat="42.9641" lon="-0.34046">
        <ele>1216</ele>
        <time>2025-07-22T14:30:04Z</time>
      </trkpt>
      <trkpt lat="42.96409" lon="-0.34014">
        <ele>1214.2</ele>
        <time>2025-07-22T14:30:06Z</time>
      </trkpt>
      <trkpt lat="42.96407" lon="-0.33988">
        <ele>1212.6</ele>
        <time>2025-07-22T14:30:08Z</time>
      </trkpt>
      <trkpt lat="42.96402" lon="-0.33961">
        <ele>1210.4</ele>
        <time>2025-07-22T14:30:10Z</time>
      </trkpt>
      <trkpt lat="42.96396" lon="-0.33948">
        <ele>1209.2</ele>
        <time>2025-07-22T14:30:11Z</time>
      </trkpt>
      <trkpt lat="42.96388" lon="-0.3394">
        <ele>1208.8</ele>
        <time>2025-07-22T14:30:12Z</time>
      </trkpt>
      <trkpt lat="42.9638" lon="-0.33936">
        <ele>1207.2</ele>
        <time>2025-07-22T14:30:13Z</time>
      </trkpt>
      <trkpt lat="42.96371" lon="-0.33933">
        <ele>1206.6</ele>
        <time>2025-07-22T14:30:14Z</time>
      </trkpt>
      <trkpt lat="42.96361" lon="-0.33932">
        <ele>1204.6</ele>
        <time>2025-07-22T14:30:15Z</time>
      </trkpt>
      <trkpt lat="42.96354" lon="-0.33933">
        <ele>1203.2</ele>
        <time>2025-07-22T14:30:16Z</time>
      </trkpt>
      <trkpt lat="42.9634" lon="-0.33936">
        <ele>1201.2</ele>
        <time>2025-07-22T14:30:18Z</time>
      </trkpt>
      <trkpt lat="42.96326" lon="-0.33939">
        <ele>1199</ele>
        <time>2025-07-22T14:30:20Z</time>
      </trkpt>
      <trkpt lat="42.96314" lon="-0.33948">
        <ele>1197.6</ele>
        <time>2025-07-22T14:30:22Z</time>
      </trkpt>
      <trkpt lat="42.96305" lon="-0.33963">
        <ele>1196.4</ele>
        <time>2025-07-22T14:30:24Z</time>
      </trkpt>
      <trkpt lat="42.96304" lon="-0.33974">
        <ele>1195</ele>
        <time>2025-07-22T14:30:25Z</time>
      </trkpt>
      <trkpt lat="42.9631" lon="-0.33993">
        <ele>1193.6</ele>
        <time>2025-07-22T14:30:27Z</time>
      </trkpt>
      <trkpt lat="42.96314" lon="-0.34003">
        <ele>1193</ele>
        <time>2025-07-22T14:30:28Z</time>
      </trkpt>
      <trkpt lat="42.96319" lon="-0.34017">
        <ele>1191.8</ele>
        <time>2025-07-22T14:30:29Z</time>
      </trkpt>
      <trkpt lat="42.96327" lon="-0.3404">
        <ele>1190.4</ele>
        <time>2025-07-22T14:30:31Z</time>
      </trkpt>
      <trkpt lat="42.96334" lon="-0.3406">
        <ele>1188.8</ele>
        <time>2025-07-22T14:30:33Z</time>
      </trkpt>
      <trkpt lat="42.96337" lon="-0.34071">
        <ele>1187.6</ele>
        <time>2025-07-22T14:30:34Z</time>
      </trkpt>
      <trkpt lat="42.96345" lon="-0.34096">
        <ele>1186.2</ele>
        <time>2025-07-22T14:30:36Z</time>
      </trkpt>
      <trkpt lat="42.96351" lon="-0.34116">
        <ele>1184.6</ele>
        <time>2025-07-22T14:30:38Z</time>
      </trkpt>
      <trkpt lat="42.96353" lon="-0.34131">
        <ele>1184</ele>
        <time>2025-07-22T14:30:39Z</time>
      </trkpt>
      <trkpt lat="42.96354" lon="-0.34143">
        <ele>1183.4</ele>
        <time>2025-07-22T14:30:40Z</time>
      </trkpt>
      <trkpt lat="42.96354" lon="-0.34167">
        <ele>1182</ele>
        <time>2025-07-22T14:30:42Z</time>
      </trkpt>
      <trkpt lat="42.96353" lon="-0.34189">
        <ele>1180.4</ele>
        <time>2025-07-22T14:30:44Z</time>
      </trkpt>
      <trkpt lat="42.96351" lon="-0.34203">
        <ele>1180.2</ele>
        <time>2025-07-22T14:30:45Z</time>
      </trkpt>
      <trkpt lat="42.96348" lon="-0.34215">
        <ele>1179.4</ele>
        <time>2025-07-22T14:30:46Z</time>
      </trkpt>
      <trkpt lat="42.96346" lon="-0.34227">
        <ele>1179.2</ele>
        <time>2025-07-22T14:30:47Z</time>
      </trkpt>
      <trkpt lat="42.96339" lon="-0.34266">
        <ele>1177.4</ele>
        <time>2025-07-22T14:30:50Z</time>
      </trkpt>
      <trkpt lat="42.96336" lon="-0.3428">
        <ele>1176.8</ele>
        <time>2025-07-22T14:30:51Z</time>
      </trkpt>
      <trkpt lat="42.96333" lon="-0.34294">
        <ele>1176.2</ele>
        <time>2025-07-22T14:30:52Z</time>
      </trkpt>
      <trkpt lat="42.96328" lon="-0.34323">
        <ele>1174.8</ele>
        <time>2025-07-22T14:30:54Z</time>
      </trkpt>
      <trkpt lat="42.96328" lon="-0.34335">
        <ele>1173.8</ele>
        <time>2025-07-22T14:30:55Z</time>
      </trkpt>
      <trkpt lat="42.96327" lon="-0.34352">
        <ele>1172.6</ele>
        <time>2025-07-22T14:30:56Z</time>
      </trkpt>
      <trkpt lat="42.96326" lon="-0.3438">
        <ele>1171.4</ele>
        <time>2025-07-22T14:30:58Z</time>
      </trkpt>
      <trkpt lat="42.96323" lon="-0.34393">
        <ele>1170.4</ele>
        <time>2025-07-22T14:30:59Z</time>
      </trkpt>
      <trkpt lat="42.96319" lon="-0.34406">
        <ele>1169</ele>
        <time>2025-07-22T14:31:00Z</time>
      </trkpt>
      <trkpt lat="42.96311" lon="-0.34431">
        <ele>1167.4</ele>
        <time>2025-07-22T14:31:02Z</time>
      </trkpt>
      <trkpt lat="42.9631" lon="-0.34444">
        <ele>1166.2</ele>
        <time>2025-07-22T14:31:03Z</time>
      </trkpt>
      <trkpt lat="42.96312" lon="-0.34454">
        <ele>1165.4</ele>
        <time>2025-07-22T14:31:04Z</time>
      </trkpt>
      <trkpt lat="42.96313" lon="-0.34466">
        <ele>1164.6</ele>
        <time>2025-07-22T14:31:05Z</time>
      </trkpt>
      <trkpt lat="42.96313" lon="-0.34481">
        <ele>1164</ele>
        <time>2025-07-22T14:31:06Z</time>
      </trkpt>
      <trkpt lat="42.96312" lon="-0.34493">
        <ele>1162.8</ele>
        <time>2025-07-22T14:31:07Z</time>
      </trkpt>
      <trkpt lat="42.96311" lon="-0.34513">
        <ele>1161.4</ele>
        <time>2025-07-22T14:31:09Z</time>
      </trkpt>
      <trkpt lat="42.9631" lon="-0.34524">
        <ele>1160.4</ele>
        <time>2025-07-22T14:31:10Z</time>
      </trkpt>
      <trkpt lat="42.96307" lon="-0.34536">
        <ele>1160</ele>
        <time>2025-07-22T14:31:11Z</time>
      </trkpt>
      <trkpt lat="42.96305" lon="-0.34544">
        <ele>1159</ele>
        <time>2025-07-22T14:31:12Z</time>
      </trkpt>
      <trkpt lat="42.96301" lon="-0.34553">
        <ele>1158.2</ele>
        <time>2025-07-22T14:31:13Z</time>
      </trkpt>
      <trkpt lat="42.96298" lon="-0.34558">
        <ele>1157</ele>
        <time>2025-07-22T14:31:14Z</time>
      </trkpt>
      <trkpt lat="42.96293" lon="-0.34562">
        <ele>1156.4</ele>
        <time>2025-07-22T14:31:15Z</time>
      </trkpt>
      <trkpt lat="42.96288" lon="-0.34566">
        <ele>1155.2</ele>
        <time>2025-07-22T14:31:16Z</time>
      </trkpt>
      <trkpt lat="42.96281" lon="-0.34568">
        <ele>1154.6</ele>
        <time>2025-07-22T14:31:17Z</time>
      </trkpt>
      <trkpt lat="42.96274" lon="-0.34572">
        <ele>1154.2</ele>
        <time>2025-07-22T14:31:18Z</time>
      </trkpt>
      <trkpt lat="42.96268" lon="-0.34577">
        <ele>1153.2</ele>
        <time>2025-07-22T14:31:19Z</time>
      </trkpt>
      <trkpt lat="42.96262" lon="-0.34583">
        <ele>1152.8</ele>
        <time>2025-07-22T14:31:20Z</time>
      </trkpt>
      <trkpt lat="42.96256" lon="-0.34592">
        <ele>1151.6</ele>
        <time>2025-07-22T14:31:21Z</time>
      </trkpt>
      <trkpt lat="42.96252" lon="-0.34602">
        <ele>1151.4</ele>
        <time>2025-07-22T14:31:22Z</time>
      </trkpt>
      <trkpt lat="42.9625" lon="-0.3461">
        <ele>1150.6</ele>
        <time>2025-07-22T14:31:23Z</time>
      </trkpt>
      <trkpt lat="42.96249" lon="-0.34621">
        <ele>1149.6</ele>
        <time>2025-07-22T14:31:24Z</time>
      </trkpt>
      <trkpt lat="42.96249" lon="-0.34634">
        <ele>1149</ele>
        <time>2025-07-22T14:31:25Z</time>
      </trkpt>
      <trkpt lat="42.9625" lon="-0.34646">
        <ele>1148</ele>
        <time>2025-07-22T14:31:26Z</time>
      </trkpt>
      <trkpt lat="42.96252" lon="-0.34656">
        <ele>1147.4</ele>
        <time>2025-07-22T14:31:27Z</time>
      </trkpt>
      <trkpt lat="42.96253" lon="-0.34667">
        <ele>1146.2</ele>
        <time>2025-07-22T14:31:28Z</time>
      </trkpt>
      <trkpt lat="42.96254" lon="-0.34679">
        <ele>1145.6</ele>
        <time>2025-07-22T14:31:29Z</time>
      </trkpt>
      <trkpt lat="42.96255" lon="-0.34691">
        <ele>1144.6</ele>
        <time>2025-07-22T14:31:30Z</time>
      </trkpt>
      <trkpt lat="42.96256" lon="-0.34704">
        <ele>1143.4</ele>
        <time>2025-07-22T14:31:31Z</time>
      </trkpt>
      <trkpt lat="42.96255" lon="-0.34713">
        <ele>1143</ele>
        <time>2025-07-22T14:31:32Z</time>
      </trkpt>
      <trkpt lat="42.96254" lon="-0.34724">
        <ele>1142.2</ele>
        <time>2025-07-22T14:31:33Z</time>
      </trkpt>
      <trkpt lat="42.96249" lon="-0.34747">
        <ele>1141</ele>
        <time>2025-07-22T14:31:35Z</time>
      </trkpt>
      <trkpt lat="42.96247" lon="-0.34763">
        <ele>1140.8</ele>
        <time>2025-07-22T14:31:36Z</time>
      </trkpt>
      <trkpt lat="42.96245" lon="-0.34777">
        <ele>1139.4</ele>
        <time>2025-07-22T14:31:37Z</time>
      </trkpt>
      <trkpt lat="42.96242" lon="-0.34789">
        <ele>1138.2</ele>
        <time>2025-07-22T14:31:38Z</time>
      </trkpt>
      <trkpt lat="42.96238" lon="-0.34813">
        <ele>1136.8</ele>
        <time>2025-07-22T14:31:40Z</time>
      </trkpt>
      <trkpt lat="42.96236" lon="-0.34827">
        <ele>1136.2</ele>
        <time>2025-07-22T14:31:41Z</time>
      </trkpt>
      <trkpt lat="42.96233" lon="-0.34843">
        <ele>1135.2</ele>
        <time>2025-07-22T14:31:42Z</time>
      </trkpt>
      <trkpt lat="42.96231" lon="-0.34854">
        <ele>1134</ele>
        <time>2025-07-22T14:31:43Z</time>
      </trkpt>
      <trkpt lat="42.9623" lon="-0.34881">
        <ele>1132.2</ele>
        <time>2025-07-22T14:31:45Z</time>
      </trkpt>
      <trkpt lat="42.96229" lon="-0.34903">
        <ele>1130.8</ele>
        <time>2025-07-22T14:31:47Z</time>
      </trkpt>
      <trkpt lat="42.96228" lon="-0.34914">
        <ele>1130.2</ele>
        <time>2025-07-22T14:31:48Z</time>
      </trkpt>
      <trkpt lat="42.96228" lon="-0.34921">
        <ele>1129</ele>
        <time>2025-07-22T14:31:49Z</time>
      </trkpt>
      <trkpt lat="42.96227" lon="-0.34937">
        <ele>1127.6</ele>
        <time>2025-07-22T14:31:51Z</time>
      </trkpt>
      <trkpt lat="42.96226" lon="-0.34944">
        <ele>1126.2</ele>
        <time>2025-07-22T14:31:52Z</time>
      </trkpt>
      <trkpt lat="42.96227" lon="-0.3495">
        <ele>1125.8</ele>
        <time>2025-07-22T14:31:53Z</time>
      </trkpt>
      <trkpt lat="42.96232" lon="-0.34957">
        <ele>1124.8</ele>
        <time>2025-07-22T14:31:55Z</time>
      </trkpt>
      <trkpt lat="42.96236" lon="-0.34957">
        <ele>1124.2</ele>
        <time>2025-07-22T14:31:56Z</time>
      </trkpt>
      <trkpt lat="42.96238" lon="-0.34953">
        <ele>1123.6</ele>
        <time>2025-07-22T14:31:57Z</time>
      </trkpt>
      <trkpt lat="42.9624" lon="-0.34946">
        <ele>1123.4</ele>
        <time>2025-07-22T14:31:58Z</time>
      </trkpt>
      <trkpt lat="42.96241" lon="-0.3494">
        <ele>1123</ele>
        <time>2025-07-22T14:31:59Z</time>
      </trkpt>
      <trkpt lat="42.9624" lon="-0.34932">
        <ele>1122.4</ele>
        <time>2025-07-22T14:32:00Z</time>
      </trkpt>
      <trkpt lat="42.96239" lon="-0.34925">
        <ele>1121.8</ele>
        <time>2025-07-22T14:32:01Z</time>
      </trkpt>
      <trkpt lat="42.96239" lon="-0.34917">
        <ele>1121.4</ele>
        <time>2025-07-22T14:32:02Z</time>
      </trkpt>
      <trkpt lat="42.9624" lon="-0.34909">
        <ele>1120.6</ele>
        <time>2025-07-22T14:32:03Z</time>
      </trkpt>
      <trkpt lat="42.96242" lon="-0.34881">
        <ele>1119.2</ele>
        <time>2025-07-22T14:32:06Z</time>
      </trkpt>
      <trkpt lat="42.96244" lon="-0.34859">
        <ele>1118.8</ele>
        <time>2025-07-22T14:32:08Z</time>
      </trkpt>
      <trkpt lat="42.96251" lon="-0.34838">
        <ele>1117.8</ele>
        <time>2025-07-22T14:32:10Z</time>
      </trkpt>
      <trkpt lat="42.96253" lon="-0.34828">
        <ele>1117.4</ele>
        <time>2025-07-22T14:32:11Z</time>
      </trkpt>
      <trkpt lat="42.9626" lon="-0.34807">
        <ele>1116.4</ele>
        <time>2025-07-22T14:32:13Z</time>
      </trkpt>
      <trkpt lat="42.9627" lon="-0.34787">
        <ele>1115.8</ele>
        <time>2025-07-22T14:32:15Z</time>
      </trkpt>
      <trkpt lat="42.96275" lon="-0.3478">
        <ele>1115.4</ele>
        <time>2025-07-22T14:32:16Z</time>
      </trkpt>
      <trkpt lat="42.96281" lon="-0.34774">
        <ele>1115</ele>
        <time>2025-07-22T14:32:17Z</time>
      </trkpt>
      <trkpt lat="42.96293" lon="-0.34763">
        <ele>1114.2</ele>
        <time>2025-07-22T14:32:19Z</time>
      </trkpt>
      <trkpt lat="42.96315" lon="-0.34738">
        <ele>1112.8</ele>
        <time>2025-07-22T14:32:22Z</time>
      </trkpt>
      <trkpt lat="42.96323" lon="-0.3473">
        <ele>1112.2</ele>
        <time>2025-07-22T14:32:23Z</time>
      </trkpt>
      <trkpt lat="42.96332" lon="-0.3472">
        <ele>1111.6</ele>
        <time>2025-07-22T14:32:24Z</time>
      </trkpt>
      <trkpt lat="42.9634" lon="-0.34711">
        <ele>1110.4</ele>
        <time>2025-07-22T14:32:25Z</time>
      </trkpt>
      <trkpt lat="42.96354" lon="-0.34691">
        <ele>1108.6</ele>
        <time>2025-07-22T14:32:27Z</time>
      </trkpt>
      <trkpt lat="42.96362" lon="-0.34667">
        <ele>1107.2</ele>
        <time>2025-07-22T14:32:29Z</time>
      </trkpt>
      <trkpt lat="42.96365" lon="-0.34656">
        <ele>1106</ele>
        <time>2025-07-22T14:32:30Z</time>
      </trkpt>
      <trkpt lat="42.96371" lon="-0.34636">
        <ele>1104.2</ele>
        <time>2025-07-22T14:32:32Z</time>
      </trkpt>
      <trkpt lat="42.96384" lon="-0.34618">
        <ele>1103.4</ele>
        <time>2025-07-22T14:32:34Z</time>
      </trkpt>
      <trkpt lat="42.96391" lon="-0.34614">
        <ele>1102.4</ele>
        <time>2025-07-22T14:32:35Z</time>
      </trkpt>
      <trkpt lat="42.96397" lon="-0.34612">
        <ele>1101.2</ele>
        <time>2025-07-22T14:32:36Z</time>
      </trkpt>
      <trkpt lat="42.96403" lon="-0.34616">
        <ele>1100.2</ele>
        <time>2025-07-22T14:32:37Z</time>
      </trkpt>
      <trkpt lat="42.96408" lon="-0.34624">
        <ele>1100</ele>
        <time>2025-07-22T14:32:38Z</time>
      </trkpt>
      <trkpt lat="42.96411" lon="-0.34633">
        <ele>1099.4</ele>
        <time>2025-07-22T14:32:39Z</time>
      </trkpt>
      <trkpt lat="42.96414" lon="-0.34642">
        <ele>1099.2</ele>
        <time>2025-07-22T14:32:40Z</time>
      </trkpt>
      <trkpt lat="42.96415" lon="-0.34649">
        <ele>1098.6</ele>
        <time>2025-07-22T14:32:41Z</time>
      </trkpt>
      <trkpt lat="42.96414" lon="-0.34658">
        <ele>1098.4</ele>
        <time>2025-07-22T14:32:42Z</time>
      </trkpt>
      <trkpt lat="42.96414" lon="-0.34669">
        <ele>1098</ele>
        <time>2025-07-22T14:32:43Z</time>
      </trkpt>
      <trkpt lat="42.96412" lon="-0.34695">
        <ele>1097.2</ele>
        <time>2025-07-22T14:32:46Z</time>
      </trkpt>
      <trkpt lat="42.96411" lon="-0.34727">
        <ele>1096.6</ele>
        <time>2025-07-22T14:32:49Z</time>
      </trkpt>
      <trkpt lat="42.96411" lon="-0.34745">
        <ele>1096</ele>
        <time>2025-07-22T14:32:51Z</time>
      </trkpt>
      <trkpt lat="42.96415" lon="-0.34767">
        <ele>1095.8</ele>
        <time>2025-07-22T14:32:53Z</time>
      </trkpt>
      <trkpt lat="42.96423" lon="-0.34784">
        <ele>1095.2</ele>
        <time>2025-07-22T14:32:55Z</time>
      </trkpt>
      <trkpt lat="42.96429" lon="-0.34801">
        <ele>1095</ele>
        <time>2025-07-22T14:32:57Z</time>
      </trkpt>
      <trkpt lat="42.96435" lon="-0.34844">
        <ele>1093.8</ele>
        <time>2025-07-22T14:33:01Z</time>
      </trkpt>
      <trkpt lat="42.96436" lon="-0.34855">
        <ele>1093.2</ele>
        <time>2025-07-22T14:33:02Z</time>
      </trkpt>
      <trkpt lat="42.9643" lon="-0.34879">
        <ele>1092.6</ele>
        <time>2025-07-22T14:33:04Z</time>
      </trkpt>
      <trkpt lat="42.96418" lon="-0.34897">
        <ele>1092</ele>
        <time>2025-07-22T14:33:06Z</time>
      </trkpt>
      <trkpt lat="42.96413" lon="-0.34904">
        <ele>1091.2</ele>
        <time>2025-07-22T14:33:07Z</time>
      </trkpt>
      <trkpt lat="42.96406" lon="-0.34912">
        <ele>1091</ele>
        <time>2025-07-22T14:33:08Z</time>
      </trkpt>
      <trkpt lat="42.96395" lon="-0.34937">
        <ele>1090</ele>
        <time>2025-07-22T14:33:10Z</time>
      </trkpt>
      <trkpt lat="42.96391" lon="-0.34961">
        <ele>1088</ele>
        <time>2025-07-22T14:33:12Z</time>
      </trkpt>
      <trkpt lat="42.9639" lon="-0.34974">
        <ele>1087.4</ele>
        <time>2025-07-22T14:33:13Z</time>
      </trkpt>
      <trkpt lat="42.96389" lon="-0.34989">
        <ele>1086.4</ele>
        <time>2025-07-22T14:33:14Z</time>
      </trkpt>
      <trkpt lat="42.96385" lon="-0.35013">
        <ele>1084.6</ele>
        <time>2025-07-22T14:33:16Z</time>
      </trkpt>
      <trkpt lat="42.96384" lon="-0.35025">
        <ele>1083.4</ele>
        <time>2025-07-22T14:33:17Z</time>
      </trkpt>
      <trkpt lat="42.96384" lon="-0.35034">
        <ele>1082.6</ele>
        <time>2025-07-22T14:33:18Z</time>
      </trkpt>
      <trkpt lat="42.96384" lon="-0.35048">
        <ele>1081.6</ele>
        <time>2025-07-22T14:33:19Z</time>
      </trkpt>
      <trkpt lat="42.96382" lon="-0.3506">
        <ele>1081</ele>
        <time>2025-07-22T14:33:20Z</time>
      </trkpt>
      <trkpt lat="42.96379" lon="-0.35072">
        <ele>1079.8</ele>
        <time>2025-07-22T14:33:21Z</time>
      </trkpt>
      <trkpt lat="42.96374" lon="-0.3508">
        <ele>1079.4</ele>
        <time>2025-07-22T14:33:22Z</time>
      </trkpt>
      <trkpt lat="42.96368" lon="-0.3509">
        <ele>1078.2</ele>
        <time>2025-07-22T14:33:23Z</time>
      </trkpt>
      <trkpt lat="42.96361" lon="-0.351">
        <ele>1076.4</ele>
        <time>2025-07-22T14:33:24Z</time>
      </trkpt>
      <trkpt lat="42.96354" lon="-0.35113">
        <ele>1076</ele>
        <time>2025-07-22T14:33:25Z</time>
      </trkpt>
      <trkpt lat="42.96349" lon="-0.35125">
        <ele>1075</ele>
        <time>2025-07-22T14:33:26Z</time>
      </trkpt>
      <trkpt lat="42.96345" lon="-0.35135">
        <ele>1074.6</ele>
        <time>2025-07-22T14:33:27Z</time>
      </trkpt>
      <trkpt lat="42.96343" lon="-0.35149">
        <ele>1074</ele>
        <time>2025-07-22T14:33:28Z</time>
      </trkpt>
      <trkpt lat="42.96342" lon="-0.35166">
        <ele>1073.4</ele>
        <time>2025-07-22T14:33:29Z</time>
      </trkpt>
      <trkpt lat="42.96342" lon="-0.35181">
        <ele>1072.6</ele>
        <time>2025-07-22T14:33:30Z</time>
      </trkpt>
      <trkpt lat="42.96343" lon="-0.35195">
        <ele>1071.2</ele>
        <time>2025-07-22T14:33:31Z</time>
      </trkpt>
      <trkpt lat="42.96344" lon="-0.35221">
        <ele>1069.4</ele>
        <time>2025-07-22T14:33:33Z</time>
      </trkpt>
      <trkpt lat="42.96348" lon="-0.35252">
        <ele>1068</ele>
        <time>2025-07-22T14:33:35Z</time>
      </trkpt>
      <trkpt lat="42.9635" lon="-0.35266">
        <ele>1067.6</ele>
        <time>2025-07-22T14:33:36Z</time>
      </trkpt>
      <trkpt lat="42.96353" lon="-0.3528">
        <ele>1065.8</ele>
        <time>2025-07-22T14:33:37Z</time>
      </trkpt>
      <trkpt lat="42.96357" lon="-0.35294">
        <ele>1064.4</ele>
        <time>2025-07-22T14:33:38Z</time>
      </trkpt>
      <trkpt lat="42.96363" lon="-0.35306">
        <ele>1063.6</ele>
        <time>2025-07-22T14:33:39Z</time>
      </trkpt>
      <trkpt lat="42.96369" lon="-0.35317">
        <ele>1062.4</ele>
        <time>2025-07-22T14:33:40Z</time>
      </trkpt>
      <trkpt lat="42.96384" lon="-0.35337">
        <ele>1060.4</ele>
        <time>2025-07-22T14:33:42Z</time>
      </trkpt>
      <trkpt lat="42.96391" lon="-0.35347">
        <ele>1059.8</ele>
        <time>2025-07-22T14:33:43Z</time>
      </trkpt>
      <trkpt lat="42.96398" lon="-0.35358">
        <ele>1058</ele>
        <time>2025-07-22T14:33:44Z</time>
      </trkpt>
      <trkpt lat="42.96403" lon="-0.35371">
        <ele>1056.4</ele>
        <time>2025-07-22T14:33:45Z</time>
      </trkpt>
      <trkpt lat="42.96407" lon="-0.35384">
        <ele>1055.8</ele>
        <time>2025-07-22T14:33:46Z</time>
      </trkpt>
      <trkpt lat="42.9641" lon="-0.35397">
        <ele>1054.2</ele>
        <time>2025-07-22T14:33:47Z</time>
      </trkpt>
      <trkpt lat="42.96414" lon="-0.3541">
        <ele>1053.6</ele>
        <time>2025-07-22T14:33:48Z</time>
      </trkpt>
      <trkpt lat="42.96419" lon="-0.35424">
        <ele>1052.6</ele>
        <time>2025-07-22T14:33:49Z</time>
      </trkpt>
      <trkpt lat="42.96425" lon="-0.35436">
        <ele>1051</ele>
        <time>2025-07-22T14:33:50Z</time>
      </trkpt>
      <trkpt lat="42.96437" lon="-0.35456">
        <ele>1048.8</ele>
        <time>2025-07-22T14:33:52Z</time>
      </trkpt>
      <trkpt lat="42.96452" lon="-0.35481">
        <ele>1046.6</ele>
        <time>2025-07-22T14:33:54Z</time>
      </trkpt>
      <trkpt lat="42.96467" lon="-0.35503">
        <ele>1045</ele>
        <time>2025-07-22T14:33:56Z</time>
      </trkpt>
      <trkpt lat="42.96473" lon="-0.3551">
        <ele>1043.6</ele>
        <time>2025-07-22T14:33:57Z</time>
      </trkpt>
      <trkpt lat="42.96481" lon="-0.35518">
        <ele>1043.2</ele>
        <time>2025-07-22T14:33:58Z</time>
      </trkpt>
      <trkpt lat="42.96489" lon="-0.35527">
        <ele>1041.8</ele>
        <time>2025-07-22T14:33:59Z</time>
      </trkpt>
      <trkpt lat="42.96506" lon="-0.35546">
        <ele>1039.4</ele>
        <time>2025-07-22T14:34:01Z</time>
      </trkpt>
      <trkpt lat="42.96519" lon="-0.35564">
        <ele>1037.6</ele>
        <time>2025-07-22T14:34:03Z</time>
      </trkpt>
      <trkpt lat="42.96527" lon="-0.35573">
        <ele>1036.4</ele>
        <time>2025-07-22T14:34:04Z</time>
      </trkpt>
      <trkpt lat="42.96537" lon="-0.35582">
        <ele>1035.6</ele>
        <time>2025-07-22T14:34:05Z</time>
      </trkpt>
      <trkpt lat="42.96545" lon="-0.35589">
        <ele>1034.6</ele>
        <time>2025-07-22T14:34:06Z</time>
      </trkpt>
      <trkpt lat="42.96553" lon="-0.35597">
        <ele>1034</ele>
        <time>2025-07-22T14:34:07Z</time>
      </trkpt>
      <trkpt lat="42.96559" lon="-0.35605">
        <ele>1032.6</ele>
        <time>2025-07-22T14:34:08Z</time>
      </trkpt>
      <trkpt lat="42.96566" lon="-0.35614">
        <ele>1032</ele>
        <time>2025-07-22T14:34:09Z</time>
      </trkpt>
      <trkpt lat="42.96573" lon="-0.35627">
        <ele>1030.8</ele>
        <time>2025-07-22T14:34:10Z</time>
      </trkpt>
      <trkpt lat="42.96579" lon="-0.35637">
        <ele>1029.6</ele>
        <time>2025-07-22T14:34:11Z</time>
      </trkpt>
      <trkpt lat="42.96583" lon="-0.35651">
        <ele>1029.2</ele>
        <time>2025-07-22T14:34:12Z</time>
      </trkpt>
      <trkpt lat="42.96586" lon="-0.35668">
        <ele>1028.2</ele>
        <time>2025-07-22T14:34:13Z</time>
      </trkpt>
      <trkpt lat="42.96587" lon="-0.35683">
        <ele>1027.6</ele>
        <time>2025-07-22T14:34:14Z</time>
      </trkpt>
      <trkpt lat="42.9659" lon="-0.35704">
        <ele>1026.6</ele>
        <time>2025-07-22T14:34:15Z</time>
      </trkpt>
      <trkpt lat="42.96597" lon="-0.35736">
        <ele>1025</ele>
        <time>2025-07-22T14:34:17Z</time>
      </trkpt>
      <trkpt lat="42.96606" lon="-0.35762">
        <ele>1023.6</ele>
        <time>2025-07-22T14:34:19Z</time>
      </trkpt>
      <trkpt lat="42.9661" lon="-0.35775">
        <ele>1022.4</ele>
        <time>2025-07-22T14:34:20Z</time>
      </trkpt>
      <trkpt lat="42.96618" lon="-0.35802">
        <ele>1020.8</ele>
        <time>2025-07-22T14:34:22Z</time>
      </trkpt>
      <trkpt lat="42.96621" lon="-0.35817">
        <ele>1019.8</ele>
        <time>2025-07-22T14:34:23Z</time>
      </trkpt>
      <trkpt lat="42.96625" lon="-0.35836">
        <ele>1019</ele>
        <time>2025-07-22T14:34:24Z</time>
      </trkpt>
      <trkpt lat="42.96627" lon="-0.35846">
        <ele>1017.8</ele>
        <time>2025-07-22T14:34:25Z</time>
      </trkpt>
      <trkpt lat="42.96634" lon="-0.35863">
        <ele>1017.2</ele>
        <time>2025-07-22T14:34:26Z</time>
      </trkpt>
      <trkpt lat="42.96638" lon="-0.35878">
        <ele>1015.6</ele>
        <time>2025-07-22T14:34:27Z</time>
      </trkpt>
      <trkpt lat="42.96639" lon="-0.35891">
        <ele>1015.2</ele>
        <time>2025-07-22T14:34:28Z</time>
      </trkpt>
      <trkpt lat="42.96638" lon="-0.35909">
        <ele>1013.8</ele>
        <time>2025-07-22T14:34:29Z</time>
      </trkpt>
      <trkpt lat="42.96638" lon="-0.35925">
        <ele>1012.2</ele>
        <time>2025-07-22T14:34:30Z</time>
      </trkpt>
      <trkpt lat="42.96636" lon="-0.35959">
        <ele>1010.4</ele>
        <time>2025-07-22T14:34:32Z</time>
      </trkpt>
      <trkpt lat="42.96636" lon="-0.35992">
        <ele>1008</ele>
        <time>2025-07-22T14:34:34Z</time>
      </trkpt>
      <trkpt lat="42.96638" lon="-0.36008">
        <ele>1007.2</ele>
        <time>2025-07-22T14:34:35Z</time>
      </trkpt>
      <trkpt lat="42.96641" lon="-0.36024">
        <ele>1006.2</ele>
        <time>2025-07-22T14:34:36Z</time>
      </trkpt>
      <trkpt lat="42.96645" lon="-0.3604">
        <ele>1004.6</ele>
        <time>2025-07-22T14:34:37Z</time>
      </trkpt>
      <trkpt lat="42.96649" lon="-0.36072">
        <ele>1003</ele>
        <time>2025-07-22T14:34:39Z</time>
      </trkpt>
      <trkpt lat="42.9665" lon="-0.36105">
        <ele>1000.2</ele>
        <time>2025-07-22T14:34:41Z</time>
      </trkpt>
      <trkpt lat="42.96653" lon="-0.36139">
        <ele>998.4</ele>
        <time>2025-07-22T14:34:43Z</time>
      </trkpt>
      <trkpt lat="42.96656" lon="-0.36155">
        <ele>996.8</ele>
        <time>2025-07-22T14:34:44Z</time>
      </trkpt>
      <trkpt lat="42.96664" lon="-0.36187">
        <ele>994.8</ele>
        <time>2025-07-22T14:34:46Z</time>
      </trkpt>
      <trkpt lat="42.96672" lon="-0.3622">
        <ele>992.8</ele>
        <time>2025-07-22T14:34:48Z</time>
      </trkpt>
      <trkpt lat="42.96675" lon="-0.36236">
        <ele>992.2</ele>
        <time>2025-07-22T14:34:49Z</time>
      </trkpt>
      <trkpt lat="42.96679" lon="-0.36253">
        <ele>990.8</ele>
        <time>2025-07-22T14:34:50Z</time>
      </trkpt>
      <trkpt lat="42.96683" lon="-0.3627">
        <ele>989.4</ele>
        <time>2025-07-22T14:34:51Z</time>
      </trkpt>
      <trkpt lat="42.96691" lon="-0.36302">
        <ele>987</ele>
        <time>2025-07-22T14:34:53Z</time>
      </trkpt>
      <trkpt lat="42.96694" lon="-0.36319">
        <ele>986.4</ele>
        <time>2025-07-22T14:34:54Z</time>
      </trkpt>
      <trkpt lat="42.96697" lon="-0.36335">
        <ele>984.8</ele>
        <time>2025-07-22T14:34:55Z</time>
      </trkpt>
      <trkpt lat="42.967" lon="-0.36367">
        <ele>982.8</ele>
        <time>2025-07-22T14:34:57Z</time>
      </trkpt>
      <trkpt lat="42.96701" lon="-0.36383">
        <ele>981</ele>
        <time>2025-07-22T14:34:58Z</time>
      </trkpt>
      <trkpt lat="42.96705" lon="-0.36412">
        <ele>978.8</ele>
        <time>2025-07-22T14:35:00Z</time>
      </trkpt>
      <trkpt lat="42.96713" lon="-0.36441">
        <ele>976.8</ele>
        <time>2025-07-22T14:35:02Z</time>
      </trkpt>
      <trkpt lat="42.96721" lon="-0.36471">
        <ele>975</ele>
        <time>2025-07-22T14:35:04Z</time>
      </trkpt>
      <trkpt lat="42.96723" lon="-0.36487">
        <ele>973.6</ele>
        <time>2025-07-22T14:35:05Z</time>
      </trkpt>
      <trkpt lat="42.96725" lon="-0.36519">
        <ele>971.4</ele>
        <time>2025-07-22T14:35:07Z</time>
      </trkpt>
      <trkpt lat="42.96728" lon="-0.3655">
        <ele>969.6</ele>
        <time>2025-07-22T14:35:09Z</time>
      </trkpt>
      <trkpt lat="42.96737" lon="-0.36579">
        <ele>967.6</ele>
        <time>2025-07-22T14:35:11Z</time>
      </trkpt>
      <trkpt lat="42.96743" lon="-0.36594">
        <ele>966.4</ele>
        <time>2025-07-22T14:35:12Z</time>
      </trkpt>
      <trkpt lat="42.96755" lon="-0.36625">
        <ele>964.2</ele>
        <time>2025-07-22T14:35:14Z</time>
      </trkpt>
      <trkpt lat="42.96763" lon="-0.36658">
        <ele>962.4</ele>
        <time>2025-07-22T14:35:16Z</time>
      </trkpt>
      <trkpt lat="42.96769" lon="-0.3669">
        <ele>960</ele>
        <time>2025-07-22T14:35:18Z</time>
      </trkpt>
      <trkpt lat="42.96772" lon="-0.36706">
        <ele>958.6</ele>
        <time>2025-07-22T14:35:19Z</time>
      </trkpt>
      <trkpt lat="42.96774" lon="-0.36721">
        <ele>958</ele>
        <time>2025-07-22T14:35:20Z</time>
      </trkpt>
      <trkpt lat="42.96775" lon="-0.36737">
        <ele>956.4</ele>
        <time>2025-07-22T14:35:21Z</time>
      </trkpt>
      <trkpt lat="42.96777" lon="-0.36767">
        <ele>953.8</ele>
        <time>2025-07-22T14:35:23Z</time>
      </trkpt>
      <trkpt lat="42.96779" lon="-0.36783">
        <ele>952.4</ele>
        <time>2025-07-22T14:35:24Z</time>
      </trkpt>
      <trkpt lat="42.96782" lon="-0.36799">
        <ele>951.8</ele>
        <time>2025-07-22T14:35:25Z</time>
      </trkpt>
      <trkpt lat="42.96786" lon="-0.36814">
        <ele>950.4</ele>
        <time>2025-07-22T14:35:26Z</time>
      </trkpt>
      <trkpt lat="42.96796" lon="-0.36844">
        <ele>948.6</ele>
        <time>2025-07-22T14:35:28Z</time>
      </trkpt>
      <trkpt lat="42.96801" lon="-0.36859">
        <ele>947.6</ele>
        <time>2025-07-22T14:35:29Z</time>
      </trkpt>
      <trkpt lat="42.96807" lon="-0.36873">
        <ele>946</ele>
        <time>2025-07-22T14:35:30Z</time>
      </trkpt>
      <trkpt lat="42.96813" lon="-0.36888">
        <ele>944.8</ele>
        <time>2025-07-22T14:35:31Z</time>
      </trkpt>
      <trkpt lat="42.96823" lon="-0.36919">
        <ele>942.8</ele>
        <time>2025-07-22T14:35:33Z</time>
      </trkpt>
      <trkpt lat="42.96827" lon="-0.36933">
        <ele>942</ele>
        <time>2025-07-22T14:35:34Z</time>
      </trkpt>
      <trkpt lat="42.96831" lon="-0.36948">
        <ele>940.8</ele>
        <time>2025-07-22T14:35:35Z</time>
      </trkpt>
      <trkpt lat="42.96836" lon="-0.36961">
        <ele>940.4</ele>
        <time>2025-07-22T14:35:36Z</time>
      </trkpt>
      <trkpt lat="42.96842" lon="-0.36974">
        <ele>939</ele>
        <time>2025-07-22T14:35:37Z</time>
      </trkpt>
      <trkpt lat="42.9685" lon="-0.36986">
        <ele>937.6</ele>
        <time>2025-07-22T14:35:38Z</time>
      </trkpt>
      <trkpt lat="42.96865" lon="-0.3701">
        <ele>935.4</ele>
        <time>2025-07-22T14:35:40Z</time>
      </trkpt>
      <trkpt lat="42.96877" lon="-0.37035">
        <ele>933.4</ele>
        <time>2025-07-22T14:35:42Z</time>
      </trkpt>
      <trkpt lat="42.96883" lon="-0.37047">
        <ele>932.8</ele>
        <time>2025-07-22T14:35:43Z</time>
      </trkpt>
      <trkpt lat="42.96888" lon="-0.37058">
        <ele>931.4</ele>
        <time>2025-07-22T14:35:44Z</time>
      </trkpt>
      <trkpt lat="42.96892" lon="-0.3707">
        <ele>929.8</ele>
        <time>2025-07-22T14:35:45Z</time>
      </trkpt>
      <trkpt lat="42.96894" lon="-0.37083">
        <ele>929.2</ele>
        <time>2025-07-22T14:35:46Z</time>
      </trkpt>
      <trkpt lat="42.96895" lon="-0.37096">
        <ele>927.6</ele>
        <time>2025-07-22T14:35:47Z</time>
      </trkpt>
      <trkpt lat="42.96891" lon="-0.37122">
        <ele>925.2</ele>
        <time>2025-07-22T14:35:49Z</time>
      </trkpt>
      <trkpt lat="42.96889" lon="-0.37135">
        <ele>924.8</ele>
        <time>2025-07-22T14:35:50Z</time>
      </trkpt>
      <trkpt lat="42.9689" lon="-0.37148">
        <ele>923.6</ele>
        <time>2025-07-22T14:35:51Z</time>
      </trkpt>
      <trkpt lat="42.96893" lon="-0.37161">
        <ele>922.4</ele>
        <time>2025-07-22T14:35:52Z</time>
      </trkpt>
      <trkpt lat="42.96903" lon="-0.37184">
        <ele>921.2</ele>
        <time>2025-07-22T14:35:54Z</time>
      </trkpt>
      <trkpt lat="42.96908" lon="-0.37196">
        <ele>920.8</ele>
        <time>2025-07-22T14:35:55Z</time>
      </trkpt>
      <trkpt lat="42.9691" lon="-0.37209">
        <ele>919.4</ele>
        <time>2025-07-22T14:35:56Z</time>
      </trkpt>
      <trkpt lat="42.9691" lon="-0.37221">
        <ele>919</ele>
        <time>2025-07-22T14:35:57Z</time>
      </trkpt>
      <trkpt lat="42.9691" lon="-0.3723">
        <ele>917.6</ele>
        <time>2025-07-22T14:35:58Z</time>
      </trkpt>
      <trkpt lat="42.96907" lon="-0.37241">
        <ele>916.4</ele>
        <time>2025-07-22T14:35:59Z</time>
      </trkpt>
      <trkpt lat="42.96902" lon="-0.37252">
        <ele>916</ele>
        <time>2025-07-22T14:36:00Z</time>
      </trkpt>
      <trkpt lat="42.96895" lon="-0.37259">
        <ele>915</ele>
        <time>2025-07-22T14:36:01Z</time>
      </trkpt>
      <trkpt lat="42.9688" lon="-0.37267">
        <ele>913.8</ele>
        <time>2025-07-22T14:36:03Z</time>
      </trkpt>
      <trkpt lat="42.9686" lon="-0.37269">
        <ele>912.4</ele>
        <time>2025-07-22T14:36:05Z</time>
      </trkpt>
      <trkpt lat="42.9685" lon="-0.37267">
        <ele>911.6</ele>
        <time>2025-07-22T14:36:06Z</time>
      </trkpt>
      <trkpt lat="42.96841" lon="-0.37263">
        <ele>911.2</ele>
        <time>2025-07-22T14:36:07Z</time>
      </trkpt>
      <trkpt lat="42.96833" lon="-0.37257">
        <ele>910</ele>
        <time>2025-07-22T14:36:08Z</time>
      </trkpt>
      <trkpt lat="42.96824" lon="-0.37249">
        <ele>909.6</ele>
        <time>2025-07-22T14:36:09Z</time>
      </trkpt>
      <trkpt lat="42.96816" lon="-0.37238">
        <ele>908.4</ele>
        <time>2025-07-22T14:36:10Z</time>
      </trkpt>
      <trkpt lat="42.96801" lon="-0.37212">
        <ele>906.6</ele>
        <time>2025-07-22T14:36:12Z</time>
      </trkpt>
      <trkpt lat="42.96796" lon="-0.37201">
        <ele>905.4</ele>
        <time>2025-07-22T14:36:13Z</time>
      </trkpt>
      <trkpt lat="42.96785" lon="-0.37181">
        <ele>903.8</ele>
        <time>2025-07-22T14:36:15Z</time>
      </trkpt>
      <trkpt lat="42.96778" lon="-0.37173">
        <ele>903.4</ele>
        <time>2025-07-22T14:36:16Z</time>
      </trkpt>
      <trkpt lat="42.9677" lon="-0.37169">
        <ele>902</ele>
        <time>2025-07-22T14:36:17Z</time>
      </trkpt>
      <trkpt lat="42.96762" lon="-0.37169">
        <ele>901.8</ele>
        <time>2025-07-22T14:36:18Z</time>
      </trkpt>
      <trkpt lat="42.96754" lon="-0.37173">
        <ele>900.4</ele>
        <time>2025-07-22T14:36:19Z</time>
      </trkpt>
      <trkpt lat="42.96748" lon="-0.3718">
        <ele>898.8</ele>
        <time>2025-07-22T14:36:20Z</time>
      </trkpt>
      <trkpt lat="42.96744" lon="-0.37189">
        <ele>898.4</ele>
        <time>2025-07-22T14:36:21Z</time>
      </trkpt>
      <trkpt lat="42.96741" lon="-0.372">
        <ele>897.4</ele>
        <time>2025-07-22T14:36:22Z</time>
      </trkpt>
      <trkpt lat="42.9674" lon="-0.37211">
        <ele>897</ele>
        <time>2025-07-22T14:36:23Z</time>
      </trkpt>
      <trkpt lat="42.96741" lon="-0.37223">
        <ele>896</ele>
        <time>2025-07-22T14:36:24Z</time>
      </trkpt>
      <trkpt lat="42.96742" lon="-0.37247">
        <ele>894.2</ele>
        <time>2025-07-22T14:36:26Z</time>
      </trkpt>
      <trkpt lat="42.96743" lon="-0.3726">
        <ele>893.2</ele>
        <time>2025-07-22T14:36:27Z</time>
      </trkpt>
      <trkpt lat="42.96745" lon="-0.37272">
        <ele>892.6</ele>
        <time>2025-07-22T14:36:28Z</time>
      </trkpt>
      <trkpt lat="42.96746" lon="-0.37282">
        <ele>891.8</ele>
        <time>2025-07-22T14:36:29Z</time>
      </trkpt>
      <trkpt lat="42.9675" lon="-0.37309">
        <ele>890.8</ele>
        <time>2025-07-22T14:36:31Z</time>
      </trkpt>
      <trkpt lat="42.96754" lon="-0.37343">
        <ele>889.6</ele>
        <time>2025-07-22T14:36:34Z</time>
      </trkpt>
      <trkpt lat="42.96755" lon="-0.3738">
        <ele>888.8</ele>
        <time>2025-07-22T14:36:37Z</time>
      </trkpt>
      <trkpt lat="42.96755" lon="-0.3739">
        <ele>887.8</ele>
        <time>2025-07-22T14:36:38Z</time>
      </trkpt>
      <trkpt lat="42.96754" lon="-0.3743">
        <ele>886</ele>
        <time>2025-07-22T14:36:41Z</time>
      </trkpt>
      <trkpt lat="42.96756" lon="-0.37444">
        <ele>885.8</ele>
        <time>2025-07-22T14:36:42Z</time>
      </trkpt>
      <trkpt lat="42.96761" lon="-0.37471">
        <ele>885</ele>
        <time>2025-07-22T14:36:44Z</time>
      </trkpt>
      <trkpt lat="42.96762" lon="-0.37484">
        <ele>884.2</ele>
        <time>2025-07-22T14:36:45Z</time>
      </trkpt>
      <trkpt lat="42.96763" lon="-0.37498">
        <ele>883.4</ele>
        <time>2025-07-22T14:36:46Z</time>
      </trkpt>
      <trkpt lat="42.96766" lon="-0.37524">
        <ele>881.2</ele>
        <time>2025-07-22T14:36:48Z</time>
      </trkpt>
      <trkpt lat="42.96774" lon="-0.37547">
        <ele>878.8</ele>
        <time>2025-07-22T14:36:50Z</time>
      </trkpt>
      <trkpt lat="42.96787" lon="-0.37563">
        <ele>876.4</ele>
        <time>2025-07-22T14:36:52Z</time>
      </trkpt>
      <trkpt lat="42.96793" lon="-0.37569">
        <ele>874.6</ele>
        <time>2025-07-22T14:36:53Z</time>
      </trkpt>
      <trkpt lat="42.968" lon="-0.37585">
        <ele>871.8</ele>
        <time>2025-07-22T14:36:55Z</time>
      </trkpt>
      <trkpt lat="42.96798" lon="-0.37604">
        <ele>869.8</ele>
        <time>2025-07-22T14:36:57Z</time>
      </trkpt>
      <trkpt lat="42.96787" lon="-0.37619">
        <ele>868</ele>
        <time>2025-07-22T14:36:59Z</time>
      </trkpt>
      <trkpt lat="42.96781" lon="-0.37625">
        <ele>867</ele>
        <time>2025-07-22T14:37:00Z</time>
      </trkpt>
      <trkpt lat="42.96775" lon="-0.3763">
        <ele>866.4</ele>
        <time>2025-07-22T14:37:01Z</time>
      </trkpt>
      <trkpt lat="42.9677" lon="-0.37636">
        <ele>865.2</ele>
        <time>2025-07-22T14:37:02Z</time>
      </trkpt>
      <trkpt lat="42.96759" lon="-0.37646">
        <ele>864</ele>
        <time>2025-07-22T14:37:04Z</time>
      </trkpt>
      <trkpt lat="42.96755" lon="-0.37651">
        <ele>863.6</ele>
        <time>2025-07-22T14:37:05Z</time>
      </trkpt>
      <trkpt lat="42.96752" lon="-0.37664">
        <ele>862.6</ele>
        <time>2025-07-22T14:37:07Z</time>
      </trkpt>
      <trkpt lat="42.96754" lon="-0.37669">
        <ele>862.4</ele>
        <time>2025-07-22T14:37:08Z</time>
      </trkpt>
      <trkpt lat="42.96756" lon="-0.37674">
        <ele>862</ele>
        <time>2025-07-22T14:37:09Z</time>
      </trkpt>
      <trkpt lat="42.96766" lon="-0.37687">
        <ele>861.6</ele>
        <time>2025-07-22T14:37:12Z</time>
      </trkpt>
      <trkpt lat="42.96771" lon="-0.37699">
        <ele>860.4</ele>
        <time>2025-07-22T14:37:15Z</time>
      </trkpt>
      <trkpt lat="42.96775" lon="-0.37706">
        <ele>860</ele>
        <time>2025-07-22T14:37:17Z</time>
      </trkpt>
      <trkpt lat="42.96781" lon="-0.37717">
        <ele>859.4</ele>
        <time>2025-07-22T14:37:20Z</time>
      </trkpt>
      <trkpt lat="42.96787" lon="-0.37725">
        <ele>859.2</ele>
        <time>2025-07-22T14:37:23Z</time>
      </trkpt>
      <trkpt lat="42.96792" lon="-0.3773">
        <ele>858.8</ele>
        <time>2025-07-22T14:37:26Z</time>
      </trkpt>
      <trkpt lat="42.96792" lon="-0.37731">
        <ele>858.6</ele>
        <time>2025-07-22T14:37:27Z</time>
      </trkpt>
      <trkpt lat="42.96792" lon="-0.37731">
        <ele>858.4</ele>
        <time>2025-07-22T14:37:28Z</time>
      </trkpt>
      <trkpt lat="42.96792" lon="-0.37731">
        <ele>858.2</ele>
        <time>2025-07-22T14:37:29Z</time>
      </trkpt>
      <trkpt lat="42.96792" lon="-0.37733">
        <ele>857.6</ele>
        <time>2025-07-22T14:44:11Z</time>
      </trkpt>
      <trkpt lat="42.96793" lon="-0.37739">
        <ele>857.6</ele>
        <time>2025-07-22T14:44:13Z</time>
      </trkpt>
      <trkpt lat="42.96798" lon="-0.37759">
        <ele>857.8</ele>
        <time>2025-07-22T14:44:18Z</time>
      </trkpt>
      <trkpt lat="42.96798" lon="-0.37777">
        <ele>858</ele>
        <time>2025-07-22T14:44:21Z</time>
      </trkpt>
      <trkpt lat="42.96798" lon="-0.37789">
        <ele>858</ele>
        <time>2025-07-22T14:44:23Z</time>
      </trkpt>
      <trkpt lat="42.968" lon="-0.37808">
        <ele>858</ele>
        <time>2025-07-22T14:44:26Z</time>
      </trkpt>
      <trkpt lat="42.96805" lon="-0.37821">
        <ele>858.2</ele>
        <time>2025-07-22T14:44:28Z</time>
      </trkpt>
      <trkpt lat="42.96817" lon="-0.37849">
        <ele>858</ele>
        <time>2025-07-22T14:44:32Z</time>
      </trkpt>
      <trkpt lat="42.96821" lon="-0.37865">
        <ele>858</ele>
        <time>2025-07-22T14:44:34Z</time>
      </trkpt>
      <trkpt lat="42.96822" lon="-0.37882">
        <ele>857.8</ele>
        <time>2025-07-22T14:44:36Z</time>
      </trkpt>
      <trkpt lat="42.96821" lon="-0.379">
        <ele>857.4</ele>
        <time>2025-07-22T14:44:38Z</time>
      </trkpt>
      <trkpt lat="42.9682" lon="-0.37909">
        <ele>857</ele>
        <time>2025-07-22T14:44:39Z</time>
      </trkpt>
      <trkpt lat="42.9682" lon="-0.37918">
        <ele>857</ele>
        <time>2025-07-22T14:44:40Z</time>
      </trkpt>
      <trkpt lat="42.96825" lon="-0.37933">
        <ele>856.8</ele>
        <time>2025-07-22T14:44:42Z</time>
      </trkpt>
      <trkpt lat="42.96837" lon="-0.37942">
        <ele>856.4</ele>
        <time>2025-07-22T14:44:44Z</time>
      </trkpt>
      <trkpt lat="42.96857" lon="-0.37943">
        <ele>856</ele>
        <time>2025-07-22T14:44:47Z</time>
      </trkpt>
      <trkpt lat="42.96864" lon="-0.37946">
        <ele>855.8</ele>
        <time>2025-07-22T14:44:48Z</time>
      </trkpt>
      <trkpt lat="42.9687" lon="-0.37952">
        <ele>855.6</ele>
        <time>2025-07-22T14:44:49Z</time>
      </trkpt>
      <trkpt lat="42.9688" lon="-0.37968">
        <ele>855.4</ele>
        <time>2025-07-22T14:44:51Z</time>
      </trkpt>
      <trkpt lat="42.96885" lon="-0.37988">
        <ele>855.2</ele>
        <time>2025-07-22T14:44:53Z</time>
      </trkpt>
      <trkpt lat="42.96885" lon="-0.37999">
        <ele>855.2</ele>
        <time>2025-07-22T14:44:54Z</time>
      </trkpt>
      <trkpt lat="42.96882" lon="-0.38008">
        <ele>854.8</ele>
        <time>2025-07-22T14:44:55Z</time>
      </trkpt>
      <trkpt lat="42.96878" lon="-0.38016">
        <ele>854.8</ele>
        <time>2025-07-22T14:44:56Z</time>
      </trkpt>
      <trkpt lat="42.96873" lon="-0.38023">
        <ele>854.6</ele>
        <time>2025-07-22T14:44:57Z</time>
      </trkpt>
      <trkpt lat="42.96865" lon="-0.38038">
        <ele>854.2</ele>
        <time>2025-07-22T14:44:59Z</time>
      </trkpt>
      <trkpt lat="42.96864" lon="-0.38056">
        <ele>853.6</ele>
        <time>2025-07-22T14:45:01Z</time>
      </trkpt>
      <trkpt lat="42.96869" lon="-0.38066">
        <ele>853.4</ele>
        <time>2025-07-22T14:45:02Z</time>
      </trkpt>
      <trkpt lat="42.96879" lon="-0.38082">
        <ele>853</ele>
        <time>2025-07-22T14:45:04Z</time>
      </trkpt>
      <trkpt lat="42.96885" lon="-0.38089">
        <ele>852.8</ele>
        <time>2025-07-22T14:45:05Z</time>
      </trkpt>
      <trkpt lat="42.96893" lon="-0.38093">
        <ele>852.6</ele>
        <time>2025-07-22T14:45:06Z</time>
      </trkpt>
      <trkpt lat="42.96902" lon="-0.38096">
        <ele>852.4</ele>
        <time>2025-07-22T14:45:07Z</time>
      </trkpt>
      <trkpt lat="42.96911" lon="-0.38095">
        <ele>851.8</ele>
        <time>2025-07-22T14:45:08Z</time>
      </trkpt>
      <trkpt lat="42.9692" lon="-0.38093">
        <ele>851.2</ele>
        <time>2025-07-22T14:45:09Z</time>
      </trkpt>
      <trkpt lat="42.96928" lon="-0.38092">
        <ele>851</ele>
        <time>2025-07-22T14:45:10Z</time>
      </trkpt>
      <trkpt lat="42.9694" lon="-0.38105">
        <ele>850.2</ele>
        <time>2025-07-22T14:45:12Z</time>
      </trkpt>
      <trkpt lat="42.96954" lon="-0.38136">
        <ele>849</ele>
        <time>2025-07-22T14:45:15Z</time>
      </trkpt>
      <trkpt lat="42.96961" lon="-0.38144">
        <ele>848.6</ele>
        <time>2025-07-22T14:45:16Z</time>
      </trkpt>
      <trkpt lat="42.96975" lon="-0.38157">
        <ele>848</ele>
        <time>2025-07-22T14:45:18Z</time>
      </trkpt>
      <trkpt lat="42.96981" lon="-0.38166">
        <ele>847.8</ele>
        <time>2025-07-22T14:45:19Z</time>
      </trkpt>
      <trkpt lat="42.96985" lon="-0.38176">
        <ele>847.4</ele>
        <time>2025-07-22T14:45:20Z</time>
      </trkpt>
      <trkpt lat="42.96988" lon="-0.38197">
        <ele>846.4</ele>
        <time>2025-07-22T14:45:22Z</time>
      </trkpt>
      <trkpt lat="42.96989" lon="-0.38208">
        <ele>846.2</ele>
        <time>2025-07-22T14:45:23Z</time>
      </trkpt>
      <trkpt lat="42.96991" lon="-0.38238">
        <ele>845.6</ele>
        <time>2025-07-22T14:45:26Z</time>
      </trkpt>
      <trkpt lat="42.96995" lon="-0.38244">
        <ele>845.2</ele>
        <time>2025-07-22T14:45:27Z</time>
      </trkpt>
      <trkpt lat="42.96999" lon="-0.38247">
        <ele>845</ele>
        <time>2025-07-22T14:45:28Z</time>
      </trkpt>
      <trkpt lat="42.97004" lon="-0.38246">
        <ele>844.6</ele>
        <time>2025-07-22T14:45:29Z</time>
      </trkpt>
      <trkpt lat="42.97006" lon="-0.38241">
        <ele>844.4</ele>
        <time>2025-07-22T14:45:30Z</time>
      </trkpt>
      <trkpt lat="42.97006" lon="-0.38234">
        <ele>844.2</ele>
        <time>2025-07-22T14:45:31Z</time>
      </trkpt>
      <trkpt lat="42.97001" lon="-0.38215">
        <ele>843.4</ele>
        <time>2025-07-22T14:45:33Z</time>
      </trkpt>
      <trkpt lat="42.96999" lon="-0.38203">
        <ele>842.8</ele>
        <time>2025-07-22T14:45:34Z</time>
      </trkpt>
      <trkpt lat="42.96998" lon="-0.38191">
        <ele>842.6</ele>
        <time>2025-07-22T14:45:35Z</time>
      </trkpt>
      <trkpt lat="42.96996" lon="-0.38167">
        <ele>841.8</ele>
        <time>2025-07-22T14:45:37Z</time>
      </trkpt>
      <trkpt lat="42.96995" lon="-0.38154">
        <ele>841.2</ele>
        <time>2025-07-22T14:45:38Z</time>
      </trkpt>
      <trkpt lat="42.96991" lon="-0.38142">
        <ele>840.8</ele>
        <time>2025-07-22T14:45:39Z</time>
      </trkpt>
      <trkpt lat="42.96979" lon="-0.38121">
        <ele>839.6</ele>
        <time>2025-07-22T14:45:41Z</time>
      </trkpt>
      <trkpt lat="42.96974" lon="-0.38109">
        <ele>839.4</ele>
        <time>2025-07-22T14:45:42Z</time>
      </trkpt>
      <trkpt lat="42.9697" lon="-0.38097">
        <ele>838.8</ele>
        <time>2025-07-22T14:45:43Z</time>
      </trkpt>
      <trkpt lat="42.96966" lon="-0.38075">
        <ele>837.8</ele>
        <time>2025-07-22T14:45:45Z</time>
      </trkpt>
      <trkpt lat="42.96966" lon="-0.38066">
        <ele>837.4</ele>
        <time>2025-07-22T14:45:46Z</time>
      </trkpt>
      <trkpt lat="42.9697" lon="-0.38059">
        <ele>836.6</ele>
        <time>2025-07-22T14:45:47Z</time>
      </trkpt>
      <trkpt lat="42.96981" lon="-0.3806">
        <ele>836</ele>
        <time>2025-07-22T14:45:49Z</time>
      </trkpt>
      <trkpt lat="42.96987" lon="-0.38065">
        <ele>835.4</ele>
        <time>2025-07-22T14:45:50Z</time>
      </trkpt>
      <trkpt lat="42.96992" lon="-0.38073">
        <ele>835.2</ele>
        <time>2025-07-22T14:45:51Z</time>
      </trkpt>
      <trkpt lat="42.96998" lon="-0.38081">
        <ele>834.6</ele>
        <time>2025-07-22T14:45:52Z</time>
      </trkpt>
      <trkpt lat="42.97007" lon="-0.38101">
        <ele>833.2</ele>
        <time>2025-07-22T14:45:54Z</time>
      </trkpt>
      <trkpt lat="42.97014" lon="-0.38124">
        <ele>832</ele>
        <time>2025-07-22T14:45:56Z</time>
      </trkpt>
      <trkpt lat="42.97021" lon="-0.3815">
        <ele>831</ele>
        <time>2025-07-22T14:45:58Z</time>
      </trkpt>
      <trkpt lat="42.97027" lon="-0.38177">
        <ele>830</ele>
        <time>2025-07-22T14:46:00Z</time>
      </trkpt>
      <trkpt lat="42.97033" lon="-0.38206">
        <ele>828.8</ele>
        <time>2025-07-22T14:46:02Z</time>
      </trkpt>
      <trkpt lat="42.97045" lon="-0.38232">
        <ele>827.4</ele>
        <time>2025-07-22T14:46:04Z</time>
      </trkpt>
      <trkpt lat="42.97053" lon="-0.38243">
        <ele>826.2</ele>
        <time>2025-07-22T14:46:05Z</time>
      </trkpt>
      <trkpt lat="42.97062" lon="-0.38251">
        <ele>825.2</ele>
        <time>2025-07-22T14:46:06Z</time>
      </trkpt>
      <trkpt lat="42.97072" lon="-0.38258">
        <ele>824.8</ele>
        <time>2025-07-22T14:46:07Z</time>
      </trkpt>
      <trkpt lat="42.97092" lon="-0.3827">
        <ele>823.4</ele>
        <time>2025-07-22T14:46:09Z</time>
      </trkpt>
      <trkpt lat="42.97101" lon="-0.38278">
        <ele>822.8</ele>
        <time>2025-07-22T14:46:10Z</time>
      </trkpt>
      <trkpt lat="42.97108" lon="-0.38289">
        <ele>822.2</ele>
        <time>2025-07-22T14:46:11Z</time>
      </trkpt>
      <trkpt lat="42.97119" lon="-0.38315">
        <ele>821</ele>
        <time>2025-07-22T14:46:13Z</time>
      </trkpt>
      <trkpt lat="42.9713" lon="-0.38343">
        <ele>819.6</ele>
        <time>2025-07-22T14:46:15Z</time>
      </trkpt>
      <trkpt lat="42.9714" lon="-0.38373">
        <ele>818.2</ele>
        <time>2025-07-22T14:46:17Z</time>
      </trkpt>
      <trkpt lat="42.97146" lon="-0.38388">
        <ele>817.6</ele>
        <time>2025-07-22T14:46:18Z</time>
      </trkpt>
      <trkpt lat="42.97152" lon="-0.38403">
        <ele>816.6</ele>
        <time>2025-07-22T14:46:19Z</time>
      </trkpt>
      <trkpt lat="42.97158" lon="-0.38418">
        <ele>815.2</ele>
        <time>2025-07-22T14:46:20Z</time>
      </trkpt>
      <trkpt lat="42.97166" lon="-0.38433">
        <ele>814.6</ele>
        <time>2025-07-22T14:46:21Z</time>
      </trkpt>
      <trkpt lat="42.97173" lon="-0.38447">
        <ele>813.6</ele>
        <time>2025-07-22T14:46:22Z</time>
      </trkpt>
      <trkpt lat="42.9718" lon="-0.38462">
        <ele>812.8</ele>
        <time>2025-07-22T14:46:23Z</time>
      </trkpt>
      <trkpt lat="42.97185" lon="-0.38478">
        <ele>811.4</ele>
        <time>2025-07-22T14:46:24Z</time>
      </trkpt>
      <trkpt lat="42.97189" lon="-0.38494">
        <ele>810.6</ele>
        <time>2025-07-22T14:46:25Z</time>
      </trkpt>
      <trkpt lat="42.97191" lon="-0.38509">
        <ele>809.6</ele>
        <time>2025-07-22T14:46:26Z</time>
      </trkpt>
      <trkpt lat="42.97191" lon="-0.38524">
        <ele>809</ele>
        <time>2025-07-22T14:46:27Z</time>
      </trkpt>
      <trkpt lat="42.9719" lon="-0.38539">
        <ele>807.6</ele>
        <time>2025-07-22T14:46:28Z</time>
      </trkpt>
      <trkpt lat="42.97186" lon="-0.38568">
        <ele>806.2</ele>
        <time>2025-07-22T14:46:30Z</time>
      </trkpt>
      <trkpt lat="42.97183" lon="-0.38583">
        <ele>805.2</ele>
        <time>2025-07-22T14:46:31Z</time>
      </trkpt>
      <trkpt lat="42.97179" lon="-0.38599">
        <ele>804.6</ele>
        <time>2025-07-22T14:46:32Z</time>
      </trkpt>
      <trkpt lat="42.97176" lon="-0.38614">
        <ele>803.4</ele>
        <time>2025-07-22T14:46:33Z</time>
      </trkpt>
      <trkpt lat="42.97174" lon="-0.3863">
        <ele>802.6</ele>
        <time>2025-07-22T14:46:34Z</time>
      </trkpt>
      <trkpt lat="42.97173" lon="-0.38645">
        <ele>801</ele>
        <time>2025-07-22T14:46:35Z</time>
      </trkpt>
      <trkpt lat="42.97175" lon="-0.3866">
        <ele>799</ele>
        <time>2025-07-22T14:46:36Z</time>
      </trkpt>
      <trkpt lat="42.97183" lon="-0.38689">
        <ele>797.2</ele>
        <time>2025-07-22T14:46:38Z</time>
      </trkpt>
      <trkpt lat="42.97192" lon="-0.3872">
        <ele>795.4</ele>
        <time>2025-07-22T14:46:40Z</time>
      </trkpt>
      <trkpt lat="42.97201" lon="-0.38751">
        <ele>794</ele>
        <time>2025-07-22T14:46:42Z</time>
      </trkpt>
      <trkpt lat="42.9721" lon="-0.38782">
        <ele>792.4</ele>
        <time>2025-07-22T14:46:44Z</time>
      </trkpt>
      <trkpt lat="42.97216" lon="-0.38815">
        <ele>791.2</ele>
        <time>2025-07-22T14:46:46Z</time>
      </trkpt>
      <trkpt lat="42.97219" lon="-0.3883">
        <ele>790</ele>
        <time>2025-07-22T14:46:47Z</time>
      </trkpt>
      <trkpt lat="42.97227" lon="-0.38861">
        <ele>788.4</ele>
        <time>2025-07-22T14:46:49Z</time>
      </trkpt>
      <trkpt lat="42.97233" lon="-0.38876">
        <ele>788</ele>
        <time>2025-07-22T14:46:50Z</time>
      </trkpt>
      <trkpt lat="42.9724" lon="-0.38891">
        <ele>786.6</ele>
        <time>2025-07-22T14:46:51Z</time>
      </trkpt>
      <trkpt lat="42.97246" lon="-0.38905">
        <ele>785.2</ele>
        <time>2025-07-22T14:46:52Z</time>
      </trkpt>
      <trkpt lat="42.97258" lon="-0.38936">
        <ele>783</ele>
        <time>2025-07-22T14:46:54Z</time>
      </trkpt>
      <trkpt lat="42.97268" lon="-0.3897">
        <ele>781.4</ele>
        <time>2025-07-22T14:46:56Z</time>
      </trkpt>
      <trkpt lat="42.97276" lon="-0.39002">
        <ele>779.6</ele>
        <time>2025-07-22T14:46:58Z</time>
      </trkpt>
      <trkpt lat="42.97281" lon="-0.39018">
        <ele>778</ele>
        <time>2025-07-22T14:46:59Z</time>
      </trkpt>
      <trkpt lat="42.9729" lon="-0.39047">
        <ele>776.4</ele>
        <time>2025-07-22T14:47:01Z</time>
      </trkpt>
      <trkpt lat="42.97295" lon="-0.3906">
        <ele>775.8</ele>
        <time>2025-07-22T14:47:02Z</time>
      </trkpt>
      <trkpt lat="42.973" lon="-0.39072">
        <ele>774.2</ele>
        <time>2025-07-22T14:47:03Z</time>
      </trkpt>
      <trkpt lat="42.97311" lon="-0.39094">
        <ele>772.2</ele>
        <time>2025-07-22T14:47:05Z</time>
      </trkpt>
      <trkpt lat="42.97319" lon="-0.39115">
        <ele>770</ele>
        <time>2025-07-22T14:47:07Z</time>
      </trkpt>
      <trkpt lat="42.97322" lon="-0.39125">
        <ele>769</ele>
        <time>2025-07-22T14:47:08Z</time>
      </trkpt>
      <trkpt lat="42.97322" lon="-0.39135">
        <ele>768.4</ele>
        <time>2025-07-22T14:47:09Z</time>
      </trkpt>
      <trkpt lat="42.9732" lon="-0.39145">
        <ele>767.4</ele>
        <time>2025-07-22T14:47:10Z</time>
      </trkpt>
      <trkpt lat="42.97316" lon="-0.39154">
        <ele>766.6</ele>
        <time>2025-07-22T14:47:11Z</time>
      </trkpt>
      <trkpt lat="42.97312" lon="-0.39162">
        <ele>765.4</ele>
        <time>2025-07-22T14:47:12Z</time>
      </trkpt>
      <trkpt lat="42.97307" lon="-0.39169">
        <ele>764.8</ele>
        <time>2025-07-22T14:47:13Z</time>
      </trkpt>
      <trkpt lat="42.97302" lon="-0.39176">
        <ele>763.8</ele>
        <time>2025-07-22T14:47:14Z</time>
      </trkpt>
      <trkpt lat="42.97297" lon="-0.39181">
        <ele>763</ele>
        <time>2025-07-22T14:47:15Z</time>
      </trkpt>
      <trkpt lat="42.97292" lon="-0.39185">
        <ele>762.6</ele>
        <time>2025-07-22T14:47:16Z</time>
      </trkpt>
      <trkpt lat="42.97287" lon="-0.3919">
        <ele>761.6</ele>
        <time>2025-07-22T14:47:17Z</time>
      </trkpt>
      <trkpt lat="42.97278" lon="-0.392">
        <ele>760.4</ele>
        <time>2025-07-22T14:47:19Z</time>
      </trkpt>
      <trkpt lat="42.97282" lon="-0.39216">
        <ele>759</ele>
        <time>2025-07-22T14:47:21Z</time>
      </trkpt>
      <trkpt lat="42.97291" lon="-0.39231">
        <ele>758.2</ele>
        <time>2025-07-22T14:47:23Z</time>
      </trkpt>
      <trkpt lat="42.97296" lon="-0.39238">
        <ele>757</ele>
        <time>2025-07-22T14:47:24Z</time>
      </trkpt>
      <trkpt lat="42.97301" lon="-0.39247">
        <ele>756.2</ele>
        <time>2025-07-22T14:47:25Z</time>
      </trkpt>
      <trkpt lat="42.97305" lon="-0.39256">
        <ele>755.4</ele>
        <time>2025-07-22T14:47:26Z</time>
      </trkpt>
      <trkpt lat="42.97311" lon="-0.39264">
        <ele>755</ele>
        <time>2025-07-22T14:47:27Z</time>
      </trkpt>
      <trkpt lat="42.97317" lon="-0.39271">
        <ele>753.8</ele>
        <time>2025-07-22T14:47:28Z</time>
      </trkpt>
      <trkpt lat="42.97322" lon="-0.39277">
        <ele>753.4</ele>
        <time>2025-07-22T14:47:29Z</time>
      </trkpt>
      <trkpt lat="42.97328" lon="-0.39288">
        <ele>751.8</ele>
        <time>2025-07-22T14:47:31Z</time>
      </trkpt>
      <trkpt lat="42.97335" lon="-0.39299">
        <ele>750</ele>
        <time>2025-07-22T14:47:33Z</time>
      </trkpt>
      <trkpt lat="42.97338" lon="-0.39305">
        <ele>749.6</ele>
        <time>2025-07-22T14:47:34Z</time>
      </trkpt>
      <trkpt lat="42.97341" lon="-0.3931">
        <ele>748.8</ele>
        <time>2025-07-22T14:47:35Z</time>
      </trkpt>
      <trkpt lat="42.97346" lon="-0.3932">
        <ele>747.4</ele>
        <time>2025-07-22T14:47:37Z</time>
      </trkpt>
      <trkpt lat="42.97352" lon="-0.3933">
        <ele>746.4</ele>
        <time>2025-07-22T14:47:39Z</time>
      </trkpt>
      <trkpt lat="42.97356" lon="-0.39335">
        <ele>745.8</ele>
        <time>2025-07-22T14:47:40Z</time>
      </trkpt>
      <trkpt lat="42.97363" lon="-0.39347">
        <ele>744.6</ele>
        <time>2025-07-22T14:47:42Z</time>
      </trkpt>
      <trkpt lat="42.97377" lon="-0.39365">
        <ele>743.4</ele>
        <time>2025-07-22T14:47:45Z</time>
      </trkpt>
      <trkpt lat="42.97386" lon="-0.39378">
        <ele>742.2</ele>
        <time>2025-07-22T14:47:47Z</time>
      </trkpt>
      <trkpt lat="42.97395" lon="-0.39392">
        <ele>741.4</ele>
        <time>2025-07-22T14:47:49Z</time>
      </trkpt>
      <trkpt lat="42.97399" lon="-0.39401">
        <ele>741.4</ele>
        <time>2025-07-22T14:47:50Z</time>
      </trkpt>
      <trkpt lat="42.97402" lon="-0.39409">
        <ele>740.8</ele>
        <time>2025-07-22T14:47:51Z</time>
      </trkpt>
      <trkpt lat="42.97405" lon="-0.39429">
        <ele>740.6</ele>
        <time>2025-07-22T14:47:53Z</time>
      </trkpt>
      <trkpt lat="42.97406" lon="-0.3945">
        <ele>740.4</ele>
        <time>2025-07-22T14:47:55Z</time>
      </trkpt>
      <trkpt lat="42.97407" lon="-0.39461">
        <ele>740</ele>
        <time>2025-07-22T14:47:56Z</time>
      </trkpt>
      <trkpt lat="42.9741" lon="-0.39484">
        <ele>739</ele>
        <time>2025-07-22T14:47:58Z</time>
      </trkpt>
      <trkpt lat="42.97414" lon="-0.39507">
        <ele>738.6</ele>
        <time>2025-07-22T14:48:00Z</time>
      </trkpt>
      <trkpt lat="42.97417" lon="-0.39518">
        <ele>738</ele>
        <time>2025-07-22T14:48:01Z</time>
      </trkpt>
      <trkpt lat="42.9742" lon="-0.39528">
        <ele>737.8</ele>
        <time>2025-07-22T14:48:02Z</time>
      </trkpt>
      <trkpt lat="42.97425" lon="-0.39551">
        <ele>737</ele>
        <time>2025-07-22T14:48:04Z</time>
      </trkpt>
      <trkpt lat="42.97426" lon="-0.39562">
        <ele>736.4</ele>
        <time>2025-07-22T14:48:05Z</time>
      </trkpt>
      <trkpt lat="42.97424" lon="-0.39573">
        <ele>736.2</ele>
        <time>2025-07-22T14:48:06Z</time>
      </trkpt>
      <trkpt lat="42.97418" lon="-0.39595">
        <ele>736</ele>
        <time>2025-07-22T14:48:08Z</time>
      </trkpt>
      <trkpt lat="42.97411" lon="-0.39618">
        <ele>735.2</ele>
        <time>2025-07-22T14:48:10Z</time>
      </trkpt>
      <trkpt lat="42.97408" lon="-0.39644">
        <ele>734.2</ele>
        <time>2025-07-22T14:48:12Z</time>
      </trkpt>
      <trkpt lat="42.97407" lon="-0.39656">
        <ele>734</ele>
        <time>2025-07-22T14:48:13Z</time>
      </trkpt>
      <trkpt lat="42.97402" lon="-0.3968">
        <ele>733</ele>
        <time>2025-07-22T14:48:15Z</time>
      </trkpt>
      <trkpt lat="42.97398" lon="-0.39691">
        <ele>732.6</ele>
        <time>2025-07-22T14:48:16Z</time>
      </trkpt>
      <trkpt lat="42.97391" lon="-0.39714">
        <ele>731.4</ele>
        <time>2025-07-22T14:48:18Z</time>
      </trkpt>
      <trkpt lat="42.9739" lon="-0.39727">
        <ele>730.6</ele>
        <time>2025-07-22T14:48:19Z</time>
      </trkpt>
      <trkpt lat="42.97392" lon="-0.3974">
        <ele>730.2</ele>
        <time>2025-07-22T14:48:20Z</time>
      </trkpt>
      <trkpt lat="42.97396" lon="-0.39752">
        <ele>729.6</ele>
        <time>2025-07-22T14:48:21Z</time>
      </trkpt>
      <trkpt lat="42.97402" lon="-0.39762">
        <ele>728.4</ele>
        <time>2025-07-22T14:48:22Z</time>
      </trkpt>
      <trkpt lat="42.97416" lon="-0.39779">
        <ele>727</ele>
        <time>2025-07-22T14:48:24Z</time>
      </trkpt>
      <trkpt lat="42.97423" lon="-0.39789">
        <ele>726.8</ele>
        <time>2025-07-22T14:48:25Z</time>
      </trkpt>
      <trkpt lat="42.97432" lon="-0.39811">
        <ele>725.8</ele>
        <time>2025-07-22T14:48:27Z</time>
      </trkpt>
      <trkpt lat="42.97437" lon="-0.39836">
        <ele>724.8</ele>
        <time>2025-07-22T14:48:29Z</time>
      </trkpt>
      <trkpt lat="42.9744" lon="-0.39863">
        <ele>724.2</ele>
        <time>2025-07-22T14:48:31Z</time>
      </trkpt>
      <trkpt lat="42.97444" lon="-0.3989">
        <ele>723.6</ele>
        <time>2025-07-22T14:48:33Z</time>
      </trkpt>
      <trkpt lat="42.97452" lon="-0.3993">
        <ele>722.2</ele>
        <time>2025-07-22T14:48:36Z</time>
      </trkpt>
      <trkpt lat="42.97454" lon="-0.39957">
        <ele>721.4</ele>
        <time>2025-07-22T14:48:38Z</time>
      </trkpt>
      <trkpt lat="42.97454" lon="-0.39971">
        <ele>721.2</ele>
        <time>2025-07-22T14:48:39Z</time>
      </trkpt>
      <trkpt lat="42.97453" lon="-0.39984">
        <ele>720.8</ele>
        <time>2025-07-22T14:48:40Z</time>
      </trkpt>
      <trkpt lat="42.97451" lon="-0.39995">
        <ele>720.2</ele>
        <time>2025-07-22T14:48:41Z</time>
      </trkpt>
      <trkpt lat="42.97449" lon="-0.40025">
        <ele>718.8</ele>
        <time>2025-07-22T14:48:43Z</time>
      </trkpt>
      <trkpt lat="42.97447" lon="-0.40049">
        <ele>717.2</ele>
        <time>2025-07-22T14:48:45Z</time>
      </trkpt>
      <trkpt lat="42.97446" lon="-0.40063">
        <ele>716.6</ele>
        <time>2025-07-22T14:48:46Z</time>
      </trkpt>
      <trkpt lat="42.97448" lon="-0.40076">
        <ele>715.8</ele>
        <time>2025-07-22T14:48:47Z</time>
      </trkpt>
      <trkpt lat="42.97451" lon="-0.40089">
        <ele>715.4</ele>
        <time>2025-07-22T14:48:48Z</time>
      </trkpt>
      <trkpt lat="42.97455" lon="-0.40106">
        <ele>714.6</ele>
        <time>2025-07-22T14:48:49Z</time>
      </trkpt>
      <trkpt lat="42.9746" lon="-0.40132">
        <ele>713.6</ele>
        <time>2025-07-22T14:48:51Z</time>
      </trkpt>
      <trkpt lat="42.97462" lon="-0.40146">
        <ele>713</ele>
        <time>2025-07-22T14:48:52Z</time>
      </trkpt>
      <trkpt lat="42.97465" lon="-0.40164">
        <ele>712.4</ele>
        <time>2025-07-22T14:48:53Z</time>
      </trkpt>
      <trkpt lat="42.97468" lon="-0.40179">
        <ele>711.6</ele>
        <time>2025-07-22T14:48:54Z</time>
      </trkpt>
      <trkpt lat="42.97469" lon="-0.40192">
        <ele>711.2</ele>
        <time>2025-07-22T14:48:55Z</time>
      </trkpt>
      <trkpt lat="42.9747" lon="-0.4021">
        <ele>710.4</ele>
        <time>2025-07-22T14:48:56Z</time>
      </trkpt>
      <trkpt lat="42.9747" lon="-0.40223">
        <ele>710</ele>
        <time>2025-07-22T14:48:57Z</time>
      </trkpt>
      <trkpt lat="42.97469" lon="-0.40259">
        <ele>708.4</ele>
        <time>2025-07-22T14:48:59Z</time>
      </trkpt>
      <trkpt lat="42.9747" lon="-0.40275">
        <ele>708</ele>
        <time>2025-07-22T14:49:00Z</time>
      </trkpt>
      <trkpt lat="42.97472" lon="-0.40289">
        <ele>707.4</ele>
        <time>2025-07-22T14:49:01Z</time>
      </trkpt>
      <trkpt lat="42.97476" lon="-0.40305">
        <ele>707.2</ele>
        <time>2025-07-22T14:49:02Z</time>
      </trkpt>
      <trkpt lat="42.97486" lon="-0.40334">
        <ele>706.4</ele>
        <time>2025-07-22T14:49:04Z</time>
      </trkpt>
      <trkpt lat="42.97491" lon="-0.40351">
        <ele>705.6</ele>
        <time>2025-07-22T14:49:05Z</time>
      </trkpt>
      <trkpt lat="42.97494" lon="-0.40363">
        <ele>705</ele>
        <time>2025-07-22T14:49:06Z</time>
      </trkpt>
      <trkpt lat="42.97497" lon="-0.40378">
        <ele>704.8</ele>
        <time>2025-07-22T14:49:07Z</time>
      </trkpt>
      <trkpt lat="42.975" lon="-0.40395">
        <ele>703.8</ele>
        <time>2025-07-22T14:49:08Z</time>
      </trkpt>
      <trkpt lat="42.97504" lon="-0.40409">
        <ele>703.4</ele>
        <time>2025-07-22T14:49:09Z</time>
      </trkpt>
      <trkpt lat="42.97508" lon="-0.40419">
        <ele>702.6</ele>
        <time>2025-07-22T14:49:10Z</time>
      </trkpt>
      <trkpt lat="42.97515" lon="-0.4043">
        <ele>702.2</ele>
        <time>2025-07-22T14:49:11Z</time>
      </trkpt>
      <trkpt lat="42.97531" lon="-0.40452">
        <ele>700.8</ele>
        <time>2025-07-22T14:49:13Z</time>
      </trkpt>
      <trkpt lat="42.97538" lon="-0.40462">
        <ele>700.4</ele>
        <time>2025-07-22T14:49:14Z</time>
      </trkpt>
      <trkpt lat="42.97546" lon="-0.40473">
        <ele>699.2</ele>
        <time>2025-07-22T14:49:15Z</time>
      </trkpt>
      <trkpt lat="42.97562" lon="-0.40494">
        <ele>698</ele>
        <time>2025-07-22T14:49:17Z</time>
      </trkpt>
      <trkpt lat="42.9758" lon="-0.40514">
        <ele>696.6</ele>
        <time>2025-07-22T14:49:19Z</time>
      </trkpt>
      <trkpt lat="42.97601" lon="-0.40526">
        <ele>695.6</ele>
        <time>2025-07-22T14:49:21Z</time>
      </trkpt>
      <trkpt lat="42.97611" lon="-0.4053">
        <ele>695</ele>
        <time>2025-07-22T14:49:22Z</time>
      </trkpt>
      <trkpt lat="42.97632" lon="-0.40541">
        <ele>693.2</ele>
        <time>2025-07-22T14:49:24Z</time>
      </trkpt>
      <trkpt lat="42.97642" lon="-0.40548">
        <ele>692.8</ele>
        <time>2025-07-22T14:49:25Z</time>
      </trkpt>
      <trkpt lat="42.97651" lon="-0.40557">
        <ele>692.2</ele>
        <time>2025-07-22T14:49:26Z</time>
      </trkpt>
      <trkpt lat="42.97666" lon="-0.4058">
        <ele>691.4</ele>
        <time>2025-07-22T14:49:28Z</time>
      </trkpt>
      <trkpt lat="42.97671" lon="-0.40593">
        <ele>690.8</ele>
        <time>2025-07-22T14:49:29Z</time>
      </trkpt>
      <trkpt lat="42.9768" lon="-0.4062">
        <ele>689.8</ele>
        <time>2025-07-22T14:49:31Z</time>
      </trkpt>
      <trkpt lat="42.97683" lon="-0.40631">
        <ele>689.4</ele>
        <time>2025-07-22T14:49:32Z</time>
      </trkpt>
      <trkpt lat="42.97685" lon="-0.40644">
        <ele>688.4</ele>
        <time>2025-07-22T14:49:33Z</time>
      </trkpt>
      <trkpt lat="42.97688" lon="-0.40661">
        <ele>687.8</ele>
        <time>2025-07-22T14:49:34Z</time>
      </trkpt>
      <trkpt lat="42.97693" lon="-0.40674">
        <ele>687.4</ele>
        <time>2025-07-22T14:49:35Z</time>
      </trkpt>
      <trkpt lat="42.97703" lon="-0.40696">
        <ele>686.4</ele>
        <time>2025-07-22T14:49:37Z</time>
      </trkpt>
      <trkpt lat="42.9771" lon="-0.40707">
        <ele>685.6</ele>
        <time>2025-07-22T14:49:38Z</time>
      </trkpt>
      <trkpt lat="42.97721" lon="-0.40717">
        <ele>685</ele>
        <time>2025-07-22T14:49:39Z</time>
      </trkpt>
      <trkpt lat="42.97731" lon="-0.40723">
        <ele>684</ele>
        <time>2025-07-22T14:49:40Z</time>
      </trkpt>
      <trkpt lat="42.97741" lon="-0.40728">
        <ele>682.6</ele>
        <time>2025-07-22T14:49:41Z</time>
      </trkpt>
      <trkpt lat="42.9776" lon="-0.40742">
        <ele>681.2</ele>
        <time>2025-07-22T14:49:43Z</time>
      </trkpt>
      <trkpt lat="42.97768" lon="-0.4075">
        <ele>681</ele>
        <time>2025-07-22T14:49:44Z</time>
      </trkpt>
      <trkpt lat="42.97776" lon="-0.40761">
        <ele>680.4</ele>
        <time>2025-07-22T14:49:45Z</time>
      </trkpt>
      <trkpt lat="42.97783" lon="-0.40772">
        <ele>680.2</ele>
        <time>2025-07-22T14:49:46Z</time>
      </trkpt>
      <trkpt lat="42.97787" lon="-0.40782">
        <ele>680</ele>
        <time>2025-07-22T14:49:47Z</time>
      </trkpt>
      <trkpt lat="42.97791" lon="-0.40796">
        <ele>679.8</ele>
        <time>2025-07-22T14:49:48Z</time>
      </trkpt>
      <trkpt lat="42.97798" lon="-0.40826">
        <ele>678.8</ele>
        <time>2025-07-22T14:49:50Z</time>
      </trkpt>
      <trkpt lat="42.978" lon="-0.4084">
        <ele>678.4</ele>
        <time>2025-07-22T14:49:51Z</time>
      </trkpt>
      <trkpt lat="42.978" lon="-0.40851">
        <ele>678.2</ele>
        <time>2025-07-22T14:49:52Z</time>
      </trkpt>
      <trkpt lat="42.978" lon="-0.40865">
        <ele>678</ele>
        <time>2025-07-22T14:49:53Z</time>
      </trkpt>
      <trkpt lat="42.97799" lon="-0.4091">
        <ele>676.8</ele>
        <time>2025-07-22T14:49:56Z</time>
      </trkpt>
      <trkpt lat="42.97803" lon="-0.40934">
        <ele>676.2</ele>
        <time>2025-07-22T14:49:58Z</time>
      </trkpt>
      <trkpt lat="42.97808" lon="-0.4095">
        <ele>675.2</ele>
        <time>2025-07-22T14:49:59Z</time>
      </trkpt>
      <trkpt lat="42.97819" lon="-0.40976">
        <ele>673.8</ele>
        <time>2025-07-22T14:50:01Z</time>
      </trkpt>
      <trkpt lat="42.9783" lon="-0.40998">
        <ele>672.6</ele>
        <time>2025-07-22T14:50:03Z</time>
      </trkpt>
      <trkpt lat="42.97839" lon="-0.41026">
        <ele>671.6</ele>
        <time>2025-07-22T14:50:05Z</time>
      </trkpt>
      <trkpt lat="42.97841" lon="-0.4104">
        <ele>671</ele>
        <time>2025-07-22T14:50:06Z</time>
      </trkpt>
      <trkpt lat="42.97842" lon="-0.41051">
        <ele>670.8</ele>
        <time>2025-07-22T14:50:07Z</time>
      </trkpt>
      <trkpt lat="42.97841" lon="-0.41065">
        <ele>669.8</ele>
        <time>2025-07-22T14:50:08Z</time>
      </trkpt>
      <trkpt lat="42.97839" lon="-0.41081">
        <ele>669.2</ele>
        <time>2025-07-22T14:50:09Z</time>
      </trkpt>
      <trkpt lat="42.97836" lon="-0.41093">
        <ele>668.4</ele>
        <time>2025-07-22T14:50:10Z</time>
      </trkpt>
      <trkpt lat="42.9783" lon="-0.4112">
        <ele>667.4</ele>
        <time>2025-07-22T14:50:12Z</time>
      </trkpt>
      <trkpt lat="42.97825" lon="-0.41148">
        <ele>666</ele>
        <time>2025-07-22T14:50:14Z</time>
      </trkpt>
      <trkpt lat="42.97823" lon="-0.41163">
        <ele>665.2</ele>
        <time>2025-07-22T14:50:15Z</time>
      </trkpt>
      <trkpt lat="42.97822" lon="-0.41178">
        <ele>664.8</ele>
        <time>2025-07-22T14:50:16Z</time>
      </trkpt>
      <trkpt lat="42.97817" lon="-0.41204">
        <ele>663.4</ele>
        <time>2025-07-22T14:50:18Z</time>
      </trkpt>
      <trkpt lat="42.97813" lon="-0.41218">
        <ele>663</ele>
        <time>2025-07-22T14:50:19Z</time>
      </trkpt>
      <trkpt lat="42.97808" lon="-0.41233">
        <ele>662.4</ele>
        <time>2025-07-22T14:50:20Z</time>
      </trkpt>
      <trkpt lat="42.97793" lon="-0.41275">
        <ele>660.8</ele>
        <time>2025-07-22T14:50:23Z</time>
      </trkpt>
      <trkpt lat="42.97786" lon="-0.41305">
        <ele>659.4</ele>
        <time>2025-07-22T14:50:25Z</time>
      </trkpt>
      <trkpt lat="42.97783" lon="-0.41337">
        <ele>658.2</ele>
        <time>2025-07-22T14:50:27Z</time>
      </trkpt>
      <trkpt lat="42.97777" lon="-0.41383">
        <ele>656.8</ele>
        <time>2025-07-22T14:50:30Z</time>
      </trkpt>
      <trkpt lat="42.97768" lon="-0.41412">
        <ele>655</ele>
        <time>2025-07-22T14:50:32Z</time>
      </trkpt>
      <trkpt lat="42.97759" lon="-0.41437">
        <ele>654</ele>
        <time>2025-07-22T14:50:34Z</time>
      </trkpt>
      <trkpt lat="42.97754" lon="-0.41454">
        <ele>653.4</ele>
        <time>2025-07-22T14:50:35Z</time>
      </trkpt>
      <trkpt lat="42.97751" lon="-0.41469">
        <ele>653</ele>
        <time>2025-07-22T14:50:36Z</time>
      </trkpt>
      <trkpt lat="42.97749" lon="-0.41482">
        <ele>652.6</ele>
        <time>2025-07-22T14:50:37Z</time>
      </trkpt>
      <trkpt lat="42.97747" lon="-0.41497">
        <ele>652</ele>
        <time>2025-07-22T14:50:38Z</time>
      </trkpt>
      <trkpt lat="42.97746" lon="-0.41512">
        <ele>651.6</ele>
        <time>2025-07-22T14:50:39Z</time>
      </trkpt>
      <trkpt lat="42.97746" lon="-0.41527">
        <ele>651.4</ele>
        <time>2025-07-22T14:50:40Z</time>
      </trkpt>
      <trkpt lat="42.97749" lon="-0.41557">
        <ele>650.4</ele>
        <time>2025-07-22T14:50:42Z</time>
      </trkpt>
      <trkpt lat="42.97752" lon="-0.41584">
        <ele>649</ele>
        <time>2025-07-22T14:50:44Z</time>
      </trkpt>
      <trkpt lat="42.97755" lon="-0.41616">
        <ele>647.6</ele>
        <time>2025-07-22T14:50:46Z</time>
      </trkpt>
      <trkpt lat="42.97754" lon="-0.41632">
        <ele>647.4</ele>
        <time>2025-07-22T14:50:47Z</time>
      </trkpt>
      <trkpt lat="42.9775" lon="-0.41662">
        <ele>646.4</ele>
        <time>2025-07-22T14:50:49Z</time>
      </trkpt>
      <trkpt lat="42.97742" lon="-0.41692">
        <ele>645.2</ele>
        <time>2025-07-22T14:50:51Z</time>
      </trkpt>
      <trkpt lat="42.97731" lon="-0.41716">
        <ele>644</ele>
        <time>2025-07-22T14:50:53Z</time>
      </trkpt>
      <trkpt lat="42.97716" lon="-0.41742">
        <ele>642.8</ele>
        <time>2025-07-22T14:50:55Z</time>
      </trkpt>
      <trkpt lat="42.97693" lon="-0.41778">
        <ele>641.4</ele>
        <time>2025-07-22T14:50:58Z</time>
      </trkpt>
      <trkpt lat="42.97678" lon="-0.41802">
        <ele>639.6</ele>
        <time>2025-07-22T14:51:00Z</time>
      </trkpt>
      <trkpt lat="42.97663" lon="-0.41829">
        <ele>638.6</ele>
        <time>2025-07-22T14:51:02Z</time>
      </trkpt>
      <trkpt lat="42.97651" lon="-0.41855">
        <ele>636.8</ele>
        <time>2025-07-22T14:51:04Z</time>
      </trkpt>
      <trkpt lat="42.9764" lon="-0.41883">
        <ele>635.6</ele>
        <time>2025-07-22T14:51:06Z</time>
      </trkpt>
      <trkpt lat="42.97632" lon="-0.41912">
        <ele>634.4</ele>
        <time>2025-07-22T14:51:08Z</time>
      </trkpt>
      <trkpt lat="42.97628" lon="-0.41937">
        <ele>633.4</ele>
        <time>2025-07-22T14:51:10Z</time>
      </trkpt>
      <trkpt lat="42.97624" lon="-0.41953">
        <ele>632.6</ele>
        <time>2025-07-22T14:51:11Z</time>
      </trkpt>
      <trkpt lat="42.97619" lon="-0.41966">
        <ele>632.2</ele>
        <time>2025-07-22T14:51:12Z</time>
      </trkpt>
      <trkpt lat="42.97614" lon="-0.41979">
        <ele>631.4</ele>
        <time>2025-07-22T14:51:13Z</time>
      </trkpt>
      <trkpt lat="42.97608" lon="-0.41988">
        <ele>630.6</ele>
        <time>2025-07-22T14:51:14Z</time>
      </trkpt>
      <trkpt lat="42.97601" lon="-0.41998">
        <ele>629.8</ele>
        <time>2025-07-22T14:51:15Z</time>
      </trkpt>
      <trkpt lat="42.97594" lon="-0.42008">
        <ele>629</ele>
        <time>2025-07-22T14:51:16Z</time>
      </trkpt>
      <trkpt lat="42.97577" lon="-0.42026">
        <ele>627.6</ele>
        <time>2025-07-22T14:51:18Z</time>
      </trkpt>
      <trkpt lat="42.97573" lon="-0.42034">
        <ele>627.4</ele>
        <time>2025-07-22T14:51:19Z</time>
      </trkpt>
      <trkpt lat="42.97568" lon="-0.42044">
        <ele>626.6</ele>
        <time>2025-07-22T14:51:20Z</time>
      </trkpt>
      <trkpt lat="42.97567" lon="-0.42055">
        <ele>626.2</ele>
        <time>2025-07-22T14:51:21Z</time>
      </trkpt>
      <trkpt lat="42.97567" lon="-0.42067">
        <ele>625.8</ele>
        <time>2025-07-22T14:51:22Z</time>
      </trkpt>
      <trkpt lat="42.97569" lon="-0.42077">
        <ele>625.4</ele>
        <time>2025-07-22T14:51:23Z</time>
      </trkpt>
      <trkpt lat="42.97574" lon="-0.42084">
        <ele>625.4</ele>
        <time>2025-07-22T14:51:24Z</time>
      </trkpt>
      <trkpt lat="42.97585" lon="-0.42089">
        <ele>624.6</ele>
        <time>2025-07-22T14:51:26Z</time>
      </trkpt>
      <trkpt lat="42.97591" lon="-0.4209">
        <ele>624</ele>
        <time>2025-07-22T14:51:27Z</time>
      </trkpt>
      <trkpt lat="42.97596" lon="-0.4208">
        <ele>623.6</ele>
        <time>2025-07-22T14:51:28Z</time>
      </trkpt>
      <trkpt lat="42.97601" lon="-0.42066">
        <ele>623.6</ele>
        <time>2025-07-22T14:51:29Z</time>
      </trkpt>
      <trkpt lat="42.97604" lon="-0.42054">
        <ele>623.2</ele>
        <time>2025-07-22T14:51:30Z</time>
      </trkpt>
      <trkpt lat="42.97621" lon="-0.42004">
        <ele>622.2</ele>
        <time>2025-07-22T14:51:34Z</time>
      </trkpt>
      <trkpt lat="42.97625" lon="-0.41993">
        <ele>621.8</ele>
        <time>2025-07-22T14:51:35Z</time>
      </trkpt>
      <trkpt lat="42.97646" lon="-0.41946">
        <ele>620.4</ele>
        <time>2025-07-22T14:51:39Z</time>
      </trkpt>
      <trkpt lat="42.97662" lon="-0.41914">
        <ele>619.4</ele>
        <time>2025-07-22T14:51:42Z</time>
      </trkpt>
      <trkpt lat="42.9768" lon="-0.41882">
        <ele>618.2</ele>
        <time>2025-07-22T14:51:45Z</time>
      </trkpt>
      <trkpt lat="42.97693" lon="-0.41859">
        <ele>617.6</ele>
        <time>2025-07-22T14:51:47Z</time>
      </trkpt>
      <trkpt lat="42.97699" lon="-0.41849">
        <ele>617.2</ele>
        <time>2025-07-22T14:51:48Z</time>
      </trkpt>
      <trkpt lat="42.97705" lon="-0.41839">
        <ele>617</ele>
        <time>2025-07-22T14:51:49Z</time>
      </trkpt>
      <trkpt lat="42.97711" lon="-0.41831">
        <ele>616</ele>
        <time>2025-07-22T14:51:50Z</time>
      </trkpt>
      <trkpt lat="42.97718" lon="-0.41821">
        <ele>615.2</ele>
        <time>2025-07-22T14:51:51Z</time>
      </trkpt>
      <trkpt lat="42.97727" lon="-0.4181">
        <ele>614.8</ele>
        <time>2025-07-22T14:51:52Z</time>
      </trkpt>
      <trkpt lat="42.97749" lon="-0.41783">
        <ele>613.2</ele>
        <time>2025-07-22T14:51:55Z</time>
      </trkpt>
      <trkpt lat="42.97758" lon="-0.41774">
        <ele>613</ele>
        <time>2025-07-22T14:51:56Z</time>
      </trkpt>
      <trkpt lat="42.97774" lon="-0.41754">
        <ele>611.8</ele>
        <time>2025-07-22T14:51:58Z</time>
      </trkpt>
      <trkpt lat="42.97787" lon="-0.41736">
        <ele>610.6</ele>
        <time>2025-07-22T14:52:00Z</time>
      </trkpt>
      <trkpt lat="42.97801" lon="-0.41713">
        <ele>609.6</ele>
        <time>2025-07-22T14:52:02Z</time>
      </trkpt>
      <trkpt lat="42.97808" lon="-0.41702">
        <ele>609</ele>
        <time>2025-07-22T14:52:03Z</time>
      </trkpt>
      <trkpt lat="42.97821" lon="-0.4168">
        <ele>607.4</ele>
        <time>2025-07-22T14:52:05Z</time>
      </trkpt>
      <trkpt lat="42.97844" lon="-0.41649">
        <ele>606.2</ele>
        <time>2025-07-22T14:52:08Z</time>
      </trkpt>
      <trkpt lat="42.97869" lon="-0.41622">
        <ele>605</ele>
        <time>2025-07-22T14:52:11Z</time>
      </trkpt>
      <trkpt lat="42.97877" lon="-0.41617">
        <ele>604</ele>
        <time>2025-07-22T14:52:12Z</time>
      </trkpt>
      <trkpt lat="42.97889" lon="-0.41611">
        <ele>603.8</ele>
        <time>2025-07-22T14:52:13Z</time>
      </trkpt>
      <trkpt lat="42.97914" lon="-0.41593">
        <ele>602</ele>
        <time>2025-07-22T14:52:16Z</time>
      </trkpt>
      <trkpt lat="42.97923" lon="-0.41585">
        <ele>601.6</ele>
        <time>2025-07-22T14:52:17Z</time>
      </trkpt>
      <trkpt lat="42.97939" lon="-0.41563">
        <ele>600</ele>
        <time>2025-07-22T14:52:19Z</time>
      </trkpt>
      <trkpt lat="42.97949" lon="-0.4154">
        <ele>598.8</ele>
        <time>2025-07-22T14:52:21Z</time>
      </trkpt>
      <trkpt lat="42.97959" lon="-0.4151">
        <ele>597.8</ele>
        <time>2025-07-22T14:52:23Z</time>
      </trkpt>
      <trkpt lat="42.97966" lon="-0.41483">
        <ele>596.6</ele>
        <time>2025-07-22T14:52:25Z</time>
      </trkpt>
      <trkpt lat="42.97976" lon="-0.41463">
        <ele>596</ele>
        <time>2025-07-22T14:52:27Z</time>
      </trkpt>
      <trkpt lat="42.97982" lon="-0.41456">
        <ele>595.4</ele>
        <time>2025-07-22T14:52:28Z</time>
      </trkpt>
      <trkpt lat="42.97991" lon="-0.41452">
        <ele>595</ele>
        <time>2025-07-22T14:52:29Z</time>
      </trkpt>
      <trkpt lat="42.98009" lon="-0.41456">
        <ele>594.2</ele>
        <time>2025-07-22T14:52:31Z</time>
      </trkpt>
      <trkpt lat="42.98014" lon="-0.41461">
        <ele>593.8</ele>
        <time>2025-07-22T14:52:32Z</time>
      </trkpt>
      <trkpt lat="42.98018" lon="-0.4147">
        <ele>593.4</ele>
        <time>2025-07-22T14:52:33Z</time>
      </trkpt>
      <trkpt lat="42.9802" lon="-0.41482">
        <ele>593.2</ele>
        <time>2025-07-22T14:52:34Z</time>
      </trkpt>
      <trkpt lat="42.98018" lon="-0.41493">
        <ele>592.8</ele>
        <time>2025-07-22T14:52:35Z</time>
      </trkpt>
      <trkpt lat="42.98015" lon="-0.41502">
        <ele>592.6</ele>
        <time>2025-07-22T14:52:36Z</time>
      </trkpt>
      <trkpt lat="42.98009" lon="-0.41511">
        <ele>592.2</ele>
        <time>2025-07-22T14:52:37Z</time>
      </trkpt>
      <trkpt lat="42.97997" lon="-0.41533">
        <ele>591.8</ele>
        <time>2025-07-22T14:52:39Z</time>
      </trkpt>
      <trkpt lat="42.97992" lon="-0.41545">
        <ele>591.4</ele>
        <time>2025-07-22T14:52:40Z</time>
      </trkpt>
      <trkpt lat="42.97987" lon="-0.41556">
        <ele>591.2</ele>
        <time>2025-07-22T14:52:41Z</time>
      </trkpt>
      <trkpt lat="42.97976" lon="-0.41579">
        <ele>590.4</ele>
        <time>2025-07-22T14:52:43Z</time>
      </trkpt>
      <trkpt lat="42.9797" lon="-0.4159">
        <ele>589.2</ele>
        <time>2025-07-22T14:52:44Z</time>
      </trkpt>
      <trkpt lat="42.97956" lon="-0.41611">
        <ele>588</ele>
        <time>2025-07-22T14:52:46Z</time>
      </trkpt>
      <trkpt lat="42.97939" lon="-0.41631">
        <ele>586.8</ele>
        <time>2025-07-22T14:52:48Z</time>
      </trkpt>
      <trkpt lat="42.9793" lon="-0.41641">
        <ele>586</ele>
        <time>2025-07-22T14:52:49Z</time>
      </trkpt>
      <trkpt lat="42.97922" lon="-0.4165">
        <ele>585.6</ele>
        <time>2025-07-22T14:52:50Z</time>
      </trkpt>
      <trkpt lat="42.97897" lon="-0.41676">
        <ele>584.4</ele>
        <time>2025-07-22T14:52:53Z</time>
      </trkpt>
      <trkpt lat="42.97888" lon="-0.41688">
        <ele>584.2</ele>
        <time>2025-07-22T14:52:54Z</time>
      </trkpt>
      <trkpt lat="42.97874" lon="-0.41712">
        <ele>583.4</ele>
        <time>2025-07-22T14:52:56Z</time>
      </trkpt>
      <trkpt lat="42.97868" lon="-0.41725">
        <ele>582.8</ele>
        <time>2025-07-22T14:52:57Z</time>
      </trkpt>
      <trkpt lat="42.97862" lon="-0.4174">
        <ele>581.8</ele>
        <time>2025-07-22T14:52:58Z</time>
      </trkpt>
      <trkpt lat="42.97853" lon="-0.4177">
        <ele>580.2</ele>
        <time>2025-07-22T14:53:00Z</time>
      </trkpt>
      <trkpt lat="42.97847" lon="-0.41796">
        <ele>579</ele>
        <time>2025-07-22T14:53:02Z</time>
      </trkpt>
      <trkpt lat="42.9783" lon="-0.41836">
        <ele>577.4</ele>
        <time>2025-07-22T14:53:05Z</time>
      </trkpt>
      <trkpt lat="42.97824" lon="-0.41848">
        <ele>577</ele>
        <time>2025-07-22T14:53:06Z</time>
      </trkpt>
      <trkpt lat="42.97818" lon="-0.4186">
        <ele>576.2</ele>
        <time>2025-07-22T14:53:07Z</time>
      </trkpt>
      <trkpt lat="42.97807" lon="-0.41891">
        <ele>575.2</ele>
        <time>2025-07-22T14:53:09Z</time>
      </trkpt>
      <trkpt lat="42.97805" lon="-0.41903">
        <ele>574.6</ele>
        <time>2025-07-22T14:53:10Z</time>
      </trkpt>
      <trkpt lat="42.97804" lon="-0.41913">
        <ele>574.2</ele>
        <time>2025-07-22T14:53:11Z</time>
      </trkpt>
      <trkpt lat="42.97803" lon="-0.41927">
        <ele>573.4</ele>
        <time>2025-07-22T14:53:12Z</time>
      </trkpt>
      <trkpt lat="42.97802" lon="-0.41942">
        <ele>573.2</ele>
        <time>2025-07-22T14:53:13Z</time>
      </trkpt>
      <trkpt lat="42.978" lon="-0.41956">
        <ele>572.6</ele>
        <time>2025-07-22T14:53:14Z</time>
      </trkpt>
      <trkpt lat="42.97797" lon="-0.41972">
        <ele>571.4</ele>
        <time>2025-07-22T14:53:15Z</time>
      </trkpt>
      <trkpt lat="42.97791" lon="-0.41995">
        <ele>570.2</ele>
        <time>2025-07-22T14:53:17Z</time>
      </trkpt>
      <trkpt lat="42.97785" lon="-0.42013">
        <ele>569.2</ele>
        <time>2025-07-22T14:53:19Z</time>
      </trkpt>
      <trkpt lat="42.97779" lon="-0.42034">
        <ele>568.2</ele>
        <time>2025-07-22T14:53:21Z</time>
      </trkpt>
      <trkpt lat="42.97778" lon="-0.42043">
        <ele>567.6</ele>
        <time>2025-07-22T14:53:22Z</time>
      </trkpt>
      <trkpt lat="42.97779" lon="-0.42052">
        <ele>567</ele>
        <time>2025-07-22T14:53:23Z</time>
      </trkpt>
      <trkpt lat="42.97785" lon="-0.42065">
        <ele>566</ele>
        <time>2025-07-22T14:53:25Z</time>
      </trkpt>
      <trkpt lat="42.97795" lon="-0.42065">
        <ele>565.4</ele>
        <time>2025-07-22T14:53:27Z</time>
      </trkpt>
      <trkpt lat="42.978" lon="-0.42061">
        <ele>565.2</ele>
        <time>2025-07-22T14:53:28Z</time>
      </trkpt>
      <trkpt lat="42.97803" lon="-0.42054">
        <ele>564.8</ele>
        <time>2025-07-22T14:53:29Z</time>
      </trkpt>
      <trkpt lat="42.97809" lon="-0.42023">
        <ele>564.2</ele>
        <time>2025-07-22T14:53:32Z</time>
      </trkpt>
      <trkpt lat="42.97811" lon="-0.42012">
        <ele>563.8</ele>
        <time>2025-07-22T14:53:33Z</time>
      </trkpt>
      <trkpt lat="42.9782" lon="-0.41981">
        <ele>562.8</ele>
        <time>2025-07-22T14:53:36Z</time>
      </trkpt>
      <trkpt lat="42.97822" lon="-0.41969">
        <ele>562.6</ele>
        <time>2025-07-22T14:53:37Z</time>
      </trkpt>
      <trkpt lat="42.97824" lon="-0.41957">
        <ele>562.2</ele>
        <time>2025-07-22T14:53:38Z</time>
      </trkpt>
      <trkpt lat="42.97828" lon="-0.41933">
        <ele>561.4</ele>
        <time>2025-07-22T14:53:40Z</time>
      </trkpt>
      <trkpt lat="42.97835" lon="-0.41902">
        <ele>559.8</ele>
        <time>2025-07-22T14:53:43Z</time>
      </trkpt>
      <trkpt lat="42.97839" lon="-0.41892">
        <ele>559.6</ele>
        <time>2025-07-22T14:53:44Z</time>
      </trkpt>
      <trkpt lat="42.97846" lon="-0.41881">
        <ele>558.8</ele>
        <time>2025-07-22T14:53:45Z</time>
      </trkpt>
      <trkpt lat="42.97853" lon="-0.41875">
        <ele>558.6</ele>
        <time>2025-07-22T14:53:46Z</time>
      </trkpt>
      <trkpt lat="42.97861" lon="-0.41873">
        <ele>558</ele>
        <time>2025-07-22T14:53:47Z</time>
      </trkpt>
      <trkpt lat="42.97869" lon="-0.41874">
        <ele>557.8</ele>
        <time>2025-07-22T14:53:48Z</time>
      </trkpt>
      <trkpt lat="42.97876" lon="-0.41877">
        <ele>557.6</ele>
        <time>2025-07-22T14:53:49Z</time>
      </trkpt>
      <trkpt lat="42.97886" lon="-0.41884">
        <ele>557.4</ele>
        <time>2025-07-22T14:53:50Z</time>
      </trkpt>
      <trkpt lat="42.97895" lon="-0.41907">
        <ele>556.2</ele>
        <time>2025-07-22T14:53:52Z</time>
      </trkpt>
      <trkpt lat="42.97897" lon="-0.41932">
        <ele>555.2</ele>
        <time>2025-07-22T14:53:54Z</time>
      </trkpt>
      <trkpt lat="42.97901" lon="-0.4196">
        <ele>554</ele>
        <time>2025-07-22T14:53:56Z</time>
      </trkpt>
      <trkpt lat="42.97912" lon="-0.41999">
        <ele>552.2</ele>
        <time>2025-07-22T14:53:59Z</time>
      </trkpt>
      <trkpt lat="42.97916" lon="-0.42011">
        <ele>552</ele>
        <time>2025-07-22T14:54:00Z</time>
      </trkpt>
      <trkpt lat="42.97922" lon="-0.42022">
        <ele>551.4</ele>
        <time>2025-07-22T14:54:01Z</time>
      </trkpt>
      <trkpt lat="42.97928" lon="-0.42032">
        <ele>551.2</ele>
        <time>2025-07-22T14:54:02Z</time>
      </trkpt>
      <trkpt lat="42.97935" lon="-0.42041">
        <ele>550.8</ele>
        <time>2025-07-22T14:54:03Z</time>
      </trkpt>
      <trkpt lat="42.97952" lon="-0.42055">
        <ele>550.2</ele>
        <time>2025-07-22T14:54:05Z</time>
      </trkpt>
      <trkpt lat="42.97961" lon="-0.42058">
        <ele>549.6</ele>
        <time>2025-07-22T14:54:06Z</time>
      </trkpt>
      <trkpt lat="42.97979" lon="-0.4206">
        <ele>549.2</ele>
        <time>2025-07-22T14:54:08Z</time>
      </trkpt>
      <trkpt lat="42.98012" lon="-0.42065">
        <ele>548.4</ele>
        <time>2025-07-22T14:54:12Z</time>
      </trkpt>
      <trkpt lat="42.9802" lon="-0.42066">
        <ele>548.2</ele>
        <time>2025-07-22T14:54:13Z</time>
      </trkpt>
      <trkpt lat="42.98073" lon="-0.42074">
        <ele>547.2</ele>
        <time>2025-07-22T14:54:20Z</time>
      </trkpt>
      <trkpt lat="42.98116" lon="-0.42084">
        <ele>546.4</ele>
        <time>2025-07-22T14:54:26Z</time>
      </trkpt>
      <trkpt lat="42.98122" lon="-0.42089">
        <ele>546.2</ele>
        <time>2025-07-22T14:54:27Z</time>
      </trkpt>
      <trkpt lat="42.98128" lon="-0.42094">
        <ele>546.2</ele>
        <time>2025-07-22T14:54:28Z</time>
      </trkpt>
      <trkpt lat="42.98136" lon="-0.42109">
        <ele>545.8</ele>
        <time>2025-07-22T14:54:30Z</time>
      </trkpt>
      <trkpt lat="42.98142" lon="-0.42127">
        <ele>545.2</ele>
        <time>2025-07-22T14:54:32Z</time>
      </trkpt>
      <trkpt lat="42.98148" lon="-0.42153">
        <ele>545</ele>
        <time>2025-07-22T14:54:35Z</time>
      </trkpt>
      <trkpt lat="42.98163" lon="-0.42219">
        <ele>544.6</ele>
        <time>2025-07-22T14:54:43Z</time>
      </trkpt>
      <trkpt lat="42.98167" lon="-0.42237">
        <ele>544.6</ele>
        <time>2025-07-22T14:54:45Z</time>
      </trkpt>
      <trkpt lat="42.98179" lon="-0.42291">
        <ele>544.4</ele>
        <time>2025-07-22T14:54:52Z</time>
      </trkpt>
      <trkpt lat="42.98182" lon="-0.42307">
        <ele>544.4</ele>
        <time>2025-07-22T14:54:54Z</time>
      </trkpt>
      <trkpt lat="42.98187" lon="-0.42344">
        <ele>544.6</ele>
        <time>2025-07-22T14:54:59Z</time>
      </trkpt>
      <trkpt lat="42.98193" lon="-0.42404">
        <ele>545.8</ele>
        <time>2025-07-22T14:55:07Z</time>
      </trkpt>
      <trkpt lat="42.98194" lon="-0.42411">
        <ele>545.8</ele>
        <time>2025-07-22T14:55:08Z</time>
      </trkpt>
      <trkpt lat="42.98199" lon="-0.42447">
        <ele>546.4</ele>
        <time>2025-07-22T14:55:13Z</time>
      </trkpt>
      <trkpt lat="42.98203" lon="-0.42481">
        <ele>547.2</ele>
        <time>2025-07-22T14:55:18Z</time>
      </trkpt>
      <trkpt lat="42.98207" lon="-0.42507">
        <ele>547.6</ele>
        <time>2025-07-22T14:55:22Z</time>
      </trkpt>
      <trkpt lat="42.98216" lon="-0.42561">
        <ele>548</ele>
        <time>2025-07-22T14:55:31Z</time>
      </trkpt>
      <trkpt lat="42.9822" lon="-0.42578">
        <ele>548.4</ele>
        <time>2025-07-22T14:55:34Z</time>
      </trkpt>
      <trkpt lat="42.98225" lon="-0.42589">
        <ele>548.6</ele>
        <time>2025-07-22T14:55:36Z</time>
      </trkpt>
      <trkpt lat="42.98232" lon="-0.42605">
        <ele>549.2</ele>
        <time>2025-07-22T14:55:39Z</time>
      </trkpt>
      <trkpt lat="42.98238" lon="-0.42616">
        <ele>549.6</ele>
        <time>2025-07-22T14:55:41Z</time>
      </trkpt>
      <trkpt lat="42.98248" lon="-0.42638">
        <ele>550</ele>
        <time>2025-07-22T14:55:45Z</time>
      </trkpt>
      <trkpt lat="42.98267" lon="-0.42681">
        <ele>550.6</ele>
        <time>2025-07-22T14:55:53Z</time>
      </trkpt>
      <trkpt lat="42.98272" lon="-0.42691">
        <ele>550.8</ele>
        <time>2025-07-22T14:55:55Z</time>
      </trkpt>
      <trkpt lat="42.9828" lon="-0.42705">
        <ele>551</ele>
        <time>2025-07-22T14:55:58Z</time>
      </trkpt>
      <trkpt lat="42.9829" lon="-0.42716">
        <ele>551</ele>
        <time>2025-07-22T14:56:01Z</time>
      </trkpt>
      <trkpt lat="42.98305" lon="-0.42734">
        <ele>551.8</ele>
        <time>2025-07-22T14:56:06Z</time>
      </trkpt>
      <trkpt lat="42.98312" lon="-0.42741">
        <ele>552.2</ele>
        <time>2025-07-22T14:56:08Z</time>
      </trkpt>
      <trkpt lat="42.98329" lon="-0.42761">
        <ele>553.2</ele>
        <time>2025-07-22T14:56:14Z</time>
      </trkpt>
      <trkpt lat="42.9834" lon="-0.42774">
        <ele>554</ele>
        <time>2025-07-22T14:56:18Z</time>
      </trkpt>
      <trkpt lat="42.98345" lon="-0.4278">
        <ele>554.4</ele>
        <time>2025-07-22T14:56:20Z</time>
      </trkpt>
      <trkpt lat="42.98358" lon="-0.4279">
        <ele>555.2</ele>
        <time>2025-07-22T14:56:24Z</time>
      </trkpt>
      <trkpt lat="42.98362" lon="-0.42791">
        <ele>555.4</ele>
        <time>2025-07-22T14:56:25Z</time>
      </trkpt>
      <trkpt lat="42.9837" lon="-0.42792">
        <ele>555.6</ele>
        <time>2025-07-22T14:56:27Z</time>
      </trkpt>
      <trkpt lat="42.98386" lon="-0.42791">
        <ele>556.4</ele>
        <time>2025-07-22T14:56:31Z</time>
      </trkpt>
      <trkpt lat="42.98399" lon="-0.42787">
        <ele>556.8</ele>
        <time>2025-07-22T14:56:34Z</time>
      </trkpt>
      <trkpt lat="42.98413" lon="-0.42782">
        <ele>556.8</ele>
        <time>2025-07-22T14:56:37Z</time>
      </trkpt>
      <trkpt lat="42.9842" lon="-0.42779">
        <ele>557.2</ele>
        <time>2025-07-22T14:56:39Z</time>
      </trkpt>
      <trkpt lat="42.98446" lon="-0.42768">
        <ele>558</ele>
        <time>2025-07-22T14:56:45Z</time>
      </trkpt>
      <trkpt lat="42.98463" lon="-0.4276">
        <ele>558.4</ele>
        <time>2025-07-22T14:56:49Z</time>
      </trkpt>
      <trkpt lat="42.98499" lon="-0.42744">
        <ele>558.6</ele>
        <time>2025-07-22T14:56:57Z</time>
      </trkpt>
      <trkpt lat="42.98513" lon="-0.42738">
        <ele>558.8</ele>
        <time>2025-07-22T14:57:00Z</time>
      </trkpt>
      <trkpt lat="42.98544" lon="-0.42725">
        <ele>559.4</ele>
        <time>2025-07-22T14:57:07Z</time>
      </trkpt>
      <trkpt lat="42.9856" lon="-0.42719">
        <ele>559.6</ele>
        <time>2025-07-22T14:57:11Z</time>
      </trkpt>
      <trkpt lat="42.98573" lon="-0.42715">
        <ele>559.8</ele>
        <time>2025-07-22T14:57:14Z</time>
      </trkpt>
      <trkpt lat="42.98587" lon="-0.42711">
        <ele>559.8</ele>
        <time>2025-07-22T14:57:17Z</time>
      </trkpt>
      <trkpt lat="42.98591" lon="-0.42709">
        <ele>559.8</ele>
        <time>2025-07-22T14:57:18Z</time>
      </trkpt>
      <trkpt lat="42.98599" lon="-0.42705">
        <ele>559.8</ele>
        <time>2025-07-22T14:57:20Z</time>
      </trkpt>
      <trkpt lat="42.9862" lon="-0.42697">
        <ele>560</ele>
        <time>2025-07-22T14:57:25Z</time>
      </trkpt>
      <trkpt lat="42.98653" lon="-0.42683">
        <ele>560.2</ele>
        <time>2025-07-22T14:57:32Z</time>
      </trkpt>
      <trkpt lat="42.98661" lon="-0.4268">
        <ele>560.2</ele>
        <time>2025-07-22T14:57:34Z</time>
      </trkpt>
      <trkpt lat="42.98665" lon="-0.42678">
        <ele>560</ele>
        <time>2025-07-22T14:57:35Z</time>
      </trkpt>
      <trkpt lat="42.9868" lon="-0.42671">
        <ele>560</ele>
        <time>2025-07-22T14:57:38Z</time>
      </trkpt>
      <trkpt lat="42.98693" lon="-0.42663">
        <ele>560</ele>
        <time>2025-07-22T14:57:41Z</time>
      </trkpt>
      <trkpt lat="42.98701" lon="-0.42659">
        <ele>559.8</ele>
        <time>2025-07-22T14:57:43Z</time>
      </trkpt>
      <trkpt lat="42.98714" lon="-0.42655">
        <ele>559.6</ele>
        <time>2025-07-22T14:57:46Z</time>
      </trkpt>
      <trkpt lat="42.98724" lon="-0.42653">
        <ele>559.4</ele>
        <time>2025-07-22T14:57:48Z</time>
      </trkpt>
      <trkpt lat="42.98746" lon="-0.42645">
        <ele>559.4</ele>
        <time>2025-07-22T14:57:54Z</time>
      </trkpt>
      <trkpt lat="42.9875" lon="-0.42645">
        <ele>559.2</ele>
        <time>2025-07-22T14:57:55Z</time>
      </trkpt>
      <trkpt lat="42.98759" lon="-0.42642">
        <ele>558.8</ele>
        <time>2025-07-22T14:57:59Z</time>
      </trkpt>
      <trkpt lat="42.98765" lon="-0.42642">
        <ele>558.8</ele>
        <time>2025-07-22T14:58:02Z</time>
      </trkpt>
      <trkpt lat="42.98765" lon="-0.42642">
        <ele>558.8</ele>
        <time>2025-07-22T14:58:05Z</time>
      </trkpt>
      <trkpt lat="42.98777" lon="-0.42641">
        <ele>559</ele>
        <time>2025-07-22T15:24:03Z</time>
      </trkpt>
      <trkpt lat="42.9877" lon="-0.42662">
        <ele>559</ele>
        <time>2025-07-22T15:24:04Z</time>
      </trkpt>
      <trkpt lat="42.98773" lon="-0.42653">
        <ele>559</ele>
        <time>2025-07-22T15:24:21Z</time>
      </trkpt>
      <trkpt lat="42.98773" lon="-0.42653">
        <ele>559</ele>
        <time>2025-07-22T15:24:22Z</time>
      </trkpt>
      <trkpt lat="42.98775" lon="-0.42653">
        <ele>559</ele>
        <time>2025-07-22T15:24:23Z</time>
      </trkpt>
      <trkpt lat="42.98776" lon="-0.42652">
        <ele>559</ele>
        <time>2025-07-22T15:24:25Z</time>
      </trkpt>
      <trkpt lat="42.98778" lon="-0.42653">
        <ele>559</ele>
        <time>2025-07-22T15:24:28Z</time>
      </trkpt>
      <trkpt lat="42.9878" lon="-0.42653">
        <ele>558.8</ele>
        <time>2025-07-22T15:24:31Z</time>
      </trkpt>
      <trkpt lat="42.9878" lon="-0.4265">
        <ele>558.8</ele>
        <time>2025-07-22T15:24:34Z</time>
      </trkpt>
      <trkpt lat="42.98781" lon="-0.42648">
        <ele>558.8</ele>
        <time>2025-07-22T15:24:35Z</time>
      </trkpt>
      <trkpt lat="42.98796" lon="-0.42639">
        <ele>559</ele>
        <time>2025-07-22T15:25:03Z</time>
      </trkpt>
      <trkpt lat="42.98799" lon="-0.42634">
        <ele>559.2</ele>
        <time>2025-07-22T15:25:05Z</time>
      </trkpt>
      <trkpt lat="42.98808" lon="-0.42612">
        <ele>558.6</ele>
        <time>2025-07-22T15:25:11Z</time>
      </trkpt>
      <trkpt lat="42.98809" lon="-0.42581">
        <ele>558.2</ele>
        <time>2025-07-22T15:25:17Z</time>
      </trkpt>
      <trkpt lat="42.98809" lon="-0.42576">
        <ele>558</ele>
        <time>2025-07-22T15:25:18Z</time>
      </trkpt>
      <trkpt lat="42.98809" lon="-0.42563">
        <ele>557.8</ele>
        <time>2025-07-22T15:25:21Z</time>
      </trkpt>
      <trkpt lat="42.9881" lon="-0.42538">
        <ele>556.8</ele>
        <time>2025-07-22T15:25:26Z</time>
      </trkpt>
      <trkpt lat="42.9881" lon="-0.4253">
        <ele>556.6</ele>
        <time>2025-07-22T15:25:27Z</time>
      </trkpt>
      <trkpt lat="42.98811" lon="-0.42487">
        <ele>555.8</ele>
        <time>2025-07-22T15:25:32Z</time>
      </trkpt>
      <trkpt lat="42.98812" lon="-0.42445">
        <ele>554.6</ele>
        <time>2025-07-22T15:25:36Z</time>
      </trkpt>
      <trkpt lat="42.98812" lon="-0.42422">
        <ele>554</ele>
        <time>2025-07-22T15:25:38Z</time>
      </trkpt>
      <trkpt lat="42.98813" lon="-0.424">
        <ele>553.6</ele>
        <time>2025-07-22T15:25:40Z</time>
      </trkpt>
      <trkpt lat="42.98814" lon="-0.42362">
        <ele>551.8</ele>
        <time>2025-07-22T15:25:43Z</time>
      </trkpt>
      <trkpt lat="42.98814" lon="-0.42349">
        <ele>551.6</ele>
        <time>2025-07-22T15:25:44Z</time>
      </trkpt>
      <trkpt lat="42.98815" lon="-0.42323">
        <ele>550.4</ele>
        <time>2025-07-22T15:25:46Z</time>
      </trkpt>
      <trkpt lat="42.98816" lon="-0.42286">
        <ele>549.2</ele>
        <time>2025-07-22T15:25:49Z</time>
      </trkpt>
      <trkpt lat="42.98817" lon="-0.42264">
        <ele>548.2</ele>
        <time>2025-07-22T15:25:50Z</time>
      </trkpt>
      <trkpt lat="42.98818" lon="-0.42254">
        <ele>548</ele>
        <time>2025-07-22T15:25:51Z</time>
      </trkpt>
      <trkpt lat="42.98824" lon="-0.42238">
        <ele>546.8</ele>
        <time>2025-07-22T15:25:53Z</time>
      </trkpt>
      <trkpt lat="42.9883" lon="-0.42232">
        <ele>546.4</ele>
        <time>2025-07-22T15:25:54Z</time>
      </trkpt>
      <trkpt lat="42.98837" lon="-0.4223">
        <ele>545.6</ele>
        <time>2025-07-22T15:25:55Z</time>
      </trkpt>
      <trkpt lat="42.9885" lon="-0.4223">
        <ele>544.6</ele>
        <time>2025-07-22T15:25:57Z</time>
      </trkpt>
      <trkpt lat="42.98871" lon="-0.42235">
        <ele>543.2</ele>
        <time>2025-07-22T15:26:00Z</time>
      </trkpt>
      <trkpt lat="42.98911" lon="-0.42244">
        <ele>542.4</ele>
        <time>2025-07-22T15:26:06Z</time>
      </trkpt>
      <trkpt lat="42.98956" lon="-0.42254">
        <ele>542.2</ele>
        <time>2025-07-22T15:26:13Z</time>
      </trkpt>
      <trkpt lat="42.98975" lon="-0.42257">
        <ele>542.2</ele>
        <time>2025-07-22T15:26:16Z</time>
      </trkpt>
      <trkpt lat="42.98988" lon="-0.42255">
        <ele>542</ele>
        <time>2025-07-22T15:26:18Z</time>
      </trkpt>
      <trkpt lat="42.99001" lon="-0.42248">
        <ele>541.8</ele>
        <time>2025-07-22T15:26:20Z</time>
      </trkpt>
      <trkpt lat="42.99049" lon="-0.42214">
        <ele>541.4</ele>
        <time>2025-07-22T15:26:28Z</time>
      </trkpt>
      <trkpt lat="42.99055" lon="-0.42211">
        <ele>541.4</ele>
        <time>2025-07-22T15:26:29Z</time>
      </trkpt>
      <trkpt lat="42.99068" lon="-0.42209">
        <ele>541</ele>
        <time>2025-07-22T15:26:31Z</time>
      </trkpt>
      <trkpt lat="42.99075" lon="-0.42209">
        <ele>540.8</ele>
        <time>2025-07-22T15:26:32Z</time>
      </trkpt>
      <trkpt lat="42.99115" lon="-0.42217">
        <ele>540.4</ele>
        <time>2025-07-22T15:26:38Z</time>
      </trkpt>
      <trkpt lat="42.99129" lon="-0.4222">
        <ele>540.2</ele>
        <time>2025-07-22T15:26:40Z</time>
      </trkpt>
      <trkpt lat="42.99183" lon="-0.42232">
        <ele>539.4</ele>
        <time>2025-07-22T15:26:48Z</time>
      </trkpt>
      <trkpt lat="42.9919" lon="-0.42233">
        <ele>539.4</ele>
        <time>2025-07-22T15:26:49Z</time>
      </trkpt>
      <trkpt lat="42.99197" lon="-0.42234">
        <ele>539.2</ele>
        <time>2025-07-22T15:26:50Z</time>
      </trkpt>
      <trkpt lat="42.99241" lon="-0.42241">
        <ele>538.8</ele>
        <time>2025-07-22T15:26:56Z</time>
      </trkpt>
      <trkpt lat="42.99266" lon="-0.42237">
        <ele>538.2</ele>
        <time>2025-07-22T15:26:59Z</time>
      </trkpt>
      <trkpt lat="42.99284" lon="-0.42234">
        <ele>537.8</ele>
        <time>2025-07-22T15:27:01Z</time>
      </trkpt>
      <trkpt lat="42.99303" lon="-0.42231">
        <ele>537.2</ele>
        <time>2025-07-22T15:27:03Z</time>
      </trkpt>
      <trkpt lat="42.99321" lon="-0.42228">
        <ele>536.2</ele>
        <time>2025-07-22T15:27:05Z</time>
      </trkpt>
      <trkpt lat="42.99341" lon="-0.42226">
        <ele>535</ele>
        <time>2025-07-22T15:27:07Z</time>
      </trkpt>
      <trkpt lat="42.99351" lon="-0.42225">
        <ele>534.6</ele>
        <time>2025-07-22T15:27:08Z</time>
      </trkpt>
      <trkpt lat="42.99361" lon="-0.42223">
        <ele>534</ele>
        <time>2025-07-22T15:27:09Z</time>
      </trkpt>
      <trkpt lat="42.99391" lon="-0.42219">
        <ele>532.4</ele>
        <time>2025-07-22T15:27:12Z</time>
      </trkpt>
      <trkpt lat="42.9941" lon="-0.42217">
        <ele>530.8</ele>
        <time>2025-07-22T15:27:14Z</time>
      </trkpt>
      <trkpt lat="42.99438" lon="-0.42213">
        <ele>529.8</ele>
        <time>2025-07-22T15:27:17Z</time>
      </trkpt>
      <trkpt lat="42.99455" lon="-0.42212">
        <ele>529</ele>
        <time>2025-07-22T15:27:19Z</time>
      </trkpt>
      <trkpt lat="42.99466" lon="-0.4221">
        <ele>528.6</ele>
        <time>2025-07-22T15:27:20Z</time>
      </trkpt>
      <trkpt lat="42.99491" lon="-0.42207">
        <ele>527.4</ele>
        <time>2025-07-22T15:27:23Z</time>
      </trkpt>
      <trkpt lat="42.99526" lon="-0.42203">
        <ele>526.4</ele>
        <time>2025-07-22T15:27:27Z</time>
      </trkpt>
      <trkpt lat="42.99535" lon="-0.42202">
        <ele>526.2</ele>
        <time>2025-07-22T15:27:28Z</time>
      </trkpt>
      <trkpt lat="42.9959" lon="-0.42196">
        <ele>525.4</ele>
        <time>2025-07-22T15:27:35Z</time>
      </trkpt>
      <trkpt lat="42.99605" lon="-0.42194">
        <ele>525</ele>
        <time>2025-07-22T15:27:37Z</time>
      </trkpt>
      <trkpt lat="42.99666" lon="-0.42186">
        <ele>524.6</ele>
        <time>2025-07-22T15:27:45Z</time>
      </trkpt>
      <trkpt lat="42.99702" lon="-0.42177">
        <ele>524.2</ele>
        <time>2025-07-22T15:27:51Z</time>
      </trkpt>
      <trkpt lat="42.99717" lon="-0.42173">
        <ele>524</ele>
        <time>2025-07-22T15:27:53Z</time>
      </trkpt>
      <trkpt lat="42.99769" lon="-0.42155">
        <ele>523.2</ele>
        <time>2025-07-22T15:27:59Z</time>
      </trkpt>
      <trkpt lat="42.99782" lon="-0.4215">
        <ele>523</ele>
        <time>2025-07-22T15:28:01Z</time>
      </trkpt>
      <trkpt lat="42.99828" lon="-0.42129">
        <ele>522</ele>
        <time>2025-07-22T15:28:07Z</time>
      </trkpt>
      <trkpt lat="42.99857" lon="-0.42117">
        <ele>522</ele>
        <time>2025-07-22T15:28:11Z</time>
      </trkpt>
      <trkpt lat="42.99904" lon="-0.42097">
        <ele>522.4</ele>
        <time>2025-07-22T15:28:18Z</time>
      </trkpt>
      <trkpt lat="42.9994" lon="-0.42082">
        <ele>522.8</ele>
        <time>2025-07-22T15:28:24Z</time>
      </trkpt>
      <trkpt lat="42.99963" lon="-0.42073">
        <ele>523.4</ele>
        <time>2025-07-22T15:28:28Z</time>
      </trkpt>
      <trkpt lat="42.99985" lon="-0.42063">
        <ele>523.6</ele>
        <time>2025-07-22T15:28:32Z</time>
      </trkpt>
      <trkpt lat="43.00022" lon="-0.42047">
        <ele>524.4</ele>
        <time>2025-07-22T15:28:39Z</time>
      </trkpt>
      <trkpt lat="43.00033" lon="-0.42043">
        <ele>524.6</ele>
        <time>2025-07-22T15:28:41Z</time>
      </trkpt>
      <trkpt lat="43.00051" lon="-0.42033">
        <ele>524.8</ele>
        <time>2025-07-22T15:28:45Z</time>
      </trkpt>
      <trkpt lat="43.00057" lon="-0.42027">
        <ele>524.8</ele>
        <time>2025-07-22T15:28:47Z</time>
      </trkpt>
      <trkpt lat="43.00086" lon="-0.4201">
        <ele>524.8</ele>
        <time>2025-07-22T15:28:55Z</time>
      </trkpt>
      <trkpt lat="43.00091" lon="-0.42009">
        <ele>524.8</ele>
        <time>2025-07-22T15:28:57Z</time>
      </trkpt>
      <trkpt lat="43.00097" lon="-0.42005">
        <ele>524.6</ele>
        <time>2025-07-22T15:28:59Z</time>
      </trkpt>
      <trkpt lat="43.00123" lon="-0.41989">
        <ele>523.8</ele>
        <time>2025-07-22T15:29:05Z</time>
      </trkpt>
      <trkpt lat="43.00161" lon="-0.41971">
        <ele>523.6</ele>
        <time>2025-07-22T15:29:12Z</time>
      </trkpt>
      <trkpt lat="43.00173" lon="-0.41967">
        <ele>523.4</ele>
        <time>2025-07-22T15:29:14Z</time>
      </trkpt>
      <trkpt lat="43.0021" lon="-0.41955">
        <ele>522.6</ele>
        <time>2025-07-22T15:29:20Z</time>
      </trkpt>
      <trkpt lat="43.0023" lon="-0.41951">
        <ele>522.2</ele>
        <time>2025-07-22T15:29:23Z</time>
      </trkpt>
      <trkpt lat="43.00263" lon="-0.41945">
        <ele>521.2</ele>
        <time>2025-07-22T15:29:28Z</time>
      </trkpt>
      <trkpt lat="43.00269" lon="-0.41944">
        <ele>521</ele>
        <time>2025-07-22T15:29:29Z</time>
      </trkpt>
      <trkpt lat="43.00317" lon="-0.41939">
        <ele>520.4</ele>
        <time>2025-07-22T15:29:36Z</time>
      </trkpt>
      <trkpt lat="43.00337" lon="-0.41939">
        <ele>520</ele>
        <time>2025-07-22T15:29:39Z</time>
      </trkpt>
      <trkpt lat="43.00376" lon="-0.41934">
        <ele>519.6</ele>
        <time>2025-07-22T15:29:45Z</time>
      </trkpt>
      <trkpt lat="43.00399" lon="-0.4193">
        <ele>519.2</ele>
        <time>2025-07-22T15:29:49Z</time>
      </trkpt>
      <trkpt lat="43.00403" lon="-0.4193">
        <ele>519.2</ele>
        <time>2025-07-22T15:29:50Z</time>
      </trkpt>
      <trkpt lat="43.00416" lon="-0.4193">
        <ele>518.6</ele>
        <time>2025-07-22T15:29:54Z</time>
      </trkpt>
      <trkpt lat="43.00428" lon="-0.41927">
        <ele>518</ele>
        <time>2025-07-22T15:29:57Z</time>
      </trkpt>
      <trkpt lat="43.00434" lon="-0.41927">
        <ele>518</ele>
        <time>2025-07-22T15:29:59Z</time>
      </trkpt>
      <trkpt lat="43.00438" lon="-0.41937">
        <ele>516.8</ele>
        <time>2025-07-22T15:30:02Z</time>
      </trkpt>
      <trkpt lat="43.00438" lon="-0.41947">
        <ele>515.6</ele>
        <time>2025-07-22T15:30:04Z</time>
      </trkpt>
      <trkpt lat="43.00438" lon="-0.41971">
        <ele>515</ele>
        <time>2025-07-22T15:30:08Z</time>
      </trkpt>
      <trkpt lat="43.00438" lon="-0.42">
        <ele>514.6</ele>
        <time>2025-07-22T15:30:12Z</time>
      </trkpt>
      <trkpt lat="43.00437" lon="-0.42023">
        <ele>514.6</ele>
        <time>2025-07-22T15:30:15Z</time>
      </trkpt>
      <trkpt lat="43.00438" lon="-0.42064">
        <ele>514.6</ele>
        <time>2025-07-22T15:30:21Z</time>
      </trkpt>
      <trkpt lat="43.00432" lon="-0.42103">
        <ele>514.8</ele>
        <time>2025-07-22T15:30:27Z</time>
      </trkpt>
      <trkpt lat="43.0043" lon="-0.42108">
        <ele>514.8</ele>
        <time>2025-07-22T15:30:28Z</time>
      </trkpt>
      <trkpt lat="43.0043" lon="-0.42116">
        <ele>514.6</ele>
        <time>2025-07-22T15:30:30Z</time>
      </trkpt>
      <trkpt lat="43.00431" lon="-0.42119">
        <ele>514.6</ele>
        <time>2025-07-22T15:30:31Z</time>
      </trkpt>
      <trkpt lat="43.00434" lon="-0.42122">
        <ele>514.4</ele>
        <time>2025-07-22T15:30:32Z</time>
      </trkpt>
      <trkpt lat="43.00446" lon="-0.42127">
        <ele>514</ele>
        <time>2025-07-22T15:30:35Z</time>
      </trkpt>
      <trkpt lat="43.00471" lon="-0.42137">
        <ele>513.8</ele>
        <time>2025-07-22T15:30:40Z</time>
      </trkpt>
      <trkpt lat="43.00505" lon="-0.42146">
        <ele>514</ele>
        <time>2025-07-22T15:30:46Z</time>
      </trkpt>
      <trkpt lat="43.00549" lon="-0.42144">
        <ele>514.2</ele>
        <time>2025-07-22T15:30:53Z</time>
      </trkpt>
      <trkpt lat="43.00579" lon="-0.42134">
        <ele>514.4</ele>
        <time>2025-07-22T15:30:58Z</time>
      </trkpt>
      <trkpt lat="43.00591" lon="-0.42129">
        <ele>514.4</ele>
        <time>2025-07-22T15:31:00Z</time>
      </trkpt>
      <trkpt lat="43.00637" lon="-0.42102">
        <ele>515.4</ele>
        <time>2025-07-22T15:31:08Z</time>
      </trkpt>
      <trkpt lat="43.00667" lon="-0.42089">
        <ele>515.6</ele>
        <time>2025-07-22T15:31:13Z</time>
      </trkpt>
      <trkpt lat="43.00678" lon="-0.42086">
        <ele>515.8</ele>
        <time>2025-07-22T15:31:15Z</time>
      </trkpt>
      <trkpt lat="43.00728" lon="-0.42076">
        <ele>516.6</ele>
        <time>2025-07-22T15:31:23Z</time>
      </trkpt>
      <trkpt lat="43.00735" lon="-0.42076">
        <ele>516.6</ele>
        <time>2025-07-22T15:31:24Z</time>
      </trkpt>
      <trkpt lat="43.00771" lon="-0.4208">
        <ele>516.6</ele>
        <time>2025-07-22T15:31:29Z</time>
      </trkpt>
      <trkpt lat="43.00814" lon="-0.42089">
        <ele>515.4</ele>
        <time>2025-07-22T15:31:35Z</time>
      </trkpt>
      <trkpt lat="43.00821" lon="-0.42091">
        <ele>515.4</ele>
        <time>2025-07-22T15:31:36Z</time>
      </trkpt>
      <trkpt lat="43.00865" lon="-0.42108">
        <ele>514.8</ele>
        <time>2025-07-22T15:31:43Z</time>
      </trkpt>
      <trkpt lat="43.00884" lon="-0.42119">
        <ele>514.4</ele>
        <time>2025-07-22T15:31:46Z</time>
      </trkpt>
      <trkpt lat="43.00916" lon="-0.42141">
        <ele>513.8</ele>
        <time>2025-07-22T15:31:51Z</time>
      </trkpt>
      <trkpt lat="43.00936" lon="-0.42155">
        <ele>513.4</ele>
        <time>2025-07-22T15:31:54Z</time>
      </trkpt>
      <trkpt lat="43.00968" lon="-0.42176">
        <ele>512.4</ele>
        <time>2025-07-22T15:31:59Z</time>
      </trkpt>
      <trkpt lat="43.00975" lon="-0.4218">
        <ele>512.2</ele>
        <time>2025-07-22T15:32:00Z</time>
      </trkpt>
      <trkpt lat="43.01031" lon="-0.42209">
        <ele>511.4</ele>
        <time>2025-07-22T15:32:08Z</time>
      </trkpt>
      <trkpt lat="43.01038" lon="-0.42212">
        <ele>511</ele>
        <time>2025-07-22T15:32:09Z</time>
      </trkpt>
      <trkpt lat="43.01088" lon="-0.42236">
        <ele>510</ele>
        <time>2025-07-22T15:32:16Z</time>
      </trkpt>
      <trkpt lat="43.01115" lon="-0.42251">
        <ele>510</ele>
        <time>2025-07-22T15:32:20Z</time>
      </trkpt>
      <trkpt lat="43.0117" lon="-0.42276">
        <ele>509.6</ele>
        <time>2025-07-22T15:32:28Z</time>
      </trkpt>
      <trkpt lat="43.0119" lon="-0.42284">
        <ele>509.6</ele>
        <time>2025-07-22T15:32:31Z</time>
      </trkpt>
      <trkpt lat="43.01244" lon="-0.42297">
        <ele>509.8</ele>
        <time>2025-07-22T15:32:39Z</time>
      </trkpt>
      <trkpt lat="43.01281" lon="-0.42299">
        <ele>510.4</ele>
        <time>2025-07-22T15:32:45Z</time>
      </trkpt>
      <trkpt lat="43.01327" lon="-0.423">
        <ele>511</ele>
        <time>2025-07-22T15:32:53Z</time>
      </trkpt>
      <trkpt lat="43.01338" lon="-0.423">
        <ele>511.2</ele>
        <time>2025-07-22T15:32:55Z</time>
      </trkpt>
      <trkpt lat="43.01353" lon="-0.423">
        <ele>511.8</ele>
        <time>2025-07-22T15:32:58Z</time>
      </trkpt>
      <trkpt lat="43.01358" lon="-0.423">
        <ele>511.8</ele>
        <time>2025-07-22T15:32:59Z</time>
      </trkpt>
      <trkpt lat="43.01382" lon="-0.42301">
        <ele>512.6</ele>
        <time>2025-07-22T15:33:04Z</time>
      </trkpt>
      <trkpt lat="43.01387" lon="-0.42301">
        <ele>512.8</ele>
        <time>2025-07-22T15:33:05Z</time>
      </trkpt>
      <trkpt lat="43.01402" lon="-0.42301">
        <ele>513.4</ele>
        <time>2025-07-22T15:33:08Z</time>
      </trkpt>
      <trkpt lat="43.01406" lon="-0.423">
        <ele>513.6</ele>
        <time>2025-07-22T15:33:09Z</time>
      </trkpt>
      <trkpt lat="43.01421" lon="-0.423">
        <ele>514.4</ele>
        <time>2025-07-22T15:33:12Z</time>
      </trkpt>
      <trkpt lat="43.01441" lon="-0.42298">
        <ele>514.8</ele>
        <time>2025-07-22T15:33:16Z</time>
      </trkpt>
      <trkpt lat="43.01456" lon="-0.42297">
        <ele>515.2</ele>
        <time>2025-07-22T15:33:19Z</time>
      </trkpt>
      <trkpt lat="43.01491" lon="-0.42293">
        <ele>516</ele>
        <time>2025-07-22T15:33:26Z</time>
      </trkpt>
      <trkpt lat="43.01502" lon="-0.42292">
        <ele>516.2</ele>
        <time>2025-07-22T15:33:28Z</time>
      </trkpt>
      <trkpt lat="43.01541" lon="-0.42289">
        <ele>516.4</ele>
        <time>2025-07-22T15:33:35Z</time>
      </trkpt>
      <trkpt lat="43.01586" lon="-0.42291">
        <ele>516.4</ele>
        <time>2025-07-22T15:33:42Z</time>
      </trkpt>
      <trkpt lat="43.01638" lon="-0.42294">
        <ele>515</ele>
        <time>2025-07-22T15:33:49Z</time>
      </trkpt>
      <trkpt lat="43.01646" lon="-0.42295">
        <ele>514.8</ele>
        <time>2025-07-22T15:33:50Z</time>
      </trkpt>
      <trkpt lat="43.01688" lon="-0.42298">
        <ele>513.2</ele>
        <time>2025-07-22T15:33:55Z</time>
      </trkpt>
      <trkpt lat="43.01714" lon="-0.42301">
        <ele>511.8</ele>
        <time>2025-07-22T15:33:58Z</time>
      </trkpt>
      <trkpt lat="43.01741" lon="-0.42303">
        <ele>510.6</ele>
        <time>2025-07-22T15:34:01Z</time>
      </trkpt>
      <trkpt lat="43.0176" lon="-0.42304">
        <ele>509.6</ele>
        <time>2025-07-22T15:34:03Z</time>
      </trkpt>
      <trkpt lat="43.01779" lon="-0.42306">
        <ele>508.6</ele>
        <time>2025-07-22T15:34:05Z</time>
      </trkpt>
      <trkpt lat="43.01817" lon="-0.42308">
        <ele>507.4</ele>
        <time>2025-07-22T15:34:09Z</time>
      </trkpt>
      <trkpt lat="43.01834" lon="-0.42308">
        <ele>506.2</ele>
        <time>2025-07-22T15:34:11Z</time>
      </trkpt>
      <trkpt lat="43.01852" lon="-0.42308">
        <ele>505.2</ele>
        <time>2025-07-22T15:34:13Z</time>
      </trkpt>
      <trkpt lat="43.01869" lon="-0.42308">
        <ele>504</ele>
        <time>2025-07-22T15:34:16Z</time>
      </trkpt>
      <trkpt lat="43.01909" lon="-0.42301">
        <ele>503</ele>
        <time>2025-07-22T15:34:20Z</time>
      </trkpt>
      <trkpt lat="43.01948" lon="-0.42296">
        <ele>501.8</ele>
        <time>2025-07-22T15:34:25Z</time>
      </trkpt>
      <trkpt lat="43.01986" lon="-0.4229">
        <ele>501.4</ele>
        <time>2025-07-22T15:34:30Z</time>
      </trkpt>
      <trkpt lat="43.0203" lon="-0.42281">
        <ele>500.8</ele>
        <time>2025-07-22T15:34:36Z</time>
      </trkpt>
      <trkpt lat="43.02045" lon="-0.42276">
        <ele>500.6</ele>
        <time>2025-07-22T15:34:38Z</time>
      </trkpt>
      <trkpt lat="43.02102" lon="-0.42256">
        <ele>500.2</ele>
        <time>2025-07-22T15:34:46Z</time>
      </trkpt>
      <trkpt lat="43.02116" lon="-0.42251">
        <ele>500.2</ele>
        <time>2025-07-22T15:34:48Z</time>
      </trkpt>
      <trkpt lat="43.02145" lon="-0.42239">
        <ele>499.8</ele>
        <time>2025-07-22T15:34:52Z</time>
      </trkpt>
      <trkpt lat="43.02204" lon="-0.42217">
        <ele>499.2</ele>
        <time>2025-07-22T15:35:00Z</time>
      </trkpt>
      <trkpt lat="43.02262" lon="-0.42195">
        <ele>498.8</ele>
        <time>2025-07-22T15:35:08Z</time>
      </trkpt>
      <trkpt lat="43.02284" lon="-0.42186">
        <ele>498.6</ele>
        <time>2025-07-22T15:35:11Z</time>
      </trkpt>
      <trkpt lat="43.02327" lon="-0.4218">
        <ele>498.6</ele>
        <time>2025-07-22T15:35:17Z</time>
      </trkpt>
      <trkpt lat="43.02355" lon="-0.42175">
        <ele>498.4</ele>
        <time>2025-07-22T15:35:21Z</time>
      </trkpt>
      <trkpt lat="43.02371" lon="-0.42166">
        <ele>498.6</ele>
        <time>2025-07-22T15:35:23Z</time>
      </trkpt>
      <trkpt lat="43.02388" lon="-0.42148">
        <ele>498.6</ele>
        <time>2025-07-22T15:35:26Z</time>
      </trkpt>
      <trkpt lat="43.02402" lon="-0.42143">
        <ele>498.6</ele>
        <time>2025-07-22T15:35:28Z</time>
      </trkpt>
      <trkpt lat="43.02409" lon="-0.42145">
        <ele>498.6</ele>
        <time>2025-07-22T15:35:29Z</time>
      </trkpt>
      <trkpt lat="43.02422" lon="-0.42149">
        <ele>498.6</ele>
        <time>2025-07-22T15:35:31Z</time>
      </trkpt>
      <trkpt lat="43.02437" lon="-0.4215">
        <ele>498.4</ele>
        <time>2025-07-22T15:35:33Z</time>
      </trkpt>
      <trkpt lat="43.02477" lon="-0.42145">
        <ele>498</ele>
        <time>2025-07-22T15:35:39Z</time>
      </trkpt>
      <trkpt lat="43.0249" lon="-0.42144">
        <ele>498</ele>
        <time>2025-07-22T15:35:41Z</time>
      </trkpt>
      <trkpt lat="43.02534" lon="-0.42144">
        <ele>498.2</ele>
        <time>2025-07-22T15:35:48Z</time>
      </trkpt>
      <trkpt lat="43.02589" lon="-0.42147">
        <ele>498.2</ele>
        <time>2025-07-22T15:35:56Z</time>
      </trkpt>
      <trkpt lat="43.02603" lon="-0.42148">
        <ele>498.2</ele>
        <time>2025-07-22T15:35:58Z</time>
      </trkpt>
      <trkpt lat="43.02661" lon="-0.42149">
        <ele>497.6</ele>
        <time>2025-07-22T15:36:06Z</time>
      </trkpt>
      <trkpt lat="43.02682" lon="-0.42151">
        <ele>497.2</ele>
        <time>2025-07-22T15:36:09Z</time>
      </trkpt>
      <trkpt lat="43.02712" lon="-0.42152">
        <ele>496.8</ele>
        <time>2025-07-22T15:36:13Z</time>
      </trkpt>
      <trkpt lat="43.02773" lon="-0.42154">
        <ele>495.8</ele>
        <time>2025-07-22T15:36:21Z</time>
      </trkpt>
      <trkpt lat="43.02818" lon="-0.42156">
        <ele>494.8</ele>
        <time>2025-07-22T15:36:27Z</time>
      </trkpt>
      <trkpt lat="43.02858" lon="-0.42158">
        <ele>494.2</ele>
        <time>2025-07-22T15:36:32Z</time>
      </trkpt>
      <trkpt lat="43.02895" lon="-0.42159">
        <ele>493.8</ele>
        <time>2025-07-22T15:36:37Z</time>
      </trkpt>
      <trkpt lat="43.0294" lon="-0.42161">
        <ele>493.4</ele>
        <time>2025-07-22T15:36:43Z</time>
      </trkpt>
      <trkpt lat="43.03" lon="-0.42164">
        <ele>492.6</ele>
        <time>2025-07-22T15:36:51Z</time>
      </trkpt>
      <trkpt lat="43.03054" lon="-0.42166">
        <ele>491.8</ele>
        <time>2025-07-22T15:36:58Z</time>
      </trkpt>
      <trkpt lat="43.03062" lon="-0.42166">
        <ele>491.8</ele>
        <time>2025-07-22T15:36:59Z</time>
      </trkpt>
      <trkpt lat="43.03122" lon="-0.42168">
        <ele>491.2</ele>
        <time>2025-07-22T15:37:07Z</time>
      </trkpt>
      <trkpt lat="43.03152" lon="-0.42169">
        <ele>491.2</ele>
        <time>2025-07-22T15:37:11Z</time>
      </trkpt>
      <trkpt lat="43.03209" lon="-0.42171">
        <ele>491.2</ele>
        <time>2025-07-22T15:37:19Z</time>
      </trkpt>
      <trkpt lat="43.03244" lon="-0.42172">
        <ele>490.8</ele>
        <time>2025-07-22T15:37:24Z</time>
      </trkpt>
      <trkpt lat="43.03296" lon="-0.42179">
        <ele>490.8</ele>
        <time>2025-07-22T15:37:32Z</time>
      </trkpt>
      <trkpt lat="43.03348" lon="-0.4219">
        <ele>491</ele>
        <time>2025-07-22T15:37:40Z</time>
      </trkpt>
      <trkpt lat="43.03405" lon="-0.4221">
        <ele>491.2</ele>
        <time>2025-07-22T15:37:49Z</time>
      </trkpt>
      <trkpt lat="43.03411" lon="-0.42212">
        <ele>491.2</ele>
        <time>2025-07-22T15:37:50Z</time>
      </trkpt>
      <trkpt lat="43.03455" lon="-0.42229">
        <ele>490.8</ele>
        <time>2025-07-22T15:37:57Z</time>
      </trkpt>
      <trkpt lat="43.03462" lon="-0.42231">
        <ele>490.6</ele>
        <time>2025-07-22T15:37:58Z</time>
      </trkpt>
      <trkpt lat="43.03512" lon="-0.4225">
        <ele>490</ele>
        <time>2025-07-22T15:38:06Z</time>
      </trkpt>
      <trkpt lat="43.03519" lon="-0.42252">
        <ele>490</ele>
        <time>2025-07-22T15:38:07Z</time>
      </trkpt>
      <trkpt lat="43.03576" lon="-0.42273">
        <ele>489.2</ele>
        <time>2025-07-22T15:38:16Z</time>
      </trkpt>
      <trkpt lat="43.03601" lon="-0.42282">
        <ele>488.8</ele>
        <time>2025-07-22T15:38:20Z</time>
      </trkpt>
      <trkpt lat="43.03632" lon="-0.42293">
        <ele>488.8</ele>
        <time>2025-07-22T15:38:25Z</time>
      </trkpt>
      <trkpt lat="43.03678" lon="-0.42316">
        <ele>488</ele>
        <time>2025-07-22T15:38:33Z</time>
      </trkpt>
      <trkpt lat="43.03688" lon="-0.42321">
        <ele>488</ele>
        <time>2025-07-22T15:38:35Z</time>
      </trkpt>
      <trkpt lat="43.03699" lon="-0.42322">
        <ele>488</ele>
        <time>2025-07-22T15:38:37Z</time>
      </trkpt>
      <trkpt lat="43.0371" lon="-0.42322">
        <ele>488</ele>
        <time>2025-07-22T15:38:39Z</time>
      </trkpt>
      <trkpt lat="43.03721" lon="-0.42328">
        <ele>488</ele>
        <time>2025-07-22T15:38:41Z</time>
      </trkpt>
      <trkpt lat="43.03727" lon="-0.42341">
        <ele>488.2</ele>
        <time>2025-07-22T15:38:43Z</time>
      </trkpt>
      <trkpt lat="43.03727" lon="-0.42348">
        <ele>488.2</ele>
        <time>2025-07-22T15:38:44Z</time>
      </trkpt>
      <trkpt lat="43.03728" lon="-0.42363">
        <ele>488.2</ele>
        <time>2025-07-22T15:38:46Z</time>
      </trkpt>
      <trkpt lat="43.03731" lon="-0.42378">
        <ele>488.4</ele>
        <time>2025-07-22T15:38:48Z</time>
      </trkpt>
      <trkpt lat="43.03739" lon="-0.42391">
        <ele>488.4</ele>
        <time>2025-07-22T15:38:50Z</time>
      </trkpt>
      <trkpt lat="43.03745" lon="-0.42395">
        <ele>488.4</ele>
        <time>2025-07-22T15:38:51Z</time>
      </trkpt>
      <trkpt lat="43.0375" lon="-0.42399">
        <ele>488.4</ele>
        <time>2025-07-22T15:38:52Z</time>
      </trkpt>
      <trkpt lat="43.03783" lon="-0.42416">
        <ele>488</ele>
        <time>2025-07-22T15:38:57Z</time>
      </trkpt>
      <trkpt lat="43.03815" lon="-0.42433">
        <ele>487.8</ele>
        <time>2025-07-22T15:39:02Z</time>
      </trkpt>
      <trkpt lat="43.03834" lon="-0.42441">
        <ele>487.6</ele>
        <time>2025-07-22T15:39:05Z</time>
      </trkpt>
      <trkpt lat="43.03885" lon="-0.42465">
        <ele>487.2</ele>
        <time>2025-07-22T15:39:13Z</time>
      </trkpt>
      <trkpt lat="43.03911" lon="-0.42476">
        <ele>487</ele>
        <time>2025-07-22T15:39:17Z</time>
      </trkpt>
      <trkpt lat="43.03925" lon="-0.42481">
        <ele>486.8</ele>
        <time>2025-07-22T15:39:19Z</time>
      </trkpt>
      <trkpt lat="43.03972" lon="-0.42497">
        <ele>486.2</ele>
        <time>2025-07-22T15:39:26Z</time>
      </trkpt>
      <trkpt lat="43.03992" lon="-0.42503">
        <ele>485.6</ele>
        <time>2025-07-22T15:39:29Z</time>
      </trkpt>
      <trkpt lat="43.04031" lon="-0.42515">
        <ele>485.2</ele>
        <time>2025-07-22T15:39:35Z</time>
      </trkpt>
      <trkpt lat="43.0409" lon="-0.42534">
        <ele>485</ele>
        <time>2025-07-22T15:39:44Z</time>
      </trkpt>
      <trkpt lat="43.04109" lon="-0.4254">
        <ele>484.6</ele>
        <time>2025-07-22T15:39:47Z</time>
      </trkpt>
      <trkpt lat="43.04164" lon="-0.42556">
        <ele>484</ele>
        <time>2025-07-22T15:39:55Z</time>
      </trkpt>
      <trkpt lat="43.04171" lon="-0.42558">
        <ele>483.8</ele>
        <time>2025-07-22T15:39:56Z</time>
      </trkpt>
      <trkpt lat="43.04225" lon="-0.42579">
        <ele>482.8</ele>
        <time>2025-07-22T15:40:04Z</time>
      </trkpt>
      <trkpt lat="43.04231" lon="-0.42582">
        <ele>482.8</ele>
        <time>2025-07-22T15:40:05Z</time>
      </trkpt>
      <trkpt lat="43.04238" lon="-0.42586">
        <ele>482.4</ele>
        <time>2025-07-22T15:40:06Z</time>
      </trkpt>
      <trkpt lat="43.0427" lon="-0.42603">
        <ele>481.8</ele>
        <time>2025-07-22T15:40:11Z</time>
      </trkpt>
      <trkpt lat="43.04316" lon="-0.42626">
        <ele>481.2</ele>
        <time>2025-07-22T15:40:18Z</time>
      </trkpt>
      <trkpt lat="43.04348" lon="-0.42645">
        <ele>480.6</ele>
        <time>2025-07-22T15:40:23Z</time>
      </trkpt>
      <trkpt lat="43.04367" lon="-0.42658">
        <ele>480.4</ele>
        <time>2025-07-22T15:40:26Z</time>
      </trkpt>
      <trkpt lat="43.04418" lon="-0.42696">
        <ele>480</ele>
        <time>2025-07-22T15:40:34Z</time>
      </trkpt>
      <trkpt lat="43.04444" lon="-0.42714">
        <ele>479.6</ele>
        <time>2025-07-22T15:40:38Z</time>
      </trkpt>
      <trkpt lat="43.04482" lon="-0.42741">
        <ele>478.6</ele>
        <time>2025-07-22T15:40:44Z</time>
      </trkpt>
      <trkpt lat="43.04523" lon="-0.42771">
        <ele>478.2</ele>
        <time>2025-07-22T15:40:51Z</time>
      </trkpt>
      <trkpt lat="43.04553" lon="-0.42796">
        <ele>478.4</ele>
        <time>2025-07-22T15:40:57Z</time>
      </trkpt>
      <trkpt lat="43.04573" lon="-0.42816">
        <ele>479.2</ele>
        <time>2025-07-22T15:41:01Z</time>
      </trkpt>
      <trkpt lat="43.04599" lon="-0.42839">
        <ele>479.2</ele>
        <time>2025-07-22T15:41:06Z</time>
      </trkpt>
      <trkpt lat="43.04645" lon="-0.42879">
        <ele>478.8</ele>
        <time>2025-07-22T15:41:15Z</time>
      </trkpt>
      <trkpt lat="43.04693" lon="-0.42913">
        <ele>478.6</ele>
        <time>2025-07-22T15:41:24Z</time>
      </trkpt>
      <trkpt lat="43.04739" lon="-0.42936">
        <ele>478.6</ele>
        <time>2025-07-22T15:41:32Z</time>
      </trkpt>
      <trkpt lat="43.04795" lon="-0.42957">
        <ele>478.6</ele>
        <time>2025-07-22T15:41:42Z</time>
      </trkpt>
      <trkpt lat="43.048" lon="-0.42959">
        <ele>478.6</ele>
        <time>2025-07-22T15:41:43Z</time>
      </trkpt>
      <trkpt lat="43.04851" lon="-0.42975">
        <ele>478.8</ele>
        <time>2025-07-22T15:41:52Z</time>
      </trkpt>
      <trkpt lat="43.0489" lon="-0.42983">
        <ele>479.4</ele>
        <time>2025-07-22T15:41:59Z</time>
      </trkpt>
      <trkpt lat="43.04933" lon="-0.42996">
        <ele>479.6</ele>
        <time>2025-07-22T15:42:06Z</time>
      </trkpt>
      <trkpt lat="43.04988" lon="-0.4301">
        <ele>479.2</ele>
        <time>2025-07-22T15:42:15Z</time>
      </trkpt>
      <trkpt lat="43.05018" lon="-0.43019">
        <ele>479.6</ele>
        <time>2025-07-22T15:42:21Z</time>
      </trkpt>
      <trkpt lat="43.0503" lon="-0.43021">
        <ele>479.8</ele>
        <time>2025-07-22T15:42:24Z</time>
      </trkpt>
      <trkpt lat="43.05042" lon="-0.43024">
        <ele>480.2</ele>
        <time>2025-07-22T15:42:27Z</time>
      </trkpt>
      <trkpt lat="43.05045" lon="-0.43025">
        <ele>480.6</ele>
        <time>2025-07-22T15:42:28Z</time>
      </trkpt>
      <trkpt lat="43.05052" lon="-0.43027">
        <ele>480.8</ele>
        <time>2025-07-22T15:42:30Z</time>
      </trkpt>
      <trkpt lat="43.05063" lon="-0.43031">
        <ele>481.4</ele>
        <time>2025-07-22T15:42:33Z</time>
      </trkpt>
      <trkpt lat="43.05071" lon="-0.43034">
        <ele>482.2</ele>
        <time>2025-07-22T15:42:35Z</time>
      </trkpt>
      <trkpt lat="43.05094" lon="-0.43039">
        <ele>483.2</ele>
        <time>2025-07-22T15:42:41Z</time>
      </trkpt>
      <trkpt lat="43.05128" lon="-0.43048">
        <ele>484</ele>
        <time>2025-07-22T15:42:50Z</time>
      </trkpt>
      <trkpt lat="43.05136" lon="-0.43051">
        <ele>484.2</ele>
        <time>2025-07-22T15:42:52Z</time>
      </trkpt>
      <trkpt lat="43.05162" lon="-0.43058">
        <ele>484.8</ele>
        <time>2025-07-22T15:42:59Z</time>
      </trkpt>
      <trkpt lat="43.05182" lon="-0.43064">
        <ele>485.2</ele>
        <time>2025-07-22T15:43:04Z</time>
      </trkpt>
      <trkpt lat="43.05194" lon="-0.43067">
        <ele>485.6</ele>
        <time>2025-07-22T15:43:07Z</time>
      </trkpt>
      <trkpt lat="43.05236" lon="-0.43079">
        <ele>486</ele>
        <time>2025-07-22T15:43:17Z</time>
      </trkpt>
      <trkpt lat="43.05261" lon="-0.43084">
        <ele>486.4</ele>
        <time>2025-07-22T15:43:23Z</time>
      </trkpt>
      <trkpt lat="43.05265" lon="-0.43085">
        <ele>486.4</ele>
        <time>2025-07-22T15:43:24Z</time>
      </trkpt>
      <trkpt lat="43.05307" lon="-0.43094">
        <ele>487</ele>
        <time>2025-07-22T15:43:34Z</time>
      </trkpt>
      <trkpt lat="43.05349" lon="-0.431">
        <ele>487.2</ele>
        <time>2025-07-22T15:43:43Z</time>
      </trkpt>
      <trkpt lat="43.05372" lon="-0.43106">
        <ele>487.4</ele>
        <time>2025-07-22T15:43:48Z</time>
      </trkpt>
      <trkpt lat="43.0539" lon="-0.43111">
        <ele>487.6</ele>
        <time>2025-07-22T15:43:52Z</time>
      </trkpt>
      <trkpt lat="43.05403" lon="-0.43115">
        <ele>487.8</ele>
        <time>2025-07-22T15:43:55Z</time>
      </trkpt>
      <trkpt lat="43.05411" lon="-0.43116">
        <ele>488</ele>
        <time>2025-07-22T15:43:57Z</time>
      </trkpt>
      <trkpt lat="43.0542" lon="-0.43119">
        <ele>488.4</ele>
        <time>2025-07-22T15:43:59Z</time>
      </trkpt>
      <trkpt lat="43.05424" lon="-0.4312">
        <ele>488.4</ele>
        <time>2025-07-22T15:44:00Z</time>
      </trkpt>
      <trkpt lat="43.05436" lon="-0.43123">
        <ele>488.6</ele>
        <time>2025-07-22T15:44:03Z</time>
      </trkpt>
      <trkpt lat="43.05449" lon="-0.43125">
        <ele>488.6</ele>
        <time>2025-07-22T15:44:06Z</time>
      </trkpt>
      <trkpt lat="43.05485" lon="-0.43131">
        <ele>488.8</ele>
        <time>2025-07-22T15:44:14Z</time>
      </trkpt>
      <trkpt lat="43.05488" lon="-0.43132">
        <ele>488.8</ele>
        <time>2025-07-22T15:44:15Z</time>
      </trkpt>
      <trkpt lat="43.05497" lon="-0.43134">
        <ele>488.8</ele>
        <time>2025-07-22T15:44:18Z</time>
      </trkpt>
      <trkpt lat="43.05503" lon="-0.43133">
        <ele>489</ele>
        <time>2025-07-22T15:44:22Z</time>
      </trkpt>
      <trkpt lat="43.05504" lon="-0.43133">
        <ele>489</ele>
        <time>2025-07-22T15:44:23Z</time>
      </trkpt>
      <trkpt lat="43.05504" lon="-0.43133">
        <ele>489</ele>
        <time>2025-07-22T15:44:25Z</time>
      </trkpt>
      <trkpt lat="43.05502" lon="-0.43145">
        <ele>489</ele>
        <time>2025-07-22T15:45:14Z</time>
      </trkpt>
      <trkpt lat="43.05502" lon="-0.43148">
        <ele>489</ele>
        <time>2025-07-22T15:45:15Z</time>
      </trkpt>
      <trkpt lat="43.05503" lon="-0.43169">
        <ele>489.2</ele>
        <time>2025-07-22T15:45:21Z</time>
      </trkpt>
      <trkpt lat="43.05506" lon="-0.43179">
        <ele>489.6</ele>
        <time>2025-07-22T15:45:26Z</time>
      </trkpt>
      <trkpt lat="43.05506" lon="-0.43179">
        <ele>489.6</ele>
        <time>2025-07-22T15:45:27Z</time>
      </trkpt>
      <trkpt lat="43.05506" lon="-0.43179">
        <ele>489.8</ele>
        <time>2025-07-22T15:45:28Z</time>
      </trkpt>
      <trkpt lat="43.05505" lon="-0.43177">
        <ele>490.6</ele>
        <time>2025-07-22T15:49:17Z</time>
      </trkpt>
      <trkpt lat="43.05502" lon="-0.43172">
        <ele>490.4</ele>
        <time>2025-07-22T15:49:19Z</time>
      </trkpt>
      <trkpt lat="43.05498" lon="-0.43151">
        <ele>490.2</ele>
        <time>2025-07-22T15:49:25Z</time>
      </trkpt>
      <trkpt lat="43.05499" lon="-0.43139">
        <ele>490</ele>
        <time>2025-07-22T15:49:30Z</time>
      </trkpt>
      <trkpt lat="43.05503" lon="-0.43135">
        <ele>490</ele>
        <time>2025-07-22T15:49:32Z</time>
      </trkpt>
      <trkpt lat="43.05507" lon="-0.43135">
        <ele>490</ele>
        <time>2025-07-22T15:49:34Z</time>
      </trkpt>
      <trkpt lat="43.05531" lon="-0.43131">
        <ele>490.2</ele>
        <time>2025-07-22T15:49:42Z</time>
      </trkpt>
      <trkpt lat="43.05549" lon="-0.43125">
        <ele>490.4</ele>
        <time>2025-07-22T15:49:47Z</time>
      </trkpt>
      <trkpt lat="43.05578" lon="-0.43113">
        <ele>490.6</ele>
        <time>2025-07-22T15:49:55Z</time>
      </trkpt>
      <trkpt lat="43.05603" lon="-0.43096">
        <ele>490.8</ele>
        <time>2025-07-22T15:50:02Z</time>
      </trkpt>
      <trkpt lat="43.05629" lon="-0.4308">
        <ele>490.6</ele>
        <time>2025-07-22T15:50:09Z</time>
      </trkpt>
      <trkpt lat="43.05664" lon="-0.4306">
        <ele>490</ele>
        <time>2025-07-22T15:50:17Z</time>
      </trkpt>
      <trkpt lat="43.05686" lon="-0.43045">
        <ele>489.8</ele>
        <time>2025-07-22T15:50:23Z</time>
      </trkpt>
      <trkpt lat="43.05693" lon="-0.4304">
        <ele>489.6</ele>
        <time>2025-07-22T15:50:25Z</time>
      </trkpt>
      <trkpt lat="43.05699" lon="-0.43034">
        <ele>489.6</ele>
        <time>2025-07-22T15:50:27Z</time>
      </trkpt>
      <trkpt lat="43.05706" lon="-0.43028">
        <ele>489.4</ele>
        <time>2025-07-22T15:50:29Z</time>
      </trkpt>
      <trkpt lat="43.05728" lon="-0.43006">
        <ele>489.2</ele>
        <time>2025-07-22T15:50:37Z</time>
      </trkpt>
      <trkpt lat="43.05739" lon="-0.42995">
        <ele>488.8</ele>
        <time>2025-07-22T15:50:42Z</time>
      </trkpt>
      <trkpt lat="43.05744" lon="-0.4299">
        <ele>488.4</ele>
        <time>2025-07-22T15:50:44Z</time>
      </trkpt>
      <trkpt lat="43.05753" lon="-0.42983">
        <ele>488</ele>
        <time>2025-07-22T15:50:49Z</time>
      </trkpt>
      <trkpt lat="43.05756" lon="-0.42981">
        <ele>487.8</ele>
        <time>2025-07-22T15:50:51Z</time>
      </trkpt>
      <trkpt lat="43.05759" lon="-0.42979">
        <ele>487.6</ele>
        <time>2025-07-22T15:50:53Z</time>
      </trkpt>
      <trkpt lat="43.05767" lon="-0.42974">
        <ele>487.4</ele>
        <time>2025-07-22T15:50:56Z</time>
      </trkpt>
      <trkpt lat="43.05773" lon="-0.42974">
        <ele>487.2</ele>
        <time>2025-07-22T15:50:58Z</time>
      </trkpt>
      <trkpt lat="43.05779" lon="-0.42978">
        <ele>487.2</ele>
        <time>2025-07-22T15:51:00Z</time>
      </trkpt>
      <trkpt lat="43.05781" lon="-0.42982">
        <ele>487.2</ele>
        <time>2025-07-22T15:51:01Z</time>
      </trkpt>
      <trkpt lat="43.05782" lon="-0.42987">
        <ele>487</ele>
        <time>2025-07-22T15:51:03Z</time>
      </trkpt>
      <trkpt lat="43.05783" lon="-0.42992">
        <ele>486.8</ele>
        <time>2025-07-22T15:51:07Z</time>
      </trkpt>
      <trkpt lat="43.05783" lon="-0.42992">
        <ele>486.8</ele>
        <time>2025-07-22T15:51:08Z</time>
      </trkpt>
      <trkpt lat="43.0578" lon="-0.42993">
        <ele>485.4</ele>
        <time>2025-07-22T15:54:27Z</time>
      </trkpt>
      <trkpt lat="43.05775" lon="-0.42994">
        <ele>485.4</ele>
        <time>2025-07-22T15:54:30Z</time>
      </trkpt>
      <trkpt lat="43.0577" lon="-0.42994">
        <ele>485.4</ele>
        <time>2025-07-22T15:54:36Z</time>
      </trkpt>
      <trkpt lat="43.05765" lon="-0.42992">
        <ele>485.4</ele>
        <time>2025-07-22T15:54:48Z</time>
      </trkpt>
      <trkpt lat="43.05758" lon="-0.42991">
        <ele>485.6</ele>
        <time>2025-07-22T15:54:52Z</time>
      </trkpt>
      <trkpt lat="43.05756" lon="-0.42992">
        <ele>485.6</ele>
        <time>2025-07-22T15:54:53Z</time>
      </trkpt>
      <trkpt lat="43.05745" lon="-0.43002">
        <ele>485.8</ele>
        <time>2025-07-22T15:54:58Z</time>
      </trkpt>
      <trkpt lat="43.05721" lon="-0.43024">
        <ele>486.4</ele>
        <time>2025-07-22T15:55:06Z</time>
      </trkpt>
      <trkpt lat="43.05697" lon="-0.43047">
        <ele>487</ele>
        <time>2025-07-22T15:55:13Z</time>
      </trkpt>
      <trkpt lat="43.05686" lon="-0.43055">
        <ele>487.4</ele>
        <time>2025-07-22T15:55:16Z</time>
      </trkpt>
      <trkpt lat="43.05682" lon="-0.43058">
        <ele>487.4</ele>
        <time>2025-07-22T15:55:17Z</time>
      </trkpt>
      <trkpt lat="43.0567" lon="-0.43065">
        <ele>487.8</ele>
        <time>2025-07-22T15:55:20Z</time>
      </trkpt>
      <trkpt lat="43.05662" lon="-0.4307">
        <ele>487.8</ele>
        <time>2025-07-22T15:55:22Z</time>
      </trkpt>
      <trkpt lat="43.05652" lon="-0.43074">
        <ele>488</ele>
        <time>2025-07-22T15:55:24Z</time>
      </trkpt>
      <trkpt lat="43.05643" lon="-0.43079">
        <ele>488</ele>
        <time>2025-07-22T15:55:26Z</time>
      </trkpt>
      <trkpt lat="43.05608" lon="-0.43099">
        <ele>488.6</ele>
        <time>2025-07-22T15:55:34Z</time>
      </trkpt>
      <trkpt lat="43.05572" lon="-0.43121">
        <ele>489.6</ele>
        <time>2025-07-22T15:55:42Z</time>
      </trkpt>
      <trkpt lat="43.05567" lon="-0.43123">
        <ele>489.6</ele>
        <time>2025-07-22T15:55:43Z</time>
      </trkpt>
      <trkpt lat="43.05525" lon="-0.43142">
        <ele>490</ele>
        <time>2025-07-22T15:55:52Z</time>
      </trkpt>
      <trkpt lat="43.0552" lon="-0.43142">
        <ele>490</ele>
        <time>2025-07-22T15:55:53Z</time>
      </trkpt>
      <trkpt lat="43.05502" lon="-0.43143">
        <ele>490</ele>
        <time>2025-07-22T15:55:57Z</time>
      </trkpt>
      <trkpt lat="43.05495" lon="-0.43142">
        <ele>490</ele>
        <time>2025-07-22T15:55:59Z</time>
      </trkpt>
      <trkpt lat="43.05493" lon="-0.43138">
        <ele>489.8</ele>
        <time>2025-07-22T15:56:01Z</time>
      </trkpt>
      <trkpt lat="43.05492" lon="-0.43135">
        <ele>489.8</ele>
        <time>2025-07-22T15:56:02Z</time>
      </trkpt>
      <trkpt lat="43.05493" lon="-0.43114">
        <ele>489.2</ele>
        <time>2025-07-22T15:56:08Z</time>
      </trkpt>
      <trkpt lat="43.0549" lon="-0.43102">
        <ele>488.4</ele>
        <time>2025-07-22T15:56:12Z</time>
      </trkpt>
      <trkpt lat="43.05488" lon="-0.43097">
        <ele>488</ele>
        <time>2025-07-22T15:56:14Z</time>
      </trkpt>
      <trkpt lat="43.05487" lon="-0.43093">
        <ele>487.4</ele>
        <time>2025-07-22T15:56:18Z</time>
      </trkpt>
      <trkpt lat="43.05492" lon="-0.431">
        <ele>488.6</ele>
        <time>2025-07-22T16:40:25Z</time>
      </trkpt>
      <trkpt lat="43.05493" lon="-0.43104">
        <ele>488.6</ele>
        <time>2025-07-22T16:40:27Z</time>
      </trkpt>
      <trkpt lat="43.05499" lon="-0.43125">
        <ele>488.8</ele>
        <time>2025-07-22T16:40:33Z</time>
      </trkpt>
      <trkpt lat="43.05501" lon="-0.43133">
        <ele>489.4</ele>
        <time>2025-07-22T16:40:36Z</time>
      </trkpt>
      <trkpt lat="43.05503" lon="-0.43136">
        <ele>489.4</ele>
        <time>2025-07-22T16:40:38Z</time>
      </trkpt>
      <trkpt lat="43.05507" lon="-0.43136">
        <ele>489.8</ele>
        <time>2025-07-22T16:40:40Z</time>
      </trkpt>
      <trkpt lat="43.05521" lon="-0.43135">
        <ele>490.6</ele>
        <time>2025-07-22T16:40:45Z</time>
      </trkpt>
      <trkpt lat="43.05525" lon="-0.43134">
        <ele>490.8</ele>
        <time>2025-07-22T16:40:47Z</time>
      </trkpt>
      <trkpt lat="43.05538" lon="-0.4313">
        <ele>491.2</ele>
        <time>2025-07-22T16:40:52Z</time>
      </trkpt>
      <trkpt lat="43.05555" lon="-0.43122">
        <ele>491.4</ele>
        <time>2025-07-22T16:40:59Z</time>
      </trkpt>
      <trkpt lat="43.05578" lon="-0.43112">
        <ele>491.4</ele>
        <time>2025-07-22T16:41:07Z</time>
      </trkpt>
      <trkpt lat="43.05595" lon="-0.43101">
        <ele>491.4</ele>
        <time>2025-07-22T16:41:14Z</time>
      </trkpt>
      <trkpt lat="43.05624" lon="-0.43083">
        <ele>491.2</ele>
        <time>2025-07-22T16:41:22Z</time>
      </trkpt>
      <trkpt lat="43.05652" lon="-0.43066">
        <ele>490.8</ele>
        <time>2025-07-22T16:41:29Z</time>
      </trkpt>
      <trkpt lat="43.05667" lon="-0.43057">
        <ele>490.8</ele>
        <time>2025-07-22T16:41:33Z</time>
      </trkpt>
      <trkpt lat="43.05686" lon="-0.43044">
        <ele>490.6</ele>
        <time>2025-07-22T16:41:38Z</time>
      </trkpt>
      <trkpt lat="43.05714" lon="-0.43019">
        <ele>490.4</ele>
        <time>2025-07-22T16:41:45Z</time>
      </trkpt>
      <trkpt lat="43.05717" lon="-0.43016">
        <ele>490.4</ele>
        <time>2025-07-22T16:41:46Z</time>
      </trkpt>
      <trkpt lat="43.05735" lon="-0.43002">
        <ele>489.8</ele>
        <time>2025-07-22T16:41:50Z</time>
      </trkpt>
      <trkpt lat="43.0574" lon="-0.42998">
        <ele>489.8</ele>
        <time>2025-07-22T16:41:51Z</time>
      </trkpt>
      <trkpt lat="43.05768" lon="-0.42974">
        <ele>489.4</ele>
        <time>2025-07-22T16:41:57Z</time>
      </trkpt>
      <trkpt lat="43.05778" lon="-0.42977">
        <ele>489.2</ele>
        <time>2025-07-22T16:41:59Z</time>
      </trkpt>
      <trkpt lat="43.05782" lon="-0.42987">
        <ele>489.2</ele>
        <time>2025-07-22T16:42:01Z</time>
      </trkpt>
      <trkpt lat="43.05784" lon="-0.42993">
        <ele>489</ele>
        <time>2025-07-22T16:42:02Z</time>
      </trkpt>
      <trkpt lat="43.05787" lon="-0.43004">
        <ele>488.8</ele>
        <time>2025-07-22T16:42:04Z</time>
      </trkpt>
      <trkpt lat="43.05795" lon="-0.43023">
        <ele>488.6</ele>
        <time>2025-07-22T16:42:08Z</time>
      </trkpt>
      <trkpt lat="43.05807" lon="-0.43056">
        <ele>489.2</ele>
        <time>2025-07-22T16:42:16Z</time>
      </trkpt>
      <trkpt lat="43.05809" lon="-0.43073">
        <ele>489.8</ele>
        <time>2025-07-22T16:42:20Z</time>
      </trkpt>
      <trkpt lat="43.0581" lon="-0.43081">
        <ele>490.2</ele>
        <time>2025-07-22T16:42:22Z</time>
      </trkpt>
      <trkpt lat="43.05812" lon="-0.43112">
        <ele>491</ele>
        <time>2025-07-22T16:42:29Z</time>
      </trkpt>
      <trkpt lat="43.05812" lon="-0.43121">
        <ele>491.2</ele>
        <time>2025-07-22T16:42:31Z</time>
      </trkpt>
      <trkpt lat="43.05814" lon="-0.43157">
        <ele>492</ele>
        <time>2025-07-22T16:42:39Z</time>
      </trkpt>
      <trkpt lat="43.05815" lon="-0.43178">
        <ele>493</ele>
        <time>2025-07-22T16:42:44Z</time>
      </trkpt>
      <trkpt lat="43.05816" lon="-0.43196">
        <ele>493.4</ele>
        <time>2025-07-22T16:42:48Z</time>
      </trkpt>
      <trkpt lat="43.05818" lon="-0.43225">
        <ele>494.2</ele>
        <time>2025-07-22T16:42:55Z</time>
      </trkpt>
      <trkpt lat="43.05818" lon="-0.43233">
        <ele>494.4</ele>
        <time>2025-07-22T16:42:57Z</time>
      </trkpt>
      <trkpt lat="43.05818" lon="-0.43262">
        <ele>495.2</ele>
        <time>2025-07-22T16:43:04Z</time>
      </trkpt>
      <trkpt lat="43.05818" lon="-0.43274">
        <ele>495.4</ele>
        <time>2025-07-22T16:43:08Z</time>
      </trkpt>
      <trkpt lat="43.05818" lon="-0.43279">
        <ele>495.6</ele>
        <time>2025-07-22T16:43:10Z</time>
      </trkpt>
      <trkpt lat="43.05818" lon="-0.4328">
        <ele>495.8</ele>
        <time>2025-07-22T16:43:11Z</time>
      </trkpt>
      <trkpt lat="43.05818" lon="-0.43282">
        <ele>496</ele>
        <time>2025-07-22T16:43:15Z</time>
      </trkpt>
      <trkpt lat="43.05817" lon="-0.43285">
        <ele>496.2</ele>
        <time>2025-07-22T16:44:05Z</time>
      </trkpt>
      <trkpt lat="43.05816" lon="-0.43295">
        <ele>496.2</ele>
        <time>2025-07-22T16:44:08Z</time>
      </trkpt>
      <trkpt lat="43.05816" lon="-0.43316">
        <ele>496.4</ele>
        <time>2025-07-22T16:44:14Z</time>
      </trkpt>
      <trkpt lat="43.05815" lon="-0.43328">
        <ele>496.6</ele>
        <time>2025-07-22T16:44:18Z</time>
      </trkpt>
      <trkpt lat="43.05814" lon="-0.43347">
        <ele>497.2</ele>
        <time>2025-07-22T16:44:24Z</time>
      </trkpt>
      <trkpt lat="43.05813" lon="-0.43358">
        <ele>497.8</ele>
        <time>2025-07-22T16:44:27Z</time>
      </trkpt>
      <trkpt lat="43.05812" lon="-0.43377">
        <ele>498.2</ele>
        <time>2025-07-22T16:44:32Z</time>
      </trkpt>
      <trkpt lat="43.0581" lon="-0.43394">
        <ele>499</ele>
        <time>2025-07-22T16:44:37Z</time>
      </trkpt>
      <trkpt lat="43.05809" lon="-0.43405">
        <ele>499.4</ele>
        <time>2025-07-22T16:44:40Z</time>
      </trkpt>
      <trkpt lat="43.05808" lon="-0.43427">
        <ele>500</ele>
        <time>2025-07-22T16:44:46Z</time>
      </trkpt>
      <trkpt lat="43.05807" lon="-0.4345">
        <ele>500.6</ele>
        <time>2025-07-22T16:44:52Z</time>
      </trkpt>
      <trkpt lat="43.05806" lon="-0.43464">
        <ele>501.2</ele>
        <time>2025-07-22T16:44:57Z</time>
      </trkpt>
      <trkpt lat="43.05802" lon="-0.43492">
        <ele>502</ele>
        <time>2025-07-22T16:45:05Z</time>
      </trkpt>
      <trkpt lat="43.05802" lon="-0.43495">
        <ele>502.2</ele>
        <time>2025-07-22T16:45:06Z</time>
      </trkpt>
      <trkpt lat="43.05798" lon="-0.43512">
        <ele>503.2</ele>
        <time>2025-07-22T16:45:11Z</time>
      </trkpt>
      <trkpt lat="43.05797" lon="-0.43518">
        <ele>503.6</ele>
        <time>2025-07-22T16:45:13Z</time>
      </trkpt>
      <trkpt lat="43.05793" lon="-0.43532">
        <ele>504.4</ele>
        <time>2025-07-22T16:45:18Z</time>
      </trkpt>
      <trkpt lat="43.05792" lon="-0.43537">
        <ele>504.8</ele>
        <time>2025-07-22T16:45:20Z</time>
      </trkpt>
      <trkpt lat="43.05788" lon="-0.43547">
        <ele>505.6</ele>
        <time>2025-07-22T16:45:24Z</time>
      </trkpt>
      <trkpt lat="43.05783" lon="-0.43562">
        <ele>506.6</ele>
        <time>2025-07-22T16:45:30Z</time>
      </trkpt>
      <trkpt lat="43.05777" lon="-0.43574">
        <ele>507.4</ele>
        <time>2025-07-22T16:45:35Z</time>
      </trkpt>
      <trkpt lat="43.05777" lon="-0.43576">
        <ele>507.8</ele>
        <time>2025-07-22T16:45:36Z</time>
      </trkpt>
      <trkpt lat="43.05776" lon="-0.43579">
        <ele>507.8</ele>
        <time>2025-07-22T16:45:37Z</time>
      </trkpt>
      <trkpt lat="43.05773" lon="-0.43588">
        <ele>508.8</ele>
        <time>2025-07-22T16:45:41Z</time>
      </trkpt>
      <trkpt lat="43.0577" lon="-0.43595">
        <ele>509.2</ele>
        <time>2025-07-22T16:45:44Z</time>
      </trkpt>
      <trkpt lat="43.05766" lon="-0.436">
        <ele>510</ele>
        <time>2025-07-22T16:45:47Z</time>
      </trkpt>
      <trkpt lat="43.05762" lon="-0.43608">
        <ele>510.6</ele>
        <time>2025-07-22T16:45:51Z</time>
      </trkpt>
      <trkpt lat="43.05758" lon="-0.43614">
        <ele>511</ele>
        <time>2025-07-22T16:45:54Z</time>
      </trkpt>
      <trkpt lat="43.05756" lon="-0.43618">
        <ele>511.6</ele>
        <time>2025-07-22T16:45:56Z</time>
      </trkpt>
      <trkpt lat="43.05751" lon="-0.43629">
        <ele>512.2</ele>
        <time>2025-07-22T16:46:01Z</time>
      </trkpt>
      <trkpt lat="43.05751" lon="-0.43631">
        <ele>512.4</ele>
        <time>2025-07-22T16:46:02Z</time>
      </trkpt>
      <trkpt lat="43.05748" lon="-0.43639">
        <ele>513.2</ele>
        <time>2025-07-22T16:46:06Z</time>
      </trkpt>
      <trkpt lat="43.05744" lon="-0.43649">
        <ele>513.8</ele>
        <time>2025-07-22T16:46:10Z</time>
      </trkpt>
      <trkpt lat="43.05742" lon="-0.43653">
        <ele>514.2</ele>
        <time>2025-07-22T16:46:12Z</time>
      </trkpt>
      <trkpt lat="43.0574" lon="-0.43662">
        <ele>515</ele>
        <time>2025-07-22T16:46:15Z</time>
      </trkpt>
      <trkpt lat="43.05738" lon="-0.43666">
        <ele>515.4</ele>
        <time>2025-07-22T16:46:17Z</time>
      </trkpt>
      <trkpt lat="43.05732" lon="-0.43684">
        <ele>516.2</ele>
        <time>2025-07-22T16:46:24Z</time>
      </trkpt>
      <trkpt lat="43.05731" lon="-0.43687">
        <ele>516.6</ele>
        <time>2025-07-22T16:46:25Z</time>
      </trkpt>
      <trkpt lat="43.05728" lon="-0.43704">
        <ele>517.4</ele>
        <time>2025-07-22T16:46:31Z</time>
      </trkpt>
      <trkpt lat="43.05726" lon="-0.43713">
        <ele>518.2</ele>
        <time>2025-07-22T16:46:34Z</time>
      </trkpt>
      <trkpt lat="43.05725" lon="-0.4372">
        <ele>518.6</ele>
        <time>2025-07-22T16:46:36Z</time>
      </trkpt>
      <trkpt lat="43.05725" lon="-0.4374">
        <ele>519.4</ele>
        <time>2025-07-22T16:46:43Z</time>
      </trkpt>
      <trkpt lat="43.05725" lon="-0.43742">
        <ele>519.6</ele>
        <time>2025-07-22T16:46:44Z</time>
      </trkpt>
      <trkpt lat="43.05727" lon="-0.43759">
        <ele>520.8</ele>
        <time>2025-07-22T16:46:50Z</time>
      </trkpt>
      <trkpt lat="43.05728" lon="-0.43765">
        <ele>521</ele>
        <time>2025-07-22T16:46:52Z</time>
      </trkpt>
      <trkpt lat="43.0573" lon="-0.43779">
        <ele>522</ele>
        <time>2025-07-22T16:46:57Z</time>
      </trkpt>
      <trkpt lat="43.05731" lon="-0.43784">
        <ele>522.4</ele>
        <time>2025-07-22T16:46:59Z</time>
      </trkpt>
      <trkpt lat="43.05733" lon="-0.43795">
        <ele>523</ele>
        <time>2025-07-22T16:47:03Z</time>
      </trkpt>
      <trkpt lat="43.05735" lon="-0.43803">
        <ele>523.6</ele>
        <time>2025-07-22T16:47:06Z</time>
      </trkpt>
      <trkpt lat="43.05736" lon="-0.43808">
        <ele>523.8</ele>
        <time>2025-07-22T16:47:08Z</time>
      </trkpt>
      <trkpt lat="43.05736" lon="-0.4381">
        <ele>524.2</ele>
        <time>2025-07-22T16:47:09Z</time>
      </trkpt>
      <trkpt lat="43.05738" lon="-0.43823">
        <ele>525.2</ele>
        <time>2025-07-22T16:47:14Z</time>
      </trkpt>
      <trkpt lat="43.05739" lon="-0.4383">
        <ele>525.4</ele>
        <time>2025-07-22T16:47:17Z</time>
      </trkpt>
      <trkpt lat="43.05742" lon="-0.4384">
        <ele>526.4</ele>
        <time>2025-07-22T16:47:21Z</time>
      </trkpt>
      <trkpt lat="43.05743" lon="-0.43847">
        <ele>526.8</ele>
        <time>2025-07-22T16:47:24Z</time>
      </trkpt>
      <trkpt lat="43.05746" lon="-0.43856">
        <ele>527.4</ele>
        <time>2025-07-22T16:47:28Z</time>
      </trkpt>
      <trkpt lat="43.05747" lon="-0.43863">
        <ele>527.8</ele>
        <time>2025-07-22T16:47:31Z</time>
      </trkpt>
      <trkpt lat="43.05748" lon="-0.43868">
        <ele>528.6</ele>
        <time>2025-07-22T16:47:33Z</time>
      </trkpt>
      <trkpt lat="43.05751" lon="-0.4388">
        <ele>529.6</ele>
        <time>2025-07-22T16:47:38Z</time>
      </trkpt>
      <trkpt lat="43.05751" lon="-0.43883">
        <ele>529.8</ele>
        <time>2025-07-22T16:47:39Z</time>
      </trkpt>
      <trkpt lat="43.05753" lon="-0.43895">
        <ele>531</ele>
        <time>2025-07-22T16:47:44Z</time>
      </trkpt>
      <trkpt lat="43.05753" lon="-0.43902">
        <ele>531.8</ele>
        <time>2025-07-22T16:47:47Z</time>
      </trkpt>
      <trkpt lat="43.05753" lon="-0.43907">
        <ele>532</ele>
        <time>2025-07-22T16:47:49Z</time>
      </trkpt>
      <trkpt lat="43.05755" lon="-0.4392">
        <ele>533.2</ele>
        <time>2025-07-22T16:47:54Z</time>
      </trkpt>
      <trkpt lat="43.05755" lon="-0.43925">
        <ele>533.6</ele>
        <time>2025-07-22T16:47:56Z</time>
      </trkpt>
      <trkpt lat="43.05756" lon="-0.43934">
        <ele>534.4</ele>
        <time>2025-07-22T16:48:00Z</time>
      </trkpt>
      <trkpt lat="43.05758" lon="-0.43945">
        <ele>535.2</ele>
        <time>2025-07-22T16:48:04Z</time>
      </trkpt>
      <trkpt lat="43.05758" lon="-0.43947">
        <ele>535.6</ele>
        <time>2025-07-22T16:48:05Z</time>
      </trkpt>
      <trkpt lat="43.05759" lon="-0.43955">
        <ele>536.8</ele>
        <time>2025-07-22T16:48:08Z</time>
      </trkpt>
      <trkpt lat="43.05761" lon="-0.43964">
        <ele>537.4</ele>
        <time>2025-07-22T16:48:12Z</time>
      </trkpt>
      <trkpt lat="43.05762" lon="-0.43969">
        <ele>537.8</ele>
        <time>2025-07-22T16:48:14Z</time>
      </trkpt>
      <trkpt lat="43.05768" lon="-0.43979">
        <ele>539</ele>
        <time>2025-07-22T16:48:19Z</time>
      </trkpt>
      <trkpt lat="43.05769" lon="-0.4398">
        <ele>539.2</ele>
        <time>2025-07-22T16:48:20Z</time>
      </trkpt>
      <trkpt lat="43.05774" lon="-0.43985">
        <ele>540.2</ele>
        <time>2025-07-22T16:48:23Z</time>
      </trkpt>
      <trkpt lat="43.05778" lon="-0.43988">
        <ele>541.4</ele>
        <time>2025-07-22T16:48:26Z</time>
      </trkpt>
      <trkpt lat="43.0578" lon="-0.43989">
        <ele>541.6</ele>
        <time>2025-07-22T16:48:27Z</time>
      </trkpt>
      <trkpt lat="43.05785" lon="-0.4399">
        <ele>542.4</ele>
        <time>2025-07-22T16:48:30Z</time>
      </trkpt>
      <trkpt lat="43.05794" lon="-0.43987">
        <ele>543.4</ele>
        <time>2025-07-22T16:48:35Z</time>
      </trkpt>
      <trkpt lat="43.05803" lon="-0.43981">
        <ele>544.6</ele>
        <time>2025-07-22T16:48:40Z</time>
      </trkpt>
      <trkpt lat="43.05807" lon="-0.43979">
        <ele>545</ele>
        <time>2025-07-22T16:48:42Z</time>
      </trkpt>
      <trkpt lat="43.05812" lon="-0.43974">
        <ele>545.8</ele>
        <time>2025-07-22T16:48:45Z</time>
      </trkpt>
      <trkpt lat="43.05817" lon="-0.43968">
        <ele>546.8</ele>
        <time>2025-07-22T16:48:49Z</time>
      </trkpt>
      <trkpt lat="43.05819" lon="-0.43966">
        <ele>546.8</ele>
        <time>2025-07-22T16:48:50Z</time>
      </trkpt>
      <trkpt lat="43.05828" lon="-0.43957">
        <ele>548</ele>
        <time>2025-07-22T16:48:56Z</time>
      </trkpt>
      <trkpt lat="43.05829" lon="-0.43955">
        <ele>548</ele>
        <time>2025-07-22T16:48:57Z</time>
      </trkpt>
      <trkpt lat="43.05835" lon="-0.43948">
        <ele>549.2</ele>
        <time>2025-07-22T16:49:01Z</time>
      </trkpt>
      <trkpt lat="43.05841" lon="-0.43941">
        <ele>550</ele>
        <time>2025-07-22T16:49:05Z</time>
      </trkpt>
      <trkpt lat="43.05842" lon="-0.4394">
        <ele>550.2</ele>
        <time>2025-07-22T16:49:06Z</time>
      </trkpt>
      <trkpt lat="43.05849" lon="-0.43931">
        <ele>551</ele>
        <time>2025-07-22T16:49:11Z</time>
      </trkpt>
      <trkpt lat="43.05851" lon="-0.43927">
        <ele>551.4</ele>
        <time>2025-07-22T16:49:13Z</time>
      </trkpt>
      <trkpt lat="43.05857" lon="-0.43918">
        <ele>552.6</ele>
        <time>2025-07-22T16:49:18Z</time>
      </trkpt>
      <trkpt lat="43.05859" lon="-0.43917">
        <ele>553</ele>
        <time>2025-07-22T16:49:19Z</time>
      </trkpt>
      <trkpt lat="43.05863" lon="-0.43911">
        <ele>553.6</ele>
        <time>2025-07-22T16:49:22Z</time>
      </trkpt>
      <trkpt lat="43.05868" lon="-0.43904">
        <ele>554.4</ele>
        <time>2025-07-22T16:49:26Z</time>
      </trkpt>
      <trkpt lat="43.0587" lon="-0.43902">
        <ele>554.6</ele>
        <time>2025-07-22T16:49:27Z</time>
      </trkpt>
      <trkpt lat="43.05875" lon="-0.4389">
        <ele>555.8</ele>
        <time>2025-07-22T16:49:33Z</time>
      </trkpt>
      <trkpt lat="43.05876" lon="-0.43888">
        <ele>556</ele>
        <time>2025-07-22T16:49:34Z</time>
      </trkpt>
      <trkpt lat="43.0588" lon="-0.43881">
        <ele>556.6</ele>
        <time>2025-07-22T16:49:38Z</time>
      </trkpt>
      <trkpt lat="43.05882" lon="-0.43876">
        <ele>557</ele>
        <time>2025-07-22T16:49:40Z</time>
      </trkpt>
      <trkpt lat="43.05883" lon="-0.43875">
        <ele>557.4</ele>
        <time>2025-07-22T16:49:41Z</time>
      </trkpt>
      <trkpt lat="43.05887" lon="-0.43864">
        <ele>558.2</ele>
        <time>2025-07-22T16:49:46Z</time>
      </trkpt>
      <trkpt lat="43.0589" lon="-0.43858">
        <ele>559</ele>
        <time>2025-07-22T16:49:49Z</time>
      </trkpt>
      <trkpt lat="43.05892" lon="-0.43854">
        <ele>559.2</ele>
        <time>2025-07-22T16:49:51Z</time>
      </trkpt>
      <trkpt lat="43.05898" lon="-0.43843">
        <ele>560.2</ele>
        <time>2025-07-22T16:49:56Z</time>
      </trkpt>
      <trkpt lat="43.05901" lon="-0.43837">
        <ele>560.8</ele>
        <time>2025-07-22T16:49:59Z</time>
      </trkpt>
      <trkpt lat="43.05905" lon="-0.4383">
        <ele>561.4</ele>
        <time>2025-07-22T16:50:02Z</time>
      </trkpt>
      <trkpt lat="43.05909" lon="-0.43825">
        <ele>562</ele>
        <time>2025-07-22T16:50:05Z</time>
      </trkpt>
      <trkpt lat="43.05912" lon="-0.43823">
        <ele>562.4</ele>
        <time>2025-07-22T16:50:07Z</time>
      </trkpt>
      <trkpt lat="43.05925" lon="-0.43817">
        <ele>563.8</ele>
        <time>2025-07-22T16:50:13Z</time>
      </trkpt>
      <trkpt lat="43.05934" lon="-0.43813">
        <ele>564.8</ele>
        <time>2025-07-22T16:50:18Z</time>
      </trkpt>
      <trkpt lat="43.05938" lon="-0.43811">
        <ele>565.2</ele>
        <time>2025-07-22T16:50:20Z</time>
      </trkpt>
      <trkpt lat="43.05945" lon="-0.43808">
        <ele>566</ele>
        <time>2025-07-22T16:50:24Z</time>
      </trkpt>
      <trkpt lat="43.05957" lon="-0.43807">
        <ele>567</ele>
        <time>2025-07-22T16:50:30Z</time>
      </trkpt>
      <trkpt lat="43.05966" lon="-0.43805">
        <ele>568.2</ele>
        <time>2025-07-22T16:50:35Z</time>
      </trkpt>
      <trkpt lat="43.05969" lon="-0.43804">
        <ele>568.8</ele>
        <time>2025-07-22T16:50:37Z</time>
      </trkpt>
      <trkpt lat="43.05973" lon="-0.43804">
        <ele>569.2</ele>
        <time>2025-07-22T16:50:39Z</time>
      </trkpt>
      <trkpt lat="43.05983" lon="-0.43802">
        <ele>570.2</ele>
        <time>2025-07-22T16:50:45Z</time>
      </trkpt>
      <trkpt lat="43.05985" lon="-0.43801">
        <ele>570.4</ele>
        <time>2025-07-22T16:50:46Z</time>
      </trkpt>
      <trkpt lat="43.0599" lon="-0.43801">
        <ele>571.2</ele>
        <time>2025-07-22T16:50:50Z</time>
      </trkpt>
      <trkpt lat="43.05995" lon="-0.438">
        <ele>572</ele>
        <time>2025-07-22T16:50:53Z</time>
      </trkpt>
      <trkpt lat="43.05998" lon="-0.43799">
        <ele>572.4</ele>
        <time>2025-07-22T16:50:55Z</time>
      </trkpt>
      <trkpt lat="43.06008" lon="-0.43798">
        <ele>573.4</ele>
        <time>2025-07-22T16:51:00Z</time>
      </trkpt>
      <trkpt lat="43.06018" lon="-0.43797">
        <ele>574.6</ele>
        <time>2025-07-22T16:51:05Z</time>
      </trkpt>
      <trkpt lat="43.0602" lon="-0.43795">
        <ele>574.6</ele>
        <time>2025-07-22T16:51:06Z</time>
      </trkpt>
      <trkpt lat="43.0603" lon="-0.43795">
        <ele>575.6</ele>
        <time>2025-07-22T16:51:11Z</time>
      </trkpt>
      <trkpt lat="43.06032" lon="-0.43794">
        <ele>575.6</ele>
        <time>2025-07-22T16:51:12Z</time>
      </trkpt>
      <trkpt lat="43.06035" lon="-0.43794">
        <ele>575.8</ele>
        <time>2025-07-22T16:51:13Z</time>
      </trkpt>
      <trkpt lat="43.06043" lon="-0.43793">
        <ele>576.6</ele>
        <time>2025-07-22T16:51:17Z</time>
      </trkpt>
      <trkpt lat="43.06047" lon="-0.43792">
        <ele>577.2</ele>
        <time>2025-07-22T16:51:19Z</time>
      </trkpt>
      <trkpt lat="43.06056" lon="-0.43789">
        <ele>578</ele>
        <time>2025-07-22T16:51:23Z</time>
      </trkpt>
      <trkpt lat="43.06066" lon="-0.43791">
        <ele>579</ele>
        <time>2025-07-22T16:51:28Z</time>
      </trkpt>
      <trkpt lat="43.06075" lon="-0.4379">
        <ele>580.2</ele>
        <time>2025-07-22T16:51:33Z</time>
      </trkpt>
      <trkpt lat="43.06086" lon="-0.43789">
        <ele>581.4</ele>
        <time>2025-07-22T16:51:39Z</time>
      </trkpt>
      <trkpt lat="43.06094" lon="-0.43789">
        <ele>582</ele>
        <time>2025-07-22T16:51:43Z</time>
      </trkpt>
      <trkpt lat="43.061" lon="-0.43789">
        <ele>582.8</ele>
        <time>2025-07-22T16:51:46Z</time>
      </trkpt>
      <trkpt lat="43.06109" lon="-0.43787">
        <ele>584</ele>
        <time>2025-07-22T16:51:51Z</time>
      </trkpt>
      <trkpt lat="43.06123" lon="-0.4378">
        <ele>585.4</ele>
        <time>2025-07-22T16:51:58Z</time>
      </trkpt>
      <trkpt lat="43.06131" lon="-0.43774">
        <ele>586.2</ele>
        <time>2025-07-22T16:52:02Z</time>
      </trkpt>
      <trkpt lat="43.06141" lon="-0.43765">
        <ele>587.2</ele>
        <time>2025-07-22T16:52:08Z</time>
      </trkpt>
      <trkpt lat="43.0615" lon="-0.43758">
        <ele>588.6</ele>
        <time>2025-07-22T16:52:13Z</time>
      </trkpt>
      <trkpt lat="43.06153" lon="-0.43754">
        <ele>589</ele>
        <time>2025-07-22T16:52:15Z</time>
      </trkpt>
      <trkpt lat="43.06159" lon="-0.43752">
        <ele>589.6</ele>
        <time>2025-07-22T16:52:18Z</time>
      </trkpt>
      <trkpt lat="43.06168" lon="-0.43754">
        <ele>590.6</ele>
        <time>2025-07-22T16:52:22Z</time>
      </trkpt>
      <trkpt lat="43.06171" lon="-0.43757">
        <ele>591</ele>
        <time>2025-07-22T16:52:24Z</time>
      </trkpt>
      <trkpt lat="43.06175" lon="-0.43762">
        <ele>591.6</ele>
        <time>2025-07-22T16:52:27Z</time>
      </trkpt>
      <trkpt lat="43.06176" lon="-0.43764">
        <ele>591.8</ele>
        <time>2025-07-22T16:52:28Z</time>
      </trkpt>
      <trkpt lat="43.06177" lon="-0.43766">
        <ele>592</ele>
        <time>2025-07-22T16:52:29Z</time>
      </trkpt>
      <trkpt lat="43.06176" lon="-0.43782">
        <ele>593</ele>
        <time>2025-07-22T16:52:34Z</time>
      </trkpt>
      <trkpt lat="43.06167" lon="-0.43795">
        <ele>594.2</ele>
        <time>2025-07-22T16:52:40Z</time>
      </trkpt>
      <trkpt lat="43.06165" lon="-0.43797">
        <ele>594.4</ele>
        <time>2025-07-22T16:52:41Z</time>
      </trkpt>
      <trkpt lat="43.06157" lon="-0.43805">
        <ele>595.2</ele>
        <time>2025-07-22T16:52:46Z</time>
      </trkpt>
      <trkpt lat="43.06155" lon="-0.43807">
        <ele>595.4</ele>
        <time>2025-07-22T16:52:47Z</time>
      </trkpt>
      <trkpt lat="43.06149" lon="-0.43815">
        <ele>596.2</ele>
        <time>2025-07-22T16:52:51Z</time>
      </trkpt>
      <trkpt lat="43.06146" lon="-0.43819">
        <ele>596.2</ele>
        <time>2025-07-22T16:52:53Z</time>
      </trkpt>
      <trkpt lat="43.06137" lon="-0.43832">
        <ele>597.4</ele>
        <time>2025-07-22T16:52:59Z</time>
      </trkpt>
      <trkpt lat="43.06134" lon="-0.43836">
        <ele>597.6</ele>
        <time>2025-07-22T16:53:01Z</time>
      </trkpt>
      <trkpt lat="43.06126" lon="-0.43845">
        <ele>598.4</ele>
        <time>2025-07-22T16:53:06Z</time>
      </trkpt>
      <trkpt lat="43.06119" lon="-0.43854">
        <ele>599.2</ele>
        <time>2025-07-22T16:53:11Z</time>
      </trkpt>
      <trkpt lat="43.06116" lon="-0.43858">
        <ele>599.6</ele>
        <time>2025-07-22T16:53:13Z</time>
      </trkpt>
      <trkpt lat="43.06106" lon="-0.43871">
        <ele>600.8</ele>
        <time>2025-07-22T16:53:20Z</time>
      </trkpt>
      <trkpt lat="43.06104" lon="-0.43872">
        <ele>600.8</ele>
        <time>2025-07-22T16:53:21Z</time>
      </trkpt>
      <trkpt lat="43.06098" lon="-0.43879">
        <ele>601.8</ele>
        <time>2025-07-22T16:53:25Z</time>
      </trkpt>
      <trkpt lat="43.06087" lon="-0.43888">
        <ele>603</ele>
        <time>2025-07-22T16:53:31Z</time>
      </trkpt>
      <trkpt lat="43.06079" lon="-0.43896">
        <ele>604</ele>
        <time>2025-07-22T16:53:36Z</time>
      </trkpt>
      <trkpt lat="43.06071" lon="-0.43902">
        <ele>605.2</ele>
        <time>2025-07-22T16:53:41Z</time>
      </trkpt>
      <trkpt lat="43.06068" lon="-0.43906">
        <ele>605.4</ele>
        <time>2025-07-22T16:53:43Z</time>
      </trkpt>
      <trkpt lat="43.06063" lon="-0.43913">
        <ele>606</ele>
        <time>2025-07-22T16:53:46Z</time>
      </trkpt>
      <trkpt lat="43.06056" lon="-0.43926">
        <ele>607.4</ele>
        <time>2025-07-22T16:53:51Z</time>
      </trkpt>
      <trkpt lat="43.06055" lon="-0.43929">
        <ele>607.4</ele>
        <time>2025-07-22T16:53:52Z</time>
      </trkpt>
      <trkpt lat="43.06048" lon="-0.43949">
        <ele>608.2</ele>
        <time>2025-07-22T16:53:59Z</time>
      </trkpt>
      <trkpt lat="43.06047" lon="-0.43952">
        <ele>608.4</ele>
        <time>2025-07-22T16:54:00Z</time>
      </trkpt>
      <trkpt lat="43.06044" lon="-0.43979">
        <ele>609.2</ele>
        <time>2025-07-22T16:54:09Z</time>
      </trkpt>
      <trkpt lat="43.06043" lon="-0.43986">
        <ele>609.2</ele>
        <time>2025-07-22T16:54:11Z</time>
      </trkpt>
      <trkpt lat="43.0604" lon="-0.44011">
        <ele>610.2</ele>
        <time>2025-07-22T16:54:19Z</time>
      </trkpt>
      <trkpt lat="43.06041" lon="-0.44017">
        <ele>610.4</ele>
        <time>2025-07-22T16:54:21Z</time>
      </trkpt>
      <trkpt lat="43.06043" lon="-0.44032">
        <ele>611.4</ele>
        <time>2025-07-22T16:54:26Z</time>
      </trkpt>
      <trkpt lat="43.06043" lon="-0.44035">
        <ele>611.4</ele>
        <time>2025-07-22T16:54:27Z</time>
      </trkpt>
      <trkpt lat="43.06045" lon="-0.44049">
        <ele>612.4</ele>
        <time>2025-07-22T16:54:32Z</time>
      </trkpt>
      <trkpt lat="43.06048" lon="-0.44063">
        <ele>613.4</ele>
        <time>2025-07-22T16:54:37Z</time>
      </trkpt>
      <trkpt lat="43.0605" lon="-0.4407">
        <ele>614.2</ele>
        <time>2025-07-22T16:54:40Z</time>
      </trkpt>
      <trkpt lat="43.06051" lon="-0.44075">
        <ele>614.6</ele>
        <time>2025-07-22T16:54:42Z</time>
      </trkpt>
      <trkpt lat="43.06053" lon="-0.44081">
        <ele>615.8</ele>
        <time>2025-07-22T16:54:46Z</time>
      </trkpt>
      <trkpt lat="43.06053" lon="-0.44081">
        <ele>616.2</ele>
        <time>2025-07-22T16:54:47Z</time>
      </trkpt>
      <trkpt lat="43.06056" lon="-0.44087">
        <ele>617.6</ele>
        <time>2025-07-22T16:56:12Z</time>
      </trkpt>
      <trkpt lat="43.06057" lon="-0.44095">
        <ele>617.6</ele>
        <time>2025-07-22T16:56:15Z</time>
      </trkpt>
      <trkpt lat="43.0606" lon="-0.44113">
        <ele>618.6</ele>
        <time>2025-07-22T16:56:21Z</time>
      </trkpt>
      <trkpt lat="43.06061" lon="-0.44119">
        <ele>619</ele>
        <time>2025-07-22T16:56:23Z</time>
      </trkpt>
      <trkpt lat="43.06062" lon="-0.44128">
        <ele>619.6</ele>
        <time>2025-07-22T16:56:26Z</time>
      </trkpt>
      <trkpt lat="43.06062" lon="-0.44139">
        <ele>620.8</ele>
        <time>2025-07-22T16:56:30Z</time>
      </trkpt>
      <trkpt lat="43.0606" lon="-0.44152">
        <ele>622</ele>
        <time>2025-07-22T16:56:35Z</time>
      </trkpt>
      <trkpt lat="43.06059" lon="-0.44166">
        <ele>623</ele>
        <time>2025-07-22T16:56:40Z</time>
      </trkpt>
      <trkpt lat="43.06058" lon="-0.44176">
        <ele>624.2</ele>
        <time>2025-07-22T16:56:44Z</time>
      </trkpt>
      <trkpt lat="43.06058" lon="-0.44189">
        <ele>625</ele>
        <time>2025-07-22T16:56:49Z</time>
      </trkpt>
      <trkpt lat="43.06059" lon="-0.44191">
        <ele>625.2</ele>
        <time>2025-07-22T16:56:50Z</time>
      </trkpt>
      <trkpt lat="43.06059" lon="-0.44203">
        <ele>626.2</ele>
        <time>2025-07-22T16:56:55Z</time>
      </trkpt>
      <trkpt lat="43.0606" lon="-0.44205">
        <ele>626.2</ele>
        <time>2025-07-22T16:56:56Z</time>
      </trkpt>
      <trkpt lat="43.0606" lon="-0.4422">
        <ele>627.4</ele>
        <time>2025-07-22T16:57:02Z</time>
      </trkpt>
      <trkpt lat="43.0606" lon="-0.44221">
        <ele>627.6</ele>
        <time>2025-07-22T16:57:03Z</time>
      </trkpt>
      <trkpt lat="43.06058" lon="-0.4423">
        <ele>628.4</ele>
        <time>2025-07-22T16:57:07Z</time>
      </trkpt>
      <trkpt lat="43.06057" lon="-0.44239">
        <ele>629</ele>
        <time>2025-07-22T16:57:11Z</time>
      </trkpt>
      <trkpt lat="43.06055" lon="-0.44248">
        <ele>629.4</ele>
        <time>2025-07-22T16:57:15Z</time>
      </trkpt>
      <trkpt lat="43.06054" lon="-0.44254">
        <ele>630</ele>
        <time>2025-07-22T16:57:18Z</time>
      </trkpt>
      <trkpt lat="43.06053" lon="-0.44263">
        <ele>630.6</ele>
        <time>2025-07-22T16:57:22Z</time>
      </trkpt>
      <trkpt lat="43.06053" lon="-0.44268">
        <ele>630.8</ele>
        <time>2025-07-22T16:57:24Z</time>
      </trkpt>
      <trkpt lat="43.06053" lon="-0.44281">
        <ele>631.6</ele>
        <time>2025-07-22T16:57:30Z</time>
      </trkpt>
      <trkpt lat="43.06053" lon="-0.44284">
        <ele>631.6</ele>
        <time>2025-07-22T16:57:31Z</time>
      </trkpt>
      <trkpt lat="43.06054" lon="-0.44297">
        <ele>632.6</ele>
        <time>2025-07-22T16:57:37Z</time>
      </trkpt>
      <trkpt lat="43.06057" lon="-0.44309">
        <ele>633.6</ele>
        <time>2025-07-22T16:57:43Z</time>
      </trkpt>
      <trkpt lat="43.06058" lon="-0.44311">
        <ele>633.8</ele>
        <time>2025-07-22T16:57:44Z</time>
      </trkpt>
      <trkpt lat="43.06062" lon="-0.44324">
        <ele>634.8</ele>
        <time>2025-07-22T16:57:49Z</time>
      </trkpt>
      <trkpt lat="43.06063" lon="-0.44327">
        <ele>635.2</ele>
        <time>2025-07-22T16:57:51Z</time>
      </trkpt>
      <trkpt lat="43.06066" lon="-0.44336">
        <ele>635.8</ele>
        <time>2025-07-22T16:57:56Z</time>
      </trkpt>
      <trkpt lat="43.06067" lon="-0.44339">
        <ele>636</ele>
        <time>2025-07-22T16:57:57Z</time>
      </trkpt>
      <trkpt lat="43.06069" lon="-0.44346">
        <ele>636.8</ele>
        <time>2025-07-22T16:58:01Z</time>
      </trkpt>
      <trkpt lat="43.06069" lon="-0.44353">
        <ele>637.6</ele>
        <time>2025-07-22T16:58:04Z</time>
      </trkpt>
      <trkpt lat="43.06069" lon="-0.44358">
        <ele>637.8</ele>
        <time>2025-07-22T16:58:06Z</time>
      </trkpt>
      <trkpt lat="43.06067" lon="-0.44373">
        <ele>638.6</ele>
        <time>2025-07-22T16:58:12Z</time>
      </trkpt>
      <trkpt lat="43.06067" lon="-0.44377">
        <ele>639</ele>
        <time>2025-07-22T16:58:14Z</time>
      </trkpt>
      <trkpt lat="43.06065" lon="-0.4439">
        <ele>640</ele>
        <time>2025-07-22T16:58:19Z</time>
      </trkpt>
      <trkpt lat="43.06064" lon="-0.44398">
        <ele>640.8</ele>
        <time>2025-07-22T16:58:22Z</time>
      </trkpt>
      <trkpt lat="43.06064" lon="-0.44402">
        <ele>641.2</ele>
        <time>2025-07-22T16:58:24Z</time>
      </trkpt>
      <trkpt lat="43.06065" lon="-0.44412">
        <ele>642</ele>
        <time>2025-07-22T16:58:28Z</time>
      </trkpt>
      <trkpt lat="43.06065" lon="-0.44415">
        <ele>642.2</ele>
        <time>2025-07-22T16:58:29Z</time>
      </trkpt>
      <trkpt lat="43.06065" lon="-0.44423">
        <ele>642.6</ele>
        <time>2025-07-22T16:58:32Z</time>
      </trkpt>
      <trkpt lat="43.06066" lon="-0.4443">
        <ele>643.2</ele>
        <time>2025-07-22T16:58:35Z</time>
      </trkpt>
      <trkpt lat="43.06067" lon="-0.44441">
        <ele>644.4</ele>
        <time>2025-07-22T16:58:40Z</time>
      </trkpt>
      <trkpt lat="43.06068" lon="-0.44444">
        <ele>644.8</ele>
        <time>2025-07-22T16:58:41Z</time>
      </trkpt>
      <trkpt lat="43.0607" lon="-0.44455">
        <ele>645.4</ele>
        <time>2025-07-22T16:58:46Z</time>
      </trkpt>
      <trkpt lat="43.06069" lon="-0.44459">
        <ele>645.8</ele>
        <time>2025-07-22T16:58:48Z</time>
      </trkpt>
      <trkpt lat="43.06069" lon="-0.44466">
        <ele>646.6</ele>
        <time>2025-07-22T16:58:51Z</time>
      </trkpt>
      <trkpt lat="43.06068" lon="-0.44476">
        <ele>647.6</ele>
        <time>2025-07-22T16:58:55Z</time>
      </trkpt>
      <trkpt lat="43.06066" lon="-0.44486">
        <ele>648.4</ele>
        <time>2025-07-22T16:58:59Z</time>
      </trkpt>
      <trkpt lat="43.06066" lon="-0.44488">
        <ele>648.8</ele>
        <time>2025-07-22T16:59:00Z</time>
      </trkpt>
      <trkpt lat="43.06066" lon="-0.44503">
        <ele>649.8</ele>
        <time>2025-07-22T16:59:06Z</time>
      </trkpt>
      <trkpt lat="43.06067" lon="-0.44505">
        <ele>650</ele>
        <time>2025-07-22T16:59:07Z</time>
      </trkpt>
      <trkpt lat="43.06074" lon="-0.44507">
        <ele>651.2</ele>
        <time>2025-07-22T16:59:11Z</time>
      </trkpt>
      <trkpt lat="43.06078" lon="-0.44505">
        <ele>651.6</ele>
        <time>2025-07-22T16:59:13Z</time>
      </trkpt>
      <trkpt lat="43.06081" lon="-0.44502">
        <ele>652.2</ele>
        <time>2025-07-22T16:59:15Z</time>
      </trkpt>
      <trkpt lat="43.06085" lon="-0.44496">
        <ele>653.2</ele>
        <time>2025-07-22T16:59:18Z</time>
      </trkpt>
      <trkpt lat="43.06087" lon="-0.44494">
        <ele>653.4</ele>
        <time>2025-07-22T16:59:19Z</time>
      </trkpt>
      <trkpt lat="43.06088" lon="-0.44491">
        <ele>653.6</ele>
        <time>2025-07-22T16:59:20Z</time>
      </trkpt>
      <trkpt lat="43.0609" lon="-0.44483">
        <ele>654.4</ele>
        <time>2025-07-22T16:59:23Z</time>
      </trkpt>
      <trkpt lat="43.06093" lon="-0.44473">
        <ele>655.2</ele>
        <time>2025-07-22T16:59:27Z</time>
      </trkpt>
      <trkpt lat="43.06096" lon="-0.44465">
        <ele>655.6</ele>
        <time>2025-07-22T16:59:30Z</time>
      </trkpt>
      <trkpt lat="43.06102" lon="-0.44451">
        <ele>656.2</ele>
        <time>2025-07-22T16:59:36Z</time>
      </trkpt>
      <trkpt lat="43.06104" lon="-0.44444">
        <ele>656.6</ele>
        <time>2025-07-22T16:59:39Z</time>
      </trkpt>
      <trkpt lat="43.0611" lon="-0.44435">
        <ele>657.4</ele>
        <time>2025-07-22T16:59:44Z</time>
      </trkpt>
      <trkpt lat="43.06114" lon="-0.44432">
        <ele>657.8</ele>
        <time>2025-07-22T16:59:46Z</time>
      </trkpt>
      <trkpt lat="43.0612" lon="-0.44422">
        <ele>658.4</ele>
        <time>2025-07-22T16:59:52Z</time>
      </trkpt>
      <trkpt lat="43.06125" lon="-0.44419">
        <ele>658.8</ele>
        <time>2025-07-22T16:59:55Z</time>
      </trkpt>
      <trkpt lat="43.0613" lon="-0.44413">
        <ele>659</ele>
        <time>2025-07-22T16:59:59Z</time>
      </trkpt>
      <trkpt lat="43.06138" lon="-0.444">
        <ele>659.8</ele>
        <time>2025-07-22T17:00:06Z</time>
      </trkpt>
      <trkpt lat="43.06139" lon="-0.44398">
        <ele>660</ele>
        <time>2025-07-22T17:00:07Z</time>
      </trkpt>
      <trkpt lat="43.06146" lon="-0.44385">
        <ele>660.8</ele>
        <time>2025-07-22T17:00:13Z</time>
      </trkpt>
      <trkpt lat="43.06148" lon="-0.44383">
        <ele>661</ele>
        <time>2025-07-22T17:00:14Z</time>
      </trkpt>
      <trkpt lat="43.06156" lon="-0.44367">
        <ele>662</ele>
        <time>2025-07-22T17:00:21Z</time>
      </trkpt>
      <trkpt lat="43.06158" lon="-0.44362">
        <ele>662.2</ele>
        <time>2025-07-22T17:00:23Z</time>
      </trkpt>
      <trkpt lat="43.06164" lon="-0.4435">
        <ele>663</ele>
        <time>2025-07-22T17:00:28Z</time>
      </trkpt>
      <trkpt lat="43.06168" lon="-0.44343">
        <ele>663.6</ele>
        <time>2025-07-22T17:00:31Z</time>
      </trkpt>
      <trkpt lat="43.06172" lon="-0.44333">
        <ele>664.2</ele>
        <time>2025-07-22T17:00:35Z</time>
      </trkpt>
      <trkpt lat="43.06179" lon="-0.44318">
        <ele>665.2</ele>
        <time>2025-07-22T17:00:41Z</time>
      </trkpt>
      <trkpt lat="43.06179" lon="-0.44315">
        <ele>665.2</ele>
        <time>2025-07-22T17:00:42Z</time>
      </trkpt>
      <trkpt lat="43.06185" lon="-0.44296">
        <ele>666.4</ele>
        <time>2025-07-22T17:00:49Z</time>
      </trkpt>
      <trkpt lat="43.06185" lon="-0.44293">
        <ele>666.6</ele>
        <time>2025-07-22T17:00:50Z</time>
      </trkpt>
      <trkpt lat="43.06189" lon="-0.44278">
        <ele>667.6</ele>
        <time>2025-07-22T17:00:55Z</time>
      </trkpt>
      <trkpt lat="43.06191" lon="-0.4427">
        <ele>668</ele>
        <time>2025-07-22T17:00:58Z</time>
      </trkpt>
      <trkpt lat="43.06195" lon="-0.44253">
        <ele>668.4</ele>
        <time>2025-07-22T17:01:04Z</time>
      </trkpt>
      <trkpt lat="43.06198" lon="-0.4424">
        <ele>669</ele>
        <time>2025-07-22T17:01:09Z</time>
      </trkpt>
      <trkpt lat="43.06199" lon="-0.44235">
        <ele>669.4</ele>
        <time>2025-07-22T17:01:11Z</time>
      </trkpt>
      <trkpt lat="43.06203" lon="-0.44221">
        <ele>670.4</ele>
        <time>2025-07-22T17:01:16Z</time>
      </trkpt>
      <trkpt lat="43.06204" lon="-0.44219">
        <ele>670.8</ele>
        <time>2025-07-22T17:01:17Z</time>
      </trkpt>
      <trkpt lat="43.06208" lon="-0.44202">
        <ele>671.4</ele>
        <time>2025-07-22T17:01:23Z</time>
      </trkpt>
      <trkpt lat="43.0621" lon="-0.44197">
        <ele>671.8</ele>
        <time>2025-07-22T17:01:25Z</time>
      </trkpt>
      <trkpt lat="43.06214" lon="-0.44182">
        <ele>672.4</ele>
        <time>2025-07-22T17:01:31Z</time>
      </trkpt>
      <trkpt lat="43.06217" lon="-0.44173">
        <ele>672.8</ele>
        <time>2025-07-22T17:01:34Z</time>
      </trkpt>
      <trkpt lat="43.0622" lon="-0.44163">
        <ele>673.6</ele>
        <time>2025-07-22T17:01:38Z</time>
      </trkpt>
      <trkpt lat="43.06222" lon="-0.44155">
        <ele>674</ele>
        <time>2025-07-22T17:01:41Z</time>
      </trkpt>
      <trkpt lat="43.06229" lon="-0.44134">
        <ele>675</ele>
        <time>2025-07-22T17:01:49Z</time>
      </trkpt>
      <trkpt lat="43.0623" lon="-0.44131">
        <ele>675.2</ele>
        <time>2025-07-22T17:01:50Z</time>
      </trkpt>
      <trkpt lat="43.06234" lon="-0.4411">
        <ele>676</ele>
        <time>2025-07-22T17:01:57Z</time>
      </trkpt>
      <trkpt lat="43.06234" lon="-0.44108">
        <ele>676.2</ele>
        <time>2025-07-22T17:01:58Z</time>
      </trkpt>
      <trkpt lat="43.06235" lon="-0.44093">
        <ele>677</ele>
        <time>2025-07-22T17:02:03Z</time>
      </trkpt>
      <trkpt lat="43.06235" lon="-0.44084">
        <ele>677.6</ele>
        <time>2025-07-22T17:02:06Z</time>
      </trkpt>
      <trkpt lat="43.06235" lon="-0.44081">
        <ele>677.8</ele>
        <time>2025-07-22T17:02:07Z</time>
      </trkpt>
      <trkpt lat="43.06234" lon="-0.44067">
        <ele>678.8</ele>
        <time>2025-07-22T17:02:12Z</time>
      </trkpt>
      <trkpt lat="43.06234" lon="-0.44061">
        <ele>679.4</ele>
        <time>2025-07-22T17:02:14Z</time>
      </trkpt>
      <trkpt lat="43.06234" lon="-0.4405">
        <ele>680</ele>
        <time>2025-07-22T17:02:18Z</time>
      </trkpt>
      <trkpt lat="43.06236" lon="-0.44041">
        <ele>681</ele>
        <time>2025-07-22T17:02:21Z</time>
      </trkpt>
      <trkpt lat="43.06247" lon="-0.44031">
        <ele>681.8</ele>
        <time>2025-07-22T17:02:27Z</time>
      </trkpt>
      <trkpt lat="43.06262" lon="-0.44034">
        <ele>682</ele>
        <time>2025-07-22T17:02:34Z</time>
      </trkpt>
      <trkpt lat="43.06264" lon="-0.44036">
        <ele>682.2</ele>
        <time>2025-07-22T17:02:35Z</time>
      </trkpt>
      <trkpt lat="43.06269" lon="-0.4405">
        <ele>682.6</ele>
        <time>2025-07-22T17:02:40Z</time>
      </trkpt>
      <trkpt lat="43.06268" lon="-0.44059">
        <ele>683.2</ele>
        <time>2025-07-22T17:02:43Z</time>
      </trkpt>
      <trkpt lat="43.06266" lon="-0.44072">
        <ele>683.6</ele>
        <time>2025-07-22T17:02:47Z</time>
      </trkpt>
      <trkpt lat="43.06263" lon="-0.4408">
        <ele>684.2</ele>
        <time>2025-07-22T17:02:50Z</time>
      </trkpt>
      <trkpt lat="43.0626" lon="-0.44093">
        <ele>684.8</ele>
        <time>2025-07-22T17:02:54Z</time>
      </trkpt>
      <trkpt lat="43.06259" lon="-0.44105">
        <ele>685.2</ele>
        <time>2025-07-22T17:02:58Z</time>
      </trkpt>
      <trkpt lat="43.0626" lon="-0.44117">
        <ele>685.8</ele>
        <time>2025-07-22T17:03:02Z</time>
      </trkpt>
      <trkpt lat="43.06261" lon="-0.44129">
        <ele>686.2</ele>
        <time>2025-07-22T17:03:06Z</time>
      </trkpt>
      <trkpt lat="43.06263" lon="-0.4414">
        <ele>686.8</ele>
        <time>2025-07-22T17:03:10Z</time>
      </trkpt>
      <trkpt lat="43.06263" lon="-0.44151">
        <ele>687.2</ele>
        <time>2025-07-22T17:03:14Z</time>
      </trkpt>
      <trkpt lat="43.06264" lon="-0.4416">
        <ele>687.8</ele>
        <time>2025-07-22T17:03:18Z</time>
      </trkpt>
      <trkpt lat="43.06265" lon="-0.44165">
        <ele>688.4</ele>
        <time>2025-07-22T17:03:20Z</time>
      </trkpt>
      <trkpt lat="43.06265" lon="-0.44174">
        <ele>689.4</ele>
        <time>2025-07-22T17:03:23Z</time>
      </trkpt>
      <trkpt lat="43.06265" lon="-0.44179">
        <ele>689.8</ele>
        <time>2025-07-22T17:03:25Z</time>
      </trkpt>
      <trkpt lat="43.06266" lon="-0.44192">
        <ele>690.4</ele>
        <time>2025-07-22T17:03:29Z</time>
      </trkpt>
      <trkpt lat="43.06265" lon="-0.44202">
        <ele>691.2</ele>
        <time>2025-07-22T17:03:33Z</time>
      </trkpt>
      <trkpt lat="43.06265" lon="-0.44216">
        <ele>692.4</ele>
        <time>2025-07-22T17:03:38Z</time>
      </trkpt>
      <trkpt lat="43.06266" lon="-0.44223">
        <ele>692.8</ele>
        <time>2025-07-22T17:03:41Z</time>
      </trkpt>
      <trkpt lat="43.06266" lon="-0.44233">
        <ele>693.6</ele>
        <time>2025-07-22T17:03:44Z</time>
      </trkpt>
      <trkpt lat="43.06266" lon="-0.44245">
        <ele>694.4</ele>
        <time>2025-07-22T17:03:49Z</time>
      </trkpt>
      <trkpt lat="43.06266" lon="-0.4425">
        <ele>694.8</ele>
        <time>2025-07-22T17:03:51Z</time>
      </trkpt>
      <trkpt lat="43.06266" lon="-0.44268">
        <ele>696</ele>
        <time>2025-07-22T17:03:57Z</time>
      </trkpt>
      <trkpt lat="43.06266" lon="-0.44272">
        <ele>696.4</ele>
        <time>2025-07-22T17:03:59Z</time>
      </trkpt>
      <trkpt lat="43.06266" lon="-0.44284">
        <ele>697</ele>
        <time>2025-07-22T17:04:03Z</time>
      </trkpt>
      <trkpt lat="43.06265" lon="-0.44305">
        <ele>697.8</ele>
        <time>2025-07-22T17:04:11Z</time>
      </trkpt>
      <trkpt lat="43.06264" lon="-0.44316">
        <ele>698.8</ele>
        <time>2025-07-22T17:04:15Z</time>
      </trkpt>
      <trkpt lat="43.06265" lon="-0.44329">
        <ele>699.8</ele>
        <time>2025-07-22T17:04:20Z</time>
      </trkpt>
      <trkpt lat="43.06265" lon="-0.44332">
        <ele>700</ele>
        <time>2025-07-22T17:04:21Z</time>
      </trkpt>
      <trkpt lat="43.06265" lon="-0.44348">
        <ele>701</ele>
        <time>2025-07-22T17:04:27Z</time>
      </trkpt>
      <trkpt lat="43.06265" lon="-0.44356">
        <ele>701.4</ele>
        <time>2025-07-22T17:04:30Z</time>
      </trkpt>
      <trkpt lat="43.06265" lon="-0.44367">
        <ele>702</ele>
        <time>2025-07-22T17:04:34Z</time>
      </trkpt>
      <trkpt lat="43.06266" lon="-0.44375">
        <ele>702.6</ele>
        <time>2025-07-22T17:04:37Z</time>
      </trkpt>
      <trkpt lat="43.06267" lon="-0.44382">
        <ele>703</ele>
        <time>2025-07-22T17:04:40Z</time>
      </trkpt>
      <trkpt lat="43.06267" lon="-0.44399">
        <ele>704</ele>
        <time>2025-07-22T17:04:46Z</time>
      </trkpt>
      <trkpt lat="43.06268" lon="-0.44404">
        <ele>704.6</ele>
        <time>2025-07-22T17:04:48Z</time>
      </trkpt>
      <trkpt lat="43.06268" lon="-0.44411">
        <ele>705</ele>
        <time>2025-07-22T17:04:51Z</time>
      </trkpt>
      <trkpt lat="43.06269" lon="-0.44423">
        <ele>706</ele>
        <time>2025-07-22T17:04:56Z</time>
      </trkpt>
      <trkpt lat="43.06269" lon="-0.44426">
        <ele>706.2</ele>
        <time>2025-07-22T17:04:57Z</time>
      </trkpt>
      <trkpt lat="43.0627" lon="-0.44438">
        <ele>707.2</ele>
        <time>2025-07-22T17:05:02Z</time>
      </trkpt>
      <trkpt lat="43.0627" lon="-0.4444">
        <ele>707.4</ele>
        <time>2025-07-22T17:05:03Z</time>
      </trkpt>
      <trkpt lat="43.06269" lon="-0.44443">
        <ele>707.6</ele>
        <time>2025-07-22T17:05:04Z</time>
      </trkpt>
      <trkpt lat="43.06269" lon="-0.44455">
        <ele>708.4</ele>
        <time>2025-07-22T17:05:09Z</time>
      </trkpt>
      <trkpt lat="43.06267" lon="-0.44475">
        <ele>709.6</ele>
        <time>2025-07-22T17:05:16Z</time>
      </trkpt>
      <trkpt lat="43.06268" lon="-0.44478">
        <ele>709.8</ele>
        <time>2025-07-22T17:05:17Z</time>
      </trkpt>
      <trkpt lat="43.06266" lon="-0.44492">
        <ele>710.8</ele>
        <time>2025-07-22T17:05:22Z</time>
      </trkpt>
      <trkpt lat="43.06265" lon="-0.44503">
        <ele>711.2</ele>
        <time>2025-07-22T17:05:26Z</time>
      </trkpt>
      <trkpt lat="43.06264" lon="-0.44511">
        <ele>711.8</ele>
        <time>2025-07-22T17:05:29Z</time>
      </trkpt>
      <trkpt lat="43.06263" lon="-0.44526">
        <ele>712.6</ele>
        <time>2025-07-22T17:05:35Z</time>
      </trkpt>
      <trkpt lat="43.06262" lon="-0.44544">
        <ele>713.8</ele>
        <time>2025-07-22T17:05:42Z</time>
      </trkpt>
      <trkpt lat="43.06262" lon="-0.44552">
        <ele>714.6</ele>
        <time>2025-07-22T17:05:45Z</time>
      </trkpt>
      <trkpt lat="43.06261" lon="-0.44561">
        <ele>715</ele>
        <time>2025-07-22T17:05:48Z</time>
      </trkpt>
      <trkpt lat="43.06261" lon="-0.4458">
        <ele>716</ele>
        <time>2025-07-22T17:05:55Z</time>
      </trkpt>
      <trkpt lat="43.06262" lon="-0.44583">
        <ele>716</ele>
        <time>2025-07-22T17:05:56Z</time>
      </trkpt>
      <trkpt lat="43.06262" lon="-0.44588">
        <ele>716.2</ele>
        <time>2025-07-22T17:05:58Z</time>
      </trkpt>
      <trkpt lat="43.06262" lon="-0.44604">
        <ele>717</ele>
        <time>2025-07-22T17:06:04Z</time>
      </trkpt>
      <trkpt lat="43.06264" lon="-0.44619">
        <ele>718.2</ele>
        <time>2025-07-22T17:06:10Z</time>
      </trkpt>
      <trkpt lat="43.06264" lon="-0.44624">
        <ele>718.6</ele>
        <time>2025-07-22T17:06:12Z</time>
      </trkpt>
      <trkpt lat="43.06266" lon="-0.4463">
        <ele>719.2</ele>
        <time>2025-07-22T17:06:15Z</time>
      </trkpt>
      <trkpt lat="43.06268" lon="-0.44637">
        <ele>719.8</ele>
        <time>2025-07-22T17:06:18Z</time>
      </trkpt>
      <trkpt lat="43.06269" lon="-0.44646">
        <ele>720.2</ele>
        <time>2025-07-22T17:06:21Z</time>
      </trkpt>
      <trkpt lat="43.06271" lon="-0.44658">
        <ele>721</ele>
        <time>2025-07-22T17:06:26Z</time>
      </trkpt>
      <trkpt lat="43.06272" lon="-0.44663">
        <ele>721.2</ele>
        <time>2025-07-22T17:06:28Z</time>
      </trkpt>
      <trkpt lat="43.06274" lon="-0.44677">
        <ele>722</ele>
        <time>2025-07-22T17:06:33Z</time>
      </trkpt>
      <trkpt lat="43.06275" lon="-0.44686">
        <ele>722.4</ele>
        <time>2025-07-22T17:06:36Z</time>
      </trkpt>
      <trkpt lat="43.06276" lon="-0.44694">
        <ele>722.6</ele>
        <time>2025-07-22T17:06:39Z</time>
      </trkpt>
      <trkpt lat="43.06277" lon="-0.44706">
        <ele>723.4</ele>
        <time>2025-07-22T17:06:43Z</time>
      </trkpt>
      <trkpt lat="43.06278" lon="-0.44709">
        <ele>723.6</ele>
        <time>2025-07-22T17:06:44Z</time>
      </trkpt>
      <trkpt lat="43.0628" lon="-0.44723">
        <ele>724.4</ele>
        <time>2025-07-22T17:06:49Z</time>
      </trkpt>
      <trkpt lat="43.0628" lon="-0.44726">
        <ele>724.6</ele>
        <time>2025-07-22T17:06:50Z</time>
      </trkpt>
      <trkpt lat="43.06282" lon="-0.4474">
        <ele>725.4</ele>
        <time>2025-07-22T17:06:55Z</time>
      </trkpt>
      <trkpt lat="43.06283" lon="-0.44745">
        <ele>725.8</ele>
        <time>2025-07-22T17:06:57Z</time>
      </trkpt>
      <trkpt lat="43.06286" lon="-0.44758">
        <ele>726.4</ele>
        <time>2025-07-22T17:07:02Z</time>
      </trkpt>
      <trkpt lat="43.06289" lon="-0.44769">
        <ele>727.2</ele>
        <time>2025-07-22T17:07:06Z</time>
      </trkpt>
      <trkpt lat="43.0629" lon="-0.44773">
        <ele>727.6</ele>
        <time>2025-07-22T17:07:08Z</time>
      </trkpt>
      <trkpt lat="43.06292" lon="-0.44787">
        <ele>728.4</ele>
        <time>2025-07-22T17:07:13Z</time>
      </trkpt>
      <trkpt lat="43.06294" lon="-0.44797">
        <ele>728.8</ele>
        <time>2025-07-22T17:07:17Z</time>
      </trkpt>
      <trkpt lat="43.06295" lon="-0.44808">
        <ele>729.4</ele>
        <time>2025-07-22T17:07:21Z</time>
      </trkpt>
      <trkpt lat="43.06296" lon="-0.44812">
        <ele>729.6</ele>
        <time>2025-07-22T17:07:23Z</time>
      </trkpt>
      <trkpt lat="43.06297" lon="-0.44826">
        <ele>730.6</ele>
        <time>2025-07-22T17:07:28Z</time>
      </trkpt>
      <trkpt lat="43.06297" lon="-0.44829">
        <ele>730.8</ele>
        <time>2025-07-22T17:07:29Z</time>
      </trkpt>
      <trkpt lat="43.06298" lon="-0.44843">
        <ele>731.8</ele>
        <time>2025-07-22T17:07:34Z</time>
      </trkpt>
      <trkpt lat="43.06298" lon="-0.4485">
        <ele>732.4</ele>
        <time>2025-07-22T17:07:37Z</time>
      </trkpt>
      <trkpt lat="43.06299" lon="-0.44859">
        <ele>732.6</ele>
        <time>2025-07-22T17:07:40Z</time>
      </trkpt>
      <trkpt lat="43.06299" lon="-0.44866">
        <ele>733.2</ele>
        <time>2025-07-22T17:07:43Z</time>
      </trkpt>
      <trkpt lat="43.06299" lon="-0.44877">
        <ele>733.8</ele>
        <time>2025-07-22T17:07:47Z</time>
      </trkpt>
      <trkpt lat="43.06299" lon="-0.4489">
        <ele>734.6</ele>
        <time>2025-07-22T17:07:52Z</time>
      </trkpt>
      <trkpt lat="43.06301" lon="-0.44898">
        <ele>735</ele>
        <time>2025-07-22T17:07:55Z</time>
      </trkpt>
      <trkpt lat="43.06303" lon="-0.44908">
        <ele>735.6</ele>
        <time>2025-07-22T17:07:59Z</time>
      </trkpt>
      <trkpt lat="43.06303" lon="-0.44915">
        <ele>736.2</ele>
        <time>2025-07-22T17:08:02Z</time>
      </trkpt>
      <trkpt lat="43.06303" lon="-0.44929">
        <ele>737.2</ele>
        <time>2025-07-22T17:08:07Z</time>
      </trkpt>
      <trkpt lat="43.06303" lon="-0.44932">
        <ele>737.4</ele>
        <time>2025-07-22T17:08:08Z</time>
      </trkpt>
      <trkpt lat="43.06301" lon="-0.44951">
        <ele>738.6</ele>
        <time>2025-07-22T17:08:15Z</time>
      </trkpt>
      <trkpt lat="43.06301" lon="-0.44954">
        <ele>738.8</ele>
        <time>2025-07-22T17:08:16Z</time>
      </trkpt>
      <trkpt lat="43.063" lon="-0.44971">
        <ele>739.6</ele>
        <time>2025-07-22T17:08:22Z</time>
      </trkpt>
      <trkpt lat="43.06299" lon="-0.44982">
        <ele>740.2</ele>
        <time>2025-07-22T17:08:26Z</time>
      </trkpt>
      <trkpt lat="43.06298" lon="-0.44988">
        <ele>740.8</ele>
        <time>2025-07-22T17:08:28Z</time>
      </trkpt>
      <trkpt lat="43.06297" lon="-0.45006">
        <ele>741.8</ele>
        <time>2025-07-22T17:08:35Z</time>
      </trkpt>
      <trkpt lat="43.06295" lon="-0.45024">
        <ele>742.6</ele>
        <time>2025-07-22T17:08:42Z</time>
      </trkpt>
      <trkpt lat="43.06295" lon="-0.4503">
        <ele>743</ele>
        <time>2025-07-22T17:08:44Z</time>
      </trkpt>
      <trkpt lat="43.06293" lon="-0.45044">
        <ele>743.8</ele>
        <time>2025-07-22T17:08:49Z</time>
      </trkpt>
      <trkpt lat="43.0629" lon="-0.45063">
        <ele>744.6</ele>
        <time>2025-07-22T17:08:56Z</time>
      </trkpt>
      <trkpt lat="43.06289" lon="-0.45066">
        <ele>744.8</ele>
        <time>2025-07-22T17:08:57Z</time>
      </trkpt>
      <trkpt lat="43.06283" lon="-0.45079">
        <ele>746</ele>
        <time>2025-07-22T17:09:03Z</time>
      </trkpt>
      <trkpt lat="43.0628" lon="-0.45085">
        <ele>746.2</ele>
        <time>2025-07-22T17:09:06Z</time>
      </trkpt>
      <trkpt lat="43.06277" lon="-0.45092">
        <ele>746.8</ele>
        <time>2025-07-22T17:09:09Z</time>
      </trkpt>
      <trkpt lat="43.06271" lon="-0.45103">
        <ele>747.6</ele>
        <time>2025-07-22T17:09:14Z</time>
      </trkpt>
      <trkpt lat="43.0627" lon="-0.45105">
        <ele>747.8</ele>
        <time>2025-07-22T17:09:15Z</time>
      </trkpt>
      <trkpt lat="43.06264" lon="-0.4512">
        <ele>748.4</ele>
        <time>2025-07-22T17:09:21Z</time>
      </trkpt>
      <trkpt lat="43.06259" lon="-0.45129">
        <ele>748.8</ele>
        <time>2025-07-22T17:09:25Z</time>
      </trkpt>
      <trkpt lat="43.06255" lon="-0.45138">
        <ele>749.4</ele>
        <time>2025-07-22T17:09:29Z</time>
      </trkpt>
      <trkpt lat="43.06251" lon="-0.45147">
        <ele>749.8</ele>
        <time>2025-07-22T17:09:33Z</time>
      </trkpt>
      <trkpt lat="43.06244" lon="-0.45161">
        <ele>750.8</ele>
        <time>2025-07-22T17:09:39Z</time>
      </trkpt>
      <trkpt lat="43.06243" lon="-0.45163">
        <ele>751</ele>
        <time>2025-07-22T17:09:40Z</time>
      </trkpt>
      <trkpt lat="43.06236" lon="-0.45177">
        <ele>752</ele>
        <time>2025-07-22T17:09:46Z</time>
      </trkpt>
      <trkpt lat="43.06235" lon="-0.4518">
        <ele>752</ele>
        <time>2025-07-22T17:09:47Z</time>
      </trkpt>
      <trkpt lat="43.06228" lon="-0.45194">
        <ele>753.2</ele>
        <time>2025-07-22T17:09:54Z</time>
      </trkpt>
      <trkpt lat="43.06222" lon="-0.45206">
        <ele>754.4</ele>
        <time>2025-07-22T17:09:59Z</time>
      </trkpt>
      <trkpt lat="43.06219" lon="-0.45211">
        <ele>755</ele>
        <time>2025-07-22T17:10:02Z</time>
      </trkpt>
      <trkpt lat="43.06217" lon="-0.45215">
        <ele>755.4</ele>
        <time>2025-07-22T17:10:04Z</time>
      </trkpt>
      <trkpt lat="43.0621" lon="-0.45225">
        <ele>756.4</ele>
        <time>2025-07-22T17:10:09Z</time>
      </trkpt>
      <trkpt lat="43.06204" lon="-0.45233">
        <ele>757.4</ele>
        <time>2025-07-22T17:10:13Z</time>
      </trkpt>
      <trkpt lat="43.06202" lon="-0.45236">
        <ele>757.6</ele>
        <time>2025-07-22T17:10:15Z</time>
      </trkpt>
      <trkpt lat="43.0619" lon="-0.45248">
        <ele>758.8</ele>
        <time>2025-07-22T17:10:22Z</time>
      </trkpt>
      <trkpt lat="43.06187" lon="-0.45251">
        <ele>759</ele>
        <time>2025-07-22T17:10:24Z</time>
      </trkpt>
      <trkpt lat="43.06179" lon="-0.45255">
        <ele>759.8</ele>
        <time>2025-07-22T17:10:28Z</time>
      </trkpt>
      <trkpt lat="43.06169" lon="-0.45261">
        <ele>760.6</ele>
        <time>2025-07-22T17:10:33Z</time>
      </trkpt>
      <trkpt lat="43.06166" lon="-0.45264">
        <ele>760.8</ele>
        <time>2025-07-22T17:10:35Z</time>
      </trkpt>
      <trkpt lat="43.06155" lon="-0.45272">
        <ele>761.8</ele>
        <time>2025-07-22T17:10:41Z</time>
      </trkpt>
      <trkpt lat="43.06152" lon="-0.45275">
        <ele>762.2</ele>
        <time>2025-07-22T17:10:43Z</time>
      </trkpt>
      <trkpt lat="43.06143" lon="-0.45281">
        <ele>762.8</ele>
        <time>2025-07-22T17:10:48Z</time>
      </trkpt>
      <trkpt lat="43.0614" lon="-0.45284">
        <ele>763</ele>
        <time>2025-07-22T17:10:50Z</time>
      </trkpt>
      <trkpt lat="43.06134" lon="-0.45289">
        <ele>763.8</ele>
        <time>2025-07-22T17:10:54Z</time>
      </trkpt>
      <trkpt lat="43.06125" lon="-0.45296">
        <ele>764.8</ele>
        <time>2025-07-22T17:10:59Z</time>
      </trkpt>
      <trkpt lat="43.06115" lon="-0.45304">
        <ele>766</ele>
        <time>2025-07-22T17:11:05Z</time>
      </trkpt>
      <trkpt lat="43.06106" lon="-0.4531">
        <ele>766.8</ele>
        <time>2025-07-22T17:11:10Z</time>
      </trkpt>
      <trkpt lat="43.06102" lon="-0.45313">
        <ele>767.2</ele>
        <time>2025-07-22T17:11:12Z</time>
      </trkpt>
      <trkpt lat="43.06094" lon="-0.4532">
        <ele>768.2</ele>
        <time>2025-07-22T17:11:18Z</time>
      </trkpt>
      <trkpt lat="43.06084" lon="-0.45327">
        <ele>769</ele>
        <time>2025-07-22T17:11:24Z</time>
      </trkpt>
      <trkpt lat="43.06082" lon="-0.45327">
        <ele>769.4</ele>
        <time>2025-07-22T17:11:25Z</time>
      </trkpt>
      <trkpt lat="43.0607" lon="-0.45333">
        <ele>770.2</ele>
        <time>2025-07-22T17:11:31Z</time>
      </trkpt>
      <trkpt lat="43.06068" lon="-0.45334">
        <ele>770.6</ele>
        <time>2025-07-22T17:11:32Z</time>
      </trkpt>
      <trkpt lat="43.06055" lon="-0.45338">
        <ele>771.6</ele>
        <time>2025-07-22T17:11:38Z</time>
      </trkpt>
      <trkpt lat="43.06042" lon="-0.45344">
        <ele>772.6</ele>
        <time>2025-07-22T17:11:44Z</time>
      </trkpt>
      <trkpt lat="43.06037" lon="-0.45345">
        <ele>772.8</ele>
        <time>2025-07-22T17:11:46Z</time>
      </trkpt>
      <trkpt lat="43.06027" lon="-0.45352">
        <ele>773.8</ele>
        <time>2025-07-22T17:11:51Z</time>
      </trkpt>
      <trkpt lat="43.06026" lon="-0.45353">
        <ele>773.8</ele>
        <time>2025-07-22T17:11:52Z</time>
      </trkpt>
      <trkpt lat="43.06017" lon="-0.4536">
        <ele>774.4</ele>
        <time>2025-07-22T17:11:57Z</time>
      </trkpt>
      <trkpt lat="43.06015" lon="-0.45362">
        <ele>774.6</ele>
        <time>2025-07-22T17:11:58Z</time>
      </trkpt>
      <trkpt lat="43.06006" lon="-0.45374">
        <ele>775.6</ele>
        <time>2025-07-22T17:12:04Z</time>
      </trkpt>
      <trkpt lat="43.06004" lon="-0.45378">
        <ele>775.8</ele>
        <time>2025-07-22T17:12:05Z</time>
      </trkpt>
      <trkpt lat="43.05997" lon="-0.45393">
        <ele>777</ele>
        <time>2025-07-22T17:12:12Z</time>
      </trkpt>
      <trkpt lat="43.05996" lon="-0.45395">
        <ele>777.2</ele>
        <time>2025-07-22T17:12:13Z</time>
      </trkpt>
      <trkpt lat="43.0599" lon="-0.45408">
        <ele>778.2</ele>
        <time>2025-07-22T17:12:19Z</time>
      </trkpt>
      <trkpt lat="43.05988" lon="-0.4541">
        <ele>778.6</ele>
        <time>2025-07-22T17:12:21Z</time>
      </trkpt>
      <trkpt lat="43.05985" lon="-0.45417">
        <ele>779.4</ele>
        <time>2025-07-22T17:12:24Z</time>
      </trkpt>
      <trkpt lat="43.05978" lon="-0.45425">
        <ele>780.4</ele>
        <time>2025-07-22T17:12:29Z</time>
      </trkpt>
      <trkpt lat="43.05969" lon="-0.4543">
        <ele>781.4</ele>
        <time>2025-07-22T17:12:34Z</time>
      </trkpt>
      <trkpt lat="43.05965" lon="-0.45433">
        <ele>782</ele>
        <time>2025-07-22T17:12:37Z</time>
      </trkpt>
      <trkpt lat="43.0596" lon="-0.45434">
        <ele>782.6</ele>
        <time>2025-07-22T17:12:39Z</time>
      </trkpt>
      <trkpt lat="43.05948" lon="-0.45436">
        <ele>783.8</ele>
        <time>2025-07-22T17:12:45Z</time>
      </trkpt>
      <trkpt lat="43.05938" lon="-0.45435">
        <ele>784.8</ele>
        <time>2025-07-22T17:12:50Z</time>
      </trkpt>
      <trkpt lat="43.05924" lon="-0.45433">
        <ele>786</ele>
        <time>2025-07-22T17:12:57Z</time>
      </trkpt>
      <trkpt lat="43.05919" lon="-0.45431">
        <ele>786.6</ele>
        <time>2025-07-22T17:13:00Z</time>
      </trkpt>
      <trkpt lat="43.05913" lon="-0.4543">
        <ele>787</ele>
        <time>2025-07-22T17:13:03Z</time>
      </trkpt>
      <trkpt lat="43.05901" lon="-0.45428">
        <ele>787.8</ele>
        <time>2025-07-22T17:13:09Z</time>
      </trkpt>
      <trkpt lat="43.05898" lon="-0.45428">
        <ele>788</ele>
        <time>2025-07-22T17:13:11Z</time>
      </trkpt>
      <trkpt lat="43.05889" lon="-0.45427">
        <ele>789.2</ele>
        <time>2025-07-22T17:13:16Z</time>
      </trkpt>
      <trkpt lat="43.05883" lon="-0.45428">
        <ele>789.8</ele>
        <time>2025-07-22T17:13:19Z</time>
      </trkpt>
      <trkpt lat="43.05876" lon="-0.4543">
        <ele>790.4</ele>
        <time>2025-07-22T17:13:23Z</time>
      </trkpt>
      <trkpt lat="43.05871" lon="-0.45433">
        <ele>791</ele>
        <time>2025-07-22T17:13:26Z</time>
      </trkpt>
      <trkpt lat="43.05867" lon="-0.45434">
        <ele>791.4</ele>
        <time>2025-07-22T17:13:28Z</time>
      </trkpt>
      <trkpt lat="43.05861" lon="-0.45441">
        <ele>792.2</ele>
        <time>2025-07-22T17:13:32Z</time>
      </trkpt>
      <trkpt lat="43.05859" lon="-0.45447">
        <ele>792.6</ele>
        <time>2025-07-22T17:13:35Z</time>
      </trkpt>
      <trkpt lat="43.05858" lon="-0.45457">
        <ele>793.4</ele>
        <time>2025-07-22T17:13:39Z</time>
      </trkpt>
      <trkpt lat="43.05859" lon="-0.45459">
        <ele>793.6</ele>
        <time>2025-07-22T17:13:40Z</time>
      </trkpt>
      <trkpt lat="43.05868" lon="-0.45471">
        <ele>794.8</ele>
        <time>2025-07-22T17:13:46Z</time>
      </trkpt>
      <trkpt lat="43.05877" lon="-0.45474">
        <ele>796.4</ele>
        <time>2025-07-22T17:13:51Z</time>
      </trkpt>
      <trkpt lat="43.05883" lon="-0.45475">
        <ele>797.4</ele>
        <time>2025-07-22T17:13:54Z</time>
      </trkpt>
      <trkpt lat="43.0589" lon="-0.45475">
        <ele>798.2</ele>
        <time>2025-07-22T17:13:57Z</time>
      </trkpt>
      <trkpt lat="43.05892" lon="-0.45475">
        <ele>798.8</ele>
        <time>2025-07-22T17:13:58Z</time>
      </trkpt>
      <trkpt lat="43.05906" lon="-0.45482">
        <ele>799.8</ele>
        <time>2025-07-22T17:14:05Z</time>
      </trkpt>
      <trkpt lat="43.05912" lon="-0.45485">
        <ele>800.2</ele>
        <time>2025-07-22T17:14:08Z</time>
      </trkpt>
      <trkpt lat="43.05921" lon="-0.45489">
        <ele>801</ele>
        <time>2025-07-22T17:14:13Z</time>
      </trkpt>
      <trkpt lat="43.05931" lon="-0.45493">
        <ele>801.6</ele>
        <time>2025-07-22T17:14:18Z</time>
      </trkpt>
      <trkpt lat="43.05939" lon="-0.45495">
        <ele>802</ele>
        <time>2025-07-22T17:14:22Z</time>
      </trkpt>
      <trkpt lat="43.05949" lon="-0.45496">
        <ele>802.8</ele>
        <time>2025-07-22T17:14:27Z</time>
      </trkpt>
      <trkpt lat="43.05953" lon="-0.45498">
        <ele>803.2</ele>
        <time>2025-07-22T17:14:29Z</time>
      </trkpt>
      <trkpt lat="43.05966" lon="-0.45502">
        <ele>804</ele>
        <time>2025-07-22T17:14:36Z</time>
      </trkpt>
      <trkpt lat="43.0597" lon="-0.45504">
        <ele>804.2</ele>
        <time>2025-07-22T17:14:38Z</time>
      </trkpt>
      <trkpt lat="43.05983" lon="-0.45509">
        <ele>805.6</ele>
        <time>2025-07-22T17:14:45Z</time>
      </trkpt>
      <trkpt lat="43.05985" lon="-0.4551">
        <ele>806</ele>
        <time>2025-07-22T17:14:46Z</time>
      </trkpt>
      <trkpt lat="43.05992" lon="-0.45513">
        <ele>806.6</ele>
        <time>2025-07-22T17:14:50Z</time>
      </trkpt>
      <trkpt lat="43.05998" lon="-0.45516">
        <ele>807.4</ele>
        <time>2025-07-22T17:14:54Z</time>
      </trkpt>
      <trkpt lat="43.06002" lon="-0.45518">
        <ele>807.8</ele>
        <time>2025-07-22T17:14:56Z</time>
      </trkpt>
      <trkpt lat="43.0601" lon="-0.45522">
        <ele>808.6</ele>
        <time>2025-07-22T17:15:01Z</time>
      </trkpt>
      <trkpt lat="43.06011" lon="-0.45523">
        <ele>808.8</ele>
        <time>2025-07-22T17:15:02Z</time>
      </trkpt>
      <trkpt lat="43.0602" lon="-0.45526">
        <ele>809.6</ele>
        <time>2025-07-22T17:15:07Z</time>
      </trkpt>
      <trkpt lat="43.06023" lon="-0.45527">
        <ele>810</ele>
        <time>2025-07-22T17:15:09Z</time>
      </trkpt>
      <trkpt lat="43.0603" lon="-0.45532">
        <ele>810.8</ele>
        <time>2025-07-22T17:15:13Z</time>
      </trkpt>
      <trkpt lat="43.06031" lon="-0.45532">
        <ele>811</ele>
        <time>2025-07-22T17:15:14Z</time>
      </trkpt>
      <trkpt lat="43.0604" lon="-0.45537">
        <ele>811.8</ele>
        <time>2025-07-22T17:15:19Z</time>
      </trkpt>
      <trkpt lat="43.06044" lon="-0.45539">
        <ele>812</ele>
        <time>2025-07-22T17:15:21Z</time>
      </trkpt>
      <trkpt lat="43.06051" lon="-0.45542">
        <ele>812.8</ele>
        <time>2025-07-22T17:15:25Z</time>
      </trkpt>
      <trkpt lat="43.06053" lon="-0.45542">
        <ele>813.2</ele>
        <time>2025-07-22T17:15:26Z</time>
      </trkpt>
      <trkpt lat="43.06065" lon="-0.45549">
        <ele>814.2</ele>
        <time>2025-07-22T17:15:33Z</time>
      </trkpt>
      <trkpt lat="43.06066" lon="-0.45549">
        <ele>814.4</ele>
        <time>2025-07-22T17:15:34Z</time>
      </trkpt>
      <trkpt lat="43.06073" lon="-0.45552">
        <ele>815.4</ele>
        <time>2025-07-22T17:15:38Z</time>
      </trkpt>
      <trkpt lat="43.06082" lon="-0.45555">
        <ele>816.4</ele>
        <time>2025-07-22T17:15:43Z</time>
      </trkpt>
      <trkpt lat="43.06087" lon="-0.45555">
        <ele>816.8</ele>
        <time>2025-07-22T17:15:46Z</time>
      </trkpt>
      <trkpt lat="43.06092" lon="-0.45557">
        <ele>817.2</ele>
        <time>2025-07-22T17:15:49Z</time>
      </trkpt>
      <trkpt lat="43.06097" lon="-0.45556">
        <ele>817.8</ele>
        <time>2025-07-22T17:15:52Z</time>
      </trkpt>
      <trkpt lat="43.06102" lon="-0.45558">
        <ele>818.4</ele>
        <time>2025-07-22T17:15:55Z</time>
      </trkpt>
      <trkpt lat="43.06104" lon="-0.45558">
        <ele>818.8</ele>
        <time>2025-07-22T17:15:56Z</time>
      </trkpt>
      <trkpt lat="43.06109" lon="-0.45557">
        <ele>819.4</ele>
        <time>2025-07-22T17:15:59Z</time>
      </trkpt>
      <trkpt lat="43.0612" lon="-0.45559">
        <ele>820.4</ele>
        <time>2025-07-22T17:16:05Z</time>
      </trkpt>
      <trkpt lat="43.06122" lon="-0.45559">
        <ele>820.8</ele>
        <time>2025-07-22T17:16:06Z</time>
      </trkpt>
      <trkpt lat="43.06131" lon="-0.45561">
        <ele>821.4</ele>
        <time>2025-07-22T17:16:11Z</time>
      </trkpt>
      <trkpt lat="43.06133" lon="-0.45561">
        <ele>821.6</ele>
        <time>2025-07-22T17:16:12Z</time>
      </trkpt>
      <trkpt lat="43.06142" lon="-0.45561">
        <ele>822.6</ele>
        <time>2025-07-22T17:16:17Z</time>
      </trkpt>
      <trkpt lat="43.06144" lon="-0.45561">
        <ele>822.6</ele>
        <time>2025-07-22T17:16:18Z</time>
      </trkpt>
      <trkpt lat="43.06153" lon="-0.45561">
        <ele>823.6</ele>
        <time>2025-07-22T17:16:23Z</time>
      </trkpt>
      <trkpt lat="43.06155" lon="-0.45562">
        <ele>823.8</ele>
        <time>2025-07-22T17:16:24Z</time>
      </trkpt>
      <trkpt lat="43.06165" lon="-0.45564">
        <ele>824.8</ele>
        <time>2025-07-22T17:16:29Z</time>
      </trkpt>
      <trkpt lat="43.06171" lon="-0.45565">
        <ele>825.6</ele>
        <time>2025-07-22T17:16:32Z</time>
      </trkpt>
      <trkpt lat="43.06174" lon="-0.45565">
        <ele>826</ele>
        <time>2025-07-22T17:16:34Z</time>
      </trkpt>
      <trkpt lat="43.06187" lon="-0.45566">
        <ele>827.2</ele>
        <time>2025-07-22T17:16:41Z</time>
      </trkpt>
      <trkpt lat="43.06201" lon="-0.45569">
        <ele>828.6</ele>
        <time>2025-07-22T17:16:48Z</time>
      </trkpt>
      <trkpt lat="43.06203" lon="-0.4557">
        <ele>828.6</ele>
        <time>2025-07-22T17:16:49Z</time>
      </trkpt>
      <trkpt lat="43.06209" lon="-0.45576">
        <ele>829.4</ele>
        <time>2025-07-22T17:16:53Z</time>
      </trkpt>
      <trkpt lat="43.06215" lon="-0.45583">
        <ele>830</ele>
        <time>2025-07-22T17:16:57Z</time>
      </trkpt>
      <trkpt lat="43.06216" lon="-0.45585">
        <ele>830.2</ele>
        <time>2025-07-22T17:16:58Z</time>
      </trkpt>
      <trkpt lat="43.06218" lon="-0.4559">
        <ele>830.6</ele>
        <time>2025-07-22T17:17:00Z</time>
      </trkpt>
      <trkpt lat="43.06222" lon="-0.456">
        <ele>831.4</ele>
        <time>2025-07-22T17:17:04Z</time>
      </trkpt>
      <trkpt lat="43.06222" lon="-0.45603">
        <ele>831.8</ele>
        <time>2025-07-22T17:17:05Z</time>
      </trkpt>
      <trkpt lat="43.06222" lon="-0.45621">
        <ele>832.4</ele>
        <time>2025-07-22T17:17:11Z</time>
      </trkpt>
      <trkpt lat="43.0622" lon="-0.45628">
        <ele>832.8</ele>
        <time>2025-07-22T17:17:14Z</time>
      </trkpt>
      <trkpt lat="43.06217" lon="-0.45638">
        <ele>833.2</ele>
        <time>2025-07-22T17:17:18Z</time>
      </trkpt>
      <trkpt lat="43.06214" lon="-0.45645">
        <ele>833.8</ele>
        <time>2025-07-22T17:17:21Z</time>
      </trkpt>
      <trkpt lat="43.06207" lon="-0.45659">
        <ele>834.6</ele>
        <time>2025-07-22T17:17:27Z</time>
      </trkpt>
      <trkpt lat="43.06196" lon="-0.45671">
        <ele>835.8</ele>
        <time>2025-07-22T17:17:34Z</time>
      </trkpt>
      <trkpt lat="43.0619" lon="-0.45675">
        <ele>836.2</ele>
        <time>2025-07-22T17:17:37Z</time>
      </trkpt>
      <trkpt lat="43.06182" lon="-0.4568">
        <ele>836.8</ele>
        <time>2025-07-22T17:17:41Z</time>
      </trkpt>
      <trkpt lat="43.06173" lon="-0.45686">
        <ele>837.8</ele>
        <time>2025-07-22T17:17:46Z</time>
      </trkpt>
      <trkpt lat="43.06166" lon="-0.45693">
        <ele>838.4</ele>
        <time>2025-07-22T17:17:50Z</time>
      </trkpt>
      <trkpt lat="43.06162" lon="-0.45698">
        <ele>838.8</ele>
        <time>2025-07-22T17:17:53Z</time>
      </trkpt>
      <trkpt lat="43.06156" lon="-0.4571">
        <ele>839.4</ele>
        <time>2025-07-22T17:17:58Z</time>
      </trkpt>
      <trkpt lat="43.06156" lon="-0.45715">
        <ele>839.6</ele>
        <time>2025-07-22T17:18:00Z</time>
      </trkpt>
      <trkpt lat="43.06158" lon="-0.45723">
        <ele>840</ele>
        <time>2025-07-22T17:18:03Z</time>
      </trkpt>
      <trkpt lat="43.06165" lon="-0.4573">
        <ele>840.8</ele>
        <time>2025-07-22T17:18:07Z</time>
      </trkpt>
      <trkpt lat="43.0617" lon="-0.45736">
        <ele>841.2</ele>
        <time>2025-07-22T17:18:10Z</time>
      </trkpt>
      <trkpt lat="43.06175" lon="-0.4574">
        <ele>841.8</ele>
        <time>2025-07-22T17:18:13Z</time>
      </trkpt>
      <trkpt lat="43.06184" lon="-0.45749">
        <ele>842.8</ele>
        <time>2025-07-22T17:18:18Z</time>
      </trkpt>
      <trkpt lat="43.06195" lon="-0.45756">
        <ele>844</ele>
        <time>2025-07-22T17:18:24Z</time>
      </trkpt>
      <trkpt lat="43.06197" lon="-0.45757">
        <ele>844.2</ele>
        <time>2025-07-22T17:18:25Z</time>
      </trkpt>
      <trkpt lat="43.06206" lon="-0.45759">
        <ele>845.4</ele>
        <time>2025-07-22T17:18:30Z</time>
      </trkpt>
      <trkpt lat="43.06215" lon="-0.45759">
        <ele>846</ele>
        <time>2025-07-22T17:18:34Z</time>
      </trkpt>
      <trkpt lat="43.06221" lon="-0.45759">
        <ele>846.6</ele>
        <time>2025-07-22T17:18:37Z</time>
      </trkpt>
      <trkpt lat="43.06233" lon="-0.45759">
        <ele>847.6</ele>
        <time>2025-07-22T17:18:43Z</time>
      </trkpt>
      <trkpt lat="43.06239" lon="-0.4576">
        <ele>848</ele>
        <time>2025-07-22T17:18:46Z</time>
      </trkpt>
      <trkpt lat="43.06252" lon="-0.45762">
        <ele>848.6</ele>
        <time>2025-07-22T17:18:52Z</time>
      </trkpt>
      <trkpt lat="43.06254" lon="-0.45763">
        <ele>848.8</ele>
        <time>2025-07-22T17:18:53Z</time>
      </trkpt>
      <trkpt lat="43.06263" lon="-0.45769">
        <ele>849.8</ele>
        <time>2025-07-22T17:18:58Z</time>
      </trkpt>
      <trkpt lat="43.06272" lon="-0.45776">
        <ele>850.4</ele>
        <time>2025-07-22T17:19:03Z</time>
      </trkpt>
      <trkpt lat="43.06278" lon="-0.45782">
        <ele>850.6</ele>
        <time>2025-07-22T17:19:07Z</time>
      </trkpt>
      <trkpt lat="43.06283" lon="-0.45784">
        <ele>851</ele>
        <time>2025-07-22T17:19:09Z</time>
      </trkpt>
      <trkpt lat="43.06292" lon="-0.45785">
        <ele>851.6</ele>
        <time>2025-07-22T17:19:13Z</time>
      </trkpt>
      <trkpt lat="43.06302" lon="-0.45785">
        <ele>852.8</ele>
        <time>2025-07-22T17:19:18Z</time>
      </trkpt>
      <trkpt lat="43.06304" lon="-0.45785">
        <ele>853</ele>
        <time>2025-07-22T17:19:19Z</time>
      </trkpt>
      <trkpt lat="43.06315" lon="-0.45781">
        <ele>853.8</ele>
        <time>2025-07-22T17:19:24Z</time>
      </trkpt>
      <trkpt lat="43.06321" lon="-0.45778">
        <ele>854.2</ele>
        <time>2025-07-22T17:19:27Z</time>
      </trkpt>
      <trkpt lat="43.0633" lon="-0.45773">
        <ele>854.8</ele>
        <time>2025-07-22T17:19:32Z</time>
      </trkpt>
      <trkpt lat="43.06338" lon="-0.45771">
        <ele>855.4</ele>
        <time>2025-07-22T17:19:36Z</time>
      </trkpt>
      <trkpt lat="43.06347" lon="-0.45772">
        <ele>856</ele>
        <time>2025-07-22T17:19:40Z</time>
      </trkpt>
      <trkpt lat="43.06351" lon="-0.45774">
        <ele>856</ele>
        <time>2025-07-22T17:19:42Z</time>
      </trkpt>
      <trkpt lat="43.0636" lon="-0.45781">
        <ele>857</ele>
        <time>2025-07-22T17:19:47Z</time>
      </trkpt>
      <trkpt lat="43.06365" lon="-0.45786">
        <ele>857.4</ele>
        <time>2025-07-22T17:19:50Z</time>
      </trkpt>
      <trkpt lat="43.06372" lon="-0.45792">
        <ele>858</ele>
        <time>2025-07-22T17:19:54Z</time>
      </trkpt>
      <trkpt lat="43.06383" lon="-0.458">
        <ele>859</ele>
        <time>2025-07-22T17:20:00Z</time>
      </trkpt>
      <trkpt lat="43.06385" lon="-0.45801">
        <ele>859.4</ele>
        <time>2025-07-22T17:20:01Z</time>
      </trkpt>
      <trkpt lat="43.06395" lon="-0.45805">
        <ele>860.2</ele>
        <time>2025-07-22T17:20:06Z</time>
      </trkpt>
      <trkpt lat="43.06403" lon="-0.45808">
        <ele>860.8</ele>
        <time>2025-07-22T17:20:10Z</time>
      </trkpt>
      <trkpt lat="43.06413" lon="-0.4581">
        <ele>861.4</ele>
        <time>2025-07-22T17:20:15Z</time>
      </trkpt>
      <trkpt lat="43.06423" lon="-0.45811">
        <ele>862.4</ele>
        <time>2025-07-22T17:20:20Z</time>
      </trkpt>
      <trkpt lat="43.06425" lon="-0.45811">
        <ele>862.4</ele>
        <time>2025-07-22T17:20:21Z</time>
      </trkpt>
      <trkpt lat="43.06439" lon="-0.45815">
        <ele>863.6</ele>
        <time>2025-07-22T17:20:28Z</time>
      </trkpt>
      <trkpt lat="43.06446" lon="-0.45817">
        <ele>864</ele>
        <time>2025-07-22T17:20:31Z</time>
      </trkpt>
      <trkpt lat="43.06454" lon="-0.4582">
        <ele>864.4</ele>
        <time>2025-07-22T17:20:35Z</time>
      </trkpt>
      <trkpt lat="43.06463" lon="-0.45825">
        <ele>865</ele>
        <time>2025-07-22T17:20:40Z</time>
      </trkpt>
      <trkpt lat="43.06469" lon="-0.45829">
        <ele>865.4</ele>
        <time>2025-07-22T17:20:43Z</time>
      </trkpt>
      <trkpt lat="43.0648" lon="-0.45839">
        <ele>866.6</ele>
        <time>2025-07-22T17:20:49Z</time>
      </trkpt>
      <trkpt lat="43.06483" lon="-0.45842">
        <ele>866.8</ele>
        <time>2025-07-22T17:20:51Z</time>
      </trkpt>
      <trkpt lat="43.06491" lon="-0.45849">
        <ele>867.6</ele>
        <time>2025-07-22T17:20:56Z</time>
      </trkpt>
      <trkpt lat="43.06499" lon="-0.45855">
        <ele>868.4</ele>
        <time>2025-07-22T17:21:00Z</time>
      </trkpt>
      <trkpt lat="43.06501" lon="-0.45857">
        <ele>868.6</ele>
        <time>2025-07-22T17:21:01Z</time>
      </trkpt>
      <trkpt lat="43.0651" lon="-0.45867">
        <ele>869.6</ele>
        <time>2025-07-22T17:21:07Z</time>
      </trkpt>
      <trkpt lat="43.06522" lon="-0.45874">
        <ele>870.6</ele>
        <time>2025-07-22T17:21:13Z</time>
      </trkpt>
      <trkpt lat="43.06538" lon="-0.45881">
        <ele>871.4</ele>
        <time>2025-07-22T17:21:19Z</time>
      </trkpt>
      <trkpt lat="43.06553" lon="-0.45897">
        <ele>871.6</ele>
        <time>2025-07-22T17:21:25Z</time>
      </trkpt>
      <trkpt lat="43.06555" lon="-0.45901">
        <ele>871.8</ele>
        <time>2025-07-22T17:21:26Z</time>
      </trkpt>
      <trkpt lat="43.06558" lon="-0.45912">
        <ele>872.2</ele>
        <time>2025-07-22T17:21:30Z</time>
      </trkpt>
      <trkpt lat="43.06561" lon="-0.45921">
        <ele>873</ele>
        <time>2025-07-22T17:21:33Z</time>
      </trkpt>
      <trkpt lat="43.06565" lon="-0.45931">
        <ele>873.8</ele>
        <time>2025-07-22T17:21:36Z</time>
      </trkpt>
      <trkpt lat="43.06567" lon="-0.45936">
        <ele>874</ele>
        <time>2025-07-22T17:21:38Z</time>
      </trkpt>
      <trkpt lat="43.06578" lon="-0.4595">
        <ele>875</ele>
        <time>2025-07-22T17:21:44Z</time>
      </trkpt>
      <trkpt lat="43.06581" lon="-0.45953">
        <ele>875.2</ele>
        <time>2025-07-22T17:21:45Z</time>
      </trkpt>
      <trkpt lat="43.06597" lon="-0.45965">
        <ele>875.8</ele>
        <time>2025-07-22T17:21:52Z</time>
      </trkpt>
      <trkpt lat="43.06603" lon="-0.45969">
        <ele>876.2</ele>
        <time>2025-07-22T17:21:55Z</time>
      </trkpt>
      <trkpt lat="43.06615" lon="-0.45977">
        <ele>877.2</ele>
        <time>2025-07-22T17:22:00Z</time>
      </trkpt>
      <trkpt lat="43.06617" lon="-0.45979">
        <ele>877.4</ele>
        <time>2025-07-22T17:22:01Z</time>
      </trkpt>
      <trkpt lat="43.0663" lon="-0.45995">
        <ele>878.2</ele>
        <time>2025-07-22T17:22:07Z</time>
      </trkpt>
      <trkpt lat="43.06631" lon="-0.45999">
        <ele>878.4</ele>
        <time>2025-07-22T17:22:08Z</time>
      </trkpt>
      <trkpt lat="43.06634" lon="-0.46024">
        <ele>879</ele>
        <time>2025-07-22T17:22:14Z</time>
      </trkpt>
      <trkpt lat="43.06634" lon="-0.46031">
        <ele>879.2</ele>
        <time>2025-07-22T17:22:16Z</time>
      </trkpt>
      <trkpt lat="43.06635" lon="-0.46053">
        <ele>879.8</ele>
        <time>2025-07-22T17:22:22Z</time>
      </trkpt>
      <trkpt lat="43.06635" lon="-0.46064">
        <ele>880.4</ele>
        <time>2025-07-22T17:22:25Z</time>
      </trkpt>
      <trkpt lat="43.06635" lon="-0.46086">
        <ele>881.4</ele>
        <time>2025-07-22T17:22:31Z</time>
      </trkpt>
      <trkpt lat="43.06635" lon="-0.4609">
        <ele>881.4</ele>
        <time>2025-07-22T17:22:32Z</time>
      </trkpt>
      <trkpt lat="43.06636" lon="-0.46115">
        <ele>882.8</ele>
        <time>2025-07-22T17:22:39Z</time>
      </trkpt>
      <trkpt lat="43.06636" lon="-0.46122">
        <ele>882.8</ele>
        <time>2025-07-22T17:22:41Z</time>
      </trkpt>
      <trkpt lat="43.06633" lon="-0.46145">
        <ele>883.6</ele>
        <time>2025-07-22T17:22:47Z</time>
      </trkpt>
      <trkpt lat="43.0663" lon="-0.46155">
        <ele>884</ele>
        <time>2025-07-22T17:22:50Z</time>
      </trkpt>
      <trkpt lat="43.06624" lon="-0.4617">
        <ele>884.6</ele>
        <time>2025-07-22T17:22:55Z</time>
      </trkpt>
      <trkpt lat="43.0662" lon="-0.4618">
        <ele>885.6</ele>
        <time>2025-07-22T17:22:58Z</time>
      </trkpt>
      <trkpt lat="43.06613" lon="-0.46198">
        <ele>886.6</ele>
        <time>2025-07-22T17:23:03Z</time>
      </trkpt>
      <trkpt lat="43.06606" lon="-0.46221">
        <ele>887.6</ele>
        <time>2025-07-22T17:23:10Z</time>
      </trkpt>
      <trkpt lat="43.06605" lon="-0.46225">
        <ele>887.8</ele>
        <time>2025-07-22T17:23:11Z</time>
      </trkpt>
      <trkpt lat="43.06598" lon="-0.46249">
        <ele>888.8</ele>
        <time>2025-07-22T17:23:18Z</time>
      </trkpt>
      <trkpt lat="43.06595" lon="-0.46258">
        <ele>889</ele>
        <time>2025-07-22T17:23:21Z</time>
      </trkpt>
      <trkpt lat="43.06587" lon="-0.46274">
        <ele>889.8</ele>
        <time>2025-07-22T17:23:26Z</time>
      </trkpt>
      <trkpt lat="43.06586" lon="-0.46278">
        <ele>890.2</ele>
        <time>2025-07-22T17:23:27Z</time>
      </trkpt>
      <trkpt lat="43.06577" lon="-0.46297">
        <ele>890.8</ele>
        <time>2025-07-22T17:23:33Z</time>
      </trkpt>
      <trkpt lat="43.06574" lon="-0.46307">
        <ele>891.4</ele>
        <time>2025-07-22T17:23:36Z</time>
      </trkpt>
      <trkpt lat="43.06567" lon="-0.46324">
        <ele>892</ele>
        <time>2025-07-22T17:23:41Z</time>
      </trkpt>
      <trkpt lat="43.06561" lon="-0.46344">
        <ele>892.8</ele>
        <time>2025-07-22T17:23:47Z</time>
      </trkpt>
      <trkpt lat="43.0656" lon="-0.46348">
        <ele>893</ele>
        <time>2025-07-22T17:23:48Z</time>
      </trkpt>
      <trkpt lat="43.06553" lon="-0.46373">
        <ele>894</ele>
        <time>2025-07-22T17:23:55Z</time>
      </trkpt>
      <trkpt lat="43.06542" lon="-0.46398">
        <ele>895</ele>
        <time>2025-07-22T17:24:03Z</time>
      </trkpt>
      <trkpt lat="43.06542" lon="-0.46401">
        <ele>895.2</ele>
        <time>2025-07-22T17:24:04Z</time>
      </trkpt>
      <trkpt lat="43.0654" lon="-0.46424">
        <ele>896.2</ele>
        <time>2025-07-22T17:24:10Z</time>
      </trkpt>
      <trkpt lat="43.0654" lon="-0.46431">
        <ele>896.8</ele>
        <time>2025-07-22T17:24:12Z</time>
      </trkpt>
      <trkpt lat="43.0654" lon="-0.46453">
        <ele>897.4</ele>
        <time>2025-07-22T17:24:18Z</time>
      </trkpt>
      <trkpt lat="43.06539" lon="-0.46464">
        <ele>898.2</ele>
        <time>2025-07-22T17:24:21Z</time>
      </trkpt>
      <trkpt lat="43.06538" lon="-0.46474">
        <ele>898.6</ele>
        <time>2025-07-22T17:24:24Z</time>
      </trkpt>
      <trkpt lat="43.06537" lon="-0.46488">
        <ele>899.2</ele>
        <time>2025-07-22T17:24:29Z</time>
      </trkpt>
      <trkpt lat="43.06536" lon="-0.46492">
        <ele>899.4</ele>
        <time>2025-07-22T17:24:31Z</time>
      </trkpt>
      <trkpt lat="43.06536" lon="-0.46494">
        <ele>899.6</ele>
        <time>2025-07-22T17:24:32Z</time>
      </trkpt>
      <trkpt lat="43.06537" lon="-0.46496">
        <ele>899.8</ele>
        <time>2025-07-22T17:24:34Z</time>
      </trkpt>
      <trkpt lat="43.06537" lon="-0.46499">
        <ele>899.8</ele>
        <time>2025-07-22T17:24:36Z</time>
      </trkpt>
      <trkpt lat="43.06538" lon="-0.46499">
        <ele>900</ele>
        <time>2025-07-22T17:24:38Z</time>
      </trkpt>
      <trkpt lat="43.06538" lon="-0.46499">
        <ele>900</ele>
        <time>2025-07-22T17:24:40Z</time>
      </trkpt>
      <trkpt lat="43.06538" lon="-0.46505">
        <ele>899.4</ele>
        <time>2025-07-22T17:26:04Z</time>
      </trkpt>
      <trkpt lat="43.06539" lon="-0.4651">
        <ele>899.4</ele>
        <time>2025-07-22T17:26:06Z</time>
      </trkpt>
      <trkpt lat="43.06543" lon="-0.46535">
        <ele>899.2</ele>
        <time>2025-07-22T17:26:11Z</time>
      </trkpt>
      <trkpt lat="43.06549" lon="-0.46569">
        <ele>898.4</ele>
        <time>2025-07-22T17:26:17Z</time>
      </trkpt>
      <trkpt lat="43.06549" lon="-0.46577">
        <ele>898.4</ele>
        <time>2025-07-22T17:26:18Z</time>
      </trkpt>
      <trkpt lat="43.06549" lon="-0.46601">
        <ele>898.2</ele>
        <time>2025-07-22T17:26:22Z</time>
      </trkpt>
      <trkpt lat="43.06548" lon="-0.46611">
        <ele>898</ele>
        <time>2025-07-22T17:26:24Z</time>
      </trkpt>
      <trkpt lat="43.06547" lon="-0.46631">
        <ele>898</ele>
        <time>2025-07-22T17:26:27Z</time>
      </trkpt>
      <trkpt lat="43.06546" lon="-0.46663">
        <ele>897.8</ele>
        <time>2025-07-22T17:26:32Z</time>
      </trkpt>
      <trkpt lat="43.06543" lon="-0.46739">
        <ele>897.6</ele>
        <time>2025-07-22T17:26:43Z</time>
      </trkpt>
      <trkpt lat="43.0654" lon="-0.46799">
        <ele>896.8</ele>
        <time>2025-07-22T17:26:51Z</time>
      </trkpt>
      <trkpt lat="43.06537" lon="-0.46837">
        <ele>896.6</ele>
        <time>2025-07-22T17:26:56Z</time>
      </trkpt>
      <trkpt lat="43.06533" lon="-0.4686">
        <ele>896.4</ele>
        <time>2025-07-22T17:26:59Z</time>
      </trkpt>
      <trkpt lat="43.0652" lon="-0.46913">
        <ele>896</ele>
        <time>2025-07-22T17:27:06Z</time>
      </trkpt>
      <trkpt lat="43.0651" lon="-0.46966">
        <ele>895.8</ele>
        <time>2025-07-22T17:27:13Z</time>
      </trkpt>
      <trkpt lat="43.06509" lon="-0.47012">
        <ele>896</ele>
        <time>2025-07-22T17:27:19Z</time>
      </trkpt>
      <trkpt lat="43.06509" lon="-0.47035">
        <ele>896</ele>
        <time>2025-07-22T17:27:22Z</time>
      </trkpt>
      <trkpt lat="43.06506" lon="-0.47051">
        <ele>896</ele>
        <time>2025-07-22T17:27:24Z</time>
      </trkpt>
      <trkpt lat="43.065" lon="-0.47064">
        <ele>896</ele>
        <time>2025-07-22T17:27:26Z</time>
      </trkpt>
      <trkpt lat="43.06493" lon="-0.47073">
        <ele>896</ele>
        <time>2025-07-22T17:27:28Z</time>
      </trkpt>
      <trkpt lat="43.06469" lon="-0.47097">
        <ele>896.4</ele>
        <time>2025-07-22T17:27:34Z</time>
      </trkpt>
      <trkpt lat="43.06446" lon="-0.47121">
        <ele>896.8</ele>
        <time>2025-07-22T17:27:40Z</time>
      </trkpt>
      <trkpt lat="43.06433" lon="-0.47136">
        <ele>897</ele>
        <time>2025-07-22T17:27:43Z</time>
      </trkpt>
      <trkpt lat="43.06427" lon="-0.47146">
        <ele>897</ele>
        <time>2025-07-22T17:27:45Z</time>
      </trkpt>
      <trkpt lat="43.06424" lon="-0.47154">
        <ele>897.2</ele>
        <time>2025-07-22T17:27:46Z</time>
      </trkpt>
      <trkpt lat="43.06406" lon="-0.47215">
        <ele>897.2</ele>
        <time>2025-07-22T17:27:55Z</time>
      </trkpt>
      <trkpt lat="43.0639" lon="-0.47273">
        <ele>897.2</ele>
        <time>2025-07-22T17:28:03Z</time>
      </trkpt>
      <trkpt lat="43.06372" lon="-0.47333">
        <ele>897.2</ele>
        <time>2025-07-22T17:28:12Z</time>
      </trkpt>
      <trkpt lat="43.06354" lon="-0.47371">
        <ele>897.2</ele>
        <time>2025-07-22T17:28:18Z</time>
      </trkpt>
      <trkpt lat="43.06342" lon="-0.47388">
        <ele>897.4</ele>
        <time>2025-07-22T17:28:21Z</time>
      </trkpt>
      <trkpt lat="43.06334" lon="-0.47396">
        <ele>897.4</ele>
        <time>2025-07-22T17:28:23Z</time>
      </trkpt>
      <trkpt lat="43.06329" lon="-0.47399">
        <ele>897.4</ele>
        <time>2025-07-22T17:28:24Z</time>
      </trkpt>
      <trkpt lat="43.06295" lon="-0.47412">
        <ele>897.8</ele>
        <time>2025-07-22T17:28:30Z</time>
      </trkpt>
      <trkpt lat="43.0628" lon="-0.47419">
        <ele>897.6</ele>
        <time>2025-07-22T17:28:33Z</time>
      </trkpt>
      <trkpt lat="43.0627" lon="-0.4743">
        <ele>897.6</ele>
        <time>2025-07-22T17:28:35Z</time>
      </trkpt>
      <trkpt lat="43.06256" lon="-0.47463">
        <ele>897.2</ele>
        <time>2025-07-22T17:28:40Z</time>
      </trkpt>
      <trkpt lat="43.06232" lon="-0.47536">
        <ele>897.4</ele>
        <time>2025-07-22T17:28:50Z</time>
      </trkpt>
      <trkpt lat="43.0623" lon="-0.47543">
        <ele>897.4</ele>
        <time>2025-07-22T17:28:51Z</time>
      </trkpt>
      <trkpt lat="43.0621" lon="-0.47619">
        <ele>897.6</ele>
        <time>2025-07-22T17:29:01Z</time>
      </trkpt>
      <trkpt lat="43.06207" lon="-0.47631">
        <ele>897.8</ele>
        <time>2025-07-22T17:29:03Z</time>
      </trkpt>
      <trkpt lat="43.06185" lon="-0.47705">
        <ele>898.2</ele>
        <time>2025-07-22T17:29:13Z</time>
      </trkpt>
      <trkpt lat="43.0618" lon="-0.47722">
        <ele>898.2</ele>
        <time>2025-07-22T17:29:15Z</time>
      </trkpt>
      <trkpt lat="43.06161" lon="-0.47772">
        <ele>898.4</ele>
        <time>2025-07-22T17:29:22Z</time>
      </trkpt>
      <trkpt lat="43.06135" lon="-0.47833">
        <ele>898.4</ele>
        <time>2025-07-22T17:29:31Z</time>
      </trkpt>
      <trkpt lat="43.06121" lon="-0.47858">
        <ele>898.4</ele>
        <time>2025-07-22T17:29:35Z</time>
      </trkpt>
      <trkpt lat="43.06115" lon="-0.47872">
        <ele>898.4</ele>
        <time>2025-07-22T17:29:37Z</time>
      </trkpt>
      <trkpt lat="43.06103" lon="-0.47923">
        <ele>898.6</ele>
        <time>2025-07-22T17:29:44Z</time>
      </trkpt>
      <trkpt lat="43.06086" lon="-0.47999">
        <ele>899.4</ele>
        <time>2025-07-22T17:29:55Z</time>
      </trkpt>
      <trkpt lat="43.06077" lon="-0.48041">
        <ele>900.4</ele>
        <time>2025-07-22T17:30:02Z</time>
      </trkpt>
      <trkpt lat="43.06076" lon="-0.48046">
        <ele>900.6</ele>
        <time>2025-07-22T17:30:03Z</time>
      </trkpt>
      <trkpt lat="43.06073" lon="-0.48078">
        <ele>901.4</ele>
        <time>2025-07-22T17:30:09Z</time>
      </trkpt>
      <trkpt lat="43.06071" lon="-0.48094">
        <ele>901.8</ele>
        <time>2025-07-22T17:30:12Z</time>
      </trkpt>
      <trkpt lat="43.06069" lon="-0.48126">
        <ele>902.6</ele>
        <time>2025-07-22T17:30:18Z</time>
      </trkpt>
      <trkpt lat="43.06066" lon="-0.48154">
        <ele>903.2</ele>
        <time>2025-07-22T17:30:24Z</time>
      </trkpt>
      <trkpt lat="43.06065" lon="-0.48163">
        <ele>903.8</ele>
        <time>2025-07-22T17:30:26Z</time>
      </trkpt>
      <trkpt lat="43.06063" lon="-0.48183">
        <ele>904.4</ele>
        <time>2025-07-22T17:30:31Z</time>
      </trkpt>
      <trkpt lat="43.06062" lon="-0.48187">
        <ele>904.8</ele>
        <time>2025-07-22T17:30:32Z</time>
      </trkpt>
      <trkpt lat="43.06059" lon="-0.48215">
        <ele>905.8</ele>
        <time>2025-07-22T17:30:39Z</time>
      </trkpt>
      <trkpt lat="43.06058" lon="-0.48217">
        <ele>906</ele>
        <time>2025-07-22T17:30:40Z</time>
      </trkpt>
      <trkpt lat="43.06054" lon="-0.4824">
        <ele>907.2</ele>
        <time>2025-07-22T17:30:46Z</time>
      </trkpt>
      <trkpt lat="43.06054" lon="-0.48243">
        <ele>907.4</ele>
        <time>2025-07-22T17:30:47Z</time>
      </trkpt>
      <trkpt lat="43.0605" lon="-0.4827">
        <ele>908.4</ele>
        <time>2025-07-22T17:30:54Z</time>
      </trkpt>
      <trkpt lat="43.06048" lon="-0.48281">
        <ele>908.8</ele>
        <time>2025-07-22T17:30:57Z</time>
      </trkpt>
      <trkpt lat="43.06044" lon="-0.48304">
        <ele>909.2</ele>
        <time>2025-07-22T17:31:03Z</time>
      </trkpt>
      <trkpt lat="43.06043" lon="-0.48314">
        <ele>909.6</ele>
        <time>2025-07-22T17:31:06Z</time>
      </trkpt>
      <trkpt lat="43.06039" lon="-0.48341">
        <ele>910.4</ele>
        <time>2025-07-22T17:31:13Z</time>
      </trkpt>
      <trkpt lat="43.06038" lon="-0.48352">
        <ele>910.8</ele>
        <time>2025-07-22T17:31:16Z</time>
      </trkpt>
      <trkpt lat="43.06035" lon="-0.48365">
        <ele>911.4</ele>
        <time>2025-07-22T17:31:20Z</time>
      </trkpt>
      <trkpt lat="43.06033" lon="-0.48379">
        <ele>912</ele>
        <time>2025-07-22T17:31:24Z</time>
      </trkpt>
      <trkpt lat="43.06032" lon="-0.48389">
        <ele>912.6</ele>
        <time>2025-07-22T17:31:27Z</time>
      </trkpt>
      <trkpt lat="43.06029" lon="-0.48416">
        <ele>913.6</ele>
        <time>2025-07-22T17:31:35Z</time>
      </trkpt>
      <trkpt lat="43.06028" lon="-0.48419">
        <ele>913.8</ele>
        <time>2025-07-22T17:31:36Z</time>
      </trkpt>
      <trkpt lat="43.06025" lon="-0.48442">
        <ele>914.8</ele>
        <time>2025-07-22T17:31:43Z</time>
      </trkpt>
      <trkpt lat="43.06023" lon="-0.48453">
        <ele>915</ele>
        <time>2025-07-22T17:31:46Z</time>
      </trkpt>
      <trkpt lat="43.0602" lon="-0.48465">
        <ele>915.8</ele>
        <time>2025-07-22T17:31:50Z</time>
      </trkpt>
      <trkpt lat="43.06017" lon="-0.48489">
        <ele>917</ele>
        <time>2025-07-22T17:31:57Z</time>
      </trkpt>
      <trkpt lat="43.06016" lon="-0.48492">
        <ele>917.2</ele>
        <time>2025-07-22T17:31:58Z</time>
      </trkpt>
      <trkpt lat="43.06013" lon="-0.48509">
        <ele>918</ele>
        <time>2025-07-22T17:32:03Z</time>
      </trkpt>
      <trkpt lat="43.06012" lon="-0.48522">
        <ele>918.6</ele>
        <time>2025-07-22T17:32:07Z</time>
      </trkpt>
      <trkpt lat="43.06011" lon="-0.48528">
        <ele>918.8</ele>
        <time>2025-07-22T17:32:09Z</time>
      </trkpt>
      <trkpt lat="43.06008" lon="-0.48546">
        <ele>920</ele>
        <time>2025-07-22T17:32:15Z</time>
      </trkpt>
      <trkpt lat="43.06008" lon="-0.48549">
        <ele>920.2</ele>
        <time>2025-07-22T17:32:16Z</time>
      </trkpt>
      <trkpt lat="43.06006" lon="-0.4856">
        <ele>921</ele>
        <time>2025-07-22T17:32:20Z</time>
      </trkpt>
      <trkpt lat="43.06002" lon="-0.48574">
        <ele>921.6</ele>
        <time>2025-07-22T17:32:25Z</time>
      </trkpt>
      <trkpt lat="43.06" lon="-0.48579">
        <ele>922</ele>
        <time>2025-07-22T17:32:27Z</time>
      </trkpt>
      <trkpt lat="43.05995" lon="-0.48595">
        <ele>923</ele>
        <time>2025-07-22T17:32:33Z</time>
      </trkpt>
      <trkpt lat="43.05988" lon="-0.48611">
        <ele>924</ele>
        <time>2025-07-22T17:32:39Z</time>
      </trkpt>
      <trkpt lat="43.05983" lon="-0.48628">
        <ele>925.2</ele>
        <time>2025-07-22T17:32:45Z</time>
      </trkpt>
      <trkpt lat="43.05979" lon="-0.48639">
        <ele>925.8</ele>
        <time>2025-07-22T17:32:49Z</time>
      </trkpt>
      <trkpt lat="43.05976" lon="-0.48647">
        <ele>926.2</ele>
        <time>2025-07-22T17:32:52Z</time>
      </trkpt>
      <trkpt lat="43.0597" lon="-0.48663">
        <ele>927.2</ele>
        <time>2025-07-22T17:32:58Z</time>
      </trkpt>
      <trkpt lat="43.05969" lon="-0.48669">
        <ele>927.6</ele>
        <time>2025-07-22T17:33:00Z</time>
      </trkpt>
      <trkpt lat="43.05965" lon="-0.48681">
        <ele>928.4</ele>
        <time>2025-07-22T17:33:04Z</time>
      </trkpt>
      <trkpt lat="43.05963" lon="-0.48686">
        <ele>929.2</ele>
        <time>2025-07-22T17:33:06Z</time>
      </trkpt>
      <trkpt lat="43.05959" lon="-0.487">
        <ele>930.4</ele>
        <time>2025-07-22T17:33:11Z</time>
      </trkpt>
      <trkpt lat="43.05958" lon="-0.48703">
        <ele>930.6</ele>
        <time>2025-07-22T17:33:12Z</time>
      </trkpt>
      <trkpt lat="43.05953" lon="-0.48715">
        <ele>931.4</ele>
        <time>2025-07-22T17:33:16Z</time>
      </trkpt>
      <trkpt lat="43.05952" lon="-0.48722">
        <ele>932</ele>
        <time>2025-07-22T17:33:19Z</time>
      </trkpt>
      <trkpt lat="43.0595" lon="-0.4873">
        <ele>932.6</ele>
        <time>2025-07-22T17:33:22Z</time>
      </trkpt>
      <trkpt lat="43.05948" lon="-0.48736">
        <ele>933.4</ele>
        <time>2025-07-22T17:33:25Z</time>
      </trkpt>
      <trkpt lat="43.05948" lon="-0.48739">
        <ele>933.4</ele>
        <time>2025-07-22T17:33:26Z</time>
      </trkpt>
      <trkpt lat="43.05948" lon="-0.48741">
        <ele>933.8</ele>
        <time>2025-07-22T17:33:27Z</time>
      </trkpt>
      <trkpt lat="43.05947" lon="-0.48748">
        <ele>934</ele>
        <time>2025-07-22T17:33:30Z</time>
      </trkpt>
      <trkpt lat="43.05945" lon="-0.48754">
        <ele>934.6</ele>
        <time>2025-07-22T17:33:33Z</time>
      </trkpt>
      <trkpt lat="43.05943" lon="-0.48758">
        <ele>935</ele>
        <time>2025-07-22T17:33:35Z</time>
      </trkpt>
      <trkpt lat="43.05941" lon="-0.48763">
        <ele>935.4</ele>
        <time>2025-07-22T17:33:37Z</time>
      </trkpt>
      <trkpt lat="43.05938" lon="-0.48768">
        <ele>936</ele>
        <time>2025-07-22T17:33:39Z</time>
      </trkpt>
      <trkpt lat="43.05934" lon="-0.48786">
        <ele>936.8</ele>
        <time>2025-07-22T17:33:45Z</time>
      </trkpt>
      <trkpt lat="43.05934" lon="-0.48789">
        <ele>937.2</ele>
        <time>2025-07-22T17:33:46Z</time>
      </trkpt>
      <trkpt lat="43.05931" lon="-0.48796">
        <ele>937.8</ele>
        <time>2025-07-22T17:33:49Z</time>
      </trkpt>
      <trkpt lat="43.05926" lon="-0.48805">
        <ele>938.6</ele>
        <time>2025-07-22T17:33:52Z</time>
      </trkpt>
      <trkpt lat="43.05925" lon="-0.48811">
        <ele>939</ele>
        <time>2025-07-22T17:33:54Z</time>
      </trkpt>
      <trkpt lat="43.05922" lon="-0.48823">
        <ele>940</ele>
        <time>2025-07-22T17:33:58Z</time>
      </trkpt>
      <trkpt lat="43.05917" lon="-0.48837">
        <ele>941</ele>
        <time>2025-07-22T17:34:04Z</time>
      </trkpt>
      <trkpt lat="43.05917" lon="-0.48841">
        <ele>941.2</ele>
        <time>2025-07-22T17:34:05Z</time>
      </trkpt>
      <trkpt lat="43.05917" lon="-0.48851">
        <ele>942.2</ele>
        <time>2025-07-22T17:34:09Z</time>
      </trkpt>
      <trkpt lat="43.05915" lon="-0.48859">
        <ele>943</ele>
        <time>2025-07-22T17:34:12Z</time>
      </trkpt>
      <trkpt lat="43.05913" lon="-0.48864">
        <ele>943.4</ele>
        <time>2025-07-22T17:34:14Z</time>
      </trkpt>
      <trkpt lat="43.05909" lon="-0.48873">
        <ele>944.2</ele>
        <time>2025-07-22T17:34:18Z</time>
      </trkpt>
      <trkpt lat="43.05908" lon="-0.48875">
        <ele>944.8</ele>
        <time>2025-07-22T17:34:19Z</time>
      </trkpt>
      <trkpt lat="43.05905" lon="-0.4888">
        <ele>945.2</ele>
        <time>2025-07-22T17:34:21Z</time>
      </trkpt>
      <trkpt lat="43.05897" lon="-0.48894">
        <ele>946.4</ele>
        <time>2025-07-22T17:34:26Z</time>
      </trkpt>
      <trkpt lat="43.05897" lon="-0.48897">
        <ele>946.6</ele>
        <time>2025-07-22T17:34:27Z</time>
      </trkpt>
      <trkpt lat="43.05896" lon="-0.48901">
        <ele>947</ele>
        <time>2025-07-22T17:34:28Z</time>
      </trkpt>
      <trkpt lat="43.05899" lon="-0.48907">
        <ele>947.6</ele>
        <time>2025-07-22T17:34:30Z</time>
      </trkpt>
      <trkpt lat="43.05901" lon="-0.48909">
        <ele>947.8</ele>
        <time>2025-07-22T17:34:31Z</time>
      </trkpt>
      <trkpt lat="43.05908" lon="-0.48916">
        <ele>948.6</ele>
        <time>2025-07-22T17:34:35Z</time>
      </trkpt>
      <trkpt lat="43.05915" lon="-0.48918">
        <ele>949.4</ele>
        <time>2025-07-22T17:34:38Z</time>
      </trkpt>
      <trkpt lat="43.05918" lon="-0.48917">
        <ele>950</ele>
        <time>2025-07-22T17:34:40Z</time>
      </trkpt>
      <trkpt lat="43.05926" lon="-0.48915">
        <ele>951</ele>
        <time>2025-07-22T17:34:44Z</time>
      </trkpt>
      <trkpt lat="43.05932" lon="-0.48913">
        <ele>951.8</ele>
        <time>2025-07-22T17:34:47Z</time>
      </trkpt>
      <trkpt lat="43.05935" lon="-0.48911">
        <ele>952.2</ele>
        <time>2025-07-22T17:34:49Z</time>
      </trkpt>
      <trkpt lat="43.05937" lon="-0.4891">
        <ele>952.4</ele>
        <time>2025-07-22T17:34:50Z</time>
      </trkpt>
      <trkpt lat="43.05944" lon="-0.48905">
        <ele>953.2</ele>
        <time>2025-07-22T17:34:54Z</time>
      </trkpt>
      <trkpt lat="43.05946" lon="-0.48904">
        <ele>953.4</ele>
        <time>2025-07-22T17:34:55Z</time>
      </trkpt>
      <trkpt lat="43.05953" lon="-0.48899">
        <ele>954.4</ele>
        <time>2025-07-22T17:34:59Z</time>
      </trkpt>
      <trkpt lat="43.05958" lon="-0.48895">
        <ele>954.8</ele>
        <time>2025-07-22T17:35:02Z</time>
      </trkpt>
      <trkpt lat="43.05964" lon="-0.48888">
        <ele>955.6</ele>
        <time>2025-07-22T17:35:06Z</time>
      </trkpt>
      <trkpt lat="43.05968" lon="-0.48884">
        <ele>956.4</ele>
        <time>2025-07-22T17:35:09Z</time>
      </trkpt>
      <trkpt lat="43.05971" lon="-0.48882">
        <ele>956.6</ele>
        <time>2025-07-22T17:35:11Z</time>
      </trkpt>
      <trkpt lat="43.05979" lon="-0.48873">
        <ele>957.6</ele>
        <time>2025-07-22T17:35:16Z</time>
      </trkpt>
      <trkpt lat="43.05981" lon="-0.48872">
        <ele>957.6</ele>
        <time>2025-07-22T17:35:17Z</time>
      </trkpt>
      <trkpt lat="43.05985" lon="-0.48867">
        <ele>958.6</ele>
        <time>2025-07-22T17:35:20Z</time>
      </trkpt>
      <trkpt lat="43.05992" lon="-0.48864">
        <ele>959.4</ele>
        <time>2025-07-22T17:35:23Z</time>
      </trkpt>
      <trkpt lat="43.05997" lon="-0.48861">
        <ele>959.6</ele>
        <time>2025-07-22T17:35:26Z</time>
      </trkpt>
      <trkpt lat="43.06003" lon="-0.48857">
        <ele>960.4</ele>
        <time>2025-07-22T17:35:29Z</time>
      </trkpt>
      <trkpt lat="43.06005" lon="-0.48856">
        <ele>960.8</ele>
        <time>2025-07-22T17:35:30Z</time>
      </trkpt>
      <trkpt lat="43.06006" lon="-0.48855">
        <ele>961</ele>
        <time>2025-07-22T17:35:31Z</time>
      </trkpt>
      <trkpt lat="43.06012" lon="-0.48846">
        <ele>962</ele>
        <time>2025-07-22T17:35:35Z</time>
      </trkpt>
      <trkpt lat="43.0602" lon="-0.48837">
        <ele>963</ele>
        <time>2025-07-22T17:35:40Z</time>
      </trkpt>
      <trkpt lat="43.06023" lon="-0.48833">
        <ele>963.4</ele>
        <time>2025-07-22T17:35:42Z</time>
      </trkpt>
      <trkpt lat="43.06027" lon="-0.48829">
        <ele>964</ele>
        <time>2025-07-22T17:35:44Z</time>
      </trkpt>
      <trkpt lat="43.06038" lon="-0.48819">
        <ele>965.2</ele>
        <time>2025-07-22T17:35:50Z</time>
      </trkpt>
      <trkpt lat="43.06045" lon="-0.48819">
        <ele>966.2</ele>
        <time>2025-07-22T17:35:54Z</time>
      </trkpt>
      <trkpt lat="43.06047" lon="-0.4882">
        <ele>966.4</ele>
        <time>2025-07-22T17:35:55Z</time>
      </trkpt>
      <trkpt lat="43.06051" lon="-0.48829">
        <ele>967.4</ele>
        <time>2025-07-22T17:35:59Z</time>
      </trkpt>
      <trkpt lat="43.06051" lon="-0.48832">
        <ele>967.8</ele>
        <time>2025-07-22T17:36:00Z</time>
      </trkpt>
      <trkpt lat="43.06049" lon="-0.48838">
        <ele>968</ele>
        <time>2025-07-22T17:36:02Z</time>
      </trkpt>
      <trkpt lat="43.06048" lon="-0.4884">
        <ele>968.4</ele>
        <time>2025-07-22T17:36:03Z</time>
      </trkpt>
      <trkpt lat="43.06044" lon="-0.48843">
        <ele>968.8</ele>
        <time>2025-07-22T17:36:05Z</time>
      </trkpt>
      <trkpt lat="43.06041" lon="-0.48845">
        <ele>969.2</ele>
        <time>2025-07-22T17:36:07Z</time>
      </trkpt>
      <trkpt lat="43.06039" lon="-0.48846">
        <ele>969.4</ele>
        <time>2025-07-22T17:36:08Z</time>
      </trkpt>
      <trkpt lat="43.06038" lon="-0.48848">
        <ele>969.6</ele>
        <time>2025-07-22T17:36:09Z</time>
      </trkpt>
      <trkpt lat="43.06031" lon="-0.48855">
        <ele>970.4</ele>
        <time>2025-07-22T17:36:13Z</time>
      </trkpt>
      <trkpt lat="43.06028" lon="-0.4886">
        <ele>971.2</ele>
        <time>2025-07-22T17:36:16Z</time>
      </trkpt>
      <trkpt lat="43.06026" lon="-0.48862">
        <ele>971.4</ele>
        <time>2025-07-22T17:36:17Z</time>
      </trkpt>
      <trkpt lat="43.06023" lon="-0.48873">
        <ele>972.6</ele>
        <time>2025-07-22T17:36:21Z</time>
      </trkpt>
      <trkpt lat="43.06019" lon="-0.48884">
        <ele>974</ele>
        <time>2025-07-22T17:36:25Z</time>
      </trkpt>
      <trkpt lat="43.06019" lon="-0.48887">
        <ele>974.2</ele>
        <time>2025-07-22T17:36:26Z</time>
      </trkpt>
      <trkpt lat="43.06018" lon="-0.48889">
        <ele>974.4</ele>
        <time>2025-07-22T17:36:27Z</time>
      </trkpt>
      <trkpt lat="43.06015" lon="-0.48897">
        <ele>975</ele>
        <time>2025-07-22T17:36:30Z</time>
      </trkpt>
      <trkpt lat="43.06011" lon="-0.48906">
        <ele>975.8</ele>
        <time>2025-07-22T17:36:34Z</time>
      </trkpt>
      <trkpt lat="43.06009" lon="-0.48911">
        <ele>976.2</ele>
        <time>2025-07-22T17:36:36Z</time>
      </trkpt>
      <trkpt lat="43.06005" lon="-0.48921">
        <ele>977.4</ele>
        <time>2025-07-22T17:36:40Z</time>
      </trkpt>
      <trkpt lat="43.06004" lon="-0.48923">
        <ele>977.8</ele>
        <time>2025-07-22T17:36:41Z</time>
      </trkpt>
      <trkpt lat="43.06001" lon="-0.48933">
        <ele>978.6</ele>
        <time>2025-07-22T17:36:44Z</time>
      </trkpt>
      <trkpt lat="43.05997" lon="-0.4894">
        <ele>979.2</ele>
        <time>2025-07-22T17:36:47Z</time>
      </trkpt>
      <trkpt lat="43.05996" lon="-0.48942">
        <ele>979.8</ele>
        <time>2025-07-22T17:36:48Z</time>
      </trkpt>
      <trkpt lat="43.0599" lon="-0.48953">
        <ele>981</ele>
        <time>2025-07-22T17:36:53Z</time>
      </trkpt>
      <trkpt lat="43.05986" lon="-0.48963">
        <ele>982</ele>
        <time>2025-07-22T17:36:58Z</time>
      </trkpt>
      <trkpt lat="43.05985" lon="-0.48966">
        <ele>982.2</ele>
        <time>2025-07-22T17:36:59Z</time>
      </trkpt>
      <trkpt lat="43.05982" lon="-0.48974">
        <ele>983</ele>
        <time>2025-07-22T17:37:02Z</time>
      </trkpt>
      <trkpt lat="43.05976" lon="-0.48986">
        <ele>984.4</ele>
        <time>2025-07-22T17:37:07Z</time>
      </trkpt>
      <trkpt lat="43.05969" lon="-0.48999">
        <ele>985.6</ele>
        <time>2025-07-22T17:37:12Z</time>
      </trkpt>
      <trkpt lat="43.05968" lon="-0.49003">
        <ele>985.8</ele>
        <time>2025-07-22T17:37:13Z</time>
      </trkpt>
      <trkpt lat="43.05963" lon="-0.49012">
        <ele>986.8</ele>
        <time>2025-07-22T17:37:17Z</time>
      </trkpt>
      <trkpt lat="43.05958" lon="-0.49017">
        <ele>987.4</ele>
        <time>2025-07-22T17:37:20Z</time>
      </trkpt>
      <trkpt lat="43.05957" lon="-0.49019">
        <ele>987.8</ele>
        <time>2025-07-22T17:37:21Z</time>
      </trkpt>
      <trkpt lat="43.05953" lon="-0.49032">
        <ele>988.8</ele>
        <time>2025-07-22T17:37:25Z</time>
      </trkpt>
      <trkpt lat="43.05949" lon="-0.49042">
        <ele>989.8</ele>
        <time>2025-07-22T17:37:28Z</time>
      </trkpt>
      <trkpt lat="43.05944" lon="-0.49054">
        <ele>991.2</ele>
        <time>2025-07-22T17:37:32Z</time>
      </trkpt>
      <trkpt lat="43.0594" lon="-0.49062">
        <ele>992</ele>
        <time>2025-07-22T17:37:35Z</time>
      </trkpt>
      <trkpt lat="43.05939" lon="-0.49064">
        <ele>992.2</ele>
        <time>2025-07-22T17:37:36Z</time>
      </trkpt>
      <trkpt lat="43.05932" lon="-0.49076">
        <ele>993.4</ele>
        <time>2025-07-22T17:37:41Z</time>
      </trkpt>
      <trkpt lat="43.05928" lon="-0.49079">
        <ele>993.8</ele>
        <time>2025-07-22T17:37:43Z</time>
      </trkpt>
      <trkpt lat="43.05921" lon="-0.49089">
        <ele>994.4</ele>
        <time>2025-07-22T17:37:48Z</time>
      </trkpt>
      <trkpt lat="43.0592" lon="-0.49091">
        <ele>994.6</ele>
        <time>2025-07-22T17:37:49Z</time>
      </trkpt>
      <trkpt lat="43.05913" lon="-0.49104">
        <ele>995.4</ele>
        <time>2025-07-22T17:37:56Z</time>
      </trkpt>
      <trkpt lat="43.05904" lon="-0.4912">
        <ele>996</ele>
        <time>2025-07-22T17:38:03Z</time>
      </trkpt>
      <trkpt lat="43.05902" lon="-0.4913">
        <ele>996.4</ele>
        <time>2025-07-22T17:38:06Z</time>
      </trkpt>
      <trkpt lat="43.059" lon="-0.49139">
        <ele>997</ele>
        <time>2025-07-22T17:38:09Z</time>
      </trkpt>
      <trkpt lat="43.05898" lon="-0.49151">
        <ele>997.6</ele>
        <time>2025-07-22T17:38:13Z</time>
      </trkpt>
      <trkpt lat="43.05896" lon="-0.49158">
        <ele>997.8</ele>
        <time>2025-07-22T17:38:15Z</time>
      </trkpt>
      <trkpt lat="43.05891" lon="-0.49174">
        <ele>998.4</ele>
        <time>2025-07-22T17:38:21Z</time>
      </trkpt>
      <trkpt lat="43.05891" lon="-0.49176">
        <ele>998.6</ele>
        <time>2025-07-22T17:38:22Z</time>
      </trkpt>
      <trkpt lat="43.0589" lon="-0.49189">
        <ele>999.4</ele>
        <time>2025-07-22T17:38:27Z</time>
      </trkpt>
      <trkpt lat="43.05889" lon="-0.49191">
        <ele>999.6</ele>
        <time>2025-07-22T17:38:28Z</time>
      </trkpt>
      <trkpt lat="43.05885" lon="-0.49208">
        <ele>1000.4</ele>
        <time>2025-07-22T17:38:35Z</time>
      </trkpt>
      <trkpt lat="43.05884" lon="-0.4921">
        <ele>1000.6</ele>
        <time>2025-07-22T17:38:36Z</time>
      </trkpt>
      <trkpt lat="43.05878" lon="-0.49223">
        <ele>1001.4</ele>
        <time>2025-07-22T17:38:41Z</time>
      </trkpt>
      <trkpt lat="43.05875" lon="-0.49229">
        <ele>1001.6</ele>
        <time>2025-07-22T17:38:43Z</time>
      </trkpt>
      <trkpt lat="43.05873" lon="-0.49232">
        <ele>1001.8</ele>
        <time>2025-07-22T17:38:44Z</time>
      </trkpt>
      <trkpt lat="43.05863" lon="-0.4925">
        <ele>1002.8</ele>
        <time>2025-07-22T17:38:51Z</time>
      </trkpt>
      <trkpt lat="43.05853" lon="-0.49264">
        <ele>1003.6</ele>
        <time>2025-07-22T17:38:57Z</time>
      </trkpt>
      <trkpt lat="43.05852" lon="-0.49267">
        <ele>1003.8</ele>
        <time>2025-07-22T17:38:58Z</time>
      </trkpt>
      <trkpt lat="43.05845" lon="-0.4928">
        <ele>1004.8</ele>
        <time>2025-07-22T17:39:03Z</time>
      </trkpt>
      <trkpt lat="43.05841" lon="-0.49287">
        <ele>1005.2</ele>
        <time>2025-07-22T17:39:06Z</time>
      </trkpt>
      <trkpt lat="43.0584" lon="-0.49293">
        <ele>1005.6</ele>
        <time>2025-07-22T17:39:08Z</time>
      </trkpt>
      <trkpt lat="43.0584" lon="-0.493">
        <ele>1006</ele>
        <time>2025-07-22T17:39:10Z</time>
      </trkpt>
      <trkpt lat="43.05841" lon="-0.49305">
        <ele>1006.2</ele>
        <time>2025-07-22T17:39:12Z</time>
      </trkpt>
      <trkpt lat="43.05846" lon="-0.49314">
        <ele>1006.8</ele>
        <time>2025-07-22T17:39:15Z</time>
      </trkpt>
      <trkpt lat="43.05855" lon="-0.49324">
        <ele>1007.8</ele>
        <time>2025-07-22T17:39:20Z</time>
      </trkpt>
      <trkpt lat="43.05857" lon="-0.49326">
        <ele>1008</ele>
        <time>2025-07-22T17:39:21Z</time>
      </trkpt>
      <trkpt lat="43.05868" lon="-0.49335">
        <ele>1009</ele>
        <time>2025-07-22T17:39:27Z</time>
      </trkpt>
      <trkpt lat="43.05877" lon="-0.49343">
        <ele>1009.8</ele>
        <time>2025-07-22T17:39:32Z</time>
      </trkpt>
      <trkpt lat="43.05879" lon="-0.49343">
        <ele>1010</ele>
        <time>2025-07-22T17:39:33Z</time>
      </trkpt>
      <trkpt lat="43.05889" lon="-0.49341">
        <ele>1011</ele>
        <time>2025-07-22T17:39:38Z</time>
      </trkpt>
      <trkpt lat="43.05892" lon="-0.49341">
        <ele>1011.2</ele>
        <time>2025-07-22T17:39:39Z</time>
      </trkpt>
      <trkpt lat="43.05897" lon="-0.4934">
        <ele>1012</ele>
        <time>2025-07-22T17:39:42Z</time>
      </trkpt>
      <trkpt lat="43.05902" lon="-0.49334">
        <ele>1012.4</ele>
        <time>2025-07-22T17:39:45Z</time>
      </trkpt>
      <trkpt lat="43.05905" lon="-0.4933">
        <ele>1013</ele>
        <time>2025-07-22T17:39:47Z</time>
      </trkpt>
      <trkpt lat="43.05914" lon="-0.49321">
        <ele>1014</ele>
        <time>2025-07-22T17:39:52Z</time>
      </trkpt>
      <trkpt lat="43.05925" lon="-0.49305">
        <ele>1015.4</ele>
        <time>2025-07-22T17:39:59Z</time>
      </trkpt>
      <trkpt lat="43.05925" lon="-0.49302">
        <ele>1015.6</ele>
        <time>2025-07-22T17:40:00Z</time>
      </trkpt>
      <trkpt lat="43.05929" lon="-0.49292">
        <ele>1016.2</ele>
        <time>2025-07-22T17:40:04Z</time>
      </trkpt>
      <trkpt lat="43.05932" lon="-0.49285">
        <ele>1016.8</ele>
        <time>2025-07-22T17:40:07Z</time>
      </trkpt>
      <trkpt lat="43.05933" lon="-0.49277">
        <ele>1017.4</ele>
        <time>2025-07-22T17:40:10Z</time>
      </trkpt>
      <trkpt lat="43.05935" lon="-0.4927">
        <ele>1017.8</ele>
        <time>2025-07-22T17:40:13Z</time>
      </trkpt>
      <trkpt lat="43.05935" lon="-0.49267">
        <ele>1018</ele>
        <time>2025-07-22T17:40:14Z</time>
      </trkpt>
      <trkpt lat="43.05936" lon="-0.49259">
        <ele>1018.4</ele>
        <time>2025-07-22T17:40:17Z</time>
      </trkpt>
      <trkpt lat="43.05937" lon="-0.49256">
        <ele>1018.6</ele>
        <time>2025-07-22T17:40:19Z</time>
      </trkpt>
      <trkpt lat="43.05937" lon="-0.4925">
        <ele>1018.8</ele>
        <time>2025-07-22T17:40:22Z</time>
      </trkpt>
      <trkpt lat="43.05937" lon="-0.4925">
        <ele>1018.8</ele>
        <time>2025-07-22T17:40:27Z</time>
      </trkpt>
      <trkpt lat="43.05937" lon="-0.49247">
        <ele>1019</ele>
        <time>2025-07-22T17:41:42Z</time>
      </trkpt>
      <trkpt lat="43.0594" lon="-0.49227">
        <ele>1019.2</ele>
        <time>2025-07-22T17:41:48Z</time>
      </trkpt>
      <trkpt lat="43.05942" lon="-0.49206">
        <ele>1018.8</ele>
        <time>2025-07-22T17:41:53Z</time>
      </trkpt>
      <trkpt lat="43.05943" lon="-0.49181">
        <ele>1018.6</ele>
        <time>2025-07-22T17:41:58Z</time>
      </trkpt>
      <trkpt lat="43.05948" lon="-0.49149">
        <ele>1018.4</ele>
        <time>2025-07-22T17:42:04Z</time>
      </trkpt>
      <trkpt lat="43.05958" lon="-0.49131">
        <ele>1018.4</ele>
        <time>2025-07-22T17:42:08Z</time>
      </trkpt>
      <trkpt lat="43.05978" lon="-0.49101">
        <ele>1017.8</ele>
        <time>2025-07-22T17:42:14Z</time>
      </trkpt>
      <trkpt lat="43.05985" lon="-0.4909">
        <ele>1017.8</ele>
        <time>2025-07-22T17:42:16Z</time>
      </trkpt>
      <trkpt lat="43.05993" lon="-0.49082">
        <ele>1017.4</ele>
        <time>2025-07-22T17:42:18Z</time>
      </trkpt>
      <trkpt lat="43.05998" lon="-0.49082">
        <ele>1017.2</ele>
        <time>2025-07-22T17:42:19Z</time>
      </trkpt>
      <trkpt lat="43.06003" lon="-0.49084">
        <ele>1017</ele>
        <time>2025-07-22T17:42:20Z</time>
      </trkpt>
      <trkpt lat="43.06011" lon="-0.49089">
        <ele>1017</ele>
        <time>2025-07-22T17:42:22Z</time>
      </trkpt>
      <trkpt lat="43.06014" lon="-0.49095">
        <ele>1017</ele>
        <time>2025-07-22T17:42:23Z</time>
      </trkpt>
      <trkpt lat="43.06017" lon="-0.49101">
        <ele>1016.8</ele>
        <time>2025-07-22T17:42:24Z</time>
      </trkpt>
      <trkpt lat="43.06019" lon="-0.49108">
        <ele>1016.8</ele>
        <time>2025-07-22T17:42:25Z</time>
      </trkpt>
      <trkpt lat="43.06038" lon="-0.49162">
        <ele>1016.2</ele>
        <time>2025-07-22T17:42:33Z</time>
      </trkpt>
      <trkpt lat="43.06054" lon="-0.49205">
        <ele>1015.8</ele>
        <time>2025-07-22T17:42:39Z</time>
      </trkpt>
      <trkpt lat="43.06057" lon="-0.49213">
        <ele>1015.6</ele>
        <time>2025-07-22T17:42:40Z</time>
      </trkpt>
      <trkpt lat="43.0606" lon="-0.49228">
        <ele>1015.4</ele>
        <time>2025-07-22T17:42:42Z</time>
      </trkpt>
      <trkpt lat="43.06063" lon="-0.49251">
        <ele>1014.8</ele>
        <time>2025-07-22T17:42:45Z</time>
      </trkpt>
      <trkpt lat="43.06064" lon="-0.49266">
        <ele>1014.4</ele>
        <time>2025-07-22T17:42:47Z</time>
      </trkpt>
      <trkpt lat="43.06064" lon="-0.49274">
        <ele>1014.4</ele>
        <time>2025-07-22T17:42:48Z</time>
      </trkpt>
      <trkpt lat="43.06062" lon="-0.49289">
        <ele>1014.2</ele>
        <time>2025-07-22T17:42:50Z</time>
      </trkpt>
      <trkpt lat="43.0606" lon="-0.49296">
        <ele>1014.2</ele>
        <time>2025-07-22T17:42:51Z</time>
      </trkpt>
      <trkpt lat="43.06051" lon="-0.49315">
        <ele>1014.2</ele>
        <time>2025-07-22T17:42:54Z</time>
      </trkpt>
      <trkpt lat="43.06048" lon="-0.49322">
        <ele>1014</ele>
        <time>2025-07-22T17:42:55Z</time>
      </trkpt>
      <trkpt lat="43.06033" lon="-0.49348">
        <ele>1013.6</ele>
        <time>2025-07-22T17:42:59Z</time>
      </trkpt>
      <trkpt lat="43.0603" lon="-0.49356">
        <ele>1013.4</ele>
        <time>2025-07-22T17:43:00Z</time>
      </trkpt>
      <trkpt lat="43.06017" lon="-0.49388">
        <ele>1013</ele>
        <time>2025-07-22T17:43:04Z</time>
      </trkpt>
      <trkpt lat="43.06011" lon="-0.49405">
        <ele>1012.8</ele>
        <time>2025-07-22T17:43:06Z</time>
      </trkpt>
      <trkpt lat="43.06008" lon="-0.49431">
        <ele>1012.6</ele>
        <time>2025-07-22T17:43:09Z</time>
      </trkpt>
      <trkpt lat="43.06009" lon="-0.49448">
        <ele>1012.4</ele>
        <time>2025-07-22T17:43:11Z</time>
      </trkpt>
      <trkpt lat="43.06024" lon="-0.4951">
        <ele>1012.2</ele>
        <time>2025-07-22T17:43:18Z</time>
      </trkpt>
      <trkpt lat="43.06034" lon="-0.49542">
        <ele>1012.2</ele>
        <time>2025-07-22T17:43:22Z</time>
      </trkpt>
      <trkpt lat="43.06039" lon="-0.4956">
        <ele>1012</ele>
        <time>2025-07-22T17:43:24Z</time>
      </trkpt>
      <trkpt lat="43.06042" lon="-0.4957">
        <ele>1012</ele>
        <time>2025-07-22T17:43:25Z</time>
      </trkpt>
      <trkpt lat="43.06048" lon="-0.49596">
        <ele>1011.8</ele>
        <time>2025-07-22T17:43:28Z</time>
      </trkpt>
      <trkpt lat="43.06057" lon="-0.49608">
        <ele>1011.6</ele>
        <time>2025-07-22T17:43:30Z</time>
      </trkpt>
      <trkpt lat="43.06067" lon="-0.49616">
        <ele>1011.6</ele>
        <time>2025-07-22T17:43:32Z</time>
      </trkpt>
      <trkpt lat="43.06077" lon="-0.49619">
        <ele>1011.4</ele>
        <time>2025-07-22T17:43:34Z</time>
      </trkpt>
      <trkpt lat="43.06089" lon="-0.49623">
        <ele>1011.2</ele>
        <time>2025-07-22T17:43:36Z</time>
      </trkpt>
      <trkpt lat="43.06095" lon="-0.49626">
        <ele>1011.2</ele>
        <time>2025-07-22T17:43:37Z</time>
      </trkpt>
      <trkpt lat="43.06107" lon="-0.49631">
        <ele>1011.2</ele>
        <time>2025-07-22T17:43:39Z</time>
      </trkpt>
      <trkpt lat="43.06116" lon="-0.49632">
        <ele>1011</ele>
        <time>2025-07-22T17:43:41Z</time>
      </trkpt>
      <trkpt lat="43.0612" lon="-0.49633">
        <ele>1011</ele>
        <time>2025-07-22T17:43:42Z</time>
      </trkpt>
      <trkpt lat="43.06132" lon="-0.4963">
        <ele>1011</ele>
        <time>2025-07-22T17:43:44Z</time>
      </trkpt>
      <trkpt lat="43.06167" lon="-0.49632">
        <ele>1011</ele>
        <time>2025-07-22T17:43:49Z</time>
      </trkpt>
      <trkpt lat="43.06181" lon="-0.49637">
        <ele>1011</ele>
        <time>2025-07-22T17:43:51Z</time>
      </trkpt>
      <trkpt lat="43.06194" lon="-0.49644">
        <ele>1011</ele>
        <time>2025-07-22T17:43:53Z</time>
      </trkpt>
      <trkpt lat="43.06211" lon="-0.49662">
        <ele>1011</ele>
        <time>2025-07-22T17:43:56Z</time>
      </trkpt>
      <trkpt lat="43.0622" lon="-0.49677">
        <ele>1011</ele>
        <time>2025-07-22T17:43:58Z</time>
      </trkpt>
      <trkpt lat="43.06226" lon="-0.49683">
        <ele>1011</ele>
        <time>2025-07-22T17:43:59Z</time>
      </trkpt>
      <trkpt lat="43.06237" lon="-0.49692">
        <ele>1010.8</ele>
        <time>2025-07-22T17:44:01Z</time>
      </trkpt>
      <trkpt lat="43.06243" lon="-0.49695">
        <ele>1010.8</ele>
        <time>2025-07-22T17:44:02Z</time>
      </trkpt>
      <trkpt lat="43.06254" lon="-0.49699">
        <ele>1010.8</ele>
        <time>2025-07-22T17:44:04Z</time>
      </trkpt>
      <trkpt lat="43.06275" lon="-0.49715">
        <ele>1011</ele>
        <time>2025-07-22T17:44:08Z</time>
      </trkpt>
      <trkpt lat="43.06285" lon="-0.49725">
        <ele>1011</ele>
        <time>2025-07-22T17:44:10Z</time>
      </trkpt>
      <trkpt lat="43.06304" lon="-0.49746">
        <ele>1011</ele>
        <time>2025-07-22T17:44:14Z</time>
      </trkpt>
      <trkpt lat="43.06325" lon="-0.49767">
        <ele>1010.8</ele>
        <time>2025-07-22T17:44:18Z</time>
      </trkpt>
      <trkpt lat="43.06334" lon="-0.49781">
        <ele>1010.8</ele>
        <time>2025-07-22T17:44:20Z</time>
      </trkpt>
      <trkpt lat="43.06366" lon="-0.4983">
        <ele>1010.6</ele>
        <time>2025-07-22T17:44:27Z</time>
      </trkpt>
      <trkpt lat="43.06379" lon="-0.49848">
        <ele>1010.4</ele>
        <time>2025-07-22T17:44:30Z</time>
      </trkpt>
      <trkpt lat="43.06382" lon="-0.49852">
        <ele>1010.2</ele>
        <time>2025-07-22T17:44:31Z</time>
      </trkpt>
      <trkpt lat="43.06393" lon="-0.4986">
        <ele>1010.4</ele>
        <time>2025-07-22T17:44:33Z</time>
      </trkpt>
      <trkpt lat="43.06405" lon="-0.49863">
        <ele>1010.4</ele>
        <time>2025-07-22T17:44:35Z</time>
      </trkpt>
      <trkpt lat="43.06417" lon="-0.49863">
        <ele>1010.6</ele>
        <time>2025-07-22T17:44:37Z</time>
      </trkpt>
      <trkpt lat="43.06429" lon="-0.49858">
        <ele>1010.6</ele>
        <time>2025-07-22T17:44:39Z</time>
      </trkpt>
      <trkpt lat="43.0644" lon="-0.4985">
        <ele>1010.8</ele>
        <time>2025-07-22T17:44:41Z</time>
      </trkpt>
      <trkpt lat="43.06476" lon="-0.49818">
        <ele>1010.6</ele>
        <time>2025-07-22T17:44:48Z</time>
      </trkpt>
      <trkpt lat="43.06488" lon="-0.49816">
        <ele>1010.6</ele>
        <time>2025-07-22T17:44:50Z</time>
      </trkpt>
      <trkpt lat="43.06495" lon="-0.49818">
        <ele>1010.6</ele>
        <time>2025-07-22T17:44:51Z</time>
      </trkpt>
      <trkpt lat="43.065" lon="-0.49823">
        <ele>1010.6</ele>
        <time>2025-07-22T17:44:52Z</time>
      </trkpt>
      <trkpt lat="43.06508" lon="-0.49837">
        <ele>1010.6</ele>
        <time>2025-07-22T17:44:54Z</time>
      </trkpt>
      <trkpt lat="43.06511" lon="-0.49846">
        <ele>1010.8</ele>
        <time>2025-07-22T17:44:55Z</time>
      </trkpt>
      <trkpt lat="43.06517" lon="-0.49871">
        <ele>1010.8</ele>
        <time>2025-07-22T17:44:58Z</time>
      </trkpt>
      <trkpt lat="43.06519" lon="-0.49878">
        <ele>1010.8</ele>
        <time>2025-07-22T17:44:59Z</time>
      </trkpt>
      <trkpt lat="43.06527" lon="-0.49917">
        <ele>1010.6</ele>
        <time>2025-07-22T17:45:04Z</time>
      </trkpt>
      <trkpt lat="43.06529" lon="-0.49935">
        <ele>1010.6</ele>
        <time>2025-07-22T17:45:06Z</time>
      </trkpt>
      <trkpt lat="43.06528" lon="-0.49962">
        <ele>1010.6</ele>
        <time>2025-07-22T17:45:09Z</time>
      </trkpt>
      <trkpt lat="43.06515" lon="-0.50038">
        <ele>1010.6</ele>
        <time>2025-07-22T17:45:18Z</time>
      </trkpt>
      <trkpt lat="43.06511" lon="-0.50054">
        <ele>1010.8</ele>
        <time>2025-07-22T17:45:20Z</time>
      </trkpt>
      <trkpt lat="43.06509" lon="-0.50069">
        <ele>1010.6</ele>
        <time>2025-07-22T17:45:22Z</time>
      </trkpt>
      <trkpt lat="43.06507" lon="-0.50077">
        <ele>1010.6</ele>
        <time>2025-07-22T17:45:23Z</time>
      </trkpt>
      <trkpt lat="43.06504" lon="-0.50095">
        <ele>1010.8</ele>
        <time>2025-07-22T17:45:25Z</time>
      </trkpt>
      <trkpt lat="43.06503" lon="-0.50103">
        <ele>1010.8</ele>
        <time>2025-07-22T17:45:26Z</time>
      </trkpt>
      <trkpt lat="43.06503" lon="-0.50122">
        <ele>1010.8</ele>
        <time>2025-07-22T17:45:28Z</time>
      </trkpt>
      <trkpt lat="43.06505" lon="-0.50148">
        <ele>1010.8</ele>
        <time>2025-07-22T17:45:31Z</time>
      </trkpt>
      <trkpt lat="43.06507" lon="-0.50162">
        <ele>1011</ele>
        <time>2025-07-22T17:45:33Z</time>
      </trkpt>
      <trkpt lat="43.06511" lon="-0.50177">
        <ele>1011</ele>
        <time>2025-07-22T17:45:35Z</time>
      </trkpt>
      <trkpt lat="43.06519" lon="-0.50188">
        <ele>1010.8</ele>
        <time>2025-07-22T17:45:37Z</time>
      </trkpt>
      <trkpt lat="43.0653" lon="-0.50188">
        <ele>1010.8</ele>
        <time>2025-07-22T17:45:39Z</time>
      </trkpt>
      <trkpt lat="43.06536" lon="-0.50183">
        <ele>1010.8</ele>
        <time>2025-07-22T17:45:40Z</time>
      </trkpt>
      <trkpt lat="43.06541" lon="-0.50178">
        <ele>1010.6</ele>
        <time>2025-07-22T17:45:41Z</time>
      </trkpt>
      <trkpt lat="43.06555" lon="-0.50159">
        <ele>1010.6</ele>
        <time>2025-07-22T17:45:44Z</time>
      </trkpt>
      <trkpt lat="43.06571" lon="-0.50139">
        <ele>1010.6</ele>
        <time>2025-07-22T17:45:47Z</time>
      </trkpt>
      <trkpt lat="43.06584" lon="-0.50129">
        <ele>1010.6</ele>
        <time>2025-07-22T17:45:49Z</time>
      </trkpt>
      <trkpt lat="43.06629" lon="-0.50089">
        <ele>1010.6</ele>
        <time>2025-07-22T17:45:56Z</time>
      </trkpt>
      <trkpt lat="43.06681" lon="-0.50054">
        <ele>1010.2</ele>
        <time>2025-07-22T17:46:05Z</time>
      </trkpt>
      <trkpt lat="43.06687" lon="-0.5005">
        <ele>1010.2</ele>
        <time>2025-07-22T17:46:06Z</time>
      </trkpt>
      <trkpt lat="43.06713" lon="-0.50037">
        <ele>1010.2</ele>
        <time>2025-07-22T17:46:10Z</time>
      </trkpt>
      <trkpt lat="43.06719" lon="-0.50036">
        <ele>1010.4</ele>
        <time>2025-07-22T17:46:11Z</time>
      </trkpt>
      <trkpt lat="43.06725" lon="-0.50036">
        <ele>1010.6</ele>
        <time>2025-07-22T17:46:12Z</time>
      </trkpt>
      <trkpt lat="43.06739" lon="-0.50039">
        <ele>1010.6</ele>
        <time>2025-07-22T17:46:14Z</time>
      </trkpt>
      <trkpt lat="43.06745" lon="-0.50042">
        <ele>1010.6</ele>
        <time>2025-07-22T17:46:15Z</time>
      </trkpt>
      <trkpt lat="43.06765" lon="-0.50046">
        <ele>1010.6</ele>
        <time>2025-07-22T17:46:18Z</time>
      </trkpt>
      <trkpt lat="43.06777" lon="-0.50046">
        <ele>1010.8</ele>
        <time>2025-07-22T17:46:20Z</time>
      </trkpt>
      <trkpt lat="43.06783" lon="-0.50046">
        <ele>1010.8</ele>
        <time>2025-07-22T17:46:21Z</time>
      </trkpt>
      <trkpt lat="43.06794" lon="-0.50051">
        <ele>1011</ele>
        <time>2025-07-22T17:46:23Z</time>
      </trkpt>
      <trkpt lat="43.06799" lon="-0.50054">
        <ele>1011</ele>
        <time>2025-07-22T17:46:24Z</time>
      </trkpt>
      <trkpt lat="43.06808" lon="-0.50062">
        <ele>1011.4</ele>
        <time>2025-07-22T17:46:26Z</time>
      </trkpt>
      <trkpt lat="43.06811" lon="-0.50065">
        <ele>1011.6</ele>
        <time>2025-07-22T17:46:27Z</time>
      </trkpt>
      <trkpt lat="43.06833" lon="-0.50076">
        <ele>1012.4</ele>
        <time>2025-07-22T17:46:33Z</time>
      </trkpt>
      <trkpt lat="43.06844" lon="-0.5008">
        <ele>1013.2</ele>
        <time>2025-07-22T17:46:37Z</time>
      </trkpt>
      <trkpt lat="43.06853" lon="-0.50092">
        <ele>1014.6</ele>
        <time>2025-07-22T17:46:41Z</time>
      </trkpt>
      <trkpt lat="43.06855" lon="-0.50095">
        <ele>1014.8</ele>
        <time>2025-07-22T17:46:42Z</time>
      </trkpt>
      <trkpt lat="43.06858" lon="-0.50098">
        <ele>1015</ele>
        <time>2025-07-22T17:46:43Z</time>
      </trkpt>
      <trkpt lat="43.06863" lon="-0.50105">
        <ele>1015.6</ele>
        <time>2025-07-22T17:46:46Z</time>
      </trkpt>
      <trkpt lat="43.06871" lon="-0.50115">
        <ele>1016.2</ele>
        <time>2025-07-22T17:46:50Z</time>
      </trkpt>
      <trkpt lat="43.06874" lon="-0.5012">
        <ele>1016.6</ele>
        <time>2025-07-22T17:46:52Z</time>
      </trkpt>
      <trkpt lat="43.06883" lon="-0.50136">
        <ele>1017.4</ele>
        <time>2025-07-22T17:46:57Z</time>
      </trkpt>
      <trkpt lat="43.06886" lon="-0.50138">
        <ele>1017.4</ele>
        <time>2025-07-22T17:46:58Z</time>
      </trkpt>
      <trkpt lat="43.06901" lon="-0.50155">
        <ele>1018.6</ele>
        <time>2025-07-22T17:47:05Z</time>
      </trkpt>
      <trkpt lat="43.06904" lon="-0.50161">
        <ele>1019</ele>
        <time>2025-07-22T17:47:07Z</time>
      </trkpt>
      <trkpt lat="43.0691" lon="-0.50168">
        <ele>1019.6</ele>
        <time>2025-07-22T17:47:10Z</time>
      </trkpt>
      <trkpt lat="43.06915" lon="-0.50173">
        <ele>1019.8</ele>
        <time>2025-07-22T17:47:12Z</time>
      </trkpt>
      <trkpt lat="43.06925" lon="-0.5019">
        <ele>1021</ele>
        <time>2025-07-22T17:47:17Z</time>
      </trkpt>
      <trkpt lat="43.06926" lon="-0.50194">
        <ele>1021</ele>
        <time>2025-07-22T17:47:18Z</time>
      </trkpt>
      <trkpt lat="43.06935" lon="-0.5021">
        <ele>1021.8</ele>
        <time>2025-07-22T17:47:23Z</time>
      </trkpt>
      <trkpt lat="43.06936" lon="-0.50213">
        <ele>1021.8</ele>
        <time>2025-07-22T17:47:24Z</time>
      </trkpt>
      <trkpt lat="43.0694" lon="-0.5024">
        <ele>1023</ele>
        <time>2025-07-22T17:47:31Z</time>
      </trkpt>
      <trkpt lat="43.06946" lon="-0.5027">
        <ele>1024</ele>
        <time>2025-07-22T17:47:38Z</time>
      </trkpt>
      <trkpt lat="43.06946" lon="-0.50274">
        <ele>1024.2</ele>
        <time>2025-07-22T17:47:39Z</time>
      </trkpt>
      <trkpt lat="43.06952" lon="-0.50297">
        <ele>1025.2</ele>
        <time>2025-07-22T17:47:45Z</time>
      </trkpt>
      <trkpt lat="43.06952" lon="-0.50299">
        <ele>1025.4</ele>
        <time>2025-07-22T17:47:46Z</time>
      </trkpt>
      <trkpt lat="43.06952" lon="-0.50313">
        <ele>1026.2</ele>
        <time>2025-07-22T17:47:50Z</time>
      </trkpt>
      <trkpt lat="43.06952" lon="-0.50317">
        <ele>1026.4</ele>
        <time>2025-07-22T17:47:51Z</time>
      </trkpt>
      <trkpt lat="43.06951" lon="-0.50338">
        <ele>1027.4</ele>
        <time>2025-07-22T17:47:57Z</time>
      </trkpt>
      <trkpt lat="43.06947" lon="-0.5036">
        <ele>1028.4</ele>
        <time>2025-07-22T17:48:03Z</time>
      </trkpt>
      <trkpt lat="43.06946" lon="-0.50365">
        <ele>1028.6</ele>
        <time>2025-07-22T17:48:04Z</time>
      </trkpt>
      <trkpt lat="43.06942" lon="-0.50392">
        <ele>1029.4</ele>
        <time>2025-07-22T17:48:11Z</time>
      </trkpt>
      <trkpt lat="43.06934" lon="-0.50416">
        <ele>1030.6</ele>
        <time>2025-07-22T17:48:17Z</time>
      </trkpt>
      <trkpt lat="43.06933" lon="-0.50423">
        <ele>1031</ele>
        <time>2025-07-22T17:48:19Z</time>
      </trkpt>
      <trkpt lat="43.06929" lon="-0.50435">
        <ele>1031.6</ele>
        <time>2025-07-22T17:48:22Z</time>
      </trkpt>
      <trkpt lat="43.06925" lon="-0.50447">
        <ele>1032.2</ele>
        <time>2025-07-22T17:48:25Z</time>
      </trkpt>
      <trkpt lat="43.06925" lon="-0.50457">
        <ele>1032.8</ele>
        <time>2025-07-22T17:48:28Z</time>
      </trkpt>
      <trkpt lat="43.06925" lon="-0.50475">
        <ele>1033.2</ele>
        <time>2025-07-22T17:48:33Z</time>
      </trkpt>
      <trkpt lat="43.06927" lon="-0.50487">
        <ele>1033.6</ele>
        <time>2025-07-22T17:48:36Z</time>
      </trkpt>
      <trkpt lat="43.06931" lon="-0.50506">
        <ele>1035</ele>
        <time>2025-07-22T17:48:41Z</time>
      </trkpt>
      <trkpt lat="43.06939" lon="-0.50526">
        <ele>1035.8</ele>
        <time>2025-07-22T17:48:47Z</time>
      </trkpt>
      <trkpt lat="43.0694" lon="-0.50529">
        <ele>1036.2</ele>
        <time>2025-07-22T17:48:48Z</time>
      </trkpt>
      <trkpt lat="43.06949" lon="-0.50545">
        <ele>1037</ele>
        <time>2025-07-22T17:48:53Z</time>
      </trkpt>
      <trkpt lat="43.06951" lon="-0.50549">
        <ele>1037</ele>
        <time>2025-07-22T17:48:54Z</time>
      </trkpt>
      <trkpt lat="43.0696" lon="-0.50569">
        <ele>1038</ele>
        <time>2025-07-22T17:49:00Z</time>
      </trkpt>
      <trkpt lat="43.06961" lon="-0.50572">
        <ele>1038.2</ele>
        <time>2025-07-22T17:49:01Z</time>
      </trkpt>
      <trkpt lat="43.06969" lon="-0.50588">
        <ele>1038.8</ele>
        <time>2025-07-22T17:49:06Z</time>
      </trkpt>
      <trkpt lat="43.0697" lon="-0.50592">
        <ele>1039</ele>
        <time>2025-07-22T17:49:07Z</time>
      </trkpt>
      <trkpt lat="43.06984" lon="-0.50609">
        <ele>1040</ele>
        <time>2025-07-22T17:49:13Z</time>
      </trkpt>
      <trkpt lat="43.06999" lon="-0.50618">
        <ele>1041.2</ele>
        <time>2025-07-22T17:49:19Z</time>
      </trkpt>
      <trkpt lat="43.07011" lon="-0.50627">
        <ele>1042.2</ele>
        <time>2025-07-22T17:49:24Z</time>
      </trkpt>
      <trkpt lat="43.07014" lon="-0.5063">
        <ele>1042.2</ele>
        <time>2025-07-22T17:49:25Z</time>
      </trkpt>
      <trkpt lat="43.07022" lon="-0.50647">
        <ele>1043.2</ele>
        <time>2025-07-22T17:49:30Z</time>
      </trkpt>
      <trkpt lat="43.07023" lon="-0.50651">
        <ele>1043.4</ele>
        <time>2025-07-22T17:49:31Z</time>
      </trkpt>
      <trkpt lat="43.07031" lon="-0.50672">
        <ele>1044.2</ele>
        <time>2025-07-22T17:49:36Z</time>
      </trkpt>
      <trkpt lat="43.07036" lon="-0.50683">
        <ele>1044.6</ele>
        <time>2025-07-22T17:49:39Z</time>
      </trkpt>
      <trkpt lat="43.0704" lon="-0.50698">
        <ele>1045.2</ele>
        <time>2025-07-22T17:49:43Z</time>
      </trkpt>
      <trkpt lat="43.07046" lon="-0.50715">
        <ele>1046</ele>
        <time>2025-07-22T17:49:48Z</time>
      </trkpt>
      <trkpt lat="43.07048" lon="-0.50722">
        <ele>1046.4</ele>
        <time>2025-07-22T17:49:50Z</time>
      </trkpt>
      <trkpt lat="43.07051" lon="-0.50741">
        <ele>1047.2</ele>
        <time>2025-07-22T17:49:57Z</time>
      </trkpt>
      <trkpt lat="43.07052" lon="-0.50744">
        <ele>1047.4</ele>
        <time>2025-07-22T17:49:58Z</time>
      </trkpt>
      <trkpt lat="43.07052" lon="-0.50755">
        <ele>1047.6</ele>
        <time>2025-07-22T17:50:03Z</time>
      </trkpt>
      <trkpt lat="43.07047" lon="-0.50755">
        <ele>1047.6</ele>
        <time>2025-07-22T17:50:05Z</time>
      </trkpt>
      <trkpt lat="43.07046" lon="-0.50753">
        <ele>1047.6</ele>
        <time>2025-07-22T17:50:06Z</time>
      </trkpt>
      <trkpt lat="43.07047" lon="-0.5074">
        <ele>1047.4</ele>
        <time>2025-07-22T17:50:10Z</time>
      </trkpt>
      <trkpt lat="43.07046" lon="-0.50736">
        <ele>1047.6</ele>
        <time>2025-07-22T17:50:12Z</time>
      </trkpt>
      <trkpt lat="43.07044" lon="-0.50732">
        <ele>1047.6</ele>
        <time>2025-07-22T17:50:15Z</time>
      </trkpt>
      <trkpt lat="43.07044" lon="-0.50732">
        <ele>1047.6</ele>
        <time>2025-07-22T17:50:17Z</time>
      </trkpt>
      <trkpt lat="43.07046" lon="-0.50736">
        <ele>1047.4</ele>
        <time>2025-07-22T17:59:04Z</time>
      </trkpt>
      <trkpt lat="43.07047" lon="-0.50739">
        <ele>1047.4</ele>
        <time>2025-07-22T17:59:05Z</time>
      </trkpt>
      <trkpt lat="43.0705" lon="-0.50759">
        <ele>1047.4</ele>
        <time>2025-07-22T17:59:11Z</time>
      </trkpt>
      <trkpt lat="43.07048" lon="-0.50784">
        <ele>1047</ele>
        <time>2025-07-22T17:59:16Z</time>
      </trkpt>
      <trkpt lat="43.07042" lon="-0.50796">
        <ele>1046.8</ele>
        <time>2025-07-22T17:59:18Z</time>
      </trkpt>
      <trkpt lat="43.07034" lon="-0.50808">
        <ele>1046.6</ele>
        <time>2025-07-22T17:59:20Z</time>
      </trkpt>
      <trkpt lat="43.07029" lon="-0.50813">
        <ele>1046.2</ele>
        <time>2025-07-22T17:59:21Z</time>
      </trkpt>
      <trkpt lat="43.07008" lon="-0.50843">
        <ele>1044.4</ele>
        <time>2025-07-22T17:59:25Z</time>
      </trkpt>
      <trkpt lat="43.06986" lon="-0.50872">
        <ele>1042.8</ele>
        <time>2025-07-22T17:59:28Z</time>
      </trkpt>
      <trkpt lat="43.06973" lon="-0.50888">
        <ele>1041.2</ele>
        <time>2025-07-22T17:59:30Z</time>
      </trkpt>
      <trkpt lat="43.06966" lon="-0.50896">
        <ele>1039.8</ele>
        <time>2025-07-22T17:59:31Z</time>
      </trkpt>
      <trkpt lat="43.0695" lon="-0.50912">
        <ele>1037.8</ele>
        <time>2025-07-22T17:59:33Z</time>
      </trkpt>
      <trkpt lat="43.06934" lon="-0.50925">
        <ele>1036</ele>
        <time>2025-07-22T17:59:35Z</time>
      </trkpt>
      <trkpt lat="43.06917" lon="-0.50939">
        <ele>1034</ele>
        <time>2025-07-22T17:59:37Z</time>
      </trkpt>
      <trkpt lat="43.06908" lon="-0.50945">
        <ele>1032.6</ele>
        <time>2025-07-22T17:59:38Z</time>
      </trkpt>
      <trkpt lat="43.069" lon="-0.50952">
        <ele>1030.2</ele>
        <time>2025-07-22T17:59:40Z</time>
      </trkpt>
      <trkpt lat="43.06874" lon="-0.5097">
        <ele>1028</ele>
        <time>2025-07-22T17:59:42Z</time>
      </trkpt>
      <trkpt lat="43.0686" lon="-0.50979">
        <ele>1025.2</ele>
        <time>2025-07-22T17:59:44Z</time>
      </trkpt>
      <trkpt lat="43.06856" lon="-0.50985">
        <ele>1023.6</ele>
        <time>2025-07-22T17:59:45Z</time>
      </trkpt>
      <trkpt lat="43.06855" lon="-0.50991">
        <ele>1022.6</ele>
        <time>2025-07-22T17:59:46Z</time>
      </trkpt>
      <trkpt lat="43.06856" lon="-0.50998">
        <ele>1021</ele>
        <time>2025-07-22T17:59:47Z</time>
      </trkpt>
      <trkpt lat="43.06859" lon="-0.51004">
        <ele>1020.4</ele>
        <time>2025-07-22T17:59:48Z</time>
      </trkpt>
      <trkpt lat="43.06864" lon="-0.51008">
        <ele>1019</ele>
        <time>2025-07-22T17:59:49Z</time>
      </trkpt>
      <trkpt lat="43.06871" lon="-0.51011">
        <ele>1017.8</ele>
        <time>2025-07-22T17:59:50Z</time>
      </trkpt>
      <trkpt lat="43.06878" lon="-0.51012">
        <ele>1017.4</ele>
        <time>2025-07-22T17:59:51Z</time>
      </trkpt>
      <trkpt lat="43.06885" lon="-0.51014">
        <ele>1016.6</ele>
        <time>2025-07-22T17:59:52Z</time>
      </trkpt>
      <trkpt lat="43.06893" lon="-0.51016">
        <ele>1016</ele>
        <time>2025-07-22T17:59:53Z</time>
      </trkpt>
      <trkpt lat="43.06911" lon="-0.51019">
        <ele>1014.6</ele>
        <time>2025-07-22T17:59:55Z</time>
      </trkpt>
      <trkpt lat="43.06918" lon="-0.5102">
        <ele>1013.6</ele>
        <time>2025-07-22T17:59:56Z</time>
      </trkpt>
      <trkpt lat="43.06928" lon="-0.51023">
        <ele>1012.6</ele>
        <time>2025-07-22T17:59:57Z</time>
      </trkpt>
      <trkpt lat="43.06935" lon="-0.51027">
        <ele>1012.2</ele>
        <time>2025-07-22T17:59:58Z</time>
      </trkpt>
      <trkpt lat="43.06944" lon="-0.51032">
        <ele>1011</ele>
        <time>2025-07-22T17:59:59Z</time>
      </trkpt>
      <trkpt lat="43.06944" lon="-0.51032">
        <ele>1010.2</ele>
        <time>2025-07-22T18:00:00Z</time>
      </trkpt>
      <trkpt lat="43.06962" lon="-0.51041">
        <ele>1008.6</ele>
        <time>2025-07-22T18:00:01Z</time>
      </trkpt>
      <trkpt lat="43.0698" lon="-0.51052">
        <ele>1006.2</ele>
        <time>2025-07-22T18:00:03Z</time>
      </trkpt>
      <trkpt lat="43.06986" lon="-0.51057">
        <ele>1005</ele>
        <time>2025-07-22T18:00:04Z</time>
      </trkpt>
      <trkpt lat="43.06993" lon="-0.51064">
        <ele>1004.2</ele>
        <time>2025-07-22T18:00:05Z</time>
      </trkpt>
      <trkpt lat="43.06993" lon="-0.51064">
        <ele>1002.8</ele>
        <time>2025-07-22T18:00:06Z</time>
      </trkpt>
      <trkpt lat="43.07004" lon="-0.51083">
        <ele>1002</ele>
        <time>2025-07-22T18:00:07Z</time>
      </trkpt>
      <trkpt lat="43.07009" lon="-0.51096">
        <ele>1000.2</ele>
        <time>2025-07-22T18:00:08Z</time>
      </trkpt>
      <trkpt lat="43.07014" lon="-0.51108">
        <ele>998.6</ele>
        <time>2025-07-22T18:00:09Z</time>
      </trkpt>
      <trkpt lat="43.07023" lon="-0.51133">
        <ele>996.8</ele>
        <time>2025-07-22T18:00:11Z</time>
      </trkpt>
      <trkpt lat="43.07031" lon="-0.51159">
        <ele>995</ele>
        <time>2025-07-22T18:00:13Z</time>
      </trkpt>
      <trkpt lat="43.07033" lon="-0.51184">
        <ele>993</ele>
        <time>2025-07-22T18:00:15Z</time>
      </trkpt>
      <trkpt lat="43.07033" lon="-0.51196">
        <ele>992</ele>
        <time>2025-07-22T18:00:16Z</time>
      </trkpt>
      <trkpt lat="43.07033" lon="-0.51208">
        <ele>991.4</ele>
        <time>2025-07-22T18:00:17Z</time>
      </trkpt>
      <trkpt lat="43.07035" lon="-0.51219">
        <ele>990.4</ele>
        <time>2025-07-22T18:00:18Z</time>
      </trkpt>
      <trkpt lat="43.07038" lon="-0.51229">
        <ele>989.4</ele>
        <time>2025-07-22T18:00:19Z</time>
      </trkpt>
      <trkpt lat="43.07043" lon="-0.51239">
        <ele>988</ele>
        <time>2025-07-22T18:00:20Z</time>
      </trkpt>
      <trkpt lat="43.07051" lon="-0.5125">
        <ele>987.2</ele>
        <time>2025-07-22T18:00:21Z</time>
      </trkpt>
      <trkpt lat="43.07057" lon="-0.51258">
        <ele>985.8</ele>
        <time>2025-07-22T18:00:22Z</time>
      </trkpt>
      <trkpt lat="43.07064" lon="-0.51267">
        <ele>983.8</ele>
        <time>2025-07-22T18:00:23Z</time>
      </trkpt>
      <trkpt lat="43.07073" lon="-0.51286">
        <ele>981.4</ele>
        <time>2025-07-22T18:00:25Z</time>
      </trkpt>
      <trkpt lat="43.07073" lon="-0.51286">
        <ele>980.6</ele>
        <time>2025-07-22T18:00:26Z</time>
      </trkpt>
      <trkpt lat="43.07079" lon="-0.51311">
        <ele>979</ele>
        <time>2025-07-22T18:00:27Z</time>
      </trkpt>
      <trkpt lat="43.0708" lon="-0.51327">
        <ele>977.2</ele>
        <time>2025-07-22T18:00:28Z</time>
      </trkpt>
      <trkpt lat="43.07078" lon="-0.51349">
        <ele>975.2</ele>
        <time>2025-07-22T18:00:30Z</time>
      </trkpt>
      <trkpt lat="43.07075" lon="-0.51374">
        <ele>972.8</ele>
        <time>2025-07-22T18:00:32Z</time>
      </trkpt>
      <trkpt lat="43.07069" lon="-0.51401">
        <ele>970.8</ele>
        <time>2025-07-22T18:00:34Z</time>
      </trkpt>
      <trkpt lat="43.07065" lon="-0.51415">
        <ele>969.2</ele>
        <time>2025-07-22T18:00:35Z</time>
      </trkpt>
      <trkpt lat="43.07062" lon="-0.51448">
        <ele>966.4</ele>
        <time>2025-07-22T18:00:37Z</time>
      </trkpt>
      <trkpt lat="43.07061" lon="-0.51476">
        <ele>964.6</ele>
        <time>2025-07-22T18:00:39Z</time>
      </trkpt>
      <trkpt lat="43.07061" lon="-0.51491">
        <ele>962.6</ele>
        <time>2025-07-22T18:00:40Z</time>
      </trkpt>
      <trkpt lat="43.07062" lon="-0.51506">
        <ele>961.6</ele>
        <time>2025-07-22T18:00:41Z</time>
      </trkpt>
      <trkpt lat="43.07062" lon="-0.51521">
        <ele>960.2</ele>
        <time>2025-07-22T18:00:42Z</time>
      </trkpt>
      <trkpt lat="43.0706" lon="-0.51536">
        <ele>959</ele>
        <time>2025-07-22T18:00:43Z</time>
      </trkpt>
      <trkpt lat="43.07058" lon="-0.5155">
        <ele>957.2</ele>
        <time>2025-07-22T18:00:44Z</time>
      </trkpt>
      <trkpt lat="43.07052" lon="-0.51577">
        <ele>955</ele>
        <time>2025-07-22T18:00:46Z</time>
      </trkpt>
      <trkpt lat="43.0705" lon="-0.5159">
        <ele>953.2</ele>
        <time>2025-07-22T18:00:47Z</time>
      </trkpt>
      <trkpt lat="43.0705" lon="-0.51605">
        <ele>952.4</ele>
        <time>2025-07-22T18:00:48Z</time>
      </trkpt>
      <trkpt lat="43.0705" lon="-0.5162">
        <ele>950.4</ele>
        <time>2025-07-22T18:00:49Z</time>
      </trkpt>
      <trkpt lat="43.07052" lon="-0.51634">
        <ele>949.6</ele>
        <time>2025-07-22T18:00:50Z</time>
      </trkpt>
      <trkpt lat="43.07054" lon="-0.51648">
        <ele>948</ele>
        <time>2025-07-22T18:00:51Z</time>
      </trkpt>
      <trkpt lat="43.07054" lon="-0.51661">
        <ele>947.2</ele>
        <time>2025-07-22T18:00:52Z</time>
      </trkpt>
      <trkpt lat="43.07055" lon="-0.51676">
        <ele>945.2</ele>
        <time>2025-07-22T18:00:53Z</time>
      </trkpt>
      <trkpt lat="43.07054" lon="-0.51692">
        <ele>943.8</ele>
        <time>2025-07-22T18:00:54Z</time>
      </trkpt>
      <trkpt lat="43.07052" lon="-0.51724">
        <ele>940.8</ele>
        <time>2025-07-22T18:00:56Z</time>
      </trkpt>
      <trkpt lat="43.07048" lon="-0.51755">
        <ele>938.4</ele>
        <time>2025-07-22T18:00:58Z</time>
      </trkpt>
      <trkpt lat="43.07046" lon="-0.51771">
        <ele>936.8</ele>
        <time>2025-07-22T18:00:59Z</time>
      </trkpt>
      <trkpt lat="43.07043" lon="-0.51787">
        <ele>936.2</ele>
        <time>2025-07-22T18:01:00Z</time>
      </trkpt>
      <trkpt lat="43.0704" lon="-0.51801">
        <ele>934.6</ele>
        <time>2025-07-22T18:01:01Z</time>
      </trkpt>
      <trkpt lat="43.07034" lon="-0.51827">
        <ele>931.4</ele>
        <time>2025-07-22T18:01:03Z</time>
      </trkpt>
      <trkpt lat="43.07028" lon="-0.51839">
        <ele>930.6</ele>
        <time>2025-07-22T18:01:04Z</time>
      </trkpt>
      <trkpt lat="43.07023" lon="-0.51851">
        <ele>928.4</ele>
        <time>2025-07-22T18:01:05Z</time>
      </trkpt>
      <trkpt lat="43.0702" lon="-0.51862">
        <ele>926.4</ele>
        <time>2025-07-22T18:01:06Z</time>
      </trkpt>
      <trkpt lat="43.07015" lon="-0.51885">
        <ele>924</ele>
        <time>2025-07-22T18:01:08Z</time>
      </trkpt>
      <trkpt lat="43.07008" lon="-0.51909">
        <ele>921.4</ele>
        <time>2025-07-22T18:01:10Z</time>
      </trkpt>
      <trkpt lat="43.07005" lon="-0.51921">
        <ele>920.4</ele>
        <time>2025-07-22T18:01:11Z</time>
      </trkpt>
      <trkpt lat="43.07003" lon="-0.51935">
        <ele>918.6</ele>
        <time>2025-07-22T18:01:12Z</time>
      </trkpt>
      <trkpt lat="43.07002" lon="-0.51948">
        <ele>917.2</ele>
        <time>2025-07-22T18:01:13Z</time>
      </trkpt>
      <trkpt lat="43.07003" lon="-0.51977">
        <ele>915.2</ele>
        <time>2025-07-22T18:01:15Z</time>
      </trkpt>
      <trkpt lat="43.07008" lon="-0.52004">
        <ele>913.4</ele>
        <time>2025-07-22T18:01:17Z</time>
      </trkpt>
      <trkpt lat="43.07011" lon="-0.52017">
        <ele>912.2</ele>
        <time>2025-07-22T18:01:18Z</time>
      </trkpt>
      <trkpt lat="43.07012" lon="-0.5203">
        <ele>911.6</ele>
        <time>2025-07-22T18:01:19Z</time>
      </trkpt>
      <trkpt lat="43.07012" lon="-0.52045">
        <ele>910</ele>
        <time>2025-07-22T18:01:20Z</time>
      </trkpt>
      <trkpt lat="43.07011" lon="-0.5206">
        <ele>909</ele>
        <time>2025-07-22T18:01:21Z</time>
      </trkpt>
      <trkpt lat="43.0701" lon="-0.52076">
        <ele>907</ele>
        <time>2025-07-22T18:01:22Z</time>
      </trkpt>
      <trkpt lat="43.07009" lon="-0.52091">
        <ele>906</ele>
        <time>2025-07-22T18:01:23Z</time>
      </trkpt>
      <trkpt lat="43.07007" lon="-0.52105">
        <ele>904.2</ele>
        <time>2025-07-22T18:01:24Z</time>
      </trkpt>
      <trkpt lat="43.07006" lon="-0.52119">
        <ele>902.6</ele>
        <time>2025-07-22T18:01:25Z</time>
      </trkpt>
      <trkpt lat="43.07004" lon="-0.52132">
        <ele>901.4</ele>
        <time>2025-07-22T18:01:26Z</time>
      </trkpt>
      <trkpt lat="43.07002" lon="-0.52144">
        <ele>899.2</ele>
        <time>2025-07-22T18:01:27Z</time>
      </trkpt>
      <trkpt lat="43.07" lon="-0.52156">
        <ele>898.4</ele>
        <time>2025-07-22T18:01:28Z</time>
      </trkpt>
      <trkpt lat="43.07" lon="-0.52166">
        <ele>896.8</ele>
        <time>2025-07-22T18:01:29Z</time>
      </trkpt>
      <trkpt lat="43.07002" lon="-0.52178">
        <ele>895.2</ele>
        <time>2025-07-22T18:01:30Z</time>
      </trkpt>
      <trkpt lat="43.07006" lon="-0.52205">
        <ele>892.8</ele>
        <time>2025-07-22T18:01:32Z</time>
      </trkpt>
      <trkpt lat="43.07009" lon="-0.52233">
        <ele>890.8</ele>
        <time>2025-07-22T18:01:34Z</time>
      </trkpt>
      <trkpt lat="43.07013" lon="-0.52258">
        <ele>888.4</ele>
        <time>2025-07-22T18:01:36Z</time>
      </trkpt>
      <trkpt lat="43.07016" lon="-0.52272">
        <ele>887.2</ele>
        <time>2025-07-22T18:01:37Z</time>
      </trkpt>
      <trkpt lat="43.07021" lon="-0.52301">
        <ele>884.8</ele>
        <time>2025-07-22T18:01:39Z</time>
      </trkpt>
      <trkpt lat="43.07026" lon="-0.5233">
        <ele>882.4</ele>
        <time>2025-07-22T18:01:41Z</time>
      </trkpt>
      <trkpt lat="43.07035" lon="-0.52357">
        <ele>880.2</ele>
        <time>2025-07-22T18:01:43Z</time>
      </trkpt>
      <trkpt lat="43.0704" lon="-0.52371">
        <ele>878.4</ele>
        <time>2025-07-22T18:01:44Z</time>
      </trkpt>
      <trkpt lat="43.07045" lon="-0.52385">
        <ele>877.2</ele>
        <time>2025-07-22T18:01:45Z</time>
      </trkpt>
      <trkpt lat="43.0705" lon="-0.524">
        <ele>875.8</ele>
        <time>2025-07-22T18:01:46Z</time>
      </trkpt>
      <trkpt lat="43.07059" lon="-0.52431">
        <ele>873.4</ele>
        <time>2025-07-22T18:01:48Z</time>
      </trkpt>
      <trkpt lat="43.07064" lon="-0.52446">
        <ele>871.4</ele>
        <time>2025-07-22T18:01:49Z</time>
      </trkpt>
      <trkpt lat="43.07073" lon="-0.5248">
        <ele>868.8</ele>
        <time>2025-07-22T18:01:51Z</time>
      </trkpt>
      <trkpt lat="43.07082" lon="-0.52507">
        <ele>866.2</ele>
        <time>2025-07-22T18:01:53Z</time>
      </trkpt>
      <trkpt lat="43.07087" lon="-0.52525">
        <ele>865</ele>
        <time>2025-07-22T18:01:54Z</time>
      </trkpt>
      <trkpt lat="43.07092" lon="-0.52541">
        <ele>863.2</ele>
        <time>2025-07-22T18:01:55Z</time>
      </trkpt>
      <trkpt lat="43.07095" lon="-0.52553">
        <ele>861.4</ele>
        <time>2025-07-22T18:01:56Z</time>
      </trkpt>
      <trkpt lat="43.07105" lon="-0.52583">
        <ele>858</ele>
        <time>2025-07-22T18:01:58Z</time>
      </trkpt>
      <trkpt lat="43.07111" lon="-0.52597">
        <ele>857</ele>
        <time>2025-07-22T18:01:59Z</time>
      </trkpt>
      <trkpt lat="43.07117" lon="-0.52612">
        <ele>855.4</ele>
        <time>2025-07-22T18:02:00Z</time>
      </trkpt>
      <trkpt lat="43.07122" lon="-0.52626">
        <ele>853.6</ele>
        <time>2025-07-22T18:02:01Z</time>
      </trkpt>
      <trkpt lat="43.07129" lon="-0.52657">
        <ele>850.8</ele>
        <time>2025-07-22T18:02:03Z</time>
      </trkpt>
      <trkpt lat="43.07132" lon="-0.52672">
        <ele>849.8</ele>
        <time>2025-07-22T18:02:04Z</time>
      </trkpt>
      <trkpt lat="43.07135" lon="-0.52686">
        <ele>847.6</ele>
        <time>2025-07-22T18:02:05Z</time>
      </trkpt>
      <trkpt lat="43.07142" lon="-0.52713">
        <ele>845.2</ele>
        <time>2025-07-22T18:02:07Z</time>
      </trkpt>
      <trkpt lat="43.07145" lon="-0.52725">
        <ele>843</ele>
        <time>2025-07-22T18:02:08Z</time>
      </trkpt>
      <trkpt lat="43.07148" lon="-0.52739">
        <ele>842</ele>
        <time>2025-07-22T18:02:09Z</time>
      </trkpt>
      <trkpt lat="43.0715" lon="-0.52752">
        <ele>840.2</ele>
        <time>2025-07-22T18:02:10Z</time>
      </trkpt>
      <trkpt lat="43.07153" lon="-0.52778">
        <ele>836.8</ele>
        <time>2025-07-22T18:02:12Z</time>
      </trkpt>
      <trkpt lat="43.07157" lon="-0.52789">
        <ele>835.2</ele>
        <time>2025-07-22T18:02:13Z</time>
      </trkpt>
      <trkpt lat="43.07161" lon="-0.52797">
        <ele>834.4</ele>
        <time>2025-07-22T18:02:14Z</time>
      </trkpt>
      <trkpt lat="43.07167" lon="-0.52806">
        <ele>832.8</ele>
        <time>2025-07-22T18:02:15Z</time>
      </trkpt>
      <trkpt lat="43.07176" lon="-0.52807">
        <ele>832.2</ele>
        <time>2025-07-22T18:02:16Z</time>
      </trkpt>
      <trkpt lat="43.07184" lon="-0.52808">
        <ele>830.6</ele>
        <time>2025-07-22T18:02:17Z</time>
      </trkpt>
      <trkpt lat="43.07203" lon="-0.52813">
        <ele>828.4</ele>
        <time>2025-07-22T18:02:19Z</time>
      </trkpt>
      <trkpt lat="43.07212" lon="-0.52819">
        <ele>826.8</ele>
        <time>2025-07-22T18:02:20Z</time>
      </trkpt>
      <trkpt lat="43.07221" lon="-0.52827">
        <ele>826</ele>
        <time>2025-07-22T18:02:21Z</time>
      </trkpt>
      <trkpt lat="43.07228" lon="-0.52837">
        <ele>824.6</ele>
        <time>2025-07-22T18:02:22Z</time>
      </trkpt>
      <trkpt lat="43.07234" lon="-0.52849">
        <ele>823.8</ele>
        <time>2025-07-22T18:02:23Z</time>
      </trkpt>
      <trkpt lat="43.07238" lon="-0.52862">
        <ele>822.6</ele>
        <time>2025-07-22T18:02:24Z</time>
      </trkpt>
      <trkpt lat="43.07242" lon="-0.52876">
        <ele>821.6</ele>
        <time>2025-07-22T18:02:25Z</time>
      </trkpt>
      <trkpt lat="43.07245" lon="-0.52893">
        <ele>819.6</ele>
        <time>2025-07-22T18:02:26Z</time>
      </trkpt>
      <trkpt lat="43.07248" lon="-0.52904">
        <ele>817.6</ele>
        <time>2025-07-22T18:02:27Z</time>
      </trkpt>
      <trkpt lat="43.07261" lon="-0.52929">
        <ele>815.4</ele>
        <time>2025-07-22T18:02:29Z</time>
      </trkpt>
      <trkpt lat="43.07276" lon="-0.52951">
        <ele>812.8</ele>
        <time>2025-07-22T18:02:31Z</time>
      </trkpt>
      <trkpt lat="43.07282" lon="-0.52961">
        <ele>810.4</ele>
        <time>2025-07-22T18:02:32Z</time>
      </trkpt>
      <trkpt lat="43.0729" lon="-0.52971">
        <ele>809.8</ele>
        <time>2025-07-22T18:02:33Z</time>
      </trkpt>
      <trkpt lat="43.07298" lon="-0.5298">
        <ele>807.6</ele>
        <time>2025-07-22T18:02:34Z</time>
      </trkpt>
      <trkpt lat="43.07306" lon="-0.52988">
        <ele>807</ele>
        <time>2025-07-22T18:02:35Z</time>
      </trkpt>
      <trkpt lat="43.07315" lon="-0.52996">
        <ele>805</ele>
        <time>2025-07-22T18:02:36Z</time>
      </trkpt>
      <trkpt lat="43.07331" lon="-0.53009">
        <ele>802.2</ele>
        <time>2025-07-22T18:02:38Z</time>
      </trkpt>
      <trkpt lat="43.07337" lon="-0.53017">
        <ele>800.2</ele>
        <time>2025-07-22T18:02:39Z</time>
      </trkpt>
      <trkpt lat="43.07344" lon="-0.5303">
        <ele>799.4</ele>
        <time>2025-07-22T18:02:40Z</time>
      </trkpt>
      <trkpt lat="43.07346" lon="-0.5304">
        <ele>797.8</ele>
        <time>2025-07-22T18:02:41Z</time>
      </trkpt>
      <trkpt lat="43.07349" lon="-0.53056">
        <ele>797</ele>
        <time>2025-07-22T18:02:42Z</time>
      </trkpt>
      <trkpt lat="43.0735" lon="-0.53068">
        <ele>795.6</ele>
        <time>2025-07-22T18:02:43Z</time>
      </trkpt>
      <trkpt lat="43.07351" lon="-0.53082">
        <ele>794.4</ele>
        <time>2025-07-22T18:02:44Z</time>
      </trkpt>
      <trkpt lat="43.07351" lon="-0.53112">
        <ele>792.4</ele>
        <time>2025-07-22T18:02:46Z</time>
      </trkpt>
      <trkpt lat="43.07349" lon="-0.53126">
        <ele>791.6</ele>
        <time>2025-07-22T18:02:47Z</time>
      </trkpt>
      <trkpt lat="43.07347" lon="-0.53141">
        <ele>790.2</ele>
        <time>2025-07-22T18:02:48Z</time>
      </trkpt>
      <trkpt lat="43.07343" lon="-0.53155">
        <ele>789.2</ele>
        <time>2025-07-22T18:02:49Z</time>
      </trkpt>
      <trkpt lat="43.07338" lon="-0.53168">
        <ele>787.4</ele>
        <time>2025-07-22T18:02:50Z</time>
      </trkpt>
      <trkpt lat="43.07332" lon="-0.5318">
        <ele>786</ele>
        <time>2025-07-22T18:02:51Z</time>
      </trkpt>
      <trkpt lat="43.07317" lon="-0.53204">
        <ele>784</ele>
        <time>2025-07-22T18:02:53Z</time>
      </trkpt>
      <trkpt lat="43.07303" lon="-0.53227">
        <ele>781.6</ele>
        <time>2025-07-22T18:02:55Z</time>
      </trkpt>
      <trkpt lat="43.07297" lon="-0.5324">
        <ele>779.4</ele>
        <time>2025-07-22T18:02:56Z</time>
      </trkpt>
      <trkpt lat="43.07293" lon="-0.53253">
        <ele>778.8</ele>
        <time>2025-07-22T18:02:57Z</time>
      </trkpt>
      <trkpt lat="43.07289" lon="-0.53267">
        <ele>777</ele>
        <time>2025-07-22T18:02:58Z</time>
      </trkpt>
      <trkpt lat="43.07286" lon="-0.53282">
        <ele>776.6</ele>
        <time>2025-07-22T18:02:59Z</time>
      </trkpt>
      <trkpt lat="43.07284" lon="-0.53296">
        <ele>774</ele>
        <time>2025-07-22T18:03:00Z</time>
      </trkpt>
      <trkpt lat="43.07285" lon="-0.5331">
        <ele>773</ele>
        <time>2025-07-22T18:03:01Z</time>
      </trkpt>
      <trkpt lat="43.07286" lon="-0.53324">
        <ele>771.4</ele>
        <time>2025-07-22T18:03:02Z</time>
      </trkpt>
      <trkpt lat="43.07288" lon="-0.53341">
        <ele>769.6</ele>
        <time>2025-07-22T18:03:03Z</time>
      </trkpt>
      <trkpt lat="43.07292" lon="-0.53368">
        <ele>767.6</ele>
        <time>2025-07-22T18:03:05Z</time>
      </trkpt>
      <trkpt lat="43.07294" lon="-0.53382">
        <ele>766.6</ele>
        <time>2025-07-22T18:03:06Z</time>
      </trkpt>
      <trkpt lat="43.07298" lon="-0.53396">
        <ele>765</ele>
        <time>2025-07-22T18:03:07Z</time>
      </trkpt>
      <trkpt lat="43.07302" lon="-0.53409">
        <ele>763.8</ele>
        <time>2025-07-22T18:03:08Z</time>
      </trkpt>
      <trkpt lat="43.07308" lon="-0.53422">
        <ele>762</ele>
        <time>2025-07-22T18:03:09Z</time>
      </trkpt>
      <trkpt lat="43.07314" lon="-0.53435">
        <ele>759.6</ele>
        <time>2025-07-22T18:03:10Z</time>
      </trkpt>
      <trkpt lat="43.07325" lon="-0.53462">
        <ele>757.2</ele>
        <time>2025-07-22T18:03:12Z</time>
      </trkpt>
      <trkpt lat="43.07329" lon="-0.53477">
        <ele>756.2</ele>
        <time>2025-07-22T18:03:13Z</time>
      </trkpt>
      <trkpt lat="43.07333" lon="-0.53491">
        <ele>754.4</ele>
        <time>2025-07-22T18:03:14Z</time>
      </trkpt>
      <trkpt lat="43.07335" lon="-0.53506">
        <ele>753.2</ele>
        <time>2025-07-22T18:03:15Z</time>
      </trkpt>
      <trkpt lat="43.07336" lon="-0.53521">
        <ele>751.8</ele>
        <time>2025-07-22T18:03:16Z</time>
      </trkpt>
      <trkpt lat="43.07337" lon="-0.53537">
        <ele>750</ele>
        <time>2025-07-22T18:03:17Z</time>
      </trkpt>
      <trkpt lat="43.0734" lon="-0.53568">
        <ele>748</ele>
        <time>2025-07-22T18:03:19Z</time>
      </trkpt>
      <trkpt lat="43.07342" lon="-0.53598">
        <ele>746</ele>
        <time>2025-07-22T18:03:21Z</time>
      </trkpt>
      <trkpt lat="43.07342" lon="-0.53613">
        <ele>744.4</ele>
        <time>2025-07-22T18:03:22Z</time>
      </trkpt>
      <trkpt lat="43.07341" lon="-0.53628">
        <ele>743</ele>
        <time>2025-07-22T18:03:23Z</time>
      </trkpt>
      <trkpt lat="43.07339" lon="-0.53643">
        <ele>741.4</ele>
        <time>2025-07-22T18:03:24Z</time>
      </trkpt>
      <trkpt lat="43.07334" lon="-0.53672">
        <ele>738.4</ele>
        <time>2025-07-22T18:03:26Z</time>
      </trkpt>
      <trkpt lat="43.07331" lon="-0.53687">
        <ele>736.6</ele>
        <time>2025-07-22T18:03:27Z</time>
      </trkpt>
      <trkpt lat="43.07329" lon="-0.53701">
        <ele>735.6</ele>
        <time>2025-07-22T18:03:28Z</time>
      </trkpt>
      <trkpt lat="43.07326" lon="-0.53716">
        <ele>733.6</ele>
        <time>2025-07-22T18:03:29Z</time>
      </trkpt>
      <trkpt lat="43.07323" lon="-0.53746">
        <ele>731.4</ele>
        <time>2025-07-22T18:03:31Z</time>
      </trkpt>
      <trkpt lat="43.07323" lon="-0.53761">
        <ele>730.4</ele>
        <time>2025-07-22T18:03:32Z</time>
      </trkpt>
      <trkpt lat="43.07324" lon="-0.53776">
        <ele>728.6</ele>
        <time>2025-07-22T18:03:33Z</time>
      </trkpt>
      <trkpt lat="43.07325" lon="-0.53791">
        <ele>726.8</ele>
        <time>2025-07-22T18:03:34Z</time>
      </trkpt>
      <trkpt lat="43.07329" lon="-0.5382">
        <ele>724.4</ele>
        <time>2025-07-22T18:03:36Z</time>
      </trkpt>
      <trkpt lat="43.07331" lon="-0.53835">
        <ele>723.2</ele>
        <time>2025-07-22T18:03:37Z</time>
      </trkpt>
      <trkpt lat="43.07333" lon="-0.5385">
        <ele>721.4</ele>
        <time>2025-07-22T18:03:38Z</time>
      </trkpt>
      <trkpt lat="43.07339" lon="-0.5388">
        <ele>719.4</ele>
        <time>2025-07-22T18:03:40Z</time>
      </trkpt>
      <trkpt lat="43.07342" lon="-0.53894">
        <ele>717.8</ele>
        <time>2025-07-22T18:03:41Z</time>
      </trkpt>
      <trkpt lat="43.07346" lon="-0.53909">
        <ele>717</ele>
        <time>2025-07-22T18:03:42Z</time>
      </trkpt>
      <trkpt lat="43.07351" lon="-0.53923">
        <ele>715.4</ele>
        <time>2025-07-22T18:03:43Z</time>
      </trkpt>
      <trkpt lat="43.07364" lon="-0.53951">
        <ele>712.8</ele>
        <time>2025-07-22T18:03:45Z</time>
      </trkpt>
      <trkpt lat="43.07371" lon="-0.53965">
        <ele>710.8</ele>
        <time>2025-07-22T18:03:46Z</time>
      </trkpt>
      <trkpt lat="43.07386" lon="-0.53991">
        <ele>707.8</ele>
        <time>2025-07-22T18:03:48Z</time>
      </trkpt>
      <trkpt lat="43.07401" lon="-0.54017">
        <ele>705</ele>
        <time>2025-07-22T18:03:50Z</time>
      </trkpt>
      <trkpt lat="43.07416" lon="-0.54045">
        <ele>702</ele>
        <time>2025-07-22T18:03:52Z</time>
      </trkpt>
      <trkpt lat="43.07424" lon="-0.54059">
        <ele>700.4</ele>
        <time>2025-07-22T18:03:53Z</time>
      </trkpt>
      <trkpt lat="43.07431" lon="-0.54073">
        <ele>699.6</ele>
        <time>2025-07-22T18:03:54Z</time>
      </trkpt>
      <trkpt lat="43.07437" lon="-0.54088">
        <ele>697.6</ele>
        <time>2025-07-22T18:03:55Z</time>
      </trkpt>
      <trkpt lat="43.07448" lon="-0.54117">
        <ele>695.2</ele>
        <time>2025-07-22T18:03:57Z</time>
      </trkpt>
      <trkpt lat="43.07452" lon="-0.54132">
        <ele>694.6</ele>
        <time>2025-07-22T18:03:58Z</time>
      </trkpt>
      <trkpt lat="43.07456" lon="-0.54147">
        <ele>693</ele>
        <time>2025-07-22T18:03:59Z</time>
      </trkpt>
      <trkpt lat="43.0746" lon="-0.54162">
        <ele>691.4</ele>
        <time>2025-07-22T18:04:00Z</time>
      </trkpt>
      <trkpt lat="43.07462" lon="-0.54177">
        <ele>690.4</ele>
        <time>2025-07-22T18:04:01Z</time>
      </trkpt>
      <trkpt lat="43.07464" lon="-0.54193">
        <ele>688.8</ele>
        <time>2025-07-22T18:04:02Z</time>
      </trkpt>
      <trkpt lat="43.07463" lon="-0.5421">
        <ele>687.6</ele>
        <time>2025-07-22T18:04:03Z</time>
      </trkpt>
      <trkpt lat="43.07462" lon="-0.54226">
        <ele>685.6</ele>
        <time>2025-07-22T18:04:04Z</time>
      </trkpt>
      <trkpt lat="43.0746" lon="-0.54242">
        <ele>683.6</ele>
        <time>2025-07-22T18:04:05Z</time>
      </trkpt>
      <trkpt lat="43.07458" lon="-0.54257">
        <ele>682.2</ele>
        <time>2025-07-22T18:04:06Z</time>
      </trkpt>
      <trkpt lat="43.07456" lon="-0.54273">
        <ele>680.4</ele>
        <time>2025-07-22T18:04:07Z</time>
      </trkpt>
      <trkpt lat="43.07455" lon="-0.54288">
        <ele>679.4</ele>
        <time>2025-07-22T18:04:08Z</time>
      </trkpt>
      <trkpt lat="43.07455" lon="-0.54303">
        <ele>677</ele>
        <time>2025-07-22T18:04:09Z</time>
      </trkpt>
      <trkpt lat="43.07457" lon="-0.54319">
        <ele>676</ele>
        <time>2025-07-22T18:04:10Z</time>
      </trkpt>
      <trkpt lat="43.0746" lon="-0.54334">
        <ele>674</ele>
        <time>2025-07-22T18:04:11Z</time>
      </trkpt>
      <trkpt lat="43.07465" lon="-0.54348">
        <ele>672.6</ele>
        <time>2025-07-22T18:04:12Z</time>
      </trkpt>
      <trkpt lat="43.07474" lon="-0.54376">
        <ele>669.6</ele>
        <time>2025-07-22T18:04:14Z</time>
      </trkpt>
      <trkpt lat="43.07477" lon="-0.54394">
        <ele>669</ele>
        <time>2025-07-22T18:04:15Z</time>
      </trkpt>
      <trkpt lat="43.07478" lon="-0.54409">
        <ele>667.2</ele>
        <time>2025-07-22T18:04:16Z</time>
      </trkpt>
      <trkpt lat="43.07477" lon="-0.54425">
        <ele>665.8</ele>
        <time>2025-07-22T18:04:17Z</time>
      </trkpt>
      <trkpt lat="43.07471" lon="-0.54453">
        <ele>663.2</ele>
        <time>2025-07-22T18:04:19Z</time>
      </trkpt>
      <trkpt lat="43.07464" lon="-0.54483">
        <ele>661</ele>
        <time>2025-07-22T18:04:21Z</time>
      </trkpt>
      <trkpt lat="43.07462" lon="-0.54501">
        <ele>660.2</ele>
        <time>2025-07-22T18:04:22Z</time>
      </trkpt>
      <trkpt lat="43.07462" lon="-0.54514">
        <ele>658.4</ele>
        <time>2025-07-22T18:04:23Z</time>
      </trkpt>
      <trkpt lat="43.07462" lon="-0.54529">
        <ele>656.2</ele>
        <time>2025-07-22T18:04:24Z</time>
      </trkpt>
      <trkpt lat="43.07468" lon="-0.5456">
        <ele>653.4</ele>
        <time>2025-07-22T18:04:26Z</time>
      </trkpt>
      <trkpt lat="43.07472" lon="-0.54574">
        <ele>652.2</ele>
        <time>2025-07-22T18:04:27Z</time>
      </trkpt>
      <trkpt lat="43.07476" lon="-0.54587">
        <ele>650.2</ele>
        <time>2025-07-22T18:04:28Z</time>
      </trkpt>
      <trkpt lat="43.07483" lon="-0.54609">
        <ele>647.4</ele>
        <time>2025-07-22T18:04:30Z</time>
      </trkpt>
      <trkpt lat="43.07485" lon="-0.54619">
        <ele>645.4</ele>
        <time>2025-07-22T18:04:31Z</time>
      </trkpt>
      <trkpt lat="43.0749" lon="-0.5464">
        <ele>643</ele>
        <time>2025-07-22T18:04:33Z</time>
      </trkpt>
      <trkpt lat="43.07491" lon="-0.54652">
        <ele>642</ele>
        <time>2025-07-22T18:04:34Z</time>
      </trkpt>
      <trkpt lat="43.07492" lon="-0.54663">
        <ele>640.6</ele>
        <time>2025-07-22T18:04:35Z</time>
      </trkpt>
      <trkpt lat="43.07494" lon="-0.54674">
        <ele>639</ele>
        <time>2025-07-22T18:04:36Z</time>
      </trkpt>
      <trkpt lat="43.07495" lon="-0.54698">
        <ele>637</ele>
        <time>2025-07-22T18:04:38Z</time>
      </trkpt>
      <trkpt lat="43.07497" lon="-0.54725">
        <ele>635</ele>
        <time>2025-07-22T18:04:40Z</time>
      </trkpt>
      <trkpt lat="43.075" lon="-0.54751">
        <ele>632.6</ele>
        <time>2025-07-22T18:04:42Z</time>
      </trkpt>
      <trkpt lat="43.07502" lon="-0.54768">
        <ele>631.4</ele>
        <time>2025-07-22T18:04:43Z</time>
      </trkpt>
      <trkpt lat="43.07504" lon="-0.54793">
        <ele>629.6</ele>
        <time>2025-07-22T18:04:45Z</time>
      </trkpt>
      <trkpt lat="43.07507" lon="-0.5482">
        <ele>627</ele>
        <time>2025-07-22T18:04:47Z</time>
      </trkpt>
      <trkpt lat="43.07509" lon="-0.54848">
        <ele>625.2</ele>
        <time>2025-07-22T18:04:49Z</time>
      </trkpt>
      <trkpt lat="43.0751" lon="-0.54861">
        <ele>623.2</ele>
        <time>2025-07-22T18:04:50Z</time>
      </trkpt>
      <trkpt lat="43.07513" lon="-0.54889">
        <ele>621</ele>
        <time>2025-07-22T18:04:52Z</time>
      </trkpt>
      <trkpt lat="43.07517" lon="-0.54917">
        <ele>618.8</ele>
        <time>2025-07-22T18:04:54Z</time>
      </trkpt>
      <trkpt lat="43.07519" lon="-0.54927">
        <ele>617</ele>
        <time>2025-07-22T18:04:55Z</time>
      </trkpt>
      <trkpt lat="43.0752" lon="-0.5494">
        <ele>616.4</ele>
        <time>2025-07-22T18:04:56Z</time>
      </trkpt>
      <trkpt lat="43.07522" lon="-0.54952">
        <ele>614.8</ele>
        <time>2025-07-22T18:04:57Z</time>
      </trkpt>
      <trkpt lat="43.07525" lon="-0.54981">
        <ele>612.6</ele>
        <time>2025-07-22T18:04:59Z</time>
      </trkpt>
      <trkpt lat="43.07529" lon="-0.55004">
        <ele>610.4</ele>
        <time>2025-07-22T18:05:01Z</time>
      </trkpt>
      <trkpt lat="43.0753" lon="-0.55017">
        <ele>609.2</ele>
        <time>2025-07-22T18:05:02Z</time>
      </trkpt>
      <trkpt lat="43.07534" lon="-0.55043">
        <ele>607.4</ele>
        <time>2025-07-22T18:05:04Z</time>
      </trkpt>
      <trkpt lat="43.07538" lon="-0.55069">
        <ele>605.2</ele>
        <time>2025-07-22T18:05:06Z</time>
      </trkpt>
      <trkpt lat="43.07541" lon="-0.55094">
        <ele>602.8</ele>
        <time>2025-07-22T18:05:08Z</time>
      </trkpt>
      <trkpt lat="43.07541" lon="-0.55106">
        <ele>601.8</ele>
        <time>2025-07-22T18:05:09Z</time>
      </trkpt>
      <trkpt lat="43.07539" lon="-0.55132">
        <ele>600.2</ele>
        <time>2025-07-22T18:05:11Z</time>
      </trkpt>
      <trkpt lat="43.07537" lon="-0.55144">
        <ele>599.8</ele>
        <time>2025-07-22T18:05:12Z</time>
      </trkpt>
      <trkpt lat="43.07535" lon="-0.55157">
        <ele>598.6</ele>
        <time>2025-07-22T18:05:13Z</time>
      </trkpt>
      <trkpt lat="43.07532" lon="-0.55182">
        <ele>597.2</ele>
        <time>2025-07-22T18:05:15Z</time>
      </trkpt>
      <trkpt lat="43.07532" lon="-0.55195">
        <ele>596.2</ele>
        <time>2025-07-22T18:05:16Z</time>
      </trkpt>
      <trkpt lat="43.07532" lon="-0.55208">
        <ele>595.8</ele>
        <time>2025-07-22T18:05:17Z</time>
      </trkpt>
      <trkpt lat="43.07534" lon="-0.55221">
        <ele>594.4</ele>
        <time>2025-07-22T18:05:18Z</time>
      </trkpt>
      <trkpt lat="43.07539" lon="-0.55247">
        <ele>593</ele>
        <time>2025-07-22T18:05:20Z</time>
      </trkpt>
      <trkpt lat="43.07543" lon="-0.5526">
        <ele>592.4</ele>
        <time>2025-07-22T18:05:21Z</time>
      </trkpt>
      <trkpt lat="43.07551" lon="-0.55285">
        <ele>591.2</ele>
        <time>2025-07-22T18:05:23Z</time>
      </trkpt>
      <trkpt lat="43.07556" lon="-0.55297">
        <ele>591</ele>
        <time>2025-07-22T18:05:24Z</time>
      </trkpt>
      <trkpt lat="43.07562" lon="-0.55308">
        <ele>589.8</ele>
        <time>2025-07-22T18:05:25Z</time>
      </trkpt>
      <trkpt lat="43.07571" lon="-0.5532">
        <ele>589.6</ele>
        <time>2025-07-22T18:05:26Z</time>
      </trkpt>
      <trkpt lat="43.07584" lon="-0.55337">
        <ele>588.4</ele>
        <time>2025-07-22T18:05:28Z</time>
      </trkpt>
      <trkpt lat="43.076" lon="-0.55357">
        <ele>587.2</ele>
        <time>2025-07-22T18:05:30Z</time>
      </trkpt>
      <trkpt lat="43.07614" lon="-0.55379">
        <ele>585.6</ele>
        <time>2025-07-22T18:05:32Z</time>
      </trkpt>
      <trkpt lat="43.0762" lon="-0.55393">
        <ele>584.6</ele>
        <time>2025-07-22T18:05:33Z</time>
      </trkpt>
      <trkpt lat="43.07626" lon="-0.55407">
        <ele>584</ele>
        <time>2025-07-22T18:05:34Z</time>
      </trkpt>
      <trkpt lat="43.0763" lon="-0.55422">
        <ele>583</ele>
        <time>2025-07-22T18:05:35Z</time>
      </trkpt>
      <trkpt lat="43.07638" lon="-0.55453">
        <ele>582.2</ele>
        <time>2025-07-22T18:05:37Z</time>
      </trkpt>
      <trkpt lat="43.07642" lon="-0.55469">
        <ele>581.6</ele>
        <time>2025-07-22T18:05:38Z</time>
      </trkpt>
      <trkpt lat="43.07646" lon="-0.55484">
        <ele>580.2</ele>
        <time>2025-07-22T18:05:39Z</time>
      </trkpt>
      <trkpt lat="43.0765" lon="-0.55499">
        <ele>579</ele>
        <time>2025-07-22T18:05:40Z</time>
      </trkpt>
      <trkpt lat="43.07657" lon="-0.55531">
        <ele>577.4</ele>
        <time>2025-07-22T18:05:42Z</time>
      </trkpt>
      <trkpt lat="43.07663" lon="-0.55563">
        <ele>575.8</ele>
        <time>2025-07-22T18:05:44Z</time>
      </trkpt>
      <trkpt lat="43.07666" lon="-0.55579">
        <ele>574.4</ele>
        <time>2025-07-22T18:05:45Z</time>
      </trkpt>
      <trkpt lat="43.07672" lon="-0.55613">
        <ele>573</ele>
        <time>2025-07-22T18:05:47Z</time>
      </trkpt>
      <trkpt lat="43.07677" lon="-0.55638">
        <ele>571.2</ele>
        <time>2025-07-22T18:05:49Z</time>
      </trkpt>
      <trkpt lat="43.07683" lon="-0.55666">
        <ele>569.4</ele>
        <time>2025-07-22T18:05:51Z</time>
      </trkpt>
      <trkpt lat="43.07686" lon="-0.5568">
        <ele>568.2</ele>
        <time>2025-07-22T18:05:52Z</time>
      </trkpt>
      <trkpt lat="43.0769" lon="-0.55709">
        <ele>566.4</ele>
        <time>2025-07-22T18:05:54Z</time>
      </trkpt>
      <trkpt lat="43.07693" lon="-0.55738">
        <ele>565</ele>
        <time>2025-07-22T18:05:56Z</time>
      </trkpt>
      <trkpt lat="43.07693" lon="-0.55768">
        <ele>563.6</ele>
        <time>2025-07-22T18:05:58Z</time>
      </trkpt>
      <trkpt lat="43.07694" lon="-0.55782">
        <ele>562.8</ele>
        <time>2025-07-22T18:05:59Z</time>
      </trkpt>
      <trkpt lat="43.07696" lon="-0.55796">
        <ele>562.2</ele>
        <time>2025-07-22T18:06:00Z</time>
      </trkpt>
      <trkpt lat="43.07703" lon="-0.55824">
        <ele>561</ele>
        <time>2025-07-22T18:06:02Z</time>
      </trkpt>
      <trkpt lat="43.07706" lon="-0.55838">
        <ele>559.4</ele>
        <time>2025-07-22T18:06:03Z</time>
      </trkpt>
      <trkpt lat="43.07711" lon="-0.55852">
        <ele>558.2</ele>
        <time>2025-07-22T18:06:04Z</time>
      </trkpt>
      <trkpt lat="43.07715" lon="-0.55866">
        <ele>557.6</ele>
        <time>2025-07-22T18:06:05Z</time>
      </trkpt>
      <trkpt lat="43.07719" lon="-0.5588">
        <ele>556.2</ele>
        <time>2025-07-22T18:06:06Z</time>
      </trkpt>
      <trkpt lat="43.07726" lon="-0.55906">
        <ele>555</ele>
        <time>2025-07-22T18:06:08Z</time>
      </trkpt>
      <trkpt lat="43.07733" lon="-0.55933">
        <ele>553.4</ele>
        <time>2025-07-22T18:06:10Z</time>
      </trkpt>
      <trkpt lat="43.07741" lon="-0.55958">
        <ele>552.2</ele>
        <time>2025-07-22T18:06:12Z</time>
      </trkpt>
      <trkpt lat="43.07747" lon="-0.5597">
        <ele>551.2</ele>
        <time>2025-07-22T18:06:13Z</time>
      </trkpt>
      <trkpt lat="43.07754" lon="-0.55983">
        <ele>550.8</ele>
        <time>2025-07-22T18:06:14Z</time>
      </trkpt>
      <trkpt lat="43.0776" lon="-0.5599">
        <ele>549.8</ele>
        <time>2025-07-22T18:06:15Z</time>
      </trkpt>
      <trkpt lat="43.07767" lon="-0.55999">
        <ele>549.4</ele>
        <time>2025-07-22T18:06:16Z</time>
      </trkpt>
      <trkpt lat="43.07781" lon="-0.56017">
        <ele>547.8</ele>
        <time>2025-07-22T18:06:18Z</time>
      </trkpt>
      <trkpt lat="43.07787" lon="-0.56027">
        <ele>547.6</ele>
        <time>2025-07-22T18:06:19Z</time>
      </trkpt>
      <trkpt lat="43.07793" lon="-0.56038">
        <ele>547.2</ele>
        <time>2025-07-22T18:06:20Z</time>
      </trkpt>
      <trkpt lat="43.07797" lon="-0.56049">
        <ele>546.8</ele>
        <time>2025-07-22T18:06:21Z</time>
      </trkpt>
      <trkpt lat="43.07801" lon="-0.56061">
        <ele>546.2</ele>
        <time>2025-07-22T18:06:22Z</time>
      </trkpt>
      <trkpt lat="43.07805" lon="-0.56077">
        <ele>545.8</ele>
        <time>2025-07-22T18:06:23Z</time>
      </trkpt>
      <trkpt lat="43.07805" lon="-0.56077">
        <ele>545.4</ele>
        <time>2025-07-22T18:06:24Z</time>
      </trkpt>
      <trkpt lat="43.07808" lon="-0.561">
        <ele>544.6</ele>
        <time>2025-07-22T18:06:25Z</time>
      </trkpt>
      <trkpt lat="43.07816" lon="-0.56153">
        <ele>543.2</ele>
        <time>2025-07-22T18:06:29Z</time>
      </trkpt>
      <trkpt lat="43.07817" lon="-0.56167">
        <ele>542.6</ele>
        <time>2025-07-22T18:06:30Z</time>
      </trkpt>
      <trkpt lat="43.0782" lon="-0.56194">
        <ele>541.8</ele>
        <time>2025-07-22T18:06:32Z</time>
      </trkpt>
      <trkpt lat="43.07823" lon="-0.56221">
        <ele>540.8</ele>
        <time>2025-07-22T18:06:34Z</time>
      </trkpt>
      <trkpt lat="43.0783" lon="-0.56263">
        <ele>539.6</ele>
        <time>2025-07-22T18:06:37Z</time>
      </trkpt>
      <trkpt lat="43.07841" lon="-0.56287">
        <ele>538.2</ele>
        <time>2025-07-22T18:06:39Z</time>
      </trkpt>
      <trkpt lat="43.07848" lon="-0.56297">
        <ele>538</ele>
        <time>2025-07-22T18:06:40Z</time>
      </trkpt>
      <trkpt lat="43.07856" lon="-0.56307">
        <ele>537.2</ele>
        <time>2025-07-22T18:06:41Z</time>
      </trkpt>
      <trkpt lat="43.07875" lon="-0.56326">
        <ele>536</ele>
        <time>2025-07-22T18:06:43Z</time>
      </trkpt>
      <trkpt lat="43.07884" lon="-0.56332">
        <ele>535</ele>
        <time>2025-07-22T18:06:44Z</time>
      </trkpt>
      <trkpt lat="43.07893" lon="-0.56336">
        <ele>534.6</ele>
        <time>2025-07-22T18:06:45Z</time>
      </trkpt>
      <trkpt lat="43.07903" lon="-0.56338">
        <ele>533.6</ele>
        <time>2025-07-22T18:06:46Z</time>
      </trkpt>
      <trkpt lat="43.07912" lon="-0.56337">
        <ele>533</ele>
        <time>2025-07-22T18:06:47Z</time>
      </trkpt>
      <trkpt lat="43.07923" lon="-0.56336">
        <ele>532.2</ele>
        <time>2025-07-22T18:06:48Z</time>
      </trkpt>
      <trkpt lat="43.07943" lon="-0.56335">
        <ele>530.8</ele>
        <time>2025-07-22T18:06:50Z</time>
      </trkpt>
      <trkpt lat="43.07952" lon="-0.56337">
        <ele>529.8</ele>
        <time>2025-07-22T18:06:51Z</time>
      </trkpt>
      <trkpt lat="43.0796" lon="-0.5634">
        <ele>529.6</ele>
        <time>2025-07-22T18:06:52Z</time>
      </trkpt>
      <trkpt lat="43.07967" lon="-0.56344">
        <ele>528.8</ele>
        <time>2025-07-22T18:06:53Z</time>
      </trkpt>
      <trkpt lat="43.07978" lon="-0.56354">
        <ele>528</ele>
        <time>2025-07-22T18:06:55Z</time>
      </trkpt>
      <trkpt lat="43.07982" lon="-0.56358">
        <ele>527.2</ele>
        <time>2025-07-22T18:06:56Z</time>
      </trkpt>
      <trkpt lat="43.07987" lon="-0.56362">
        <ele>526.6</ele>
        <time>2025-07-22T18:06:57Z</time>
      </trkpt>
      <trkpt lat="43.07992" lon="-0.56368">
        <ele>526</ele>
        <time>2025-07-22T18:06:58Z</time>
      </trkpt>
      <trkpt lat="43.07995" lon="-0.56375">
        <ele>525.6</ele>
        <time>2025-07-22T18:06:59Z</time>
      </trkpt>
      <trkpt lat="43.07998" lon="-0.56383">
        <ele>524.6</ele>
        <time>2025-07-22T18:07:00Z</time>
      </trkpt>
      <trkpt lat="43.08001" lon="-0.56391">
        <ele>524.2</ele>
        <time>2025-07-22T18:07:01Z</time>
      </trkpt>
      <trkpt lat="43.08004" lon="-0.56407">
        <ele>523.2</ele>
        <time>2025-07-22T18:07:03Z</time>
      </trkpt>
      <trkpt lat="43.08005" lon="-0.56418">
        <ele>523</ele>
        <time>2025-07-22T18:07:04Z</time>
      </trkpt>
      <trkpt lat="43.08011" lon="-0.56455">
        <ele>521.6</ele>
        <time>2025-07-22T18:07:08Z</time>
      </trkpt>
      <trkpt lat="43.0802" lon="-0.56505">
        <ele>520.6</ele>
        <time>2025-07-22T18:07:13Z</time>
      </trkpt>
      <trkpt lat="43.08024" lon="-0.56525">
        <ele>519.6</ele>
        <time>2025-07-22T18:07:15Z</time>
      </trkpt>
      <trkpt lat="43.08026" lon="-0.56534">
        <ele>519.4</ele>
        <time>2025-07-22T18:07:16Z</time>
      </trkpt>
      <trkpt lat="43.08032" lon="-0.56562">
        <ele>518.2</ele>
        <time>2025-07-22T18:07:19Z</time>
      </trkpt>
      <trkpt lat="43.08033" lon="-0.56574">
        <ele>518</ele>
        <time>2025-07-22T18:07:20Z</time>
      </trkpt>
      <trkpt lat="43.08033" lon="-0.56591">
        <ele>517.8</ele>
        <time>2025-07-22T18:07:22Z</time>
      </trkpt>
      <trkpt lat="43.08032" lon="-0.56627">
        <ele>517.2</ele>
        <time>2025-07-22T18:07:26Z</time>
      </trkpt>
      <trkpt lat="43.08031" lon="-0.56636">
        <ele>517.2</ele>
        <time>2025-07-22T18:07:27Z</time>
      </trkpt>
      <trkpt lat="43.08021" lon="-0.56675">
        <ele>516.6</ele>
        <time>2025-07-22T18:07:32Z</time>
      </trkpt>
      <trkpt lat="43.08018" lon="-0.56683">
        <ele>516.4</ele>
        <time>2025-07-22T18:07:33Z</time>
      </trkpt>
      <trkpt lat="43.08013" lon="-0.56709">
        <ele>516.2</ele>
        <time>2025-07-22T18:07:36Z</time>
      </trkpt>
      <trkpt lat="43.08012" lon="-0.56718">
        <ele>516.2</ele>
        <time>2025-07-22T18:07:37Z</time>
      </trkpt>
      <trkpt lat="43.08011" lon="-0.56727">
        <ele>516</ele>
        <time>2025-07-22T18:07:38Z</time>
      </trkpt>
      <trkpt lat="43.08014" lon="-0.56754">
        <ele>515</ele>
        <time>2025-07-22T18:07:41Z</time>
      </trkpt>
      <trkpt lat="43.08019" lon="-0.56782">
        <ele>514.4</ele>
        <time>2025-07-22T18:07:44Z</time>
      </trkpt>
      <trkpt lat="43.08022" lon="-0.56791">
        <ele>514.2</ele>
        <time>2025-07-22T18:07:45Z</time>
      </trkpt>
      <trkpt lat="43.08026" lon="-0.568">
        <ele>513.8</ele>
        <time>2025-07-22T18:07:46Z</time>
      </trkpt>
      <trkpt lat="43.08033" lon="-0.56819">
        <ele>512.8</ele>
        <time>2025-07-22T18:07:48Z</time>
      </trkpt>
      <trkpt lat="43.08043" lon="-0.56849">
        <ele>511.6</ele>
        <time>2025-07-22T18:07:51Z</time>
      </trkpt>
      <trkpt lat="43.08047" lon="-0.56861">
        <ele>510.6</ele>
        <time>2025-07-22T18:07:52Z</time>
      </trkpt>
      <trkpt lat="43.0805" lon="-0.56872">
        <ele>509.8</ele>
        <time>2025-07-22T18:07:53Z</time>
      </trkpt>
      <trkpt lat="43.08055" lon="-0.56897">
        <ele>508.4</ele>
        <time>2025-07-22T18:07:55Z</time>
      </trkpt>
      <trkpt lat="43.08057" lon="-0.5691">
        <ele>508.2</ele>
        <time>2025-07-22T18:07:56Z</time>
      </trkpt>
      <trkpt lat="43.08058" lon="-0.56922">
        <ele>507.2</ele>
        <time>2025-07-22T18:07:57Z</time>
      </trkpt>
      <trkpt lat="43.08059" lon="-0.56935">
        <ele>507</ele>
        <time>2025-07-22T18:07:58Z</time>
      </trkpt>
      <trkpt lat="43.08059" lon="-0.5696">
        <ele>505.6</ele>
        <time>2025-07-22T18:08:00Z</time>
      </trkpt>
      <trkpt lat="43.08056" lon="-0.56986">
        <ele>504.6</ele>
        <time>2025-07-22T18:08:02Z</time>
      </trkpt>
      <trkpt lat="43.08055" lon="-0.57013">
        <ele>503.6</ele>
        <time>2025-07-22T18:08:04Z</time>
      </trkpt>
      <trkpt lat="43.08055" lon="-0.57026">
        <ele>503.2</ele>
        <time>2025-07-22T18:08:05Z</time>
      </trkpt>
      <trkpt lat="43.08059" lon="-0.57052">
        <ele>501.6</ele>
        <time>2025-07-22T18:08:07Z</time>
      </trkpt>
      <trkpt lat="43.08062" lon="-0.57064">
        <ele>501.2</ele>
        <time>2025-07-22T18:08:08Z</time>
      </trkpt>
      <trkpt lat="43.08066" lon="-0.57076">
        <ele>500.6</ele>
        <time>2025-07-22T18:08:09Z</time>
      </trkpt>
      <trkpt lat="43.08071" lon="-0.57086">
        <ele>500.4</ele>
        <time>2025-07-22T18:08:10Z</time>
      </trkpt>
      <trkpt lat="43.08083" lon="-0.57102">
        <ele>499.2</ele>
        <time>2025-07-22T18:08:12Z</time>
      </trkpt>
      <trkpt lat="43.08101" lon="-0.57128">
        <ele>498.2</ele>
        <time>2025-07-22T18:08:15Z</time>
      </trkpt>
      <trkpt lat="43.08105" lon="-0.57137">
        <ele>497.4</ele>
        <time>2025-07-22T18:08:16Z</time>
      </trkpt>
      <trkpt lat="43.08109" lon="-0.57146">
        <ele>497</ele>
        <time>2025-07-22T18:08:17Z</time>
      </trkpt>
      <trkpt lat="43.08113" lon="-0.57156">
        <ele>496.2</ele>
        <time>2025-07-22T18:08:18Z</time>
      </trkpt>
      <trkpt lat="43.08116" lon="-0.57166">
        <ele>495.2</ele>
        <time>2025-07-22T18:08:19Z</time>
      </trkpt>
      <trkpt lat="43.08122" lon="-0.57197">
        <ele>494</ele>
        <time>2025-07-22T18:08:22Z</time>
      </trkpt>
      <trkpt lat="43.08123" lon="-0.57207">
        <ele>493</ele>
        <time>2025-07-22T18:08:23Z</time>
      </trkpt>
      <trkpt lat="43.08125" lon="-0.57215">
        <ele>492.8</ele>
        <time>2025-07-22T18:08:24Z</time>
      </trkpt>
      <trkpt lat="43.08126" lon="-0.57233">
        <ele>491.4</ele>
        <time>2025-07-22T18:08:26Z</time>
      </trkpt>
      <trkpt lat="43.08126" lon="-0.5725">
        <ele>490.4</ele>
        <time>2025-07-22T18:08:28Z</time>
      </trkpt>
      <trkpt lat="43.08125" lon="-0.57299">
        <ele>489.4</ele>
        <time>2025-07-22T18:08:33Z</time>
      </trkpt>
      <trkpt lat="43.08124" lon="-0.57312">
        <ele>489</ele>
        <time>2025-07-22T18:08:34Z</time>
      </trkpt>
      <trkpt lat="43.08117" lon="-0.57334">
        <ele>488.4</ele>
        <time>2025-07-22T18:08:36Z</time>
      </trkpt>
      <trkpt lat="43.08113" lon="-0.57345">
        <ele>487.6</ele>
        <time>2025-07-22T18:08:37Z</time>
      </trkpt>
      <trkpt lat="43.08108" lon="-0.57356">
        <ele>487</ele>
        <time>2025-07-22T18:08:38Z</time>
      </trkpt>
      <trkpt lat="43.08102" lon="-0.57368">
        <ele>486.6</ele>
        <time>2025-07-22T18:08:39Z</time>
      </trkpt>
      <trkpt lat="43.08082" lon="-0.57401">
        <ele>484.6</ele>
        <time>2025-07-22T18:08:42Z</time>
      </trkpt>
      <trkpt lat="43.08077" lon="-0.57413">
        <ele>484.2</ele>
        <time>2025-07-22T18:08:43Z</time>
      </trkpt>
      <trkpt lat="43.08072" lon="-0.57425">
        <ele>483.4</ele>
        <time>2025-07-22T18:08:44Z</time>
      </trkpt>
      <trkpt lat="43.08065" lon="-0.5745">
        <ele>482.2</ele>
        <time>2025-07-22T18:08:46Z</time>
      </trkpt>
      <trkpt lat="43.0806" lon="-0.57475">
        <ele>480.6</ele>
        <time>2025-07-22T18:08:48Z</time>
      </trkpt>
      <trkpt lat="43.08055" lon="-0.57499">
        <ele>479.6</ele>
        <time>2025-07-22T18:08:50Z</time>
      </trkpt>
      <trkpt lat="43.08052" lon="-0.57518">
        <ele>478.2</ele>
        <time>2025-07-22T18:08:52Z</time>
      </trkpt>
      <trkpt lat="43.08051" lon="-0.57531">
        <ele>477.8</ele>
        <time>2025-07-22T18:08:53Z</time>
      </trkpt>
      <trkpt lat="43.08053" lon="-0.5754">
        <ele>477.2</ele>
        <time>2025-07-22T18:08:54Z</time>
      </trkpt>
      <trkpt lat="43.08056" lon="-0.5755">
        <ele>476.8</ele>
        <time>2025-07-22T18:08:55Z</time>
      </trkpt>
      <trkpt lat="43.08065" lon="-0.5757">
        <ele>475.8</ele>
        <time>2025-07-22T18:08:57Z</time>
      </trkpt>
      <trkpt lat="43.08071" lon="-0.57578">
        <ele>475.6</ele>
        <time>2025-07-22T18:08:58Z</time>
      </trkpt>
      <trkpt lat="43.08086" lon="-0.57602">
        <ele>474.8</ele>
        <time>2025-07-22T18:09:00Z</time>
      </trkpt>
      <trkpt lat="43.08093" lon="-0.57614">
        <ele>474</ele>
        <time>2025-07-22T18:09:01Z</time>
      </trkpt>
      <trkpt lat="43.08097" lon="-0.57625">
        <ele>473.6</ele>
        <time>2025-07-22T18:09:02Z</time>
      </trkpt>
      <trkpt lat="43.08102" lon="-0.57641">
        <ele>472.6</ele>
        <time>2025-07-22T18:09:03Z</time>
      </trkpt>
      <trkpt lat="43.08105" lon="-0.57653">
        <ele>471.6</ele>
        <time>2025-07-22T18:09:04Z</time>
      </trkpt>
      <trkpt lat="43.08108" lon="-0.57667">
        <ele>471.2</ele>
        <time>2025-07-22T18:09:05Z</time>
      </trkpt>
      <trkpt lat="43.0811" lon="-0.57681">
        <ele>470</ele>
        <time>2025-07-22T18:09:06Z</time>
      </trkpt>
      <trkpt lat="43.08112" lon="-0.57695">
        <ele>469.6</ele>
        <time>2025-07-22T18:09:07Z</time>
      </trkpt>
      <trkpt lat="43.08112" lon="-0.57708">
        <ele>468.6</ele>
        <time>2025-07-22T18:09:08Z</time>
      </trkpt>
      <trkpt lat="43.08112" lon="-0.57722">
        <ele>468</ele>
        <time>2025-07-22T18:09:09Z</time>
      </trkpt>
      <trkpt lat="43.08111" lon="-0.57736">
        <ele>467.4</ele>
        <time>2025-07-22T18:09:10Z</time>
      </trkpt>
      <trkpt lat="43.0811" lon="-0.57764">
        <ele>466.2</ele>
        <time>2025-07-22T18:09:12Z</time>
      </trkpt>
      <trkpt lat="43.08108" lon="-0.57793">
        <ele>465</ele>
        <time>2025-07-22T18:09:14Z</time>
      </trkpt>
      <trkpt lat="43.08104" lon="-0.57818">
        <ele>463.8</ele>
        <time>2025-07-22T18:09:16Z</time>
      </trkpt>
      <trkpt lat="43.08102" lon="-0.57839">
        <ele>462.4</ele>
        <time>2025-07-22T18:09:18Z</time>
      </trkpt>
      <trkpt lat="43.081" lon="-0.57853">
        <ele>462.2</ele>
        <time>2025-07-22T18:09:19Z</time>
      </trkpt>
      <trkpt lat="43.08093" lon="-0.57874">
        <ele>461.4</ele>
        <time>2025-07-22T18:09:21Z</time>
      </trkpt>
      <trkpt lat="43.08089" lon="-0.5788">
        <ele>460.8</ele>
        <time>2025-07-22T18:09:22Z</time>
      </trkpt>
      <trkpt lat="43.08082" lon="-0.57888">
        <ele>459.8</ele>
        <time>2025-07-22T18:09:23Z</time>
      </trkpt>
      <trkpt lat="43.08073" lon="-0.57893">
        <ele>459.2</ele>
        <time>2025-07-22T18:09:24Z</time>
      </trkpt>
      <trkpt lat="43.08063" lon="-0.57897">
        <ele>458.4</ele>
        <time>2025-07-22T18:09:25Z</time>
      </trkpt>
      <trkpt lat="43.08051" lon="-0.57898">
        <ele>458.2</ele>
        <time>2025-07-22T18:09:26Z</time>
      </trkpt>
      <trkpt lat="43.08043" lon="-0.57897">
        <ele>457.8</ele>
        <time>2025-07-22T18:09:27Z</time>
      </trkpt>
      <trkpt lat="43.08032" lon="-0.57894">
        <ele>457.4</ele>
        <time>2025-07-22T18:09:28Z</time>
      </trkpt>
      <trkpt lat="43.08017" lon="-0.57881">
        <ele>456.6</ele>
        <time>2025-07-22T18:09:30Z</time>
      </trkpt>
      <trkpt lat="43.08011" lon="-0.57871">
        <ele>456.4</ele>
        <time>2025-07-22T18:09:31Z</time>
      </trkpt>
      <trkpt lat="43.08007" lon="-0.57859">
        <ele>455.4</ele>
        <time>2025-07-22T18:09:32Z</time>
      </trkpt>
      <trkpt lat="43.08004" lon="-0.57847">
        <ele>455.2</ele>
        <time>2025-07-22T18:09:33Z</time>
      </trkpt>
      <trkpt lat="43.08001" lon="-0.57835">
        <ele>454.8</ele>
        <time>2025-07-22T18:09:34Z</time>
      </trkpt>
      <trkpt lat="43.07993" lon="-0.57814">
        <ele>454</ele>
        <time>2025-07-22T18:09:36Z</time>
      </trkpt>
      <trkpt lat="43.07987" lon="-0.57807">
        <ele>453.8</ele>
        <time>2025-07-22T18:09:37Z</time>
      </trkpt>
      <trkpt lat="43.07979" lon="-0.57805">
        <ele>453.6</ele>
        <time>2025-07-22T18:09:38Z</time>
      </trkpt>
      <trkpt lat="43.07973" lon="-0.57807">
        <ele>453.2</ele>
        <time>2025-07-22T18:09:39Z</time>
      </trkpt>
      <trkpt lat="43.07967" lon="-0.57811">
        <ele>453</ele>
        <time>2025-07-22T18:09:40Z</time>
      </trkpt>
      <trkpt lat="43.07961" lon="-0.57818">
        <ele>452</ele>
        <time>2025-07-22T18:09:41Z</time>
      </trkpt>
      <trkpt lat="43.07956" lon="-0.57825">
        <ele>451.8</ele>
        <time>2025-07-22T18:09:42Z</time>
      </trkpt>
      <trkpt lat="43.07951" lon="-0.57834">
        <ele>451.2</ele>
        <time>2025-07-22T18:09:43Z</time>
      </trkpt>
      <trkpt lat="43.07937" lon="-0.57853">
        <ele>449.8</ele>
        <time>2025-07-22T18:09:45Z</time>
      </trkpt>
      <trkpt lat="43.07925" lon="-0.57873">
        <ele>448.6</ele>
        <time>2025-07-22T18:09:47Z</time>
      </trkpt>
      <trkpt lat="43.07919" lon="-0.57883">
        <ele>447.6</ele>
        <time>2025-07-22T18:09:48Z</time>
      </trkpt>
      <trkpt lat="43.07914" lon="-0.57892">
        <ele>447</ele>
        <time>2025-07-22T18:09:49Z</time>
      </trkpt>
      <trkpt lat="43.07908" lon="-0.57914">
        <ele>445.8</ele>
        <time>2025-07-22T18:09:51Z</time>
      </trkpt>
      <trkpt lat="43.07907" lon="-0.57937">
        <ele>445.2</ele>
        <time>2025-07-22T18:09:53Z</time>
      </trkpt>
      <trkpt lat="43.07907" lon="-0.57963">
        <ele>444.2</ele>
        <time>2025-07-22T18:09:55Z</time>
      </trkpt>
      <trkpt lat="43.07906" lon="-0.58001">
        <ele>443</ele>
        <time>2025-07-22T18:09:58Z</time>
      </trkpt>
      <trkpt lat="43.07904" lon="-0.58014">
        <ele>442.8</ele>
        <time>2025-07-22T18:09:59Z</time>
      </trkpt>
      <trkpt lat="43.07902" lon="-0.58027">
        <ele>441.8</ele>
        <time>2025-07-22T18:10:00Z</time>
      </trkpt>
      <trkpt lat="43.07893" lon="-0.58066">
        <ele>440.8</ele>
        <time>2025-07-22T18:10:03Z</time>
      </trkpt>
      <trkpt lat="43.07886" lon="-0.58111">
        <ele>439.6</ele>
        <time>2025-07-22T18:10:06Z</time>
      </trkpt>
      <trkpt lat="43.07887" lon="-0.58138">
        <ele>438</ele>
        <time>2025-07-22T18:10:08Z</time>
      </trkpt>
      <trkpt lat="43.07886" lon="-0.58152">
        <ele>437.6</ele>
        <time>2025-07-22T18:10:09Z</time>
      </trkpt>
      <trkpt lat="43.07884" lon="-0.58169">
        <ele>437</ele>
        <time>2025-07-22T18:10:10Z</time>
      </trkpt>
      <trkpt lat="43.07881" lon="-0.58182">
        <ele>436.6</ele>
        <time>2025-07-22T18:10:11Z</time>
      </trkpt>
      <trkpt lat="43.07871" lon="-0.58206">
        <ele>435.6</ele>
        <time>2025-07-22T18:10:13Z</time>
      </trkpt>
      <trkpt lat="43.07866" lon="-0.58232">
        <ele>434.6</ele>
        <time>2025-07-22T18:10:15Z</time>
      </trkpt>
      <trkpt lat="43.07865" lon="-0.58246">
        <ele>434.4</ele>
        <time>2025-07-22T18:10:16Z</time>
      </trkpt>
      <trkpt lat="43.07867" lon="-0.58289">
        <ele>433.2</ele>
        <time>2025-07-22T18:10:19Z</time>
      </trkpt>
      <trkpt lat="43.07869" lon="-0.58329">
        <ele>432</ele>
        <time>2025-07-22T18:10:22Z</time>
      </trkpt>
      <trkpt lat="43.07869" lon="-0.58343">
        <ele>431.8</ele>
        <time>2025-07-22T18:10:23Z</time>
      </trkpt>
      <trkpt lat="43.07871" lon="-0.58369">
        <ele>430.6</ele>
        <time>2025-07-22T18:10:25Z</time>
      </trkpt>
      <trkpt lat="43.07874" lon="-0.58382">
        <ele>430.2</ele>
        <time>2025-07-22T18:10:26Z</time>
      </trkpt>
      <trkpt lat="43.07876" lon="-0.58394">
        <ele>429.8</ele>
        <time>2025-07-22T18:10:27Z</time>
      </trkpt>
      <trkpt lat="43.0788" lon="-0.58406">
        <ele>429</ele>
        <time>2025-07-22T18:10:28Z</time>
      </trkpt>
      <trkpt lat="43.07891" lon="-0.58445">
        <ele>427.8</ele>
        <time>2025-07-22T18:10:31Z</time>
      </trkpt>
      <trkpt lat="43.07897" lon="-0.58471">
        <ele>426.6</ele>
        <time>2025-07-22T18:10:33Z</time>
      </trkpt>
      <trkpt lat="43.07902" lon="-0.58496">
        <ele>425.6</ele>
        <time>2025-07-22T18:10:35Z</time>
      </trkpt>
      <trkpt lat="43.07906" lon="-0.58533">
        <ele>424.2</ele>
        <time>2025-07-22T18:10:38Z</time>
      </trkpt>
      <trkpt lat="43.07907" lon="-0.58545">
        <ele>424</ele>
        <time>2025-07-22T18:10:39Z</time>
      </trkpt>
      <trkpt lat="43.07908" lon="-0.58581">
        <ele>423</ele>
        <time>2025-07-22T18:10:42Z</time>
      </trkpt>
      <trkpt lat="43.07906" lon="-0.58618">
        <ele>422.4</ele>
        <time>2025-07-22T18:10:45Z</time>
      </trkpt>
      <trkpt lat="43.07902" lon="-0.58642">
        <ele>421.8</ele>
        <time>2025-07-22T18:10:47Z</time>
      </trkpt>
      <trkpt lat="43.07892" lon="-0.58687">
        <ele>420.8</ele>
        <time>2025-07-22T18:10:51Z</time>
      </trkpt>
      <trkpt lat="43.07882" lon="-0.58717">
        <ele>419.6</ele>
        <time>2025-07-22T18:10:54Z</time>
      </trkpt>
      <trkpt lat="43.07874" lon="-0.58737">
        <ele>419.2</ele>
        <time>2025-07-22T18:10:56Z</time>
      </trkpt>
      <trkpt lat="43.07865" lon="-0.58759">
        <ele>419</ele>
        <time>2025-07-22T18:10:58Z</time>
      </trkpt>
      <trkpt lat="43.0786" lon="-0.58783">
        <ele>418.2</ele>
        <time>2025-07-22T18:11:00Z</time>
      </trkpt>
      <trkpt lat="43.07852" lon="-0.58834">
        <ele>416.6</ele>
        <time>2025-07-22T18:11:04Z</time>
      </trkpt>
      <trkpt lat="43.07851" lon="-0.58846">
        <ele>416.6</ele>
        <time>2025-07-22T18:11:05Z</time>
      </trkpt>
      <trkpt lat="43.0785" lon="-0.58857">
        <ele>415.6</ele>
        <time>2025-07-22T18:11:06Z</time>
      </trkpt>
      <trkpt lat="43.07848" lon="-0.5889">
        <ele>414.6</ele>
        <time>2025-07-22T18:11:09Z</time>
      </trkpt>
      <trkpt lat="43.07848" lon="-0.589">
        <ele>414.4</ele>
        <time>2025-07-22T18:11:10Z</time>
      </trkpt>
      <trkpt lat="43.07849" lon="-0.58923">
        <ele>413.2</ele>
        <time>2025-07-22T18:11:12Z</time>
      </trkpt>
      <trkpt lat="43.07849" lon="-0.58948">
        <ele>412</ele>
        <time>2025-07-22T18:11:14Z</time>
      </trkpt>
      <trkpt lat="43.07849" lon="-0.58971">
        <ele>411</ele>
        <time>2025-07-22T18:11:16Z</time>
      </trkpt>
      <trkpt lat="43.07848" lon="-0.58982">
        <ele>410.6</ele>
        <time>2025-07-22T18:11:17Z</time>
      </trkpt>
      <trkpt lat="43.07848" lon="-0.58992">
        <ele>409.8</ele>
        <time>2025-07-22T18:11:18Z</time>
      </trkpt>
      <trkpt lat="43.07849" lon="-0.59013">
        <ele>408.6</ele>
        <time>2025-07-22T18:11:20Z</time>
      </trkpt>
      <trkpt lat="43.07851" lon="-0.59045">
        <ele>407.4</ele>
        <time>2025-07-22T18:11:23Z</time>
      </trkpt>
      <trkpt lat="43.07854" lon="-0.59077">
        <ele>406.2</ele>
        <time>2025-07-22T18:11:26Z</time>
      </trkpt>
      <trkpt lat="43.07855" lon="-0.59108">
        <ele>405.6</ele>
        <time>2025-07-22T18:11:29Z</time>
      </trkpt>
      <trkpt lat="43.07854" lon="-0.59117">
        <ele>405.4</ele>
        <time>2025-07-22T18:11:30Z</time>
      </trkpt>
      <trkpt lat="43.07853" lon="-0.59143">
        <ele>405</ele>
        <time>2025-07-22T18:11:33Z</time>
      </trkpt>
      <trkpt lat="43.07852" lon="-0.59159">
        <ele>405</ele>
        <time>2025-07-22T18:11:35Z</time>
      </trkpt>
      <trkpt lat="43.07848" lon="-0.59207">
        <ele>405</ele>
        <time>2025-07-22T18:11:42Z</time>
      </trkpt>
      <trkpt lat="43.07843" lon="-0.5927">
        <ele>404.6</ele>
        <time>2025-07-22T18:11:50Z</time>
      </trkpt>
      <trkpt lat="43.07841" lon="-0.59288">
        <ele>404.2</ele>
        <time>2025-07-22T18:11:52Z</time>
      </trkpt>
      <trkpt lat="43.07839" lon="-0.59307">
        <ele>403.4</ele>
        <time>2025-07-22T18:11:54Z</time>
      </trkpt>
      <trkpt lat="43.07835" lon="-0.59325">
        <ele>402.6</ele>
        <time>2025-07-22T18:11:56Z</time>
      </trkpt>
      <trkpt lat="43.07829" lon="-0.59352">
        <ele>401.6</ele>
        <time>2025-07-22T18:11:59Z</time>
      </trkpt>
      <trkpt lat="43.07822" lon="-0.5937">
        <ele>401</ele>
        <time>2025-07-22T18:12:01Z</time>
      </trkpt>
      <trkpt lat="43.07811" lon="-0.59397">
        <ele>400.8</ele>
        <time>2025-07-22T18:12:04Z</time>
      </trkpt>
      <trkpt lat="43.07801" lon="-0.59425">
        <ele>400</ele>
        <time>2025-07-22T18:12:07Z</time>
      </trkpt>
      <trkpt lat="43.07799" lon="-0.59435">
        <ele>399.6</ele>
        <time>2025-07-22T18:12:08Z</time>
      </trkpt>
      <trkpt lat="43.07793" lon="-0.59463">
        <ele>398.4</ele>
        <time>2025-07-22T18:12:11Z</time>
      </trkpt>
      <trkpt lat="43.07792" lon="-0.59473">
        <ele>398</ele>
        <time>2025-07-22T18:12:12Z</time>
      </trkpt>
      <trkpt lat="43.07792" lon="-0.59483">
        <ele>397.2</ele>
        <time>2025-07-22T18:12:13Z</time>
      </trkpt>
      <trkpt lat="43.07794" lon="-0.59524">
        <ele>395.8</ele>
        <time>2025-07-22T18:12:17Z</time>
      </trkpt>
      <trkpt lat="43.07795" lon="-0.59544">
        <ele>395</ele>
        <time>2025-07-22T18:12:19Z</time>
      </trkpt>
      <trkpt lat="43.07796" lon="-0.59554">
        <ele>394.8</ele>
        <time>2025-07-22T18:12:20Z</time>
      </trkpt>
      <trkpt lat="43.07795" lon="-0.59575">
        <ele>394.2</ele>
        <time>2025-07-22T18:12:22Z</time>
      </trkpt>
      <trkpt lat="43.07792" lon="-0.59595">
        <ele>393.2</ele>
        <time>2025-07-22T18:12:24Z</time>
      </trkpt>
      <trkpt lat="43.07778" lon="-0.59629">
        <ele>392.2</ele>
        <time>2025-07-22T18:12:28Z</time>
      </trkpt>
      <trkpt lat="43.07775" lon="-0.59636">
        <ele>392</ele>
        <time>2025-07-22T18:12:29Z</time>
      </trkpt>
      <trkpt lat="43.07771" lon="-0.59643">
        <ele>392</ele>
        <time>2025-07-22T18:12:30Z</time>
      </trkpt>
      <trkpt lat="43.07763" lon="-0.59657">
        <ele>391.6</ele>
        <time>2025-07-22T18:12:32Z</time>
      </trkpt>
      <trkpt lat="43.07753" lon="-0.5967">
        <ele>391.2</ele>
        <time>2025-07-22T18:12:34Z</time>
      </trkpt>
      <trkpt lat="43.07733" lon="-0.59704">
        <ele>390.2</ele>
        <time>2025-07-22T18:12:39Z</time>
      </trkpt>
      <trkpt lat="43.0773" lon="-0.59712">
        <ele>390.2</ele>
        <time>2025-07-22T18:12:40Z</time>
      </trkpt>
      <trkpt lat="43.07728" lon="-0.59722">
        <ele>390</ele>
        <time>2025-07-22T18:12:41Z</time>
      </trkpt>
      <trkpt lat="43.07725" lon="-0.59752">
        <ele>389.6</ele>
        <time>2025-07-22T18:12:44Z</time>
      </trkpt>
      <trkpt lat="43.07724" lon="-0.59784">
        <ele>389.2</ele>
        <time>2025-07-22T18:12:47Z</time>
      </trkpt>
      <trkpt lat="43.07726" lon="-0.59817">
        <ele>388</ele>
        <time>2025-07-22T18:12:50Z</time>
      </trkpt>
      <trkpt lat="43.07726" lon="-0.59849">
        <ele>386.8</ele>
        <time>2025-07-22T18:12:53Z</time>
      </trkpt>
      <trkpt lat="43.07723" lon="-0.59879">
        <ele>386.2</ele>
        <time>2025-07-22T18:12:56Z</time>
      </trkpt>
      <trkpt lat="43.07718" lon="-0.59906">
        <ele>385.8</ele>
        <time>2025-07-22T18:12:59Z</time>
      </trkpt>
      <trkpt lat="43.07715" lon="-0.59923">
        <ele>385</ele>
        <time>2025-07-22T18:13:01Z</time>
      </trkpt>
      <trkpt lat="43.07712" lon="-0.59931">
        <ele>384.6</ele>
        <time>2025-07-22T18:13:02Z</time>
      </trkpt>
      <trkpt lat="43.07706" lon="-0.59957">
        <ele>383.6</ele>
        <time>2025-07-22T18:13:05Z</time>
      </trkpt>
      <trkpt lat="43.07703" lon="-0.59974">
        <ele>383.4</ele>
        <time>2025-07-22T18:13:07Z</time>
      </trkpt>
      <trkpt lat="43.07701" lon="-0.60012">
        <ele>382.4</ele>
        <time>2025-07-22T18:13:11Z</time>
      </trkpt>
      <trkpt lat="43.07702" lon="-0.60021">
        <ele>382.2</ele>
        <time>2025-07-22T18:13:12Z</time>
      </trkpt>
      <trkpt lat="43.07706" lon="-0.60059">
        <ele>381.4</ele>
        <time>2025-07-22T18:13:16Z</time>
      </trkpt>
      <trkpt lat="43.07707" lon="-0.60068">
        <ele>381.2</ele>
        <time>2025-07-22T18:13:17Z</time>
      </trkpt>
      <trkpt lat="43.07708" lon="-0.60087">
        <ele>380.8</ele>
        <time>2025-07-22T18:13:19Z</time>
      </trkpt>
      <trkpt lat="43.07708" lon="-0.60106">
        <ele>380.6</ele>
        <time>2025-07-22T18:13:21Z</time>
      </trkpt>
      <trkpt lat="43.07705" lon="-0.60142">
        <ele>379.8</ele>
        <time>2025-07-22T18:13:25Z</time>
      </trkpt>
      <trkpt lat="43.07701" lon="-0.60174">
        <ele>379.4</ele>
        <time>2025-07-22T18:13:29Z</time>
      </trkpt>
      <trkpt lat="43.07697" lon="-0.6021">
        <ele>379.4</ele>
        <time>2025-07-22T18:13:34Z</time>
      </trkpt>
      <trkpt lat="43.07693" lon="-0.60262">
        <ele>379.8</ele>
        <time>2025-07-22T18:13:41Z</time>
      </trkpt>
      <trkpt lat="43.07697" lon="-0.60305">
        <ele>380</ele>
        <time>2025-07-22T18:13:47Z</time>
      </trkpt>
      <trkpt lat="43.07696" lon="-0.6032">
        <ele>380.2</ele>
        <time>2025-07-22T18:13:49Z</time>
      </trkpt>
      <trkpt lat="43.07689" lon="-0.6038">
        <ele>380</ele>
        <time>2025-07-22T18:13:57Z</time>
      </trkpt>
      <trkpt lat="43.0769" lon="-0.60446">
        <ele>379.6</ele>
        <time>2025-07-22T18:14:06Z</time>
      </trkpt>
      <trkpt lat="43.07693" lon="-0.60493">
        <ele>379.2</ele>
        <time>2025-07-22T18:14:13Z</time>
      </trkpt>
      <trkpt lat="43.07692" lon="-0.60521">
        <ele>378.8</ele>
        <time>2025-07-22T18:14:17Z</time>
      </trkpt>
      <trkpt lat="43.07691" lon="-0.60534">
        <ele>378.6</ele>
        <time>2025-07-22T18:14:19Z</time>
      </trkpt>
      <trkpt lat="43.0769" lon="-0.60541">
        <ele>378.8</ele>
        <time>2025-07-22T18:14:20Z</time>
      </trkpt>
      <trkpt lat="43.07684" lon="-0.60579">
        <ele>378</ele>
        <time>2025-07-22T18:14:26Z</time>
      </trkpt>
      <trkpt lat="43.07682" lon="-0.60588">
        <ele>377.8</ele>
        <time>2025-07-22T18:14:28Z</time>
      </trkpt>
      <trkpt lat="43.07675" lon="-0.60605">
        <ele>377.2</ele>
        <time>2025-07-22T18:14:33Z</time>
      </trkpt>
      <trkpt lat="43.07674" lon="-0.60607">
        <ele>376.8</ele>
        <time>2025-07-22T18:14:34Z</time>
      </trkpt>
      <trkpt lat="43.07671" lon="-0.60611">
        <ele>376.4</ele>
        <time>2025-07-22T18:14:37Z</time>
      </trkpt>
      <trkpt lat="43.0767" lon="-0.60611">
        <ele>376.2</ele>
        <time>2025-07-22T18:14:38Z</time>
      </trkpt>
      <trkpt lat="43.07665" lon="-0.60609">
        <ele>376</ele>
        <time>2025-07-22T18:14:41Z</time>
      </trkpt>
      <trkpt lat="43.0766" lon="-0.60605">
        <ele>375.6</ele>
        <time>2025-07-22T18:14:44Z</time>
      </trkpt>
      <trkpt lat="43.07658" lon="-0.60604">
        <ele>375.6</ele>
        <time>2025-07-22T18:14:45Z</time>
      </trkpt>
      <trkpt lat="43.0765" lon="-0.60607">
        <ele>375</ele>
        <time>2025-07-22T18:14:50Z</time>
      </trkpt>
      <trkpt lat="43.07649" lon="-0.60607">
        <ele>374.6</ele>
        <time>2025-07-22T18:14:51Z</time>
      </trkpt>
      <trkpt lat="43.07648" lon="-0.60606">
        <ele>374.6</ele>
        <time>2025-07-22T18:14:53Z</time>
      </trkpt>
      <trkpt lat="43.07648" lon="-0.60605">
        <ele>374.6</ele>
        <time>2025-07-22T18:14:56Z</time>
      </trkpt>
      <trkpt lat="43.07651" lon="-0.60602">
        <ele>374.6</ele>
        <time>2025-07-22T18:15:03Z</time>
      </trkpt>
      <trkpt lat="43.07653" lon="-0.60599">
        <ele>374.4</ele>
        <time>2025-07-22T18:15:05Z</time>
      </trkpt>
      <trkpt lat="43.07659" lon="-0.60596">
        <ele>374.4</ele>
        <time>2025-07-22T18:15:08Z</time>
      </trkpt>
      <trkpt lat="43.07663" lon="-0.606">
        <ele>374.4</ele>
        <time>2025-07-22T18:15:10Z</time>
      </trkpt>
      <trkpt lat="43.07675" lon="-0.60622">
        <ele>374.8</ele>
        <time>2025-07-22T18:15:17Z</time>
      </trkpt>
      <trkpt lat="43.07685" lon="-0.60649">
        <ele>376</ele>
        <time>2025-07-22T18:15:25Z</time>
      </trkpt>
      <trkpt lat="43.07692" lon="-0.60667">
        <ele>376.6</ele>
        <time>2025-07-22T18:15:30Z</time>
      </trkpt>
      <trkpt lat="43.07694" lon="-0.60674">
        <ele>377</ele>
        <time>2025-07-22T18:15:32Z</time>
      </trkpt>
      <trkpt lat="43.077" lon="-0.6069">
        <ele>377.8</ele>
        <time>2025-07-22T18:15:36Z</time>
      </trkpt>
      <trkpt lat="43.07705" lon="-0.60696">
        <ele>378</ele>
        <time>2025-07-22T18:15:38Z</time>
      </trkpt>
      <trkpt lat="43.07717" lon="-0.6071">
        <ele>379</ele>
        <time>2025-07-22T18:15:43Z</time>
      </trkpt>
      <trkpt lat="43.07722" lon="-0.60716">
        <ele>379.2</ele>
        <time>2025-07-22T18:15:45Z</time>
      </trkpt>
      <trkpt lat="43.07731" lon="-0.60723">
        <ele>379.6</ele>
        <time>2025-07-22T18:15:49Z</time>
      </trkpt>
      <trkpt lat="43.07743" lon="-0.60731">
        <ele>380.2</ele>
        <time>2025-07-22T18:15:55Z</time>
      </trkpt>
      <trkpt lat="43.07747" lon="-0.60733">
        <ele>380.6</ele>
        <time>2025-07-22T18:15:58Z</time>
      </trkpt>
      <trkpt lat="43.07747" lon="-0.60734">
        <ele>380.8</ele>
        <time>2025-07-22T18:15:59Z</time>
      </trkpt>
      <trkpt lat="43.07743" lon="-0.60734">
        <ele>381</ele>
        <time>2025-07-22T18:16:03Z</time>
      </trkpt>
      <trkpt lat="43.07742" lon="-0.60733">
        <ele>381</ele>
        <time>2025-07-22T18:16:04Z</time>
      </trkpt>
      <trkpt lat="43.07732" lon="-0.60727">
        <ele>380.8</ele>
        <time>2025-07-22T18:16:10Z</time>
      </trkpt>
      <trkpt lat="43.07718" lon="-0.60712">
        <ele>380.4</ele>
        <time>2025-07-22T18:16:16Z</time>
      </trkpt>
      <trkpt lat="43.07704" lon="-0.60696">
        <ele>380.4</ele>
        <time>2025-07-22T18:16:21Z</time>
      </trkpt>
      <trkpt lat="43.07701" lon="-0.60691">
        <ele>380.4</ele>
        <time>2025-07-22T18:16:22Z</time>
      </trkpt>
      <trkpt lat="43.07693" lon="-0.60675">
        <ele>379.8</ele>
        <time>2025-07-22T18:16:25Z</time>
      </trkpt>
      <trkpt lat="43.07691" lon="-0.6067">
        <ele>379.8</ele>
        <time>2025-07-22T18:16:26Z</time>
      </trkpt>
      <trkpt lat="43.07689" lon="-0.60665">
        <ele>379.6</ele>
        <time>2025-07-22T18:16:27Z</time>
      </trkpt>
      <trkpt lat="43.07678" lon="-0.60639">
        <ele>378.8</ele>
        <time>2025-07-22T18:16:32Z</time>
      </trkpt>
      <trkpt lat="43.07676" lon="-0.60634">
        <ele>378.6</ele>
        <time>2025-07-22T18:16:33Z</time>
      </trkpt>
      <trkpt lat="43.07674" lon="-0.60628">
        <ele>378.6</ele>
        <time>2025-07-22T18:16:34Z</time>
      </trkpt>
      <trkpt lat="43.07672" lon="-0.60623">
        <ele>378.4</ele>
        <time>2025-07-22T18:16:35Z</time>
      </trkpt>
      <trkpt lat="43.07661" lon="-0.60602">
        <ele>377.4</ele>
        <time>2025-07-22T18:16:39Z</time>
      </trkpt>
      <trkpt lat="43.07658" lon="-0.60595">
        <ele>377.2</ele>
        <time>2025-07-22T18:16:40Z</time>
      </trkpt>
      <trkpt lat="43.07648" lon="-0.60571">
        <ele>376.4</ele>
        <time>2025-07-22T18:16:44Z</time>
      </trkpt>
      <trkpt lat="43.07643" lon="-0.60557">
        <ele>375.4</ele>
        <time>2025-07-22T18:16:46Z</time>
      </trkpt>
      <trkpt lat="43.07639" lon="-0.6055">
        <ele>374.8</ele>
        <time>2025-07-22T18:16:47Z</time>
      </trkpt>
      <trkpt lat="43.07635" lon="-0.60544">
        <ele>374.4</ele>
        <time>2025-07-22T18:16:48Z</time>
      </trkpt>
      <trkpt lat="43.0763" lon="-0.60538">
        <ele>373.8</ele>
        <time>2025-07-22T18:16:49Z</time>
      </trkpt>
      <trkpt lat="43.0762" lon="-0.60529">
        <ele>372.8</ele>
        <time>2025-07-22T18:16:51Z</time>
      </trkpt>
      <trkpt lat="43.07615" lon="-0.60525">
        <ele>372.4</ele>
        <time>2025-07-22T18:16:52Z</time>
      </trkpt>
      <trkpt lat="43.07606" lon="-0.60517">
        <ele>371.6</ele>
        <time>2025-07-22T18:16:54Z</time>
      </trkpt>
      <trkpt lat="43.07602" lon="-0.60514">
        <ele>371.6</ele>
        <time>2025-07-22T18:16:55Z</time>
      </trkpt>
      <trkpt lat="43.07593" lon="-0.60512">
        <ele>371.2</ele>
        <time>2025-07-22T18:16:57Z</time>
      </trkpt>
      <trkpt lat="43.07583" lon="-0.60518">
        <ele>370.8</ele>
        <time>2025-07-22T18:17:00Z</time>
      </trkpt>
      <trkpt lat="43.0757" lon="-0.60531">
        <ele>370.8</ele>
        <time>2025-07-22T18:17:06Z</time>
      </trkpt>
      <trkpt lat="43.07566" lon="-0.60538">
        <ele>371</ele>
        <time>2025-07-22T18:17:10Z</time>
      </trkpt>
      <trkpt lat="43.07566" lon="-0.60538">
        <ele>371.4</ele>
        <time>2025-07-22T18:17:12Z</time>
      </trkpt>
      <trkpt lat="43.07561" lon="-0.60545">
        <ele>372.2</ele>
        <time>2025-07-22T18:17:25Z</time>
      </trkpt>
      <trkpt lat="43.0756" lon="-0.60546">
        <ele>372.4</ele>
        <time>2025-07-22T18:17:26Z</time>
      </trkpt>
      <trkpt lat="43.07557" lon="-0.60549">
        <ele>372.4</ele>
        <time>2025-07-22T18:17:28Z</time>
      </trkpt>
      <trkpt lat="43.07556" lon="-0.60548">
        <ele>372.6</ele>
        <time>2025-07-22T18:17:30Z</time>
      </trkpt>
      <trkpt lat="43.07556" lon="-0.60548">
        <ele>372.6</ele>
        <time>2025-07-22T18:17:31Z</time>
      </trkpt>
      <trkpt lat="43.07552" lon="-0.60556">
        <ele>373</ele>
        <time>2025-07-22T18:17:43Z</time>
      </trkpt>
      <trkpt lat="43.07549" lon="-0.60561">
        <ele>373.4</ele>
        <time>2025-07-22T18:17:45Z</time>
      </trkpt>
      <trkpt lat="43.07542" lon="-0.60579">
        <ele>373.8</ele>
        <time>2025-07-22T18:17:51Z</time>
      </trkpt>
      <trkpt lat="43.0754" lon="-0.60599">
        <ele>374.4</ele>
        <time>2025-07-22T18:17:56Z</time>
      </trkpt>
      <trkpt lat="43.07538" lon="-0.60609">
        <ele>374.4</ele>
        <time>2025-07-22T18:17:58Z</time>
      </trkpt>
      <trkpt lat="43.07529" lon="-0.6064">
        <ele>374.4</ele>
        <time>2025-07-22T18:18:04Z</time>
      </trkpt>
      <trkpt lat="43.07521" lon="-0.60668">
        <ele>374</ele>
        <time>2025-07-22T18:18:09Z</time>
      </trkpt>
      <trkpt lat="43.07516" lon="-0.60676">
        <ele>373.8</ele>
        <time>2025-07-22T18:18:11Z</time>
      </trkpt>
      <trkpt lat="43.07509" lon="-0.60682">
        <ele>373.6</ele>
        <time>2025-07-22T18:18:13Z</time>
      </trkpt>
      <trkpt lat="43.07502" lon="-0.60686">
        <ele>373.4</ele>
        <time>2025-07-22T18:18:15Z</time>
      </trkpt>
      <trkpt lat="43.07498" lon="-0.60687">
        <ele>373.4</ele>
        <time>2025-07-22T18:18:16Z</time>
      </trkpt>
      <trkpt lat="43.07489" lon="-0.60687">
        <ele>373.4</ele>
        <time>2025-07-22T18:18:18Z</time>
      </trkpt>
      <trkpt lat="43.07471" lon="-0.60682">
        <ele>373.2</ele>
        <time>2025-07-22T18:18:22Z</time>
      </trkpt>
      <trkpt lat="43.07454" lon="-0.60676">
        <ele>373</ele>
        <time>2025-07-22T18:18:26Z</time>
      </trkpt>
      <trkpt lat="43.07446" lon="-0.6067">
        <ele>373</ele>
        <time>2025-07-22T18:18:28Z</time>
      </trkpt>
      <trkpt lat="43.07442" lon="-0.60668">
        <ele>373</ele>
        <time>2025-07-22T18:18:29Z</time>
      </trkpt>
      <trkpt lat="43.0743" lon="-0.60661">
        <ele>372.6</ele>
        <time>2025-07-22T18:18:32Z</time>
      </trkpt>
      <trkpt lat="43.07421" lon="-0.60657">
        <ele>372.6</ele>
        <time>2025-07-22T18:18:34Z</time>
      </trkpt>
      <trkpt lat="43.07401" lon="-0.60645">
        <ele>372.8</ele>
        <time>2025-07-22T18:18:39Z</time>
      </trkpt>
      <trkpt lat="43.07353" lon="-0.6062">
        <ele>373.4</ele>
        <time>2025-07-22T18:18:50Z</time>
      </trkpt>
      <trkpt lat="43.07343" lon="-0.60617">
        <ele>373.4</ele>
        <time>2025-07-22T18:18:52Z</time>
      </trkpt>
      <trkpt lat="43.07323" lon="-0.60614">
        <ele>373.6</ele>
        <time>2025-07-22T18:18:56Z</time>
      </trkpt>
      <trkpt lat="43.07291" lon="-0.60616">
        <ele>373.2</ele>
        <time>2025-07-22T18:19:02Z</time>
      </trkpt>
      <trkpt lat="43.07251" lon="-0.60621">
        <ele>372.4</ele>
        <time>2025-07-22T18:19:09Z</time>
      </trkpt>
      <trkpt lat="43.07238" lon="-0.6062">
        <ele>371.8</ele>
        <time>2025-07-22T18:19:11Z</time>
      </trkpt>
      <trkpt lat="43.07226" lon="-0.60621">
        <ele>371</ele>
        <time>2025-07-22T18:19:13Z</time>
      </trkpt>
      <trkpt lat="43.07215" lon="-0.60621">
        <ele>369.8</ele>
        <time>2025-07-22T18:19:15Z</time>
      </trkpt>
      <trkpt lat="43.07206" lon="-0.6062">
        <ele>368.6</ele>
        <time>2025-07-22T18:19:17Z</time>
      </trkpt>
      <trkpt lat="43.07198" lon="-0.6062">
        <ele>367.4</ele>
        <time>2025-07-22T18:19:19Z</time>
      </trkpt>
      <trkpt lat="43.07195" lon="-0.60621">
        <ele>366.6</ele>
        <time>2025-07-22T18:19:20Z</time>
      </trkpt>
      <trkpt lat="43.07194" lon="-0.60623">
        <ele>366.4</ele>
        <time>2025-07-22T18:19:21Z</time>
      </trkpt>
      <trkpt lat="43.07196" lon="-0.6063">
        <ele>365.2</ele>
        <time>2025-07-22T18:19:23Z</time>
      </trkpt>
      <trkpt lat="43.07202" lon="-0.60638">
        <ele>364.2</ele>
        <time>2025-07-22T18:19:25Z</time>
      </trkpt>
      <trkpt lat="43.07209" lon="-0.60647">
        <ele>363.8</ele>
        <time>2025-07-22T18:19:27Z</time>
      </trkpt>
      <trkpt lat="43.0723" lon="-0.60674">
        <ele>363.2</ele>
        <time>2025-07-22T18:19:32Z</time>
      </trkpt>
      <trkpt lat="43.07234" lon="-0.60679">
        <ele>363.2</ele>
        <time>2025-07-22T18:19:33Z</time>
      </trkpt>
      <trkpt lat="43.07258" lon="-0.60706">
        <ele>363.2</ele>
        <time>2025-07-22T18:19:38Z</time>
      </trkpt>
      <trkpt lat="43.07263" lon="-0.60711">
        <ele>363.2</ele>
        <time>2025-07-22T18:19:39Z</time>
      </trkpt>
      <trkpt lat="43.07306" lon="-0.6074">
        <ele>362.6</ele>
        <time>2025-07-22T18:19:46Z</time>
      </trkpt>
      <trkpt lat="43.07319" lon="-0.60748">
        <ele>362.4</ele>
        <time>2025-07-22T18:19:48Z</time>
      </trkpt>
      <trkpt lat="43.07338" lon="-0.60761">
        <ele>362</ele>
        <time>2025-07-22T18:19:51Z</time>
      </trkpt>
      <trkpt lat="43.07344" lon="-0.60765">
        <ele>362</ele>
        <time>2025-07-22T18:19:52Z</time>
      </trkpt>
      <trkpt lat="43.07362" lon="-0.60777">
        <ele>361.4</ele>
        <time>2025-07-22T18:19:55Z</time>
      </trkpt>
      <trkpt lat="43.07392" lon="-0.60798">
        <ele>361.2</ele>
        <time>2025-07-22T18:20:00Z</time>
      </trkpt>
      <trkpt lat="43.07441" lon="-0.60833">
        <ele>360.8</ele>
        <time>2025-07-22T18:20:08Z</time>
      </trkpt>
      <trkpt lat="43.07446" lon="-0.60838">
        <ele>360.6</ele>
        <time>2025-07-22T18:20:09Z</time>
      </trkpt>
      <trkpt lat="43.07463" lon="-0.60852">
        <ele>360.4</ele>
        <time>2025-07-22T18:20:12Z</time>
      </trkpt>
      <trkpt lat="43.07495" lon="-0.60885">
        <ele>360</ele>
        <time>2025-07-22T18:20:18Z</time>
      </trkpt>
      <trkpt lat="43.07511" lon="-0.60901">
        <ele>359.6</ele>
        <time>2025-07-22T18:20:21Z</time>
      </trkpt>
      <trkpt lat="43.07549" lon="-0.6094">
        <ele>359.2</ele>
        <time>2025-07-22T18:20:28Z</time>
      </trkpt>
      <trkpt lat="43.07571" lon="-0.60961">
        <ele>358.8</ele>
        <time>2025-07-22T18:20:32Z</time>
      </trkpt>
      <trkpt lat="43.07607" lon="-0.61">
        <ele>358.2</ele>
        <time>2025-07-22T18:20:39Z</time>
      </trkpt>
      <trkpt lat="43.07648" lon="-0.61043">
        <ele>358.2</ele>
        <time>2025-07-22T18:20:47Z</time>
      </trkpt>
      <trkpt lat="43.07692" lon="-0.61095">
        <ele>358.2</ele>
        <time>2025-07-22T18:20:56Z</time>
      </trkpt>
      <trkpt lat="43.07697" lon="-0.61101">
        <ele>358.4</ele>
        <time>2025-07-22T18:20:57Z</time>
      </trkpt>
      <trkpt lat="43.07731" lon="-0.61142">
        <ele>359</ele>
        <time>2025-07-22T18:21:05Z</time>
      </trkpt>
      <trkpt lat="43.07755" lon="-0.6117">
        <ele>360.2</ele>
        <time>2025-07-22T18:21:11Z</time>
      </trkpt>
      <trkpt lat="43.07759" lon="-0.61174">
        <ele>360.4</ele>
        <time>2025-07-22T18:21:12Z</time>
      </trkpt>
      <trkpt lat="43.07762" lon="-0.61176">
        <ele>360.8</ele>
        <time>2025-07-22T18:21:13Z</time>
      </trkpt>
      <trkpt lat="43.07765" lon="-0.61179">
        <ele>360.8</ele>
        <time>2025-07-22T18:21:14Z</time>
      </trkpt>
      <trkpt lat="43.07786" lon="-0.61195">
        <ele>361.6</ele>
        <time>2025-07-22T18:21:19Z</time>
      </trkpt>
      <trkpt lat="43.07806" lon="-0.61212">
        <ele>362.2</ele>
        <time>2025-07-22T18:21:24Z</time>
      </trkpt>
      <trkpt lat="43.07852" lon="-0.61257">
        <ele>362.6</ele>
        <time>2025-07-22T18:21:33Z</time>
      </trkpt>
      <trkpt lat="43.07856" lon="-0.6126">
        <ele>362.6</ele>
        <time>2025-07-22T18:21:34Z</time>
      </trkpt>
      <trkpt lat="43.07877" lon="-0.61269">
        <ele>363.6</ele>
        <time>2025-07-22T18:21:39Z</time>
      </trkpt>
      <trkpt lat="43.07884" lon="-0.61271">
        <ele>363.8</ele>
        <time>2025-07-22T18:21:41Z</time>
      </trkpt>
      <trkpt lat="43.07903" lon="-0.61277">
        <ele>364.8</ele>
        <time>2025-07-22T18:21:46Z</time>
      </trkpt>
      <trkpt lat="43.07907" lon="-0.61278">
        <ele>365</ele>
        <time>2025-07-22T18:21:47Z</time>
      </trkpt>
      <trkpt lat="43.07923" lon="-0.6128">
        <ele>366</ele>
        <time>2025-07-22T18:21:51Z</time>
      </trkpt>
      <trkpt lat="43.07942" lon="-0.61284">
        <ele>366.8</ele>
        <time>2025-07-22T18:21:56Z</time>
      </trkpt>
      <trkpt lat="43.07946" lon="-0.61284">
        <ele>367</ele>
        <time>2025-07-22T18:21:57Z</time>
      </trkpt>
      <trkpt lat="43.07976" lon="-0.61287">
        <ele>368</ele>
        <time>2025-07-22T18:22:05Z</time>
      </trkpt>
      <trkpt lat="43.07981" lon="-0.61288">
        <ele>368.2</ele>
        <time>2025-07-22T18:22:06Z</time>
      </trkpt>
      <trkpt lat="43.0801" lon="-0.61295">
        <ele>368.8</ele>
        <time>2025-07-22T18:22:13Z</time>
      </trkpt>
      <trkpt lat="43.08019" lon="-0.61299">
        <ele>368.8</ele>
        <time>2025-07-22T18:22:15Z</time>
      </trkpt>
      <trkpt lat="43.08056" lon="-0.6132">
        <ele>369</ele>
        <time>2025-07-22T18:22:23Z</time>
      </trkpt>
      <trkpt lat="43.08093" lon="-0.61345">
        <ele>369</ele>
        <time>2025-07-22T18:22:30Z</time>
      </trkpt>
      <trkpt lat="43.08146" lon="-0.61383">
        <ele>368.4</ele>
        <time>2025-07-22T18:22:40Z</time>
      </trkpt>
      <trkpt lat="43.08196" lon="-0.61416">
        <ele>368.6</ele>
        <time>2025-07-22T18:22:49Z</time>
      </trkpt>
      <trkpt lat="43.08209" lon="-0.61425">
        <ele>368.6</ele>
        <time>2025-07-22T18:22:51Z</time>
      </trkpt>
      <trkpt lat="43.08244" lon="-0.61442">
        <ele>368.6</ele>
        <time>2025-07-22T18:22:57Z</time>
      </trkpt>
      <trkpt lat="43.08299" lon="-0.61466">
        <ele>368.6</ele>
        <time>2025-07-22T18:23:06Z</time>
      </trkpt>
      <trkpt lat="43.08316" lon="-0.61474">
        <ele>368.6</ele>
        <time>2025-07-22T18:23:09Z</time>
      </trkpt>
      <trkpt lat="43.08372" lon="-0.61492">
        <ele>368.4</ele>
        <time>2025-07-22T18:23:18Z</time>
      </trkpt>
      <trkpt lat="43.08377" lon="-0.61492">
        <ele>368.4</ele>
        <time>2025-07-22T18:23:19Z</time>
      </trkpt>
      <trkpt lat="43.08427" lon="-0.61501">
        <ele>368.4</ele>
        <time>2025-07-22T18:23:27Z</time>
      </trkpt>
      <trkpt lat="43.08486" lon="-0.61498">
        <ele>368.6</ele>
        <time>2025-07-22T18:23:36Z</time>
      </trkpt>
      <trkpt lat="43.08541" lon="-0.61497">
        <ele>369</ele>
        <time>2025-07-22T18:23:45Z</time>
      </trkpt>
      <trkpt lat="43.08584" lon="-0.61504">
        <ele>369.8</ele>
        <time>2025-07-22T18:23:53Z</time>
      </trkpt>
      <trkpt lat="43.08605" lon="-0.6151">
        <ele>370.4</ele>
        <time>2025-07-22T18:23:57Z</time>
      </trkpt>
      <trkpt lat="43.08636" lon="-0.61518">
        <ele>371.2</ele>
        <time>2025-07-22T18:24:03Z</time>
      </trkpt>
      <trkpt lat="43.08646" lon="-0.6152">
        <ele>371.4</ele>
        <time>2025-07-22T18:24:05Z</time>
      </trkpt>
      <trkpt lat="43.08701" lon="-0.61536">
        <ele>372.6</ele>
        <time>2025-07-22T18:24:15Z</time>
      </trkpt>
      <trkpt lat="43.0873" lon="-0.61543">
        <ele>372.6</ele>
        <time>2025-07-22T18:24:20Z</time>
      </trkpt>
      <trkpt lat="43.08754" lon="-0.61548">
        <ele>372.6</ele>
        <time>2025-07-22T18:24:24Z</time>
      </trkpt>
      <trkpt lat="43.08789" lon="-0.61556">
        <ele>373</ele>
        <time>2025-07-22T18:24:30Z</time>
      </trkpt>
      <trkpt lat="43.08813" lon="-0.61562">
        <ele>373</ele>
        <time>2025-07-22T18:24:34Z</time>
      </trkpt>
      <trkpt lat="43.08872" lon="-0.61577">
        <ele>373</ele>
        <time>2025-07-22T18:24:44Z</time>
      </trkpt>
      <trkpt lat="43.08896" lon="-0.61583">
        <ele>373.2</ele>
        <time>2025-07-22T18:24:48Z</time>
      </trkpt>
      <trkpt lat="43.08952" lon="-0.61596">
        <ele>373.2</ele>
        <time>2025-07-22T18:24:57Z</time>
      </trkpt>
      <trkpt lat="43.08979" lon="-0.61602">
        <ele>373.2</ele>
        <time>2025-07-22T18:25:01Z</time>
      </trkpt>
      <trkpt lat="43.09035" lon="-0.61619">
        <ele>372.6</ele>
        <time>2025-07-22T18:25:09Z</time>
      </trkpt>
      <trkpt lat="43.09063" lon="-0.61633">
        <ele>372.4</ele>
        <time>2025-07-22T18:25:13Z</time>
      </trkpt>
      <trkpt lat="43.09084" lon="-0.61645">
        <ele>372</ele>
        <time>2025-07-22T18:25:16Z</time>
      </trkpt>
      <trkpt lat="43.09104" lon="-0.61659">
        <ele>371.4</ele>
        <time>2025-07-22T18:25:19Z</time>
      </trkpt>
      <trkpt lat="43.09137" lon="-0.61686">
        <ele>370.6</ele>
        <time>2025-07-22T18:25:24Z</time>
      </trkpt>
      <trkpt lat="43.09143" lon="-0.61692">
        <ele>370.2</ele>
        <time>2025-07-22T18:25:25Z</time>
      </trkpt>
      <trkpt lat="43.09191" lon="-0.61742">
        <ele>369.6</ele>
        <time>2025-07-22T18:25:33Z</time>
      </trkpt>
      <trkpt lat="43.09235" lon="-0.61789">
        <ele>369.4</ele>
        <time>2025-07-22T18:25:41Z</time>
      </trkpt>
      <trkpt lat="43.09282" lon="-0.61839">
        <ele>369.6</ele>
        <time>2025-07-22T18:25:50Z</time>
      </trkpt>
      <trkpt lat="43.09288" lon="-0.61845">
        <ele>369.6</ele>
        <time>2025-07-22T18:25:51Z</time>
      </trkpt>
      <trkpt lat="43.09334" lon="-0.61894">
        <ele>370</ele>
        <time>2025-07-22T18:26:00Z</time>
      </trkpt>
      <trkpt lat="43.09345" lon="-0.61905">
        <ele>370</ele>
        <time>2025-07-22T18:26:02Z</time>
      </trkpt>
      <trkpt lat="43.09392" lon="-0.61955">
        <ele>370.2</ele>
        <time>2025-07-22T18:26:11Z</time>
      </trkpt>
      <trkpt lat="43.09413" lon="-0.61979">
        <ele>370.2</ele>
        <time>2025-07-22T18:26:15Z</time>
      </trkpt>
      <trkpt lat="43.09457" lon="-0.62027">
        <ele>370.2</ele>
        <time>2025-07-22T18:26:23Z</time>
      </trkpt>
      <trkpt lat="43.09474" lon="-0.62045">
        <ele>370</ele>
        <time>2025-07-22T18:26:26Z</time>
      </trkpt>
      <trkpt lat="43.09517" lon="-0.62093">
        <ele>369.4</ele>
        <time>2025-07-22T18:26:34Z</time>
      </trkpt>
      <trkpt lat="43.09528" lon="-0.62105">
        <ele>369</ele>
        <time>2025-07-22T18:26:36Z</time>
      </trkpt>
      <trkpt lat="43.09544" lon="-0.62122">
        <ele>368.8</ele>
        <time>2025-07-22T18:26:39Z</time>
      </trkpt>
      <trkpt lat="43.09589" lon="-0.6217">
        <ele>368.4</ele>
        <time>2025-07-22T18:26:47Z</time>
      </trkpt>
      <trkpt lat="43.096" lon="-0.62182">
        <ele>368.4</ele>
        <time>2025-07-22T18:26:49Z</time>
      </trkpt>
      <trkpt lat="43.09611" lon="-0.62194">
        <ele>368.2</ele>
        <time>2025-07-22T18:26:51Z</time>
      </trkpt>
      <trkpt lat="43.09648" lon="-0.62226">
        <ele>367.8</ele>
        <time>2025-07-22T18:26:57Z</time>
      </trkpt>
      <trkpt lat="43.09696" lon="-0.6225">
        <ele>367.6</ele>
        <time>2025-07-22T18:27:04Z</time>
      </trkpt>
      <trkpt lat="43.09711" lon="-0.62254">
        <ele>367.2</ele>
        <time>2025-07-22T18:27:06Z</time>
      </trkpt>
      <trkpt lat="43.09747" lon="-0.6226">
        <ele>366.8</ele>
        <time>2025-07-22T18:27:11Z</time>
      </trkpt>
      <trkpt lat="43.09804" lon="-0.62265">
        <ele>366.6</ele>
        <time>2025-07-22T18:27:19Z</time>
      </trkpt>
      <trkpt lat="43.09811" lon="-0.62265">
        <ele>366.6</ele>
        <time>2025-07-22T18:27:20Z</time>
      </trkpt>
      <trkpt lat="43.09825" lon="-0.62265">
        <ele>366.4</ele>
        <time>2025-07-22T18:27:22Z</time>
      </trkpt>
      <trkpt lat="43.09881" lon="-0.62263">
        <ele>366</ele>
        <time>2025-07-22T18:27:30Z</time>
      </trkpt>
      <trkpt lat="43.09888" lon="-0.62262">
        <ele>366</ele>
        <time>2025-07-22T18:27:31Z</time>
      </trkpt>
      <trkpt lat="43.09918" lon="-0.62259">
        <ele>365.8</ele>
        <time>2025-07-22T18:27:36Z</time>
      </trkpt>
      <trkpt lat="43.09929" lon="-0.62256">
        <ele>365.6</ele>
        <time>2025-07-22T18:27:38Z</time>
      </trkpt>
      <trkpt lat="43.09944" lon="-0.62252">
        <ele>365.6</ele>
        <time>2025-07-22T18:27:41Z</time>
      </trkpt>
      <trkpt lat="43.09947" lon="-0.6225">
        <ele>365.4</ele>
        <time>2025-07-22T18:27:42Z</time>
      </trkpt>
      <trkpt lat="43.09949" lon="-0.62245">
        <ele>365.2</ele>
        <time>2025-07-22T18:27:44Z</time>
      </trkpt>
      <trkpt lat="43.09936" lon="-0.62241">
        <ele>364.6</ele>
        <time>2025-07-22T18:27:47Z</time>
      </trkpt>
      <trkpt lat="43.09931" lon="-0.62241">
        <ele>364.4</ele>
        <time>2025-07-22T18:27:48Z</time>
      </trkpt>
      <trkpt lat="43.09892" lon="-0.62237">
        <ele>363.4</ele>
        <time>2025-07-22T18:27:56Z</time>
      </trkpt>
      <trkpt lat="43.09888" lon="-0.62236">
        <ele>363.4</ele>
        <time>2025-07-22T18:27:57Z</time>
      </trkpt>
      <trkpt lat="43.09873" lon="-0.62236">
        <ele>363</ele>
        <time>2025-07-22T18:28:02Z</time>
      </trkpt>
      <trkpt lat="43.09872" lon="-0.62238">
        <ele>362.8</ele>
        <time>2025-07-22T18:28:06Z</time>
      </trkpt>
    </trkseg>
  </trk>
</gpx>